<?xml version="1.0" encoding="UTF-8" standalone="no" ?>
<gpx xmlns="http://www.topografix.com/GPX/1/1" xmlns:xsi="http://www.w3.org/2001/XMLSchema-instance" xsi:schemaLocation="http://www.topografix.com/GPX/1/1 http://www.topografix.com/GPX/1/1/gpx.xsd" version="1.1" creator="VisuGPX - https://www.visugpx.com">
  <metadata>
    <name>Pic du Loup-Grand Colon</name>
  </metadata>
  <trk>
    <name><![CDATA[Pic du Loup-Grand Colon]]></name>
    <trkseg>
      <trkpt lat="45.18665" lon="5.90009">
        <ele>1151</ele>
        <time>2021-02-20T06:14:28Z</time>
      </trkpt>
      <trkpt lat="45.18665" lon="5.90009">
        <ele>1151.1</ele>
        <time>2021-02-20T06:14:29Z</time>
      </trkpt>
      <trkpt lat="45.18665" lon="5.9001">
        <ele>1151.1</ele>
        <time>2021-02-20T06:14:30Z</time>
      </trkpt>
      <trkpt lat="45.18665" lon="5.90011">
        <ele>1151.2</ele>
        <time>2021-02-20T06:14:31Z</time>
      </trkpt>
      <trkpt lat="45.18665" lon="5.90011">
        <ele>1151.2</ele>
        <time>2021-02-20T06:14:32Z</time>
      </trkpt>
      <trkpt lat="45.18665" lon="5.90012">
        <ele>1151.2</ele>
        <time>2021-02-20T06:14:33Z</time>
      </trkpt>
      <trkpt lat="45.18665" lon="5.90013">
        <ele>1151.3</ele>
        <time>2021-02-20T06:14:34Z</time>
      </trkpt>
      <trkpt lat="45.18665" lon="5.90013">
        <ele>1151.3</ele>
        <time>2021-02-20T06:14:35Z</time>
      </trkpt>
      <trkpt lat="45.18665" lon="5.90014">
        <ele>1151.4</ele>
        <time>2021-02-20T06:14:36Z</time>
      </trkpt>
      <trkpt lat="45.18665" lon="5.90014">
        <ele>1151.4</ele>
        <time>2021-02-20T06:14:37Z</time>
      </trkpt>
      <trkpt lat="45.18665" lon="5.90015">
        <ele>1151.5</ele>
        <time>2021-02-20T06:14:38Z</time>
      </trkpt>
      <trkpt lat="45.18665" lon="5.90016">
        <ele>1151.5</ele>
        <time>2021-02-20T06:14:39Z</time>
      </trkpt>
      <trkpt lat="45.18665" lon="5.90016">
        <ele>1151.6</ele>
        <time>2021-02-20T06:15:00Z</time>
      </trkpt>
      <trkpt lat="45.18665" lon="5.90017">
        <ele>1151.6</ele>
        <time>2021-02-20T06:15:01Z</time>
      </trkpt>
      <trkpt lat="45.18665" lon="5.90018">
        <ele>1151.7</ele>
        <time>2021-02-20T06:15:02Z</time>
      </trkpt>
      <trkpt lat="45.18665" lon="5.90018">
        <ele>1151.7</ele>
        <time>2021-02-20T06:15:03Z</time>
      </trkpt>
      <trkpt lat="45.18666" lon="5.90018">
        <ele>1151.8</ele>
        <time>2021-02-20T06:15:04Z</time>
      </trkpt>
      <trkpt lat="45.18668" lon="5.90019">
        <ele>1152</ele>
        <time>2021-02-20T06:15:05Z</time>
      </trkpt>
      <trkpt lat="45.18668" lon="5.90019">
        <ele>1152.1</ele>
        <time>2021-02-20T06:15:06Z</time>
      </trkpt>
      <trkpt lat="45.18669" lon="5.9002">
        <ele>1152.1</ele>
        <time>2021-02-20T06:15:07Z</time>
      </trkpt>
      <trkpt lat="45.1867" lon="5.9002">
        <ele>1152.2</ele>
        <time>2021-02-20T06:15:08Z</time>
      </trkpt>
      <trkpt lat="45.1867" lon="5.90021">
        <ele>1152.3</ele>
        <time>2021-02-20T06:15:09Z</time>
      </trkpt>
      <trkpt lat="45.18671" lon="5.90021">
        <ele>1152.4</ele>
        <time>2021-02-20T06:15:10Z</time>
      </trkpt>
      <trkpt lat="45.18672" lon="5.90022">
        <ele>1152.5</ele>
        <time>2021-02-20T06:15:11Z</time>
      </trkpt>
      <trkpt lat="45.18671" lon="5.90025">
        <ele>1152.7</ele>
        <time>2021-02-20T06:15:12Z</time>
      </trkpt>
      <trkpt lat="45.1867" lon="5.90027">
        <ele>1152.9</ele>
        <time>2021-02-20T06:16:34Z</time>
      </trkpt>
      <trkpt lat="45.18669" lon="5.9003">
        <ele>1153.1</ele>
        <time>2021-02-20T06:16:35Z</time>
      </trkpt>
      <trkpt lat="45.18668" lon="5.90033">
        <ele>1153.4</ele>
        <time>2021-02-20T06:16:36Z</time>
      </trkpt>
      <trkpt lat="45.18668" lon="5.90035">
        <ele>1153.5</ele>
        <time>2021-02-20T06:16:37Z</time>
      </trkpt>
      <trkpt lat="45.18667" lon="5.90037">
        <ele>1153.7</ele>
        <time>2021-02-20T06:16:38Z</time>
      </trkpt>
      <trkpt lat="45.18666" lon="5.90039">
        <ele>1153.8</ele>
        <time>2021-02-20T06:16:39Z</time>
      </trkpt>
      <trkpt lat="45.18666" lon="5.90041">
        <ele>1153.9</ele>
        <time>2021-02-20T06:16:40Z</time>
      </trkpt>
      <trkpt lat="45.18665" lon="5.90042">
        <ele>1154</ele>
        <time>2021-02-20T06:16:41Z</time>
      </trkpt>
      <trkpt lat="45.18665" lon="5.90043">
        <ele>1154.1</ele>
        <time>2021-02-20T06:16:42Z</time>
      </trkpt>
      <trkpt lat="45.18664" lon="5.90045">
        <ele>1154.2</ele>
        <time>2021-02-20T06:16:43Z</time>
      </trkpt>
      <trkpt lat="45.18663" lon="5.90046">
        <ele>1154.3</ele>
        <time>2021-02-20T06:16:44Z</time>
      </trkpt>
      <trkpt lat="45.18662" lon="5.90046">
        <ele>1154.4</ele>
        <time>2021-02-20T06:16:45Z</time>
      </trkpt>
      <trkpt lat="45.18661" lon="5.90047">
        <ele>1154.5</ele>
        <time>2021-02-20T06:16:46Z</time>
      </trkpt>
      <trkpt lat="45.18661" lon="5.90049">
        <ele>1154.6</ele>
        <time>2021-02-20T06:16:47Z</time>
      </trkpt>
      <trkpt lat="45.1866" lon="5.90049">
        <ele>1154.6</ele>
        <time>2021-02-20T06:16:48Z</time>
      </trkpt>
      <trkpt lat="45.1866" lon="5.9005">
        <ele>1154.7</ele>
        <time>2021-02-20T06:16:49Z</time>
      </trkpt>
      <trkpt lat="45.18659" lon="5.90051">
        <ele>1154.7</ele>
        <time>2021-02-20T06:16:50Z</time>
      </trkpt>
      <trkpt lat="45.18658" lon="5.90052">
        <ele>1154.8</ele>
        <time>2021-02-20T06:16:51Z</time>
      </trkpt>
      <trkpt lat="45.18658" lon="5.90054">
        <ele>1154.8</ele>
        <time>2021-02-20T06:16:52Z</time>
      </trkpt>
      <trkpt lat="45.18657" lon="5.90055">
        <ele>1154.9</ele>
        <time>2021-02-20T06:16:53Z</time>
      </trkpt>
      <trkpt lat="45.18656" lon="5.90055">
        <ele>1154.9</ele>
        <time>2021-02-20T06:16:54Z</time>
      </trkpt>
      <trkpt lat="45.18655" lon="5.90056">
        <ele>1155</ele>
        <time>2021-02-20T06:16:55Z</time>
      </trkpt>
      <trkpt lat="45.18654" lon="5.90057">
        <ele>1155.1</ele>
        <time>2021-02-20T06:16:56Z</time>
      </trkpt>
      <trkpt lat="45.18653" lon="5.90058">
        <ele>1155.1</ele>
        <time>2021-02-20T06:16:57Z</time>
      </trkpt>
      <trkpt lat="45.18652" lon="5.90058">
        <ele>1155.1</ele>
        <time>2021-02-20T06:16:58Z</time>
      </trkpt>
      <trkpt lat="45.18651" lon="5.90059">
        <ele>1155.2</ele>
        <time>2021-02-20T06:16:59Z</time>
      </trkpt>
      <trkpt lat="45.18651" lon="5.9006">
        <ele>1155.2</ele>
        <time>2021-02-20T06:17:00Z</time>
      </trkpt>
      <trkpt lat="45.1865" lon="5.90061">
        <ele>1155.2</ele>
        <time>2021-02-20T06:17:01Z</time>
      </trkpt>
      <trkpt lat="45.1865" lon="5.90062">
        <ele>1155.2</ele>
        <time>2021-02-20T06:17:02Z</time>
      </trkpt>
      <trkpt lat="45.18648" lon="5.90064">
        <ele>1155.3</ele>
        <time>2021-02-20T06:17:03Z</time>
      </trkpt>
      <trkpt lat="45.18647" lon="5.90065">
        <ele>1155.3</ele>
        <time>2021-02-20T06:17:04Z</time>
      </trkpt>
      <trkpt lat="45.18647" lon="5.90065">
        <ele>1155.3</ele>
        <time>2021-02-20T06:17:05Z</time>
      </trkpt>
      <trkpt lat="45.18646" lon="5.90066">
        <ele>1155.3</ele>
        <time>2021-02-20T06:17:06Z</time>
      </trkpt>
      <trkpt lat="45.18645" lon="5.90067">
        <ele>1155.3</ele>
        <time>2021-02-20T06:17:07Z</time>
      </trkpt>
      <trkpt lat="45.18645" lon="5.90069">
        <ele>1155.4</ele>
        <time>2021-02-20T06:17:08Z</time>
      </trkpt>
      <trkpt lat="45.18644" lon="5.9007">
        <ele>1155.4</ele>
        <time>2021-02-20T06:17:09Z</time>
      </trkpt>
      <trkpt lat="45.18643" lon="5.90072">
        <ele>1155.4</ele>
        <time>2021-02-20T06:17:10Z</time>
      </trkpt>
      <trkpt lat="45.18643" lon="5.90073">
        <ele>1155.4</ele>
        <time>2021-02-20T06:17:11Z</time>
      </trkpt>
      <trkpt lat="45.18642" lon="5.90075">
        <ele>1155.4</ele>
        <time>2021-02-20T06:17:12Z</time>
      </trkpt>
      <trkpt lat="45.18642" lon="5.90078">
        <ele>1155.4</ele>
        <time>2021-02-20T06:17:13Z</time>
      </trkpt>
      <trkpt lat="45.18641" lon="5.90079">
        <ele>1155.4</ele>
        <time>2021-02-20T06:17:14Z</time>
      </trkpt>
      <trkpt lat="45.18641" lon="5.90081">
        <ele>1155.4</ele>
        <time>2021-02-20T06:17:15Z</time>
      </trkpt>
      <trkpt lat="45.1864" lon="5.90083">
        <ele>1155.4</ele>
        <time>2021-02-20T06:17:16Z</time>
      </trkpt>
      <trkpt lat="45.18639" lon="5.90085">
        <ele>1155.4</ele>
        <time>2021-02-20T06:17:17Z</time>
      </trkpt>
      <trkpt lat="45.18638" lon="5.90087">
        <ele>1155.4</ele>
        <time>2021-02-20T06:17:18Z</time>
      </trkpt>
      <trkpt lat="45.18638" lon="5.90088">
        <ele>1155.5</ele>
        <time>2021-02-20T06:17:19Z</time>
      </trkpt>
      <trkpt lat="45.18637" lon="5.9009">
        <ele>1155.5</ele>
        <time>2021-02-20T06:17:20Z</time>
      </trkpt>
      <trkpt lat="45.18637" lon="5.90092">
        <ele>1155.5</ele>
        <time>2021-02-20T06:17:21Z</time>
      </trkpt>
      <trkpt lat="45.18636" lon="5.90093">
        <ele>1155.5</ele>
        <time>2021-02-20T06:17:22Z</time>
      </trkpt>
      <trkpt lat="45.18636" lon="5.90096">
        <ele>1155.5</ele>
        <time>2021-02-20T06:17:23Z</time>
      </trkpt>
      <trkpt lat="45.18636" lon="5.90097">
        <ele>1155.5</ele>
        <time>2021-02-20T06:17:24Z</time>
      </trkpt>
      <trkpt lat="45.18635" lon="5.90098">
        <ele>1155.5</ele>
        <time>2021-02-20T06:17:25Z</time>
      </trkpt>
      <trkpt lat="45.18635" lon="5.90101">
        <ele>1155.6</ele>
        <time>2021-02-20T06:17:26Z</time>
      </trkpt>
      <trkpt lat="45.18635" lon="5.90102">
        <ele>1155.6</ele>
        <time>2021-02-20T06:17:27Z</time>
      </trkpt>
      <trkpt lat="45.18634" lon="5.90104">
        <ele>1155.6</ele>
        <time>2021-02-20T06:17:28Z</time>
      </trkpt>
      <trkpt lat="45.18634" lon="5.90105">
        <ele>1155.7</ele>
        <time>2021-02-20T06:17:29Z</time>
      </trkpt>
      <trkpt lat="45.18633" lon="5.90106">
        <ele>1155.7</ele>
        <time>2021-02-20T06:17:30Z</time>
      </trkpt>
      <trkpt lat="45.18633" lon="5.90108">
        <ele>1155.7</ele>
        <time>2021-02-20T06:17:31Z</time>
      </trkpt>
      <trkpt lat="45.18633" lon="5.90108">
        <ele>1155.7</ele>
        <time>2021-02-20T06:17:32Z</time>
      </trkpt>
      <trkpt lat="45.18632" lon="5.90109">
        <ele>1155.7</ele>
        <time>2021-02-20T06:17:33Z</time>
      </trkpt>
      <trkpt lat="45.18632" lon="5.9011">
        <ele>1155.7</ele>
        <time>2021-02-20T06:17:34Z</time>
      </trkpt>
      <trkpt lat="45.18632" lon="5.90111">
        <ele>1155.8</ele>
        <time>2021-02-20T06:17:35Z</time>
      </trkpt>
      <trkpt lat="45.18632" lon="5.90112">
        <ele>1155.8</ele>
        <time>2021-02-20T06:17:36Z</time>
      </trkpt>
      <trkpt lat="45.18631" lon="5.90112">
        <ele>1155.8</ele>
        <time>2021-02-20T06:17:37Z</time>
      </trkpt>
      <trkpt lat="45.18631" lon="5.90113">
        <ele>1155.8</ele>
        <time>2021-02-20T06:17:38Z</time>
      </trkpt>
      <trkpt lat="45.18631" lon="5.90114">
        <ele>1155.8</ele>
        <time>2021-02-20T06:17:39Z</time>
      </trkpt>
      <trkpt lat="45.18631" lon="5.90115">
        <ele>1155.9</ele>
        <time>2021-02-20T06:17:40Z</time>
      </trkpt>
      <trkpt lat="45.1863" lon="5.90115">
        <ele>1155.9</ele>
        <time>2021-02-20T06:17:41Z</time>
      </trkpt>
      <trkpt lat="45.1863" lon="5.90116">
        <ele>1155.9</ele>
        <time>2021-02-20T06:19:06Z</time>
      </trkpt>
      <trkpt lat="45.1863" lon="5.90117">
        <ele>1155.9</ele>
        <time>2021-02-20T06:19:07Z</time>
      </trkpt>
      <trkpt lat="45.1863" lon="5.90119">
        <ele>1156</ele>
        <time>2021-02-20T06:19:08Z</time>
      </trkpt>
      <trkpt lat="45.1863" lon="5.90122">
        <ele>1156.3</ele>
        <time>2021-02-20T06:19:09Z</time>
      </trkpt>
      <trkpt lat="45.18631" lon="5.90124">
        <ele>1156.5</ele>
        <time>2021-02-20T06:19:10Z</time>
      </trkpt>
      <trkpt lat="45.18631" lon="5.90126">
        <ele>1156.7</ele>
        <time>2021-02-20T06:19:11Z</time>
      </trkpt>
      <trkpt lat="45.18631" lon="5.90128">
        <ele>1156.8</ele>
        <time>2021-02-20T06:19:12Z</time>
      </trkpt>
      <trkpt lat="45.18631" lon="5.90129">
        <ele>1156.9</ele>
        <time>2021-02-20T06:19:13Z</time>
      </trkpt>
      <trkpt lat="45.18632" lon="5.90131">
        <ele>1157</ele>
        <time>2021-02-20T06:19:14Z</time>
      </trkpt>
      <trkpt lat="45.18632" lon="5.90132">
        <ele>1157.1</ele>
        <time>2021-02-20T06:19:15Z</time>
      </trkpt>
      <trkpt lat="45.18632" lon="5.90133">
        <ele>1157.2</ele>
        <time>2021-02-20T06:19:16Z</time>
      </trkpt>
      <trkpt lat="45.18632" lon="5.90135">
        <ele>1157.3</ele>
        <time>2021-02-20T06:19:17Z</time>
      </trkpt>
      <trkpt lat="45.18632" lon="5.90137">
        <ele>1157.4</ele>
        <time>2021-02-20T06:19:18Z</time>
      </trkpt>
      <trkpt lat="45.18632" lon="5.90138">
        <ele>1157.5</ele>
        <time>2021-02-20T06:19:19Z</time>
      </trkpt>
      <trkpt lat="45.18632" lon="5.9014">
        <ele>1157.6</ele>
        <time>2021-02-20T06:19:20Z</time>
      </trkpt>
      <trkpt lat="45.18632" lon="5.90141">
        <ele>1157.7</ele>
        <time>2021-02-20T06:19:21Z</time>
      </trkpt>
      <trkpt lat="45.18633" lon="5.90142">
        <ele>1157.8</ele>
        <time>2021-02-20T06:19:22Z</time>
      </trkpt>
      <trkpt lat="45.18633" lon="5.90143">
        <ele>1157.8</ele>
        <time>2021-02-20T06:19:23Z</time>
      </trkpt>
      <trkpt lat="45.18633" lon="5.90144">
        <ele>1157.9</ele>
        <time>2021-02-20T06:19:24Z</time>
      </trkpt>
      <trkpt lat="45.18634" lon="5.90146">
        <ele>1158</ele>
        <time>2021-02-20T06:19:25Z</time>
      </trkpt>
      <trkpt lat="45.18634" lon="5.90147">
        <ele>1158.1</ele>
        <time>2021-02-20T06:19:26Z</time>
      </trkpt>
      <trkpt lat="45.18634" lon="5.90148">
        <ele>1158.2</ele>
        <time>2021-02-20T06:19:27Z</time>
      </trkpt>
      <trkpt lat="45.18633" lon="5.90152">
        <ele>1158.4</ele>
        <time>2021-02-20T06:19:28Z</time>
      </trkpt>
      <trkpt lat="45.18633" lon="5.90153">
        <ele>1158.4</ele>
        <time>2021-02-20T06:19:29Z</time>
      </trkpt>
      <trkpt lat="45.18633" lon="5.90154">
        <ele>1158.5</ele>
        <time>2021-02-20T06:19:30Z</time>
      </trkpt>
      <trkpt lat="45.18633" lon="5.90155">
        <ele>1158.6</ele>
        <time>2021-02-20T06:19:31Z</time>
      </trkpt>
      <trkpt lat="45.18633" lon="5.90157">
        <ele>1158.7</ele>
        <time>2021-02-20T06:19:32Z</time>
      </trkpt>
      <trkpt lat="45.18634" lon="5.90158">
        <ele>1158.8</ele>
        <time>2021-02-20T06:19:33Z</time>
      </trkpt>
      <trkpt lat="45.18634" lon="5.9016">
        <ele>1158.9</ele>
        <time>2021-02-20T06:19:34Z</time>
      </trkpt>
      <trkpt lat="45.18634" lon="5.90161">
        <ele>1159</ele>
        <time>2021-02-20T06:19:35Z</time>
      </trkpt>
      <trkpt lat="45.18634" lon="5.90163">
        <ele>1159.1</ele>
        <time>2021-02-20T06:19:36Z</time>
      </trkpt>
      <trkpt lat="45.18634" lon="5.90164">
        <ele>1159.2</ele>
        <time>2021-02-20T06:19:37Z</time>
      </trkpt>
      <trkpt lat="45.18634" lon="5.90165">
        <ele>1159.3</ele>
        <time>2021-02-20T06:19:38Z</time>
      </trkpt>
      <trkpt lat="45.18635" lon="5.90167">
        <ele>1159.4</ele>
        <time>2021-02-20T06:19:39Z</time>
      </trkpt>
      <trkpt lat="45.18635" lon="5.90168">
        <ele>1159.5</ele>
        <time>2021-02-20T06:19:40Z</time>
      </trkpt>
      <trkpt lat="45.18635" lon="5.90169">
        <ele>1159.5</ele>
        <time>2021-02-20T06:19:41Z</time>
      </trkpt>
      <trkpt lat="45.18636" lon="5.90171">
        <ele>1159.7</ele>
        <time>2021-02-20T06:19:42Z</time>
      </trkpt>
      <trkpt lat="45.18636" lon="5.90172">
        <ele>1159.8</ele>
        <time>2021-02-20T06:19:43Z</time>
      </trkpt>
      <trkpt lat="45.18637" lon="5.90174">
        <ele>1159.9</ele>
        <time>2021-02-20T06:19:44Z</time>
      </trkpt>
      <trkpt lat="45.18637" lon="5.90175">
        <ele>1160</ele>
        <time>2021-02-20T06:19:45Z</time>
      </trkpt>
      <trkpt lat="45.18638" lon="5.90177">
        <ele>1160.1</ele>
        <time>2021-02-20T06:19:46Z</time>
      </trkpt>
      <trkpt lat="45.18638" lon="5.90178">
        <ele>1160.2</ele>
        <time>2021-02-20T06:19:47Z</time>
      </trkpt>
      <trkpt lat="45.18638" lon="5.90179">
        <ele>1160.2</ele>
        <time>2021-02-20T06:19:48Z</time>
      </trkpt>
      <trkpt lat="45.18639" lon="5.90182">
        <ele>1160.4</ele>
        <time>2021-02-20T06:19:49Z</time>
      </trkpt>
      <trkpt lat="45.18639" lon="5.90183">
        <ele>1160.5</ele>
        <time>2021-02-20T06:19:50Z</time>
      </trkpt>
      <trkpt lat="45.18639" lon="5.90184">
        <ele>1160.6</ele>
        <time>2021-02-20T06:19:51Z</time>
      </trkpt>
      <trkpt lat="45.1864" lon="5.90185">
        <ele>1160.7</ele>
        <time>2021-02-20T06:19:52Z</time>
      </trkpt>
      <trkpt lat="45.1864" lon="5.90187">
        <ele>1160.8</ele>
        <time>2021-02-20T06:19:53Z</time>
      </trkpt>
      <trkpt lat="45.1864" lon="5.90188">
        <ele>1160.9</ele>
        <time>2021-02-20T06:19:54Z</time>
      </trkpt>
      <trkpt lat="45.18641" lon="5.9019">
        <ele>1161</ele>
        <time>2021-02-20T06:19:55Z</time>
      </trkpt>
      <trkpt lat="45.18642" lon="5.90192">
        <ele>1161.1</ele>
        <time>2021-02-20T06:19:56Z</time>
      </trkpt>
      <trkpt lat="45.18642" lon="5.90194">
        <ele>1161.3</ele>
        <time>2021-02-20T06:19:57Z</time>
      </trkpt>
      <trkpt lat="45.18643" lon="5.90195">
        <ele>1161.4</ele>
        <time>2021-02-20T06:19:58Z</time>
      </trkpt>
      <trkpt lat="45.18643" lon="5.90196">
        <ele>1161.5</ele>
        <time>2021-02-20T06:19:59Z</time>
      </trkpt>
      <trkpt lat="45.18644" lon="5.90198">
        <ele>1161.6</ele>
        <time>2021-02-20T06:20:00Z</time>
      </trkpt>
      <trkpt lat="45.18643" lon="5.90199">
        <ele>1161.7</ele>
        <time>2021-02-20T06:20:01Z</time>
      </trkpt>
      <trkpt lat="45.18643" lon="5.90201">
        <ele>1161.8</ele>
        <time>2021-02-20T06:20:02Z</time>
      </trkpt>
      <trkpt lat="45.18643" lon="5.90202">
        <ele>1161.9</ele>
        <time>2021-02-20T06:20:03Z</time>
      </trkpt>
      <trkpt lat="45.18643" lon="5.90204">
        <ele>1162</ele>
        <time>2021-02-20T06:20:04Z</time>
      </trkpt>
      <trkpt lat="45.18643" lon="5.90206">
        <ele>1162.1</ele>
        <time>2021-02-20T06:20:05Z</time>
      </trkpt>
      <trkpt lat="45.18644" lon="5.90208">
        <ele>1162.4</ele>
        <time>2021-02-20T06:20:06Z</time>
      </trkpt>
      <trkpt lat="45.18644" lon="5.90209">
        <ele>1162.4</ele>
        <time>2021-02-20T06:20:07Z</time>
      </trkpt>
      <trkpt lat="45.18645" lon="5.9021">
        <ele>1162.5</ele>
        <time>2021-02-20T06:20:08Z</time>
      </trkpt>
      <trkpt lat="45.18645" lon="5.90213">
        <ele>1162.7</ele>
        <time>2021-02-20T06:20:09Z</time>
      </trkpt>
      <trkpt lat="45.18645" lon="5.90214">
        <ele>1162.8</ele>
        <time>2021-02-20T06:20:10Z</time>
      </trkpt>
      <trkpt lat="45.18645" lon="5.90215">
        <ele>1162.9</ele>
        <time>2021-02-20T06:20:11Z</time>
      </trkpt>
      <trkpt lat="45.18645" lon="5.90217">
        <ele>1163</ele>
        <time>2021-02-20T06:20:12Z</time>
      </trkpt>
      <trkpt lat="45.18645" lon="5.90218">
        <ele>1163.1</ele>
        <time>2021-02-20T06:20:13Z</time>
      </trkpt>
      <trkpt lat="45.18646" lon="5.90219">
        <ele>1163.3</ele>
        <time>2021-02-20T06:20:14Z</time>
      </trkpt>
      <trkpt lat="45.18646" lon="5.90221">
        <ele>1163.4</ele>
        <time>2021-02-20T06:20:15Z</time>
      </trkpt>
      <trkpt lat="45.18647" lon="5.90223">
        <ele>1163.6</ele>
        <time>2021-02-20T06:20:16Z</time>
      </trkpt>
      <trkpt lat="45.18647" lon="5.90224">
        <ele>1163.7</ele>
        <time>2021-02-20T06:20:17Z</time>
      </trkpt>
      <trkpt lat="45.18648" lon="5.90226">
        <ele>1163.9</ele>
        <time>2021-02-20T06:20:18Z</time>
      </trkpt>
      <trkpt lat="45.18648" lon="5.90228">
        <ele>1164</ele>
        <time>2021-02-20T06:20:19Z</time>
      </trkpt>
      <trkpt lat="45.18649" lon="5.90229">
        <ele>1164.1</ele>
        <time>2021-02-20T06:20:20Z</time>
      </trkpt>
      <trkpt lat="45.18649" lon="5.9023">
        <ele>1164.2</ele>
        <time>2021-02-20T06:20:21Z</time>
      </trkpt>
      <trkpt lat="45.18649" lon="5.90232">
        <ele>1164.4</ele>
        <time>2021-02-20T06:20:22Z</time>
      </trkpt>
      <trkpt lat="45.18649" lon="5.90233">
        <ele>1164.5</ele>
        <time>2021-02-20T06:20:23Z</time>
      </trkpt>
      <trkpt lat="45.18649" lon="5.90235">
        <ele>1164.6</ele>
        <time>2021-02-20T06:20:24Z</time>
      </trkpt>
      <trkpt lat="45.18649" lon="5.90236">
        <ele>1164.8</ele>
        <time>2021-02-20T06:20:25Z</time>
      </trkpt>
      <trkpt lat="45.18649" lon="5.90238">
        <ele>1164.9</ele>
        <time>2021-02-20T06:20:26Z</time>
      </trkpt>
      <trkpt lat="45.18649" lon="5.90239">
        <ele>1165</ele>
        <time>2021-02-20T06:20:27Z</time>
      </trkpt>
      <trkpt lat="45.18649" lon="5.90241">
        <ele>1165.2</ele>
        <time>2021-02-20T06:20:28Z</time>
      </trkpt>
      <trkpt lat="45.18648" lon="5.90243">
        <ele>1165.3</ele>
        <time>2021-02-20T06:20:29Z</time>
      </trkpt>
      <trkpt lat="45.18648" lon="5.90244">
        <ele>1165.4</ele>
        <time>2021-02-20T06:20:30Z</time>
      </trkpt>
      <trkpt lat="45.18648" lon="5.90246">
        <ele>1165.6</ele>
        <time>2021-02-20T06:20:31Z</time>
      </trkpt>
      <trkpt lat="45.18648" lon="5.90247">
        <ele>1165.8</ele>
        <time>2021-02-20T06:20:32Z</time>
      </trkpt>
      <trkpt lat="45.18647" lon="5.90249">
        <ele>1165.9</ele>
        <time>2021-02-20T06:20:33Z</time>
      </trkpt>
      <trkpt lat="45.18647" lon="5.9025">
        <ele>1166</ele>
        <time>2021-02-20T06:20:34Z</time>
      </trkpt>
      <trkpt lat="45.18647" lon="5.90251">
        <ele>1166.1</ele>
        <time>2021-02-20T06:20:35Z</time>
      </trkpt>
      <trkpt lat="45.18647" lon="5.90252">
        <ele>1166.2</ele>
        <time>2021-02-20T06:20:36Z</time>
      </trkpt>
      <trkpt lat="45.18646" lon="5.90253">
        <ele>1166.3</ele>
        <time>2021-02-20T06:20:37Z</time>
      </trkpt>
      <trkpt lat="45.18646" lon="5.90254">
        <ele>1166.4</ele>
        <time>2021-02-20T06:20:38Z</time>
      </trkpt>
      <trkpt lat="45.18647" lon="5.90255">
        <ele>1166.5</ele>
        <time>2021-02-20T06:20:39Z</time>
      </trkpt>
      <trkpt lat="45.18647" lon="5.90256">
        <ele>1166.6</ele>
        <time>2021-02-20T06:20:40Z</time>
      </trkpt>
      <trkpt lat="45.18648" lon="5.90257">
        <ele>1166.7</ele>
        <time>2021-02-20T06:20:41Z</time>
      </trkpt>
      <trkpt lat="45.18649" lon="5.90258">
        <ele>1166.9</ele>
        <time>2021-02-20T06:20:42Z</time>
      </trkpt>
      <trkpt lat="45.18649" lon="5.9026">
        <ele>1167.1</ele>
        <time>2021-02-20T06:20:43Z</time>
      </trkpt>
      <trkpt lat="45.18651" lon="5.90262">
        <ele>1167.3</ele>
        <time>2021-02-20T06:20:44Z</time>
      </trkpt>
      <trkpt lat="45.18651" lon="5.90263">
        <ele>1167.5</ele>
        <time>2021-02-20T06:20:45Z</time>
      </trkpt>
      <trkpt lat="45.18652" lon="5.90263">
        <ele>1167.6</ele>
        <time>2021-02-20T06:20:46Z</time>
      </trkpt>
      <trkpt lat="45.18653" lon="5.90264">
        <ele>1167.7</ele>
        <time>2021-02-20T06:20:47Z</time>
      </trkpt>
      <trkpt lat="45.18653" lon="5.90265">
        <ele>1167.8</ele>
        <time>2021-02-20T06:20:48Z</time>
      </trkpt>
      <trkpt lat="45.18654" lon="5.90265">
        <ele>1168</ele>
        <time>2021-02-20T06:20:49Z</time>
      </trkpt>
      <trkpt lat="45.18655" lon="5.90267">
        <ele>1168.2</ele>
        <time>2021-02-20T06:20:50Z</time>
      </trkpt>
      <trkpt lat="45.18657" lon="5.90268">
        <ele>1168.4</ele>
        <time>2021-02-20T06:20:51Z</time>
      </trkpt>
      <trkpt lat="45.18657" lon="5.90269">
        <ele>1168.5</ele>
        <time>2021-02-20T06:20:52Z</time>
      </trkpt>
      <trkpt lat="45.18658" lon="5.9027">
        <ele>1168.7</ele>
        <time>2021-02-20T06:20:53Z</time>
      </trkpt>
      <trkpt lat="45.18659" lon="5.90271">
        <ele>1168.8</ele>
        <time>2021-02-20T06:20:54Z</time>
      </trkpt>
      <trkpt lat="45.18661" lon="5.90273">
        <ele>1169.2</ele>
        <time>2021-02-20T06:20:55Z</time>
      </trkpt>
      <trkpt lat="45.18661" lon="5.90274">
        <ele>1169.4</ele>
        <time>2021-02-20T06:20:56Z</time>
      </trkpt>
      <trkpt lat="45.18662" lon="5.90275">
        <ele>1169.5</ele>
        <time>2021-02-20T06:20:57Z</time>
      </trkpt>
      <trkpt lat="45.18663" lon="5.90278">
        <ele>1169.9</ele>
        <time>2021-02-20T06:20:58Z</time>
      </trkpt>
      <trkpt lat="45.18663" lon="5.90279">
        <ele>1170</ele>
        <time>2021-02-20T06:20:59Z</time>
      </trkpt>
      <trkpt lat="45.18663" lon="5.9028">
        <ele>1170.1</ele>
        <time>2021-02-20T06:21:00Z</time>
      </trkpt>
      <trkpt lat="45.18664" lon="5.90281">
        <ele>1170.3</ele>
        <time>2021-02-20T06:21:01Z</time>
      </trkpt>
      <trkpt lat="45.18665" lon="5.90282">
        <ele>1170.5</ele>
        <time>2021-02-20T06:21:02Z</time>
      </trkpt>
      <trkpt lat="45.18665" lon="5.90283">
        <ele>1170.7</ele>
        <time>2021-02-20T06:21:03Z</time>
      </trkpt>
      <trkpt lat="45.18665" lon="5.90285">
        <ele>1170.9</ele>
        <time>2021-02-20T06:21:04Z</time>
      </trkpt>
      <trkpt lat="45.18666" lon="5.90286">
        <ele>1171</ele>
        <time>2021-02-20T06:21:05Z</time>
      </trkpt>
      <trkpt lat="45.18666" lon="5.90288">
        <ele>1171.2</ele>
        <time>2021-02-20T06:21:06Z</time>
      </trkpt>
      <trkpt lat="45.18667" lon="5.90289">
        <ele>1171.4</ele>
        <time>2021-02-20T06:21:07Z</time>
      </trkpt>
      <trkpt lat="45.18667" lon="5.90289">
        <ele>1171.5</ele>
        <time>2021-02-20T06:21:08Z</time>
      </trkpt>
      <trkpt lat="45.18667" lon="5.90289">
        <ele>1171.5</ele>
        <time>2021-02-20T06:21:09Z</time>
      </trkpt>
      <trkpt lat="45.18667" lon="5.90289">
        <ele>1171.5</ele>
        <time>2021-02-20T06:21:10Z</time>
      </trkpt>
      <trkpt lat="45.18667" lon="5.9029">
        <ele>1171.7</ele>
        <time>2021-02-20T06:21:11Z</time>
      </trkpt>
      <trkpt lat="45.18667" lon="5.90291">
        <ele>1171.7</ele>
        <time>2021-02-20T06:21:12Z</time>
      </trkpt>
      <trkpt lat="45.18668" lon="5.90292">
        <ele>1171.9</ele>
        <time>2021-02-20T06:21:13Z</time>
      </trkpt>
      <trkpt lat="45.18669" lon="5.90294">
        <ele>1172.2</ele>
        <time>2021-02-20T06:21:14Z</time>
      </trkpt>
      <trkpt lat="45.18669" lon="5.90295">
        <ele>1172.4</ele>
        <time>2021-02-20T06:21:15Z</time>
      </trkpt>
      <trkpt lat="45.1867" lon="5.90296">
        <ele>1172.6</ele>
        <time>2021-02-20T06:21:16Z</time>
      </trkpt>
      <trkpt lat="45.18671" lon="5.90299">
        <ele>1172.9</ele>
        <time>2021-02-20T06:21:17Z</time>
      </trkpt>
      <trkpt lat="45.18671" lon="5.903">
        <ele>1173.1</ele>
        <time>2021-02-20T06:21:18Z</time>
      </trkpt>
      <trkpt lat="45.18672" lon="5.90301">
        <ele>1173.2</ele>
        <time>2021-02-20T06:21:19Z</time>
      </trkpt>
      <trkpt lat="45.18672" lon="5.90303">
        <ele>1173.5</ele>
        <time>2021-02-20T06:21:20Z</time>
      </trkpt>
      <trkpt lat="45.18673" lon="5.90304">
        <ele>1173.6</ele>
        <time>2021-02-20T06:21:21Z</time>
      </trkpt>
      <trkpt lat="45.18673" lon="5.90305">
        <ele>1173.7</ele>
        <time>2021-02-20T06:21:22Z</time>
      </trkpt>
      <trkpt lat="45.18673" lon="5.90306">
        <ele>1173.9</ele>
        <time>2021-02-20T06:21:23Z</time>
      </trkpt>
      <trkpt lat="45.18673" lon="5.90307">
        <ele>1174</ele>
        <time>2021-02-20T06:21:24Z</time>
      </trkpt>
      <trkpt lat="45.18674" lon="5.90308">
        <ele>1174.2</ele>
        <time>2021-02-20T06:21:25Z</time>
      </trkpt>
      <trkpt lat="45.18675" lon="5.90309">
        <ele>1174.3</ele>
        <time>2021-02-20T06:21:26Z</time>
      </trkpt>
      <trkpt lat="45.18675" lon="5.9031">
        <ele>1174.4</ele>
        <time>2021-02-20T06:21:27Z</time>
      </trkpt>
      <trkpt lat="45.18676" lon="5.9031">
        <ele>1174.6</ele>
        <time>2021-02-20T06:21:28Z</time>
      </trkpt>
      <trkpt lat="45.18676" lon="5.90311">
        <ele>1174.8</ele>
        <time>2021-02-20T06:21:29Z</time>
      </trkpt>
      <trkpt lat="45.18677" lon="5.90312">
        <ele>1174.9</ele>
        <time>2021-02-20T06:21:30Z</time>
      </trkpt>
      <trkpt lat="45.18678" lon="5.90314">
        <ele>1175.2</ele>
        <time>2021-02-20T06:21:31Z</time>
      </trkpt>
      <trkpt lat="45.18679" lon="5.90315">
        <ele>1175.4</ele>
        <time>2021-02-20T06:21:32Z</time>
      </trkpt>
      <trkpt lat="45.18679" lon="5.90316">
        <ele>1175.5</ele>
        <time>2021-02-20T06:21:33Z</time>
      </trkpt>
      <trkpt lat="45.1868" lon="5.90317">
        <ele>1175.7</ele>
        <time>2021-02-20T06:21:34Z</time>
      </trkpt>
      <trkpt lat="45.18681" lon="5.90318">
        <ele>1175.9</ele>
        <time>2021-02-20T06:21:35Z</time>
      </trkpt>
      <trkpt lat="45.18681" lon="5.90319">
        <ele>1176.1</ele>
        <time>2021-02-20T06:21:36Z</time>
      </trkpt>
      <trkpt lat="45.18682" lon="5.90321">
        <ele>1176.3</ele>
        <time>2021-02-20T06:21:37Z</time>
      </trkpt>
      <trkpt lat="45.18683" lon="5.90322">
        <ele>1176.4</ele>
        <time>2021-02-20T06:21:38Z</time>
      </trkpt>
      <trkpt lat="45.18683" lon="5.90323">
        <ele>1176.6</ele>
        <time>2021-02-20T06:21:39Z</time>
      </trkpt>
      <trkpt lat="45.18683" lon="5.90325">
        <ele>1176.8</ele>
        <time>2021-02-20T06:21:40Z</time>
      </trkpt>
      <trkpt lat="45.18684" lon="5.90326">
        <ele>1177</ele>
        <time>2021-02-20T06:21:41Z</time>
      </trkpt>
      <trkpt lat="45.18684" lon="5.90327">
        <ele>1177.1</ele>
        <time>2021-02-20T06:21:42Z</time>
      </trkpt>
      <trkpt lat="45.18684" lon="5.90328">
        <ele>1177.2</ele>
        <time>2021-02-20T06:21:43Z</time>
      </trkpt>
      <trkpt lat="45.18684" lon="5.90329">
        <ele>1177.4</ele>
        <time>2021-02-20T06:21:44Z</time>
      </trkpt>
      <trkpt lat="45.18684" lon="5.90331">
        <ele>1177.5</ele>
        <time>2021-02-20T06:21:45Z</time>
      </trkpt>
      <trkpt lat="45.18684" lon="5.90332">
        <ele>1177.7</ele>
        <time>2021-02-20T06:21:46Z</time>
      </trkpt>
      <trkpt lat="45.18685" lon="5.90333">
        <ele>1177.9</ele>
        <time>2021-02-20T06:21:47Z</time>
      </trkpt>
      <trkpt lat="45.18685" lon="5.90334">
        <ele>1178</ele>
        <time>2021-02-20T06:21:48Z</time>
      </trkpt>
      <trkpt lat="45.18685" lon="5.90335">
        <ele>1178.1</ele>
        <time>2021-02-20T06:21:49Z</time>
      </trkpt>
      <trkpt lat="45.18686" lon="5.90335">
        <ele>1178.2</ele>
        <time>2021-02-20T06:21:50Z</time>
      </trkpt>
      <trkpt lat="45.18686" lon="5.90336">
        <ele>1178.3</ele>
        <time>2021-02-20T06:21:51Z</time>
      </trkpt>
      <trkpt lat="45.18686" lon="5.90337">
        <ele>1178.5</ele>
        <time>2021-02-20T06:21:52Z</time>
      </trkpt>
      <trkpt lat="45.18687" lon="5.90338">
        <ele>1178.6</ele>
        <time>2021-02-20T06:21:53Z</time>
      </trkpt>
      <trkpt lat="45.18688" lon="5.90339">
        <ele>1178.8</ele>
        <time>2021-02-20T06:21:54Z</time>
      </trkpt>
      <trkpt lat="45.18688" lon="5.9034">
        <ele>1179</ele>
        <time>2021-02-20T06:21:55Z</time>
      </trkpt>
      <trkpt lat="45.18689" lon="5.90341">
        <ele>1179.2</ele>
        <time>2021-02-20T06:21:56Z</time>
      </trkpt>
      <trkpt lat="45.1869" lon="5.90342">
        <ele>1179.3</ele>
        <time>2021-02-20T06:21:57Z</time>
      </trkpt>
      <trkpt lat="45.1869" lon="5.90343">
        <ele>1179.5</ele>
        <time>2021-02-20T06:21:58Z</time>
      </trkpt>
      <trkpt lat="45.18691" lon="5.90344">
        <ele>1179.7</ele>
        <time>2021-02-20T06:21:59Z</time>
      </trkpt>
      <trkpt lat="45.18691" lon="5.90345">
        <ele>1179.8</ele>
        <time>2021-02-20T06:22:00Z</time>
      </trkpt>
      <trkpt lat="45.18692" lon="5.90346">
        <ele>1180</ele>
        <time>2021-02-20T06:22:01Z</time>
      </trkpt>
      <trkpt lat="45.18692" lon="5.90347">
        <ele>1180.1</ele>
        <time>2021-02-20T06:22:02Z</time>
      </trkpt>
      <trkpt lat="45.18692" lon="5.90348">
        <ele>1180.3</ele>
        <time>2021-02-20T06:22:03Z</time>
      </trkpt>
      <trkpt lat="45.18693" lon="5.90349">
        <ele>1180.4</ele>
        <time>2021-02-20T06:22:04Z</time>
      </trkpt>
      <trkpt lat="45.18694" lon="5.9035">
        <ele>1180.6</ele>
        <time>2021-02-20T06:22:05Z</time>
      </trkpt>
      <trkpt lat="45.18694" lon="5.90351">
        <ele>1180.8</ele>
        <time>2021-02-20T06:22:06Z</time>
      </trkpt>
      <trkpt lat="45.18694" lon="5.90352">
        <ele>1180.9</ele>
        <time>2021-02-20T06:22:07Z</time>
      </trkpt>
      <trkpt lat="45.18695" lon="5.90354">
        <ele>1181</ele>
        <time>2021-02-20T06:22:08Z</time>
      </trkpt>
      <trkpt lat="45.18695" lon="5.90355">
        <ele>1181.2</ele>
        <time>2021-02-20T06:22:09Z</time>
      </trkpt>
      <trkpt lat="45.18695" lon="5.90356">
        <ele>1181.3</ele>
        <time>2021-02-20T06:22:10Z</time>
      </trkpt>
      <trkpt lat="45.18695" lon="5.90356">
        <ele>1181.4</ele>
        <time>2021-02-20T06:22:11Z</time>
      </trkpt>
      <trkpt lat="45.18695" lon="5.90357">
        <ele>1181.5</ele>
        <time>2021-02-20T06:22:12Z</time>
      </trkpt>
      <trkpt lat="45.18695" lon="5.90358">
        <ele>1181.6</ele>
        <time>2021-02-20T06:22:13Z</time>
      </trkpt>
      <trkpt lat="45.18695" lon="5.9036">
        <ele>1181.7</ele>
        <time>2021-02-20T06:22:14Z</time>
      </trkpt>
      <trkpt lat="45.18695" lon="5.90361">
        <ele>1181.9</ele>
        <time>2021-02-20T06:22:15Z</time>
      </trkpt>
      <trkpt lat="45.18695" lon="5.90362">
        <ele>1182</ele>
        <time>2021-02-20T06:22:16Z</time>
      </trkpt>
      <trkpt lat="45.18695" lon="5.90363">
        <ele>1182.1</ele>
        <time>2021-02-20T06:22:17Z</time>
      </trkpt>
      <trkpt lat="45.18694" lon="5.90364">
        <ele>1182.2</ele>
        <time>2021-02-20T06:22:18Z</time>
      </trkpt>
      <trkpt lat="45.18694" lon="5.90365">
        <ele>1182.3</ele>
        <time>2021-02-20T06:22:19Z</time>
      </trkpt>
      <trkpt lat="45.18694" lon="5.90366">
        <ele>1182.4</ele>
        <time>2021-02-20T06:22:20Z</time>
      </trkpt>
      <trkpt lat="45.18694" lon="5.90367">
        <ele>1182.6</ele>
        <time>2021-02-20T06:22:21Z</time>
      </trkpt>
      <trkpt lat="45.18693" lon="5.90368">
        <ele>1182.7</ele>
        <time>2021-02-20T06:22:22Z</time>
      </trkpt>
      <trkpt lat="45.18693" lon="5.90369">
        <ele>1182.8</ele>
        <time>2021-02-20T06:22:23Z</time>
      </trkpt>
      <trkpt lat="45.18693" lon="5.90369">
        <ele>1182.9</ele>
        <time>2021-02-20T06:22:24Z</time>
      </trkpt>
      <trkpt lat="45.18693" lon="5.9037">
        <ele>1183</ele>
        <time>2021-02-20T06:22:25Z</time>
      </trkpt>
      <trkpt lat="45.18692" lon="5.90371">
        <ele>1183.1</ele>
        <time>2021-02-20T06:22:48Z</time>
      </trkpt>
      <trkpt lat="45.18692" lon="5.90372">
        <ele>1183.2</ele>
        <time>2021-02-20T06:22:49Z</time>
      </trkpt>
      <trkpt lat="45.18692" lon="5.90373">
        <ele>1183.3</ele>
        <time>2021-02-20T06:22:50Z</time>
      </trkpt>
      <trkpt lat="45.18691" lon="5.90374">
        <ele>1183.5</ele>
        <time>2021-02-20T06:22:51Z</time>
      </trkpt>
      <trkpt lat="45.18691" lon="5.90375">
        <ele>1183.6</ele>
        <time>2021-02-20T06:22:52Z</time>
      </trkpt>
      <trkpt lat="45.18691" lon="5.90376">
        <ele>1183.6</ele>
        <time>2021-02-20T06:22:53Z</time>
      </trkpt>
      <trkpt lat="45.1869" lon="5.90376">
        <ele>1183.7</ele>
        <time>2021-02-20T06:22:54Z</time>
      </trkpt>
      <trkpt lat="45.18689" lon="5.90376">
        <ele>1183.8</ele>
        <time>2021-02-20T06:22:55Z</time>
      </trkpt>
      <trkpt lat="45.18689" lon="5.90376">
        <ele>1183.9</ele>
        <time>2021-02-20T06:22:56Z</time>
      </trkpt>
      <trkpt lat="45.18689" lon="5.90376">
        <ele>1183.9</ele>
        <time>2021-02-20T06:22:57Z</time>
      </trkpt>
      <trkpt lat="45.18688" lon="5.90377">
        <ele>1184.1</ele>
        <time>2021-02-20T06:22:58Z</time>
      </trkpt>
      <trkpt lat="45.18687" lon="5.90377">
        <ele>1184.2</ele>
        <time>2021-02-20T06:22:59Z</time>
      </trkpt>
      <trkpt lat="45.18687" lon="5.90378">
        <ele>1184.4</ele>
        <time>2021-02-20T06:23:00Z</time>
      </trkpt>
      <trkpt lat="45.18686" lon="5.90379">
        <ele>1184.5</ele>
        <time>2021-02-20T06:23:01Z</time>
      </trkpt>
      <trkpt lat="45.18685" lon="5.9038">
        <ele>1184.7</ele>
        <time>2021-02-20T06:23:02Z</time>
      </trkpt>
      <trkpt lat="45.18684" lon="5.90381">
        <ele>1184.9</ele>
        <time>2021-02-20T06:23:03Z</time>
      </trkpt>
      <trkpt lat="45.18683" lon="5.90382">
        <ele>1185</ele>
        <time>2021-02-20T06:23:04Z</time>
      </trkpt>
      <trkpt lat="45.18682" lon="5.90382">
        <ele>1185.2</ele>
        <time>2021-02-20T06:23:05Z</time>
      </trkpt>
      <trkpt lat="45.18681" lon="5.90383">
        <ele>1185.4</ele>
        <time>2021-02-20T06:23:06Z</time>
      </trkpt>
      <trkpt lat="45.1868" lon="5.90384">
        <ele>1185.5</ele>
        <time>2021-02-20T06:23:07Z</time>
      </trkpt>
      <trkpt lat="45.18679" lon="5.90384">
        <ele>1185.7</ele>
        <time>2021-02-20T06:23:08Z</time>
      </trkpt>
      <trkpt lat="45.18678" lon="5.90385">
        <ele>1185.8</ele>
        <time>2021-02-20T06:23:09Z</time>
      </trkpt>
      <trkpt lat="45.18677" lon="5.90385">
        <ele>1186</ele>
        <time>2021-02-20T06:23:10Z</time>
      </trkpt>
      <trkpt lat="45.18676" lon="5.90386">
        <ele>1186.2</ele>
        <time>2021-02-20T06:23:11Z</time>
      </trkpt>
      <trkpt lat="45.18676" lon="5.90386">
        <ele>1186.3</ele>
        <time>2021-02-20T06:23:12Z</time>
      </trkpt>
      <trkpt lat="45.18675" lon="5.90386">
        <ele>1186.4</ele>
        <time>2021-02-20T06:23:13Z</time>
      </trkpt>
      <trkpt lat="45.18674" lon="5.90387">
        <ele>1186.5</ele>
        <time>2021-02-20T06:23:14Z</time>
      </trkpt>
      <trkpt lat="45.18673" lon="5.90387">
        <ele>1186.7</ele>
        <time>2021-02-20T06:23:15Z</time>
      </trkpt>
      <trkpt lat="45.18673" lon="5.90387">
        <ele>1186.8</ele>
        <time>2021-02-20T06:23:16Z</time>
      </trkpt>
      <trkpt lat="45.18672" lon="5.90388">
        <ele>1186.9</ele>
        <time>2021-02-20T06:23:17Z</time>
      </trkpt>
      <trkpt lat="45.18671" lon="5.90388">
        <ele>1187.1</ele>
        <time>2021-02-20T06:23:18Z</time>
      </trkpt>
      <trkpt lat="45.1867" lon="5.90389">
        <ele>1187.2</ele>
        <time>2021-02-20T06:23:19Z</time>
      </trkpt>
      <trkpt lat="45.1867" lon="5.9039">
        <ele>1187.3</ele>
        <time>2021-02-20T06:23:20Z</time>
      </trkpt>
      <trkpt lat="45.18669" lon="5.90391">
        <ele>1187.5</ele>
        <time>2021-02-20T06:23:21Z</time>
      </trkpt>
      <trkpt lat="45.18668" lon="5.90391">
        <ele>1187.6</ele>
        <time>2021-02-20T06:23:22Z</time>
      </trkpt>
      <trkpt lat="45.18668" lon="5.90392">
        <ele>1187.7</ele>
        <time>2021-02-20T06:23:23Z</time>
      </trkpt>
      <trkpt lat="45.18667" lon="5.90392">
        <ele>1187.8</ele>
        <time>2021-02-20T06:23:24Z</time>
      </trkpt>
      <trkpt lat="45.18666" lon="5.90393">
        <ele>1188</ele>
        <time>2021-02-20T06:23:25Z</time>
      </trkpt>
      <trkpt lat="45.18665" lon="5.90394">
        <ele>1188.1</ele>
        <time>2021-02-20T06:23:26Z</time>
      </trkpt>
      <trkpt lat="45.18665" lon="5.90394">
        <ele>1188.2</ele>
        <time>2021-02-20T06:23:27Z</time>
      </trkpt>
      <trkpt lat="45.18664" lon="5.90395">
        <ele>1188.3</ele>
        <time>2021-02-20T06:23:28Z</time>
      </trkpt>
      <trkpt lat="45.18664" lon="5.90396">
        <ele>1188.5</ele>
        <time>2021-02-20T06:23:29Z</time>
      </trkpt>
      <trkpt lat="45.18663" lon="5.90396">
        <ele>1188.6</ele>
        <time>2021-02-20T06:23:30Z</time>
      </trkpt>
      <trkpt lat="45.18663" lon="5.90397">
        <ele>1188.7</ele>
        <time>2021-02-20T06:23:31Z</time>
      </trkpt>
      <trkpt lat="45.18662" lon="5.90398">
        <ele>1188.8</ele>
        <time>2021-02-20T06:23:32Z</time>
      </trkpt>
      <trkpt lat="45.18662" lon="5.904">
        <ele>1189</ele>
        <time>2021-02-20T06:23:33Z</time>
      </trkpt>
      <trkpt lat="45.18662" lon="5.90401">
        <ele>1189.1</ele>
        <time>2021-02-20T06:23:34Z</time>
      </trkpt>
      <trkpt lat="45.18662" lon="5.90402">
        <ele>1189.2</ele>
        <time>2021-02-20T06:23:35Z</time>
      </trkpt>
      <trkpt lat="45.18662" lon="5.90403">
        <ele>1189.4</ele>
        <time>2021-02-20T06:23:36Z</time>
      </trkpt>
      <trkpt lat="45.18661" lon="5.90404">
        <ele>1189.5</ele>
        <time>2021-02-20T06:23:37Z</time>
      </trkpt>
      <trkpt lat="45.18661" lon="5.90405">
        <ele>1189.6</ele>
        <time>2021-02-20T06:23:38Z</time>
      </trkpt>
      <trkpt lat="45.18661" lon="5.90405">
        <ele>1189.6</ele>
        <time>2021-02-20T06:23:39Z</time>
      </trkpt>
      <trkpt lat="45.18661" lon="5.90406">
        <ele>1189.7</ele>
        <time>2021-02-20T06:23:40Z</time>
      </trkpt>
      <trkpt lat="45.1866" lon="5.90407">
        <ele>1189.8</ele>
        <time>2021-02-20T06:23:41Z</time>
      </trkpt>
      <trkpt lat="45.1866" lon="5.90408">
        <ele>1189.9</ele>
        <time>2021-02-20T06:23:42Z</time>
      </trkpt>
      <trkpt lat="45.18659" lon="5.90408">
        <ele>1190</ele>
        <time>2021-02-20T06:23:43Z</time>
      </trkpt>
      <trkpt lat="45.18658" lon="5.90409">
        <ele>1190.1</ele>
        <time>2021-02-20T06:23:44Z</time>
      </trkpt>
      <trkpt lat="45.18658" lon="5.90409">
        <ele>1190.3</ele>
        <time>2021-02-20T06:23:45Z</time>
      </trkpt>
      <trkpt lat="45.18657" lon="5.90411">
        <ele>1190.4</ele>
        <time>2021-02-20T06:23:46Z</time>
      </trkpt>
      <trkpt lat="45.18656" lon="5.90412">
        <ele>1190.5</ele>
        <time>2021-02-20T06:23:47Z</time>
      </trkpt>
      <trkpt lat="45.18656" lon="5.90414">
        <ele>1190.7</ele>
        <time>2021-02-20T06:23:48Z</time>
      </trkpt>
      <trkpt lat="45.18655" lon="5.90415">
        <ele>1190.9</ele>
        <time>2021-02-20T06:23:49Z</time>
      </trkpt>
      <trkpt lat="45.18655" lon="5.90416">
        <ele>1190.9</ele>
        <time>2021-02-20T06:23:50Z</time>
      </trkpt>
      <trkpt lat="45.18655" lon="5.90417">
        <ele>1191.1</ele>
        <time>2021-02-20T06:23:51Z</time>
      </trkpt>
      <trkpt lat="45.18654" lon="5.90418">
        <ele>1191.2</ele>
        <time>2021-02-20T06:23:52Z</time>
      </trkpt>
      <trkpt lat="45.18653" lon="5.90419">
        <ele>1191.3</ele>
        <time>2021-02-20T06:23:53Z</time>
      </trkpt>
      <trkpt lat="45.18653" lon="5.9042">
        <ele>1191.4</ele>
        <time>2021-02-20T06:23:54Z</time>
      </trkpt>
      <trkpt lat="45.18652" lon="5.90421">
        <ele>1191.6</ele>
        <time>2021-02-20T06:23:55Z</time>
      </trkpt>
      <trkpt lat="45.18651" lon="5.90423">
        <ele>1191.7</ele>
        <time>2021-02-20T06:23:56Z</time>
      </trkpt>
      <trkpt lat="45.18651" lon="5.90424">
        <ele>1191.8</ele>
        <time>2021-02-20T06:23:57Z</time>
      </trkpt>
      <trkpt lat="45.1865" lon="5.90425">
        <ele>1191.9</ele>
        <time>2021-02-20T06:23:58Z</time>
      </trkpt>
      <trkpt lat="45.1865" lon="5.90425">
        <ele>1192</ele>
        <time>2021-02-20T06:23:59Z</time>
      </trkpt>
      <trkpt lat="45.18649" lon="5.90426">
        <ele>1192.1</ele>
        <time>2021-02-20T06:24:00Z</time>
      </trkpt>
      <trkpt lat="45.18649" lon="5.90427">
        <ele>1192.2</ele>
        <time>2021-02-20T06:24:01Z</time>
      </trkpt>
      <trkpt lat="45.18648" lon="5.90428">
        <ele>1192.3</ele>
        <time>2021-02-20T06:24:02Z</time>
      </trkpt>
      <trkpt lat="45.18647" lon="5.90429">
        <ele>1192.5</ele>
        <time>2021-02-20T06:24:03Z</time>
      </trkpt>
      <trkpt lat="45.18646" lon="5.9043">
        <ele>1192.6</ele>
        <time>2021-02-20T06:24:04Z</time>
      </trkpt>
      <trkpt lat="45.18646" lon="5.90431">
        <ele>1192.7</ele>
        <time>2021-02-20T06:24:05Z</time>
      </trkpt>
      <trkpt lat="45.18645" lon="5.90432">
        <ele>1192.8</ele>
        <time>2021-02-20T06:24:06Z</time>
      </trkpt>
      <trkpt lat="45.18645" lon="5.90432">
        <ele>1192.9</ele>
        <time>2021-02-20T06:24:07Z</time>
      </trkpt>
      <trkpt lat="45.18644" lon="5.90433">
        <ele>1193</ele>
        <time>2021-02-20T06:24:08Z</time>
      </trkpt>
      <trkpt lat="45.18643" lon="5.90434">
        <ele>1193.2</ele>
        <time>2021-02-20T06:24:09Z</time>
      </trkpt>
      <trkpt lat="45.18642" lon="5.90434">
        <ele>1193.3</ele>
        <time>2021-02-20T06:24:10Z</time>
      </trkpt>
      <trkpt lat="45.18642" lon="5.90435">
        <ele>1193.4</ele>
        <time>2021-02-20T06:24:11Z</time>
      </trkpt>
      <trkpt lat="45.18641" lon="5.90436">
        <ele>1193.6</ele>
        <time>2021-02-20T06:24:12Z</time>
      </trkpt>
      <trkpt lat="45.1864" lon="5.90437">
        <ele>1193.7</ele>
        <time>2021-02-20T06:24:13Z</time>
      </trkpt>
      <trkpt lat="45.18639" lon="5.90437">
        <ele>1193.8</ele>
        <time>2021-02-20T06:24:14Z</time>
      </trkpt>
      <trkpt lat="45.18638" lon="5.90437">
        <ele>1193.9</ele>
        <time>2021-02-20T06:24:15Z</time>
      </trkpt>
      <trkpt lat="45.18638" lon="5.90438">
        <ele>1194</ele>
        <time>2021-02-20T06:24:16Z</time>
      </trkpt>
      <trkpt lat="45.18637" lon="5.90438">
        <ele>1194</ele>
        <time>2021-02-20T06:24:17Z</time>
      </trkpt>
      <trkpt lat="45.18637" lon="5.90438">
        <ele>1194.1</ele>
        <time>2021-02-20T06:24:18Z</time>
      </trkpt>
      <trkpt lat="45.18636" lon="5.90439">
        <ele>1194.2</ele>
        <time>2021-02-20T06:24:19Z</time>
      </trkpt>
      <trkpt lat="45.18635" lon="5.90439">
        <ele>1194.3</ele>
        <time>2021-02-20T06:24:20Z</time>
      </trkpt>
      <trkpt lat="45.18635" lon="5.90439">
        <ele>1194.4</ele>
        <time>2021-02-20T06:24:21Z</time>
      </trkpt>
      <trkpt lat="45.18634" lon="5.9044">
        <ele>1194.5</ele>
        <time>2021-02-20T06:24:22Z</time>
      </trkpt>
      <trkpt lat="45.18633" lon="5.9044">
        <ele>1194.6</ele>
        <time>2021-02-20T06:24:23Z</time>
      </trkpt>
      <trkpt lat="45.18632" lon="5.90441">
        <ele>1194.8</ele>
        <time>2021-02-20T06:24:24Z</time>
      </trkpt>
      <trkpt lat="45.18631" lon="5.90441">
        <ele>1194.9</ele>
        <time>2021-02-20T06:24:25Z</time>
      </trkpt>
      <trkpt lat="45.18631" lon="5.90441">
        <ele>1195</ele>
        <time>2021-02-20T06:24:26Z</time>
      </trkpt>
      <trkpt lat="45.1863" lon="5.90442">
        <ele>1195.1</ele>
        <time>2021-02-20T06:24:27Z</time>
      </trkpt>
      <trkpt lat="45.1863" lon="5.90442">
        <ele>1195.2</ele>
        <time>2021-02-20T06:24:28Z</time>
      </trkpt>
      <trkpt lat="45.18629" lon="5.90443">
        <ele>1195.3</ele>
        <time>2021-02-20T06:24:29Z</time>
      </trkpt>
      <trkpt lat="45.18629" lon="5.90444">
        <ele>1195.4</ele>
        <time>2021-02-20T06:24:30Z</time>
      </trkpt>
      <trkpt lat="45.18628" lon="5.90445">
        <ele>1195.6</ele>
        <time>2021-02-20T06:24:31Z</time>
      </trkpt>
      <trkpt lat="45.18627" lon="5.90445">
        <ele>1195.7</ele>
        <time>2021-02-20T06:24:32Z</time>
      </trkpt>
      <trkpt lat="45.18626" lon="5.90446">
        <ele>1195.8</ele>
        <time>2021-02-20T06:24:33Z</time>
      </trkpt>
      <trkpt lat="45.18626" lon="5.90446">
        <ele>1195.9</ele>
        <time>2021-02-20T06:24:34Z</time>
      </trkpt>
      <trkpt lat="45.18625" lon="5.90447">
        <ele>1196</ele>
        <time>2021-02-20T06:24:35Z</time>
      </trkpt>
      <trkpt lat="45.18625" lon="5.90447">
        <ele>1196.1</ele>
        <time>2021-02-20T06:24:36Z</time>
      </trkpt>
      <trkpt lat="45.18624" lon="5.90448">
        <ele>1196.2</ele>
        <time>2021-02-20T06:24:37Z</time>
      </trkpt>
      <trkpt lat="45.18623" lon="5.90449">
        <ele>1196.3</ele>
        <time>2021-02-20T06:24:38Z</time>
      </trkpt>
      <trkpt lat="45.18623" lon="5.90449">
        <ele>1196.4</ele>
        <time>2021-02-20T06:24:39Z</time>
      </trkpt>
      <trkpt lat="45.18622" lon="5.9045">
        <ele>1196.8</ele>
        <time>2021-02-20T06:24:40Z</time>
      </trkpt>
      <trkpt lat="45.18621" lon="5.90451">
        <ele>1196.9</ele>
        <time>2021-02-20T06:24:41Z</time>
      </trkpt>
      <trkpt lat="45.1862" lon="5.90451">
        <ele>1197.1</ele>
        <time>2021-02-20T06:24:42Z</time>
      </trkpt>
      <trkpt lat="45.18619" lon="5.90451">
        <ele>1197.3</ele>
        <time>2021-02-20T06:24:43Z</time>
      </trkpt>
      <trkpt lat="45.18618" lon="5.90451">
        <ele>1197.4</ele>
        <time>2021-02-20T06:24:44Z</time>
      </trkpt>
      <trkpt lat="45.18617" lon="5.90451">
        <ele>1197.6</ele>
        <time>2021-02-20T06:24:45Z</time>
      </trkpt>
      <trkpt lat="45.18616" lon="5.90451">
        <ele>1197.8</ele>
        <time>2021-02-20T06:24:46Z</time>
      </trkpt>
      <trkpt lat="45.18615" lon="5.90451">
        <ele>1197.9</ele>
        <time>2021-02-20T06:24:47Z</time>
      </trkpt>
      <trkpt lat="45.18615" lon="5.90451">
        <ele>1198</ele>
        <time>2021-02-20T06:24:48Z</time>
      </trkpt>
      <trkpt lat="45.18614" lon="5.90451">
        <ele>1198.2</ele>
        <time>2021-02-20T06:24:49Z</time>
      </trkpt>
      <trkpt lat="45.18613" lon="5.90451">
        <ele>1198.3</ele>
        <time>2021-02-20T06:24:50Z</time>
      </trkpt>
      <trkpt lat="45.18613" lon="5.90451">
        <ele>1198.4</ele>
        <time>2021-02-20T06:24:51Z</time>
      </trkpt>
      <trkpt lat="45.18612" lon="5.90451">
        <ele>1198.5</ele>
        <time>2021-02-20T06:24:52Z</time>
      </trkpt>
      <trkpt lat="45.18611" lon="5.90451">
        <ele>1198.6</ele>
        <time>2021-02-20T06:24:53Z</time>
      </trkpt>
      <trkpt lat="45.1861" lon="5.90451">
        <ele>1198.7</ele>
        <time>2021-02-20T06:24:54Z</time>
      </trkpt>
      <trkpt lat="45.1861" lon="5.90451">
        <ele>1198.9</ele>
        <time>2021-02-20T06:24:55Z</time>
      </trkpt>
      <trkpt lat="45.18609" lon="5.90451">
        <ele>1199</ele>
        <time>2021-02-20T06:24:56Z</time>
      </trkpt>
      <trkpt lat="45.18608" lon="5.90451">
        <ele>1199.1</ele>
        <time>2021-02-20T06:24:57Z</time>
      </trkpt>
      <trkpt lat="45.18607" lon="5.90451">
        <ele>1199.3</ele>
        <time>2021-02-20T06:24:58Z</time>
      </trkpt>
      <trkpt lat="45.18606" lon="5.90451">
        <ele>1199.4</ele>
        <time>2021-02-20T06:24:59Z</time>
      </trkpt>
      <trkpt lat="45.18605" lon="5.90451">
        <ele>1199.6</ele>
        <time>2021-02-20T06:25:00Z</time>
      </trkpt>
      <trkpt lat="45.18605" lon="5.90452">
        <ele>1199.7</ele>
        <time>2021-02-20T06:25:01Z</time>
      </trkpt>
      <trkpt lat="45.18604" lon="5.90452">
        <ele>1199.8</ele>
        <time>2021-02-20T06:25:02Z</time>
      </trkpt>
      <trkpt lat="45.18604" lon="5.90453">
        <ele>1199.9</ele>
        <time>2021-02-20T06:25:03Z</time>
      </trkpt>
      <trkpt lat="45.18603" lon="5.90454">
        <ele>1200</ele>
        <time>2021-02-20T06:25:04Z</time>
      </trkpt>
      <trkpt lat="45.18603" lon="5.90454">
        <ele>1200.1</ele>
        <time>2021-02-20T06:25:05Z</time>
      </trkpt>
      <trkpt lat="45.18603" lon="5.90455">
        <ele>1200.2</ele>
        <time>2021-02-20T06:25:06Z</time>
      </trkpt>
      <trkpt lat="45.18602" lon="5.90455">
        <ele>1200.3</ele>
        <time>2021-02-20T06:25:07Z</time>
      </trkpt>
      <trkpt lat="45.18602" lon="5.90457">
        <ele>1200.4</ele>
        <time>2021-02-20T06:25:08Z</time>
      </trkpt>
      <trkpt lat="45.18602" lon="5.90458">
        <ele>1200.5</ele>
        <time>2021-02-20T06:25:09Z</time>
      </trkpt>
      <trkpt lat="45.18601" lon="5.90459">
        <ele>1200.6</ele>
        <time>2021-02-20T06:25:10Z</time>
      </trkpt>
      <trkpt lat="45.18601" lon="5.9046">
        <ele>1200.8</ele>
        <time>2021-02-20T06:25:11Z</time>
      </trkpt>
      <trkpt lat="45.186" lon="5.90461">
        <ele>1200.9</ele>
        <time>2021-02-20T06:25:12Z</time>
      </trkpt>
      <trkpt lat="45.186" lon="5.90461">
        <ele>1201</ele>
        <time>2021-02-20T06:25:13Z</time>
      </trkpt>
      <trkpt lat="45.18599" lon="5.90462">
        <ele>1201.1</ele>
        <time>2021-02-20T06:25:14Z</time>
      </trkpt>
      <trkpt lat="45.18599" lon="5.90463">
        <ele>1201.2</ele>
        <time>2021-02-20T06:25:15Z</time>
      </trkpt>
      <trkpt lat="45.18599" lon="5.90464">
        <ele>1201.3</ele>
        <time>2021-02-20T06:25:16Z</time>
      </trkpt>
      <trkpt lat="45.18599" lon="5.90465">
        <ele>1201.4</ele>
        <time>2021-02-20T06:25:17Z</time>
      </trkpt>
      <trkpt lat="45.186" lon="5.90467">
        <ele>1201.6</ele>
        <time>2021-02-20T06:25:18Z</time>
      </trkpt>
      <trkpt lat="45.186" lon="5.90468">
        <ele>1201.7</ele>
        <time>2021-02-20T06:25:19Z</time>
      </trkpt>
      <trkpt lat="45.186" lon="5.9047">
        <ele>1201.9</ele>
        <time>2021-02-20T06:25:20Z</time>
      </trkpt>
      <trkpt lat="45.186" lon="5.90471">
        <ele>1202</ele>
        <time>2021-02-20T06:25:21Z</time>
      </trkpt>
      <trkpt lat="45.18599" lon="5.90473">
        <ele>1202.2</ele>
        <time>2021-02-20T06:25:22Z</time>
      </trkpt>
      <trkpt lat="45.18599" lon="5.90475">
        <ele>1202.4</ele>
        <time>2021-02-20T06:25:23Z</time>
      </trkpt>
      <trkpt lat="45.18599" lon="5.90476">
        <ele>1202.5</ele>
        <time>2021-02-20T06:25:24Z</time>
      </trkpt>
      <trkpt lat="45.18599" lon="5.90477">
        <ele>1202.6</ele>
        <time>2021-02-20T06:25:25Z</time>
      </trkpt>
      <trkpt lat="45.18599" lon="5.90478">
        <ele>1202.7</ele>
        <time>2021-02-20T06:25:26Z</time>
      </trkpt>
      <trkpt lat="45.18599" lon="5.9048">
        <ele>1202.8</ele>
        <time>2021-02-20T06:25:27Z</time>
      </trkpt>
      <trkpt lat="45.18599" lon="5.90481">
        <ele>1202.9</ele>
        <time>2021-02-20T06:25:28Z</time>
      </trkpt>
      <trkpt lat="45.18599" lon="5.90482">
        <ele>1203</ele>
        <time>2021-02-20T06:25:29Z</time>
      </trkpt>
      <trkpt lat="45.18599" lon="5.90483">
        <ele>1203.1</ele>
        <time>2021-02-20T06:25:30Z</time>
      </trkpt>
      <trkpt lat="45.186" lon="5.90484">
        <ele>1203.3</ele>
        <time>2021-02-20T06:25:31Z</time>
      </trkpt>
      <trkpt lat="45.186" lon="5.90486">
        <ele>1203.4</ele>
        <time>2021-02-20T06:25:32Z</time>
      </trkpt>
      <trkpt lat="45.186" lon="5.90487">
        <ele>1203.5</ele>
        <time>2021-02-20T06:25:33Z</time>
      </trkpt>
      <trkpt lat="45.186" lon="5.90489">
        <ele>1203.6</ele>
        <time>2021-02-20T06:25:34Z</time>
      </trkpt>
      <trkpt lat="45.186" lon="5.9049">
        <ele>1203.7</ele>
        <time>2021-02-20T06:25:35Z</time>
      </trkpt>
      <trkpt lat="45.186" lon="5.90491">
        <ele>1203.8</ele>
        <time>2021-02-20T06:25:36Z</time>
      </trkpt>
      <trkpt lat="45.18599" lon="5.90493">
        <ele>1203.9</ele>
        <time>2021-02-20T06:25:37Z</time>
      </trkpt>
      <trkpt lat="45.18599" lon="5.90494">
        <ele>1204</ele>
        <time>2021-02-20T06:25:38Z</time>
      </trkpt>
      <trkpt lat="45.18599" lon="5.90496">
        <ele>1204.1</ele>
        <time>2021-02-20T06:25:39Z</time>
      </trkpt>
      <trkpt lat="45.18599" lon="5.90498">
        <ele>1204.3</ele>
        <time>2021-02-20T06:25:40Z</time>
      </trkpt>
      <trkpt lat="45.18598" lon="5.90499">
        <ele>1204.4</ele>
        <time>2021-02-20T06:25:41Z</time>
      </trkpt>
      <trkpt lat="45.18598" lon="5.905">
        <ele>1204.5</ele>
        <time>2021-02-20T06:25:42Z</time>
      </trkpt>
      <trkpt lat="45.18598" lon="5.90502">
        <ele>1204.6</ele>
        <time>2021-02-20T06:25:43Z</time>
      </trkpt>
      <trkpt lat="45.18597" lon="5.90504">
        <ele>1204.8</ele>
        <time>2021-02-20T06:25:44Z</time>
      </trkpt>
      <trkpt lat="45.18597" lon="5.90505">
        <ele>1204.9</ele>
        <time>2021-02-20T06:25:45Z</time>
      </trkpt>
      <trkpt lat="45.18597" lon="5.90506">
        <ele>1205</ele>
        <time>2021-02-20T06:25:46Z</time>
      </trkpt>
      <trkpt lat="45.18596" lon="5.90508">
        <ele>1205.1</ele>
        <time>2021-02-20T06:25:47Z</time>
      </trkpt>
      <trkpt lat="45.18596" lon="5.90509">
        <ele>1205.2</ele>
        <time>2021-02-20T06:25:48Z</time>
      </trkpt>
      <trkpt lat="45.18595" lon="5.90511">
        <ele>1205.4</ele>
        <time>2021-02-20T06:25:49Z</time>
      </trkpt>
      <trkpt lat="45.18595" lon="5.90512">
        <ele>1205.5</ele>
        <time>2021-02-20T06:25:50Z</time>
      </trkpt>
      <trkpt lat="45.18594" lon="5.90513">
        <ele>1205.6</ele>
        <time>2021-02-20T06:25:51Z</time>
      </trkpt>
      <trkpt lat="45.18594" lon="5.90515">
        <ele>1205.7</ele>
        <time>2021-02-20T06:25:52Z</time>
      </trkpt>
      <trkpt lat="45.18593" lon="5.90516">
        <ele>1205.8</ele>
        <time>2021-02-20T06:25:53Z</time>
      </trkpt>
      <trkpt lat="45.18593" lon="5.90517">
        <ele>1206</ele>
        <time>2021-02-20T06:25:54Z</time>
      </trkpt>
      <trkpt lat="45.18592" lon="5.90519">
        <ele>1206.1</ele>
        <time>2021-02-20T06:25:55Z</time>
      </trkpt>
      <trkpt lat="45.18592" lon="5.9052">
        <ele>1206.2</ele>
        <time>2021-02-20T06:25:56Z</time>
      </trkpt>
      <trkpt lat="45.18591" lon="5.90521">
        <ele>1206.3</ele>
        <time>2021-02-20T06:25:57Z</time>
      </trkpt>
      <trkpt lat="45.1859" lon="5.90523">
        <ele>1206.4</ele>
        <time>2021-02-20T06:25:58Z</time>
      </trkpt>
      <trkpt lat="45.18589" lon="5.90524">
        <ele>1206.5</ele>
        <time>2021-02-20T06:25:59Z</time>
      </trkpt>
      <trkpt lat="45.18589" lon="5.90525">
        <ele>1206.6</ele>
        <time>2021-02-20T06:26:00Z</time>
      </trkpt>
      <trkpt lat="45.18588" lon="5.90526">
        <ele>1206.7</ele>
        <time>2021-02-20T06:26:01Z</time>
      </trkpt>
      <trkpt lat="45.18588" lon="5.90527">
        <ele>1206.9</ele>
        <time>2021-02-20T06:26:02Z</time>
      </trkpt>
      <trkpt lat="45.18587" lon="5.90529">
        <ele>1207</ele>
        <time>2021-02-20T06:26:03Z</time>
      </trkpt>
      <trkpt lat="45.18586" lon="5.9053">
        <ele>1207.1</ele>
        <time>2021-02-20T06:26:04Z</time>
      </trkpt>
      <trkpt lat="45.18585" lon="5.90531">
        <ele>1207.2</ele>
        <time>2021-02-20T06:26:05Z</time>
      </trkpt>
      <trkpt lat="45.18585" lon="5.90533">
        <ele>1207.3</ele>
        <time>2021-02-20T06:26:06Z</time>
      </trkpt>
      <trkpt lat="45.18585" lon="5.90534">
        <ele>1207.4</ele>
        <time>2021-02-20T06:26:07Z</time>
      </trkpt>
      <trkpt lat="45.18584" lon="5.90535">
        <ele>1207.5</ele>
        <time>2021-02-20T06:26:08Z</time>
      </trkpt>
      <trkpt lat="45.18583" lon="5.90536">
        <ele>1207.6</ele>
        <time>2021-02-20T06:26:09Z</time>
      </trkpt>
      <trkpt lat="45.18583" lon="5.90537">
        <ele>1207.7</ele>
        <time>2021-02-20T06:26:10Z</time>
      </trkpt>
      <trkpt lat="45.18582" lon="5.90538">
        <ele>1207.8</ele>
        <time>2021-02-20T06:26:11Z</time>
      </trkpt>
      <trkpt lat="45.18582" lon="5.90539">
        <ele>1207.9</ele>
        <time>2021-02-20T06:26:12Z</time>
      </trkpt>
      <trkpt lat="45.18582" lon="5.9054">
        <ele>1208</ele>
        <time>2021-02-20T06:26:13Z</time>
      </trkpt>
      <trkpt lat="45.18581" lon="5.90541">
        <ele>1208.1</ele>
        <time>2021-02-20T06:26:14Z</time>
      </trkpt>
      <trkpt lat="45.1858" lon="5.90541">
        <ele>1208.2</ele>
        <time>2021-02-20T06:26:15Z</time>
      </trkpt>
      <trkpt lat="45.18579" lon="5.90542">
        <ele>1208.2</ele>
        <time>2021-02-20T06:26:16Z</time>
      </trkpt>
      <trkpt lat="45.18579" lon="5.90542">
        <ele>1208.3</ele>
        <time>2021-02-20T06:26:17Z</time>
      </trkpt>
      <trkpt lat="45.18578" lon="5.90543">
        <ele>1208.4</ele>
        <time>2021-02-20T06:26:18Z</time>
      </trkpt>
      <trkpt lat="45.18577" lon="5.90544">
        <ele>1208.5</ele>
        <time>2021-02-20T06:26:19Z</time>
      </trkpt>
      <trkpt lat="45.18577" lon="5.90545">
        <ele>1208.6</ele>
        <time>2021-02-20T06:26:20Z</time>
      </trkpt>
      <trkpt lat="45.18575" lon="5.90546">
        <ele>1208.8</ele>
        <time>2021-02-20T06:26:21Z</time>
      </trkpt>
      <trkpt lat="45.18575" lon="5.90546">
        <ele>1208.8</ele>
        <time>2021-02-20T06:26:22Z</time>
      </trkpt>
      <trkpt lat="45.18574" lon="5.90546">
        <ele>1208.9</ele>
        <time>2021-02-20T06:26:23Z</time>
      </trkpt>
      <trkpt lat="45.18573" lon="5.90546">
        <ele>1209</ele>
        <time>2021-02-20T06:26:24Z</time>
      </trkpt>
      <trkpt lat="45.18573" lon="5.90546">
        <ele>1209</ele>
        <time>2021-02-20T06:26:25Z</time>
      </trkpt>
      <trkpt lat="45.18572" lon="5.90546">
        <ele>1209.1</ele>
        <time>2021-02-20T06:26:26Z</time>
      </trkpt>
      <trkpt lat="45.18571" lon="5.90547">
        <ele>1209.2</ele>
        <time>2021-02-20T06:26:27Z</time>
      </trkpt>
      <trkpt lat="45.1857" lon="5.90547">
        <ele>1209.3</ele>
        <time>2021-02-20T06:26:28Z</time>
      </trkpt>
      <trkpt lat="45.1857" lon="5.90547">
        <ele>1209.4</ele>
        <time>2021-02-20T06:26:29Z</time>
      </trkpt>
      <trkpt lat="45.18569" lon="5.90547">
        <ele>1209.4</ele>
        <time>2021-02-20T06:26:30Z</time>
      </trkpt>
      <trkpt lat="45.18568" lon="5.90547">
        <ele>1209.5</ele>
        <time>2021-02-20T06:26:31Z</time>
      </trkpt>
      <trkpt lat="45.18568" lon="5.90547">
        <ele>1209.6</ele>
        <time>2021-02-20T06:26:32Z</time>
      </trkpt>
      <trkpt lat="45.18567" lon="5.90548">
        <ele>1209.7</ele>
        <time>2021-02-20T06:26:33Z</time>
      </trkpt>
      <trkpt lat="45.18566" lon="5.90548">
        <ele>1209.7</ele>
        <time>2021-02-20T06:29:13Z</time>
      </trkpt>
      <trkpt lat="45.18566" lon="5.90548">
        <ele>1209.8</ele>
        <time>2021-02-20T06:29:14Z</time>
      </trkpt>
      <trkpt lat="45.18565" lon="5.90548">
        <ele>1209.9</ele>
        <time>2021-02-20T06:29:15Z</time>
      </trkpt>
      <trkpt lat="45.18564" lon="5.90548">
        <ele>1210</ele>
        <time>2021-02-20T06:29:16Z</time>
      </trkpt>
      <trkpt lat="45.18564" lon="5.90548">
        <ele>1210.1</ele>
        <time>2021-02-20T06:29:17Z</time>
      </trkpt>
      <trkpt lat="45.18563" lon="5.90549">
        <ele>1210.1</ele>
        <time>2021-02-20T06:29:18Z</time>
      </trkpt>
      <trkpt lat="45.18562" lon="5.90548">
        <ele>1210.2</ele>
        <time>2021-02-20T06:29:19Z</time>
      </trkpt>
      <trkpt lat="45.18562" lon="5.90549">
        <ele>1210.3</ele>
        <time>2021-02-20T06:29:20Z</time>
      </trkpt>
      <trkpt lat="45.18561" lon="5.90549">
        <ele>1210.4</ele>
        <time>2021-02-20T06:29:21Z</time>
      </trkpt>
      <trkpt lat="45.1856" lon="5.9055">
        <ele>1210.6</ele>
        <time>2021-02-20T06:29:22Z</time>
      </trkpt>
      <trkpt lat="45.1856" lon="5.90551">
        <ele>1210.6</ele>
        <time>2021-02-20T06:29:23Z</time>
      </trkpt>
      <trkpt lat="45.18559" lon="5.90551">
        <ele>1210.7</ele>
        <time>2021-02-20T06:29:24Z</time>
      </trkpt>
      <trkpt lat="45.18559" lon="5.90552">
        <ele>1210.8</ele>
        <time>2021-02-20T06:29:25Z</time>
      </trkpt>
      <trkpt lat="45.18558" lon="5.90552">
        <ele>1210.8</ele>
        <time>2021-02-20T06:29:26Z</time>
      </trkpt>
      <trkpt lat="45.18558" lon="5.90553">
        <ele>1210.9</ele>
        <time>2021-02-20T06:29:27Z</time>
      </trkpt>
      <trkpt lat="45.18557" lon="5.90554">
        <ele>1211</ele>
        <time>2021-02-20T06:29:28Z</time>
      </trkpt>
      <trkpt lat="45.18557" lon="5.90555">
        <ele>1211.1</ele>
        <time>2021-02-20T06:29:29Z</time>
      </trkpt>
      <trkpt lat="45.18556" lon="5.90556">
        <ele>1211.2</ele>
        <time>2021-02-20T06:29:30Z</time>
      </trkpt>
      <trkpt lat="45.18556" lon="5.90557">
        <ele>1211.3</ele>
        <time>2021-02-20T06:29:31Z</time>
      </trkpt>
      <trkpt lat="45.18555" lon="5.90557">
        <ele>1211.4</ele>
        <time>2021-02-20T06:29:32Z</time>
      </trkpt>
      <trkpt lat="45.18554" lon="5.90557">
        <ele>1211.6</ele>
        <time>2021-02-20T06:29:33Z</time>
      </trkpt>
      <trkpt lat="45.18552" lon="5.90558">
        <ele>1211.7</ele>
        <time>2021-02-20T06:29:34Z</time>
      </trkpt>
      <trkpt lat="45.18552" lon="5.90558">
        <ele>1211.8</ele>
        <time>2021-02-20T06:29:35Z</time>
      </trkpt>
      <trkpt lat="45.18551" lon="5.90558">
        <ele>1211.9</ele>
        <time>2021-02-20T06:29:36Z</time>
      </trkpt>
      <trkpt lat="45.1855" lon="5.90558">
        <ele>1212</ele>
        <time>2021-02-20T06:29:37Z</time>
      </trkpt>
      <trkpt lat="45.1855" lon="5.90558">
        <ele>1212.1</ele>
        <time>2021-02-20T06:29:38Z</time>
      </trkpt>
      <trkpt lat="45.1855" lon="5.90558">
        <ele>1212.1</ele>
        <time>2021-02-20T06:29:39Z</time>
      </trkpt>
      <trkpt lat="45.18549" lon="5.90558">
        <ele>1212.2</ele>
        <time>2021-02-20T06:29:40Z</time>
      </trkpt>
      <trkpt lat="45.18548" lon="5.90558">
        <ele>1212.2</ele>
        <time>2021-02-20T06:29:41Z</time>
      </trkpt>
      <trkpt lat="45.18548" lon="5.90558">
        <ele>1212.3</ele>
        <time>2021-02-20T06:29:42Z</time>
      </trkpt>
      <trkpt lat="45.18547" lon="5.90558">
        <ele>1212.4</ele>
        <time>2021-02-20T06:29:43Z</time>
      </trkpt>
      <trkpt lat="45.18547" lon="5.90559">
        <ele>1212.5</ele>
        <time>2021-02-20T06:29:44Z</time>
      </trkpt>
      <trkpt lat="45.18546" lon="5.9056">
        <ele>1212.6</ele>
        <time>2021-02-20T06:29:45Z</time>
      </trkpt>
      <trkpt lat="45.18546" lon="5.90562">
        <ele>1212.7</ele>
        <time>2021-02-20T06:29:46Z</time>
      </trkpt>
      <trkpt lat="45.18545" lon="5.90563">
        <ele>1212.8</ele>
        <time>2021-02-20T06:29:47Z</time>
      </trkpt>
      <trkpt lat="45.18544" lon="5.90564">
        <ele>1213</ele>
        <time>2021-02-20T06:29:48Z</time>
      </trkpt>
      <trkpt lat="45.18543" lon="5.90566">
        <ele>1213.2</ele>
        <time>2021-02-20T06:29:49Z</time>
      </trkpt>
      <trkpt lat="45.18542" lon="5.90567">
        <ele>1213.3</ele>
        <time>2021-02-20T06:29:50Z</time>
      </trkpt>
      <trkpt lat="45.18541" lon="5.90568">
        <ele>1213.5</ele>
        <time>2021-02-20T06:29:51Z</time>
      </trkpt>
      <trkpt lat="45.1854" lon="5.90569">
        <ele>1213.6</ele>
        <time>2021-02-20T06:29:52Z</time>
      </trkpt>
      <trkpt lat="45.18539" lon="5.90571">
        <ele>1213.9</ele>
        <time>2021-02-20T06:29:53Z</time>
      </trkpt>
      <trkpt lat="45.18538" lon="5.90572">
        <ele>1214</ele>
        <time>2021-02-20T06:29:54Z</time>
      </trkpt>
      <trkpt lat="45.18538" lon="5.90573">
        <ele>1214.1</ele>
        <time>2021-02-20T06:29:55Z</time>
      </trkpt>
      <trkpt lat="45.18537" lon="5.90575">
        <ele>1214.2</ele>
        <time>2021-02-20T06:29:56Z</time>
      </trkpt>
      <trkpt lat="45.18536" lon="5.90576">
        <ele>1214.4</ele>
        <time>2021-02-20T06:29:57Z</time>
      </trkpt>
      <trkpt lat="45.18536" lon="5.90577">
        <ele>1214.5</ele>
        <time>2021-02-20T06:29:58Z</time>
      </trkpt>
      <trkpt lat="45.18535" lon="5.90578">
        <ele>1214.6</ele>
        <time>2021-02-20T06:29:59Z</time>
      </trkpt>
      <trkpt lat="45.18534" lon="5.90579">
        <ele>1214.8</ele>
        <time>2021-02-20T06:30:00Z</time>
      </trkpt>
      <trkpt lat="45.18534" lon="5.90581">
        <ele>1214.9</ele>
        <time>2021-02-20T06:30:01Z</time>
      </trkpt>
      <trkpt lat="45.18533" lon="5.90582">
        <ele>1215.1</ele>
        <time>2021-02-20T06:30:02Z</time>
      </trkpt>
      <trkpt lat="45.18532" lon="5.90583">
        <ele>1215.2</ele>
        <time>2021-02-20T06:30:03Z</time>
      </trkpt>
      <trkpt lat="45.18532" lon="5.90584">
        <ele>1215.3</ele>
        <time>2021-02-20T06:30:04Z</time>
      </trkpt>
      <trkpt lat="45.18531" lon="5.90585">
        <ele>1215.4</ele>
        <time>2021-02-20T06:30:05Z</time>
      </trkpt>
      <trkpt lat="45.1853" lon="5.90586">
        <ele>1215.5</ele>
        <time>2021-02-20T06:30:06Z</time>
      </trkpt>
      <trkpt lat="45.1853" lon="5.90588">
        <ele>1215.7</ele>
        <time>2021-02-20T06:30:07Z</time>
      </trkpt>
      <trkpt lat="45.18529" lon="5.9059">
        <ele>1215.9</ele>
        <time>2021-02-20T06:30:08Z</time>
      </trkpt>
      <trkpt lat="45.18528" lon="5.90591">
        <ele>1216.1</ele>
        <time>2021-02-20T06:30:09Z</time>
      </trkpt>
      <trkpt lat="45.18527" lon="5.90591">
        <ele>1216.2</ele>
        <time>2021-02-20T06:30:10Z</time>
      </trkpt>
      <trkpt lat="45.18526" lon="5.90591">
        <ele>1216.3</ele>
        <time>2021-02-20T06:30:11Z</time>
      </trkpt>
      <trkpt lat="45.18525" lon="5.90591">
        <ele>1216.4</ele>
        <time>2021-02-20T06:30:12Z</time>
      </trkpt>
      <trkpt lat="45.18524" lon="5.90591">
        <ele>1216.5</ele>
        <time>2021-02-20T06:30:13Z</time>
      </trkpt>
      <trkpt lat="45.18524" lon="5.90592">
        <ele>1216.6</ele>
        <time>2021-02-20T06:30:14Z</time>
      </trkpt>
      <trkpt lat="45.18523" lon="5.90592">
        <ele>1216.6</ele>
        <time>2021-02-20T06:30:15Z</time>
      </trkpt>
      <trkpt lat="45.18523" lon="5.90592">
        <ele>1216.7</ele>
        <time>2021-02-20T06:30:16Z</time>
      </trkpt>
      <trkpt lat="45.18522" lon="5.90593">
        <ele>1216.8</ele>
        <time>2021-02-20T06:30:17Z</time>
      </trkpt>
      <trkpt lat="45.18521" lon="5.90594">
        <ele>1217</ele>
        <time>2021-02-20T06:30:18Z</time>
      </trkpt>
      <trkpt lat="45.1852" lon="5.90595">
        <ele>1217.1</ele>
        <time>2021-02-20T06:30:19Z</time>
      </trkpt>
      <trkpt lat="45.1852" lon="5.90596">
        <ele>1218.5</ele>
        <time>2021-02-20T06:30:20Z</time>
      </trkpt>
      <trkpt lat="45.18519" lon="5.90597">
        <ele>1218.7</ele>
        <time>2021-02-20T06:30:21Z</time>
      </trkpt>
      <trkpt lat="45.18519" lon="5.90597">
        <ele>1219</ele>
        <time>2021-02-20T06:30:22Z</time>
      </trkpt>
      <trkpt lat="45.18518" lon="5.90598">
        <ele>1219.2</ele>
        <time>2021-02-20T06:30:23Z</time>
      </trkpt>
      <trkpt lat="45.18518" lon="5.90599">
        <ele>1219.4</ele>
        <time>2021-02-20T06:30:24Z</time>
      </trkpt>
      <trkpt lat="45.18517" lon="5.90599">
        <ele>1219.5</ele>
        <time>2021-02-20T06:30:25Z</time>
      </trkpt>
      <trkpt lat="45.18516" lon="5.90599">
        <ele>1219.7</ele>
        <time>2021-02-20T06:30:26Z</time>
      </trkpt>
      <trkpt lat="45.18516" lon="5.90599">
        <ele>1220</ele>
        <time>2021-02-20T06:30:27Z</time>
      </trkpt>
      <trkpt lat="45.18514" lon="5.906">
        <ele>1220.4</ele>
        <time>2021-02-20T06:30:28Z</time>
      </trkpt>
      <trkpt lat="45.18514" lon="5.906">
        <ele>1220.6</ele>
        <time>2021-02-20T06:30:29Z</time>
      </trkpt>
      <trkpt lat="45.18513" lon="5.90601">
        <ele>1220.8</ele>
        <time>2021-02-20T06:30:30Z</time>
      </trkpt>
      <trkpt lat="45.18513" lon="5.90602">
        <ele>1221</ele>
        <time>2021-02-20T06:30:31Z</time>
      </trkpt>
      <trkpt lat="45.18512" lon="5.90603">
        <ele>1221.4</ele>
        <time>2021-02-20T06:30:32Z</time>
      </trkpt>
      <trkpt lat="45.18512" lon="5.90605">
        <ele>1221.7</ele>
        <time>2021-02-20T06:30:33Z</time>
      </trkpt>
      <trkpt lat="45.18511" lon="5.90606">
        <ele>1222</ele>
        <time>2021-02-20T06:30:34Z</time>
      </trkpt>
      <trkpt lat="45.18511" lon="5.90607">
        <ele>1222.3</ele>
        <time>2021-02-20T06:30:35Z</time>
      </trkpt>
      <trkpt lat="45.18511" lon="5.90608">
        <ele>1222.5</ele>
        <time>2021-02-20T06:30:36Z</time>
      </trkpt>
      <trkpt lat="45.1851" lon="5.90609">
        <ele>1222.7</ele>
        <time>2021-02-20T06:30:37Z</time>
      </trkpt>
      <trkpt lat="45.18509" lon="5.90609">
        <ele>1222.9</ele>
        <time>2021-02-20T06:30:38Z</time>
      </trkpt>
      <trkpt lat="45.18509" lon="5.9061">
        <ele>1223.2</ele>
        <time>2021-02-20T06:30:39Z</time>
      </trkpt>
      <trkpt lat="45.18508" lon="5.9061">
        <ele>1223.5</ele>
        <time>2021-02-20T06:30:40Z</time>
      </trkpt>
      <trkpt lat="45.18507" lon="5.9061">
        <ele>1223.7</ele>
        <time>2021-02-20T06:30:41Z</time>
      </trkpt>
      <trkpt lat="45.18507" lon="5.90609">
        <ele>1223.9</ele>
        <time>2021-02-20T06:30:42Z</time>
      </trkpt>
      <trkpt lat="45.18506" lon="5.90609">
        <ele>1224</ele>
        <time>2021-02-20T06:30:43Z</time>
      </trkpt>
      <trkpt lat="45.18506" lon="5.90609">
        <ele>1224.1</ele>
        <time>2021-02-20T06:30:44Z</time>
      </trkpt>
      <trkpt lat="45.18505" lon="5.9061">
        <ele>1224.3</ele>
        <time>2021-02-20T06:30:45Z</time>
      </trkpt>
      <trkpt lat="45.18504" lon="5.9061">
        <ele>1224.6</ele>
        <time>2021-02-20T06:30:46Z</time>
      </trkpt>
      <trkpt lat="45.18504" lon="5.90611">
        <ele>1224.8</ele>
        <time>2021-02-20T06:30:47Z</time>
      </trkpt>
      <trkpt lat="45.18503" lon="5.90611">
        <ele>1225</ele>
        <time>2021-02-20T06:30:48Z</time>
      </trkpt>
      <trkpt lat="45.18502" lon="5.90612">
        <ele>1225.3</ele>
        <time>2021-02-20T06:30:49Z</time>
      </trkpt>
      <trkpt lat="45.18501" lon="5.90612">
        <ele>1225.5</ele>
        <time>2021-02-20T06:30:50Z</time>
      </trkpt>
      <trkpt lat="45.18501" lon="5.90612">
        <ele>1225.8</ele>
        <time>2021-02-20T06:30:51Z</time>
      </trkpt>
      <trkpt lat="45.185" lon="5.90613">
        <ele>1226.1</ele>
        <time>2021-02-20T06:30:52Z</time>
      </trkpt>
      <trkpt lat="45.18499" lon="5.90614">
        <ele>1226.5</ele>
        <time>2021-02-20T06:30:53Z</time>
      </trkpt>
      <trkpt lat="45.18498" lon="5.90615">
        <ele>1226.8</ele>
        <time>2021-02-20T06:30:54Z</time>
      </trkpt>
      <trkpt lat="45.18497" lon="5.90615">
        <ele>1227</ele>
        <time>2021-02-20T06:30:55Z</time>
      </trkpt>
      <trkpt lat="45.18496" lon="5.90616">
        <ele>1227.2</ele>
        <time>2021-02-20T06:30:56Z</time>
      </trkpt>
      <trkpt lat="45.18495" lon="5.90617">
        <ele>1227.6</ele>
        <time>2021-02-20T06:30:57Z</time>
      </trkpt>
      <trkpt lat="45.18495" lon="5.90618">
        <ele>1227.8</ele>
        <time>2021-02-20T06:30:58Z</time>
      </trkpt>
      <trkpt lat="45.18494" lon="5.90618">
        <ele>1228.1</ele>
        <time>2021-02-20T06:30:59Z</time>
      </trkpt>
      <trkpt lat="45.18494" lon="5.9062">
        <ele>1228.4</ele>
        <time>2021-02-20T06:31:00Z</time>
      </trkpt>
      <trkpt lat="45.18493" lon="5.9062">
        <ele>1228.6</ele>
        <time>2021-02-20T06:31:01Z</time>
      </trkpt>
      <trkpt lat="45.18493" lon="5.90621">
        <ele>1228.8</ele>
        <time>2021-02-20T06:31:02Z</time>
      </trkpt>
      <trkpt lat="45.18492" lon="5.90622">
        <ele>1229.1</ele>
        <time>2021-02-20T06:31:03Z</time>
      </trkpt>
      <trkpt lat="45.18491" lon="5.90623">
        <ele>1229.3</ele>
        <time>2021-02-20T06:31:04Z</time>
      </trkpt>
      <trkpt lat="45.18491" lon="5.90623">
        <ele>1229.6</ele>
        <time>2021-02-20T06:31:05Z</time>
      </trkpt>
      <trkpt lat="45.1849" lon="5.90624">
        <ele>1229.8</ele>
        <time>2021-02-20T06:31:06Z</time>
      </trkpt>
      <trkpt lat="45.1849" lon="5.90624">
        <ele>1229.9</ele>
        <time>2021-02-20T06:31:07Z</time>
      </trkpt>
      <trkpt lat="45.18489" lon="5.90625">
        <ele>1230.1</ele>
        <time>2021-02-20T06:31:08Z</time>
      </trkpt>
      <trkpt lat="45.18488" lon="5.90625">
        <ele>1230.4</ele>
        <time>2021-02-20T06:31:09Z</time>
      </trkpt>
      <trkpt lat="45.18488" lon="5.90626">
        <ele>1230.6</ele>
        <time>2021-02-20T06:31:10Z</time>
      </trkpt>
      <trkpt lat="45.18487" lon="5.90626">
        <ele>1230.7</ele>
        <time>2021-02-20T06:31:11Z</time>
      </trkpt>
      <trkpt lat="45.18487" lon="5.90625">
        <ele>1230.9</ele>
        <time>2021-02-20T06:31:12Z</time>
      </trkpt>
      <trkpt lat="45.18487" lon="5.90625">
        <ele>1231</ele>
        <time>2021-02-20T06:31:13Z</time>
      </trkpt>
      <trkpt lat="45.18486" lon="5.90624">
        <ele>1231.2</ele>
        <time>2021-02-20T06:31:14Z</time>
      </trkpt>
      <trkpt lat="45.18485" lon="5.90624">
        <ele>1231.4</ele>
        <time>2021-02-20T06:31:15Z</time>
      </trkpt>
      <trkpt lat="45.18485" lon="5.90623">
        <ele>1231.6</ele>
        <time>2021-02-20T06:31:16Z</time>
      </trkpt>
      <trkpt lat="45.18485" lon="5.90623">
        <ele>1231.7</ele>
        <time>2021-02-20T06:31:17Z</time>
      </trkpt>
      <trkpt lat="45.18484" lon="5.90623">
        <ele>1232</ele>
        <time>2021-02-20T06:31:18Z</time>
      </trkpt>
      <trkpt lat="45.18482" lon="5.90625">
        <ele>1232.4</ele>
        <time>2021-02-20T06:31:19Z</time>
      </trkpt>
      <trkpt lat="45.18481" lon="5.90626">
        <ele>1232.9</ele>
        <time>2021-02-20T06:31:20Z</time>
      </trkpt>
      <trkpt lat="45.1848" lon="5.90627">
        <ele>1233.2</ele>
        <time>2021-02-20T06:31:21Z</time>
      </trkpt>
      <trkpt lat="45.18479" lon="5.90627">
        <ele>1233.4</ele>
        <time>2021-02-20T06:31:22Z</time>
      </trkpt>
      <trkpt lat="45.18478" lon="5.90628">
        <ele>1233.6</ele>
        <time>2021-02-20T06:31:23Z</time>
      </trkpt>
      <trkpt lat="45.18477" lon="5.90629">
        <ele>1233.9</ele>
        <time>2021-02-20T06:31:24Z</time>
      </trkpt>
      <trkpt lat="45.18476" lon="5.9063">
        <ele>1234.1</ele>
        <time>2021-02-20T06:31:25Z</time>
      </trkpt>
      <trkpt lat="45.18475" lon="5.90631">
        <ele>1234.3</ele>
        <time>2021-02-20T06:31:26Z</time>
      </trkpt>
      <trkpt lat="45.18474" lon="5.90632">
        <ele>1234.6</ele>
        <time>2021-02-20T06:31:27Z</time>
      </trkpt>
      <trkpt lat="45.18473" lon="5.90633">
        <ele>1234.8</ele>
        <time>2021-02-20T06:31:28Z</time>
      </trkpt>
      <trkpt lat="45.18473" lon="5.90633">
        <ele>1235.1</ele>
        <time>2021-02-20T06:31:29Z</time>
      </trkpt>
      <trkpt lat="45.18472" lon="5.90634">
        <ele>1235.3</ele>
        <time>2021-02-20T06:31:30Z</time>
      </trkpt>
      <trkpt lat="45.18471" lon="5.90635">
        <ele>1235.5</ele>
        <time>2021-02-20T06:31:31Z</time>
      </trkpt>
      <trkpt lat="45.1847" lon="5.90635">
        <ele>1235.7</ele>
        <time>2021-02-20T06:31:32Z</time>
      </trkpt>
      <trkpt lat="45.18469" lon="5.90635">
        <ele>1235.8</ele>
        <time>2021-02-20T06:31:33Z</time>
      </trkpt>
      <trkpt lat="45.18468" lon="5.90635">
        <ele>1236</ele>
        <time>2021-02-20T06:31:34Z</time>
      </trkpt>
      <trkpt lat="45.18467" lon="5.90635">
        <ele>1236.2</ele>
        <time>2021-02-20T06:31:35Z</time>
      </trkpt>
      <trkpt lat="45.18466" lon="5.90636">
        <ele>1236.4</ele>
        <time>2021-02-20T06:31:36Z</time>
      </trkpt>
      <trkpt lat="45.18466" lon="5.90637">
        <ele>1236.6</ele>
        <time>2021-02-20T06:31:37Z</time>
      </trkpt>
      <trkpt lat="45.18465" lon="5.90637">
        <ele>1236.7</ele>
        <time>2021-02-20T06:31:38Z</time>
      </trkpt>
      <trkpt lat="45.18464" lon="5.90638">
        <ele>1236.9</ele>
        <time>2021-02-20T06:31:39Z</time>
      </trkpt>
      <trkpt lat="45.18463" lon="5.90639">
        <ele>1237.1</ele>
        <time>2021-02-20T06:31:40Z</time>
      </trkpt>
      <trkpt lat="45.18462" lon="5.9064">
        <ele>1237.2</ele>
        <time>2021-02-20T06:31:41Z</time>
      </trkpt>
      <trkpt lat="45.18461" lon="5.90641">
        <ele>1237.5</ele>
        <time>2021-02-20T06:31:42Z</time>
      </trkpt>
      <trkpt lat="45.1846" lon="5.90642">
        <ele>1237.7</ele>
        <time>2021-02-20T06:31:43Z</time>
      </trkpt>
      <trkpt lat="45.18459" lon="5.90643">
        <ele>1237.9</ele>
        <time>2021-02-20T06:31:44Z</time>
      </trkpt>
      <trkpt lat="45.18458" lon="5.90644">
        <ele>1238.1</ele>
        <time>2021-02-20T06:31:45Z</time>
      </trkpt>
      <trkpt lat="45.18457" lon="5.90645">
        <ele>1238.3</ele>
        <time>2021-02-20T06:31:46Z</time>
      </trkpt>
      <trkpt lat="45.18456" lon="5.90646">
        <ele>1238.4</ele>
        <time>2021-02-20T06:31:47Z</time>
      </trkpt>
      <trkpt lat="45.18455" lon="5.90646">
        <ele>1238.5</ele>
        <time>2021-02-20T06:31:48Z</time>
      </trkpt>
      <trkpt lat="45.18455" lon="5.90647">
        <ele>1238.7</ele>
        <time>2021-02-20T06:31:49Z</time>
      </trkpt>
      <trkpt lat="45.18454" lon="5.90648">
        <ele>1238.8</ele>
        <time>2021-02-20T06:31:50Z</time>
      </trkpt>
      <trkpt lat="45.18453" lon="5.90649">
        <ele>1239</ele>
        <time>2021-02-20T06:31:51Z</time>
      </trkpt>
      <trkpt lat="45.18452" lon="5.9065">
        <ele>1239.1</ele>
        <time>2021-02-20T06:31:52Z</time>
      </trkpt>
      <trkpt lat="45.18451" lon="5.90651">
        <ele>1239.3</ele>
        <time>2021-02-20T06:31:53Z</time>
      </trkpt>
      <trkpt lat="45.18451" lon="5.90652">
        <ele>1239.4</ele>
        <time>2021-02-20T06:31:54Z</time>
      </trkpt>
      <trkpt lat="45.1845" lon="5.90652">
        <ele>1239.6</ele>
        <time>2021-02-20T06:31:55Z</time>
      </trkpt>
      <trkpt lat="45.18449" lon="5.90653">
        <ele>1239.7</ele>
        <time>2021-02-20T06:31:56Z</time>
      </trkpt>
      <trkpt lat="45.18448" lon="5.90655">
        <ele>1239.9</ele>
        <time>2021-02-20T06:31:57Z</time>
      </trkpt>
      <trkpt lat="45.18447" lon="5.90655">
        <ele>1240</ele>
        <time>2021-02-20T06:31:58Z</time>
      </trkpt>
      <trkpt lat="45.18447" lon="5.90656">
        <ele>1240.1</ele>
        <time>2021-02-20T06:31:59Z</time>
      </trkpt>
      <trkpt lat="45.18446" lon="5.90657">
        <ele>1240.2</ele>
        <time>2021-02-20T06:32:00Z</time>
      </trkpt>
      <trkpt lat="45.18445" lon="5.90658">
        <ele>1240.4</ele>
        <time>2021-02-20T06:32:01Z</time>
      </trkpt>
      <trkpt lat="45.18444" lon="5.90659">
        <ele>1240.5</ele>
        <time>2021-02-20T06:32:02Z</time>
      </trkpt>
      <trkpt lat="45.18443" lon="5.9066">
        <ele>1240.7</ele>
        <time>2021-02-20T06:32:03Z</time>
      </trkpt>
      <trkpt lat="45.18443" lon="5.9066">
        <ele>1240.8</ele>
        <time>2021-02-20T06:32:04Z</time>
      </trkpt>
      <trkpt lat="45.18442" lon="5.90661">
        <ele>1240.9</ele>
        <time>2021-02-20T06:32:05Z</time>
      </trkpt>
      <trkpt lat="45.18442" lon="5.90662">
        <ele>1241</ele>
        <time>2021-02-20T06:32:06Z</time>
      </trkpt>
      <trkpt lat="45.18441" lon="5.90664">
        <ele>1241.1</ele>
        <time>2021-02-20T06:32:07Z</time>
      </trkpt>
      <trkpt lat="45.18441" lon="5.90665">
        <ele>1241.2</ele>
        <time>2021-02-20T06:32:08Z</time>
      </trkpt>
      <trkpt lat="45.18441" lon="5.90666">
        <ele>1241.2</ele>
        <time>2021-02-20T06:32:09Z</time>
      </trkpt>
      <trkpt lat="45.18441" lon="5.90668">
        <ele>1241.3</ele>
        <time>2021-02-20T06:32:10Z</time>
      </trkpt>
      <trkpt lat="45.18441" lon="5.90669">
        <ele>1241.4</ele>
        <time>2021-02-20T06:32:11Z</time>
      </trkpt>
      <trkpt lat="45.18441" lon="5.9067">
        <ele>1241.5</ele>
        <time>2021-02-20T06:32:12Z</time>
      </trkpt>
      <trkpt lat="45.1844" lon="5.90671">
        <ele>1241.6</ele>
        <time>2021-02-20T06:32:13Z</time>
      </trkpt>
      <trkpt lat="45.1844" lon="5.90673">
        <ele>1241.7</ele>
        <time>2021-02-20T06:32:14Z</time>
      </trkpt>
      <trkpt lat="45.18439" lon="5.90675">
        <ele>1241.8</ele>
        <time>2021-02-20T06:32:15Z</time>
      </trkpt>
      <trkpt lat="45.18439" lon="5.90676">
        <ele>1242</ele>
        <time>2021-02-20T06:32:16Z</time>
      </trkpt>
      <trkpt lat="45.18438" lon="5.90677">
        <ele>1242.1</ele>
        <time>2021-02-20T06:32:17Z</time>
      </trkpt>
      <trkpt lat="45.18437" lon="5.90678">
        <ele>1242.2</ele>
        <time>2021-02-20T06:32:18Z</time>
      </trkpt>
      <trkpt lat="45.18437" lon="5.90679">
        <ele>1242.3</ele>
        <time>2021-02-20T06:32:19Z</time>
      </trkpt>
      <trkpt lat="45.18436" lon="5.90681">
        <ele>1242.4</ele>
        <time>2021-02-20T06:32:20Z</time>
      </trkpt>
      <trkpt lat="45.18435" lon="5.90682">
        <ele>1242.6</ele>
        <time>2021-02-20T06:32:21Z</time>
      </trkpt>
      <trkpt lat="45.18434" lon="5.90683">
        <ele>1242.7</ele>
        <time>2021-02-20T06:32:22Z</time>
      </trkpt>
      <trkpt lat="45.18432" lon="5.90685">
        <ele>1243</ele>
        <time>2021-02-20T06:32:23Z</time>
      </trkpt>
      <trkpt lat="45.18432" lon="5.90686">
        <ele>1243.1</ele>
        <time>2021-02-20T06:32:24Z</time>
      </trkpt>
      <trkpt lat="45.18431" lon="5.90687">
        <ele>1243.2</ele>
        <time>2021-02-20T06:32:25Z</time>
      </trkpt>
      <trkpt lat="45.18431" lon="5.90688">
        <ele>1243.3</ele>
        <time>2021-02-20T06:32:26Z</time>
      </trkpt>
      <trkpt lat="45.1843" lon="5.9069">
        <ele>1243.5</ele>
        <time>2021-02-20T06:32:27Z</time>
      </trkpt>
      <trkpt lat="45.18429" lon="5.90691">
        <ele>1243.6</ele>
        <time>2021-02-20T06:32:28Z</time>
      </trkpt>
      <trkpt lat="45.18428" lon="5.90692">
        <ele>1243.8</ele>
        <time>2021-02-20T06:32:29Z</time>
      </trkpt>
      <trkpt lat="45.18428" lon="5.90693">
        <ele>1243.9</ele>
        <time>2021-02-20T06:32:30Z</time>
      </trkpt>
      <trkpt lat="45.18427" lon="5.90694">
        <ele>1244.1</ele>
        <time>2021-02-20T06:32:31Z</time>
      </trkpt>
      <trkpt lat="45.18426" lon="5.90696">
        <ele>1244.2</ele>
        <time>2021-02-20T06:32:32Z</time>
      </trkpt>
      <trkpt lat="45.18426" lon="5.90697">
        <ele>1244.4</ele>
        <time>2021-02-20T06:32:33Z</time>
      </trkpt>
      <trkpt lat="45.18425" lon="5.90699">
        <ele>1244.6</ele>
        <time>2021-02-20T06:32:34Z</time>
      </trkpt>
      <trkpt lat="45.18425" lon="5.907">
        <ele>1244.7</ele>
        <time>2021-02-20T06:32:35Z</time>
      </trkpt>
      <trkpt lat="45.18425" lon="5.90702">
        <ele>1245</ele>
        <time>2021-02-20T06:32:36Z</time>
      </trkpt>
      <trkpt lat="45.18425" lon="5.90703">
        <ele>1245.1</ele>
        <time>2021-02-20T06:32:37Z</time>
      </trkpt>
      <trkpt lat="45.18425" lon="5.90705">
        <ele>1245.4</ele>
        <time>2021-02-20T06:32:38Z</time>
      </trkpt>
      <trkpt lat="45.18424" lon="5.90707">
        <ele>1245.5</ele>
        <time>2021-02-20T06:32:39Z</time>
      </trkpt>
      <trkpt lat="45.18424" lon="5.90708">
        <ele>1245.6</ele>
        <time>2021-02-20T06:32:40Z</time>
      </trkpt>
      <trkpt lat="45.18424" lon="5.9071">
        <ele>1245.8</ele>
        <time>2021-02-20T06:32:41Z</time>
      </trkpt>
      <trkpt lat="45.18424" lon="5.90711">
        <ele>1246</ele>
        <time>2021-02-20T06:32:42Z</time>
      </trkpt>
      <trkpt lat="45.18424" lon="5.90713">
        <ele>1246.2</ele>
        <time>2021-02-20T06:32:43Z</time>
      </trkpt>
      <trkpt lat="45.18425" lon="5.90715">
        <ele>1246.3</ele>
        <time>2021-02-20T06:32:44Z</time>
      </trkpt>
      <trkpt lat="45.18425" lon="5.90716">
        <ele>1246.5</ele>
        <time>2021-02-20T06:32:45Z</time>
      </trkpt>
      <trkpt lat="45.18426" lon="5.90717">
        <ele>1246.6</ele>
        <time>2021-02-20T06:32:46Z</time>
      </trkpt>
      <trkpt lat="45.18426" lon="5.90718">
        <ele>1246.8</ele>
        <time>2021-02-20T06:32:47Z</time>
      </trkpt>
      <trkpt lat="45.18426" lon="5.9072">
        <ele>1247</ele>
        <time>2021-02-20T06:32:48Z</time>
      </trkpt>
      <trkpt lat="45.18426" lon="5.90722">
        <ele>1247.2</ele>
        <time>2021-02-20T06:32:49Z</time>
      </trkpt>
      <trkpt lat="45.18426" lon="5.90723">
        <ele>1247.3</ele>
        <time>2021-02-20T06:32:50Z</time>
      </trkpt>
      <trkpt lat="45.18426" lon="5.90724">
        <ele>1247.4</ele>
        <time>2021-02-20T06:32:51Z</time>
      </trkpt>
      <trkpt lat="45.18426" lon="5.90725">
        <ele>1247.5</ele>
        <time>2021-02-20T06:32:52Z</time>
      </trkpt>
      <trkpt lat="45.18426" lon="5.90727">
        <ele>1247.7</ele>
        <time>2021-02-20T06:32:53Z</time>
      </trkpt>
      <trkpt lat="45.18426" lon="5.90728">
        <ele>1247.9</ele>
        <time>2021-02-20T06:32:54Z</time>
      </trkpt>
      <trkpt lat="45.18426" lon="5.90729">
        <ele>1248</ele>
        <time>2021-02-20T06:32:55Z</time>
      </trkpt>
      <trkpt lat="45.18427" lon="5.9073">
        <ele>1248.1</ele>
        <time>2021-02-20T06:32:56Z</time>
      </trkpt>
      <trkpt lat="45.18427" lon="5.90731">
        <ele>1248.3</ele>
        <time>2021-02-20T06:32:57Z</time>
      </trkpt>
      <trkpt lat="45.18427" lon="5.90732">
        <ele>1248.5</ele>
        <time>2021-02-20T06:32:58Z</time>
      </trkpt>
      <trkpt lat="45.18427" lon="5.90733">
        <ele>1248.6</ele>
        <time>2021-02-20T06:32:59Z</time>
      </trkpt>
      <trkpt lat="45.18427" lon="5.90734">
        <ele>1248.7</ele>
        <time>2021-02-20T06:33:00Z</time>
      </trkpt>
      <trkpt lat="45.18427" lon="5.90736">
        <ele>1248.8</ele>
        <time>2021-02-20T06:33:01Z</time>
      </trkpt>
      <trkpt lat="45.18428" lon="5.90738">
        <ele>1249.2</ele>
        <time>2021-02-20T06:33:02Z</time>
      </trkpt>
      <trkpt lat="45.18429" lon="5.90739">
        <ele>1249.4</ele>
        <time>2021-02-20T06:33:03Z</time>
      </trkpt>
      <trkpt lat="45.18429" lon="5.9074">
        <ele>1249.5</ele>
        <time>2021-02-20T06:33:04Z</time>
      </trkpt>
      <trkpt lat="45.1843" lon="5.90742">
        <ele>1249.7</ele>
        <time>2021-02-20T06:33:05Z</time>
      </trkpt>
      <trkpt lat="45.18431" lon="5.90743">
        <ele>1250</ele>
        <time>2021-02-20T06:33:06Z</time>
      </trkpt>
      <trkpt lat="45.18431" lon="5.90744">
        <ele>1250.1</ele>
        <time>2021-02-20T06:33:07Z</time>
      </trkpt>
      <trkpt lat="45.18432" lon="5.90745">
        <ele>1250.3</ele>
        <time>2021-02-20T06:33:08Z</time>
      </trkpt>
      <trkpt lat="45.18433" lon="5.90746">
        <ele>1250.5</ele>
        <time>2021-02-20T06:33:09Z</time>
      </trkpt>
      <trkpt lat="45.18433" lon="5.90747">
        <ele>1250.6</ele>
        <time>2021-02-20T06:33:10Z</time>
      </trkpt>
      <trkpt lat="45.18434" lon="5.90748">
        <ele>1250.8</ele>
        <time>2021-02-20T06:33:11Z</time>
      </trkpt>
      <trkpt lat="45.18434" lon="5.90749">
        <ele>1250.9</ele>
        <time>2021-02-20T06:33:12Z</time>
      </trkpt>
      <trkpt lat="45.18435" lon="5.90749">
        <ele>1251</ele>
        <time>2021-02-20T06:33:13Z</time>
      </trkpt>
      <trkpt lat="45.18436" lon="5.9075">
        <ele>1251.2</ele>
        <time>2021-02-20T06:33:14Z</time>
      </trkpt>
      <trkpt lat="45.18437" lon="5.90752">
        <ele>1251.6</ele>
        <time>2021-02-20T06:33:15Z</time>
      </trkpt>
      <trkpt lat="45.18437" lon="5.90753">
        <ele>1251.8</ele>
        <time>2021-02-20T06:33:16Z</time>
      </trkpt>
      <trkpt lat="45.18438" lon="5.90754">
        <ele>1251.9</ele>
        <time>2021-02-20T06:33:17Z</time>
      </trkpt>
      <trkpt lat="45.18439" lon="5.90756">
        <ele>1252.2</ele>
        <time>2021-02-20T06:33:18Z</time>
      </trkpt>
      <trkpt lat="45.1844" lon="5.90757">
        <ele>1252.5</ele>
        <time>2021-02-20T06:33:19Z</time>
      </trkpt>
      <trkpt lat="45.18441" lon="5.90759">
        <ele>1252.7</ele>
        <time>2021-02-20T06:33:20Z</time>
      </trkpt>
      <trkpt lat="45.18441" lon="5.9076">
        <ele>1252.9</ele>
        <time>2021-02-20T06:33:21Z</time>
      </trkpt>
      <trkpt lat="45.18442" lon="5.90761">
        <ele>1253.1</ele>
        <time>2021-02-20T06:33:22Z</time>
      </trkpt>
      <trkpt lat="45.18442" lon="5.90762">
        <ele>1253.2</ele>
        <time>2021-02-20T06:33:23Z</time>
      </trkpt>
      <trkpt lat="45.18442" lon="5.90762">
        <ele>1253.3</ele>
        <time>2021-02-20T06:33:24Z</time>
      </trkpt>
      <trkpt lat="45.18442" lon="5.90763">
        <ele>1253.4</ele>
        <time>2021-02-20T06:33:25Z</time>
      </trkpt>
      <trkpt lat="45.18442" lon="5.90764">
        <ele>1253.5</ele>
        <time>2021-02-20T06:33:26Z</time>
      </trkpt>
      <trkpt lat="45.18443" lon="5.90764">
        <ele>1253.6</ele>
        <time>2021-02-20T06:33:27Z</time>
      </trkpt>
      <trkpt lat="45.18443" lon="5.90765">
        <ele>1253.8</ele>
        <time>2021-02-20T06:33:28Z</time>
      </trkpt>
      <trkpt lat="45.18444" lon="5.90766">
        <ele>1253.8</ele>
        <time>2021-02-20T06:33:29Z</time>
      </trkpt>
      <trkpt lat="45.18444" lon="5.90766">
        <ele>1254</ele>
        <time>2021-02-20T06:33:30Z</time>
      </trkpt>
      <trkpt lat="45.18445" lon="5.90767">
        <ele>1254.2</ele>
        <time>2021-02-20T06:33:31Z</time>
      </trkpt>
      <trkpt lat="45.18445" lon="5.90769">
        <ele>1254.4</ele>
        <time>2021-02-20T06:33:32Z</time>
      </trkpt>
      <trkpt lat="45.18445" lon="5.9077">
        <ele>1254.5</ele>
        <time>2021-02-20T06:33:33Z</time>
      </trkpt>
      <trkpt lat="45.18445" lon="5.90771">
        <ele>1254.7</ele>
        <time>2021-02-20T06:33:34Z</time>
      </trkpt>
      <trkpt lat="45.18444" lon="5.90772">
        <ele>1254.8</ele>
        <time>2021-02-20T06:33:35Z</time>
      </trkpt>
      <trkpt lat="45.18445" lon="5.90772">
        <ele>1254.9</ele>
        <time>2021-02-20T06:33:36Z</time>
      </trkpt>
      <trkpt lat="45.18445" lon="5.90773">
        <ele>1255</ele>
        <time>2021-02-20T06:33:37Z</time>
      </trkpt>
      <trkpt lat="45.18446" lon="5.90772">
        <ele>1255.1</ele>
        <time>2021-02-20T06:33:38Z</time>
      </trkpt>
      <trkpt lat="45.18446" lon="5.90773">
        <ele>1255.1</ele>
        <time>2021-02-20T06:33:39Z</time>
      </trkpt>
      <trkpt lat="45.18446" lon="5.90773">
        <ele>1255.2</ele>
        <time>2021-02-20T06:33:40Z</time>
      </trkpt>
      <trkpt lat="45.18446" lon="5.90773">
        <ele>1255.3</ele>
        <time>2021-02-20T06:33:41Z</time>
      </trkpt>
      <trkpt lat="45.18448" lon="5.90774">
        <ele>1255.6</ele>
        <time>2021-02-20T06:33:42Z</time>
      </trkpt>
      <trkpt lat="45.18449" lon="5.90775">
        <ele>1255.9</ele>
        <time>2021-02-20T06:33:43Z</time>
      </trkpt>
      <trkpt lat="45.1845" lon="5.90776">
        <ele>1256.1</ele>
        <time>2021-02-20T06:33:44Z</time>
      </trkpt>
      <trkpt lat="45.18451" lon="5.90777">
        <ele>1256.3</ele>
        <time>2021-02-20T06:33:45Z</time>
      </trkpt>
      <trkpt lat="45.18452" lon="5.90778">
        <ele>1256.5</ele>
        <time>2021-02-20T06:33:46Z</time>
      </trkpt>
      <trkpt lat="45.18452" lon="5.90779">
        <ele>1256.7</ele>
        <time>2021-02-20T06:33:47Z</time>
      </trkpt>
      <trkpt lat="45.18453" lon="5.9078">
        <ele>1256.9</ele>
        <time>2021-02-20T06:33:48Z</time>
      </trkpt>
      <trkpt lat="45.18453" lon="5.90781">
        <ele>1257</ele>
        <time>2021-02-20T06:33:49Z</time>
      </trkpt>
      <trkpt lat="45.18453" lon="5.90782">
        <ele>1257.1</ele>
        <time>2021-02-20T06:33:50Z</time>
      </trkpt>
      <trkpt lat="45.18454" lon="5.90783">
        <ele>1257.3</ele>
        <time>2021-02-20T06:33:51Z</time>
      </trkpt>
      <trkpt lat="45.18455" lon="5.90785">
        <ele>1257.5</ele>
        <time>2021-02-20T06:33:52Z</time>
      </trkpt>
      <trkpt lat="45.18455" lon="5.90786">
        <ele>1257.7</ele>
        <time>2021-02-20T06:33:53Z</time>
      </trkpt>
      <trkpt lat="45.18456" lon="5.90787">
        <ele>1257.9</ele>
        <time>2021-02-20T06:33:54Z</time>
      </trkpt>
      <trkpt lat="45.18457" lon="5.90787">
        <ele>1258.1</ele>
        <time>2021-02-20T06:33:55Z</time>
      </trkpt>
      <trkpt lat="45.18457" lon="5.90788">
        <ele>1258.3</ele>
        <time>2021-02-20T06:33:56Z</time>
      </trkpt>
      <trkpt lat="45.18458" lon="5.90789">
        <ele>1258.5</ele>
        <time>2021-02-20T06:33:57Z</time>
      </trkpt>
      <trkpt lat="45.18459" lon="5.90789">
        <ele>1258.7</ele>
        <time>2021-02-20T06:33:58Z</time>
      </trkpt>
      <trkpt lat="45.1846" lon="5.9079">
        <ele>1258.9</ele>
        <time>2021-02-20T06:33:59Z</time>
      </trkpt>
      <trkpt lat="45.18461" lon="5.90792">
        <ele>1259.2</ele>
        <time>2021-02-20T06:34:00Z</time>
      </trkpt>
      <trkpt lat="45.18462" lon="5.90793">
        <ele>1259.5</ele>
        <time>2021-02-20T06:34:01Z</time>
      </trkpt>
      <trkpt lat="45.18463" lon="5.90794">
        <ele>1259.7</ele>
        <time>2021-02-20T06:34:02Z</time>
      </trkpt>
      <trkpt lat="45.18463" lon="5.90794">
        <ele>1259.8</ele>
        <time>2021-02-20T06:34:03Z</time>
      </trkpt>
      <trkpt lat="45.18464" lon="5.90795">
        <ele>1260</ele>
        <time>2021-02-20T06:34:04Z</time>
      </trkpt>
      <trkpt lat="45.18464" lon="5.90796">
        <ele>1260.1</ele>
        <time>2021-02-20T06:34:05Z</time>
      </trkpt>
      <trkpt lat="45.18464" lon="5.90797">
        <ele>1260.3</ele>
        <time>2021-02-20T06:34:06Z</time>
      </trkpt>
      <trkpt lat="45.18464" lon="5.90798">
        <ele>1260.4</ele>
        <time>2021-02-20T06:34:07Z</time>
      </trkpt>
      <trkpt lat="45.18465" lon="5.90799">
        <ele>1260.6</ele>
        <time>2021-02-20T06:34:08Z</time>
      </trkpt>
      <trkpt lat="45.18465" lon="5.908">
        <ele>1260.8</ele>
        <time>2021-02-20T06:34:09Z</time>
      </trkpt>
      <trkpt lat="45.18466" lon="5.908">
        <ele>1260.9</ele>
        <time>2021-02-20T06:34:10Z</time>
      </trkpt>
      <trkpt lat="45.18466" lon="5.908">
        <ele>1261</ele>
        <time>2021-02-20T06:34:11Z</time>
      </trkpt>
      <trkpt lat="45.18467" lon="5.90801">
        <ele>1261.1</ele>
        <time>2021-02-20T06:34:12Z</time>
      </trkpt>
      <trkpt lat="45.18467" lon="5.90801">
        <ele>1261.3</ele>
        <time>2021-02-20T06:34:13Z</time>
      </trkpt>
      <trkpt lat="45.18468" lon="5.90801">
        <ele>1261.5</ele>
        <time>2021-02-20T06:34:14Z</time>
      </trkpt>
      <trkpt lat="45.18468" lon="5.90801">
        <ele>1261.5</ele>
        <time>2021-02-20T06:34:15Z</time>
      </trkpt>
      <trkpt lat="45.18469" lon="5.90802">
        <ele>1261.8</ele>
        <time>2021-02-20T06:34:16Z</time>
      </trkpt>
      <trkpt lat="45.1847" lon="5.90804">
        <ele>1262.1</ele>
        <time>2021-02-20T06:34:17Z</time>
      </trkpt>
      <trkpt lat="45.1847" lon="5.90805">
        <ele>1262.3</ele>
        <time>2021-02-20T06:34:18Z</time>
      </trkpt>
      <trkpt lat="45.1847" lon="5.90807">
        <ele>1262.5</ele>
        <time>2021-02-20T06:34:19Z</time>
      </trkpt>
      <trkpt lat="45.18471" lon="5.90807">
        <ele>1262.6</ele>
        <time>2021-02-20T06:34:20Z</time>
      </trkpt>
      <trkpt lat="45.18471" lon="5.90808">
        <ele>1262.7</ele>
        <time>2021-02-20T06:34:21Z</time>
      </trkpt>
      <trkpt lat="45.18472" lon="5.90808">
        <ele>1263</ele>
        <time>2021-02-20T06:34:22Z</time>
      </trkpt>
      <trkpt lat="45.18473" lon="5.90809">
        <ele>1263.2</ele>
        <time>2021-02-20T06:34:23Z</time>
      </trkpt>
      <trkpt lat="45.18474" lon="5.90809">
        <ele>1263.5</ele>
        <time>2021-02-20T06:34:24Z</time>
      </trkpt>
      <trkpt lat="45.18476" lon="5.9081">
        <ele>1263.8</ele>
        <time>2021-02-20T06:34:25Z</time>
      </trkpt>
      <trkpt lat="45.18478" lon="5.9081">
        <ele>1264.1</ele>
        <time>2021-02-20T06:34:26Z</time>
      </trkpt>
      <trkpt lat="45.18479" lon="5.9081">
        <ele>1264.5</ele>
        <time>2021-02-20T06:34:27Z</time>
      </trkpt>
      <trkpt lat="45.1848" lon="5.9081">
        <ele>1264.8</ele>
        <time>2021-02-20T06:34:28Z</time>
      </trkpt>
      <trkpt lat="45.18481" lon="5.90811">
        <ele>1265</ele>
        <time>2021-02-20T06:34:29Z</time>
      </trkpt>
      <trkpt lat="45.18482" lon="5.90812">
        <ele>1265.1</ele>
        <time>2021-02-20T06:34:30Z</time>
      </trkpt>
      <trkpt lat="45.18482" lon="5.90813">
        <ele>1265.3</ele>
        <time>2021-02-20T06:34:31Z</time>
      </trkpt>
      <trkpt lat="45.18482" lon="5.90814">
        <ele>1265.5</ele>
        <time>2021-02-20T06:34:32Z</time>
      </trkpt>
      <trkpt lat="45.18483" lon="5.90816">
        <ele>1265.7</ele>
        <time>2021-02-20T06:34:33Z</time>
      </trkpt>
      <trkpt lat="45.18483" lon="5.90816">
        <ele>1265.8</ele>
        <time>2021-02-20T06:34:34Z</time>
      </trkpt>
      <trkpt lat="45.18484" lon="5.90817">
        <ele>1266</ele>
        <time>2021-02-20T06:34:35Z</time>
      </trkpt>
      <trkpt lat="45.18484" lon="5.90817">
        <ele>1266.1</ele>
        <time>2021-02-20T06:34:36Z</time>
      </trkpt>
      <trkpt lat="45.18485" lon="5.90818">
        <ele>1266.3</ele>
        <time>2021-02-20T06:34:37Z</time>
      </trkpt>
      <trkpt lat="45.18486" lon="5.90818">
        <ele>1266.4</ele>
        <time>2021-02-20T06:34:38Z</time>
      </trkpt>
      <trkpt lat="45.18487" lon="5.90819">
        <ele>1266.6</ele>
        <time>2021-02-20T06:34:39Z</time>
      </trkpt>
      <trkpt lat="45.18487" lon="5.90819">
        <ele>1266.7</ele>
        <time>2021-02-20T06:34:40Z</time>
      </trkpt>
      <trkpt lat="45.18487" lon="5.9082">
        <ele>1266.7</ele>
        <time>2021-02-20T06:34:41Z</time>
      </trkpt>
      <trkpt lat="45.18486" lon="5.90821">
        <ele>1266.9</ele>
        <time>2021-02-20T06:34:42Z</time>
      </trkpt>
      <trkpt lat="45.18487" lon="5.90822">
        <ele>1267</ele>
        <time>2021-02-20T06:34:43Z</time>
      </trkpt>
      <trkpt lat="45.18487" lon="5.90823">
        <ele>1267.2</ele>
        <time>2021-02-20T06:34:44Z</time>
      </trkpt>
      <trkpt lat="45.18488" lon="5.90825">
        <ele>1267.5</ele>
        <time>2021-02-20T06:34:45Z</time>
      </trkpt>
      <trkpt lat="45.18489" lon="5.90826">
        <ele>1267.7</ele>
        <time>2021-02-20T06:34:46Z</time>
      </trkpt>
      <trkpt lat="45.18489" lon="5.90827">
        <ele>1267.8</ele>
        <time>2021-02-20T06:34:47Z</time>
      </trkpt>
      <trkpt lat="45.1849" lon="5.90827">
        <ele>1268</ele>
        <time>2021-02-20T06:34:48Z</time>
      </trkpt>
      <trkpt lat="45.18491" lon="5.90827">
        <ele>1268.2</ele>
        <time>2021-02-20T06:34:49Z</time>
      </trkpt>
      <trkpt lat="45.18492" lon="5.90828">
        <ele>1268.4</ele>
        <time>2021-02-20T06:34:50Z</time>
      </trkpt>
      <trkpt lat="45.18493" lon="5.90828">
        <ele>1268.5</ele>
        <time>2021-02-20T06:34:51Z</time>
      </trkpt>
      <trkpt lat="45.18494" lon="5.90829">
        <ele>1268.7</ele>
        <time>2021-02-20T06:34:52Z</time>
      </trkpt>
      <trkpt lat="45.18495" lon="5.9083">
        <ele>1268.9</ele>
        <time>2021-02-20T06:34:53Z</time>
      </trkpt>
      <trkpt lat="45.18495" lon="5.90831">
        <ele>1269.1</ele>
        <time>2021-02-20T06:34:54Z</time>
      </trkpt>
      <trkpt lat="45.18496" lon="5.90831">
        <ele>1269.2</ele>
        <time>2021-02-20T06:34:55Z</time>
      </trkpt>
      <trkpt lat="45.18497" lon="5.90832">
        <ele>1269.4</ele>
        <time>2021-02-20T06:34:56Z</time>
      </trkpt>
      <trkpt lat="45.18498" lon="5.90834">
        <ele>1269.7</ele>
        <time>2021-02-20T06:34:57Z</time>
      </trkpt>
      <trkpt lat="45.18499" lon="5.90835">
        <ele>1269.9</ele>
        <time>2021-02-20T06:34:58Z</time>
      </trkpt>
      <trkpt lat="45.18499" lon="5.90836">
        <ele>1270</ele>
        <time>2021-02-20T06:34:59Z</time>
      </trkpt>
      <trkpt lat="45.18501" lon="5.90838">
        <ele>1270.4</ele>
        <time>2021-02-20T06:35:00Z</time>
      </trkpt>
      <trkpt lat="45.18501" lon="5.90839">
        <ele>1270.6</ele>
        <time>2021-02-20T06:35:01Z</time>
      </trkpt>
      <trkpt lat="45.18502" lon="5.9084">
        <ele>1270.7</ele>
        <time>2021-02-20T06:35:02Z</time>
      </trkpt>
      <trkpt lat="45.18503" lon="5.90842">
        <ele>1271.1</ele>
        <time>2021-02-20T06:35:03Z</time>
      </trkpt>
      <trkpt lat="45.18504" lon="5.90843">
        <ele>1271.2</ele>
        <time>2021-02-20T06:35:04Z</time>
      </trkpt>
      <trkpt lat="45.18505" lon="5.90844">
        <ele>1271.4</ele>
        <time>2021-02-20T06:35:05Z</time>
      </trkpt>
      <trkpt lat="45.18505" lon="5.90846">
        <ele>1271.6</ele>
        <time>2021-02-20T06:35:06Z</time>
      </trkpt>
      <trkpt lat="45.18505" lon="5.90847">
        <ele>1271.8</ele>
        <time>2021-02-20T06:35:07Z</time>
      </trkpt>
      <trkpt lat="45.18506" lon="5.90847">
        <ele>1271.9</ele>
        <time>2021-02-20T06:35:08Z</time>
      </trkpt>
      <trkpt lat="45.18507" lon="5.90848">
        <ele>1272.1</ele>
        <time>2021-02-20T06:35:09Z</time>
      </trkpt>
      <trkpt lat="45.18508" lon="5.90849">
        <ele>1272.3</ele>
        <time>2021-02-20T06:35:10Z</time>
      </trkpt>
      <trkpt lat="45.18509" lon="5.90849">
        <ele>1272.5</ele>
        <time>2021-02-20T06:35:11Z</time>
      </trkpt>
      <trkpt lat="45.1851" lon="5.90849">
        <ele>1272.7</ele>
        <time>2021-02-20T06:35:12Z</time>
      </trkpt>
      <trkpt lat="45.18511" lon="5.90849">
        <ele>1273</ele>
        <time>2021-02-20T06:35:13Z</time>
      </trkpt>
      <trkpt lat="45.18512" lon="5.9085">
        <ele>1273.2</ele>
        <time>2021-02-20T06:35:14Z</time>
      </trkpt>
      <trkpt lat="45.18513" lon="5.90851">
        <ele>1273.5</ele>
        <time>2021-02-20T06:35:15Z</time>
      </trkpt>
      <trkpt lat="45.18514" lon="5.90852">
        <ele>1273.7</ele>
        <time>2021-02-20T06:35:16Z</time>
      </trkpt>
      <trkpt lat="45.18515" lon="5.90853">
        <ele>1273.9</ele>
        <time>2021-02-20T06:35:17Z</time>
      </trkpt>
      <trkpt lat="45.18517" lon="5.90853">
        <ele>1274.2</ele>
        <time>2021-02-20T06:35:18Z</time>
      </trkpt>
      <trkpt lat="45.18518" lon="5.90854">
        <ele>1274.4</ele>
        <time>2021-02-20T06:35:19Z</time>
      </trkpt>
      <trkpt lat="45.18519" lon="5.90854">
        <ele>1274.6</ele>
        <time>2021-02-20T06:35:20Z</time>
      </trkpt>
      <trkpt lat="45.1852" lon="5.90855">
        <ele>1274.9</ele>
        <time>2021-02-20T06:35:21Z</time>
      </trkpt>
      <trkpt lat="45.18521" lon="5.90855">
        <ele>1275.1</ele>
        <time>2021-02-20T06:35:22Z</time>
      </trkpt>
      <trkpt lat="45.18522" lon="5.90855">
        <ele>1275.3</ele>
        <time>2021-02-20T06:35:23Z</time>
      </trkpt>
      <trkpt lat="45.18522" lon="5.90856">
        <ele>1275.5</ele>
        <time>2021-02-20T06:35:24Z</time>
      </trkpt>
      <trkpt lat="45.18523" lon="5.90857">
        <ele>1275.7</ele>
        <time>2021-02-20T06:35:25Z</time>
      </trkpt>
      <trkpt lat="45.18524" lon="5.90857">
        <ele>1275.8</ele>
        <time>2021-02-20T06:35:26Z</time>
      </trkpt>
      <trkpt lat="45.18525" lon="5.90858">
        <ele>1276.1</ele>
        <time>2021-02-20T06:35:27Z</time>
      </trkpt>
      <trkpt lat="45.18525" lon="5.90859">
        <ele>1276.2</ele>
        <time>2021-02-20T06:35:28Z</time>
      </trkpt>
      <trkpt lat="45.18526" lon="5.90861">
        <ele>1276.5</ele>
        <time>2021-02-20T06:35:29Z</time>
      </trkpt>
      <trkpt lat="45.18526" lon="5.90862">
        <ele>1276.7</ele>
        <time>2021-02-20T06:35:30Z</time>
      </trkpt>
      <trkpt lat="45.18527" lon="5.90863">
        <ele>1277</ele>
        <time>2021-02-20T06:35:31Z</time>
      </trkpt>
      <trkpt lat="45.18527" lon="5.90864">
        <ele>1277.1</ele>
        <time>2021-02-20T06:35:32Z</time>
      </trkpt>
      <trkpt lat="45.18528" lon="5.90865">
        <ele>1277.3</ele>
        <time>2021-02-20T06:35:33Z</time>
      </trkpt>
      <trkpt lat="45.18528" lon="5.90866">
        <ele>1277.4</ele>
        <time>2021-02-20T06:35:34Z</time>
      </trkpt>
      <trkpt lat="45.18529" lon="5.90867">
        <ele>1277.6</ele>
        <time>2021-02-20T06:35:35Z</time>
      </trkpt>
      <trkpt lat="45.18529" lon="5.90868">
        <ele>1277.7</ele>
        <time>2021-02-20T06:35:36Z</time>
      </trkpt>
      <trkpt lat="45.18529" lon="5.90869">
        <ele>1277.9</ele>
        <time>2021-02-20T06:35:37Z</time>
      </trkpt>
      <trkpt lat="45.1853" lon="5.9087">
        <ele>1278</ele>
        <time>2021-02-20T06:35:38Z</time>
      </trkpt>
      <trkpt lat="45.1853" lon="5.9087">
        <ele>1278.1</ele>
        <time>2021-02-20T06:35:39Z</time>
      </trkpt>
      <trkpt lat="45.1853" lon="5.90871">
        <ele>1278.2</ele>
        <time>2021-02-20T06:35:40Z</time>
      </trkpt>
      <trkpt lat="45.1853" lon="5.90871">
        <ele>1278.3</ele>
        <time>2021-02-20T06:35:41Z</time>
      </trkpt>
      <trkpt lat="45.18531" lon="5.90871">
        <ele>1278.3</ele>
        <time>2021-02-20T06:35:42Z</time>
      </trkpt>
      <trkpt lat="45.18531" lon="5.90871">
        <ele>1278.4</ele>
        <time>2021-02-20T06:35:43Z</time>
      </trkpt>
      <trkpt lat="45.18532" lon="5.90872">
        <ele>1278.6</ele>
        <time>2021-02-20T06:35:44Z</time>
      </trkpt>
      <trkpt lat="45.18532" lon="5.90873">
        <ele>1278.7</ele>
        <time>2021-02-20T06:35:45Z</time>
      </trkpt>
      <trkpt lat="45.18532" lon="5.90874">
        <ele>1278.9</ele>
        <time>2021-02-20T06:35:46Z</time>
      </trkpt>
      <trkpt lat="45.18532" lon="5.90874">
        <ele>1279</ele>
        <time>2021-02-20T06:35:47Z</time>
      </trkpt>
      <trkpt lat="45.18532" lon="5.90875">
        <ele>1279.1</ele>
        <time>2021-02-20T06:35:48Z</time>
      </trkpt>
      <trkpt lat="45.18533" lon="5.90876">
        <ele>1279.3</ele>
        <time>2021-02-20T06:35:49Z</time>
      </trkpt>
      <trkpt lat="45.18534" lon="5.90877">
        <ele>1279.4</ele>
        <time>2021-02-20T06:35:50Z</time>
      </trkpt>
      <trkpt lat="45.18534" lon="5.90878">
        <ele>1279.6</ele>
        <time>2021-02-20T06:35:51Z</time>
      </trkpt>
      <trkpt lat="45.18535" lon="5.90879">
        <ele>1279.8</ele>
        <time>2021-02-20T06:35:52Z</time>
      </trkpt>
      <trkpt lat="45.18535" lon="5.90879">
        <ele>1280</ele>
        <time>2021-02-20T06:35:53Z</time>
      </trkpt>
      <trkpt lat="45.18536" lon="5.9088">
        <ele>1280.1</ele>
        <time>2021-02-20T06:35:54Z</time>
      </trkpt>
      <trkpt lat="45.18537" lon="5.90881">
        <ele>1280.3</ele>
        <time>2021-02-20T06:35:55Z</time>
      </trkpt>
      <trkpt lat="45.18537" lon="5.90882">
        <ele>1280.5</ele>
        <time>2021-02-20T06:35:56Z</time>
      </trkpt>
      <trkpt lat="45.18538" lon="5.90882">
        <ele>1280.6</ele>
        <time>2021-02-20T06:35:57Z</time>
      </trkpt>
      <trkpt lat="45.18538" lon="5.90883">
        <ele>1280.7</ele>
        <time>2021-02-20T06:35:58Z</time>
      </trkpt>
      <trkpt lat="45.18538" lon="5.90883">
        <ele>1280.8</ele>
        <time>2021-02-20T06:35:59Z</time>
      </trkpt>
      <trkpt lat="45.18539" lon="5.90884">
        <ele>1281.1</ele>
        <time>2021-02-20T06:36:00Z</time>
      </trkpt>
      <trkpt lat="45.1854" lon="5.90885">
        <ele>1281.3</ele>
        <time>2021-02-20T06:36:01Z</time>
      </trkpt>
      <trkpt lat="45.18541" lon="5.90886">
        <ele>1281.5</ele>
        <time>2021-02-20T06:36:02Z</time>
      </trkpt>
      <trkpt lat="45.18541" lon="5.90886">
        <ele>1281.6</ele>
        <time>2021-02-20T06:36:03Z</time>
      </trkpt>
      <trkpt lat="45.18542" lon="5.90887">
        <ele>1281.9</ele>
        <time>2021-02-20T06:36:04Z</time>
      </trkpt>
      <trkpt lat="45.18543" lon="5.90888">
        <ele>1282.1</ele>
        <time>2021-02-20T06:36:05Z</time>
      </trkpt>
      <trkpt lat="45.18544" lon="5.90888">
        <ele>1282.4</ele>
        <time>2021-02-20T06:36:06Z</time>
      </trkpt>
      <trkpt lat="45.18546" lon="5.90888">
        <ele>1282.7</ele>
        <time>2021-02-20T06:36:07Z</time>
      </trkpt>
      <trkpt lat="45.18547" lon="5.90888">
        <ele>1282.9</ele>
        <time>2021-02-20T06:36:08Z</time>
      </trkpt>
      <trkpt lat="45.18548" lon="5.90887">
        <ele>1283.1</ele>
        <time>2021-02-20T06:36:09Z</time>
      </trkpt>
      <trkpt lat="45.18548" lon="5.90888">
        <ele>1283.3</ele>
        <time>2021-02-20T06:36:10Z</time>
      </trkpt>
      <trkpt lat="45.18549" lon="5.90888">
        <ele>1283.5</ele>
        <time>2021-02-20T06:36:11Z</time>
      </trkpt>
      <trkpt lat="45.1855" lon="5.90888">
        <ele>1283.7</ele>
        <time>2021-02-20T06:36:12Z</time>
      </trkpt>
      <trkpt lat="45.18551" lon="5.90888">
        <ele>1284</ele>
        <time>2021-02-20T06:36:13Z</time>
      </trkpt>
      <trkpt lat="45.18552" lon="5.90889">
        <ele>1284.3</ele>
        <time>2021-02-20T06:36:14Z</time>
      </trkpt>
      <trkpt lat="45.18553" lon="5.90889">
        <ele>1284.5</ele>
        <time>2021-02-20T06:36:15Z</time>
      </trkpt>
      <trkpt lat="45.18555" lon="5.90889">
        <ele>1284.7</ele>
        <time>2021-02-20T06:36:16Z</time>
      </trkpt>
      <trkpt lat="45.18555" lon="5.90889">
        <ele>1284.9</ele>
        <time>2021-02-20T06:36:17Z</time>
      </trkpt>
      <trkpt lat="45.18556" lon="5.9089">
        <ele>1285</ele>
        <time>2021-02-20T06:36:18Z</time>
      </trkpt>
      <trkpt lat="45.18557" lon="5.9089">
        <ele>1285.2</ele>
        <time>2021-02-20T06:36:19Z</time>
      </trkpt>
      <trkpt lat="45.18558" lon="5.9089">
        <ele>1285.4</ele>
        <time>2021-02-20T06:36:20Z</time>
      </trkpt>
      <trkpt lat="45.18559" lon="5.9089">
        <ele>1285.7</ele>
        <time>2021-02-20T06:36:21Z</time>
      </trkpt>
      <trkpt lat="45.1856" lon="5.9089">
        <ele>1285.9</ele>
        <time>2021-02-20T06:36:22Z</time>
      </trkpt>
      <trkpt lat="45.18561" lon="5.9089">
        <ele>1286.1</ele>
        <time>2021-02-20T06:36:23Z</time>
      </trkpt>
      <trkpt lat="45.18562" lon="5.9089">
        <ele>1286.3</ele>
        <time>2021-02-20T06:36:24Z</time>
      </trkpt>
      <trkpt lat="45.18564" lon="5.90891">
        <ele>1286.6</ele>
        <time>2021-02-20T06:36:25Z</time>
      </trkpt>
      <trkpt lat="45.18564" lon="5.90891">
        <ele>1286.7</ele>
        <time>2021-02-20T06:36:26Z</time>
      </trkpt>
      <trkpt lat="45.18565" lon="5.90891">
        <ele>1286.8</ele>
        <time>2021-02-20T06:36:27Z</time>
      </trkpt>
      <trkpt lat="45.18565" lon="5.90892">
        <ele>1286.9</ele>
        <time>2021-02-20T06:36:28Z</time>
      </trkpt>
      <trkpt lat="45.18566" lon="5.90893">
        <ele>1287.1</ele>
        <time>2021-02-20T06:36:29Z</time>
      </trkpt>
      <trkpt lat="45.18566" lon="5.90894">
        <ele>1287.3</ele>
        <time>2021-02-20T06:36:30Z</time>
      </trkpt>
      <trkpt lat="45.18567" lon="5.90895">
        <ele>1287.5</ele>
        <time>2021-02-20T06:36:31Z</time>
      </trkpt>
      <trkpt lat="45.18567" lon="5.90896">
        <ele>1287.6</ele>
        <time>2021-02-20T06:36:32Z</time>
      </trkpt>
      <trkpt lat="45.18568" lon="5.90897">
        <ele>1287.8</ele>
        <time>2021-02-20T06:36:33Z</time>
      </trkpt>
      <trkpt lat="45.18568" lon="5.90898">
        <ele>1287.9</ele>
        <time>2021-02-20T06:36:34Z</time>
      </trkpt>
      <trkpt lat="45.18568" lon="5.90898">
        <ele>1288</ele>
        <time>2021-02-20T06:36:35Z</time>
      </trkpt>
      <trkpt lat="45.18569" lon="5.90899">
        <ele>1288.1</ele>
        <time>2021-02-20T06:36:36Z</time>
      </trkpt>
      <trkpt lat="45.18569" lon="5.909">
        <ele>1288.3</ele>
        <time>2021-02-20T06:36:37Z</time>
      </trkpt>
      <trkpt lat="45.18569" lon="5.90902">
        <ele>1288.4</ele>
        <time>2021-02-20T06:36:38Z</time>
      </trkpt>
      <trkpt lat="45.18569" lon="5.90903">
        <ele>1288.6</ele>
        <time>2021-02-20T06:36:39Z</time>
      </trkpt>
      <trkpt lat="45.18569" lon="5.90904">
        <ele>1288.8</ele>
        <time>2021-02-20T06:36:40Z</time>
      </trkpt>
      <trkpt lat="45.1857" lon="5.90905">
        <ele>1288.9</ele>
        <time>2021-02-20T06:36:41Z</time>
      </trkpt>
      <trkpt lat="45.1857" lon="5.90906">
        <ele>1289</ele>
        <time>2021-02-20T06:36:42Z</time>
      </trkpt>
      <trkpt lat="45.1857" lon="5.90906">
        <ele>1289.1</ele>
        <time>2021-02-20T06:36:43Z</time>
      </trkpt>
      <trkpt lat="45.1857" lon="5.90907">
        <ele>1289.2</ele>
        <time>2021-02-20T06:36:44Z</time>
      </trkpt>
      <trkpt lat="45.18571" lon="5.90908">
        <ele>1289.4</ele>
        <time>2021-02-20T06:36:45Z</time>
      </trkpt>
      <trkpt lat="45.18571" lon="5.90909">
        <ele>1289.4</ele>
        <time>2021-02-20T06:36:46Z</time>
      </trkpt>
      <trkpt lat="45.18571" lon="5.90909">
        <ele>1289.5</ele>
        <time>2021-02-20T06:36:47Z</time>
      </trkpt>
      <trkpt lat="45.18571" lon="5.90911">
        <ele>1289.7</ele>
        <time>2021-02-20T06:36:48Z</time>
      </trkpt>
      <trkpt lat="45.18571" lon="5.90912">
        <ele>1289.8</ele>
        <time>2021-02-20T06:36:49Z</time>
      </trkpt>
      <trkpt lat="45.18571" lon="5.90912">
        <ele>1289.9</ele>
        <time>2021-02-20T06:36:50Z</time>
      </trkpt>
      <trkpt lat="45.18571" lon="5.90913">
        <ele>1290</ele>
        <time>2021-02-20T06:36:51Z</time>
      </trkpt>
      <trkpt lat="45.18571" lon="5.90914">
        <ele>1290.1</ele>
        <time>2021-02-20T06:36:52Z</time>
      </trkpt>
      <trkpt lat="45.18571" lon="5.90914">
        <ele>1290.2</ele>
        <time>2021-02-20T06:36:53Z</time>
      </trkpt>
      <trkpt lat="45.18572" lon="5.90915">
        <ele>1290.3</ele>
        <time>2021-02-20T06:36:54Z</time>
      </trkpt>
      <trkpt lat="45.18572" lon="5.90915">
        <ele>1290.4</ele>
        <time>2021-02-20T06:36:55Z</time>
      </trkpt>
      <trkpt lat="45.18573" lon="5.90916">
        <ele>1290.5</ele>
        <time>2021-02-20T06:36:56Z</time>
      </trkpt>
      <trkpt lat="45.18573" lon="5.90916">
        <ele>1290.6</ele>
        <time>2021-02-20T06:36:57Z</time>
      </trkpt>
      <trkpt lat="45.18573" lon="5.90918">
        <ele>1290.7</ele>
        <time>2021-02-20T06:36:58Z</time>
      </trkpt>
      <trkpt lat="45.18573" lon="5.90919">
        <ele>1290.9</ele>
        <time>2021-02-20T06:36:59Z</time>
      </trkpt>
      <trkpt lat="45.18573" lon="5.90919">
        <ele>1291</ele>
        <time>2021-02-20T06:37:00Z</time>
      </trkpt>
      <trkpt lat="45.18573" lon="5.90921">
        <ele>1291.2</ele>
        <time>2021-02-20T06:37:01Z</time>
      </trkpt>
      <trkpt lat="45.18574" lon="5.90922">
        <ele>1291.4</ele>
        <time>2021-02-20T06:37:02Z</time>
      </trkpt>
      <trkpt lat="45.18574" lon="5.90923">
        <ele>1291.5</ele>
        <time>2021-02-20T06:37:03Z</time>
      </trkpt>
      <trkpt lat="45.18575" lon="5.90924">
        <ele>1291.7</ele>
        <time>2021-02-20T06:37:04Z</time>
      </trkpt>
      <trkpt lat="45.18576" lon="5.90924">
        <ele>1291.9</ele>
        <time>2021-02-20T06:37:05Z</time>
      </trkpt>
      <trkpt lat="45.18577" lon="5.90925">
        <ele>1292.1</ele>
        <time>2021-02-20T06:37:06Z</time>
      </trkpt>
      <trkpt lat="45.18578" lon="5.90925">
        <ele>1292.3</ele>
        <time>2021-02-20T06:37:07Z</time>
      </trkpt>
      <trkpt lat="45.18578" lon="5.90926">
        <ele>1292.5</ele>
        <time>2021-02-20T06:37:08Z</time>
      </trkpt>
      <trkpt lat="45.18579" lon="5.90927">
        <ele>1292.6</ele>
        <time>2021-02-20T06:37:09Z</time>
      </trkpt>
      <trkpt lat="45.18579" lon="5.90928">
        <ele>1292.8</ele>
        <time>2021-02-20T06:37:10Z</time>
      </trkpt>
      <trkpt lat="45.18579" lon="5.90929">
        <ele>1293</ele>
        <time>2021-02-20T06:37:11Z</time>
      </trkpt>
      <trkpt lat="45.1858" lon="5.9093">
        <ele>1293.1</ele>
        <time>2021-02-20T06:37:12Z</time>
      </trkpt>
      <trkpt lat="45.1858" lon="5.90931">
        <ele>1293.3</ele>
        <time>2021-02-20T06:37:13Z</time>
      </trkpt>
      <trkpt lat="45.1858" lon="5.90932">
        <ele>1293.5</ele>
        <time>2021-02-20T06:37:14Z</time>
      </trkpt>
      <trkpt lat="45.18581" lon="5.90933">
        <ele>1293.7</ele>
        <time>2021-02-20T06:37:15Z</time>
      </trkpt>
      <trkpt lat="45.18582" lon="5.90934">
        <ele>1293.8</ele>
        <time>2021-02-20T06:37:16Z</time>
      </trkpt>
      <trkpt lat="45.18582" lon="5.90935">
        <ele>1294</ele>
        <time>2021-02-20T06:37:17Z</time>
      </trkpt>
      <trkpt lat="45.18583" lon="5.90935">
        <ele>1294.1</ele>
        <time>2021-02-20T06:37:18Z</time>
      </trkpt>
      <trkpt lat="45.18583" lon="5.90936">
        <ele>1294.2</ele>
        <time>2021-02-20T06:37:19Z</time>
      </trkpt>
      <trkpt lat="45.18583" lon="5.90937">
        <ele>1294.3</ele>
        <time>2021-02-20T06:37:20Z</time>
      </trkpt>
      <trkpt lat="45.18583" lon="5.90939">
        <ele>1294.6</ele>
        <time>2021-02-20T06:37:21Z</time>
      </trkpt>
      <trkpt lat="45.18583" lon="5.9094">
        <ele>1294.8</ele>
        <time>2021-02-20T06:37:22Z</time>
      </trkpt>
      <trkpt lat="45.18584" lon="5.90941">
        <ele>1294.9</ele>
        <time>2021-02-20T06:37:23Z</time>
      </trkpt>
      <trkpt lat="45.18584" lon="5.90942">
        <ele>1295.1</ele>
        <time>2021-02-20T06:37:24Z</time>
      </trkpt>
      <trkpt lat="45.18585" lon="5.90942">
        <ele>1295.3</ele>
        <time>2021-02-20T06:37:25Z</time>
      </trkpt>
      <trkpt lat="45.18586" lon="5.90943">
        <ele>1295.5</ele>
        <time>2021-02-20T06:37:26Z</time>
      </trkpt>
      <trkpt lat="45.18586" lon="5.90944">
        <ele>1295.7</ele>
        <time>2021-02-20T06:37:27Z</time>
      </trkpt>
      <trkpt lat="45.18587" lon="5.90944">
        <ele>1295.8</ele>
        <time>2021-02-20T06:37:28Z</time>
      </trkpt>
      <trkpt lat="45.18587" lon="5.90946">
        <ele>1296.1</ele>
        <time>2021-02-20T06:37:29Z</time>
      </trkpt>
      <trkpt lat="45.18588" lon="5.90948">
        <ele>1296.4</ele>
        <time>2021-02-20T06:37:30Z</time>
      </trkpt>
      <trkpt lat="45.18589" lon="5.90949">
        <ele>1296.6</ele>
        <time>2021-02-20T06:37:31Z</time>
      </trkpt>
      <trkpt lat="45.18589" lon="5.9095">
        <ele>1296.8</ele>
        <time>2021-02-20T06:37:32Z</time>
      </trkpt>
      <trkpt lat="45.1859" lon="5.90951">
        <ele>1297</ele>
        <time>2021-02-20T06:37:33Z</time>
      </trkpt>
      <trkpt lat="45.18591" lon="5.90952">
        <ele>1297.2</ele>
        <time>2021-02-20T06:37:34Z</time>
      </trkpt>
      <trkpt lat="45.18592" lon="5.90954">
        <ele>1297.5</ele>
        <time>2021-02-20T06:37:35Z</time>
      </trkpt>
      <trkpt lat="45.18592" lon="5.90955">
        <ele>1297.7</ele>
        <time>2021-02-20T06:37:36Z</time>
      </trkpt>
      <trkpt lat="45.18593" lon="5.90956">
        <ele>1298</ele>
        <time>2021-02-20T06:37:37Z</time>
      </trkpt>
      <trkpt lat="45.18594" lon="5.90957">
        <ele>1298.2</ele>
        <time>2021-02-20T06:37:38Z</time>
      </trkpt>
      <trkpt lat="45.18594" lon="5.90958">
        <ele>1298.3</ele>
        <time>2021-02-20T06:37:39Z</time>
      </trkpt>
      <trkpt lat="45.18595" lon="5.90959">
        <ele>1298.5</ele>
        <time>2021-02-20T06:37:40Z</time>
      </trkpt>
      <trkpt lat="45.18595" lon="5.90959">
        <ele>1298.7</ele>
        <time>2021-02-20T06:37:41Z</time>
      </trkpt>
      <trkpt lat="45.18596" lon="5.9096">
        <ele>1298.8</ele>
        <time>2021-02-20T06:37:42Z</time>
      </trkpt>
      <trkpt lat="45.18596" lon="5.90961">
        <ele>1298.9</ele>
        <time>2021-02-20T06:37:43Z</time>
      </trkpt>
      <trkpt lat="45.18597" lon="5.90962">
        <ele>1299.2</ele>
        <time>2021-02-20T06:37:44Z</time>
      </trkpt>
      <trkpt lat="45.18598" lon="5.90963">
        <ele>1299.3</ele>
        <time>2021-02-20T06:37:45Z</time>
      </trkpt>
      <trkpt lat="45.18598" lon="5.90963">
        <ele>1299.5</ele>
        <time>2021-02-20T06:37:46Z</time>
      </trkpt>
      <trkpt lat="45.18599" lon="5.90964">
        <ele>1299.6</ele>
        <time>2021-02-20T06:37:47Z</time>
      </trkpt>
      <trkpt lat="45.18599" lon="5.90965">
        <ele>1299.8</ele>
        <time>2021-02-20T06:37:48Z</time>
      </trkpt>
      <trkpt lat="45.18599" lon="5.90966">
        <ele>1299.9</ele>
        <time>2021-02-20T06:37:49Z</time>
      </trkpt>
      <trkpt lat="45.186" lon="5.90967">
        <ele>1300.1</ele>
        <time>2021-02-20T06:37:50Z</time>
      </trkpt>
      <trkpt lat="45.186" lon="5.90967">
        <ele>1300.2</ele>
        <time>2021-02-20T06:37:51Z</time>
      </trkpt>
      <trkpt lat="45.18601" lon="5.90968">
        <ele>1300.3</ele>
        <time>2021-02-20T06:37:52Z</time>
      </trkpt>
      <trkpt lat="45.186" lon="5.90969">
        <ele>1300.5</ele>
        <time>2021-02-20T06:37:53Z</time>
      </trkpt>
      <trkpt lat="45.186" lon="5.90971">
        <ele>1300.7</ele>
        <time>2021-02-20T06:37:54Z</time>
      </trkpt>
      <trkpt lat="45.18601" lon="5.90972">
        <ele>1300.9</ele>
        <time>2021-02-20T06:37:55Z</time>
      </trkpt>
      <trkpt lat="45.18601" lon="5.90973">
        <ele>1301</ele>
        <time>2021-02-20T06:37:56Z</time>
      </trkpt>
      <trkpt lat="45.18602" lon="5.90973">
        <ele>1301.2</ele>
        <time>2021-02-20T06:37:57Z</time>
      </trkpt>
      <trkpt lat="45.18602" lon="5.90974">
        <ele>1301.3</ele>
        <time>2021-02-20T06:37:58Z</time>
      </trkpt>
      <trkpt lat="45.18603" lon="5.90974">
        <ele>1301.5</ele>
        <time>2021-02-20T06:37:59Z</time>
      </trkpt>
      <trkpt lat="45.18604" lon="5.90975">
        <ele>1301.6</ele>
        <time>2021-02-20T06:38:00Z</time>
      </trkpt>
      <trkpt lat="45.18604" lon="5.90976">
        <ele>1301.8</ele>
        <time>2021-02-20T06:38:01Z</time>
      </trkpt>
      <trkpt lat="45.18605" lon="5.90977">
        <ele>1301.9</ele>
        <time>2021-02-20T06:38:02Z</time>
      </trkpt>
      <trkpt lat="45.18605" lon="5.90978">
        <ele>1302.1</ele>
        <time>2021-02-20T06:38:03Z</time>
      </trkpt>
      <trkpt lat="45.18606" lon="5.90978">
        <ele>1302.3</ele>
        <time>2021-02-20T06:38:04Z</time>
      </trkpt>
      <trkpt lat="45.18607" lon="5.9098">
        <ele>1302.5</ele>
        <time>2021-02-20T06:38:05Z</time>
      </trkpt>
      <trkpt lat="45.18607" lon="5.9098">
        <ele>1302.7</ele>
        <time>2021-02-20T06:38:06Z</time>
      </trkpt>
      <trkpt lat="45.18608" lon="5.90981">
        <ele>1302.8</ele>
        <time>2021-02-20T06:38:07Z</time>
      </trkpt>
      <trkpt lat="45.18608" lon="5.90981">
        <ele>1302.8</ele>
        <time>2021-02-20T06:38:08Z</time>
      </trkpt>
      <trkpt lat="45.18609" lon="5.90982">
        <ele>1303</ele>
        <time>2021-02-20T06:38:09Z</time>
      </trkpt>
      <trkpt lat="45.18609" lon="5.90983">
        <ele>1303.1</ele>
        <time>2021-02-20T06:38:10Z</time>
      </trkpt>
      <trkpt lat="45.18609" lon="5.90985">
        <ele>1303.4</ele>
        <time>2021-02-20T06:38:11Z</time>
      </trkpt>
      <trkpt lat="45.18609" lon="5.90986">
        <ele>1303.6</ele>
        <time>2021-02-20T06:38:12Z</time>
      </trkpt>
      <trkpt lat="45.1861" lon="5.90988">
        <ele>1303.8</ele>
        <time>2021-02-20T06:38:13Z</time>
      </trkpt>
      <trkpt lat="45.1861" lon="5.90989">
        <ele>1304</ele>
        <time>2021-02-20T06:38:14Z</time>
      </trkpt>
      <trkpt lat="45.18611" lon="5.90989">
        <ele>1304.1</ele>
        <time>2021-02-20T06:38:15Z</time>
      </trkpt>
      <trkpt lat="45.18612" lon="5.9099">
        <ele>1304.3</ele>
        <time>2021-02-20T06:38:16Z</time>
      </trkpt>
      <trkpt lat="45.18612" lon="5.90991">
        <ele>1304.4</ele>
        <time>2021-02-20T06:38:17Z</time>
      </trkpt>
      <trkpt lat="45.18613" lon="5.90992">
        <ele>1304.7</ele>
        <time>2021-02-20T06:38:18Z</time>
      </trkpt>
      <trkpt lat="45.18613" lon="5.90993">
        <ele>1304.9</ele>
        <time>2021-02-20T06:38:19Z</time>
      </trkpt>
      <trkpt lat="45.18614" lon="5.90994">
        <ele>1305</ele>
        <time>2021-02-20T06:38:20Z</time>
      </trkpt>
      <trkpt lat="45.18614" lon="5.90995">
        <ele>1305.1</ele>
        <time>2021-02-20T06:38:21Z</time>
      </trkpt>
      <trkpt lat="45.18615" lon="5.90996">
        <ele>1305.4</ele>
        <time>2021-02-20T06:38:22Z</time>
      </trkpt>
      <trkpt lat="45.18617" lon="5.90997">
        <ele>1305.7</ele>
        <time>2021-02-20T06:38:23Z</time>
      </trkpt>
      <trkpt lat="45.18618" lon="5.90999">
        <ele>1306.1</ele>
        <time>2021-02-20T06:38:24Z</time>
      </trkpt>
      <trkpt lat="45.18619" lon="5.91">
        <ele>1306.3</ele>
        <time>2021-02-20T06:38:25Z</time>
      </trkpt>
      <trkpt lat="45.18619" lon="5.91001">
        <ele>1306.4</ele>
        <time>2021-02-20T06:38:26Z</time>
      </trkpt>
      <trkpt lat="45.1862" lon="5.91002">
        <ele>1306.6</ele>
        <time>2021-02-20T06:38:27Z</time>
      </trkpt>
      <trkpt lat="45.1862" lon="5.91003">
        <ele>1306.8</ele>
        <time>2021-02-20T06:38:28Z</time>
      </trkpt>
      <trkpt lat="45.18621" lon="5.91003">
        <ele>1306.9</ele>
        <time>2021-02-20T06:38:29Z</time>
      </trkpt>
      <trkpt lat="45.18621" lon="5.91003">
        <ele>1307</ele>
        <time>2021-02-20T06:38:30Z</time>
      </trkpt>
      <trkpt lat="45.18622" lon="5.91004">
        <ele>1307.2</ele>
        <time>2021-02-20T06:38:31Z</time>
      </trkpt>
      <trkpt lat="45.18623" lon="5.91004">
        <ele>1307.3</ele>
        <time>2021-02-20T06:38:32Z</time>
      </trkpt>
      <trkpt lat="45.18624" lon="5.91004">
        <ele>1307.5</ele>
        <time>2021-02-20T06:38:33Z</time>
      </trkpt>
      <trkpt lat="45.18624" lon="5.91005">
        <ele>1307.6</ele>
        <time>2021-02-20T06:38:34Z</time>
      </trkpt>
      <trkpt lat="45.18625" lon="5.91005">
        <ele>1307.7</ele>
        <time>2021-02-20T06:38:35Z</time>
      </trkpt>
      <trkpt lat="45.18625" lon="5.91006">
        <ele>1307.9</ele>
        <time>2021-02-20T06:38:36Z</time>
      </trkpt>
      <trkpt lat="45.18626" lon="5.91007">
        <ele>1308</ele>
        <time>2021-02-20T06:38:37Z</time>
      </trkpt>
      <trkpt lat="45.18626" lon="5.91008">
        <ele>1308.2</ele>
        <time>2021-02-20T06:38:38Z</time>
      </trkpt>
      <trkpt lat="45.18626" lon="5.91009">
        <ele>1308.3</ele>
        <time>2021-02-20T06:38:39Z</time>
      </trkpt>
      <trkpt lat="45.18626" lon="5.9101">
        <ele>1308.5</ele>
        <time>2021-02-20T06:38:40Z</time>
      </trkpt>
      <trkpt lat="45.18626" lon="5.9101">
        <ele>1308.5</ele>
        <time>2021-02-20T06:38:41Z</time>
      </trkpt>
      <trkpt lat="45.18626" lon="5.91012">
        <ele>1308.7</ele>
        <time>2021-02-20T06:38:42Z</time>
      </trkpt>
      <trkpt lat="45.18626" lon="5.91013">
        <ele>1308.8</ele>
        <time>2021-02-20T06:38:43Z</time>
      </trkpt>
      <trkpt lat="45.18626" lon="5.91013">
        <ele>1309</ele>
        <time>2021-02-20T06:38:44Z</time>
      </trkpt>
      <trkpt lat="45.18626" lon="5.91014">
        <ele>1309.1</ele>
        <time>2021-02-20T06:38:45Z</time>
      </trkpt>
      <trkpt lat="45.18627" lon="5.91015">
        <ele>1309.3</ele>
        <time>2021-02-20T06:38:46Z</time>
      </trkpt>
      <trkpt lat="45.18628" lon="5.91016">
        <ele>1309.5</ele>
        <time>2021-02-20T06:38:47Z</time>
      </trkpt>
      <trkpt lat="45.18628" lon="5.91017">
        <ele>1309.7</ele>
        <time>2021-02-20T06:38:48Z</time>
      </trkpt>
      <trkpt lat="45.18629" lon="5.91018">
        <ele>1309.9</ele>
        <time>2021-02-20T06:38:49Z</time>
      </trkpt>
      <trkpt lat="45.18629" lon="5.91019">
        <ele>1310</ele>
        <time>2021-02-20T06:38:50Z</time>
      </trkpt>
      <trkpt lat="45.1863" lon="5.9102">
        <ele>1310.2</ele>
        <time>2021-02-20T06:38:51Z</time>
      </trkpt>
      <trkpt lat="45.1863" lon="5.91021">
        <ele>1310.3</ele>
        <time>2021-02-20T06:38:52Z</time>
      </trkpt>
      <trkpt lat="45.1863" lon="5.91022">
        <ele>1310.5</ele>
        <time>2021-02-20T06:38:53Z</time>
      </trkpt>
      <trkpt lat="45.1863" lon="5.91023">
        <ele>1310.6</ele>
        <time>2021-02-20T06:38:54Z</time>
      </trkpt>
      <trkpt lat="45.18631" lon="5.91023">
        <ele>1310.7</ele>
        <time>2021-02-20T06:38:55Z</time>
      </trkpt>
      <trkpt lat="45.18632" lon="5.91024">
        <ele>1310.9</ele>
        <time>2021-02-20T06:38:56Z</time>
      </trkpt>
      <trkpt lat="45.18632" lon="5.91025">
        <ele>1311</ele>
        <time>2021-02-20T06:38:57Z</time>
      </trkpt>
      <trkpt lat="45.18633" lon="5.91026">
        <ele>1311.2</ele>
        <time>2021-02-20T06:38:58Z</time>
      </trkpt>
      <trkpt lat="45.18633" lon="5.91027">
        <ele>1311.4</ele>
        <time>2021-02-20T06:38:59Z</time>
      </trkpt>
      <trkpt lat="45.18633" lon="5.91028">
        <ele>1311.6</ele>
        <time>2021-02-20T06:39:00Z</time>
      </trkpt>
      <trkpt lat="45.18633" lon="5.91029">
        <ele>1311.7</ele>
        <time>2021-02-20T06:39:01Z</time>
      </trkpt>
      <trkpt lat="45.18634" lon="5.9103">
        <ele>1311.9</ele>
        <time>2021-02-20T06:39:02Z</time>
      </trkpt>
      <trkpt lat="45.18634" lon="5.9103">
        <ele>1312</ele>
        <time>2021-02-20T06:39:03Z</time>
      </trkpt>
      <trkpt lat="45.18635" lon="5.9103">
        <ele>1312.2</ele>
        <time>2021-02-20T06:39:04Z</time>
      </trkpt>
      <trkpt lat="45.18636" lon="5.91031">
        <ele>1312.4</ele>
        <time>2021-02-20T06:39:05Z</time>
      </trkpt>
      <trkpt lat="45.18636" lon="5.91032">
        <ele>1312.6</ele>
        <time>2021-02-20T06:39:06Z</time>
      </trkpt>
      <trkpt lat="45.18637" lon="5.91032">
        <ele>1312.7</ele>
        <time>2021-02-20T06:39:07Z</time>
      </trkpt>
      <trkpt lat="45.18637" lon="5.91033">
        <ele>1312.8</ele>
        <time>2021-02-20T06:39:08Z</time>
      </trkpt>
      <trkpt lat="45.18638" lon="5.91033">
        <ele>1313</ele>
        <time>2021-02-20T06:39:09Z</time>
      </trkpt>
      <trkpt lat="45.18639" lon="5.91034">
        <ele>1313.1</ele>
        <time>2021-02-20T06:39:10Z</time>
      </trkpt>
      <trkpt lat="45.18639" lon="5.91034">
        <ele>1313.3</ele>
        <time>2021-02-20T06:39:11Z</time>
      </trkpt>
      <trkpt lat="45.1864" lon="5.91035">
        <ele>1313.4</ele>
        <time>2021-02-20T06:39:12Z</time>
      </trkpt>
      <trkpt lat="45.1864" lon="5.91036">
        <ele>1313.6</ele>
        <time>2021-02-20T06:39:13Z</time>
      </trkpt>
      <trkpt lat="45.18641" lon="5.91037">
        <ele>1313.8</ele>
        <time>2021-02-20T06:39:14Z</time>
      </trkpt>
      <trkpt lat="45.18642" lon="5.91038">
        <ele>1314</ele>
        <time>2021-02-20T06:39:15Z</time>
      </trkpt>
      <trkpt lat="45.18642" lon="5.91038">
        <ele>1314.1</ele>
        <time>2021-02-20T06:39:16Z</time>
      </trkpt>
      <trkpt lat="45.18643" lon="5.91039">
        <ele>1314.3</ele>
        <time>2021-02-20T06:39:17Z</time>
      </trkpt>
      <trkpt lat="45.18644" lon="5.91039">
        <ele>1314.5</ele>
        <time>2021-02-20T06:39:18Z</time>
      </trkpt>
      <trkpt lat="45.18645" lon="5.91039">
        <ele>1314.6</ele>
        <time>2021-02-20T06:39:19Z</time>
      </trkpt>
      <trkpt lat="45.18645" lon="5.91039">
        <ele>1314.8</ele>
        <time>2021-02-20T06:39:20Z</time>
      </trkpt>
      <trkpt lat="45.18646" lon="5.9104">
        <ele>1314.9</ele>
        <time>2021-02-20T06:39:21Z</time>
      </trkpt>
      <trkpt lat="45.18646" lon="5.91041">
        <ele>1315</ele>
        <time>2021-02-20T06:39:22Z</time>
      </trkpt>
      <trkpt lat="45.18646" lon="5.91041">
        <ele>1315.1</ele>
        <time>2021-02-20T06:39:23Z</time>
      </trkpt>
      <trkpt lat="45.18646" lon="5.91042">
        <ele>1315.3</ele>
        <time>2021-02-20T06:39:24Z</time>
      </trkpt>
      <trkpt lat="45.18647" lon="5.91043">
        <ele>1315.4</ele>
        <time>2021-02-20T06:39:25Z</time>
      </trkpt>
      <trkpt lat="45.18647" lon="5.91044">
        <ele>1315.5</ele>
        <time>2021-02-20T06:39:26Z</time>
      </trkpt>
      <trkpt lat="45.18647" lon="5.91045">
        <ele>1315.7</ele>
        <time>2021-02-20T06:39:27Z</time>
      </trkpt>
      <trkpt lat="45.18647" lon="5.91045">
        <ele>1315.8</ele>
        <time>2021-02-20T06:39:28Z</time>
      </trkpt>
      <trkpt lat="45.18648" lon="5.91047">
        <ele>1316</ele>
        <time>2021-02-20T06:39:29Z</time>
      </trkpt>
      <trkpt lat="45.18648" lon="5.91048">
        <ele>1316.1</ele>
        <time>2021-02-20T06:39:30Z</time>
      </trkpt>
      <trkpt lat="45.18648" lon="5.91049">
        <ele>1316.3</ele>
        <time>2021-02-20T06:39:31Z</time>
      </trkpt>
      <trkpt lat="45.18647" lon="5.91049">
        <ele>1316.4</ele>
        <time>2021-02-20T06:39:32Z</time>
      </trkpt>
      <trkpt lat="45.18647" lon="5.91051">
        <ele>1316.6</ele>
        <time>2021-02-20T06:39:33Z</time>
      </trkpt>
      <trkpt lat="45.18647" lon="5.91052">
        <ele>1316.8</ele>
        <time>2021-02-20T06:39:34Z</time>
      </trkpt>
      <trkpt lat="45.18646" lon="5.91052">
        <ele>1316.9</ele>
        <time>2021-02-20T06:39:35Z</time>
      </trkpt>
      <trkpt lat="45.18646" lon="5.91053">
        <ele>1317.1</ele>
        <time>2021-02-20T06:39:36Z</time>
      </trkpt>
      <trkpt lat="45.18647" lon="5.91054">
        <ele>1317.2</ele>
        <time>2021-02-20T06:39:37Z</time>
      </trkpt>
      <trkpt lat="45.18647" lon="5.91055">
        <ele>1317.3</ele>
        <time>2021-02-20T06:39:38Z</time>
      </trkpt>
      <trkpt lat="45.18648" lon="5.91056">
        <ele>1317.5</ele>
        <time>2021-02-20T06:39:39Z</time>
      </trkpt>
      <trkpt lat="45.18648" lon="5.91057">
        <ele>1317.6</ele>
        <time>2021-02-20T06:39:40Z</time>
      </trkpt>
      <trkpt lat="45.18649" lon="5.91057">
        <ele>1317.7</ele>
        <time>2021-02-20T06:39:41Z</time>
      </trkpt>
      <trkpt lat="45.18649" lon="5.91057">
        <ele>1317.8</ele>
        <time>2021-02-20T06:39:42Z</time>
      </trkpt>
      <trkpt lat="45.1865" lon="5.91057">
        <ele>1318</ele>
        <time>2021-02-20T06:39:43Z</time>
      </trkpt>
      <trkpt lat="45.1865" lon="5.91058">
        <ele>1318.1</ele>
        <time>2021-02-20T06:39:44Z</time>
      </trkpt>
      <trkpt lat="45.18651" lon="5.91058">
        <ele>1318.2</ele>
        <time>2021-02-20T06:39:45Z</time>
      </trkpt>
      <trkpt lat="45.18651" lon="5.91059">
        <ele>1318.3</ele>
        <time>2021-02-20T06:39:46Z</time>
      </trkpt>
      <trkpt lat="45.18652" lon="5.91059">
        <ele>1318.5</ele>
        <time>2021-02-20T06:39:47Z</time>
      </trkpt>
      <trkpt lat="45.18653" lon="5.91059">
        <ele>1318.7</ele>
        <time>2021-02-20T06:39:48Z</time>
      </trkpt>
      <trkpt lat="45.18654" lon="5.91059">
        <ele>1318.9</ele>
        <time>2021-02-20T06:39:49Z</time>
      </trkpt>
      <trkpt lat="45.18655" lon="5.9106">
        <ele>1319.1</ele>
        <time>2021-02-20T06:39:50Z</time>
      </trkpt>
      <trkpt lat="45.18656" lon="5.9106">
        <ele>1319.3</ele>
        <time>2021-02-20T06:39:51Z</time>
      </trkpt>
      <trkpt lat="45.18656" lon="5.91061">
        <ele>1319.5</ele>
        <time>2021-02-20T06:39:52Z</time>
      </trkpt>
      <trkpt lat="45.18657" lon="5.91063">
        <ele>1319.7</ele>
        <time>2021-02-20T06:39:53Z</time>
      </trkpt>
      <trkpt lat="45.18657" lon="5.91063">
        <ele>1319.8</ele>
        <time>2021-02-20T06:39:54Z</time>
      </trkpt>
      <trkpt lat="45.18657" lon="5.91064">
        <ele>1319.9</ele>
        <time>2021-02-20T06:39:55Z</time>
      </trkpt>
      <trkpt lat="45.18658" lon="5.91065">
        <ele>1320</ele>
        <time>2021-02-20T06:39:56Z</time>
      </trkpt>
      <trkpt lat="45.18658" lon="5.91066">
        <ele>1320.2</ele>
        <time>2021-02-20T06:39:57Z</time>
      </trkpt>
      <trkpt lat="45.18658" lon="5.91067">
        <ele>1320.4</ele>
        <time>2021-02-20T06:39:58Z</time>
      </trkpt>
      <trkpt lat="45.18659" lon="5.91069">
        <ele>1320.6</ele>
        <time>2021-02-20T06:39:59Z</time>
      </trkpt>
      <trkpt lat="45.18659" lon="5.9107">
        <ele>1320.8</ele>
        <time>2021-02-20T06:40:00Z</time>
      </trkpt>
      <trkpt lat="45.1866" lon="5.91072">
        <ele>1321</ele>
        <time>2021-02-20T06:40:01Z</time>
      </trkpt>
      <trkpt lat="45.1866" lon="5.91073">
        <ele>1321.3</ele>
        <time>2021-02-20T06:40:02Z</time>
      </trkpt>
      <trkpt lat="45.18661" lon="5.91075">
        <ele>1321.5</ele>
        <time>2021-02-20T06:40:03Z</time>
      </trkpt>
      <trkpt lat="45.18661" lon="5.91076">
        <ele>1321.7</ele>
        <time>2021-02-20T06:40:04Z</time>
      </trkpt>
      <trkpt lat="45.18662" lon="5.91077">
        <ele>1322</ele>
        <time>2021-02-20T06:40:05Z</time>
      </trkpt>
      <trkpt lat="45.18663" lon="5.91079">
        <ele>1322.2</ele>
        <time>2021-02-20T06:40:06Z</time>
      </trkpt>
      <trkpt lat="45.18663" lon="5.9108">
        <ele>1322.4</ele>
        <time>2021-02-20T06:40:07Z</time>
      </trkpt>
      <trkpt lat="45.18664" lon="5.91081">
        <ele>1322.6</ele>
        <time>2021-02-20T06:40:08Z</time>
      </trkpt>
      <trkpt lat="45.18664" lon="5.91082">
        <ele>1322.7</ele>
        <time>2021-02-20T06:40:09Z</time>
      </trkpt>
      <trkpt lat="45.18665" lon="5.91084">
        <ele>1322.9</ele>
        <time>2021-02-20T06:40:10Z</time>
      </trkpt>
      <trkpt lat="45.18665" lon="5.91085">
        <ele>1323.1</ele>
        <time>2021-02-20T06:40:11Z</time>
      </trkpt>
      <trkpt lat="45.18666" lon="5.91085">
        <ele>1323.2</ele>
        <time>2021-02-20T06:40:12Z</time>
      </trkpt>
      <trkpt lat="45.18667" lon="5.91085">
        <ele>1323.4</ele>
        <time>2021-02-20T06:40:13Z</time>
      </trkpt>
      <trkpt lat="45.18667" lon="5.91086">
        <ele>1323.5</ele>
        <time>2021-02-20T06:40:14Z</time>
      </trkpt>
      <trkpt lat="45.18668" lon="5.91086">
        <ele>1323.6</ele>
        <time>2021-02-20T06:40:15Z</time>
      </trkpt>
      <trkpt lat="45.18668" lon="5.91086">
        <ele>1323.7</ele>
        <time>2021-02-20T06:40:16Z</time>
      </trkpt>
      <trkpt lat="45.18669" lon="5.91086">
        <ele>1323.8</ele>
        <time>2021-02-20T06:40:17Z</time>
      </trkpt>
      <trkpt lat="45.1867" lon="5.91086">
        <ele>1324</ele>
        <time>2021-02-20T06:40:18Z</time>
      </trkpt>
      <trkpt lat="45.1867" lon="5.91087">
        <ele>1324.1</ele>
        <time>2021-02-20T06:40:19Z</time>
      </trkpt>
      <trkpt lat="45.1867" lon="5.91088">
        <ele>1324.2</ele>
        <time>2021-02-20T06:40:20Z</time>
      </trkpt>
      <trkpt lat="45.1867" lon="5.91088">
        <ele>1324.3</ele>
        <time>2021-02-20T06:40:21Z</time>
      </trkpt>
      <trkpt lat="45.1867" lon="5.91089">
        <ele>1324.3</ele>
        <time>2021-02-20T06:40:22Z</time>
      </trkpt>
      <trkpt lat="45.18671" lon="5.91089">
        <ele>1324.4</ele>
        <time>2021-02-20T06:40:23Z</time>
      </trkpt>
      <trkpt lat="45.18672" lon="5.9109">
        <ele>1324.6</ele>
        <time>2021-02-20T06:40:24Z</time>
      </trkpt>
      <trkpt lat="45.18672" lon="5.9109">
        <ele>1324.8</ele>
        <time>2021-02-20T06:40:25Z</time>
      </trkpt>
      <trkpt lat="45.18673" lon="5.91091">
        <ele>1324.9</ele>
        <time>2021-02-20T06:40:26Z</time>
      </trkpt>
      <trkpt lat="45.18674" lon="5.91091">
        <ele>1325.1</ele>
        <time>2021-02-20T06:40:27Z</time>
      </trkpt>
      <trkpt lat="45.18674" lon="5.91092">
        <ele>1325.2</ele>
        <time>2021-02-20T06:40:28Z</time>
      </trkpt>
      <trkpt lat="45.18674" lon="5.91093">
        <ele>1325.4</ele>
        <time>2021-02-20T06:40:29Z</time>
      </trkpt>
      <trkpt lat="45.18675" lon="5.91094">
        <ele>1325.5</ele>
        <time>2021-02-20T06:40:30Z</time>
      </trkpt>
      <trkpt lat="45.18675" lon="5.91095">
        <ele>1325.6</ele>
        <time>2021-02-20T06:40:31Z</time>
      </trkpt>
      <trkpt lat="45.18675" lon="5.91096">
        <ele>1325.8</ele>
        <time>2021-02-20T06:40:32Z</time>
      </trkpt>
      <trkpt lat="45.18676" lon="5.91097">
        <ele>1326</ele>
        <time>2021-02-20T06:40:33Z</time>
      </trkpt>
      <trkpt lat="45.18676" lon="5.91098">
        <ele>1326.1</ele>
        <time>2021-02-20T06:40:34Z</time>
      </trkpt>
      <trkpt lat="45.18677" lon="5.91099">
        <ele>1326.3</ele>
        <time>2021-02-20T06:40:35Z</time>
      </trkpt>
      <trkpt lat="45.18678" lon="5.911">
        <ele>1326.5</ele>
        <time>2021-02-20T06:40:36Z</time>
      </trkpt>
      <trkpt lat="45.18678" lon="5.911">
        <ele>1326.7</ele>
        <time>2021-02-20T06:40:37Z</time>
      </trkpt>
      <trkpt lat="45.18679" lon="5.91101">
        <ele>1326.9</ele>
        <time>2021-02-20T06:40:38Z</time>
      </trkpt>
      <trkpt lat="45.1868" lon="5.91102">
        <ele>1327.1</ele>
        <time>2021-02-20T06:40:39Z</time>
      </trkpt>
      <trkpt lat="45.18681" lon="5.91103">
        <ele>1327.2</ele>
        <time>2021-02-20T06:40:40Z</time>
      </trkpt>
      <trkpt lat="45.18681" lon="5.91104">
        <ele>1327.4</ele>
        <time>2021-02-20T06:40:41Z</time>
      </trkpt>
      <trkpt lat="45.18682" lon="5.91105">
        <ele>1327.6</ele>
        <time>2021-02-20T06:40:42Z</time>
      </trkpt>
      <trkpt lat="45.18682" lon="5.91106">
        <ele>1327.8</ele>
        <time>2021-02-20T06:40:43Z</time>
      </trkpt>
      <trkpt lat="45.18683" lon="5.91107">
        <ele>1327.9</ele>
        <time>2021-02-20T06:40:44Z</time>
      </trkpt>
      <trkpt lat="45.18684" lon="5.91108">
        <ele>1328.1</ele>
        <time>2021-02-20T06:40:45Z</time>
      </trkpt>
      <trkpt lat="45.18684" lon="5.91108">
        <ele>1328.2</ele>
        <time>2021-02-20T06:40:46Z</time>
      </trkpt>
      <trkpt lat="45.18684" lon="5.91108">
        <ele>1328.3</ele>
        <time>2021-02-20T06:40:47Z</time>
      </trkpt>
      <trkpt lat="45.18684" lon="5.91109">
        <ele>1328.4</ele>
        <time>2021-02-20T06:40:48Z</time>
      </trkpt>
      <trkpt lat="45.18684" lon="5.91111">
        <ele>1328.6</ele>
        <time>2021-02-20T06:40:49Z</time>
      </trkpt>
      <trkpt lat="45.18684" lon="5.91112">
        <ele>1328.7</ele>
        <time>2021-02-20T06:40:50Z</time>
      </trkpt>
      <trkpt lat="45.18685" lon="5.91113">
        <ele>1328.9</ele>
        <time>2021-02-20T06:40:51Z</time>
      </trkpt>
      <trkpt lat="45.18685" lon="5.91114">
        <ele>1329.1</ele>
        <time>2021-02-20T06:40:52Z</time>
      </trkpt>
      <trkpt lat="45.18686" lon="5.91115">
        <ele>1329.3</ele>
        <time>2021-02-20T06:40:53Z</time>
      </trkpt>
      <trkpt lat="45.18687" lon="5.91115">
        <ele>1329.4</ele>
        <time>2021-02-20T06:40:54Z</time>
      </trkpt>
      <trkpt lat="45.18687" lon="5.91115">
        <ele>1329.6</ele>
        <time>2021-02-20T06:40:55Z</time>
      </trkpt>
      <trkpt lat="45.18688" lon="5.91116">
        <ele>1329.7</ele>
        <time>2021-02-20T06:40:56Z</time>
      </trkpt>
      <trkpt lat="45.18689" lon="5.91117">
        <ele>1329.9</ele>
        <time>2021-02-20T06:40:57Z</time>
      </trkpt>
      <trkpt lat="45.1869" lon="5.91117">
        <ele>1330.1</ele>
        <time>2021-02-20T06:40:58Z</time>
      </trkpt>
      <trkpt lat="45.1869" lon="5.91118">
        <ele>1330.2</ele>
        <time>2021-02-20T06:40:59Z</time>
      </trkpt>
      <trkpt lat="45.18691" lon="5.91119">
        <ele>1330.5</ele>
        <time>2021-02-20T06:41:00Z</time>
      </trkpt>
      <trkpt lat="45.18692" lon="5.9112">
        <ele>1330.5</ele>
        <time>2021-02-20T06:41:01Z</time>
      </trkpt>
      <trkpt lat="45.18692" lon="5.9112">
        <ele>1330.6</ele>
        <time>2021-02-20T06:41:02Z</time>
      </trkpt>
      <trkpt lat="45.18692" lon="5.9112">
        <ele>1330.7</ele>
        <time>2021-02-20T06:41:03Z</time>
      </trkpt>
      <trkpt lat="45.18693" lon="5.91121">
        <ele>1330.8</ele>
        <time>2021-02-20T06:41:04Z</time>
      </trkpt>
      <trkpt lat="45.18693" lon="5.91121">
        <ele>1330.9</ele>
        <time>2021-02-20T06:41:05Z</time>
      </trkpt>
      <trkpt lat="45.18693" lon="5.91122">
        <ele>1331</ele>
        <time>2021-02-20T06:41:06Z</time>
      </trkpt>
      <trkpt lat="45.18694" lon="5.91122">
        <ele>1331.1</ele>
        <time>2021-02-20T06:41:07Z</time>
      </trkpt>
      <trkpt lat="45.18695" lon="5.91123">
        <ele>1331.3</ele>
        <time>2021-02-20T06:41:08Z</time>
      </trkpt>
      <trkpt lat="45.18696" lon="5.91124">
        <ele>1331.5</ele>
        <time>2021-02-20T06:41:09Z</time>
      </trkpt>
      <trkpt lat="45.18698" lon="5.91126">
        <ele>1331.9</ele>
        <time>2021-02-20T06:41:10Z</time>
      </trkpt>
      <trkpt lat="45.18699" lon="5.91128">
        <ele>1332.2</ele>
        <time>2021-02-20T06:41:13Z</time>
      </trkpt>
      <trkpt lat="45.18699" lon="5.9113">
        <ele>1332.5</ele>
        <time>2021-02-20T06:41:14Z</time>
      </trkpt>
      <trkpt lat="45.187" lon="5.91131">
        <ele>1332.7</ele>
        <time>2021-02-20T06:41:15Z</time>
      </trkpt>
      <trkpt lat="45.18701" lon="5.91132">
        <ele>1332.9</ele>
        <time>2021-02-20T06:41:16Z</time>
      </trkpt>
      <trkpt lat="45.18702" lon="5.91133">
        <ele>1333.1</ele>
        <time>2021-02-20T06:41:17Z</time>
      </trkpt>
      <trkpt lat="45.18702" lon="5.91134">
        <ele>1333.2</ele>
        <time>2021-02-20T06:41:18Z</time>
      </trkpt>
      <trkpt lat="45.18702" lon="5.91135">
        <ele>1333.3</ele>
        <time>2021-02-20T06:41:19Z</time>
      </trkpt>
      <trkpt lat="45.18703" lon="5.91136">
        <ele>1333.5</ele>
        <time>2021-02-20T06:41:20Z</time>
      </trkpt>
      <trkpt lat="45.18704" lon="5.91136">
        <ele>1333.7</ele>
        <time>2021-02-20T06:41:21Z</time>
      </trkpt>
      <trkpt lat="45.18705" lon="5.91136">
        <ele>1333.8</ele>
        <time>2021-02-20T06:41:22Z</time>
      </trkpt>
      <trkpt lat="45.18705" lon="5.91136">
        <ele>1333.8</ele>
        <time>2021-02-20T06:41:23Z</time>
      </trkpt>
      <trkpt lat="45.18705" lon="5.91135">
        <ele>1333.9</ele>
        <time>2021-02-20T06:41:24Z</time>
      </trkpt>
      <trkpt lat="45.18706" lon="5.91136">
        <ele>1334</ele>
        <time>2021-02-20T06:41:25Z</time>
      </trkpt>
      <trkpt lat="45.18706" lon="5.91137">
        <ele>1334.1</ele>
        <time>2021-02-20T06:41:26Z</time>
      </trkpt>
      <trkpt lat="45.18707" lon="5.91138">
        <ele>1334.3</ele>
        <time>2021-02-20T06:41:27Z</time>
      </trkpt>
      <trkpt lat="45.18707" lon="5.91138">
        <ele>1334.4</ele>
        <time>2021-02-20T06:41:28Z</time>
      </trkpt>
      <trkpt lat="45.18709" lon="5.91138">
        <ele>1334.7</ele>
        <time>2021-02-20T06:41:29Z</time>
      </trkpt>
      <trkpt lat="45.1871" lon="5.91138">
        <ele>1334.8</ele>
        <time>2021-02-20T06:41:30Z</time>
      </trkpt>
      <trkpt lat="45.1871" lon="5.91138">
        <ele>1335</ele>
        <time>2021-02-20T06:41:31Z</time>
      </trkpt>
      <trkpt lat="45.18711" lon="5.91138">
        <ele>1335.1</ele>
        <time>2021-02-20T06:41:32Z</time>
      </trkpt>
      <trkpt lat="45.18712" lon="5.91138">
        <ele>1335.3</ele>
        <time>2021-02-20T06:41:33Z</time>
      </trkpt>
      <trkpt lat="45.18713" lon="5.91138">
        <ele>1335.5</ele>
        <time>2021-02-20T06:41:34Z</time>
      </trkpt>
      <trkpt lat="45.18714" lon="5.91138">
        <ele>1335.7</ele>
        <time>2021-02-20T06:41:35Z</time>
      </trkpt>
      <trkpt lat="45.18714" lon="5.91138">
        <ele>1335.8</ele>
        <time>2021-02-20T06:41:36Z</time>
      </trkpt>
      <trkpt lat="45.18718" lon="5.91139">
        <ele>1336.5</ele>
        <time>2021-02-20T06:41:37Z</time>
      </trkpt>
      <trkpt lat="45.18721" lon="5.9114">
        <ele>1337.2</ele>
        <time>2021-02-20T06:41:38Z</time>
      </trkpt>
      <trkpt lat="45.18724" lon="5.91141">
        <ele>1337.9</ele>
        <time>2021-02-20T06:41:50Z</time>
      </trkpt>
      <trkpt lat="45.18728" lon="5.91142">
        <ele>1338.7</ele>
        <time>2021-02-20T06:41:51Z</time>
      </trkpt>
      <trkpt lat="45.18731" lon="5.91142">
        <ele>1339.4</ele>
        <time>2021-02-20T06:41:52Z</time>
      </trkpt>
      <trkpt lat="45.18733" lon="5.91142">
        <ele>1339.9</ele>
        <time>2021-02-20T06:41:53Z</time>
      </trkpt>
      <trkpt lat="45.18734" lon="5.91142">
        <ele>1340.1</ele>
        <time>2021-02-20T06:41:54Z</time>
      </trkpt>
      <trkpt lat="45.18735" lon="5.91142">
        <ele>1340.3</ele>
        <time>2021-02-20T06:41:55Z</time>
      </trkpt>
      <trkpt lat="45.18736" lon="5.91142">
        <ele>1340.5</ele>
        <time>2021-02-20T06:41:56Z</time>
      </trkpt>
      <trkpt lat="45.18737" lon="5.91142">
        <ele>1340.8</ele>
        <time>2021-02-20T06:41:57Z</time>
      </trkpt>
      <trkpt lat="45.18738" lon="5.91142">
        <ele>1341.1</ele>
        <time>2021-02-20T06:41:58Z</time>
      </trkpt>
      <trkpt lat="45.18739" lon="5.91142">
        <ele>1341.3</ele>
        <time>2021-02-20T06:41:59Z</time>
      </trkpt>
      <trkpt lat="45.1874" lon="5.91142">
        <ele>1341.5</ele>
        <time>2021-02-20T06:42:00Z</time>
      </trkpt>
      <trkpt lat="45.1874" lon="5.91142">
        <ele>1341.7</ele>
        <time>2021-02-20T06:42:01Z</time>
      </trkpt>
      <trkpt lat="45.18741" lon="5.91141">
        <ele>1341.9</ele>
        <time>2021-02-20T06:42:02Z</time>
      </trkpt>
      <trkpt lat="45.18742" lon="5.9114">
        <ele>1342.2</ele>
        <time>2021-02-20T06:42:03Z</time>
      </trkpt>
      <trkpt lat="45.18743" lon="5.91139">
        <ele>1342.4</ele>
        <time>2021-02-20T06:42:04Z</time>
      </trkpt>
      <trkpt lat="45.18744" lon="5.91139">
        <ele>1342.7</ele>
        <time>2021-02-20T06:42:05Z</time>
      </trkpt>
      <trkpt lat="45.18745" lon="5.9114">
        <ele>1342.9</ele>
        <time>2021-02-20T06:42:06Z</time>
      </trkpt>
      <trkpt lat="45.18746" lon="5.9114">
        <ele>1343.2</ele>
        <time>2021-02-20T06:42:07Z</time>
      </trkpt>
      <trkpt lat="45.18747" lon="5.91141">
        <ele>1343.5</ele>
        <time>2021-02-20T06:42:08Z</time>
      </trkpt>
      <trkpt lat="45.18748" lon="5.91141">
        <ele>1343.8</ele>
        <time>2021-02-20T06:42:09Z</time>
      </trkpt>
      <trkpt lat="45.18749" lon="5.91142">
        <ele>1344.1</ele>
        <time>2021-02-20T06:42:10Z</time>
      </trkpt>
      <trkpt lat="45.18749" lon="5.91143">
        <ele>1344.3</ele>
        <time>2021-02-20T06:42:11Z</time>
      </trkpt>
      <trkpt lat="45.1875" lon="5.91143">
        <ele>1344.5</ele>
        <time>2021-02-20T06:42:12Z</time>
      </trkpt>
      <trkpt lat="45.18751" lon="5.91143">
        <ele>1344.8</ele>
        <time>2021-02-20T06:42:13Z</time>
      </trkpt>
      <trkpt lat="45.18753" lon="5.91142">
        <ele>1345.2</ele>
        <time>2021-02-20T06:42:14Z</time>
      </trkpt>
      <trkpt lat="45.18754" lon="5.91142">
        <ele>1345.5</ele>
        <time>2021-02-20T06:42:15Z</time>
      </trkpt>
      <trkpt lat="45.18755" lon="5.91141">
        <ele>1345.9</ele>
        <time>2021-02-20T06:42:16Z</time>
      </trkpt>
      <trkpt lat="45.18757" lon="5.91141">
        <ele>1346.3</ele>
        <time>2021-02-20T06:42:17Z</time>
      </trkpt>
      <trkpt lat="45.18758" lon="5.91141">
        <ele>1346.6</ele>
        <time>2021-02-20T06:42:18Z</time>
      </trkpt>
      <trkpt lat="45.18759" lon="5.91141">
        <ele>1346.8</ele>
        <time>2021-02-20T06:42:19Z</time>
      </trkpt>
      <trkpt lat="45.18759" lon="5.91142">
        <ele>1347</ele>
        <time>2021-02-20T06:42:20Z</time>
      </trkpt>
      <trkpt lat="45.1876" lon="5.91142">
        <ele>1347.2</ele>
        <time>2021-02-20T06:42:21Z</time>
      </trkpt>
      <trkpt lat="45.1876" lon="5.91143">
        <ele>1347.4</ele>
        <time>2021-02-20T06:42:22Z</time>
      </trkpt>
      <trkpt lat="45.18761" lon="5.91144">
        <ele>1347.6</ele>
        <time>2021-02-20T06:42:23Z</time>
      </trkpt>
      <trkpt lat="45.18761" lon="5.91144">
        <ele>1347.7</ele>
        <time>2021-02-20T06:42:24Z</time>
      </trkpt>
      <trkpt lat="45.18762" lon="5.91144">
        <ele>1347.9</ele>
        <time>2021-02-20T06:42:25Z</time>
      </trkpt>
      <trkpt lat="45.18763" lon="5.91144">
        <ele>1348.1</ele>
        <time>2021-02-20T06:42:26Z</time>
      </trkpt>
      <trkpt lat="45.18763" lon="5.91143">
        <ele>1348.3</ele>
        <time>2021-02-20T06:42:27Z</time>
      </trkpt>
      <trkpt lat="45.18764" lon="5.91143">
        <ele>1348.5</ele>
        <time>2021-02-20T06:42:28Z</time>
      </trkpt>
      <trkpt lat="45.18765" lon="5.91143">
        <ele>1348.8</ele>
        <time>2021-02-20T06:42:29Z</time>
      </trkpt>
      <trkpt lat="45.18766" lon="5.91142">
        <ele>1348.9</ele>
        <time>2021-02-20T06:42:30Z</time>
      </trkpt>
      <trkpt lat="45.18766" lon="5.91142">
        <ele>1349.1</ele>
        <time>2021-02-20T06:42:31Z</time>
      </trkpt>
      <trkpt lat="45.18767" lon="5.91142">
        <ele>1349.2</ele>
        <time>2021-02-20T06:42:32Z</time>
      </trkpt>
      <trkpt lat="45.18767" lon="5.91142">
        <ele>1349.3</ele>
        <time>2021-02-20T06:42:33Z</time>
      </trkpt>
      <trkpt lat="45.18767" lon="5.91142">
        <ele>1349.4</ele>
        <time>2021-02-20T06:42:34Z</time>
      </trkpt>
      <trkpt lat="45.18768" lon="5.91142">
        <ele>1349.5</ele>
        <time>2021-02-20T06:42:35Z</time>
      </trkpt>
      <trkpt lat="45.18769" lon="5.91142">
        <ele>1349.7</ele>
        <time>2021-02-20T06:42:36Z</time>
      </trkpt>
      <trkpt lat="45.1877" lon="5.91142">
        <ele>1349.9</ele>
        <time>2021-02-20T06:42:37Z</time>
      </trkpt>
      <trkpt lat="45.1877" lon="5.91142">
        <ele>1350</ele>
        <time>2021-02-20T06:42:38Z</time>
      </trkpt>
      <trkpt lat="45.1877" lon="5.91141">
        <ele>1350.1</ele>
        <time>2021-02-20T06:42:39Z</time>
      </trkpt>
      <trkpt lat="45.18771" lon="5.91141">
        <ele>1350.2</ele>
        <time>2021-02-20T06:42:40Z</time>
      </trkpt>
      <trkpt lat="45.18772" lon="5.91141">
        <ele>1350.4</ele>
        <time>2021-02-20T06:42:41Z</time>
      </trkpt>
      <trkpt lat="45.18773" lon="5.91142">
        <ele>1350.6</ele>
        <time>2021-02-20T06:42:42Z</time>
      </trkpt>
      <trkpt lat="45.18774" lon="5.91142">
        <ele>1350.9</ele>
        <time>2021-02-20T06:42:43Z</time>
      </trkpt>
      <trkpt lat="45.18774" lon="5.91143">
        <ele>1351</ele>
        <time>2021-02-20T06:42:44Z</time>
      </trkpt>
      <trkpt lat="45.18775" lon="5.91144">
        <ele>1351.1</ele>
        <time>2021-02-20T06:42:45Z</time>
      </trkpt>
      <trkpt lat="45.18775" lon="5.91144">
        <ele>1351.3</ele>
        <time>2021-02-20T06:42:46Z</time>
      </trkpt>
      <trkpt lat="45.18776" lon="5.91144">
        <ele>1351.5</ele>
        <time>2021-02-20T06:42:47Z</time>
      </trkpt>
      <trkpt lat="45.18777" lon="5.91144">
        <ele>1351.6</ele>
        <time>2021-02-20T06:42:48Z</time>
      </trkpt>
      <trkpt lat="45.18777" lon="5.91145">
        <ele>1351.8</ele>
        <time>2021-02-20T06:42:49Z</time>
      </trkpt>
      <trkpt lat="45.18778" lon="5.91145">
        <ele>1351.9</ele>
        <time>2021-02-20T06:42:50Z</time>
      </trkpt>
      <trkpt lat="45.18778" lon="5.91145">
        <ele>1352</ele>
        <time>2021-02-20T06:42:51Z</time>
      </trkpt>
      <trkpt lat="45.18779" lon="5.91145">
        <ele>1352.1</ele>
        <time>2021-02-20T06:42:52Z</time>
      </trkpt>
      <trkpt lat="45.18779" lon="5.91146">
        <ele>1352.3</ele>
        <time>2021-02-20T06:42:53Z</time>
      </trkpt>
      <trkpt lat="45.1878" lon="5.91146">
        <ele>1352.4</ele>
        <time>2021-02-20T06:42:54Z</time>
      </trkpt>
      <trkpt lat="45.1878" lon="5.91147">
        <ele>1352.5</ele>
        <time>2021-02-20T06:42:55Z</time>
      </trkpt>
      <trkpt lat="45.18781" lon="5.91147">
        <ele>1352.6</ele>
        <time>2021-02-20T06:42:56Z</time>
      </trkpt>
      <trkpt lat="45.18781" lon="5.91148">
        <ele>1352.8</ele>
        <time>2021-02-20T06:42:57Z</time>
      </trkpt>
      <trkpt lat="45.18781" lon="5.91149">
        <ele>1352.9</ele>
        <time>2021-02-20T06:42:58Z</time>
      </trkpt>
      <trkpt lat="45.18782" lon="5.91149">
        <ele>1353</ele>
        <time>2021-02-20T06:42:59Z</time>
      </trkpt>
      <trkpt lat="45.18783" lon="5.9115">
        <ele>1353.2</ele>
        <time>2021-02-20T06:43:00Z</time>
      </trkpt>
      <trkpt lat="45.18783" lon="5.9115">
        <ele>1353.3</ele>
        <time>2021-02-20T06:43:01Z</time>
      </trkpt>
      <trkpt lat="45.18784" lon="5.91151">
        <ele>1353.5</ele>
        <time>2021-02-20T06:43:02Z</time>
      </trkpt>
      <trkpt lat="45.18785" lon="5.91151">
        <ele>1353.6</ele>
        <time>2021-02-20T06:43:03Z</time>
      </trkpt>
      <trkpt lat="45.18785" lon="5.91151">
        <ele>1353.7</ele>
        <time>2021-02-20T06:43:04Z</time>
      </trkpt>
      <trkpt lat="45.18786" lon="5.91152">
        <ele>1353.9</ele>
        <time>2021-02-20T06:43:05Z</time>
      </trkpt>
      <trkpt lat="45.18786" lon="5.91152">
        <ele>1354</ele>
        <time>2021-02-20T06:43:06Z</time>
      </trkpt>
      <trkpt lat="45.18787" lon="5.91153">
        <ele>1354.1</ele>
        <time>2021-02-20T06:43:07Z</time>
      </trkpt>
      <trkpt lat="45.18787" lon="5.91153">
        <ele>1354.2</ele>
        <time>2021-02-20T06:43:08Z</time>
      </trkpt>
      <trkpt lat="45.18787" lon="5.91154">
        <ele>1354.3</ele>
        <time>2021-02-20T06:43:09Z</time>
      </trkpt>
      <trkpt lat="45.18788" lon="5.91155">
        <ele>1354.5</ele>
        <time>2021-02-20T06:43:10Z</time>
      </trkpt>
      <trkpt lat="45.18788" lon="5.91156">
        <ele>1354.6</ele>
        <time>2021-02-20T06:43:11Z</time>
      </trkpt>
      <trkpt lat="45.18788" lon="5.91156">
        <ele>1354.7</ele>
        <time>2021-02-20T06:43:12Z</time>
      </trkpt>
      <trkpt lat="45.18788" lon="5.91157">
        <ele>1354.8</ele>
        <time>2021-02-20T06:43:13Z</time>
      </trkpt>
      <trkpt lat="45.18788" lon="5.91158">
        <ele>1354.9</ele>
        <time>2021-02-20T06:43:14Z</time>
      </trkpt>
      <trkpt lat="45.18789" lon="5.91158">
        <ele>1355</ele>
        <time>2021-02-20T06:43:15Z</time>
      </trkpt>
      <trkpt lat="45.18789" lon="5.91159">
        <ele>1355.2</ele>
        <time>2021-02-20T06:43:16Z</time>
      </trkpt>
      <trkpt lat="45.1879" lon="5.91159">
        <ele>1355.3</ele>
        <time>2021-02-20T06:43:17Z</time>
      </trkpt>
      <trkpt lat="45.1879" lon="5.9116">
        <ele>1355.4</ele>
        <time>2021-02-20T06:43:18Z</time>
      </trkpt>
      <trkpt lat="45.1879" lon="5.91161">
        <ele>1355.5</ele>
        <time>2021-02-20T06:43:19Z</time>
      </trkpt>
      <trkpt lat="45.18791" lon="5.91161">
        <ele>1355.7</ele>
        <time>2021-02-20T06:43:20Z</time>
      </trkpt>
      <trkpt lat="45.18791" lon="5.91161">
        <ele>1355.7</ele>
        <time>2021-02-20T06:43:21Z</time>
      </trkpt>
      <trkpt lat="45.18791" lon="5.91162">
        <ele>1355.9</ele>
        <time>2021-02-20T06:43:22Z</time>
      </trkpt>
      <trkpt lat="45.18791" lon="5.91163">
        <ele>1356</ele>
        <time>2021-02-20T06:43:23Z</time>
      </trkpt>
      <trkpt lat="45.18791" lon="5.91164">
        <ele>1356</ele>
        <time>2021-02-20T06:43:24Z</time>
      </trkpt>
      <trkpt lat="45.18791" lon="5.91164">
        <ele>1356.1</ele>
        <time>2021-02-20T06:43:25Z</time>
      </trkpt>
      <trkpt lat="45.18791" lon="5.91165">
        <ele>1356.2</ele>
        <time>2021-02-20T06:43:26Z</time>
      </trkpt>
      <trkpt lat="45.18791" lon="5.91166">
        <ele>1356.3</ele>
        <time>2021-02-20T06:43:27Z</time>
      </trkpt>
      <trkpt lat="45.18791" lon="5.91166">
        <ele>1356.4</ele>
        <time>2021-02-20T06:43:28Z</time>
      </trkpt>
      <trkpt lat="45.18791" lon="5.91167">
        <ele>1356.5</ele>
        <time>2021-02-20T06:43:29Z</time>
      </trkpt>
      <trkpt lat="45.18791" lon="5.91168">
        <ele>1356.6</ele>
        <time>2021-02-20T06:43:30Z</time>
      </trkpt>
      <trkpt lat="45.1879" lon="5.91169">
        <ele>1356.8</ele>
        <time>2021-02-20T06:43:31Z</time>
      </trkpt>
      <trkpt lat="45.1879" lon="5.9117">
        <ele>1356.9</ele>
        <time>2021-02-20T06:43:32Z</time>
      </trkpt>
      <trkpt lat="45.1879" lon="5.91171">
        <ele>1357</ele>
        <time>2021-02-20T06:43:33Z</time>
      </trkpt>
      <trkpt lat="45.1879" lon="5.91171">
        <ele>1357.1</ele>
        <time>2021-02-20T06:43:34Z</time>
      </trkpt>
      <trkpt lat="45.18789" lon="5.91171">
        <ele>1357.2</ele>
        <time>2021-02-20T06:43:35Z</time>
      </trkpt>
      <trkpt lat="45.18789" lon="5.91172">
        <ele>1357.2</ele>
        <time>2021-02-20T06:43:36Z</time>
      </trkpt>
      <trkpt lat="45.18789" lon="5.91172">
        <ele>1357.3</ele>
        <time>2021-02-20T06:43:37Z</time>
      </trkpt>
      <trkpt lat="45.18788" lon="5.91173">
        <ele>1357.4</ele>
        <time>2021-02-20T06:43:38Z</time>
      </trkpt>
      <trkpt lat="45.18788" lon="5.91173">
        <ele>1357.4</ele>
        <time>2021-02-20T06:43:39Z</time>
      </trkpt>
      <trkpt lat="45.18788" lon="5.91174">
        <ele>1357.5</ele>
        <time>2021-02-20T06:43:40Z</time>
      </trkpt>
      <trkpt lat="45.18788" lon="5.91174">
        <ele>1357.5</ele>
        <time>2021-02-20T06:43:41Z</time>
      </trkpt>
      <trkpt lat="45.18788" lon="5.91174">
        <ele>1357.6</ele>
        <time>2021-02-20T06:43:42Z</time>
      </trkpt>
      <trkpt lat="45.18787" lon="5.91174">
        <ele>1357.7</ele>
        <time>2021-02-20T06:43:43Z</time>
      </trkpt>
      <trkpt lat="45.18787" lon="5.91175">
        <ele>1357.7</ele>
        <time>2021-02-20T06:43:44Z</time>
      </trkpt>
      <trkpt lat="45.18786" lon="5.91175">
        <ele>1357.8</ele>
        <time>2021-02-20T06:43:45Z</time>
      </trkpt>
      <trkpt lat="45.18786" lon="5.91175">
        <ele>1357.9</ele>
        <time>2021-02-20T06:43:46Z</time>
      </trkpt>
      <trkpt lat="45.18786" lon="5.91175">
        <ele>1357.9</ele>
        <time>2021-02-20T06:43:47Z</time>
      </trkpt>
      <trkpt lat="45.18785" lon="5.91176">
        <ele>1358</ele>
        <time>2021-02-20T06:43:48Z</time>
      </trkpt>
      <trkpt lat="45.18785" lon="5.91176">
        <ele>1358.1</ele>
        <time>2021-02-20T06:43:49Z</time>
      </trkpt>
      <trkpt lat="45.18785" lon="5.91176">
        <ele>1358.2</ele>
        <time>2021-02-20T06:43:50Z</time>
      </trkpt>
      <trkpt lat="45.18784" lon="5.91177">
        <ele>1358.3</ele>
        <time>2021-02-20T06:43:51Z</time>
      </trkpt>
      <trkpt lat="45.18784" lon="5.91177">
        <ele>1358.4</ele>
        <time>2021-02-20T06:43:52Z</time>
      </trkpt>
      <trkpt lat="45.18783" lon="5.91176">
        <ele>1358.5</ele>
        <time>2021-02-20T06:43:53Z</time>
      </trkpt>
      <trkpt lat="45.18782" lon="5.91176">
        <ele>1358.6</ele>
        <time>2021-02-20T06:43:54Z</time>
      </trkpt>
      <trkpt lat="45.18781" lon="5.91176">
        <ele>1358.7</ele>
        <time>2021-02-20T06:43:55Z</time>
      </trkpt>
      <trkpt lat="45.1878" lon="5.91176">
        <ele>1358.9</ele>
        <time>2021-02-20T06:43:56Z</time>
      </trkpt>
      <trkpt lat="45.18779" lon="5.91177">
        <ele>1359</ele>
        <time>2021-02-20T06:43:57Z</time>
      </trkpt>
      <trkpt lat="45.18778" lon="5.91178">
        <ele>1359.2</ele>
        <time>2021-02-20T06:43:58Z</time>
      </trkpt>
      <trkpt lat="45.18778" lon="5.91179">
        <ele>1359.3</ele>
        <time>2021-02-20T06:43:59Z</time>
      </trkpt>
      <trkpt lat="45.18778" lon="5.9118">
        <ele>1359.4</ele>
        <time>2021-02-20T06:44:00Z</time>
      </trkpt>
      <trkpt lat="45.18777" lon="5.9118">
        <ele>1359.5</ele>
        <time>2021-02-20T06:44:01Z</time>
      </trkpt>
      <trkpt lat="45.18777" lon="5.91181">
        <ele>1359.6</ele>
        <time>2021-02-20T06:44:02Z</time>
      </trkpt>
      <trkpt lat="45.18776" lon="5.91182">
        <ele>1359.7</ele>
        <time>2021-02-20T06:44:03Z</time>
      </trkpt>
      <trkpt lat="45.18776" lon="5.91183">
        <ele>1359.8</ele>
        <time>2021-02-20T06:44:04Z</time>
      </trkpt>
      <trkpt lat="45.18775" lon="5.91183">
        <ele>1359.9</ele>
        <time>2021-02-20T06:44:05Z</time>
      </trkpt>
      <trkpt lat="45.18775" lon="5.91184">
        <ele>1360</ele>
        <time>2021-02-20T06:44:06Z</time>
      </trkpt>
      <trkpt lat="45.18774" lon="5.91184">
        <ele>1360.1</ele>
        <time>2021-02-20T06:44:07Z</time>
      </trkpt>
      <trkpt lat="45.18774" lon="5.91185">
        <ele>1360.2</ele>
        <time>2021-02-20T06:44:08Z</time>
      </trkpt>
      <trkpt lat="45.18773" lon="5.91185">
        <ele>1360.3</ele>
        <time>2021-02-20T06:44:09Z</time>
      </trkpt>
      <trkpt lat="45.18773" lon="5.91186">
        <ele>1360.4</ele>
        <time>2021-02-20T06:44:10Z</time>
      </trkpt>
      <trkpt lat="45.18772" lon="5.91186">
        <ele>1360.4</ele>
        <time>2021-02-20T06:44:11Z</time>
      </trkpt>
      <trkpt lat="45.18772" lon="5.91187">
        <ele>1360.5</ele>
        <time>2021-02-20T06:44:12Z</time>
      </trkpt>
      <trkpt lat="45.18772" lon="5.91187">
        <ele>1360.7</ele>
        <time>2021-02-20T06:44:13Z</time>
      </trkpt>
      <trkpt lat="45.18771" lon="5.91187">
        <ele>1360.8</ele>
        <time>2021-02-20T06:44:14Z</time>
      </trkpt>
      <trkpt lat="45.18771" lon="5.91186">
        <ele>1360.9</ele>
        <time>2021-02-20T06:44:15Z</time>
      </trkpt>
      <trkpt lat="45.1877" lon="5.91186">
        <ele>1360.9</ele>
        <time>2021-02-20T06:44:16Z</time>
      </trkpt>
      <trkpt lat="45.1877" lon="5.91186">
        <ele>1361</ele>
        <time>2021-02-20T06:44:17Z</time>
      </trkpt>
      <trkpt lat="45.18769" lon="5.91187">
        <ele>1361.2</ele>
        <time>2021-02-20T06:44:18Z</time>
      </trkpt>
      <trkpt lat="45.18768" lon="5.91188">
        <ele>1361.4</ele>
        <time>2021-02-20T06:44:19Z</time>
      </trkpt>
      <trkpt lat="45.18767" lon="5.91188">
        <ele>1361.6</ele>
        <time>2021-02-20T06:44:20Z</time>
      </trkpt>
      <trkpt lat="45.18766" lon="5.91189">
        <ele>1361.8</ele>
        <time>2021-02-20T06:44:21Z</time>
      </trkpt>
      <trkpt lat="45.18765" lon="5.91189">
        <ele>1362</ele>
        <time>2021-02-20T06:44:22Z</time>
      </trkpt>
      <trkpt lat="45.18764" lon="5.91189">
        <ele>1362.1</ele>
        <time>2021-02-20T06:44:23Z</time>
      </trkpt>
      <trkpt lat="45.18763" lon="5.9119">
        <ele>1362.2</ele>
        <time>2021-02-20T06:44:24Z</time>
      </trkpt>
      <trkpt lat="45.18762" lon="5.9119">
        <ele>1362.4</ele>
        <time>2021-02-20T06:44:25Z</time>
      </trkpt>
      <trkpt lat="45.18761" lon="5.9119">
        <ele>1362.6</ele>
        <time>2021-02-20T06:44:26Z</time>
      </trkpt>
      <trkpt lat="45.18761" lon="5.91191">
        <ele>1362.8</ele>
        <time>2021-02-20T06:44:27Z</time>
      </trkpt>
      <trkpt lat="45.1876" lon="5.91192">
        <ele>1363</ele>
        <time>2021-02-20T06:44:28Z</time>
      </trkpt>
      <trkpt lat="45.18759" lon="5.91193">
        <ele>1363.2</ele>
        <time>2021-02-20T06:44:29Z</time>
      </trkpt>
      <trkpt lat="45.18758" lon="5.91194">
        <ele>1363.4</ele>
        <time>2021-02-20T06:44:30Z</time>
      </trkpt>
      <trkpt lat="45.18757" lon="5.91195">
        <ele>1363.5</ele>
        <time>2021-02-20T06:44:31Z</time>
      </trkpt>
      <trkpt lat="45.18757" lon="5.91196">
        <ele>1363.7</ele>
        <time>2021-02-20T06:44:32Z</time>
      </trkpt>
      <trkpt lat="45.18756" lon="5.91197">
        <ele>1363.9</ele>
        <time>2021-02-20T06:44:33Z</time>
      </trkpt>
      <trkpt lat="45.18756" lon="5.91198">
        <ele>1364</ele>
        <time>2021-02-20T06:44:34Z</time>
      </trkpt>
      <trkpt lat="45.18755" lon="5.91199">
        <ele>1364.1</ele>
        <time>2021-02-20T06:44:35Z</time>
      </trkpt>
      <trkpt lat="45.18755" lon="5.91199">
        <ele>1364.2</ele>
        <time>2021-02-20T06:44:36Z</time>
      </trkpt>
      <trkpt lat="45.18754" lon="5.91199">
        <ele>1364.3</ele>
        <time>2021-02-20T06:44:37Z</time>
      </trkpt>
      <trkpt lat="45.18753" lon="5.91199">
        <ele>1364.5</ele>
        <time>2021-02-20T06:44:38Z</time>
      </trkpt>
      <trkpt lat="45.18753" lon="5.91199">
        <ele>1364.6</ele>
        <time>2021-02-20T06:44:39Z</time>
      </trkpt>
      <trkpt lat="45.18752" lon="5.912">
        <ele>1364.7</ele>
        <time>2021-02-20T06:44:40Z</time>
      </trkpt>
      <trkpt lat="45.18751" lon="5.91201">
        <ele>1365</ele>
        <time>2021-02-20T06:44:41Z</time>
      </trkpt>
      <trkpt lat="45.18751" lon="5.91202">
        <ele>1365.1</ele>
        <time>2021-02-20T06:44:42Z</time>
      </trkpt>
      <trkpt lat="45.1875" lon="5.91203">
        <ele>1365.3</ele>
        <time>2021-02-20T06:44:43Z</time>
      </trkpt>
      <trkpt lat="45.1875" lon="5.91204">
        <ele>1365.4</ele>
        <time>2021-02-20T06:44:44Z</time>
      </trkpt>
      <trkpt lat="45.1875" lon="5.91206">
        <ele>1365.5</ele>
        <time>2021-02-20T06:44:45Z</time>
      </trkpt>
      <trkpt lat="45.18749" lon="5.91207">
        <ele>1365.7</ele>
        <time>2021-02-20T06:44:46Z</time>
      </trkpt>
      <trkpt lat="45.18749" lon="5.91208">
        <ele>1365.8</ele>
        <time>2021-02-20T06:44:47Z</time>
      </trkpt>
      <trkpt lat="45.18748" lon="5.9121">
        <ele>1366</ele>
        <time>2021-02-20T06:44:48Z</time>
      </trkpt>
      <trkpt lat="45.18748" lon="5.91211">
        <ele>1366.1</ele>
        <time>2021-02-20T06:44:49Z</time>
      </trkpt>
      <trkpt lat="45.18748" lon="5.91212">
        <ele>1366.2</ele>
        <time>2021-02-20T06:44:50Z</time>
      </trkpt>
      <trkpt lat="45.18748" lon="5.91213">
        <ele>1366.3</ele>
        <time>2021-02-20T06:44:51Z</time>
      </trkpt>
      <trkpt lat="45.18748" lon="5.91213">
        <ele>1366.4</ele>
        <time>2021-02-20T06:44:52Z</time>
      </trkpt>
      <trkpt lat="45.18748" lon="5.91214">
        <ele>1366.5</ele>
        <time>2021-02-20T06:44:53Z</time>
      </trkpt>
      <trkpt lat="45.18747" lon="5.91215">
        <ele>1366.6</ele>
        <time>2021-02-20T06:44:54Z</time>
      </trkpt>
      <trkpt lat="45.18746" lon="5.91215">
        <ele>1366.7</ele>
        <time>2021-02-20T06:44:55Z</time>
      </trkpt>
      <trkpt lat="45.18745" lon="5.91217">
        <ele>1366.9</ele>
        <time>2021-02-20T06:44:56Z</time>
      </trkpt>
      <trkpt lat="45.18744" lon="5.91217">
        <ele>1367.1</ele>
        <time>2021-02-20T06:44:57Z</time>
      </trkpt>
      <trkpt lat="45.18743" lon="5.91218">
        <ele>1367.2</ele>
        <time>2021-02-20T06:44:58Z</time>
      </trkpt>
      <trkpt lat="45.18742" lon="5.91218">
        <ele>1367.3</ele>
        <time>2021-02-20T06:44:59Z</time>
      </trkpt>
      <trkpt lat="45.18742" lon="5.91219">
        <ele>1367.4</ele>
        <time>2021-02-20T06:45:00Z</time>
      </trkpt>
      <trkpt lat="45.18741" lon="5.9122">
        <ele>1367.5</ele>
        <time>2021-02-20T06:45:01Z</time>
      </trkpt>
      <trkpt lat="45.1874" lon="5.9122">
        <ele>1367.6</ele>
        <time>2021-02-20T06:45:02Z</time>
      </trkpt>
      <trkpt lat="45.1874" lon="5.91221">
        <ele>1367.6</ele>
        <time>2021-02-20T06:45:03Z</time>
      </trkpt>
      <trkpt lat="45.1874" lon="5.91221">
        <ele>1367.7</ele>
        <time>2021-02-20T06:45:04Z</time>
      </trkpt>
      <trkpt lat="45.18739" lon="5.91221">
        <ele>1367.7</ele>
        <time>2021-02-20T06:45:05Z</time>
      </trkpt>
      <trkpt lat="45.18739" lon="5.91221">
        <ele>1367.8</ele>
        <time>2021-02-20T06:45:06Z</time>
      </trkpt>
      <trkpt lat="45.18738" lon="5.91222">
        <ele>1367.9</ele>
        <time>2021-02-20T06:45:07Z</time>
      </trkpt>
      <trkpt lat="45.18737" lon="5.91223">
        <ele>1368</ele>
        <time>2021-02-20T06:45:08Z</time>
      </trkpt>
      <trkpt lat="45.18737" lon="5.91223">
        <ele>1368.1</ele>
        <time>2021-02-20T06:45:09Z</time>
      </trkpt>
      <trkpt lat="45.18736" lon="5.91223">
        <ele>1368.1</ele>
        <time>2021-02-20T06:45:10Z</time>
      </trkpt>
      <trkpt lat="45.18735" lon="5.91224">
        <ele>1368.2</ele>
        <time>2021-02-20T06:45:11Z</time>
      </trkpt>
      <trkpt lat="45.18734" lon="5.91226">
        <ele>1368.5</ele>
        <time>2021-02-20T06:45:12Z</time>
      </trkpt>
      <trkpt lat="45.18733" lon="5.91227">
        <ele>1368.6</ele>
        <time>2021-02-20T06:45:13Z</time>
      </trkpt>
      <trkpt lat="45.18733" lon="5.91228">
        <ele>1368.6</ele>
        <time>2021-02-20T06:45:14Z</time>
      </trkpt>
      <trkpt lat="45.18732" lon="5.9123">
        <ele>1368.8</ele>
        <time>2021-02-20T06:45:15Z</time>
      </trkpt>
      <trkpt lat="45.18731" lon="5.91231">
        <ele>1368.9</ele>
        <time>2021-02-20T06:45:16Z</time>
      </trkpt>
      <trkpt lat="45.18731" lon="5.91232">
        <ele>1369</ele>
        <time>2021-02-20T06:45:17Z</time>
      </trkpt>
      <trkpt lat="45.18731" lon="5.91233">
        <ele>1369</ele>
        <time>2021-02-20T06:45:18Z</time>
      </trkpt>
      <trkpt lat="45.18731" lon="5.91234">
        <ele>1369.1</ele>
        <time>2021-02-20T06:45:19Z</time>
      </trkpt>
      <trkpt lat="45.1873" lon="5.91236">
        <ele>1369.1</ele>
        <time>2021-02-20T06:45:20Z</time>
      </trkpt>
      <trkpt lat="45.18729" lon="5.91236">
        <ele>1369.2</ele>
        <time>2021-02-20T06:45:21Z</time>
      </trkpt>
      <trkpt lat="45.18729" lon="5.91237">
        <ele>1369.2</ele>
        <time>2021-02-20T06:45:22Z</time>
      </trkpt>
      <trkpt lat="45.18729" lon="5.91237">
        <ele>1369.3</ele>
        <time>2021-02-20T06:45:23Z</time>
      </trkpt>
      <trkpt lat="45.18728" lon="5.91238">
        <ele>1369.3</ele>
        <time>2021-02-20T06:45:24Z</time>
      </trkpt>
      <trkpt lat="45.18727" lon="5.91238">
        <ele>1369.4</ele>
        <time>2021-02-20T06:45:25Z</time>
      </trkpt>
      <trkpt lat="45.18727" lon="5.91239">
        <ele>1369.4</ele>
        <time>2021-02-20T06:45:26Z</time>
      </trkpt>
      <trkpt lat="45.18726" lon="5.91239">
        <ele>1369.4</ele>
        <time>2021-02-20T06:45:27Z</time>
      </trkpt>
      <trkpt lat="45.18726" lon="5.91239">
        <ele>1369.4</ele>
        <time>2021-02-20T06:45:28Z</time>
      </trkpt>
      <trkpt lat="45.18726" lon="5.91239">
        <ele>1369.4</ele>
        <time>2021-02-20T06:45:29Z</time>
      </trkpt>
      <trkpt lat="45.18726" lon="5.91239">
        <ele>1369.4</ele>
        <time>2021-02-20T06:45:30Z</time>
      </trkpt>
      <trkpt lat="45.18724" lon="5.91241">
        <ele>1369.6</ele>
        <time>2021-02-20T06:45:31Z</time>
      </trkpt>
      <trkpt lat="45.18724" lon="5.91242">
        <ele>1369.6</ele>
        <time>2021-02-20T06:45:32Z</time>
      </trkpt>
      <trkpt lat="45.18723" lon="5.91244">
        <ele>1369.7</ele>
        <time>2021-02-20T06:45:33Z</time>
      </trkpt>
      <trkpt lat="45.18722" lon="5.91245">
        <ele>1369.7</ele>
        <time>2021-02-20T06:45:34Z</time>
      </trkpt>
      <trkpt lat="45.18721" lon="5.91246">
        <ele>1369.8</ele>
        <time>2021-02-20T06:45:35Z</time>
      </trkpt>
      <trkpt lat="45.1872" lon="5.91248">
        <ele>1369.8</ele>
        <time>2021-02-20T06:45:36Z</time>
      </trkpt>
      <trkpt lat="45.1872" lon="5.91249">
        <ele>1369.9</ele>
        <time>2021-02-20T06:45:37Z</time>
      </trkpt>
      <trkpt lat="45.18719" lon="5.91251">
        <ele>1369.9</ele>
        <time>2021-02-20T06:45:38Z</time>
      </trkpt>
      <trkpt lat="45.18718" lon="5.91252">
        <ele>1369.9</ele>
        <time>2021-02-20T06:45:39Z</time>
      </trkpt>
      <trkpt lat="45.18718" lon="5.91253">
        <ele>1370</ele>
        <time>2021-02-20T06:45:40Z</time>
      </trkpt>
      <trkpt lat="45.18717" lon="5.91254">
        <ele>1370</ele>
        <time>2021-02-20T06:45:41Z</time>
      </trkpt>
      <trkpt lat="45.18716" lon="5.91255">
        <ele>1370</ele>
        <time>2021-02-20T06:45:42Z</time>
      </trkpt>
      <trkpt lat="45.18716" lon="5.91257">
        <ele>1370.1</ele>
        <time>2021-02-20T06:45:43Z</time>
      </trkpt>
      <trkpt lat="45.18715" lon="5.91258">
        <ele>1370.1</ele>
        <time>2021-02-20T06:45:44Z</time>
      </trkpt>
      <trkpt lat="45.18715" lon="5.91259">
        <ele>1370.1</ele>
        <time>2021-02-20T06:45:45Z</time>
      </trkpt>
      <trkpt lat="45.18714" lon="5.91259">
        <ele>1370.1</ele>
        <time>2021-02-20T06:45:46Z</time>
      </trkpt>
      <trkpt lat="45.18713" lon="5.9126">
        <ele>1370.2</ele>
        <time>2021-02-20T06:45:47Z</time>
      </trkpt>
      <trkpt lat="45.18713" lon="5.91262">
        <ele>1370.2</ele>
        <time>2021-02-20T06:45:48Z</time>
      </trkpt>
      <trkpt lat="45.18712" lon="5.91263">
        <ele>1370.2</ele>
        <time>2021-02-20T06:45:49Z</time>
      </trkpt>
      <trkpt lat="45.18711" lon="5.91264">
        <ele>1370.3</ele>
        <time>2021-02-20T06:45:50Z</time>
      </trkpt>
      <trkpt lat="45.18711" lon="5.91265">
        <ele>1370.3</ele>
        <time>2021-02-20T06:45:51Z</time>
      </trkpt>
      <trkpt lat="45.1871" lon="5.91266">
        <ele>1370.3</ele>
        <time>2021-02-20T06:45:52Z</time>
      </trkpt>
      <trkpt lat="45.18709" lon="5.91267">
        <ele>1370.3</ele>
        <time>2021-02-20T06:45:53Z</time>
      </trkpt>
      <trkpt lat="45.18709" lon="5.91268">
        <ele>1370.4</ele>
        <time>2021-02-20T06:45:54Z</time>
      </trkpt>
      <trkpt lat="45.18708" lon="5.9127">
        <ele>1370.4</ele>
        <time>2021-02-20T06:45:55Z</time>
      </trkpt>
      <trkpt lat="45.18707" lon="5.91271">
        <ele>1370.4</ele>
        <time>2021-02-20T06:45:56Z</time>
      </trkpt>
      <trkpt lat="45.18707" lon="5.91272">
        <ele>1370.5</ele>
        <time>2021-02-20T06:45:57Z</time>
      </trkpt>
      <trkpt lat="45.18706" lon="5.91272">
        <ele>1370.5</ele>
        <time>2021-02-20T06:45:58Z</time>
      </trkpt>
      <trkpt lat="45.18706" lon="5.91273">
        <ele>1370.5</ele>
        <time>2021-02-20T06:45:59Z</time>
      </trkpt>
      <trkpt lat="45.18705" lon="5.91274">
        <ele>1370.5</ele>
        <time>2021-02-20T06:46:00Z</time>
      </trkpt>
      <trkpt lat="45.18704" lon="5.91274">
        <ele>1370.6</ele>
        <time>2021-02-20T06:46:01Z</time>
      </trkpt>
      <trkpt lat="45.18704" lon="5.91275">
        <ele>1370.6</ele>
        <time>2021-02-20T06:46:02Z</time>
      </trkpt>
      <trkpt lat="45.18703" lon="5.91277">
        <ele>1370.6</ele>
        <time>2021-02-20T06:46:03Z</time>
      </trkpt>
      <trkpt lat="45.18702" lon="5.91278">
        <ele>1370.7</ele>
        <time>2021-02-20T06:46:04Z</time>
      </trkpt>
      <trkpt lat="45.18701" lon="5.91279">
        <ele>1370.7</ele>
        <time>2021-02-20T06:46:05Z</time>
      </trkpt>
      <trkpt lat="45.18701" lon="5.9128">
        <ele>1370.7</ele>
        <time>2021-02-20T06:46:06Z</time>
      </trkpt>
      <trkpt lat="45.187" lon="5.91281">
        <ele>1370.7</ele>
        <time>2021-02-20T06:46:07Z</time>
      </trkpt>
      <trkpt lat="45.187" lon="5.91282">
        <ele>1370.8</ele>
        <time>2021-02-20T06:46:08Z</time>
      </trkpt>
      <trkpt lat="45.18699" lon="5.91284">
        <ele>1370.8</ele>
        <time>2021-02-20T06:46:09Z</time>
      </trkpt>
      <trkpt lat="45.18699" lon="5.91285">
        <ele>1370.9</ele>
        <time>2021-02-20T06:46:10Z</time>
      </trkpt>
      <trkpt lat="45.18698" lon="5.91286">
        <ele>1370.9</ele>
        <time>2021-02-20T06:46:11Z</time>
      </trkpt>
      <trkpt lat="45.18697" lon="5.91288">
        <ele>1371</ele>
        <time>2021-02-20T06:46:12Z</time>
      </trkpt>
      <trkpt lat="45.18696" lon="5.91289">
        <ele>1371</ele>
        <time>2021-02-20T06:46:13Z</time>
      </trkpt>
      <trkpt lat="45.18695" lon="5.9129">
        <ele>1371.1</ele>
        <time>2021-02-20T06:46:14Z</time>
      </trkpt>
      <trkpt lat="45.18695" lon="5.9129">
        <ele>1371.1</ele>
        <time>2021-02-20T06:46:15Z</time>
      </trkpt>
      <trkpt lat="45.18694" lon="5.91292">
        <ele>1371.2</ele>
        <time>2021-02-20T06:46:16Z</time>
      </trkpt>
      <trkpt lat="45.18693" lon="5.91293">
        <ele>1371.3</ele>
        <time>2021-02-20T06:46:17Z</time>
      </trkpt>
      <trkpt lat="45.18692" lon="5.91293">
        <ele>1371.3</ele>
        <time>2021-02-20T06:46:18Z</time>
      </trkpt>
      <trkpt lat="45.18692" lon="5.91294">
        <ele>1371.4</ele>
        <time>2021-02-20T06:46:19Z</time>
      </trkpt>
      <trkpt lat="45.18691" lon="5.91295">
        <ele>1371.5</ele>
        <time>2021-02-20T06:46:20Z</time>
      </trkpt>
      <trkpt lat="45.1869" lon="5.91296">
        <ele>1371.5</ele>
        <time>2021-02-20T06:46:21Z</time>
      </trkpt>
      <trkpt lat="45.18689" lon="5.91297">
        <ele>1371.6</ele>
        <time>2021-02-20T06:46:22Z</time>
      </trkpt>
      <trkpt lat="45.18689" lon="5.91297">
        <ele>1371.6</ele>
        <time>2021-02-20T06:46:23Z</time>
      </trkpt>
      <trkpt lat="45.18688" lon="5.91298">
        <ele>1371.7</ele>
        <time>2021-02-20T06:46:24Z</time>
      </trkpt>
      <trkpt lat="45.18688" lon="5.91299">
        <ele>1371.8</ele>
        <time>2021-02-20T06:46:25Z</time>
      </trkpt>
      <trkpt lat="45.18687" lon="5.91299">
        <ele>1371.8</ele>
        <time>2021-02-20T06:46:26Z</time>
      </trkpt>
      <trkpt lat="45.18686" lon="5.913">
        <ele>1371.9</ele>
        <time>2021-02-20T06:46:27Z</time>
      </trkpt>
      <trkpt lat="45.18685" lon="5.913">
        <ele>1372</ele>
        <time>2021-02-20T06:46:28Z</time>
      </trkpt>
      <trkpt lat="45.18684" lon="5.913">
        <ele>1372.1</ele>
        <time>2021-02-20T06:46:29Z</time>
      </trkpt>
      <trkpt lat="45.18683" lon="5.913">
        <ele>1372.1</ele>
        <time>2021-02-20T06:46:30Z</time>
      </trkpt>
      <trkpt lat="45.18683" lon="5.913">
        <ele>1372.2</ele>
        <time>2021-02-20T06:46:31Z</time>
      </trkpt>
      <trkpt lat="45.18682" lon="5.91301">
        <ele>1372.2</ele>
        <time>2021-02-20T06:46:32Z</time>
      </trkpt>
      <trkpt lat="45.18681" lon="5.91301">
        <ele>1372.3</ele>
        <time>2021-02-20T06:46:33Z</time>
      </trkpt>
      <trkpt lat="45.1868" lon="5.91301">
        <ele>1372.4</ele>
        <time>2021-02-20T06:46:34Z</time>
      </trkpt>
      <trkpt lat="45.18679" lon="5.91301">
        <ele>1372.5</ele>
        <time>2021-02-20T06:46:35Z</time>
      </trkpt>
      <trkpt lat="45.18678" lon="5.91301">
        <ele>1372.6</ele>
        <time>2021-02-20T06:46:36Z</time>
      </trkpt>
      <trkpt lat="45.18677" lon="5.91301">
        <ele>1372.7</ele>
        <time>2021-02-20T06:46:37Z</time>
      </trkpt>
      <trkpt lat="45.18676" lon="5.91302">
        <ele>1372.8</ele>
        <time>2021-02-20T06:46:38Z</time>
      </trkpt>
      <trkpt lat="45.18675" lon="5.91302">
        <ele>1372.9</ele>
        <time>2021-02-20T06:46:39Z</time>
      </trkpt>
      <trkpt lat="45.18674" lon="5.91302">
        <ele>1373</ele>
        <time>2021-02-20T06:46:40Z</time>
      </trkpt>
      <trkpt lat="45.18674" lon="5.91303">
        <ele>1373.1</ele>
        <time>2021-02-20T06:46:41Z</time>
      </trkpt>
      <trkpt lat="45.18673" lon="5.91303">
        <ele>1373.1</ele>
        <time>2021-02-20T06:46:42Z</time>
      </trkpt>
      <trkpt lat="45.18672" lon="5.91303">
        <ele>1373.2</ele>
        <time>2021-02-20T06:46:43Z</time>
      </trkpt>
      <trkpt lat="45.18672" lon="5.91304">
        <ele>1373.3</ele>
        <time>2021-02-20T06:46:44Z</time>
      </trkpt>
      <trkpt lat="45.18671" lon="5.91305">
        <ele>1373.4</ele>
        <time>2021-02-20T06:46:45Z</time>
      </trkpt>
      <trkpt lat="45.1867" lon="5.91306">
        <ele>1373.5</ele>
        <time>2021-02-20T06:46:46Z</time>
      </trkpt>
      <trkpt lat="45.18669" lon="5.91306">
        <ele>1373.6</ele>
        <time>2021-02-20T06:46:47Z</time>
      </trkpt>
      <trkpt lat="45.18669" lon="5.91306">
        <ele>1373.8</ele>
        <time>2021-02-20T06:46:48Z</time>
      </trkpt>
      <trkpt lat="45.18668" lon="5.91307">
        <ele>1373.9</ele>
        <time>2021-02-20T06:46:49Z</time>
      </trkpt>
      <trkpt lat="45.18668" lon="5.91307">
        <ele>1374</ele>
        <time>2021-02-20T06:46:50Z</time>
      </trkpt>
      <trkpt lat="45.18667" lon="5.91307">
        <ele>1374.1</ele>
        <time>2021-02-20T06:46:51Z</time>
      </trkpt>
      <trkpt lat="45.18666" lon="5.91307">
        <ele>1374.2</ele>
        <time>2021-02-20T06:46:52Z</time>
      </trkpt>
      <trkpt lat="45.18666" lon="5.91307">
        <ele>1374.2</ele>
        <time>2021-02-20T06:46:53Z</time>
      </trkpt>
      <trkpt lat="45.18665" lon="5.91307">
        <ele>1374.3</ele>
        <time>2021-02-20T06:46:54Z</time>
      </trkpt>
      <trkpt lat="45.18665" lon="5.91307">
        <ele>1374.4</ele>
        <time>2021-02-20T06:46:55Z</time>
      </trkpt>
      <trkpt lat="45.18664" lon="5.91306">
        <ele>1374.5</ele>
        <time>2021-02-20T06:46:56Z</time>
      </trkpt>
      <trkpt lat="45.18664" lon="5.91306">
        <ele>1374.5</ele>
        <time>2021-02-20T06:46:57Z</time>
      </trkpt>
      <trkpt lat="45.18663" lon="5.91306">
        <ele>1374.6</ele>
        <time>2021-02-20T06:46:58Z</time>
      </trkpt>
      <trkpt lat="45.18663" lon="5.91307">
        <ele>1374.6</ele>
        <time>2021-02-20T06:46:59Z</time>
      </trkpt>
      <trkpt lat="45.18663" lon="5.91307">
        <ele>1374.6</ele>
        <time>2021-02-20T06:47:00Z</time>
      </trkpt>
      <trkpt lat="45.18663" lon="5.91307">
        <ele>1374.7</ele>
        <time>2021-02-20T06:47:01Z</time>
      </trkpt>
      <trkpt lat="45.18662" lon="5.91307">
        <ele>1374.9</ele>
        <time>2021-02-20T06:47:02Z</time>
      </trkpt>
      <trkpt lat="45.18661" lon="5.91307">
        <ele>1375</ele>
        <time>2021-02-20T06:47:03Z</time>
      </trkpt>
      <trkpt lat="45.1866" lon="5.91306">
        <ele>1375.1</ele>
        <time>2021-02-20T06:47:04Z</time>
      </trkpt>
      <trkpt lat="45.18659" lon="5.91306">
        <ele>1375.2</ele>
        <time>2021-02-20T06:47:05Z</time>
      </trkpt>
      <trkpt lat="45.18658" lon="5.91306">
        <ele>1375.3</ele>
        <time>2021-02-20T06:47:06Z</time>
      </trkpt>
      <trkpt lat="45.18658" lon="5.91306">
        <ele>1375.4</ele>
        <time>2021-02-20T06:47:07Z</time>
      </trkpt>
      <trkpt lat="45.18657" lon="5.91306">
        <ele>1375.6</ele>
        <time>2021-02-20T06:47:08Z</time>
      </trkpt>
      <trkpt lat="45.18656" lon="5.91306">
        <ele>1375.7</ele>
        <time>2021-02-20T06:47:09Z</time>
      </trkpt>
      <trkpt lat="45.18655" lon="5.91307">
        <ele>1375.9</ele>
        <time>2021-02-20T06:47:10Z</time>
      </trkpt>
      <trkpt lat="45.18653" lon="5.91307">
        <ele>1376</ele>
        <time>2021-02-20T06:47:11Z</time>
      </trkpt>
      <trkpt lat="45.18652" lon="5.91307">
        <ele>1376.2</ele>
        <time>2021-02-20T06:47:12Z</time>
      </trkpt>
      <trkpt lat="45.18652" lon="5.91307">
        <ele>1376.3</ele>
        <time>2021-02-20T06:47:13Z</time>
      </trkpt>
      <trkpt lat="45.18651" lon="5.91308">
        <ele>1376.4</ele>
        <time>2021-02-20T06:47:14Z</time>
      </trkpt>
      <trkpt lat="45.1865" lon="5.91308">
        <ele>1376.5</ele>
        <time>2021-02-20T06:47:15Z</time>
      </trkpt>
      <trkpt lat="45.18649" lon="5.91309">
        <ele>1376.6</ele>
        <time>2021-02-20T06:47:16Z</time>
      </trkpt>
      <trkpt lat="45.18649" lon="5.91309">
        <ele>1376.7</ele>
        <time>2021-02-20T06:47:17Z</time>
      </trkpt>
      <trkpt lat="45.18648" lon="5.9131">
        <ele>1376.8</ele>
        <time>2021-02-20T06:47:18Z</time>
      </trkpt>
      <trkpt lat="45.18647" lon="5.9131">
        <ele>1377</ele>
        <time>2021-02-20T06:47:19Z</time>
      </trkpt>
      <trkpt lat="45.18646" lon="5.9131">
        <ele>1377.1</ele>
        <time>2021-02-20T06:47:20Z</time>
      </trkpt>
      <trkpt lat="45.18645" lon="5.9131">
        <ele>1377.2</ele>
        <time>2021-02-20T06:47:21Z</time>
      </trkpt>
      <trkpt lat="45.18645" lon="5.9131">
        <ele>1377.2</ele>
        <time>2021-02-20T06:47:22Z</time>
      </trkpt>
      <trkpt lat="45.18644" lon="5.91309">
        <ele>1377.3</ele>
        <time>2021-02-20T06:47:23Z</time>
      </trkpt>
      <trkpt lat="45.18643" lon="5.91309">
        <ele>1377.4</ele>
        <time>2021-02-20T06:47:24Z</time>
      </trkpt>
      <trkpt lat="45.18642" lon="5.91309">
        <ele>1377.6</ele>
        <time>2021-02-20T06:47:25Z</time>
      </trkpt>
      <trkpt lat="45.18641" lon="5.91308">
        <ele>1377.7</ele>
        <time>2021-02-20T06:47:26Z</time>
      </trkpt>
      <trkpt lat="45.1864" lon="5.91307">
        <ele>1377.8</ele>
        <time>2021-02-20T06:47:27Z</time>
      </trkpt>
      <trkpt lat="45.1864" lon="5.91307">
        <ele>1377.9</ele>
        <time>2021-02-20T06:47:28Z</time>
      </trkpt>
      <trkpt lat="45.18639" lon="5.91307">
        <ele>1378</ele>
        <time>2021-02-20T06:47:29Z</time>
      </trkpt>
      <trkpt lat="45.18638" lon="5.91307">
        <ele>1378.1</ele>
        <time>2021-02-20T06:47:30Z</time>
      </trkpt>
      <trkpt lat="45.18637" lon="5.91307">
        <ele>1378.2</ele>
        <time>2021-02-20T06:47:31Z</time>
      </trkpt>
      <trkpt lat="45.18636" lon="5.91308">
        <ele>1378.4</ele>
        <time>2021-02-20T06:47:32Z</time>
      </trkpt>
      <trkpt lat="45.18635" lon="5.91308">
        <ele>1378.5</ele>
        <time>2021-02-20T06:47:33Z</time>
      </trkpt>
      <trkpt lat="45.18635" lon="5.91309">
        <ele>1378.5</ele>
        <time>2021-02-20T06:47:34Z</time>
      </trkpt>
      <trkpt lat="45.18634" lon="5.91309">
        <ele>1378.6</ele>
        <time>2021-02-20T06:47:35Z</time>
      </trkpt>
      <trkpt lat="45.18634" lon="5.91309">
        <ele>1378.7</ele>
        <time>2021-02-20T06:47:36Z</time>
      </trkpt>
      <trkpt lat="45.18633" lon="5.91309">
        <ele>1378.8</ele>
        <time>2021-02-20T06:47:37Z</time>
      </trkpt>
      <trkpt lat="45.18632" lon="5.91309">
        <ele>1378.9</ele>
        <time>2021-02-20T06:47:38Z</time>
      </trkpt>
      <trkpt lat="45.18631" lon="5.91309">
        <ele>1379</ele>
        <time>2021-02-20T06:47:39Z</time>
      </trkpt>
      <trkpt lat="45.18631" lon="5.91309">
        <ele>1379.1</ele>
        <time>2021-02-20T06:47:40Z</time>
      </trkpt>
      <trkpt lat="45.1863" lon="5.91309">
        <ele>1379.1</ele>
        <time>2021-02-20T06:47:41Z</time>
      </trkpt>
      <trkpt lat="45.18629" lon="5.91309">
        <ele>1379.2</ele>
        <time>2021-02-20T06:47:42Z</time>
      </trkpt>
      <trkpt lat="45.18629" lon="5.91309">
        <ele>1379.3</ele>
        <time>2021-02-20T06:47:43Z</time>
      </trkpt>
      <trkpt lat="45.18628" lon="5.91309">
        <ele>1379.3</ele>
        <time>2021-02-20T06:47:44Z</time>
      </trkpt>
      <trkpt lat="45.18628" lon="5.91309">
        <ele>1379.3</ele>
        <time>2021-02-20T06:47:45Z</time>
      </trkpt>
      <trkpt lat="45.18628" lon="5.91309">
        <ele>1379.3</ele>
        <time>2021-02-20T06:47:46Z</time>
      </trkpt>
      <trkpt lat="45.18628" lon="5.9131">
        <ele>1379.3</ele>
        <time>2021-02-20T06:47:47Z</time>
      </trkpt>
      <trkpt lat="45.18628" lon="5.9131">
        <ele>1379.4</ele>
        <time>2021-02-20T06:47:48Z</time>
      </trkpt>
      <trkpt lat="45.18628" lon="5.9131">
        <ele>1379.4</ele>
        <time>2021-02-20T06:47:49Z</time>
      </trkpt>
      <trkpt lat="45.18628" lon="5.9131">
        <ele>1379.4</ele>
        <time>2021-02-20T06:47:50Z</time>
      </trkpt>
      <trkpt lat="45.18624" lon="5.91301">
        <ele>1380.2</ele>
        <time>2021-02-20T06:48:14Z</time>
      </trkpt>
      <trkpt lat="45.18624" lon="5.91301">
        <ele>1380.2</ele>
        <time>2021-02-20T06:48:15Z</time>
      </trkpt>
      <trkpt lat="45.18624" lon="5.91301">
        <ele>1380.2</ele>
        <time>2021-02-20T06:48:16Z</time>
      </trkpt>
      <trkpt lat="45.18624" lon="5.91301">
        <ele>1380.2</ele>
        <time>2021-02-20T06:48:17Z</time>
      </trkpt>
      <trkpt lat="45.18624" lon="5.91301">
        <ele>1380.2</ele>
        <time>2021-02-20T06:48:18Z</time>
      </trkpt>
      <trkpt lat="45.18624" lon="5.91301">
        <ele>1380.2</ele>
        <time>2021-02-20T06:48:19Z</time>
      </trkpt>
      <trkpt lat="45.18624" lon="5.91301">
        <ele>1380.3</ele>
        <time>2021-02-20T06:48:20Z</time>
      </trkpt>
      <trkpt lat="45.18624" lon="5.91301">
        <ele>1380.3</ele>
        <time>2021-02-20T06:48:21Z</time>
      </trkpt>
      <trkpt lat="45.18624" lon="5.91301">
        <ele>1380.3</ele>
        <time>2021-02-20T06:48:22Z</time>
      </trkpt>
      <trkpt lat="45.18624" lon="5.91301">
        <ele>1380.3</ele>
        <time>2021-02-20T06:48:23Z</time>
      </trkpt>
      <trkpt lat="45.18623" lon="5.91302">
        <ele>1380.4</ele>
        <time>2021-02-20T06:48:24Z</time>
      </trkpt>
      <trkpt lat="45.18626" lon="5.91297">
        <ele>1380.9</ele>
        <time>2021-02-20T06:48:44Z</time>
      </trkpt>
      <trkpt lat="45.18626" lon="5.91292">
        <ele>1381.2</ele>
        <time>2021-02-20T06:48:45Z</time>
      </trkpt>
      <trkpt lat="45.18627" lon="5.91287">
        <ele>1381.5</ele>
        <time>2021-02-20T06:48:46Z</time>
      </trkpt>
      <trkpt lat="45.18627" lon="5.91288">
        <ele>1381.5</ele>
        <time>2021-02-20T06:48:47Z</time>
      </trkpt>
      <trkpt lat="45.18627" lon="5.9129">
        <ele>1381.6</ele>
        <time>2021-02-20T06:48:48Z</time>
      </trkpt>
      <trkpt lat="45.18626" lon="5.91291">
        <ele>1381.7</ele>
        <time>2021-02-20T06:48:49Z</time>
      </trkpt>
      <trkpt lat="45.18626" lon="5.91293">
        <ele>1381.8</ele>
        <time>2021-02-20T06:48:50Z</time>
      </trkpt>
      <trkpt lat="45.18626" lon="5.91294">
        <ele>1381.9</ele>
        <time>2021-02-20T06:48:51Z</time>
      </trkpt>
      <trkpt lat="45.18625" lon="5.91296">
        <ele>1382</ele>
        <time>2021-02-20T06:48:52Z</time>
      </trkpt>
      <trkpt lat="45.18625" lon="5.91297">
        <ele>1382</ele>
        <time>2021-02-20T06:48:53Z</time>
      </trkpt>
      <trkpt lat="45.18624" lon="5.91298">
        <ele>1382.1</ele>
        <time>2021-02-20T06:48:54Z</time>
      </trkpt>
      <trkpt lat="45.18624" lon="5.91299">
        <ele>1382.2</ele>
        <time>2021-02-20T06:48:55Z</time>
      </trkpt>
      <trkpt lat="45.18623" lon="5.913">
        <ele>1382.3</ele>
        <time>2021-02-20T06:48:56Z</time>
      </trkpt>
      <trkpt lat="45.18623" lon="5.91301">
        <ele>1382.3</ele>
        <time>2021-02-20T06:48:57Z</time>
      </trkpt>
      <trkpt lat="45.18622" lon="5.91301">
        <ele>1382.4</ele>
        <time>2021-02-20T06:48:58Z</time>
      </trkpt>
      <trkpt lat="45.18622" lon="5.91301">
        <ele>1382.4</ele>
        <time>2021-02-20T06:49:53Z</time>
      </trkpt>
      <trkpt lat="45.18622" lon="5.91301">
        <ele>1382.4</ele>
        <time>2021-02-20T06:49:54Z</time>
      </trkpt>
      <trkpt lat="45.18621" lon="5.91302">
        <ele>1382.4</ele>
        <time>2021-02-20T06:49:55Z</time>
      </trkpt>
      <trkpt lat="45.18621" lon="5.91302">
        <ele>1382.5</ele>
        <time>2021-02-20T06:49:56Z</time>
      </trkpt>
      <trkpt lat="45.18621" lon="5.91302">
        <ele>1382.5</ele>
        <time>2021-02-20T06:49:57Z</time>
      </trkpt>
      <trkpt lat="45.1862" lon="5.91302">
        <ele>1382.5</ele>
        <time>2021-02-20T06:49:58Z</time>
      </trkpt>
      <trkpt lat="45.1862" lon="5.91302">
        <ele>1382.6</ele>
        <time>2021-02-20T06:49:59Z</time>
      </trkpt>
      <trkpt lat="45.1862" lon="5.91303">
        <ele>1382.6</ele>
        <time>2021-02-20T06:50:00Z</time>
      </trkpt>
      <trkpt lat="45.18619" lon="5.91303">
        <ele>1382.6</ele>
        <time>2021-02-20T06:50:01Z</time>
      </trkpt>
      <trkpt lat="45.18619" lon="5.91303">
        <ele>1382.6</ele>
        <time>2021-02-20T06:50:02Z</time>
      </trkpt>
      <trkpt lat="45.18619" lon="5.91303">
        <ele>1382.7</ele>
        <time>2021-02-20T06:50:03Z</time>
      </trkpt>
      <trkpt lat="45.18618" lon="5.91303">
        <ele>1382.7</ele>
        <time>2021-02-20T06:51:08Z</time>
      </trkpt>
      <trkpt lat="45.18618" lon="5.91304">
        <ele>1382.7</ele>
        <time>2021-02-20T06:51:09Z</time>
      </trkpt>
      <trkpt lat="45.18618" lon="5.91304">
        <ele>1382.7</ele>
        <time>2021-02-20T06:51:10Z</time>
      </trkpt>
      <trkpt lat="45.18615" lon="5.91304">
        <ele>1382.9</ele>
        <time>2021-02-20T06:51:11Z</time>
      </trkpt>
      <trkpt lat="45.18615" lon="5.91304">
        <ele>1383</ele>
        <time>2021-02-20T06:51:12Z</time>
      </trkpt>
      <trkpt lat="45.18614" lon="5.91305">
        <ele>1383</ele>
        <time>2021-02-20T06:51:13Z</time>
      </trkpt>
      <trkpt lat="45.18612" lon="5.91304">
        <ele>1383.1</ele>
        <time>2021-02-20T06:51:14Z</time>
      </trkpt>
      <trkpt lat="45.18611" lon="5.91304">
        <ele>1383.2</ele>
        <time>2021-02-20T06:51:15Z</time>
      </trkpt>
      <trkpt lat="45.1861" lon="5.91305">
        <ele>1383.3</ele>
        <time>2021-02-20T06:51:16Z</time>
      </trkpt>
      <trkpt lat="45.18608" lon="5.91305">
        <ele>1383.4</ele>
        <time>2021-02-20T06:51:17Z</time>
      </trkpt>
      <trkpt lat="45.18606" lon="5.91306">
        <ele>1383.5</ele>
        <time>2021-02-20T06:51:18Z</time>
      </trkpt>
      <trkpt lat="45.18605" lon="5.91306">
        <ele>1383.6</ele>
        <time>2021-02-20T06:51:19Z</time>
      </trkpt>
      <trkpt lat="45.18604" lon="5.91307">
        <ele>1383.9</ele>
        <time>2021-02-20T06:51:20Z</time>
      </trkpt>
      <trkpt lat="45.18603" lon="5.91307">
        <ele>1384.1</ele>
        <time>2021-02-20T06:51:21Z</time>
      </trkpt>
      <trkpt lat="45.18602" lon="5.91308">
        <ele>1384.2</ele>
        <time>2021-02-20T06:51:22Z</time>
      </trkpt>
      <trkpt lat="45.18601" lon="5.91308">
        <ele>1384.4</ele>
        <time>2021-02-20T06:51:23Z</time>
      </trkpt>
      <trkpt lat="45.18601" lon="5.91308">
        <ele>1384.5</ele>
        <time>2021-02-20T06:51:24Z</time>
      </trkpt>
      <trkpt lat="45.186" lon="5.91309">
        <ele>1384.6</ele>
        <time>2021-02-20T06:51:25Z</time>
      </trkpt>
      <trkpt lat="45.18599" lon="5.91309">
        <ele>1384.7</ele>
        <time>2021-02-20T06:51:26Z</time>
      </trkpt>
      <trkpt lat="45.18598" lon="5.9131">
        <ele>1384.8</ele>
        <time>2021-02-20T06:51:27Z</time>
      </trkpt>
      <trkpt lat="45.18598" lon="5.91311">
        <ele>1384.9</ele>
        <time>2021-02-20T06:51:28Z</time>
      </trkpt>
      <trkpt lat="45.18597" lon="5.91311">
        <ele>1385</ele>
        <time>2021-02-20T06:51:29Z</time>
      </trkpt>
      <trkpt lat="45.18597" lon="5.91311">
        <ele>1385</ele>
        <time>2021-02-20T06:51:30Z</time>
      </trkpt>
      <trkpt lat="45.18597" lon="5.91311">
        <ele>1385</ele>
        <time>2021-02-20T06:51:31Z</time>
      </trkpt>
      <trkpt lat="45.18597" lon="5.91311">
        <ele>1385</ele>
        <time>2021-02-20T06:51:32Z</time>
      </trkpt>
      <trkpt lat="45.18597" lon="5.91311">
        <ele>1385</ele>
        <time>2021-02-20T06:51:33Z</time>
      </trkpt>
      <trkpt lat="45.18596" lon="5.91311">
        <ele>1385.1</ele>
        <time>2021-02-20T06:51:34Z</time>
      </trkpt>
      <trkpt lat="45.18595" lon="5.91311">
        <ele>1385.3</ele>
        <time>2021-02-20T06:51:35Z</time>
      </trkpt>
      <trkpt lat="45.18594" lon="5.91312">
        <ele>1385.4</ele>
        <time>2021-02-20T06:51:36Z</time>
      </trkpt>
      <trkpt lat="45.18594" lon="5.91312">
        <ele>1385.5</ele>
        <time>2021-02-20T06:51:37Z</time>
      </trkpt>
      <trkpt lat="45.18593" lon="5.91312">
        <ele>1385.5</ele>
        <time>2021-02-20T06:51:38Z</time>
      </trkpt>
      <trkpt lat="45.18593" lon="5.91313">
        <ele>1385.6</ele>
        <time>2021-02-20T06:51:39Z</time>
      </trkpt>
      <trkpt lat="45.18593" lon="5.91314">
        <ele>1385.7</ele>
        <time>2021-02-20T06:51:40Z</time>
      </trkpt>
      <trkpt lat="45.18592" lon="5.91314">
        <ele>1385.8</ele>
        <time>2021-02-20T06:51:41Z</time>
      </trkpt>
      <trkpt lat="45.18591" lon="5.91315">
        <ele>1386</ele>
        <time>2021-02-20T06:51:42Z</time>
      </trkpt>
      <trkpt lat="45.1859" lon="5.91316">
        <ele>1386.2</ele>
        <time>2021-02-20T06:51:43Z</time>
      </trkpt>
      <trkpt lat="45.1859" lon="5.91317">
        <ele>1386.3</ele>
        <time>2021-02-20T06:51:44Z</time>
      </trkpt>
      <trkpt lat="45.18589" lon="5.91318">
        <ele>1386.4</ele>
        <time>2021-02-20T06:51:45Z</time>
      </trkpt>
      <trkpt lat="45.18588" lon="5.91318">
        <ele>1386.6</ele>
        <time>2021-02-20T06:51:46Z</time>
      </trkpt>
      <trkpt lat="45.18587" lon="5.91318">
        <ele>1386.7</ele>
        <time>2021-02-20T06:51:47Z</time>
      </trkpt>
      <trkpt lat="45.18587" lon="5.91319">
        <ele>1386.8</ele>
        <time>2021-02-20T06:51:48Z</time>
      </trkpt>
      <trkpt lat="45.18585" lon="5.9132">
        <ele>1387</ele>
        <time>2021-02-20T06:51:49Z</time>
      </trkpt>
      <trkpt lat="45.18584" lon="5.9132">
        <ele>1387.2</ele>
        <time>2021-02-20T06:51:50Z</time>
      </trkpt>
      <trkpt lat="45.18584" lon="5.91321">
        <ele>1387.3</ele>
        <time>2021-02-20T06:51:51Z</time>
      </trkpt>
      <trkpt lat="45.18583" lon="5.91321">
        <ele>1387.5</ele>
        <time>2021-02-20T06:51:52Z</time>
      </trkpt>
      <trkpt lat="45.18582" lon="5.91322">
        <ele>1387.6</ele>
        <time>2021-02-20T06:51:53Z</time>
      </trkpt>
      <trkpt lat="45.18581" lon="5.91323">
        <ele>1387.8</ele>
        <time>2021-02-20T06:51:54Z</time>
      </trkpt>
      <trkpt lat="45.18581" lon="5.91324">
        <ele>1388</ele>
        <time>2021-02-20T06:51:55Z</time>
      </trkpt>
      <trkpt lat="45.1858" lon="5.91326">
        <ele>1388.2</ele>
        <time>2021-02-20T06:51:56Z</time>
      </trkpt>
      <trkpt lat="45.1858" lon="5.91327">
        <ele>1388.4</ele>
        <time>2021-02-20T06:51:57Z</time>
      </trkpt>
      <trkpt lat="45.18579" lon="5.91328">
        <ele>1388.6</ele>
        <time>2021-02-20T06:51:58Z</time>
      </trkpt>
      <trkpt lat="45.18579" lon="5.91329">
        <ele>1388.7</ele>
        <time>2021-02-20T06:51:59Z</time>
      </trkpt>
      <trkpt lat="45.18579" lon="5.9133">
        <ele>1388.8</ele>
        <time>2021-02-20T06:52:00Z</time>
      </trkpt>
      <trkpt lat="45.18578" lon="5.91331">
        <ele>1389</ele>
        <time>2021-02-20T06:52:01Z</time>
      </trkpt>
      <trkpt lat="45.18578" lon="5.91332">
        <ele>1389.2</ele>
        <time>2021-02-20T06:52:02Z</time>
      </trkpt>
      <trkpt lat="45.18577" lon="5.91333">
        <ele>1389.4</ele>
        <time>2021-02-20T06:52:03Z</time>
      </trkpt>
      <trkpt lat="45.18576" lon="5.91335">
        <ele>1389.6</ele>
        <time>2021-02-20T06:52:04Z</time>
      </trkpt>
      <trkpt lat="45.18576" lon="5.91336">
        <ele>1389.8</ele>
        <time>2021-02-20T06:52:05Z</time>
      </trkpt>
      <trkpt lat="45.18575" lon="5.91337">
        <ele>1390</ele>
        <time>2021-02-20T06:52:06Z</time>
      </trkpt>
      <trkpt lat="45.18575" lon="5.91338">
        <ele>1390.2</ele>
        <time>2021-02-20T06:52:07Z</time>
      </trkpt>
      <trkpt lat="45.18574" lon="5.91339">
        <ele>1390.4</ele>
        <time>2021-02-20T06:52:08Z</time>
      </trkpt>
      <trkpt lat="45.18573" lon="5.9134">
        <ele>1390.6</ele>
        <time>2021-02-20T06:52:09Z</time>
      </trkpt>
      <trkpt lat="45.18573" lon="5.9134">
        <ele>1390.7</ele>
        <time>2021-02-20T06:52:10Z</time>
      </trkpt>
      <trkpt lat="45.18572" lon="5.91341">
        <ele>1390.9</ele>
        <time>2021-02-20T06:52:11Z</time>
      </trkpt>
      <trkpt lat="45.18571" lon="5.91341">
        <ele>1391.1</ele>
        <time>2021-02-20T06:52:12Z</time>
      </trkpt>
      <trkpt lat="45.1857" lon="5.91342">
        <ele>1391.2</ele>
        <time>2021-02-20T06:52:13Z</time>
      </trkpt>
      <trkpt lat="45.1857" lon="5.91343">
        <ele>1391.4</ele>
        <time>2021-02-20T06:52:14Z</time>
      </trkpt>
      <trkpt lat="45.18569" lon="5.91343">
        <ele>1391.6</ele>
        <time>2021-02-20T06:52:15Z</time>
      </trkpt>
      <trkpt lat="45.18568" lon="5.91344">
        <ele>1391.7</ele>
        <time>2021-02-20T06:52:16Z</time>
      </trkpt>
      <trkpt lat="45.18568" lon="5.91345">
        <ele>1391.9</ele>
        <time>2021-02-20T06:52:17Z</time>
      </trkpt>
      <trkpt lat="45.18567" lon="5.91346">
        <ele>1392.2</ele>
        <time>2021-02-20T06:52:18Z</time>
      </trkpt>
      <trkpt lat="45.18566" lon="5.91346">
        <ele>1392.4</ele>
        <time>2021-02-20T06:52:19Z</time>
      </trkpt>
      <trkpt lat="45.18565" lon="5.91347">
        <ele>1392.6</ele>
        <time>2021-02-20T06:52:20Z</time>
      </trkpt>
      <trkpt lat="45.18564" lon="5.91347">
        <ele>1392.7</ele>
        <time>2021-02-20T06:52:21Z</time>
      </trkpt>
      <trkpt lat="45.18564" lon="5.91347">
        <ele>1392.9</ele>
        <time>2021-02-20T06:52:22Z</time>
      </trkpt>
      <trkpt lat="45.18563" lon="5.91348">
        <ele>1393.1</ele>
        <time>2021-02-20T06:52:23Z</time>
      </trkpt>
      <trkpt lat="45.18562" lon="5.91349">
        <ele>1393.3</ele>
        <time>2021-02-20T06:52:24Z</time>
      </trkpt>
      <trkpt lat="45.18561" lon="5.91349">
        <ele>1393.6</ele>
        <time>2021-02-20T06:52:25Z</time>
      </trkpt>
      <trkpt lat="45.1856" lon="5.9135">
        <ele>1393.8</ele>
        <time>2021-02-20T06:52:26Z</time>
      </trkpt>
      <trkpt lat="45.1856" lon="5.91351">
        <ele>1394</ele>
        <time>2021-02-20T06:52:27Z</time>
      </trkpt>
      <trkpt lat="45.18559" lon="5.91351">
        <ele>1394.2</ele>
        <time>2021-02-20T06:52:28Z</time>
      </trkpt>
      <trkpt lat="45.18558" lon="5.91351">
        <ele>1394.4</ele>
        <time>2021-02-20T06:52:29Z</time>
      </trkpt>
      <trkpt lat="45.18557" lon="5.91352">
        <ele>1394.6</ele>
        <time>2021-02-20T06:52:30Z</time>
      </trkpt>
      <trkpt lat="45.18557" lon="5.91352">
        <ele>1394.8</ele>
        <time>2021-02-20T06:52:31Z</time>
      </trkpt>
      <trkpt lat="45.18556" lon="5.91353">
        <ele>1394.9</ele>
        <time>2021-02-20T06:52:32Z</time>
      </trkpt>
      <trkpt lat="45.18555" lon="5.91353">
        <ele>1395.1</ele>
        <time>2021-02-20T06:52:33Z</time>
      </trkpt>
      <trkpt lat="45.18554" lon="5.91353">
        <ele>1395.3</ele>
        <time>2021-02-20T06:52:34Z</time>
      </trkpt>
      <trkpt lat="45.18554" lon="5.91354">
        <ele>1395.5</ele>
        <time>2021-02-20T06:52:35Z</time>
      </trkpt>
      <trkpt lat="45.18553" lon="5.91355">
        <ele>1395.8</ele>
        <time>2021-02-20T06:52:36Z</time>
      </trkpt>
      <trkpt lat="45.18552" lon="5.91355">
        <ele>1395.9</ele>
        <time>2021-02-20T06:52:37Z</time>
      </trkpt>
      <trkpt lat="45.18552" lon="5.91356">
        <ele>1396.1</ele>
        <time>2021-02-20T06:52:38Z</time>
      </trkpt>
      <trkpt lat="45.18551" lon="5.91357">
        <ele>1396.4</ele>
        <time>2021-02-20T06:52:39Z</time>
      </trkpt>
      <trkpt lat="45.1855" lon="5.91358">
        <ele>1396.6</ele>
        <time>2021-02-20T06:52:40Z</time>
      </trkpt>
      <trkpt lat="45.1855" lon="5.91358">
        <ele>1396.8</ele>
        <time>2021-02-20T06:52:41Z</time>
      </trkpt>
      <trkpt lat="45.18549" lon="5.91359">
        <ele>1396.9</ele>
        <time>2021-02-20T06:52:42Z</time>
      </trkpt>
      <trkpt lat="45.18548" lon="5.91359">
        <ele>1397.1</ele>
        <time>2021-02-20T06:52:43Z</time>
      </trkpt>
      <trkpt lat="45.18547" lon="5.9136">
        <ele>1397.3</ele>
        <time>2021-02-20T06:52:44Z</time>
      </trkpt>
      <trkpt lat="45.18547" lon="5.9136">
        <ele>1397.5</ele>
        <time>2021-02-20T06:52:45Z</time>
      </trkpt>
      <trkpt lat="45.18546" lon="5.9136">
        <ele>1397.7</ele>
        <time>2021-02-20T06:52:46Z</time>
      </trkpt>
      <trkpt lat="45.18545" lon="5.91361">
        <ele>1397.9</ele>
        <time>2021-02-20T06:52:47Z</time>
      </trkpt>
      <trkpt lat="45.18544" lon="5.91361">
        <ele>1398.1</ele>
        <time>2021-02-20T06:52:48Z</time>
      </trkpt>
      <trkpt lat="45.18543" lon="5.91361">
        <ele>1398.3</ele>
        <time>2021-02-20T06:52:49Z</time>
      </trkpt>
      <trkpt lat="45.18542" lon="5.91362">
        <ele>1398.4</ele>
        <time>2021-02-20T06:52:50Z</time>
      </trkpt>
      <trkpt lat="45.18542" lon="5.91362">
        <ele>1398.6</ele>
        <time>2021-02-20T06:52:51Z</time>
      </trkpt>
      <trkpt lat="45.18541" lon="5.91363">
        <ele>1398.9</ele>
        <time>2021-02-20T06:52:52Z</time>
      </trkpt>
      <trkpt lat="45.1854" lon="5.91363">
        <ele>1399.1</ele>
        <time>2021-02-20T06:52:53Z</time>
      </trkpt>
      <trkpt lat="45.18539" lon="5.91364">
        <ele>1399.3</ele>
        <time>2021-02-20T06:52:54Z</time>
      </trkpt>
      <trkpt lat="45.18538" lon="5.91364">
        <ele>1399.5</ele>
        <time>2021-02-20T06:52:55Z</time>
      </trkpt>
      <trkpt lat="45.18537" lon="5.91365">
        <ele>1399.7</ele>
        <time>2021-02-20T06:52:56Z</time>
      </trkpt>
      <trkpt lat="45.18536" lon="5.91365">
        <ele>1399.9</ele>
        <time>2021-02-20T06:52:57Z</time>
      </trkpt>
      <trkpt lat="45.18535" lon="5.91366">
        <ele>1400</ele>
        <time>2021-02-20T06:52:58Z</time>
      </trkpt>
      <trkpt lat="45.18534" lon="5.91366">
        <ele>1400.3</ele>
        <time>2021-02-20T06:52:59Z</time>
      </trkpt>
      <trkpt lat="45.18533" lon="5.91366">
        <ele>1400.5</ele>
        <time>2021-02-20T06:53:00Z</time>
      </trkpt>
      <trkpt lat="45.18532" lon="5.91366">
        <ele>1400.8</ele>
        <time>2021-02-20T06:53:01Z</time>
      </trkpt>
      <trkpt lat="45.18531" lon="5.91366">
        <ele>1401</ele>
        <time>2021-02-20T06:53:02Z</time>
      </trkpt>
      <trkpt lat="45.1853" lon="5.91366">
        <ele>1401.2</ele>
        <time>2021-02-20T06:53:03Z</time>
      </trkpt>
      <trkpt lat="45.18529" lon="5.91366">
        <ele>1401.4</ele>
        <time>2021-02-20T06:53:04Z</time>
      </trkpt>
      <trkpt lat="45.18529" lon="5.91368">
        <ele>1401.6</ele>
        <time>2021-02-20T06:53:05Z</time>
      </trkpt>
      <trkpt lat="45.18528" lon="5.91368">
        <ele>1401.8</ele>
        <time>2021-02-20T06:53:06Z</time>
      </trkpt>
      <trkpt lat="45.18527" lon="5.91369">
        <ele>1402</ele>
        <time>2021-02-20T06:53:07Z</time>
      </trkpt>
      <trkpt lat="45.18527" lon="5.9137">
        <ele>1402.2</ele>
        <time>2021-02-20T06:53:08Z</time>
      </trkpt>
      <trkpt lat="45.18527" lon="5.91372">
        <ele>1402.4</ele>
        <time>2021-02-20T06:53:09Z</time>
      </trkpt>
      <trkpt lat="45.18526" lon="5.91373">
        <ele>1402.6</ele>
        <time>2021-02-20T06:53:10Z</time>
      </trkpt>
      <trkpt lat="45.18526" lon="5.91374">
        <ele>1402.8</ele>
        <time>2021-02-20T06:53:11Z</time>
      </trkpt>
      <trkpt lat="45.18525" lon="5.91375">
        <ele>1403</ele>
        <time>2021-02-20T06:53:12Z</time>
      </trkpt>
      <trkpt lat="45.18524" lon="5.91375">
        <ele>1403.2</ele>
        <time>2021-02-20T06:53:13Z</time>
      </trkpt>
      <trkpt lat="45.18524" lon="5.91375">
        <ele>1403.4</ele>
        <time>2021-02-20T06:53:14Z</time>
      </trkpt>
      <trkpt lat="45.18523" lon="5.91375">
        <ele>1403.5</ele>
        <time>2021-02-20T06:53:15Z</time>
      </trkpt>
      <trkpt lat="45.18523" lon="5.91375">
        <ele>1403.6</ele>
        <time>2021-02-20T06:53:16Z</time>
      </trkpt>
      <trkpt lat="45.18523" lon="5.91376">
        <ele>1403.6</ele>
        <time>2021-02-20T06:53:17Z</time>
      </trkpt>
      <trkpt lat="45.18523" lon="5.91376">
        <ele>1403.7</ele>
        <time>2021-02-20T06:53:18Z</time>
      </trkpt>
      <trkpt lat="45.18523" lon="5.91377">
        <ele>1403.8</ele>
        <time>2021-02-20T06:53:19Z</time>
      </trkpt>
      <trkpt lat="45.18522" lon="5.91378">
        <ele>1404</ele>
        <time>2021-02-20T06:53:20Z</time>
      </trkpt>
      <trkpt lat="45.18522" lon="5.91379">
        <ele>1404.2</ele>
        <time>2021-02-20T06:53:21Z</time>
      </trkpt>
      <trkpt lat="45.18521" lon="5.91379">
        <ele>1404.4</ele>
        <time>2021-02-20T06:53:22Z</time>
      </trkpt>
      <trkpt lat="45.1852" lon="5.9138">
        <ele>1404.7</ele>
        <time>2021-02-20T06:53:23Z</time>
      </trkpt>
      <trkpt lat="45.1852" lon="5.91381">
        <ele>1404.9</ele>
        <time>2021-02-20T06:53:24Z</time>
      </trkpt>
      <trkpt lat="45.18519" lon="5.91381">
        <ele>1405.1</ele>
        <time>2021-02-20T06:53:25Z</time>
      </trkpt>
      <trkpt lat="45.18518" lon="5.91382">
        <ele>1405.3</ele>
        <time>2021-02-20T06:53:26Z</time>
      </trkpt>
      <trkpt lat="45.18517" lon="5.91382">
        <ele>1405.5</ele>
        <time>2021-02-20T06:53:27Z</time>
      </trkpt>
      <trkpt lat="45.18516" lon="5.91383">
        <ele>1405.8</ele>
        <time>2021-02-20T06:53:28Z</time>
      </trkpt>
      <trkpt lat="45.18516" lon="5.91384">
        <ele>1406</ele>
        <time>2021-02-20T06:53:29Z</time>
      </trkpt>
      <trkpt lat="45.18516" lon="5.91385">
        <ele>1406.1</ele>
        <time>2021-02-20T06:53:30Z</time>
      </trkpt>
      <trkpt lat="45.18515" lon="5.91385">
        <ele>1406.3</ele>
        <time>2021-02-20T06:53:31Z</time>
      </trkpt>
      <trkpt lat="45.18514" lon="5.91386">
        <ele>1406.4</ele>
        <time>2021-02-20T06:53:32Z</time>
      </trkpt>
      <trkpt lat="45.18514" lon="5.91386">
        <ele>1406.7</ele>
        <time>2021-02-20T06:53:33Z</time>
      </trkpt>
      <trkpt lat="45.18513" lon="5.91387">
        <ele>1406.9</ele>
        <time>2021-02-20T06:53:34Z</time>
      </trkpt>
      <trkpt lat="45.18512" lon="5.91388">
        <ele>1407.1</ele>
        <time>2021-02-20T06:53:35Z</time>
      </trkpt>
      <trkpt lat="45.18512" lon="5.91389">
        <ele>1407.3</ele>
        <time>2021-02-20T06:53:36Z</time>
      </trkpt>
      <trkpt lat="45.18511" lon="5.91389">
        <ele>1407.5</ele>
        <time>2021-02-20T06:53:37Z</time>
      </trkpt>
      <trkpt lat="45.1851" lon="5.9139">
        <ele>1407.7</ele>
        <time>2021-02-20T06:53:38Z</time>
      </trkpt>
      <trkpt lat="45.1851" lon="5.9139">
        <ele>1407.9</ele>
        <time>2021-02-20T06:53:39Z</time>
      </trkpt>
      <trkpt lat="45.18509" lon="5.91391">
        <ele>1408.1</ele>
        <time>2021-02-20T06:53:40Z</time>
      </trkpt>
      <trkpt lat="45.18508" lon="5.91391">
        <ele>1408.3</ele>
        <time>2021-02-20T06:53:41Z</time>
      </trkpt>
      <trkpt lat="45.18508" lon="5.91391">
        <ele>1408.5</ele>
        <time>2021-02-20T06:53:42Z</time>
      </trkpt>
      <trkpt lat="45.18507" lon="5.91392">
        <ele>1408.6</ele>
        <time>2021-02-20T06:53:43Z</time>
      </trkpt>
      <trkpt lat="45.18507" lon="5.91392">
        <ele>1408.7</ele>
        <time>2021-02-20T06:53:44Z</time>
      </trkpt>
      <trkpt lat="45.18507" lon="5.91392">
        <ele>1408.7</ele>
        <time>2021-02-20T06:53:45Z</time>
      </trkpt>
      <trkpt lat="45.18507" lon="5.91392">
        <ele>1408.8</ele>
        <time>2021-02-20T06:53:46Z</time>
      </trkpt>
      <trkpt lat="45.18506" lon="5.91391">
        <ele>1408.9</ele>
        <time>2021-02-20T06:53:47Z</time>
      </trkpt>
      <trkpt lat="45.18505" lon="5.91391">
        <ele>1409.1</ele>
        <time>2021-02-20T06:53:48Z</time>
      </trkpt>
      <trkpt lat="45.18504" lon="5.9139">
        <ele>1409.3</ele>
        <time>2021-02-20T06:53:49Z</time>
      </trkpt>
      <trkpt lat="45.18503" lon="5.91389">
        <ele>1409.7</ele>
        <time>2021-02-20T06:53:50Z</time>
      </trkpt>
      <trkpt lat="45.18502" lon="5.91389">
        <ele>1409.9</ele>
        <time>2021-02-20T06:53:51Z</time>
      </trkpt>
      <trkpt lat="45.18502" lon="5.91389">
        <ele>1410</ele>
        <time>2021-02-20T06:53:52Z</time>
      </trkpt>
      <trkpt lat="45.18502" lon="5.91389">
        <ele>1410</ele>
        <time>2021-02-20T06:53:53Z</time>
      </trkpt>
      <trkpt lat="45.18502" lon="5.91389">
        <ele>1410.1</ele>
        <time>2021-02-20T06:53:54Z</time>
      </trkpt>
      <trkpt lat="45.18501" lon="5.9139">
        <ele>1410.2</ele>
        <time>2021-02-20T06:53:55Z</time>
      </trkpt>
      <trkpt lat="45.18501" lon="5.9139">
        <ele>1410.3</ele>
        <time>2021-02-20T06:53:56Z</time>
      </trkpt>
      <trkpt lat="45.185" lon="5.91391">
        <ele>1410.4</ele>
        <time>2021-02-20T06:53:57Z</time>
      </trkpt>
      <trkpt lat="45.185" lon="5.91391">
        <ele>1410.6</ele>
        <time>2021-02-20T06:53:58Z</time>
      </trkpt>
      <trkpt lat="45.18499" lon="5.91391">
        <ele>1410.7</ele>
        <time>2021-02-20T06:53:59Z</time>
      </trkpt>
      <trkpt lat="45.18498" lon="5.91392">
        <ele>1410.9</ele>
        <time>2021-02-20T06:54:00Z</time>
      </trkpt>
      <trkpt lat="45.18497" lon="5.91392">
        <ele>1411</ele>
        <time>2021-02-20T06:54:01Z</time>
      </trkpt>
      <trkpt lat="45.18496" lon="5.91392">
        <ele>1411.3</ele>
        <time>2021-02-20T06:54:02Z</time>
      </trkpt>
      <trkpt lat="45.18496" lon="5.91392">
        <ele>1411.4</ele>
        <time>2021-02-20T06:54:03Z</time>
      </trkpt>
      <trkpt lat="45.18495" lon="5.91392">
        <ele>1411.5</ele>
        <time>2021-02-20T06:54:04Z</time>
      </trkpt>
      <trkpt lat="45.18494" lon="5.91392">
        <ele>1411.7</ele>
        <time>2021-02-20T06:54:05Z</time>
      </trkpt>
      <trkpt lat="45.18494" lon="5.91391">
        <ele>1411.9</ele>
        <time>2021-02-20T06:54:06Z</time>
      </trkpt>
      <trkpt lat="45.18493" lon="5.91391">
        <ele>1412</ele>
        <time>2021-02-20T06:54:07Z</time>
      </trkpt>
      <trkpt lat="45.18492" lon="5.91391">
        <ele>1412.2</ele>
        <time>2021-02-20T06:54:08Z</time>
      </trkpt>
      <trkpt lat="45.18491" lon="5.91391">
        <ele>1412.3</ele>
        <time>2021-02-20T06:54:09Z</time>
      </trkpt>
      <trkpt lat="45.1849" lon="5.9139">
        <ele>1412.5</ele>
        <time>2021-02-20T06:54:10Z</time>
      </trkpt>
      <trkpt lat="45.1849" lon="5.91389">
        <ele>1412.7</ele>
        <time>2021-02-20T06:54:11Z</time>
      </trkpt>
      <trkpt lat="45.1849" lon="5.91388">
        <ele>1412.8</ele>
        <time>2021-02-20T06:54:12Z</time>
      </trkpt>
      <trkpt lat="45.1849" lon="5.91387">
        <ele>1412.9</ele>
        <time>2021-02-20T06:54:13Z</time>
      </trkpt>
      <trkpt lat="45.18489" lon="5.91386">
        <ele>1413.1</ele>
        <time>2021-02-20T06:54:14Z</time>
      </trkpt>
      <trkpt lat="45.18489" lon="5.91385">
        <ele>1413.3</ele>
        <time>2021-02-20T06:54:15Z</time>
      </trkpt>
      <trkpt lat="45.18489" lon="5.91384">
        <ele>1413.4</ele>
        <time>2021-02-20T06:54:16Z</time>
      </trkpt>
      <trkpt lat="45.18489" lon="5.91383">
        <ele>1413.5</ele>
        <time>2021-02-20T06:54:17Z</time>
      </trkpt>
      <trkpt lat="45.18489" lon="5.91383">
        <ele>1413.5</ele>
        <time>2021-02-20T06:54:18Z</time>
      </trkpt>
      <trkpt lat="45.18488" lon="5.91383">
        <ele>1413.7</ele>
        <time>2021-02-20T06:54:19Z</time>
      </trkpt>
      <trkpt lat="45.18486" lon="5.91383">
        <ele>1414</ele>
        <time>2021-02-20T06:54:20Z</time>
      </trkpt>
      <trkpt lat="45.18486" lon="5.91383">
        <ele>1414.1</ele>
        <time>2021-02-20T06:54:21Z</time>
      </trkpt>
      <trkpt lat="45.18485" lon="5.91383">
        <ele>1414.3</ele>
        <time>2021-02-20T06:54:22Z</time>
      </trkpt>
      <trkpt lat="45.18484" lon="5.91383">
        <ele>1414.5</ele>
        <time>2021-02-20T06:54:23Z</time>
      </trkpt>
      <trkpt lat="45.18482" lon="5.91383">
        <ele>1414.7</ele>
        <time>2021-02-20T06:54:24Z</time>
      </trkpt>
      <trkpt lat="45.18481" lon="5.91384">
        <ele>1414.9</ele>
        <time>2021-02-20T06:54:25Z</time>
      </trkpt>
      <trkpt lat="45.18481" lon="5.91384">
        <ele>1415.1</ele>
        <time>2021-02-20T06:54:26Z</time>
      </trkpt>
      <trkpt lat="45.1848" lon="5.91385">
        <ele>1415.2</ele>
        <time>2021-02-20T06:54:27Z</time>
      </trkpt>
      <trkpt lat="45.18479" lon="5.91385">
        <ele>1415.4</ele>
        <time>2021-02-20T06:54:28Z</time>
      </trkpt>
      <trkpt lat="45.18478" lon="5.91385">
        <ele>1415.5</ele>
        <time>2021-02-20T06:54:29Z</time>
      </trkpt>
      <trkpt lat="45.18477" lon="5.91385">
        <ele>1415.7</ele>
        <time>2021-02-20T06:54:30Z</time>
      </trkpt>
      <trkpt lat="45.18476" lon="5.91385">
        <ele>1415.8</ele>
        <time>2021-02-20T06:54:31Z</time>
      </trkpt>
      <trkpt lat="45.18476" lon="5.91386">
        <ele>1416</ele>
        <time>2021-02-20T06:54:32Z</time>
      </trkpt>
      <trkpt lat="45.18475" lon="5.91386">
        <ele>1416.1</ele>
        <time>2021-02-20T06:54:33Z</time>
      </trkpt>
      <trkpt lat="45.18474" lon="5.91386">
        <ele>1416.3</ele>
        <time>2021-02-20T06:54:34Z</time>
      </trkpt>
      <trkpt lat="45.18473" lon="5.91386">
        <ele>1416.4</ele>
        <time>2021-02-20T06:54:35Z</time>
      </trkpt>
      <trkpt lat="45.18472" lon="5.91386">
        <ele>1416.5</ele>
        <time>2021-02-20T06:54:36Z</time>
      </trkpt>
      <trkpt lat="45.18472" lon="5.91386">
        <ele>1416.6</ele>
        <time>2021-02-20T06:54:37Z</time>
      </trkpt>
      <trkpt lat="45.18472" lon="5.91387">
        <ele>1416.7</ele>
        <time>2021-02-20T06:54:38Z</time>
      </trkpt>
      <trkpt lat="45.18471" lon="5.91388">
        <ele>1416.9</ele>
        <time>2021-02-20T06:54:39Z</time>
      </trkpt>
      <trkpt lat="45.1847" lon="5.91388">
        <ele>1417</ele>
        <time>2021-02-20T06:54:40Z</time>
      </trkpt>
      <trkpt lat="45.18469" lon="5.91389">
        <ele>1417.2</ele>
        <time>2021-02-20T06:54:41Z</time>
      </trkpt>
      <trkpt lat="45.18468" lon="5.91389">
        <ele>1417.3</ele>
        <time>2021-02-20T06:54:42Z</time>
      </trkpt>
      <trkpt lat="45.18468" lon="5.91389">
        <ele>1417.5</ele>
        <time>2021-02-20T06:54:43Z</time>
      </trkpt>
      <trkpt lat="45.18467" lon="5.91389">
        <ele>1417.6</ele>
        <time>2021-02-20T06:54:44Z</time>
      </trkpt>
      <trkpt lat="45.18466" lon="5.91389">
        <ele>1417.8</ele>
        <time>2021-02-20T06:54:45Z</time>
      </trkpt>
      <trkpt lat="45.18465" lon="5.91389">
        <ele>1417.9</ele>
        <time>2021-02-20T06:54:46Z</time>
      </trkpt>
      <trkpt lat="45.18465" lon="5.91389">
        <ele>1417.9</ele>
        <time>2021-02-20T06:54:47Z</time>
      </trkpt>
      <trkpt lat="45.18464" lon="5.9139">
        <ele>1418.1</ele>
        <time>2021-02-20T06:54:48Z</time>
      </trkpt>
      <trkpt lat="45.18464" lon="5.9139">
        <ele>1418.2</ele>
        <time>2021-02-20T06:54:49Z</time>
      </trkpt>
      <trkpt lat="45.18464" lon="5.9139">
        <ele>1418.2</ele>
        <time>2021-02-20T06:54:50Z</time>
      </trkpt>
      <trkpt lat="45.18463" lon="5.9139">
        <ele>1418.3</ele>
        <time>2021-02-20T06:54:51Z</time>
      </trkpt>
      <trkpt lat="45.18462" lon="5.9139">
        <ele>1418.5</ele>
        <time>2021-02-20T06:54:52Z</time>
      </trkpt>
      <trkpt lat="45.18461" lon="5.9139">
        <ele>1418.6</ele>
        <time>2021-02-20T06:54:53Z</time>
      </trkpt>
      <trkpt lat="45.18461" lon="5.91391">
        <ele>1418.8</ele>
        <time>2021-02-20T06:54:54Z</time>
      </trkpt>
      <trkpt lat="45.1846" lon="5.91391">
        <ele>1419</ele>
        <time>2021-02-20T06:54:55Z</time>
      </trkpt>
      <trkpt lat="45.18459" lon="5.91391">
        <ele>1419.2</ele>
        <time>2021-02-20T06:54:56Z</time>
      </trkpt>
      <trkpt lat="45.18458" lon="5.91391">
        <ele>1419.4</ele>
        <time>2021-02-20T06:54:57Z</time>
      </trkpt>
      <trkpt lat="45.18456" lon="5.9139">
        <ele>1419.7</ele>
        <time>2021-02-20T06:54:58Z</time>
      </trkpt>
      <trkpt lat="45.18453" lon="5.91389">
        <ele>1420.3</ele>
        <time>2021-02-20T06:54:59Z</time>
      </trkpt>
      <trkpt lat="45.18452" lon="5.91389">
        <ele>1420.5</ele>
        <time>2021-02-20T06:55:00Z</time>
      </trkpt>
      <trkpt lat="45.18451" lon="5.91389">
        <ele>1420.7</ele>
        <time>2021-02-20T06:55:01Z</time>
      </trkpt>
      <trkpt lat="45.18451" lon="5.91388">
        <ele>1420.8</ele>
        <time>2021-02-20T06:55:02Z</time>
      </trkpt>
      <trkpt lat="45.1845" lon="5.91388">
        <ele>1420.9</ele>
        <time>2021-02-20T06:55:03Z</time>
      </trkpt>
      <trkpt lat="45.1845" lon="5.91388">
        <ele>1421</ele>
        <time>2021-02-20T06:55:04Z</time>
      </trkpt>
      <trkpt lat="45.18449" lon="5.91388">
        <ele>1421.1</ele>
        <time>2021-02-20T06:55:05Z</time>
      </trkpt>
      <trkpt lat="45.18448" lon="5.91389">
        <ele>1421.3</ele>
        <time>2021-02-20T06:55:06Z</time>
      </trkpt>
      <trkpt lat="45.18448" lon="5.91389">
        <ele>1421.4</ele>
        <time>2021-02-20T06:55:07Z</time>
      </trkpt>
      <trkpt lat="45.18447" lon="5.91389">
        <ele>1421.5</ele>
        <time>2021-02-20T06:55:08Z</time>
      </trkpt>
      <trkpt lat="45.18447" lon="5.91389">
        <ele>1421.6</ele>
        <time>2021-02-20T06:55:09Z</time>
      </trkpt>
      <trkpt lat="45.18447" lon="5.91389">
        <ele>1421.7</ele>
        <time>2021-02-20T06:55:10Z</time>
      </trkpt>
      <trkpt lat="45.18446" lon="5.91389">
        <ele>1421.8</ele>
        <time>2021-02-20T06:55:11Z</time>
      </trkpt>
      <trkpt lat="45.18446" lon="5.91389">
        <ele>1421.9</ele>
        <time>2021-02-20T06:55:12Z</time>
      </trkpt>
      <trkpt lat="45.18445" lon="5.91389">
        <ele>1422</ele>
        <time>2021-02-20T06:55:13Z</time>
      </trkpt>
      <trkpt lat="45.18445" lon="5.91389">
        <ele>1422.1</ele>
        <time>2021-02-20T06:55:14Z</time>
      </trkpt>
      <trkpt lat="45.18444" lon="5.91389">
        <ele>1422.2</ele>
        <time>2021-02-20T06:55:15Z</time>
      </trkpt>
      <trkpt lat="45.18444" lon="5.91388">
        <ele>1422.3</ele>
        <time>2021-02-20T06:55:16Z</time>
      </trkpt>
      <trkpt lat="45.18443" lon="5.91388">
        <ele>1422.5</ele>
        <time>2021-02-20T06:55:17Z</time>
      </trkpt>
      <trkpt lat="45.18443" lon="5.91387">
        <ele>1422.6</ele>
        <time>2021-02-20T06:55:18Z</time>
      </trkpt>
      <trkpt lat="45.18442" lon="5.91387">
        <ele>1422.8</ele>
        <time>2021-02-20T06:55:19Z</time>
      </trkpt>
      <trkpt lat="45.18441" lon="5.91386">
        <ele>1423</ele>
        <time>2021-02-20T06:55:20Z</time>
      </trkpt>
      <trkpt lat="45.1844" lon="5.91386">
        <ele>1423.2</ele>
        <time>2021-02-20T06:55:21Z</time>
      </trkpt>
      <trkpt lat="45.1844" lon="5.91385">
        <ele>1423.3</ele>
        <time>2021-02-20T06:55:22Z</time>
      </trkpt>
      <trkpt lat="45.18439" lon="5.91385">
        <ele>1423.5</ele>
        <time>2021-02-20T06:55:23Z</time>
      </trkpt>
      <trkpt lat="45.18439" lon="5.91385">
        <ele>1423.6</ele>
        <time>2021-02-20T06:55:24Z</time>
      </trkpt>
      <trkpt lat="45.18438" lon="5.91385">
        <ele>1423.7</ele>
        <time>2021-02-20T06:55:25Z</time>
      </trkpt>
      <trkpt lat="45.18438" lon="5.91385">
        <ele>1423.7</ele>
        <time>2021-02-20T06:55:26Z</time>
      </trkpt>
      <trkpt lat="45.18437" lon="5.91385">
        <ele>1423.9</ele>
        <time>2021-02-20T06:55:27Z</time>
      </trkpt>
      <trkpt lat="45.18437" lon="5.91385">
        <ele>1424</ele>
        <time>2021-02-20T06:55:28Z</time>
      </trkpt>
      <trkpt lat="45.18436" lon="5.91386">
        <ele>1424.2</ele>
        <time>2021-02-20T06:55:29Z</time>
      </trkpt>
      <trkpt lat="45.18435" lon="5.91386">
        <ele>1424.4</ele>
        <time>2021-02-20T06:55:30Z</time>
      </trkpt>
      <trkpt lat="45.18435" lon="5.91386">
        <ele>1424.5</ele>
        <time>2021-02-20T06:55:31Z</time>
      </trkpt>
      <trkpt lat="45.18434" lon="5.91386">
        <ele>1424.6</ele>
        <time>2021-02-20T06:55:32Z</time>
      </trkpt>
      <trkpt lat="45.18434" lon="5.91386">
        <ele>1424.8</ele>
        <time>2021-02-20T06:55:33Z</time>
      </trkpt>
      <trkpt lat="45.18433" lon="5.91387">
        <ele>1425</ele>
        <time>2021-02-20T06:55:34Z</time>
      </trkpt>
      <trkpt lat="45.18432" lon="5.91387">
        <ele>1425.1</ele>
        <time>2021-02-20T06:55:35Z</time>
      </trkpt>
      <trkpt lat="45.18431" lon="5.91387">
        <ele>1425.3</ele>
        <time>2021-02-20T06:55:36Z</time>
      </trkpt>
      <trkpt lat="45.18431" lon="5.91387">
        <ele>1425.4</ele>
        <time>2021-02-20T06:55:37Z</time>
      </trkpt>
      <trkpt lat="45.1843" lon="5.91388">
        <ele>1425.7</ele>
        <time>2021-02-20T06:55:38Z</time>
      </trkpt>
      <trkpt lat="45.18429" lon="5.91389">
        <ele>1425.9</ele>
        <time>2021-02-20T06:55:39Z</time>
      </trkpt>
      <trkpt lat="45.18428" lon="5.91389">
        <ele>1426.1</ele>
        <time>2021-02-20T06:55:40Z</time>
      </trkpt>
      <trkpt lat="45.18427" lon="5.9139">
        <ele>1426.3</ele>
        <time>2021-02-20T06:55:41Z</time>
      </trkpt>
      <trkpt lat="45.18426" lon="5.9139">
        <ele>1426.4</ele>
        <time>2021-02-20T06:55:42Z</time>
      </trkpt>
      <trkpt lat="45.18425" lon="5.9139">
        <ele>1426.6</ele>
        <time>2021-02-20T06:55:43Z</time>
      </trkpt>
      <trkpt lat="45.18425" lon="5.91391">
        <ele>1426.8</ele>
        <time>2021-02-20T06:55:44Z</time>
      </trkpt>
      <trkpt lat="45.18424" lon="5.91391">
        <ele>1426.9</ele>
        <time>2021-02-20T06:55:45Z</time>
      </trkpt>
      <trkpt lat="45.18423" lon="5.91391">
        <ele>1427.1</ele>
        <time>2021-02-20T06:55:46Z</time>
      </trkpt>
      <trkpt lat="45.18423" lon="5.9139">
        <ele>1427.2</ele>
        <time>2021-02-20T06:55:47Z</time>
      </trkpt>
      <trkpt lat="45.18422" lon="5.9139">
        <ele>1427.4</ele>
        <time>2021-02-20T06:55:48Z</time>
      </trkpt>
      <trkpt lat="45.18421" lon="5.9139">
        <ele>1427.6</ele>
        <time>2021-02-20T06:55:49Z</time>
      </trkpt>
      <trkpt lat="45.1842" lon="5.9139">
        <ele>1427.7</ele>
        <time>2021-02-20T06:55:50Z</time>
      </trkpt>
      <trkpt lat="45.1842" lon="5.9139">
        <ele>1427.9</ele>
        <time>2021-02-20T06:55:51Z</time>
      </trkpt>
      <trkpt lat="45.18419" lon="5.9139">
        <ele>1428</ele>
        <time>2021-02-20T06:55:52Z</time>
      </trkpt>
      <trkpt lat="45.18418" lon="5.9139">
        <ele>1428.2</ele>
        <time>2021-02-20T06:55:53Z</time>
      </trkpt>
      <trkpt lat="45.18417" lon="5.9139">
        <ele>1428.4</ele>
        <time>2021-02-20T06:55:54Z</time>
      </trkpt>
      <trkpt lat="45.18416" lon="5.9139">
        <ele>1428.6</ele>
        <time>2021-02-20T06:55:55Z</time>
      </trkpt>
      <trkpt lat="45.18415" lon="5.9139">
        <ele>1428.8</ele>
        <time>2021-02-20T06:55:56Z</time>
      </trkpt>
      <trkpt lat="45.18415" lon="5.9139">
        <ele>1429</ele>
        <time>2021-02-20T06:55:57Z</time>
      </trkpt>
      <trkpt lat="45.18414" lon="5.9139">
        <ele>1429.1</ele>
        <time>2021-02-20T06:55:58Z</time>
      </trkpt>
      <trkpt lat="45.18413" lon="5.9139">
        <ele>1429.3</ele>
        <time>2021-02-20T06:55:59Z</time>
      </trkpt>
      <trkpt lat="45.18412" lon="5.9139">
        <ele>1429.5</ele>
        <time>2021-02-20T06:56:00Z</time>
      </trkpt>
      <trkpt lat="45.18412" lon="5.9139">
        <ele>1429.6</ele>
        <time>2021-02-20T06:56:01Z</time>
      </trkpt>
      <trkpt lat="45.18411" lon="5.91391">
        <ele>1429.8</ele>
        <time>2021-02-20T06:56:02Z</time>
      </trkpt>
      <trkpt lat="45.1841" lon="5.91391">
        <ele>1430</ele>
        <time>2021-02-20T06:56:03Z</time>
      </trkpt>
      <trkpt lat="45.18409" lon="5.91391">
        <ele>1430.2</ele>
        <time>2021-02-20T06:56:04Z</time>
      </trkpt>
      <trkpt lat="45.18408" lon="5.91391">
        <ele>1430.4</ele>
        <time>2021-02-20T06:56:05Z</time>
      </trkpt>
      <trkpt lat="45.18408" lon="5.91391">
        <ele>1430.6</ele>
        <time>2021-02-20T06:56:06Z</time>
      </trkpt>
      <trkpt lat="45.18407" lon="5.91391">
        <ele>1430.7</ele>
        <time>2021-02-20T06:56:07Z</time>
      </trkpt>
      <trkpt lat="45.18406" lon="5.91391">
        <ele>1430.9</ele>
        <time>2021-02-20T06:56:08Z</time>
      </trkpt>
      <trkpt lat="45.18406" lon="5.91391">
        <ele>1431</ele>
        <time>2021-02-20T06:56:09Z</time>
      </trkpt>
      <trkpt lat="45.18405" lon="5.91391">
        <ele>1431.1</ele>
        <time>2021-02-20T06:56:10Z</time>
      </trkpt>
      <trkpt lat="45.18405" lon="5.91392">
        <ele>1431.2</ele>
        <time>2021-02-20T06:56:11Z</time>
      </trkpt>
      <trkpt lat="45.18404" lon="5.91392">
        <ele>1431.4</ele>
        <time>2021-02-20T06:56:12Z</time>
      </trkpt>
      <trkpt lat="45.18403" lon="5.91392">
        <ele>1431.5</ele>
        <time>2021-02-20T06:56:13Z</time>
      </trkpt>
      <trkpt lat="45.18403" lon="5.91393">
        <ele>1431.6</ele>
        <time>2021-02-20T06:56:14Z</time>
      </trkpt>
      <trkpt lat="45.18402" lon="5.91393">
        <ele>1431.9</ele>
        <time>2021-02-20T06:56:15Z</time>
      </trkpt>
      <trkpt lat="45.18401" lon="5.91394">
        <ele>1432.1</ele>
        <time>2021-02-20T06:56:16Z</time>
      </trkpt>
      <trkpt lat="45.184" lon="5.91394">
        <ele>1432.3</ele>
        <time>2021-02-20T06:56:17Z</time>
      </trkpt>
      <trkpt lat="45.184" lon="5.91395">
        <ele>1432.4</ele>
        <time>2021-02-20T06:56:18Z</time>
      </trkpt>
      <trkpt lat="45.18399" lon="5.91395">
        <ele>1432.6</ele>
        <time>2021-02-20T06:56:19Z</time>
      </trkpt>
      <trkpt lat="45.18399" lon="5.91396">
        <ele>1432.8</ele>
        <time>2021-02-20T06:56:20Z</time>
      </trkpt>
      <trkpt lat="45.18398" lon="5.91397">
        <ele>1432.9</ele>
        <time>2021-02-20T06:56:21Z</time>
      </trkpt>
      <trkpt lat="45.18398" lon="5.91397">
        <ele>1433.1</ele>
        <time>2021-02-20T06:56:22Z</time>
      </trkpt>
      <trkpt lat="45.18397" lon="5.91397">
        <ele>1433.2</ele>
        <time>2021-02-20T06:56:23Z</time>
      </trkpt>
      <trkpt lat="45.18397" lon="5.91398">
        <ele>1433.3</ele>
        <time>2021-02-20T06:56:24Z</time>
      </trkpt>
      <trkpt lat="45.18396" lon="5.91399">
        <ele>1433.6</ele>
        <time>2021-02-20T06:56:25Z</time>
      </trkpt>
      <trkpt lat="45.18395" lon="5.91399">
        <ele>1433.8</ele>
        <time>2021-02-20T06:56:26Z</time>
      </trkpt>
      <trkpt lat="45.18395" lon="5.914">
        <ele>1433.9</ele>
        <time>2021-02-20T06:56:27Z</time>
      </trkpt>
      <trkpt lat="45.18394" lon="5.914">
        <ele>1434.1</ele>
        <time>2021-02-20T06:56:28Z</time>
      </trkpt>
      <trkpt lat="45.18393" lon="5.91401">
        <ele>1434.3</ele>
        <time>2021-02-20T06:56:29Z</time>
      </trkpt>
      <trkpt lat="45.18392" lon="5.91401">
        <ele>1434.5</ele>
        <time>2021-02-20T06:56:30Z</time>
      </trkpt>
      <trkpt lat="45.18391" lon="5.91401">
        <ele>1434.7</ele>
        <time>2021-02-20T06:56:31Z</time>
      </trkpt>
      <trkpt lat="45.1839" lon="5.91401">
        <ele>1434.9</ele>
        <time>2021-02-20T06:56:32Z</time>
      </trkpt>
      <trkpt lat="45.1839" lon="5.91402">
        <ele>1435.1</ele>
        <time>2021-02-20T06:56:33Z</time>
      </trkpt>
      <trkpt lat="45.18389" lon="5.91402">
        <ele>1435.3</ele>
        <time>2021-02-20T06:56:34Z</time>
      </trkpt>
      <trkpt lat="45.18388" lon="5.91402">
        <ele>1435.4</ele>
        <time>2021-02-20T06:56:35Z</time>
      </trkpt>
      <trkpt lat="45.18387" lon="5.91402">
        <ele>1435.6</ele>
        <time>2021-02-20T06:56:36Z</time>
      </trkpt>
      <trkpt lat="45.18387" lon="5.91402">
        <ele>1435.7</ele>
        <time>2021-02-20T06:56:37Z</time>
      </trkpt>
      <trkpt lat="45.18386" lon="5.91403">
        <ele>1435.9</ele>
        <time>2021-02-20T06:56:38Z</time>
      </trkpt>
      <trkpt lat="45.18385" lon="5.91403">
        <ele>1436.1</ele>
        <time>2021-02-20T06:56:39Z</time>
      </trkpt>
      <trkpt lat="45.18385" lon="5.91403">
        <ele>1436.2</ele>
        <time>2021-02-20T06:56:40Z</time>
      </trkpt>
      <trkpt lat="45.18384" lon="5.91403">
        <ele>1436.3</ele>
        <time>2021-02-20T06:56:41Z</time>
      </trkpt>
      <trkpt lat="45.18383" lon="5.91403">
        <ele>1436.5</ele>
        <time>2021-02-20T06:56:42Z</time>
      </trkpt>
      <trkpt lat="45.18382" lon="5.91402">
        <ele>1436.7</ele>
        <time>2021-02-20T06:56:43Z</time>
      </trkpt>
      <trkpt lat="45.18382" lon="5.91402">
        <ele>1436.8</ele>
        <time>2021-02-20T06:56:44Z</time>
      </trkpt>
      <trkpt lat="45.18381" lon="5.91402">
        <ele>1437</ele>
        <time>2021-02-20T06:56:45Z</time>
      </trkpt>
      <trkpt lat="45.1838" lon="5.91403">
        <ele>1437.1</ele>
        <time>2021-02-20T06:56:46Z</time>
      </trkpt>
      <trkpt lat="45.18379" lon="5.91403">
        <ele>1437.3</ele>
        <time>2021-02-20T06:56:47Z</time>
      </trkpt>
      <trkpt lat="45.18378" lon="5.91404">
        <ele>1437.6</ele>
        <time>2021-02-20T06:56:48Z</time>
      </trkpt>
      <trkpt lat="45.18377" lon="5.91404">
        <ele>1437.8</ele>
        <time>2021-02-20T06:56:49Z</time>
      </trkpt>
      <trkpt lat="45.18377" lon="5.91405">
        <ele>1437.9</ele>
        <time>2021-02-20T06:56:50Z</time>
      </trkpt>
      <trkpt lat="45.18376" lon="5.91405">
        <ele>1438.1</ele>
        <time>2021-02-20T06:56:51Z</time>
      </trkpt>
      <trkpt lat="45.18375" lon="5.91406">
        <ele>1438.2</ele>
        <time>2021-02-20T06:56:52Z</time>
      </trkpt>
      <trkpt lat="45.18375" lon="5.91406">
        <ele>1438.4</ele>
        <time>2021-02-20T06:56:53Z</time>
      </trkpt>
      <trkpt lat="45.18374" lon="5.91407">
        <ele>1438.5</ele>
        <time>2021-02-20T06:56:54Z</time>
      </trkpt>
      <trkpt lat="45.18373" lon="5.91407">
        <ele>1438.7</ele>
        <time>2021-02-20T06:56:55Z</time>
      </trkpt>
      <trkpt lat="45.18373" lon="5.91408">
        <ele>1438.8</ele>
        <time>2021-02-20T06:56:56Z</time>
      </trkpt>
      <trkpt lat="45.18372" lon="5.91408">
        <ele>1438.9</ele>
        <time>2021-02-20T06:56:57Z</time>
      </trkpt>
      <trkpt lat="45.18372" lon="5.91409">
        <ele>1439.1</ele>
        <time>2021-02-20T06:56:58Z</time>
      </trkpt>
      <trkpt lat="45.18371" lon="5.91409">
        <ele>1439.2</ele>
        <time>2021-02-20T06:56:59Z</time>
      </trkpt>
      <trkpt lat="45.1837" lon="5.91409">
        <ele>1439.3</ele>
        <time>2021-02-20T06:57:00Z</time>
      </trkpt>
      <trkpt lat="45.1837" lon="5.91409">
        <ele>1439.5</ele>
        <time>2021-02-20T06:57:01Z</time>
      </trkpt>
      <trkpt lat="45.18369" lon="5.91409">
        <ele>1439.6</ele>
        <time>2021-02-20T06:57:02Z</time>
      </trkpt>
      <trkpt lat="45.18368" lon="5.9141">
        <ele>1439.8</ele>
        <time>2021-02-20T06:57:03Z</time>
      </trkpt>
      <trkpt lat="45.18367" lon="5.91411">
        <ele>1440</ele>
        <time>2021-02-20T06:57:04Z</time>
      </trkpt>
      <trkpt lat="45.18367" lon="5.91412">
        <ele>1440.2</ele>
        <time>2021-02-20T06:57:05Z</time>
      </trkpt>
      <trkpt lat="45.18366" lon="5.91412">
        <ele>1440.4</ele>
        <time>2021-02-20T06:57:06Z</time>
      </trkpt>
      <trkpt lat="45.18365" lon="5.91412">
        <ele>1440.5</ele>
        <time>2021-02-20T06:57:07Z</time>
      </trkpt>
      <trkpt lat="45.18365" lon="5.91411">
        <ele>1440.7</ele>
        <time>2021-02-20T06:57:08Z</time>
      </trkpt>
      <trkpt lat="45.18364" lon="5.91411">
        <ele>1440.8</ele>
        <time>2021-02-20T06:57:09Z</time>
      </trkpt>
      <trkpt lat="45.18363" lon="5.91411">
        <ele>1441</ele>
        <time>2021-02-20T06:57:10Z</time>
      </trkpt>
      <trkpt lat="45.18362" lon="5.91411">
        <ele>1441.2</ele>
        <time>2021-02-20T06:57:11Z</time>
      </trkpt>
      <trkpt lat="45.18362" lon="5.91412">
        <ele>1441.4</ele>
        <time>2021-02-20T06:57:12Z</time>
      </trkpt>
      <trkpt lat="45.18361" lon="5.91412">
        <ele>1441.5</ele>
        <time>2021-02-20T06:57:13Z</time>
      </trkpt>
      <trkpt lat="45.1836" lon="5.91412">
        <ele>1441.7</ele>
        <time>2021-02-20T06:57:14Z</time>
      </trkpt>
      <trkpt lat="45.18359" lon="5.91413">
        <ele>1442</ele>
        <time>2021-02-20T06:57:15Z</time>
      </trkpt>
      <trkpt lat="45.18358" lon="5.91414">
        <ele>1442.2</ele>
        <time>2021-02-20T06:57:16Z</time>
      </trkpt>
      <trkpt lat="45.18357" lon="5.91414">
        <ele>1442.4</ele>
        <time>2021-02-20T06:57:17Z</time>
      </trkpt>
      <trkpt lat="45.18356" lon="5.91414">
        <ele>1442.6</ele>
        <time>2021-02-20T06:57:18Z</time>
      </trkpt>
      <trkpt lat="45.18355" lon="5.91414">
        <ele>1442.7</ele>
        <time>2021-02-20T06:57:19Z</time>
      </trkpt>
      <trkpt lat="45.18354" lon="5.91415">
        <ele>1442.9</ele>
        <time>2021-02-20T06:57:20Z</time>
      </trkpt>
      <trkpt lat="45.18354" lon="5.91415">
        <ele>1443.1</ele>
        <time>2021-02-20T06:57:21Z</time>
      </trkpt>
      <trkpt lat="45.18353" lon="5.91415">
        <ele>1443.2</ele>
        <time>2021-02-20T06:57:22Z</time>
      </trkpt>
      <trkpt lat="45.18353" lon="5.91416">
        <ele>1443.3</ele>
        <time>2021-02-20T06:57:23Z</time>
      </trkpt>
      <trkpt lat="45.18352" lon="5.91416">
        <ele>1443.4</ele>
        <time>2021-02-20T06:57:24Z</time>
      </trkpt>
      <trkpt lat="45.18352" lon="5.91416">
        <ele>1443.6</ele>
        <time>2021-02-20T06:57:25Z</time>
      </trkpt>
      <trkpt lat="45.18351" lon="5.91417">
        <ele>1443.8</ele>
        <time>2021-02-20T06:57:26Z</time>
      </trkpt>
      <trkpt lat="45.1835" lon="5.91417">
        <ele>1444</ele>
        <time>2021-02-20T06:57:27Z</time>
      </trkpt>
      <trkpt lat="45.18349" lon="5.91418">
        <ele>1444.2</ele>
        <time>2021-02-20T06:57:28Z</time>
      </trkpt>
      <trkpt lat="45.18348" lon="5.91418">
        <ele>1444.3</ele>
        <time>2021-02-20T06:57:29Z</time>
      </trkpt>
      <trkpt lat="45.18347" lon="5.91419">
        <ele>1444.5</ele>
        <time>2021-02-20T06:57:30Z</time>
      </trkpt>
      <trkpt lat="45.18347" lon="5.91419">
        <ele>1444.6</ele>
        <time>2021-02-20T06:57:31Z</time>
      </trkpt>
      <trkpt lat="45.18346" lon="5.9142">
        <ele>1444.7</ele>
        <time>2021-02-20T06:57:32Z</time>
      </trkpt>
      <trkpt lat="45.18346" lon="5.9142">
        <ele>1444.9</ele>
        <time>2021-02-20T06:57:33Z</time>
      </trkpt>
      <trkpt lat="45.18345" lon="5.9142">
        <ele>1445</ele>
        <time>2021-02-20T06:57:34Z</time>
      </trkpt>
      <trkpt lat="45.18345" lon="5.9142">
        <ele>1445.1</ele>
        <time>2021-02-20T06:57:35Z</time>
      </trkpt>
      <trkpt lat="45.18344" lon="5.91421">
        <ele>1445.2</ele>
        <time>2021-02-20T06:57:36Z</time>
      </trkpt>
      <trkpt lat="45.18343" lon="5.91421">
        <ele>1445.3</ele>
        <time>2021-02-20T06:57:37Z</time>
      </trkpt>
      <trkpt lat="45.18343" lon="5.91421">
        <ele>1445.5</ele>
        <time>2021-02-20T06:57:38Z</time>
      </trkpt>
      <trkpt lat="45.18342" lon="5.91421">
        <ele>1445.6</ele>
        <time>2021-02-20T06:57:39Z</time>
      </trkpt>
      <trkpt lat="45.18341" lon="5.91421">
        <ele>1445.7</ele>
        <time>2021-02-20T06:57:40Z</time>
      </trkpt>
      <trkpt lat="45.18341" lon="5.91422">
        <ele>1445.9</ele>
        <time>2021-02-20T06:57:41Z</time>
      </trkpt>
      <trkpt lat="45.1834" lon="5.91422">
        <ele>1446</ele>
        <time>2021-02-20T06:57:42Z</time>
      </trkpt>
      <trkpt lat="45.18339" lon="5.91423">
        <ele>1446.2</ele>
        <time>2021-02-20T06:57:43Z</time>
      </trkpt>
      <trkpt lat="45.18339" lon="5.91423">
        <ele>1446.3</ele>
        <time>2021-02-20T06:57:44Z</time>
      </trkpt>
      <trkpt lat="45.18338" lon="5.91424">
        <ele>1446.4</ele>
        <time>2021-02-20T06:57:45Z</time>
      </trkpt>
      <trkpt lat="45.18338" lon="5.91424">
        <ele>1446.5</ele>
        <time>2021-02-20T06:57:46Z</time>
      </trkpt>
      <trkpt lat="45.18337" lon="5.91424">
        <ele>1446.7</ele>
        <time>2021-02-20T06:57:47Z</time>
      </trkpt>
      <trkpt lat="45.18337" lon="5.91425">
        <ele>1446.8</ele>
        <time>2021-02-20T06:57:48Z</time>
      </trkpt>
      <trkpt lat="45.18336" lon="5.91425">
        <ele>1446.9</ele>
        <time>2021-02-20T06:57:49Z</time>
      </trkpt>
      <trkpt lat="45.18336" lon="5.91425">
        <ele>1447</ele>
        <time>2021-02-20T06:57:50Z</time>
      </trkpt>
      <trkpt lat="45.18335" lon="5.91426">
        <ele>1447.1</ele>
        <time>2021-02-20T06:57:51Z</time>
      </trkpt>
      <trkpt lat="45.18334" lon="5.91425">
        <ele>1447.2</ele>
        <time>2021-02-20T06:57:52Z</time>
      </trkpt>
      <trkpt lat="45.18334" lon="5.91425">
        <ele>1447.4</ele>
        <time>2021-02-20T06:57:53Z</time>
      </trkpt>
      <trkpt lat="45.18333" lon="5.91425">
        <ele>1447.6</ele>
        <time>2021-02-20T06:57:54Z</time>
      </trkpt>
      <trkpt lat="45.18332" lon="5.91425">
        <ele>1447.8</ele>
        <time>2021-02-20T06:57:55Z</time>
      </trkpt>
      <trkpt lat="45.18331" lon="5.91426">
        <ele>1448</ele>
        <time>2021-02-20T06:57:56Z</time>
      </trkpt>
      <trkpt lat="45.1833" lon="5.91426">
        <ele>1448.1</ele>
        <time>2021-02-20T06:57:57Z</time>
      </trkpt>
      <trkpt lat="45.18329" lon="5.91426">
        <ele>1448.3</ele>
        <time>2021-02-20T06:57:58Z</time>
      </trkpt>
      <trkpt lat="45.18329" lon="5.91426">
        <ele>1448.4</ele>
        <time>2021-02-20T06:57:59Z</time>
      </trkpt>
      <trkpt lat="45.18328" lon="5.91426">
        <ele>1448.6</ele>
        <time>2021-02-20T06:58:00Z</time>
      </trkpt>
      <trkpt lat="45.18327" lon="5.91427">
        <ele>1448.7</ele>
        <time>2021-02-20T06:58:01Z</time>
      </trkpt>
      <trkpt lat="45.18327" lon="5.91427">
        <ele>1448.8</ele>
        <time>2021-02-20T06:58:02Z</time>
      </trkpt>
      <trkpt lat="45.18326" lon="5.91427">
        <ele>1449</ele>
        <time>2021-02-20T06:58:03Z</time>
      </trkpt>
      <trkpt lat="45.18325" lon="5.91427">
        <ele>1449.1</ele>
        <time>2021-02-20T06:58:04Z</time>
      </trkpt>
      <trkpt lat="45.18325" lon="5.91427">
        <ele>1449.3</ele>
        <time>2021-02-20T06:58:05Z</time>
      </trkpt>
      <trkpt lat="45.18324" lon="5.91428">
        <ele>1449.5</ele>
        <time>2021-02-20T06:58:06Z</time>
      </trkpt>
      <trkpt lat="45.18323" lon="5.91428">
        <ele>1449.6</ele>
        <time>2021-02-20T06:58:07Z</time>
      </trkpt>
      <trkpt lat="45.18322" lon="5.91428">
        <ele>1449.8</ele>
        <time>2021-02-20T06:58:08Z</time>
      </trkpt>
      <trkpt lat="45.18322" lon="5.91429">
        <ele>1449.9</ele>
        <time>2021-02-20T06:58:09Z</time>
      </trkpt>
      <trkpt lat="45.18321" lon="5.91429">
        <ele>1450.1</ele>
        <time>2021-02-20T06:58:10Z</time>
      </trkpt>
      <trkpt lat="45.1832" lon="5.91429">
        <ele>1450.3</ele>
        <time>2021-02-20T06:58:11Z</time>
      </trkpt>
      <trkpt lat="45.18319" lon="5.91429">
        <ele>1450.5</ele>
        <time>2021-02-20T06:58:12Z</time>
      </trkpt>
      <trkpt lat="45.18318" lon="5.91429">
        <ele>1450.7</ele>
        <time>2021-02-20T06:58:13Z</time>
      </trkpt>
      <trkpt lat="45.18318" lon="5.91429">
        <ele>1450.8</ele>
        <time>2021-02-20T06:58:14Z</time>
      </trkpt>
      <trkpt lat="45.18317" lon="5.91429">
        <ele>1451</ele>
        <time>2021-02-20T06:58:15Z</time>
      </trkpt>
      <trkpt lat="45.18316" lon="5.91428">
        <ele>1451.2</ele>
        <time>2021-02-20T06:58:16Z</time>
      </trkpt>
      <trkpt lat="45.18315" lon="5.91428">
        <ele>1451.4</ele>
        <time>2021-02-20T06:58:17Z</time>
      </trkpt>
      <trkpt lat="45.18315" lon="5.91429">
        <ele>1451.6</ele>
        <time>2021-02-20T06:58:18Z</time>
      </trkpt>
      <trkpt lat="45.18314" lon="5.91429">
        <ele>1451.8</ele>
        <time>2021-02-20T06:58:19Z</time>
      </trkpt>
      <trkpt lat="45.18313" lon="5.91429">
        <ele>1451.9</ele>
        <time>2021-02-20T06:58:20Z</time>
      </trkpt>
      <trkpt lat="45.18312" lon="5.91429">
        <ele>1452.1</ele>
        <time>2021-02-20T06:58:21Z</time>
      </trkpt>
      <trkpt lat="45.18312" lon="5.91429">
        <ele>1452.2</ele>
        <time>2021-02-20T06:58:22Z</time>
      </trkpt>
      <trkpt lat="45.18311" lon="5.91429">
        <ele>1452.4</ele>
        <time>2021-02-20T06:58:23Z</time>
      </trkpt>
      <trkpt lat="45.1831" lon="5.9143">
        <ele>1452.6</ele>
        <time>2021-02-20T06:58:24Z</time>
      </trkpt>
      <trkpt lat="45.1831" lon="5.9143">
        <ele>1452.8</ele>
        <time>2021-02-20T06:58:25Z</time>
      </trkpt>
      <trkpt lat="45.18309" lon="5.9143">
        <ele>1453</ele>
        <time>2021-02-20T06:58:26Z</time>
      </trkpt>
      <trkpt lat="45.18308" lon="5.9143">
        <ele>1453.1</ele>
        <time>2021-02-20T06:58:27Z</time>
      </trkpt>
      <trkpt lat="45.18307" lon="5.9143">
        <ele>1453.3</ele>
        <time>2021-02-20T06:58:28Z</time>
      </trkpt>
      <trkpt lat="45.18307" lon="5.9143">
        <ele>1453.4</ele>
        <time>2021-02-20T06:58:29Z</time>
      </trkpt>
      <trkpt lat="45.18306" lon="5.9143">
        <ele>1453.6</ele>
        <time>2021-02-20T06:58:30Z</time>
      </trkpt>
      <trkpt lat="45.18305" lon="5.91431">
        <ele>1453.8</ele>
        <time>2021-02-20T06:58:31Z</time>
      </trkpt>
      <trkpt lat="45.18304" lon="5.9143">
        <ele>1454</ele>
        <time>2021-02-20T06:58:32Z</time>
      </trkpt>
      <trkpt lat="45.18303" lon="5.9143">
        <ele>1454.2</ele>
        <time>2021-02-20T06:58:33Z</time>
      </trkpt>
      <trkpt lat="45.18302" lon="5.9143">
        <ele>1454.4</ele>
        <time>2021-02-20T06:58:34Z</time>
      </trkpt>
      <trkpt lat="45.18302" lon="5.9143">
        <ele>1454.5</ele>
        <time>2021-02-20T06:58:35Z</time>
      </trkpt>
      <trkpt lat="45.18301" lon="5.9143">
        <ele>1454.6</ele>
        <time>2021-02-20T06:58:36Z</time>
      </trkpt>
      <trkpt lat="45.18301" lon="5.9143">
        <ele>1454.7</ele>
        <time>2021-02-20T06:58:37Z</time>
      </trkpt>
      <trkpt lat="45.183" lon="5.9143">
        <ele>1454.9</ele>
        <time>2021-02-20T06:58:38Z</time>
      </trkpt>
      <trkpt lat="45.18299" lon="5.9143">
        <ele>1455</ele>
        <time>2021-02-20T06:58:39Z</time>
      </trkpt>
      <trkpt lat="45.18299" lon="5.91431">
        <ele>1455.2</ele>
        <time>2021-02-20T06:58:40Z</time>
      </trkpt>
      <trkpt lat="45.18298" lon="5.91431">
        <ele>1455.4</ele>
        <time>2021-02-20T06:58:41Z</time>
      </trkpt>
      <trkpt lat="45.18297" lon="5.91431">
        <ele>1455.6</ele>
        <time>2021-02-20T06:58:42Z</time>
      </trkpt>
      <trkpt lat="45.18296" lon="5.91432">
        <ele>1455.8</ele>
        <time>2021-02-20T06:58:43Z</time>
      </trkpt>
      <trkpt lat="45.18295" lon="5.91432">
        <ele>1456.1</ele>
        <time>2021-02-20T06:58:44Z</time>
      </trkpt>
      <trkpt lat="45.18292" lon="5.91431">
        <ele>1456.5</ele>
        <time>2021-02-20T06:58:45Z</time>
      </trkpt>
      <trkpt lat="45.18292" lon="5.91431">
        <ele>1456.7</ele>
        <time>2021-02-20T06:58:46Z</time>
      </trkpt>
      <trkpt lat="45.18291" lon="5.91431">
        <ele>1456.9</ele>
        <time>2021-02-20T06:58:47Z</time>
      </trkpt>
      <trkpt lat="45.18289" lon="5.91431">
        <ele>1457.2</ele>
        <time>2021-02-20T06:58:48Z</time>
      </trkpt>
      <trkpt lat="45.18288" lon="5.91431">
        <ele>1457.4</ele>
        <time>2021-02-20T06:58:49Z</time>
      </trkpt>
      <trkpt lat="45.18287" lon="5.91431">
        <ele>1457.6</ele>
        <time>2021-02-20T06:58:50Z</time>
      </trkpt>
      <trkpt lat="45.18286" lon="5.91431">
        <ele>1457.8</ele>
        <time>2021-02-20T06:58:51Z</time>
      </trkpt>
      <trkpt lat="45.18285" lon="5.91431">
        <ele>1458.1</ele>
        <time>2021-02-20T06:58:52Z</time>
      </trkpt>
      <trkpt lat="45.18284" lon="5.91431">
        <ele>1458.2</ele>
        <time>2021-02-20T06:58:53Z</time>
      </trkpt>
      <trkpt lat="45.18284" lon="5.91431">
        <ele>1458.3</ele>
        <time>2021-02-20T06:58:54Z</time>
      </trkpt>
      <trkpt lat="45.18283" lon="5.91431">
        <ele>1458.5</ele>
        <time>2021-02-20T06:58:55Z</time>
      </trkpt>
      <trkpt lat="45.18282" lon="5.91431">
        <ele>1458.6</ele>
        <time>2021-02-20T06:58:56Z</time>
      </trkpt>
      <trkpt lat="45.18282" lon="5.91431">
        <ele>1458.8</ele>
        <time>2021-02-20T06:58:57Z</time>
      </trkpt>
      <trkpt lat="45.18281" lon="5.91431">
        <ele>1458.9</ele>
        <time>2021-02-20T06:58:58Z</time>
      </trkpt>
      <trkpt lat="45.1828" lon="5.91431">
        <ele>1459.1</ele>
        <time>2021-02-20T06:58:59Z</time>
      </trkpt>
      <trkpt lat="45.18279" lon="5.91431">
        <ele>1459.3</ele>
        <time>2021-02-20T06:59:00Z</time>
      </trkpt>
      <trkpt lat="45.18277" lon="5.91431">
        <ele>1459.7</ele>
        <time>2021-02-20T06:59:01Z</time>
      </trkpt>
      <trkpt lat="45.18276" lon="5.9143">
        <ele>1460</ele>
        <time>2021-02-20T06:59:02Z</time>
      </trkpt>
      <trkpt lat="45.18274" lon="5.9143">
        <ele>1460.3</ele>
        <time>2021-02-20T06:59:03Z</time>
      </trkpt>
      <trkpt lat="45.18273" lon="5.91429">
        <ele>1460.6</ele>
        <time>2021-02-20T06:59:04Z</time>
      </trkpt>
      <trkpt lat="45.18272" lon="5.91429">
        <ele>1460.8</ele>
        <time>2021-02-20T06:59:05Z</time>
      </trkpt>
      <trkpt lat="45.18271" lon="5.91429">
        <ele>1461</ele>
        <time>2021-02-20T06:59:06Z</time>
      </trkpt>
      <trkpt lat="45.1827" lon="5.91429">
        <ele>1461.3</ele>
        <time>2021-02-20T06:59:07Z</time>
      </trkpt>
      <trkpt lat="45.18269" lon="5.91429">
        <ele>1461.4</ele>
        <time>2021-02-20T06:59:08Z</time>
      </trkpt>
      <trkpt lat="45.18268" lon="5.91429">
        <ele>1461.6</ele>
        <time>2021-02-20T06:59:09Z</time>
      </trkpt>
      <trkpt lat="45.18267" lon="5.91429">
        <ele>1461.8</ele>
        <time>2021-02-20T06:59:10Z</time>
      </trkpt>
      <trkpt lat="45.18266" lon="5.91429">
        <ele>1462</ele>
        <time>2021-02-20T06:59:11Z</time>
      </trkpt>
      <trkpt lat="45.18265" lon="5.91429">
        <ele>1462.2</ele>
        <time>2021-02-20T06:59:12Z</time>
      </trkpt>
      <trkpt lat="45.18264" lon="5.91429">
        <ele>1462.4</ele>
        <time>2021-02-20T06:59:13Z</time>
      </trkpt>
      <trkpt lat="45.18263" lon="5.9143">
        <ele>1462.5</ele>
        <time>2021-02-20T06:59:14Z</time>
      </trkpt>
      <trkpt lat="45.18263" lon="5.9143">
        <ele>1462.7</ele>
        <time>2021-02-20T06:59:15Z</time>
      </trkpt>
      <trkpt lat="45.18263" lon="5.9143">
        <ele>1462.8</ele>
        <time>2021-02-20T06:59:16Z</time>
      </trkpt>
      <trkpt lat="45.18262" lon="5.91431">
        <ele>1462.9</ele>
        <time>2021-02-20T06:59:17Z</time>
      </trkpt>
      <trkpt lat="45.18261" lon="5.91431">
        <ele>1463</ele>
        <time>2021-02-20T06:59:18Z</time>
      </trkpt>
      <trkpt lat="45.18261" lon="5.91431">
        <ele>1463.2</ele>
        <time>2021-02-20T06:59:19Z</time>
      </trkpt>
      <trkpt lat="45.1826" lon="5.91431">
        <ele>1463.4</ele>
        <time>2021-02-20T06:59:20Z</time>
      </trkpt>
      <trkpt lat="45.18259" lon="5.91432">
        <ele>1463.6</ele>
        <time>2021-02-20T06:59:21Z</time>
      </trkpt>
      <trkpt lat="45.18258" lon="5.91433">
        <ele>1463.8</ele>
        <time>2021-02-20T06:59:22Z</time>
      </trkpt>
      <trkpt lat="45.18257" lon="5.91433">
        <ele>1464</ele>
        <time>2021-02-20T06:59:23Z</time>
      </trkpt>
      <trkpt lat="45.18256" lon="5.91434">
        <ele>1464.3</ele>
        <time>2021-02-20T06:59:24Z</time>
      </trkpt>
      <trkpt lat="45.18255" lon="5.91434">
        <ele>1464.5</ele>
        <time>2021-02-20T06:59:25Z</time>
      </trkpt>
      <trkpt lat="45.18254" lon="5.91434">
        <ele>1464.6</ele>
        <time>2021-02-20T06:59:26Z</time>
      </trkpt>
      <trkpt lat="45.18254" lon="5.91434">
        <ele>1464.8</ele>
        <time>2021-02-20T06:59:27Z</time>
      </trkpt>
      <trkpt lat="45.18252" lon="5.91435">
        <ele>1465.2</ele>
        <time>2021-02-20T06:59:28Z</time>
      </trkpt>
      <trkpt lat="45.18251" lon="5.91435">
        <ele>1465.4</ele>
        <time>2021-02-20T06:59:29Z</time>
      </trkpt>
      <trkpt lat="45.1825" lon="5.91435">
        <ele>1465.6</ele>
        <time>2021-02-20T06:59:30Z</time>
      </trkpt>
      <trkpt lat="45.18249" lon="5.91435">
        <ele>1465.9</ele>
        <time>2021-02-20T06:59:31Z</time>
      </trkpt>
      <trkpt lat="45.18248" lon="5.91435">
        <ele>1466.2</ele>
        <time>2021-02-20T06:59:32Z</time>
      </trkpt>
      <trkpt lat="45.18247" lon="5.91436">
        <ele>1466.4</ele>
        <time>2021-02-20T06:59:33Z</time>
      </trkpt>
      <trkpt lat="45.18246" lon="5.91436">
        <ele>1466.6</ele>
        <time>2021-02-20T06:59:34Z</time>
      </trkpt>
      <trkpt lat="45.18245" lon="5.91437">
        <ele>1466.9</ele>
        <time>2021-02-20T06:59:35Z</time>
      </trkpt>
      <trkpt lat="45.18244" lon="5.91437">
        <ele>1467</ele>
        <time>2021-02-20T06:59:36Z</time>
      </trkpt>
      <trkpt lat="45.18243" lon="5.91437">
        <ele>1467.2</ele>
        <time>2021-02-20T06:59:37Z</time>
      </trkpt>
      <trkpt lat="45.18242" lon="5.91437">
        <ele>1467.4</ele>
        <time>2021-02-20T06:59:38Z</time>
      </trkpt>
      <trkpt lat="45.18242" lon="5.91437">
        <ele>1467.5</ele>
        <time>2021-02-20T06:59:39Z</time>
      </trkpt>
      <trkpt lat="45.18241" lon="5.91437">
        <ele>1467.7</ele>
        <time>2021-02-20T06:59:40Z</time>
      </trkpt>
      <trkpt lat="45.1824" lon="5.91437">
        <ele>1467.9</ele>
        <time>2021-02-20T06:59:41Z</time>
      </trkpt>
      <trkpt lat="45.18239" lon="5.91438">
        <ele>1468.2</ele>
        <time>2021-02-20T06:59:42Z</time>
      </trkpt>
      <trkpt lat="45.18238" lon="5.91438">
        <ele>1468.4</ele>
        <time>2021-02-20T06:59:43Z</time>
      </trkpt>
      <trkpt lat="45.18237" lon="5.91438">
        <ele>1468.5</ele>
        <time>2021-02-20T06:59:44Z</time>
      </trkpt>
      <trkpt lat="45.18236" lon="5.91438">
        <ele>1468.7</ele>
        <time>2021-02-20T06:59:45Z</time>
      </trkpt>
      <trkpt lat="45.18236" lon="5.91438">
        <ele>1468.9</ele>
        <time>2021-02-20T06:59:46Z</time>
      </trkpt>
      <trkpt lat="45.18235" lon="5.91438">
        <ele>1469</ele>
        <time>2021-02-20T06:59:47Z</time>
      </trkpt>
      <trkpt lat="45.18234" lon="5.91438">
        <ele>1469.1</ele>
        <time>2021-02-20T06:59:48Z</time>
      </trkpt>
      <trkpt lat="45.18234" lon="5.91438">
        <ele>1469.3</ele>
        <time>2021-02-20T06:59:49Z</time>
      </trkpt>
      <trkpt lat="45.18233" lon="5.91438">
        <ele>1469.4</ele>
        <time>2021-02-20T06:59:50Z</time>
      </trkpt>
      <trkpt lat="45.18232" lon="5.91437">
        <ele>1469.6</ele>
        <time>2021-02-20T06:59:51Z</time>
      </trkpt>
      <trkpt lat="45.18231" lon="5.91437">
        <ele>1469.8</ele>
        <time>2021-02-20T06:59:52Z</time>
      </trkpt>
      <trkpt lat="45.18231" lon="5.91437">
        <ele>1469.9</ele>
        <time>2021-02-20T06:59:53Z</time>
      </trkpt>
      <trkpt lat="45.1823" lon="5.91437">
        <ele>1470</ele>
        <time>2021-02-20T06:59:54Z</time>
      </trkpt>
      <trkpt lat="45.1823" lon="5.91438">
        <ele>1470.1</ele>
        <time>2021-02-20T06:59:55Z</time>
      </trkpt>
      <trkpt lat="45.1823" lon="5.91438">
        <ele>1470.2</ele>
        <time>2021-02-20T06:59:56Z</time>
      </trkpt>
      <trkpt lat="45.18229" lon="5.91439">
        <ele>1470.3</ele>
        <time>2021-02-20T06:59:57Z</time>
      </trkpt>
      <trkpt lat="45.18229" lon="5.9144">
        <ele>1470.5</ele>
        <time>2021-02-20T06:59:58Z</time>
      </trkpt>
      <trkpt lat="45.18228" lon="5.9144">
        <ele>1470.6</ele>
        <time>2021-02-20T06:59:59Z</time>
      </trkpt>
      <trkpt lat="45.18228" lon="5.91441">
        <ele>1470.8</ele>
        <time>2021-02-20T07:00:00Z</time>
      </trkpt>
      <trkpt lat="45.18227" lon="5.91442">
        <ele>1470.9</ele>
        <time>2021-02-20T07:00:01Z</time>
      </trkpt>
      <trkpt lat="45.18226" lon="5.91442">
        <ele>1471.1</ele>
        <time>2021-02-20T07:00:02Z</time>
      </trkpt>
      <trkpt lat="45.18226" lon="5.91442">
        <ele>1471.2</ele>
        <time>2021-02-20T07:00:03Z</time>
      </trkpt>
      <trkpt lat="45.18226" lon="5.91443">
        <ele>1471.3</ele>
        <time>2021-02-20T07:00:04Z</time>
      </trkpt>
      <trkpt lat="45.18225" lon="5.91443">
        <ele>1471.4</ele>
        <time>2021-02-20T07:00:05Z</time>
      </trkpt>
      <trkpt lat="45.18225" lon="5.91443">
        <ele>1471.5</ele>
        <time>2021-02-20T07:00:06Z</time>
      </trkpt>
      <trkpt lat="45.18224" lon="5.91443">
        <ele>1471.6</ele>
        <time>2021-02-20T07:00:07Z</time>
      </trkpt>
      <trkpt lat="45.18223" lon="5.91444">
        <ele>1471.8</ele>
        <time>2021-02-20T07:00:08Z</time>
      </trkpt>
      <trkpt lat="45.18223" lon="5.91444">
        <ele>1472</ele>
        <time>2021-02-20T07:00:09Z</time>
      </trkpt>
      <trkpt lat="45.18222" lon="5.91445">
        <ele>1472.1</ele>
        <time>2021-02-20T07:00:10Z</time>
      </trkpt>
      <trkpt lat="45.18221" lon="5.91445">
        <ele>1472.3</ele>
        <time>2021-02-20T07:00:11Z</time>
      </trkpt>
      <trkpt lat="45.18221" lon="5.91445">
        <ele>1472.4</ele>
        <time>2021-02-20T07:00:12Z</time>
      </trkpt>
      <trkpt lat="45.1822" lon="5.91445">
        <ele>1472.5</ele>
        <time>2021-02-20T07:00:13Z</time>
      </trkpt>
      <trkpt lat="45.18219" lon="5.91446">
        <ele>1472.8</ele>
        <time>2021-02-20T07:00:14Z</time>
      </trkpt>
      <trkpt lat="45.18218" lon="5.91447">
        <ele>1473</ele>
        <time>2021-02-20T07:00:15Z</time>
      </trkpt>
      <trkpt lat="45.18218" lon="5.91447">
        <ele>1473.2</ele>
        <time>2021-02-20T07:00:16Z</time>
      </trkpt>
      <trkpt lat="45.18217" lon="5.91448">
        <ele>1473.3</ele>
        <time>2021-02-20T07:00:17Z</time>
      </trkpt>
      <trkpt lat="45.18216" lon="5.91448">
        <ele>1473.5</ele>
        <time>2021-02-20T07:00:18Z</time>
      </trkpt>
      <trkpt lat="45.18215" lon="5.91449">
        <ele>1473.7</ele>
        <time>2021-02-20T07:00:19Z</time>
      </trkpt>
      <trkpt lat="45.18215" lon="5.91449">
        <ele>1473.9</ele>
        <time>2021-02-20T07:00:20Z</time>
      </trkpt>
      <trkpt lat="45.18214" lon="5.9145">
        <ele>1474</ele>
        <time>2021-02-20T07:00:21Z</time>
      </trkpt>
      <trkpt lat="45.18213" lon="5.9145">
        <ele>1474.2</ele>
        <time>2021-02-20T07:00:22Z</time>
      </trkpt>
      <trkpt lat="45.18212" lon="5.9145">
        <ele>1474.5</ele>
        <time>2021-02-20T07:00:23Z</time>
      </trkpt>
      <trkpt lat="45.1821" lon="5.91451">
        <ele>1474.8</ele>
        <time>2021-02-20T07:00:24Z</time>
      </trkpt>
      <trkpt lat="45.18209" lon="5.91452">
        <ele>1475</ele>
        <time>2021-02-20T07:00:25Z</time>
      </trkpt>
      <trkpt lat="45.18209" lon="5.91452">
        <ele>1475.1</ele>
        <time>2021-02-20T07:00:26Z</time>
      </trkpt>
      <trkpt lat="45.18208" lon="5.91453">
        <ele>1475.3</ele>
        <time>2021-02-20T07:00:27Z</time>
      </trkpt>
      <trkpt lat="45.18207" lon="5.91453">
        <ele>1475.5</ele>
        <time>2021-02-20T07:00:28Z</time>
      </trkpt>
      <trkpt lat="45.18207" lon="5.91454">
        <ele>1475.6</ele>
        <time>2021-02-20T07:00:29Z</time>
      </trkpt>
      <trkpt lat="45.18206" lon="5.91454">
        <ele>1475.7</ele>
        <time>2021-02-20T07:00:30Z</time>
      </trkpt>
      <trkpt lat="45.18206" lon="5.91455">
        <ele>1475.9</ele>
        <time>2021-02-20T07:00:31Z</time>
      </trkpt>
      <trkpt lat="45.18205" lon="5.91456">
        <ele>1476.1</ele>
        <time>2021-02-20T07:00:32Z</time>
      </trkpt>
      <trkpt lat="45.18205" lon="5.91456">
        <ele>1476.2</ele>
        <time>2021-02-20T07:00:33Z</time>
      </trkpt>
      <trkpt lat="45.18204" lon="5.91456">
        <ele>1476.3</ele>
        <time>2021-02-20T07:00:34Z</time>
      </trkpt>
      <trkpt lat="45.18203" lon="5.91457">
        <ele>1476.5</ele>
        <time>2021-02-20T07:00:35Z</time>
      </trkpt>
      <trkpt lat="45.18203" lon="5.91457">
        <ele>1476.6</ele>
        <time>2021-02-20T07:00:36Z</time>
      </trkpt>
      <trkpt lat="45.18202" lon="5.91457">
        <ele>1476.8</ele>
        <time>2021-02-20T07:00:37Z</time>
      </trkpt>
      <trkpt lat="45.18201" lon="5.91458">
        <ele>1476.9</ele>
        <time>2021-02-20T07:00:38Z</time>
      </trkpt>
      <trkpt lat="45.182" lon="5.91458">
        <ele>1477.1</ele>
        <time>2021-02-20T07:00:39Z</time>
      </trkpt>
      <trkpt lat="45.182" lon="5.91459">
        <ele>1477.2</ele>
        <time>2021-02-20T07:00:40Z</time>
      </trkpt>
      <trkpt lat="45.18199" lon="5.91459">
        <ele>1477.3</ele>
        <time>2021-02-20T07:00:41Z</time>
      </trkpt>
      <trkpt lat="45.18199" lon="5.9146">
        <ele>1477.5</ele>
        <time>2021-02-20T07:00:42Z</time>
      </trkpt>
      <trkpt lat="45.18198" lon="5.9146">
        <ele>1477.6</ele>
        <time>2021-02-20T07:00:43Z</time>
      </trkpt>
      <trkpt lat="45.18198" lon="5.91461">
        <ele>1477.7</ele>
        <time>2021-02-20T07:00:44Z</time>
      </trkpt>
      <trkpt lat="45.18197" lon="5.91461">
        <ele>1477.8</ele>
        <time>2021-02-20T07:00:45Z</time>
      </trkpt>
      <trkpt lat="45.18196" lon="5.91461">
        <ele>1478</ele>
        <time>2021-02-20T07:00:46Z</time>
      </trkpt>
      <trkpt lat="45.18195" lon="5.91462">
        <ele>1478.1</ele>
        <time>2021-02-20T07:00:47Z</time>
      </trkpt>
      <trkpt lat="45.18195" lon="5.91462">
        <ele>1478.3</ele>
        <time>2021-02-20T07:00:48Z</time>
      </trkpt>
      <trkpt lat="45.18194" lon="5.91462">
        <ele>1478.4</ele>
        <time>2021-02-20T07:00:49Z</time>
      </trkpt>
      <trkpt lat="45.18193" lon="5.91463">
        <ele>1478.7</ele>
        <time>2021-02-20T07:00:50Z</time>
      </trkpt>
      <trkpt lat="45.18192" lon="5.91464">
        <ele>1478.8</ele>
        <time>2021-02-20T07:00:51Z</time>
      </trkpt>
      <trkpt lat="45.18191" lon="5.91464">
        <ele>1479</ele>
        <time>2021-02-20T07:00:52Z</time>
      </trkpt>
      <trkpt lat="45.18189" lon="5.91465">
        <ele>1479.3</ele>
        <time>2021-02-20T07:00:53Z</time>
      </trkpt>
      <trkpt lat="45.18189" lon="5.91466">
        <ele>1479.3</ele>
        <time>2021-02-20T07:00:54Z</time>
      </trkpt>
      <trkpt lat="45.18188" lon="5.91466">
        <ele>1479.5</ele>
        <time>2021-02-20T07:00:55Z</time>
      </trkpt>
      <trkpt lat="45.18188" lon="5.91467">
        <ele>1479.6</ele>
        <time>2021-02-20T07:00:56Z</time>
      </trkpt>
      <trkpt lat="45.18187" lon="5.91467">
        <ele>1479.7</ele>
        <time>2021-02-20T07:00:57Z</time>
      </trkpt>
      <trkpt lat="45.18186" lon="5.91468">
        <ele>1479.9</ele>
        <time>2021-02-20T07:00:58Z</time>
      </trkpt>
      <trkpt lat="45.18185" lon="5.91468">
        <ele>1480</ele>
        <time>2021-02-20T07:00:59Z</time>
      </trkpt>
      <trkpt lat="45.18184" lon="5.91468">
        <ele>1480.1</ele>
        <time>2021-02-20T07:01:00Z</time>
      </trkpt>
      <trkpt lat="45.18184" lon="5.91469">
        <ele>1480.3</ele>
        <time>2021-02-20T07:01:01Z</time>
      </trkpt>
      <trkpt lat="45.18183" lon="5.91469">
        <ele>1480.4</ele>
        <time>2021-02-20T07:01:02Z</time>
      </trkpt>
      <trkpt lat="45.18182" lon="5.91469">
        <ele>1480.6</ele>
        <time>2021-02-20T07:01:03Z</time>
      </trkpt>
      <trkpt lat="45.18181" lon="5.9147">
        <ele>1480.7</ele>
        <time>2021-02-20T07:01:04Z</time>
      </trkpt>
      <trkpt lat="45.1818" lon="5.9147">
        <ele>1480.9</ele>
        <time>2021-02-20T07:01:05Z</time>
      </trkpt>
      <trkpt lat="45.18179" lon="5.91471">
        <ele>1481</ele>
        <time>2021-02-20T07:01:06Z</time>
      </trkpt>
      <trkpt lat="45.18179" lon="5.91471">
        <ele>1481.1</ele>
        <time>2021-02-20T07:01:07Z</time>
      </trkpt>
      <trkpt lat="45.18178" lon="5.91472">
        <ele>1481.2</ele>
        <time>2021-02-20T07:01:08Z</time>
      </trkpt>
      <trkpt lat="45.18178" lon="5.91471">
        <ele>1481.3</ele>
        <time>2021-02-20T07:01:09Z</time>
      </trkpt>
      <trkpt lat="45.18177" lon="5.91471">
        <ele>1481.4</ele>
        <time>2021-02-20T07:01:10Z</time>
      </trkpt>
      <trkpt lat="45.18176" lon="5.91471">
        <ele>1481.6</ele>
        <time>2021-02-20T07:01:11Z</time>
      </trkpt>
      <trkpt lat="45.18175" lon="5.91471">
        <ele>1481.7</ele>
        <time>2021-02-20T07:01:12Z</time>
      </trkpt>
      <trkpt lat="45.18174" lon="5.91472">
        <ele>1481.9</ele>
        <time>2021-02-20T07:01:13Z</time>
      </trkpt>
      <trkpt lat="45.18173" lon="5.91472">
        <ele>1482</ele>
        <time>2021-02-20T07:01:14Z</time>
      </trkpt>
      <trkpt lat="45.18172" lon="5.91472">
        <ele>1482.2</ele>
        <time>2021-02-20T07:01:15Z</time>
      </trkpt>
      <trkpt lat="45.18171" lon="5.91472">
        <ele>1482.4</ele>
        <time>2021-02-20T07:01:16Z</time>
      </trkpt>
      <trkpt lat="45.1817" lon="5.91472">
        <ele>1482.5</ele>
        <time>2021-02-20T07:01:17Z</time>
      </trkpt>
      <trkpt lat="45.18169" lon="5.91472">
        <ele>1482.7</ele>
        <time>2021-02-20T07:01:18Z</time>
      </trkpt>
      <trkpt lat="45.18168" lon="5.91472">
        <ele>1482.8</ele>
        <time>2021-02-20T07:01:19Z</time>
      </trkpt>
      <trkpt lat="45.18167" lon="5.91472">
        <ele>1483</ele>
        <time>2021-02-20T07:01:20Z</time>
      </trkpt>
      <trkpt lat="45.18166" lon="5.91472">
        <ele>1483.3</ele>
        <time>2021-02-20T07:01:21Z</time>
      </trkpt>
      <trkpt lat="45.18165" lon="5.91473">
        <ele>1483.5</ele>
        <time>2021-02-20T07:01:22Z</time>
      </trkpt>
      <trkpt lat="45.18165" lon="5.91473">
        <ele>1483.6</ele>
        <time>2021-02-20T07:01:23Z</time>
      </trkpt>
      <trkpt lat="45.18164" lon="5.91472">
        <ele>1483.8</ele>
        <time>2021-02-20T07:01:24Z</time>
      </trkpt>
      <trkpt lat="45.18163" lon="5.91472">
        <ele>1484</ele>
        <time>2021-02-20T07:01:25Z</time>
      </trkpt>
      <trkpt lat="45.18162" lon="5.91472">
        <ele>1484.2</ele>
        <time>2021-02-20T07:01:26Z</time>
      </trkpt>
      <trkpt lat="45.18161" lon="5.91472">
        <ele>1484.4</ele>
        <time>2021-02-20T07:01:27Z</time>
      </trkpt>
      <trkpt lat="45.1816" lon="5.91472">
        <ele>1484.6</ele>
        <time>2021-02-20T07:01:28Z</time>
      </trkpt>
      <trkpt lat="45.1816" lon="5.91472">
        <ele>1484.7</ele>
        <time>2021-02-20T07:01:29Z</time>
      </trkpt>
      <trkpt lat="45.18159" lon="5.91472">
        <ele>1484.9</ele>
        <time>2021-02-20T07:01:30Z</time>
      </trkpt>
      <trkpt lat="45.18159" lon="5.91472">
        <ele>1484.9</ele>
        <time>2021-02-20T07:01:31Z</time>
      </trkpt>
      <trkpt lat="45.18158" lon="5.91472">
        <ele>1485.1</ele>
        <time>2021-02-20T07:01:32Z</time>
      </trkpt>
      <trkpt lat="45.18157" lon="5.91472">
        <ele>1485.2</ele>
        <time>2021-02-20T07:01:33Z</time>
      </trkpt>
      <trkpt lat="45.18157" lon="5.91472">
        <ele>1485.4</ele>
        <time>2021-02-20T07:01:34Z</time>
      </trkpt>
      <trkpt lat="45.18156" lon="5.91472">
        <ele>1485.5</ele>
        <time>2021-02-20T07:01:35Z</time>
      </trkpt>
      <trkpt lat="45.18155" lon="5.91472">
        <ele>1485.7</ele>
        <time>2021-02-20T07:01:36Z</time>
      </trkpt>
      <trkpt lat="45.18155" lon="5.91473">
        <ele>1485.9</ele>
        <time>2021-02-20T07:01:37Z</time>
      </trkpt>
      <trkpt lat="45.18154" lon="5.91473">
        <ele>1486.2</ele>
        <time>2021-02-20T07:01:38Z</time>
      </trkpt>
      <trkpt lat="45.18153" lon="5.91473">
        <ele>1486.4</ele>
        <time>2021-02-20T07:01:39Z</time>
      </trkpt>
      <trkpt lat="45.18152" lon="5.91474">
        <ele>1486.6</ele>
        <time>2021-02-20T07:01:40Z</time>
      </trkpt>
      <trkpt lat="45.18151" lon="5.91475">
        <ele>1486.9</ele>
        <time>2021-02-20T07:01:41Z</time>
      </trkpt>
      <trkpt lat="45.18151" lon="5.91476">
        <ele>1487</ele>
        <time>2021-02-20T07:01:42Z</time>
      </trkpt>
      <trkpt lat="45.1815" lon="5.91477">
        <ele>1487.3</ele>
        <time>2021-02-20T07:01:43Z</time>
      </trkpt>
      <trkpt lat="45.18149" lon="5.91477">
        <ele>1487.5</ele>
        <time>2021-02-20T07:01:44Z</time>
      </trkpt>
      <trkpt lat="45.18148" lon="5.91478">
        <ele>1487.8</ele>
        <time>2021-02-20T07:01:45Z</time>
      </trkpt>
      <trkpt lat="45.18147" lon="5.91479">
        <ele>1488.1</ele>
        <time>2021-02-20T07:01:46Z</time>
      </trkpt>
      <trkpt lat="45.18147" lon="5.9148">
        <ele>1488.2</ele>
        <time>2021-02-20T07:01:47Z</time>
      </trkpt>
      <trkpt lat="45.18146" lon="5.91481">
        <ele>1488.5</ele>
        <time>2021-02-20T07:01:48Z</time>
      </trkpt>
      <trkpt lat="45.18145" lon="5.91482">
        <ele>1488.7</ele>
        <time>2021-02-20T07:01:49Z</time>
      </trkpt>
      <trkpt lat="45.18144" lon="5.91482">
        <ele>1488.9</ele>
        <time>2021-02-20T07:01:50Z</time>
      </trkpt>
      <trkpt lat="45.18143" lon="5.91483">
        <ele>1489.1</ele>
        <time>2021-02-20T07:01:51Z</time>
      </trkpt>
      <trkpt lat="45.18143" lon="5.91483">
        <ele>1489.3</ele>
        <time>2021-02-20T07:01:52Z</time>
      </trkpt>
      <trkpt lat="45.18142" lon="5.91483">
        <ele>1489.4</ele>
        <time>2021-02-20T07:01:53Z</time>
      </trkpt>
      <trkpt lat="45.18141" lon="5.91483">
        <ele>1489.6</ele>
        <time>2021-02-20T07:01:54Z</time>
      </trkpt>
      <trkpt lat="45.1814" lon="5.91483">
        <ele>1489.8</ele>
        <time>2021-02-20T07:01:55Z</time>
      </trkpt>
      <trkpt lat="45.18139" lon="5.91483">
        <ele>1490</ele>
        <time>2021-02-20T07:01:56Z</time>
      </trkpt>
      <trkpt lat="45.18138" lon="5.91483">
        <ele>1490.2</ele>
        <time>2021-02-20T07:01:57Z</time>
      </trkpt>
      <trkpt lat="45.18137" lon="5.91484">
        <ele>1490.4</ele>
        <time>2021-02-20T07:01:58Z</time>
      </trkpt>
      <trkpt lat="45.18136" lon="5.91484">
        <ele>1490.5</ele>
        <time>2021-02-20T07:01:59Z</time>
      </trkpt>
      <trkpt lat="45.18135" lon="5.91485">
        <ele>1490.7</ele>
        <time>2021-02-20T07:02:00Z</time>
      </trkpt>
      <trkpt lat="45.18134" lon="5.91486">
        <ele>1490.9</ele>
        <time>2021-02-20T07:02:01Z</time>
      </trkpt>
      <trkpt lat="45.18134" lon="5.91486">
        <ele>1491.1</ele>
        <time>2021-02-20T07:02:02Z</time>
      </trkpt>
      <trkpt lat="45.18133" lon="5.91487">
        <ele>1491.2</ele>
        <time>2021-02-20T07:02:03Z</time>
      </trkpt>
      <trkpt lat="45.18132" lon="5.91487">
        <ele>1491.4</ele>
        <time>2021-02-20T07:02:04Z</time>
      </trkpt>
      <trkpt lat="45.18131" lon="5.91489">
        <ele>1491.6</ele>
        <time>2021-02-20T07:02:05Z</time>
      </trkpt>
      <trkpt lat="45.18131" lon="5.91489">
        <ele>1491.7</ele>
        <time>2021-02-20T07:02:06Z</time>
      </trkpt>
      <trkpt lat="45.1813" lon="5.9149">
        <ele>1491.9</ele>
        <time>2021-02-20T07:02:07Z</time>
      </trkpt>
      <trkpt lat="45.18129" lon="5.91491">
        <ele>1492</ele>
        <time>2021-02-20T07:02:08Z</time>
      </trkpt>
      <trkpt lat="45.18128" lon="5.91492">
        <ele>1492.1</ele>
        <time>2021-02-20T07:02:09Z</time>
      </trkpt>
      <trkpt lat="45.18128" lon="5.91492">
        <ele>1492.3</ele>
        <time>2021-02-20T07:02:10Z</time>
      </trkpt>
      <trkpt lat="45.18127" lon="5.91493">
        <ele>1492.4</ele>
        <time>2021-02-20T07:02:11Z</time>
      </trkpt>
      <trkpt lat="45.18126" lon="5.91493">
        <ele>1492.5</ele>
        <time>2021-02-20T07:02:12Z</time>
      </trkpt>
      <trkpt lat="45.18125" lon="5.91494">
        <ele>1492.6</ele>
        <time>2021-02-20T07:02:13Z</time>
      </trkpt>
      <trkpt lat="45.18125" lon="5.91495">
        <ele>1492.7</ele>
        <time>2021-02-20T07:02:14Z</time>
      </trkpt>
      <trkpt lat="45.18124" lon="5.91496">
        <ele>1492.8</ele>
        <time>2021-02-20T07:02:15Z</time>
      </trkpt>
      <trkpt lat="45.18124" lon="5.91497">
        <ele>1492.9</ele>
        <time>2021-02-20T07:02:16Z</time>
      </trkpt>
      <trkpt lat="45.18124" lon="5.91497">
        <ele>1493</ele>
        <time>2021-02-20T07:02:17Z</time>
      </trkpt>
      <trkpt lat="45.18124" lon="5.91498">
        <ele>1493.1</ele>
        <time>2021-02-20T07:02:18Z</time>
      </trkpt>
      <trkpt lat="45.18123" lon="5.915">
        <ele>1493.2</ele>
        <time>2021-02-20T07:02:19Z</time>
      </trkpt>
      <trkpt lat="45.18123" lon="5.91501">
        <ele>1493.2</ele>
        <time>2021-02-20T07:02:20Z</time>
      </trkpt>
      <trkpt lat="45.18123" lon="5.91502">
        <ele>1493.3</ele>
        <time>2021-02-20T07:02:21Z</time>
      </trkpt>
      <trkpt lat="45.18122" lon="5.91503">
        <ele>1493.4</ele>
        <time>2021-02-20T07:02:22Z</time>
      </trkpt>
      <trkpt lat="45.18122" lon="5.91504">
        <ele>1493.5</ele>
        <time>2021-02-20T07:02:23Z</time>
      </trkpt>
      <trkpt lat="45.18122" lon="5.91505">
        <ele>1493.6</ele>
        <time>2021-02-20T07:02:24Z</time>
      </trkpt>
      <trkpt lat="45.18122" lon="5.91507">
        <ele>1493.7</ele>
        <time>2021-02-20T07:02:25Z</time>
      </trkpt>
      <trkpt lat="45.18122" lon="5.91508">
        <ele>1493.8</ele>
        <time>2021-02-20T07:02:26Z</time>
      </trkpt>
      <trkpt lat="45.18122" lon="5.9151">
        <ele>1493.9</ele>
        <time>2021-02-20T07:02:27Z</time>
      </trkpt>
      <trkpt lat="45.18123" lon="5.91511">
        <ele>1494</ele>
        <time>2021-02-20T07:02:28Z</time>
      </trkpt>
      <trkpt lat="45.18123" lon="5.91512">
        <ele>1494.1</ele>
        <time>2021-02-20T07:02:29Z</time>
      </trkpt>
      <trkpt lat="45.18123" lon="5.91513">
        <ele>1494.1</ele>
        <time>2021-02-20T07:02:30Z</time>
      </trkpt>
      <trkpt lat="45.18124" lon="5.91514">
        <ele>1494.2</ele>
        <time>2021-02-20T07:02:31Z</time>
      </trkpt>
      <trkpt lat="45.18124" lon="5.91515">
        <ele>1494.3</ele>
        <time>2021-02-20T07:02:32Z</time>
      </trkpt>
      <trkpt lat="45.18124" lon="5.91516">
        <ele>1494.3</ele>
        <time>2021-02-20T07:02:33Z</time>
      </trkpt>
      <trkpt lat="45.18124" lon="5.91518">
        <ele>1494.4</ele>
        <time>2021-02-20T07:02:34Z</time>
      </trkpt>
      <trkpt lat="45.18125" lon="5.91519">
        <ele>1494.5</ele>
        <time>2021-02-20T07:02:35Z</time>
      </trkpt>
      <trkpt lat="45.18125" lon="5.9152">
        <ele>1494.6</ele>
        <time>2021-02-20T07:02:36Z</time>
      </trkpt>
      <trkpt lat="45.18125" lon="5.91522">
        <ele>1494.6</ele>
        <time>2021-02-20T07:02:37Z</time>
      </trkpt>
      <trkpt lat="45.18125" lon="5.91523">
        <ele>1494.7</ele>
        <time>2021-02-20T07:02:38Z</time>
      </trkpt>
      <trkpt lat="45.18125" lon="5.91524">
        <ele>1494.8</ele>
        <time>2021-02-20T07:02:39Z</time>
      </trkpt>
      <trkpt lat="45.18126" lon="5.91526">
        <ele>1494.8</ele>
        <time>2021-02-20T07:02:40Z</time>
      </trkpt>
      <trkpt lat="45.18126" lon="5.91527">
        <ele>1494.9</ele>
        <time>2021-02-20T07:02:41Z</time>
      </trkpt>
      <trkpt lat="45.18126" lon="5.91528">
        <ele>1494.9</ele>
        <time>2021-02-20T07:02:42Z</time>
      </trkpt>
      <trkpt lat="45.18126" lon="5.9153">
        <ele>1495</ele>
        <time>2021-02-20T07:02:43Z</time>
      </trkpt>
      <trkpt lat="45.18126" lon="5.91531">
        <ele>1495.1</ele>
        <time>2021-02-20T07:02:44Z</time>
      </trkpt>
      <trkpt lat="45.18126" lon="5.91533">
        <ele>1495.2</ele>
        <time>2021-02-20T07:02:45Z</time>
      </trkpt>
      <trkpt lat="45.18125" lon="5.91534">
        <ele>1495.3</ele>
        <time>2021-02-20T07:02:46Z</time>
      </trkpt>
      <trkpt lat="45.18125" lon="5.91536">
        <ele>1495.3</ele>
        <time>2021-02-20T07:02:47Z</time>
      </trkpt>
      <trkpt lat="45.18125" lon="5.91537">
        <ele>1495.4</ele>
        <time>2021-02-20T07:02:48Z</time>
      </trkpt>
      <trkpt lat="45.18125" lon="5.91538">
        <ele>1495.5</ele>
        <time>2021-02-20T07:02:49Z</time>
      </trkpt>
      <trkpt lat="45.18125" lon="5.91539">
        <ele>1495.5</ele>
        <time>2021-02-20T07:02:50Z</time>
      </trkpt>
      <trkpt lat="45.18125" lon="5.9154">
        <ele>1495.6</ele>
        <time>2021-02-20T07:02:51Z</time>
      </trkpt>
      <trkpt lat="45.18125" lon="5.91541">
        <ele>1495.6</ele>
        <time>2021-02-20T07:02:52Z</time>
      </trkpt>
      <trkpt lat="45.18125" lon="5.91542">
        <ele>1495.7</ele>
        <time>2021-02-20T07:02:53Z</time>
      </trkpt>
      <trkpt lat="45.18126" lon="5.91543">
        <ele>1495.7</ele>
        <time>2021-02-20T07:02:54Z</time>
      </trkpt>
      <trkpt lat="45.18126" lon="5.91543">
        <ele>1495.8</ele>
        <time>2021-02-20T07:02:55Z</time>
      </trkpt>
      <trkpt lat="45.18125" lon="5.91545">
        <ele>1495.9</ele>
        <time>2021-02-20T07:02:56Z</time>
      </trkpt>
      <trkpt lat="45.18125" lon="5.91546">
        <ele>1495.9</ele>
        <time>2021-02-20T07:02:57Z</time>
      </trkpt>
      <trkpt lat="45.18125" lon="5.91547">
        <ele>1496</ele>
        <time>2021-02-20T07:02:58Z</time>
      </trkpt>
      <trkpt lat="45.18124" lon="5.91548">
        <ele>1496.1</ele>
        <time>2021-02-20T07:02:59Z</time>
      </trkpt>
      <trkpt lat="45.18124" lon="5.91549">
        <ele>1496.2</ele>
        <time>2021-02-20T07:03:00Z</time>
      </trkpt>
      <trkpt lat="45.18124" lon="5.9155">
        <ele>1496.3</ele>
        <time>2021-02-20T07:03:01Z</time>
      </trkpt>
      <trkpt lat="45.18124" lon="5.91551">
        <ele>1496.3</ele>
        <time>2021-02-20T07:03:02Z</time>
      </trkpt>
      <trkpt lat="45.18123" lon="5.91552">
        <ele>1496.4</ele>
        <time>2021-02-20T07:03:03Z</time>
      </trkpt>
      <trkpt lat="45.18123" lon="5.91552">
        <ele>1496.5</ele>
        <time>2021-02-20T07:03:04Z</time>
      </trkpt>
      <trkpt lat="45.18123" lon="5.91553">
        <ele>1496.5</ele>
        <time>2021-02-20T07:03:05Z</time>
      </trkpt>
      <trkpt lat="45.18122" lon="5.91554">
        <ele>1496.6</ele>
        <time>2021-02-20T07:03:06Z</time>
      </trkpt>
      <trkpt lat="45.18122" lon="5.91555">
        <ele>1496.7</ele>
        <time>2021-02-20T07:03:07Z</time>
      </trkpt>
      <trkpt lat="45.18122" lon="5.91556">
        <ele>1496.8</ele>
        <time>2021-02-20T07:03:08Z</time>
      </trkpt>
      <trkpt lat="45.18122" lon="5.91557">
        <ele>1496.9</ele>
        <time>2021-02-20T07:03:09Z</time>
      </trkpt>
      <trkpt lat="45.18122" lon="5.91558">
        <ele>1497</ele>
        <time>2021-02-20T07:03:10Z</time>
      </trkpt>
      <trkpt lat="45.18121" lon="5.91559">
        <ele>1497.1</ele>
        <time>2021-02-20T07:03:11Z</time>
      </trkpt>
      <trkpt lat="45.18121" lon="5.9156">
        <ele>1497.2</ele>
        <time>2021-02-20T07:03:12Z</time>
      </trkpt>
      <trkpt lat="45.1812" lon="5.91561">
        <ele>1497.3</ele>
        <time>2021-02-20T07:03:13Z</time>
      </trkpt>
      <trkpt lat="45.18119" lon="5.91562">
        <ele>1497.4</ele>
        <time>2021-02-20T07:03:14Z</time>
      </trkpt>
      <trkpt lat="45.18119" lon="5.91563">
        <ele>1497.5</ele>
        <time>2021-02-20T07:03:15Z</time>
      </trkpt>
      <trkpt lat="45.18118" lon="5.91564">
        <ele>1497.6</ele>
        <time>2021-02-20T07:03:16Z</time>
      </trkpt>
      <trkpt lat="45.18117" lon="5.91565">
        <ele>1497.8</ele>
        <time>2021-02-20T07:03:17Z</time>
      </trkpt>
      <trkpt lat="45.18116" lon="5.91566">
        <ele>1498</ele>
        <time>2021-02-20T07:03:18Z</time>
      </trkpt>
      <trkpt lat="45.18114" lon="5.91567">
        <ele>1498.3</ele>
        <time>2021-02-20T07:03:19Z</time>
      </trkpt>
      <trkpt lat="45.18113" lon="5.91568">
        <ele>1498.4</ele>
        <time>2021-02-20T07:03:20Z</time>
      </trkpt>
      <trkpt lat="45.18112" lon="5.91568">
        <ele>1498.5</ele>
        <time>2021-02-20T07:03:21Z</time>
      </trkpt>
      <trkpt lat="45.18112" lon="5.91568">
        <ele>1498.6</ele>
        <time>2021-02-20T07:03:22Z</time>
      </trkpt>
      <trkpt lat="45.18111" lon="5.91569">
        <ele>1498.7</ele>
        <time>2021-02-20T07:03:23Z</time>
      </trkpt>
      <trkpt lat="45.1811" lon="5.91569">
        <ele>1498.8</ele>
        <time>2021-02-20T07:03:24Z</time>
      </trkpt>
      <trkpt lat="45.1811" lon="5.9157">
        <ele>1498.9</ele>
        <time>2021-02-20T07:03:25Z</time>
      </trkpt>
      <trkpt lat="45.18109" lon="5.9157">
        <ele>1499</ele>
        <time>2021-02-20T07:03:26Z</time>
      </trkpt>
      <trkpt lat="45.18108" lon="5.91571">
        <ele>1499.1</ele>
        <time>2021-02-20T07:03:27Z</time>
      </trkpt>
      <trkpt lat="45.18108" lon="5.91572">
        <ele>1499.2</ele>
        <time>2021-02-20T07:03:28Z</time>
      </trkpt>
      <trkpt lat="45.18107" lon="5.91572">
        <ele>1499.4</ele>
        <time>2021-02-20T07:03:29Z</time>
      </trkpt>
      <trkpt lat="45.18105" lon="5.91573">
        <ele>1499.5</ele>
        <time>2021-02-20T07:03:30Z</time>
      </trkpt>
      <trkpt lat="45.18105" lon="5.91573">
        <ele>1499.7</ele>
        <time>2021-02-20T07:03:31Z</time>
      </trkpt>
      <trkpt lat="45.18104" lon="5.91574">
        <ele>1499.8</ele>
        <time>2021-02-20T07:03:32Z</time>
      </trkpt>
      <trkpt lat="45.18103" lon="5.91574">
        <ele>1499.9</ele>
        <time>2021-02-20T07:03:33Z</time>
      </trkpt>
      <trkpt lat="45.18102" lon="5.91574">
        <ele>1500</ele>
        <time>2021-02-20T07:03:34Z</time>
      </trkpt>
      <trkpt lat="45.18101" lon="5.91574">
        <ele>1500.1</ele>
        <time>2021-02-20T07:03:35Z</time>
      </trkpt>
      <trkpt lat="45.181" lon="5.91575">
        <ele>1500.2</ele>
        <time>2021-02-20T07:03:36Z</time>
      </trkpt>
      <trkpt lat="45.18099" lon="5.91575">
        <ele>1500.3</ele>
        <time>2021-02-20T07:03:37Z</time>
      </trkpt>
      <trkpt lat="45.18098" lon="5.91575">
        <ele>1500.4</ele>
        <time>2021-02-20T07:03:38Z</time>
      </trkpt>
      <trkpt lat="45.18097" lon="5.91575">
        <ele>1500.6</ele>
        <time>2021-02-20T07:03:39Z</time>
      </trkpt>
      <trkpt lat="45.18096" lon="5.91575">
        <ele>1500.6</ele>
        <time>2021-02-20T07:03:40Z</time>
      </trkpt>
      <trkpt lat="45.18096" lon="5.91576">
        <ele>1500.7</ele>
        <time>2021-02-20T07:03:41Z</time>
      </trkpt>
      <trkpt lat="45.18095" lon="5.91576">
        <ele>1500.8</ele>
        <time>2021-02-20T07:03:42Z</time>
      </trkpt>
      <trkpt lat="45.18095" lon="5.91577">
        <ele>1500.8</ele>
        <time>2021-02-20T07:03:43Z</time>
      </trkpt>
      <trkpt lat="45.18095" lon="5.91578">
        <ele>1500.9</ele>
        <time>2021-02-20T07:03:44Z</time>
      </trkpt>
      <trkpt lat="45.18095" lon="5.9158">
        <ele>1501</ele>
        <time>2021-02-20T07:03:45Z</time>
      </trkpt>
      <trkpt lat="45.18094" lon="5.91581">
        <ele>1501.1</ele>
        <time>2021-02-20T07:03:46Z</time>
      </trkpt>
      <trkpt lat="45.18094" lon="5.91581">
        <ele>1501.1</ele>
        <time>2021-02-20T07:03:47Z</time>
      </trkpt>
      <trkpt lat="45.18094" lon="5.91582">
        <ele>1501.2</ele>
        <time>2021-02-20T07:03:48Z</time>
      </trkpt>
      <trkpt lat="45.18093" lon="5.91583">
        <ele>1501.3</ele>
        <time>2021-02-20T07:03:49Z</time>
      </trkpt>
      <trkpt lat="45.18093" lon="5.91584">
        <ele>1501.4</ele>
        <time>2021-02-20T07:03:50Z</time>
      </trkpt>
      <trkpt lat="45.18092" lon="5.91585">
        <ele>1501.5</ele>
        <time>2021-02-20T07:03:51Z</time>
      </trkpt>
      <trkpt lat="45.18091" lon="5.91586">
        <ele>1501.6</ele>
        <time>2021-02-20T07:03:52Z</time>
      </trkpt>
      <trkpt lat="45.1809" lon="5.91587">
        <ele>1501.7</ele>
        <time>2021-02-20T07:03:53Z</time>
      </trkpt>
      <trkpt lat="45.1809" lon="5.91587">
        <ele>1501.8</ele>
        <time>2021-02-20T07:03:54Z</time>
      </trkpt>
      <trkpt lat="45.18089" lon="5.91588">
        <ele>1501.8</ele>
        <time>2021-02-20T07:03:55Z</time>
      </trkpt>
      <trkpt lat="45.18088" lon="5.91588">
        <ele>1501.9</ele>
        <time>2021-02-20T07:03:56Z</time>
      </trkpt>
      <trkpt lat="45.18087" lon="5.91589">
        <ele>1502</ele>
        <time>2021-02-20T07:03:57Z</time>
      </trkpt>
      <trkpt lat="45.18086" lon="5.9159">
        <ele>1502.1</ele>
        <time>2021-02-20T07:03:58Z</time>
      </trkpt>
      <trkpt lat="45.18085" lon="5.9159">
        <ele>1502.2</ele>
        <time>2021-02-20T07:03:59Z</time>
      </trkpt>
      <trkpt lat="45.18084" lon="5.91591">
        <ele>1502.3</ele>
        <time>2021-02-20T07:04:00Z</time>
      </trkpt>
      <trkpt lat="45.18083" lon="5.91592">
        <ele>1502.4</ele>
        <time>2021-02-20T07:04:01Z</time>
      </trkpt>
      <trkpt lat="45.18083" lon="5.91592">
        <ele>1502.4</ele>
        <time>2021-02-20T07:04:02Z</time>
      </trkpt>
      <trkpt lat="45.18082" lon="5.91593">
        <ele>1502.5</ele>
        <time>2021-02-20T07:04:03Z</time>
      </trkpt>
      <trkpt lat="45.18081" lon="5.91594">
        <ele>1502.6</ele>
        <time>2021-02-20T07:04:04Z</time>
      </trkpt>
      <trkpt lat="45.18081" lon="5.91595">
        <ele>1502.7</ele>
        <time>2021-02-20T07:04:05Z</time>
      </trkpt>
      <trkpt lat="45.1808" lon="5.91596">
        <ele>1502.7</ele>
        <time>2021-02-20T07:04:06Z</time>
      </trkpt>
      <trkpt lat="45.18079" lon="5.91596">
        <ele>1502.8</ele>
        <time>2021-02-20T07:04:07Z</time>
      </trkpt>
      <trkpt lat="45.18079" lon="5.91596">
        <ele>1502.8</ele>
        <time>2021-02-20T07:04:08Z</time>
      </trkpt>
      <trkpt lat="45.18078" lon="5.91597">
        <ele>1502.9</ele>
        <time>2021-02-20T07:04:09Z</time>
      </trkpt>
      <trkpt lat="45.18077" lon="5.91598">
        <ele>1503</ele>
        <time>2021-02-20T07:04:10Z</time>
      </trkpt>
      <trkpt lat="45.18076" lon="5.91598">
        <ele>1503</ele>
        <time>2021-02-20T07:04:11Z</time>
      </trkpt>
      <trkpt lat="45.18075" lon="5.91598">
        <ele>1503.1</ele>
        <time>2021-02-20T07:04:12Z</time>
      </trkpt>
      <trkpt lat="45.18074" lon="5.91598">
        <ele>1503.2</ele>
        <time>2021-02-20T07:04:13Z</time>
      </trkpt>
      <trkpt lat="45.18073" lon="5.91598">
        <ele>1503.2</ele>
        <time>2021-02-20T07:04:14Z</time>
      </trkpt>
      <trkpt lat="45.18072" lon="5.91597">
        <ele>1503.3</ele>
        <time>2021-02-20T07:04:15Z</time>
      </trkpt>
      <trkpt lat="45.18071" lon="5.91597">
        <ele>1503.4</ele>
        <time>2021-02-20T07:04:16Z</time>
      </trkpt>
      <trkpt lat="45.18071" lon="5.91596">
        <ele>1503.5</ele>
        <time>2021-02-20T07:04:17Z</time>
      </trkpt>
      <trkpt lat="45.1807" lon="5.91595">
        <ele>1503.5</ele>
        <time>2021-02-20T07:04:18Z</time>
      </trkpt>
      <trkpt lat="45.18069" lon="5.91595">
        <ele>1503.6</ele>
        <time>2021-02-20T07:04:19Z</time>
      </trkpt>
      <trkpt lat="45.18069" lon="5.91594">
        <ele>1503.6</ele>
        <time>2021-02-20T07:04:20Z</time>
      </trkpt>
      <trkpt lat="45.18068" lon="5.91593">
        <ele>1503.7</ele>
        <time>2021-02-20T07:04:21Z</time>
      </trkpt>
      <trkpt lat="45.18068" lon="5.91593">
        <ele>1503.7</ele>
        <time>2021-02-20T07:04:22Z</time>
      </trkpt>
      <trkpt lat="45.18067" lon="5.91592">
        <ele>1503.8</ele>
        <time>2021-02-20T07:04:23Z</time>
      </trkpt>
      <trkpt lat="45.18067" lon="5.91591">
        <ele>1503.8</ele>
        <time>2021-02-20T07:04:24Z</time>
      </trkpt>
      <trkpt lat="45.18066" lon="5.91591">
        <ele>1503.9</ele>
        <time>2021-02-20T07:04:25Z</time>
      </trkpt>
      <trkpt lat="45.18065" lon="5.9159">
        <ele>1504</ele>
        <time>2021-02-20T07:04:26Z</time>
      </trkpt>
      <trkpt lat="45.18064" lon="5.9159">
        <ele>1504</ele>
        <time>2021-02-20T07:04:27Z</time>
      </trkpt>
      <trkpt lat="45.18063" lon="5.91589">
        <ele>1504.1</ele>
        <time>2021-02-20T07:04:28Z</time>
      </trkpt>
      <trkpt lat="45.18062" lon="5.91589">
        <ele>1504.1</ele>
        <time>2021-02-20T07:04:29Z</time>
      </trkpt>
      <trkpt lat="45.18061" lon="5.91588">
        <ele>1504.2</ele>
        <time>2021-02-20T07:04:30Z</time>
      </trkpt>
      <trkpt lat="45.1806" lon="5.91588">
        <ele>1504.3</ele>
        <time>2021-02-20T07:04:31Z</time>
      </trkpt>
      <trkpt lat="45.18059" lon="5.91589">
        <ele>1504.4</ele>
        <time>2021-02-20T07:04:32Z</time>
      </trkpt>
      <trkpt lat="45.18058" lon="5.9159">
        <ele>1504.4</ele>
        <time>2021-02-20T07:04:33Z</time>
      </trkpt>
      <trkpt lat="45.18057" lon="5.9159">
        <ele>1504.5</ele>
        <time>2021-02-20T07:04:34Z</time>
      </trkpt>
      <trkpt lat="45.18056" lon="5.9159">
        <ele>1504.6</ele>
        <time>2021-02-20T07:04:35Z</time>
      </trkpt>
      <trkpt lat="45.18055" lon="5.9159">
        <ele>1504.6</ele>
        <time>2021-02-20T07:04:36Z</time>
      </trkpt>
      <trkpt lat="45.18054" lon="5.9159">
        <ele>1504.7</ele>
        <time>2021-02-20T07:04:37Z</time>
      </trkpt>
      <trkpt lat="45.18053" lon="5.91589">
        <ele>1504.8</ele>
        <time>2021-02-20T07:04:38Z</time>
      </trkpt>
      <trkpt lat="45.18052" lon="5.91589">
        <ele>1504.8</ele>
        <time>2021-02-20T07:04:39Z</time>
      </trkpt>
      <trkpt lat="45.18051" lon="5.91589">
        <ele>1504.9</ele>
        <time>2021-02-20T07:04:40Z</time>
      </trkpt>
      <trkpt lat="45.18049" lon="5.91589">
        <ele>1505</ele>
        <time>2021-02-20T07:04:41Z</time>
      </trkpt>
      <trkpt lat="45.18048" lon="5.91589">
        <ele>1505.1</ele>
        <time>2021-02-20T07:04:42Z</time>
      </trkpt>
      <trkpt lat="45.18047" lon="5.9159">
        <ele>1505.2</ele>
        <time>2021-02-20T07:04:43Z</time>
      </trkpt>
      <trkpt lat="45.18046" lon="5.9159">
        <ele>1505.3</ele>
        <time>2021-02-20T07:04:44Z</time>
      </trkpt>
      <trkpt lat="45.18044" lon="5.9159">
        <ele>1505.3</ele>
        <time>2021-02-20T07:04:45Z</time>
      </trkpt>
      <trkpt lat="45.18043" lon="5.9159">
        <ele>1505.4</ele>
        <time>2021-02-20T07:04:46Z</time>
      </trkpt>
      <trkpt lat="45.18041" lon="5.91591">
        <ele>1505.5</ele>
        <time>2021-02-20T07:04:47Z</time>
      </trkpt>
      <trkpt lat="45.1804" lon="5.91591">
        <ele>1505.6</ele>
        <time>2021-02-20T07:04:48Z</time>
      </trkpt>
      <trkpt lat="45.18039" lon="5.91591">
        <ele>1505.6</ele>
        <time>2021-02-20T07:04:49Z</time>
      </trkpt>
      <trkpt lat="45.18038" lon="5.91591">
        <ele>1505.7</ele>
        <time>2021-02-20T07:04:50Z</time>
      </trkpt>
      <trkpt lat="45.18037" lon="5.91591">
        <ele>1505.8</ele>
        <time>2021-02-20T07:04:51Z</time>
      </trkpt>
      <trkpt lat="45.18036" lon="5.91591">
        <ele>1505.8</ele>
        <time>2021-02-20T07:04:52Z</time>
      </trkpt>
      <trkpt lat="45.18035" lon="5.91591">
        <ele>1505.9</ele>
        <time>2021-02-20T07:04:53Z</time>
      </trkpt>
      <trkpt lat="45.18035" lon="5.9159">
        <ele>1505.9</ele>
        <time>2021-02-20T07:04:54Z</time>
      </trkpt>
      <trkpt lat="45.18033" lon="5.9159">
        <ele>1506</ele>
        <time>2021-02-20T07:04:55Z</time>
      </trkpt>
      <trkpt lat="45.18032" lon="5.9159">
        <ele>1506.1</ele>
        <time>2021-02-20T07:04:56Z</time>
      </trkpt>
      <trkpt lat="45.18031" lon="5.9159">
        <ele>1506.2</ele>
        <time>2021-02-20T07:04:57Z</time>
      </trkpt>
      <trkpt lat="45.1803" lon="5.91589">
        <ele>1506.2</ele>
        <time>2021-02-20T07:04:58Z</time>
      </trkpt>
      <trkpt lat="45.18029" lon="5.91589">
        <ele>1506.3</ele>
        <time>2021-02-20T07:04:59Z</time>
      </trkpt>
      <trkpt lat="45.18028" lon="5.91589">
        <ele>1506.3</ele>
        <time>2021-02-20T07:05:00Z</time>
      </trkpt>
      <trkpt lat="45.18027" lon="5.91588">
        <ele>1506.4</ele>
        <time>2021-02-20T07:05:01Z</time>
      </trkpt>
      <trkpt lat="45.18026" lon="5.91588">
        <ele>1506.5</ele>
        <time>2021-02-20T07:05:02Z</time>
      </trkpt>
      <trkpt lat="45.18025" lon="5.91588">
        <ele>1506.5</ele>
        <time>2021-02-20T07:05:03Z</time>
      </trkpt>
      <trkpt lat="45.18024" lon="5.91588">
        <ele>1506.6</ele>
        <time>2021-02-20T07:05:04Z</time>
      </trkpt>
      <trkpt lat="45.18022" lon="5.91587">
        <ele>1506.7</ele>
        <time>2021-02-20T07:05:05Z</time>
      </trkpt>
      <trkpt lat="45.18021" lon="5.91587">
        <ele>1506.8</ele>
        <time>2021-02-20T07:05:06Z</time>
      </trkpt>
      <trkpt lat="45.1802" lon="5.91587">
        <ele>1506.9</ele>
        <time>2021-02-20T07:05:07Z</time>
      </trkpt>
      <trkpt lat="45.18019" lon="5.91587">
        <ele>1506.9</ele>
        <time>2021-02-20T07:05:08Z</time>
      </trkpt>
      <trkpt lat="45.18018" lon="5.91587">
        <ele>1507</ele>
        <time>2021-02-20T07:05:09Z</time>
      </trkpt>
      <trkpt lat="45.18017" lon="5.91588">
        <ele>1507.1</ele>
        <time>2021-02-20T07:05:10Z</time>
      </trkpt>
      <trkpt lat="45.18016" lon="5.91588">
        <ele>1507.2</ele>
        <time>2021-02-20T07:05:11Z</time>
      </trkpt>
      <trkpt lat="45.18015" lon="5.91588">
        <ele>1507.3</ele>
        <time>2021-02-20T07:05:12Z</time>
      </trkpt>
      <trkpt lat="45.18014" lon="5.91589">
        <ele>1507.5</ele>
        <time>2021-02-20T07:05:13Z</time>
      </trkpt>
      <trkpt lat="45.18013" lon="5.91589">
        <ele>1507.6</ele>
        <time>2021-02-20T07:05:14Z</time>
      </trkpt>
      <trkpt lat="45.18012" lon="5.91589">
        <ele>1507.7</ele>
        <time>2021-02-20T07:05:15Z</time>
      </trkpt>
      <trkpt lat="45.18011" lon="5.91589">
        <ele>1507.8</ele>
        <time>2021-02-20T07:05:16Z</time>
      </trkpt>
      <trkpt lat="45.1801" lon="5.91588">
        <ele>1508</ele>
        <time>2021-02-20T07:05:17Z</time>
      </trkpt>
      <trkpt lat="45.18009" lon="5.91588">
        <ele>1508.1</ele>
        <time>2021-02-20T07:05:18Z</time>
      </trkpt>
      <trkpt lat="45.18008" lon="5.91588">
        <ele>1508.2</ele>
        <time>2021-02-20T07:05:19Z</time>
      </trkpt>
      <trkpt lat="45.18007" lon="5.91588">
        <ele>1508.4</ele>
        <time>2021-02-20T07:05:20Z</time>
      </trkpt>
      <trkpt lat="45.18006" lon="5.91588">
        <ele>1508.5</ele>
        <time>2021-02-20T07:05:21Z</time>
      </trkpt>
      <trkpt lat="45.18005" lon="5.91588">
        <ele>1508.7</ele>
        <time>2021-02-20T07:05:22Z</time>
      </trkpt>
      <trkpt lat="45.18004" lon="5.91588">
        <ele>1508.8</ele>
        <time>2021-02-20T07:05:23Z</time>
      </trkpt>
      <trkpt lat="45.18003" lon="5.91588">
        <ele>1508.9</ele>
        <time>2021-02-20T07:05:24Z</time>
      </trkpt>
      <trkpt lat="45.18002" lon="5.91588">
        <ele>1509</ele>
        <time>2021-02-20T07:05:25Z</time>
      </trkpt>
      <trkpt lat="45.18002" lon="5.91588">
        <ele>1509.1</ele>
        <time>2021-02-20T07:05:26Z</time>
      </trkpt>
      <trkpt lat="45.18001" lon="5.91589">
        <ele>1509.2</ele>
        <time>2021-02-20T07:05:27Z</time>
      </trkpt>
      <trkpt lat="45.18" lon="5.91589">
        <ele>1509.4</ele>
        <time>2021-02-20T07:05:28Z</time>
      </trkpt>
      <trkpt lat="45.17999" lon="5.91589">
        <ele>1509.6</ele>
        <time>2021-02-20T07:05:29Z</time>
      </trkpt>
      <trkpt lat="45.17998" lon="5.9159">
        <ele>1509.7</ele>
        <time>2021-02-20T07:05:30Z</time>
      </trkpt>
      <trkpt lat="45.17997" lon="5.9159">
        <ele>1509.8</ele>
        <time>2021-02-20T07:05:31Z</time>
      </trkpt>
      <trkpt lat="45.17996" lon="5.9159">
        <ele>1510</ele>
        <time>2021-02-20T07:05:32Z</time>
      </trkpt>
      <trkpt lat="45.17996" lon="5.9159">
        <ele>1510.1</ele>
        <time>2021-02-20T07:05:33Z</time>
      </trkpt>
      <trkpt lat="45.17995" lon="5.9159">
        <ele>1510.2</ele>
        <time>2021-02-20T07:05:34Z</time>
      </trkpt>
      <trkpt lat="45.17994" lon="5.91591">
        <ele>1510.3</ele>
        <time>2021-02-20T07:05:35Z</time>
      </trkpt>
      <trkpt lat="45.17993" lon="5.91591">
        <ele>1510.5</ele>
        <time>2021-02-20T07:05:36Z</time>
      </trkpt>
      <trkpt lat="45.17992" lon="5.91592">
        <ele>1510.7</ele>
        <time>2021-02-20T07:05:37Z</time>
      </trkpt>
      <trkpt lat="45.17991" lon="5.91592">
        <ele>1510.9</ele>
        <time>2021-02-20T07:05:38Z</time>
      </trkpt>
      <trkpt lat="45.1799" lon="5.91593">
        <ele>1511.1</ele>
        <time>2021-02-20T07:05:39Z</time>
      </trkpt>
      <trkpt lat="45.17989" lon="5.91593">
        <ele>1511.3</ele>
        <time>2021-02-20T07:05:40Z</time>
      </trkpt>
      <trkpt lat="45.17988" lon="5.91593">
        <ele>1511.4</ele>
        <time>2021-02-20T07:05:41Z</time>
      </trkpt>
      <trkpt lat="45.17988" lon="5.91593">
        <ele>1511.6</ele>
        <time>2021-02-20T07:05:42Z</time>
      </trkpt>
      <trkpt lat="45.17987" lon="5.91593">
        <ele>1511.7</ele>
        <time>2021-02-20T07:05:43Z</time>
      </trkpt>
      <trkpt lat="45.17987" lon="5.91594">
        <ele>1511.8</ele>
        <time>2021-02-20T07:05:44Z</time>
      </trkpt>
      <trkpt lat="45.17986" lon="5.91594">
        <ele>1512</ele>
        <time>2021-02-20T07:05:45Z</time>
      </trkpt>
      <trkpt lat="45.17985" lon="5.91594">
        <ele>1512.1</ele>
        <time>2021-02-20T07:05:46Z</time>
      </trkpt>
      <trkpt lat="45.17984" lon="5.91594">
        <ele>1512.3</ele>
        <time>2021-02-20T07:05:47Z</time>
      </trkpt>
      <trkpt lat="45.17983" lon="5.91594">
        <ele>1512.4</ele>
        <time>2021-02-20T07:05:48Z</time>
      </trkpt>
      <trkpt lat="45.17983" lon="5.91595">
        <ele>1512.6</ele>
        <time>2021-02-20T07:05:49Z</time>
      </trkpt>
      <trkpt lat="45.17982" lon="5.91595">
        <ele>1512.8</ele>
        <time>2021-02-20T07:05:50Z</time>
      </trkpt>
      <trkpt lat="45.17981" lon="5.91596">
        <ele>1513</ele>
        <time>2021-02-20T07:05:51Z</time>
      </trkpt>
      <trkpt lat="45.1798" lon="5.91596">
        <ele>1513.1</ele>
        <time>2021-02-20T07:05:52Z</time>
      </trkpt>
      <trkpt lat="45.17979" lon="5.91596">
        <ele>1513.3</ele>
        <time>2021-02-20T07:05:53Z</time>
      </trkpt>
      <trkpt lat="45.17979" lon="5.91597">
        <ele>1513.5</ele>
        <time>2021-02-20T07:05:54Z</time>
      </trkpt>
      <trkpt lat="45.17978" lon="5.91597">
        <ele>1513.7</ele>
        <time>2021-02-20T07:05:55Z</time>
      </trkpt>
      <trkpt lat="45.17977" lon="5.91598">
        <ele>1513.9</ele>
        <time>2021-02-20T07:05:56Z</time>
      </trkpt>
      <trkpt lat="45.17976" lon="5.91598">
        <ele>1514.1</ele>
        <time>2021-02-20T07:05:57Z</time>
      </trkpt>
      <trkpt lat="45.17975" lon="5.91599">
        <ele>1514.3</ele>
        <time>2021-02-20T07:05:58Z</time>
      </trkpt>
      <trkpt lat="45.17974" lon="5.91599">
        <ele>1514.5</ele>
        <time>2021-02-20T07:05:59Z</time>
      </trkpt>
      <trkpt lat="45.17973" lon="5.91599">
        <ele>1514.7</ele>
        <time>2021-02-20T07:06:00Z</time>
      </trkpt>
      <trkpt lat="45.17972" lon="5.91599">
        <ele>1514.9</ele>
        <time>2021-02-20T07:06:01Z</time>
      </trkpt>
      <trkpt lat="45.17972" lon="5.91599">
        <ele>1515.1</ele>
        <time>2021-02-20T07:06:02Z</time>
      </trkpt>
      <trkpt lat="45.17971" lon="5.91599">
        <ele>1515.3</ele>
        <time>2021-02-20T07:06:03Z</time>
      </trkpt>
      <trkpt lat="45.1797" lon="5.916">
        <ele>1515.5</ele>
        <time>2021-02-20T07:06:04Z</time>
      </trkpt>
      <trkpt lat="45.17969" lon="5.916">
        <ele>1515.7</ele>
        <time>2021-02-20T07:06:05Z</time>
      </trkpt>
      <trkpt lat="45.17968" lon="5.916">
        <ele>1515.9</ele>
        <time>2021-02-20T07:06:06Z</time>
      </trkpt>
      <trkpt lat="45.17967" lon="5.916">
        <ele>1516.1</ele>
        <time>2021-02-20T07:06:07Z</time>
      </trkpt>
      <trkpt lat="45.17966" lon="5.916">
        <ele>1516.2</ele>
        <time>2021-02-20T07:06:08Z</time>
      </trkpt>
      <trkpt lat="45.17966" lon="5.916">
        <ele>1516.4</ele>
        <time>2021-02-20T07:06:09Z</time>
      </trkpt>
      <trkpt lat="45.17965" lon="5.916">
        <ele>1516.6</ele>
        <time>2021-02-20T07:06:10Z</time>
      </trkpt>
      <trkpt lat="45.17964" lon="5.916">
        <ele>1516.7</ele>
        <time>2021-02-20T07:06:11Z</time>
      </trkpt>
      <trkpt lat="45.17964" lon="5.916">
        <ele>1516.8</ele>
        <time>2021-02-20T07:06:12Z</time>
      </trkpt>
      <trkpt lat="45.17963" lon="5.916">
        <ele>1517</ele>
        <time>2021-02-20T07:06:13Z</time>
      </trkpt>
      <trkpt lat="45.17963" lon="5.91601">
        <ele>1517.1</ele>
        <time>2021-02-20T07:06:14Z</time>
      </trkpt>
      <trkpt lat="45.17962" lon="5.91601">
        <ele>1517.3</ele>
        <time>2021-02-20T07:06:15Z</time>
      </trkpt>
      <trkpt lat="45.17961" lon="5.91603">
        <ele>1517.8</ele>
        <time>2021-02-20T07:06:16Z</time>
      </trkpt>
      <trkpt lat="45.1796" lon="5.91604">
        <ele>1517.9</ele>
        <time>2021-02-20T07:06:17Z</time>
      </trkpt>
      <trkpt lat="45.1796" lon="5.91605">
        <ele>1518.1</ele>
        <time>2021-02-20T07:06:18Z</time>
      </trkpt>
      <trkpt lat="45.17959" lon="5.91606">
        <ele>1518.3</ele>
        <time>2021-02-20T07:06:19Z</time>
      </trkpt>
      <trkpt lat="45.17958" lon="5.91607">
        <ele>1518.6</ele>
        <time>2021-02-20T07:06:20Z</time>
      </trkpt>
      <trkpt lat="45.17957" lon="5.91608">
        <ele>1518.8</ele>
        <time>2021-02-20T07:06:21Z</time>
      </trkpt>
      <trkpt lat="45.17957" lon="5.91609">
        <ele>1519</ele>
        <time>2021-02-20T07:06:22Z</time>
      </trkpt>
      <trkpt lat="45.17956" lon="5.91609">
        <ele>1519.2</ele>
        <time>2021-02-20T07:06:23Z</time>
      </trkpt>
      <trkpt lat="45.17955" lon="5.9161">
        <ele>1519.4</ele>
        <time>2021-02-20T07:06:24Z</time>
      </trkpt>
      <trkpt lat="45.17954" lon="5.91611">
        <ele>1519.6</ele>
        <time>2021-02-20T07:06:25Z</time>
      </trkpt>
      <trkpt lat="45.17954" lon="5.91611">
        <ele>1519.7</ele>
        <time>2021-02-20T07:06:26Z</time>
      </trkpt>
      <trkpt lat="45.17953" lon="5.91611">
        <ele>1519.9</ele>
        <time>2021-02-20T07:06:27Z</time>
      </trkpt>
      <trkpt lat="45.17952" lon="5.91611">
        <ele>1520.1</ele>
        <time>2021-02-20T07:06:28Z</time>
      </trkpt>
      <trkpt lat="45.17951" lon="5.91611">
        <ele>1520.3</ele>
        <time>2021-02-20T07:06:29Z</time>
      </trkpt>
      <trkpt lat="45.1795" lon="5.91611">
        <ele>1520.4</ele>
        <time>2021-02-20T07:06:30Z</time>
      </trkpt>
      <trkpt lat="45.1795" lon="5.91611">
        <ele>1520.6</ele>
        <time>2021-02-20T07:06:31Z</time>
      </trkpt>
      <trkpt lat="45.17949" lon="5.91611">
        <ele>1520.7</ele>
        <time>2021-02-20T07:06:32Z</time>
      </trkpt>
      <trkpt lat="45.17948" lon="5.91612">
        <ele>1520.9</ele>
        <time>2021-02-20T07:06:33Z</time>
      </trkpt>
      <trkpt lat="45.17948" lon="5.91612">
        <ele>1521.1</ele>
        <time>2021-02-20T07:06:34Z</time>
      </trkpt>
      <trkpt lat="45.17947" lon="5.91613">
        <ele>1521.2</ele>
        <time>2021-02-20T07:06:35Z</time>
      </trkpt>
      <trkpt lat="45.17947" lon="5.91613">
        <ele>1521.3</ele>
        <time>2021-02-20T07:06:36Z</time>
      </trkpt>
      <trkpt lat="45.17946" lon="5.91613">
        <ele>1521.5</ele>
        <time>2021-02-20T07:06:37Z</time>
      </trkpt>
      <trkpt lat="45.17945" lon="5.91614">
        <ele>1521.6</ele>
        <time>2021-02-20T07:06:38Z</time>
      </trkpt>
      <trkpt lat="45.17945" lon="5.91614">
        <ele>1521.8</ele>
        <time>2021-02-20T07:06:39Z</time>
      </trkpt>
      <trkpt lat="45.17944" lon="5.91614">
        <ele>1521.9</ele>
        <time>2021-02-20T07:06:40Z</time>
      </trkpt>
      <trkpt lat="45.17943" lon="5.91614">
        <ele>1522.1</ele>
        <time>2021-02-20T07:06:41Z</time>
      </trkpt>
      <trkpt lat="45.17942" lon="5.91614">
        <ele>1522.3</ele>
        <time>2021-02-20T07:06:42Z</time>
      </trkpt>
      <trkpt lat="45.17942" lon="5.91614">
        <ele>1522.5</ele>
        <time>2021-02-20T07:06:43Z</time>
      </trkpt>
      <trkpt lat="45.17941" lon="5.91615">
        <ele>1522.7</ele>
        <time>2021-02-20T07:06:44Z</time>
      </trkpt>
      <trkpt lat="45.1794" lon="5.91615">
        <ele>1522.8</ele>
        <time>2021-02-20T07:06:45Z</time>
      </trkpt>
      <trkpt lat="45.17939" lon="5.91616">
        <ele>1523.1</ele>
        <time>2021-02-20T07:06:46Z</time>
      </trkpt>
      <trkpt lat="45.17938" lon="5.91616">
        <ele>1523.3</ele>
        <time>2021-02-20T07:06:47Z</time>
      </trkpt>
      <trkpt lat="45.17937" lon="5.91617">
        <ele>1523.6</ele>
        <time>2021-02-20T07:06:48Z</time>
      </trkpt>
      <trkpt lat="45.17936" lon="5.91617">
        <ele>1523.8</ele>
        <time>2021-02-20T07:06:49Z</time>
      </trkpt>
      <trkpt lat="45.17935" lon="5.91617">
        <ele>1524</ele>
        <time>2021-02-20T07:06:50Z</time>
      </trkpt>
      <trkpt lat="45.17934" lon="5.91617">
        <ele>1524.2</ele>
        <time>2021-02-20T07:06:51Z</time>
      </trkpt>
      <trkpt lat="45.17933" lon="5.91617">
        <ele>1524.4</ele>
        <time>2021-02-20T07:06:52Z</time>
      </trkpt>
      <trkpt lat="45.17932" lon="5.91617">
        <ele>1524.6</ele>
        <time>2021-02-20T07:06:53Z</time>
      </trkpt>
      <trkpt lat="45.17931" lon="5.91617">
        <ele>1524.8</ele>
        <time>2021-02-20T07:06:54Z</time>
      </trkpt>
      <trkpt lat="45.1793" lon="5.91618">
        <ele>1525</ele>
        <time>2021-02-20T07:06:55Z</time>
      </trkpt>
      <trkpt lat="45.17929" lon="5.91618">
        <ele>1525.3</ele>
        <time>2021-02-20T07:06:56Z</time>
      </trkpt>
      <trkpt lat="45.17927" lon="5.91618">
        <ele>1525.5</ele>
        <time>2021-02-20T07:06:57Z</time>
      </trkpt>
      <trkpt lat="45.17926" lon="5.91619">
        <ele>1525.8</ele>
        <time>2021-02-20T07:06:58Z</time>
      </trkpt>
      <trkpt lat="45.17925" lon="5.91619">
        <ele>1526</ele>
        <time>2021-02-20T07:06:59Z</time>
      </trkpt>
      <trkpt lat="45.17925" lon="5.9162">
        <ele>1526.2</ele>
        <time>2021-02-20T07:07:00Z</time>
      </trkpt>
      <trkpt lat="45.17924" lon="5.9162">
        <ele>1526.4</ele>
        <time>2021-02-20T07:07:01Z</time>
      </trkpt>
      <trkpt lat="45.17923" lon="5.91621">
        <ele>1526.6</ele>
        <time>2021-02-20T07:07:02Z</time>
      </trkpt>
      <trkpt lat="45.17922" lon="5.91621">
        <ele>1526.7</ele>
        <time>2021-02-20T07:07:03Z</time>
      </trkpt>
      <trkpt lat="45.17922" lon="5.91621">
        <ele>1526.9</ele>
        <time>2021-02-20T07:07:04Z</time>
      </trkpt>
      <trkpt lat="45.17921" lon="5.91622">
        <ele>1527</ele>
        <time>2021-02-20T07:07:05Z</time>
      </trkpt>
      <trkpt lat="45.17921" lon="5.91622">
        <ele>1527.1</ele>
        <time>2021-02-20T07:07:06Z</time>
      </trkpt>
      <trkpt lat="45.1792" lon="5.91622">
        <ele>1527.2</ele>
        <time>2021-02-20T07:07:07Z</time>
      </trkpt>
      <trkpt lat="45.1792" lon="5.91622">
        <ele>1527.3</ele>
        <time>2021-02-20T07:07:08Z</time>
      </trkpt>
      <trkpt lat="45.17919" lon="5.91622">
        <ele>1527.4</ele>
        <time>2021-02-20T07:07:09Z</time>
      </trkpt>
      <trkpt lat="45.17919" lon="5.91622">
        <ele>1527.5</ele>
        <time>2021-02-20T07:07:10Z</time>
      </trkpt>
      <trkpt lat="45.17918" lon="5.91622">
        <ele>1527.7</ele>
        <time>2021-02-20T07:07:11Z</time>
      </trkpt>
      <trkpt lat="45.17917" lon="5.91622">
        <ele>1527.8</ele>
        <time>2021-02-20T07:07:12Z</time>
      </trkpt>
      <trkpt lat="45.17917" lon="5.91622">
        <ele>1527.9</ele>
        <time>2021-02-20T07:07:13Z</time>
      </trkpt>
      <trkpt lat="45.17916" lon="5.91623">
        <ele>1528.2</ele>
        <time>2021-02-20T07:07:14Z</time>
      </trkpt>
      <trkpt lat="45.17915" lon="5.91623">
        <ele>1528.3</ele>
        <time>2021-02-20T07:07:15Z</time>
      </trkpt>
      <trkpt lat="45.17914" lon="5.91623">
        <ele>1528.5</ele>
        <time>2021-02-20T07:07:16Z</time>
      </trkpt>
      <trkpt lat="45.17913" lon="5.91623">
        <ele>1528.7</ele>
        <time>2021-02-20T07:07:17Z</time>
      </trkpt>
      <trkpt lat="45.17913" lon="5.91623">
        <ele>1528.9</ele>
        <time>2021-02-20T07:07:18Z</time>
      </trkpt>
      <trkpt lat="45.17912" lon="5.91622">
        <ele>1529</ele>
        <time>2021-02-20T07:07:19Z</time>
      </trkpt>
      <trkpt lat="45.17911" lon="5.91622">
        <ele>1529.2</ele>
        <time>2021-02-20T07:07:20Z</time>
      </trkpt>
      <trkpt lat="45.17911" lon="5.91622">
        <ele>1529.3</ele>
        <time>2021-02-20T07:07:21Z</time>
      </trkpt>
      <trkpt lat="45.1791" lon="5.91622">
        <ele>1529.5</ele>
        <time>2021-02-20T07:07:22Z</time>
      </trkpt>
      <trkpt lat="45.17909" lon="5.91623">
        <ele>1529.7</ele>
        <time>2021-02-20T07:07:23Z</time>
      </trkpt>
      <trkpt lat="45.17908" lon="5.91622">
        <ele>1529.9</ele>
        <time>2021-02-20T07:07:24Z</time>
      </trkpt>
      <trkpt lat="45.17907" lon="5.91622">
        <ele>1530</ele>
        <time>2021-02-20T07:07:25Z</time>
      </trkpt>
      <trkpt lat="45.17907" lon="5.91622">
        <ele>1530.2</ele>
        <time>2021-02-20T07:07:26Z</time>
      </trkpt>
      <trkpt lat="45.17906" lon="5.91622">
        <ele>1530.4</ele>
        <time>2021-02-20T07:07:27Z</time>
      </trkpt>
      <trkpt lat="45.17905" lon="5.91621">
        <ele>1530.5</ele>
        <time>2021-02-20T07:07:28Z</time>
      </trkpt>
      <trkpt lat="45.17904" lon="5.91622">
        <ele>1530.7</ele>
        <time>2021-02-20T07:07:29Z</time>
      </trkpt>
      <trkpt lat="45.17904" lon="5.91622">
        <ele>1530.8</ele>
        <time>2021-02-20T07:07:30Z</time>
      </trkpt>
      <trkpt lat="45.17903" lon="5.91622">
        <ele>1530.9</ele>
        <time>2021-02-20T07:07:31Z</time>
      </trkpt>
      <trkpt lat="45.17902" lon="5.91622">
        <ele>1531.1</ele>
        <time>2021-02-20T07:07:32Z</time>
      </trkpt>
      <trkpt lat="45.17902" lon="5.91622">
        <ele>1531.2</ele>
        <time>2021-02-20T07:07:33Z</time>
      </trkpt>
      <trkpt lat="45.17902" lon="5.91622">
        <ele>1531.2</ele>
        <time>2021-02-20T07:07:34Z</time>
      </trkpt>
      <trkpt lat="45.17901" lon="5.91622">
        <ele>1531.4</ele>
        <time>2021-02-20T07:07:35Z</time>
      </trkpt>
      <trkpt lat="45.179" lon="5.91622">
        <ele>1531.6</ele>
        <time>2021-02-20T07:07:36Z</time>
      </trkpt>
      <trkpt lat="45.179" lon="5.91622">
        <ele>1531.7</ele>
        <time>2021-02-20T07:07:37Z</time>
      </trkpt>
      <trkpt lat="45.17899" lon="5.91622">
        <ele>1531.8</ele>
        <time>2021-02-20T07:07:38Z</time>
      </trkpt>
      <trkpt lat="45.17898" lon="5.91622">
        <ele>1532</ele>
        <time>2021-02-20T07:07:39Z</time>
      </trkpt>
      <trkpt lat="45.17897" lon="5.91622">
        <ele>1532.2</ele>
        <time>2021-02-20T07:07:40Z</time>
      </trkpt>
      <trkpt lat="45.17897" lon="5.91622">
        <ele>1532.3</ele>
        <time>2021-02-20T07:07:41Z</time>
      </trkpt>
      <trkpt lat="45.17896" lon="5.91623">
        <ele>1532.6</ele>
        <time>2021-02-20T07:07:42Z</time>
      </trkpt>
      <trkpt lat="45.17895" lon="5.91623">
        <ele>1532.8</ele>
        <time>2021-02-20T07:07:43Z</time>
      </trkpt>
      <trkpt lat="45.17894" lon="5.91624">
        <ele>1533</ele>
        <time>2021-02-20T07:07:44Z</time>
      </trkpt>
      <trkpt lat="45.17894" lon="5.91624">
        <ele>1533.2</ele>
        <time>2021-02-20T07:07:45Z</time>
      </trkpt>
      <trkpt lat="45.17893" lon="5.91625">
        <ele>1533.3</ele>
        <time>2021-02-20T07:07:46Z</time>
      </trkpt>
      <trkpt lat="45.17892" lon="5.91625">
        <ele>1533.5</ele>
        <time>2021-02-20T07:07:47Z</time>
      </trkpt>
      <trkpt lat="45.17892" lon="5.91626">
        <ele>1533.7</ele>
        <time>2021-02-20T07:07:48Z</time>
      </trkpt>
      <trkpt lat="45.17891" lon="5.91626">
        <ele>1533.9</ele>
        <time>2021-02-20T07:07:49Z</time>
      </trkpt>
      <trkpt lat="45.17891" lon="5.91627">
        <ele>1534</ele>
        <time>2021-02-20T07:07:50Z</time>
      </trkpt>
      <trkpt lat="45.1789" lon="5.91627">
        <ele>1534.2</ele>
        <time>2021-02-20T07:07:51Z</time>
      </trkpt>
      <trkpt lat="45.17889" lon="5.91628">
        <ele>1534.4</ele>
        <time>2021-02-20T07:07:52Z</time>
      </trkpt>
      <trkpt lat="45.17888" lon="5.91628">
        <ele>1534.6</ele>
        <time>2021-02-20T07:07:53Z</time>
      </trkpt>
      <trkpt lat="45.17888" lon="5.91628">
        <ele>1534.8</ele>
        <time>2021-02-20T07:07:54Z</time>
      </trkpt>
      <trkpt lat="45.17887" lon="5.91629">
        <ele>1535</ele>
        <time>2021-02-20T07:07:55Z</time>
      </trkpt>
      <trkpt lat="45.17886" lon="5.91629">
        <ele>1535.2</ele>
        <time>2021-02-20T07:07:56Z</time>
      </trkpt>
      <trkpt lat="45.17886" lon="5.91629">
        <ele>1535.3</ele>
        <time>2021-02-20T07:07:57Z</time>
      </trkpt>
      <trkpt lat="45.17885" lon="5.91629">
        <ele>1535.4</ele>
        <time>2021-02-20T07:07:58Z</time>
      </trkpt>
      <trkpt lat="45.17884" lon="5.9163">
        <ele>1535.6</ele>
        <time>2021-02-20T07:07:59Z</time>
      </trkpt>
      <trkpt lat="45.17884" lon="5.9163">
        <ele>1535.8</ele>
        <time>2021-02-20T07:08:00Z</time>
      </trkpt>
      <trkpt lat="45.17883" lon="5.9163">
        <ele>1536</ele>
        <time>2021-02-20T07:08:01Z</time>
      </trkpt>
      <trkpt lat="45.17882" lon="5.91631">
        <ele>1536.2</ele>
        <time>2021-02-20T07:08:02Z</time>
      </trkpt>
      <trkpt lat="45.17881" lon="5.91631">
        <ele>1536.4</ele>
        <time>2021-02-20T07:08:03Z</time>
      </trkpt>
      <trkpt lat="45.1788" lon="5.91632">
        <ele>1536.6</ele>
        <time>2021-02-20T07:08:04Z</time>
      </trkpt>
      <trkpt lat="45.1788" lon="5.91632">
        <ele>1536.7</ele>
        <time>2021-02-20T07:08:05Z</time>
      </trkpt>
      <trkpt lat="45.17879" lon="5.91632">
        <ele>1536.9</ele>
        <time>2021-02-20T07:08:06Z</time>
      </trkpt>
      <trkpt lat="45.17879" lon="5.91633">
        <ele>1537.1</ele>
        <time>2021-02-20T07:08:07Z</time>
      </trkpt>
      <trkpt lat="45.17878" lon="5.91633">
        <ele>1537.2</ele>
        <time>2021-02-20T07:08:08Z</time>
      </trkpt>
      <trkpt lat="45.17877" lon="5.91634">
        <ele>1537.4</ele>
        <time>2021-02-20T07:08:09Z</time>
      </trkpt>
      <trkpt lat="45.17877" lon="5.91634">
        <ele>1537.5</ele>
        <time>2021-02-20T07:08:10Z</time>
      </trkpt>
      <trkpt lat="45.17876" lon="5.91635">
        <ele>1537.7</ele>
        <time>2021-02-20T07:08:11Z</time>
      </trkpt>
      <trkpt lat="45.17875" lon="5.91635">
        <ele>1537.9</ele>
        <time>2021-02-20T07:08:12Z</time>
      </trkpt>
      <trkpt lat="45.17874" lon="5.91635">
        <ele>1538.1</ele>
        <time>2021-02-20T07:08:13Z</time>
      </trkpt>
      <trkpt lat="45.17874" lon="5.91635">
        <ele>1538.2</ele>
        <time>2021-02-20T07:08:14Z</time>
      </trkpt>
      <trkpt lat="45.17873" lon="5.91636">
        <ele>1538.4</ele>
        <time>2021-02-20T07:08:15Z</time>
      </trkpt>
      <trkpt lat="45.17872" lon="5.91637">
        <ele>1538.5</ele>
        <time>2021-02-20T07:08:16Z</time>
      </trkpt>
      <trkpt lat="45.17872" lon="5.91637">
        <ele>1538.7</ele>
        <time>2021-02-20T07:08:17Z</time>
      </trkpt>
      <trkpt lat="45.17871" lon="5.91638">
        <ele>1538.9</ele>
        <time>2021-02-20T07:08:18Z</time>
      </trkpt>
      <trkpt lat="45.17871" lon="5.91639">
        <ele>1539</ele>
        <time>2021-02-20T07:08:19Z</time>
      </trkpt>
      <trkpt lat="45.17871" lon="5.91639">
        <ele>1539.1</ele>
        <time>2021-02-20T07:08:20Z</time>
      </trkpt>
      <trkpt lat="45.1787" lon="5.9164">
        <ele>1539.2</ele>
        <time>2021-02-20T07:08:21Z</time>
      </trkpt>
      <trkpt lat="45.1787" lon="5.9164">
        <ele>1539.4</ele>
        <time>2021-02-20T07:08:22Z</time>
      </trkpt>
      <trkpt lat="45.17869" lon="5.91641">
        <ele>1539.6</ele>
        <time>2021-02-20T07:08:23Z</time>
      </trkpt>
      <trkpt lat="45.17869" lon="5.91642">
        <ele>1539.7</ele>
        <time>2021-02-20T07:08:24Z</time>
      </trkpt>
      <trkpt lat="45.17869" lon="5.91642">
        <ele>1539.8</ele>
        <time>2021-02-20T07:08:25Z</time>
      </trkpt>
      <trkpt lat="45.17869" lon="5.91642">
        <ele>1539.8</ele>
        <time>2021-02-20T07:08:26Z</time>
      </trkpt>
      <trkpt lat="45.17869" lon="5.91642">
        <ele>1539.8</ele>
        <time>2021-02-20T07:08:27Z</time>
      </trkpt>
      <trkpt lat="45.17869" lon="5.91642">
        <ele>1539.8</ele>
        <time>2021-02-20T07:08:28Z</time>
      </trkpt>
      <trkpt lat="45.17869" lon="5.91642">
        <ele>1539.8</ele>
        <time>2021-02-20T07:08:29Z</time>
      </trkpt>
      <trkpt lat="45.17868" lon="5.91641">
        <ele>1540.1</ele>
        <time>2021-02-20T07:08:30Z</time>
      </trkpt>
      <trkpt lat="45.17867" lon="5.91641">
        <ele>1540.3</ele>
        <time>2021-02-20T07:08:31Z</time>
      </trkpt>
      <trkpt lat="45.17867" lon="5.9164">
        <ele>1540.4</ele>
        <time>2021-02-20T07:08:32Z</time>
      </trkpt>
      <trkpt lat="45.17866" lon="5.9164">
        <ele>1540.6</ele>
        <time>2021-02-20T07:08:33Z</time>
      </trkpt>
      <trkpt lat="45.17865" lon="5.9164">
        <ele>1540.8</ele>
        <time>2021-02-20T07:08:34Z</time>
      </trkpt>
      <trkpt lat="45.17864" lon="5.9164">
        <ele>1540.9</ele>
        <time>2021-02-20T07:08:35Z</time>
      </trkpt>
      <trkpt lat="45.17864" lon="5.91641">
        <ele>1541.1</ele>
        <time>2021-02-20T07:08:36Z</time>
      </trkpt>
      <trkpt lat="45.17863" lon="5.91641">
        <ele>1541.2</ele>
        <time>2021-02-20T07:08:37Z</time>
      </trkpt>
      <trkpt lat="45.17863" lon="5.91641">
        <ele>1541.3</ele>
        <time>2021-02-20T07:08:38Z</time>
      </trkpt>
      <trkpt lat="45.17862" lon="5.91641">
        <ele>1541.4</ele>
        <time>2021-02-20T07:08:39Z</time>
      </trkpt>
      <trkpt lat="45.17862" lon="5.91642">
        <ele>1541.6</ele>
        <time>2021-02-20T07:08:40Z</time>
      </trkpt>
      <trkpt lat="45.17861" lon="5.91642">
        <ele>1541.8</ele>
        <time>2021-02-20T07:08:41Z</time>
      </trkpt>
      <trkpt lat="45.1786" lon="5.91643">
        <ele>1542</ele>
        <time>2021-02-20T07:08:42Z</time>
      </trkpt>
      <trkpt lat="45.1786" lon="5.91643">
        <ele>1542.1</ele>
        <time>2021-02-20T07:08:43Z</time>
      </trkpt>
      <trkpt lat="45.17859" lon="5.91644">
        <ele>1542.3</ele>
        <time>2021-02-20T07:08:44Z</time>
      </trkpt>
      <trkpt lat="45.17858" lon="5.91645">
        <ele>1542.5</ele>
        <time>2021-02-20T07:08:45Z</time>
      </trkpt>
      <trkpt lat="45.17858" lon="5.91646">
        <ele>1542.7</ele>
        <time>2021-02-20T07:08:46Z</time>
      </trkpt>
      <trkpt lat="45.17857" lon="5.91646">
        <ele>1542.9</ele>
        <time>2021-02-20T07:08:47Z</time>
      </trkpt>
      <trkpt lat="45.17856" lon="5.91647">
        <ele>1543.1</ele>
        <time>2021-02-20T07:08:48Z</time>
      </trkpt>
      <trkpt lat="45.17856" lon="5.91648">
        <ele>1543.3</ele>
        <time>2021-02-20T07:08:49Z</time>
      </trkpt>
      <trkpt lat="45.17855" lon="5.91648">
        <ele>1543.5</ele>
        <time>2021-02-20T07:08:50Z</time>
      </trkpt>
      <trkpt lat="45.17854" lon="5.91649">
        <ele>1543.7</ele>
        <time>2021-02-20T07:08:51Z</time>
      </trkpt>
      <trkpt lat="45.17854" lon="5.91649">
        <ele>1543.8</ele>
        <time>2021-02-20T07:08:52Z</time>
      </trkpt>
      <trkpt lat="45.17853" lon="5.9165">
        <ele>1544</ele>
        <time>2021-02-20T07:08:53Z</time>
      </trkpt>
      <trkpt lat="45.17853" lon="5.91651">
        <ele>1544.2</ele>
        <time>2021-02-20T07:08:54Z</time>
      </trkpt>
      <trkpt lat="45.17852" lon="5.91652">
        <ele>1544.3</ele>
        <time>2021-02-20T07:08:55Z</time>
      </trkpt>
      <trkpt lat="45.17852" lon="5.91652">
        <ele>1544.5</ele>
        <time>2021-02-20T07:08:56Z</time>
      </trkpt>
      <trkpt lat="45.17851" lon="5.91653">
        <ele>1544.7</ele>
        <time>2021-02-20T07:08:57Z</time>
      </trkpt>
      <trkpt lat="45.1785" lon="5.91653">
        <ele>1544.9</ele>
        <time>2021-02-20T07:08:58Z</time>
      </trkpt>
      <trkpt lat="45.1785" lon="5.91654">
        <ele>1545.1</ele>
        <time>2021-02-20T07:08:59Z</time>
      </trkpt>
      <trkpt lat="45.17849" lon="5.91655">
        <ele>1545.3</ele>
        <time>2021-02-20T07:09:00Z</time>
      </trkpt>
      <trkpt lat="45.17848" lon="5.91655">
        <ele>1545.5</ele>
        <time>2021-02-20T07:09:01Z</time>
      </trkpt>
      <trkpt lat="45.17847" lon="5.91655">
        <ele>1545.7</ele>
        <time>2021-02-20T07:09:02Z</time>
      </trkpt>
      <trkpt lat="45.17847" lon="5.91656">
        <ele>1545.9</ele>
        <time>2021-02-20T07:09:03Z</time>
      </trkpt>
      <trkpt lat="45.17846" lon="5.91656">
        <ele>1546</ele>
        <time>2021-02-20T07:09:04Z</time>
      </trkpt>
      <trkpt lat="45.17845" lon="5.91657">
        <ele>1546.2</ele>
        <time>2021-02-20T07:09:05Z</time>
      </trkpt>
      <trkpt lat="45.17845" lon="5.91657">
        <ele>1546.4</ele>
        <time>2021-02-20T07:09:06Z</time>
      </trkpt>
      <trkpt lat="45.17843" lon="5.91657">
        <ele>1546.7</ele>
        <time>2021-02-20T07:09:07Z</time>
      </trkpt>
      <trkpt lat="45.17842" lon="5.91658">
        <ele>1546.9</ele>
        <time>2021-02-20T07:09:08Z</time>
      </trkpt>
      <trkpt lat="45.17842" lon="5.91658">
        <ele>1547.1</ele>
        <time>2021-02-20T07:09:09Z</time>
      </trkpt>
      <trkpt lat="45.17841" lon="5.91658">
        <ele>1547.2</ele>
        <time>2021-02-20T07:09:10Z</time>
      </trkpt>
      <trkpt lat="45.17841" lon="5.91658">
        <ele>1547.3</ele>
        <time>2021-02-20T07:09:11Z</time>
      </trkpt>
      <trkpt lat="45.1784" lon="5.91659">
        <ele>1547.4</ele>
        <time>2021-02-20T07:09:12Z</time>
      </trkpt>
      <trkpt lat="45.1784" lon="5.9166">
        <ele>1547.7</ele>
        <time>2021-02-20T07:09:13Z</time>
      </trkpt>
      <trkpt lat="45.17839" lon="5.91661">
        <ele>1547.9</ele>
        <time>2021-02-20T07:09:14Z</time>
      </trkpt>
      <trkpt lat="45.17839" lon="5.91662">
        <ele>1548.1</ele>
        <time>2021-02-20T07:09:15Z</time>
      </trkpt>
      <trkpt lat="45.17838" lon="5.91662">
        <ele>1548.2</ele>
        <time>2021-02-20T07:09:16Z</time>
      </trkpt>
      <trkpt lat="45.17838" lon="5.91663">
        <ele>1548.3</ele>
        <time>2021-02-20T07:09:17Z</time>
      </trkpt>
      <trkpt lat="45.17837" lon="5.91663">
        <ele>1548.5</ele>
        <time>2021-02-20T07:09:18Z</time>
      </trkpt>
      <trkpt lat="45.17837" lon="5.91663">
        <ele>1548.6</ele>
        <time>2021-02-20T07:09:19Z</time>
      </trkpt>
      <trkpt lat="45.17836" lon="5.91663">
        <ele>1548.8</ele>
        <time>2021-02-20T07:09:20Z</time>
      </trkpt>
      <trkpt lat="45.17835" lon="5.91663">
        <ele>1548.9</ele>
        <time>2021-02-20T07:09:21Z</time>
      </trkpt>
      <trkpt lat="45.17834" lon="5.91664">
        <ele>1549.1</ele>
        <time>2021-02-20T07:09:22Z</time>
      </trkpt>
      <trkpt lat="45.17834" lon="5.91664">
        <ele>1549.3</ele>
        <time>2021-02-20T07:09:23Z</time>
      </trkpt>
      <trkpt lat="45.17833" lon="5.91665">
        <ele>1549.4</ele>
        <time>2021-02-20T07:09:24Z</time>
      </trkpt>
      <trkpt lat="45.17832" lon="5.91665">
        <ele>1549.6</ele>
        <time>2021-02-20T07:09:25Z</time>
      </trkpt>
      <trkpt lat="45.17832" lon="5.91665">
        <ele>1549.8</ele>
        <time>2021-02-20T07:09:26Z</time>
      </trkpt>
      <trkpt lat="45.17831" lon="5.91666">
        <ele>1550</ele>
        <time>2021-02-20T07:09:27Z</time>
      </trkpt>
      <trkpt lat="45.1783" lon="5.91667">
        <ele>1550.2</ele>
        <time>2021-02-20T07:09:28Z</time>
      </trkpt>
      <trkpt lat="45.17829" lon="5.91667">
        <ele>1550.4</ele>
        <time>2021-02-20T07:09:29Z</time>
      </trkpt>
      <trkpt lat="45.17828" lon="5.91667">
        <ele>1550.5</ele>
        <time>2021-02-20T07:09:30Z</time>
      </trkpt>
      <trkpt lat="45.17828" lon="5.91668">
        <ele>1550.7</ele>
        <time>2021-02-20T07:09:31Z</time>
      </trkpt>
      <trkpt lat="45.17827" lon="5.91668">
        <ele>1550.9</ele>
        <time>2021-02-20T07:09:32Z</time>
      </trkpt>
      <trkpt lat="45.17826" lon="5.91669">
        <ele>1551.1</ele>
        <time>2021-02-20T07:09:33Z</time>
      </trkpt>
      <trkpt lat="45.17826" lon="5.91669">
        <ele>1551.2</ele>
        <time>2021-02-20T07:09:34Z</time>
      </trkpt>
      <trkpt lat="45.17825" lon="5.9167">
        <ele>1551.3</ele>
        <time>2021-02-20T07:09:35Z</time>
      </trkpt>
      <trkpt lat="45.17825" lon="5.9167">
        <ele>1551.5</ele>
        <time>2021-02-20T07:09:36Z</time>
      </trkpt>
      <trkpt lat="45.17824" lon="5.91671">
        <ele>1551.6</ele>
        <time>2021-02-20T07:09:37Z</time>
      </trkpt>
      <trkpt lat="45.17824" lon="5.91671">
        <ele>1551.8</ele>
        <time>2021-02-20T07:09:38Z</time>
      </trkpt>
      <trkpt lat="45.17823" lon="5.91672">
        <ele>1551.9</ele>
        <time>2021-02-20T07:09:39Z</time>
      </trkpt>
      <trkpt lat="45.17822" lon="5.91673">
        <ele>1552.1</ele>
        <time>2021-02-20T07:09:40Z</time>
      </trkpt>
      <trkpt lat="45.17822" lon="5.91673">
        <ele>1552.2</ele>
        <time>2021-02-20T07:09:41Z</time>
      </trkpt>
      <trkpt lat="45.1782" lon="5.91674">
        <ele>1552.6</ele>
        <time>2021-02-20T07:09:42Z</time>
      </trkpt>
      <trkpt lat="45.1782" lon="5.91674">
        <ele>1552.7</ele>
        <time>2021-02-20T07:09:43Z</time>
      </trkpt>
      <trkpt lat="45.17819" lon="5.91674">
        <ele>1552.9</ele>
        <time>2021-02-20T07:09:44Z</time>
      </trkpt>
      <trkpt lat="45.17818" lon="5.91675">
        <ele>1553.1</ele>
        <time>2021-02-20T07:09:45Z</time>
      </trkpt>
      <trkpt lat="45.17817" lon="5.91676">
        <ele>1553.3</ele>
        <time>2021-02-20T07:09:46Z</time>
      </trkpt>
      <trkpt lat="45.17816" lon="5.91676">
        <ele>1553.5</ele>
        <time>2021-02-20T07:09:47Z</time>
      </trkpt>
      <trkpt lat="45.17816" lon="5.91677">
        <ele>1553.7</ele>
        <time>2021-02-20T07:09:48Z</time>
      </trkpt>
      <trkpt lat="45.17815" lon="5.91677">
        <ele>1553.9</ele>
        <time>2021-02-20T07:09:49Z</time>
      </trkpt>
      <trkpt lat="45.17814" lon="5.91677">
        <ele>1554</ele>
        <time>2021-02-20T07:09:50Z</time>
      </trkpt>
      <trkpt lat="45.17813" lon="5.91678">
        <ele>1554.2</ele>
        <time>2021-02-20T07:09:51Z</time>
      </trkpt>
      <trkpt lat="45.17812" lon="5.91678">
        <ele>1554.4</ele>
        <time>2021-02-20T07:09:52Z</time>
      </trkpt>
      <trkpt lat="45.17812" lon="5.91678">
        <ele>1554.5</ele>
        <time>2021-02-20T07:09:53Z</time>
      </trkpt>
      <trkpt lat="45.17811" lon="5.91679">
        <ele>1554.7</ele>
        <time>2021-02-20T07:09:54Z</time>
      </trkpt>
      <trkpt lat="45.1781" lon="5.91679">
        <ele>1554.9</ele>
        <time>2021-02-20T07:09:55Z</time>
      </trkpt>
      <trkpt lat="45.17809" lon="5.91679">
        <ele>1555.1</ele>
        <time>2021-02-20T07:09:56Z</time>
      </trkpt>
      <trkpt lat="45.17809" lon="5.91679">
        <ele>1555.2</ele>
        <time>2021-02-20T07:09:57Z</time>
      </trkpt>
      <trkpt lat="45.17808" lon="5.9168">
        <ele>1555.4</ele>
        <time>2021-02-20T07:09:58Z</time>
      </trkpt>
      <trkpt lat="45.17807" lon="5.9168">
        <ele>1555.5</ele>
        <time>2021-02-20T07:09:59Z</time>
      </trkpt>
      <trkpt lat="45.17807" lon="5.9168">
        <ele>1555.7</ele>
        <time>2021-02-20T07:10:00Z</time>
      </trkpt>
      <trkpt lat="45.17806" lon="5.9168">
        <ele>1555.8</ele>
        <time>2021-02-20T07:10:01Z</time>
      </trkpt>
      <trkpt lat="45.17805" lon="5.91681">
        <ele>1555.9</ele>
        <time>2021-02-20T07:10:02Z</time>
      </trkpt>
      <trkpt lat="45.17805" lon="5.91681">
        <ele>1556</ele>
        <time>2021-02-20T07:10:03Z</time>
      </trkpt>
      <trkpt lat="45.17804" lon="5.91682">
        <ele>1556.2</ele>
        <time>2021-02-20T07:10:04Z</time>
      </trkpt>
      <trkpt lat="45.17804" lon="5.91682">
        <ele>1556.3</ele>
        <time>2021-02-20T07:10:05Z</time>
      </trkpt>
      <trkpt lat="45.17803" lon="5.91683">
        <ele>1556.5</ele>
        <time>2021-02-20T07:10:06Z</time>
      </trkpt>
      <trkpt lat="45.17802" lon="5.91683">
        <ele>1559.2</ele>
        <time>2021-02-20T07:10:07Z</time>
      </trkpt>
      <trkpt lat="45.17802" lon="5.91684">
        <ele>1559.3</ele>
        <time>2021-02-20T07:10:08Z</time>
      </trkpt>
      <trkpt lat="45.17802" lon="5.91684">
        <ele>1559.4</ele>
        <time>2021-02-20T07:10:09Z</time>
      </trkpt>
      <trkpt lat="45.17802" lon="5.91685">
        <ele>1559.6</ele>
        <time>2021-02-20T07:10:10Z</time>
      </trkpt>
      <trkpt lat="45.17802" lon="5.91686">
        <ele>1559.7</ele>
        <time>2021-02-20T07:10:11Z</time>
      </trkpt>
      <trkpt lat="45.17802" lon="5.91686">
        <ele>1559.8</ele>
        <time>2021-02-20T07:10:12Z</time>
      </trkpt>
      <trkpt lat="45.17802" lon="5.91687">
        <ele>1559.9</ele>
        <time>2021-02-20T07:10:13Z</time>
      </trkpt>
      <trkpt lat="45.17803" lon="5.91687">
        <ele>1559.9</ele>
        <time>2021-02-20T07:10:14Z</time>
      </trkpt>
      <trkpt lat="45.17803" lon="5.91687">
        <ele>1560</ele>
        <time>2021-02-20T07:10:15Z</time>
      </trkpt>
      <trkpt lat="45.17804" lon="5.91687">
        <ele>1560.2</ele>
        <time>2021-02-20T07:10:16Z</time>
      </trkpt>
      <trkpt lat="45.17804" lon="5.91687">
        <ele>1560.3</ele>
        <time>2021-02-20T07:10:17Z</time>
      </trkpt>
      <trkpt lat="45.17805" lon="5.91687">
        <ele>1560.5</ele>
        <time>2021-02-20T07:10:18Z</time>
      </trkpt>
      <trkpt lat="45.17805" lon="5.91687">
        <ele>1560.6</ele>
        <time>2021-02-20T07:10:19Z</time>
      </trkpt>
      <trkpt lat="45.17806" lon="5.91687">
        <ele>1560.7</ele>
        <time>2021-02-20T07:10:20Z</time>
      </trkpt>
      <trkpt lat="45.17806" lon="5.91687">
        <ele>1560.8</ele>
        <time>2021-02-20T07:10:21Z</time>
      </trkpt>
      <trkpt lat="45.17806" lon="5.91688">
        <ele>1560.9</ele>
        <time>2021-02-20T07:10:22Z</time>
      </trkpt>
      <trkpt lat="45.17807" lon="5.91688">
        <ele>1560.9</ele>
        <time>2021-02-20T07:10:23Z</time>
      </trkpt>
      <trkpt lat="45.17807" lon="5.91688">
        <ele>1561.1</ele>
        <time>2021-02-20T07:10:24Z</time>
      </trkpt>
      <trkpt lat="45.17808" lon="5.91688">
        <ele>1561.2</ele>
        <time>2021-02-20T07:10:25Z</time>
      </trkpt>
      <trkpt lat="45.17808" lon="5.91688">
        <ele>1561.3</ele>
        <time>2021-02-20T07:10:26Z</time>
      </trkpt>
      <trkpt lat="45.17809" lon="5.91688">
        <ele>1561.4</ele>
        <time>2021-02-20T07:10:27Z</time>
      </trkpt>
      <trkpt lat="45.1781" lon="5.91688">
        <ele>1561.6</ele>
        <time>2021-02-20T07:10:28Z</time>
      </trkpt>
      <trkpt lat="45.1781" lon="5.91688">
        <ele>1561.8</ele>
        <time>2021-02-20T07:10:29Z</time>
      </trkpt>
      <trkpt lat="45.17811" lon="5.9169">
        <ele>1562.2</ele>
        <time>2021-02-20T07:10:30Z</time>
      </trkpt>
      <trkpt lat="45.17812" lon="5.91691">
        <ele>1562.4</ele>
        <time>2021-02-20T07:10:31Z</time>
      </trkpt>
      <trkpt lat="45.17812" lon="5.91692">
        <ele>1562.5</ele>
        <time>2021-02-20T07:10:32Z</time>
      </trkpt>
      <trkpt lat="45.17813" lon="5.91693">
        <ele>1562.7</ele>
        <time>2021-02-20T07:10:33Z</time>
      </trkpt>
      <trkpt lat="45.17814" lon="5.91695">
        <ele>1563.1</ele>
        <time>2021-02-20T07:10:34Z</time>
      </trkpt>
      <trkpt lat="45.17815" lon="5.91695">
        <ele>1563.2</ele>
        <time>2021-02-20T07:10:35Z</time>
      </trkpt>
      <trkpt lat="45.17815" lon="5.91696">
        <ele>1563.4</ele>
        <time>2021-02-20T07:10:36Z</time>
      </trkpt>
      <trkpt lat="45.17816" lon="5.91696">
        <ele>1563.5</ele>
        <time>2021-02-20T07:10:37Z</time>
      </trkpt>
      <trkpt lat="45.17816" lon="5.91697">
        <ele>1563.6</ele>
        <time>2021-02-20T07:10:38Z</time>
      </trkpt>
      <trkpt lat="45.17817" lon="5.91697">
        <ele>1563.8</ele>
        <time>2021-02-20T07:10:39Z</time>
      </trkpt>
      <trkpt lat="45.17817" lon="5.91698">
        <ele>1563.8</ele>
        <time>2021-02-20T07:10:40Z</time>
      </trkpt>
      <trkpt lat="45.17817" lon="5.91698">
        <ele>1563.9</ele>
        <time>2021-02-20T07:10:41Z</time>
      </trkpt>
      <trkpt lat="45.17817" lon="5.91698">
        <ele>1563.9</ele>
        <time>2021-02-20T07:10:42Z</time>
      </trkpt>
      <trkpt lat="45.17817" lon="5.91698">
        <ele>1563.9</ele>
        <time>2021-02-20T07:10:43Z</time>
      </trkpt>
      <trkpt lat="45.17817" lon="5.91698">
        <ele>1563.9</ele>
        <time>2021-02-20T07:10:44Z</time>
      </trkpt>
      <trkpt lat="45.17818" lon="5.91698">
        <ele>1564</ele>
        <time>2021-02-20T07:10:45Z</time>
      </trkpt>
      <trkpt lat="45.17818" lon="5.91698">
        <ele>1564.1</ele>
        <time>2021-02-20T07:10:46Z</time>
      </trkpt>
      <trkpt lat="45.17819" lon="5.91698">
        <ele>1564.3</ele>
        <time>2021-02-20T07:10:47Z</time>
      </trkpt>
      <trkpt lat="45.1782" lon="5.91698">
        <ele>1564.4</ele>
        <time>2021-02-20T07:10:48Z</time>
      </trkpt>
      <trkpt lat="45.17821" lon="5.91697">
        <ele>1564.7</ele>
        <time>2021-02-20T07:10:49Z</time>
      </trkpt>
      <trkpt lat="45.17822" lon="5.91697">
        <ele>1564.9</ele>
        <time>2021-02-20T07:10:50Z</time>
      </trkpt>
      <trkpt lat="45.17823" lon="5.91696">
        <ele>1565.1</ele>
        <time>2021-02-20T07:10:51Z</time>
      </trkpt>
      <trkpt lat="45.17824" lon="5.91696">
        <ele>1565.3</ele>
        <time>2021-02-20T07:10:52Z</time>
      </trkpt>
      <trkpt lat="45.17825" lon="5.91696">
        <ele>1565.4</ele>
        <time>2021-02-20T07:10:53Z</time>
      </trkpt>
      <trkpt lat="45.17826" lon="5.91696">
        <ele>1565.6</ele>
        <time>2021-02-20T07:10:54Z</time>
      </trkpt>
      <trkpt lat="45.17828" lon="5.91697">
        <ele>1565.9</ele>
        <time>2021-02-20T07:10:55Z</time>
      </trkpt>
      <trkpt lat="45.17829" lon="5.91697">
        <ele>1566.2</ele>
        <time>2021-02-20T07:10:56Z</time>
      </trkpt>
      <trkpt lat="45.1783" lon="5.91698">
        <ele>1566.4</ele>
        <time>2021-02-20T07:10:57Z</time>
      </trkpt>
      <trkpt lat="45.17831" lon="5.91698">
        <ele>1566.5</ele>
        <time>2021-02-20T07:10:58Z</time>
      </trkpt>
      <trkpt lat="45.17831" lon="5.91698">
        <ele>1566.6</ele>
        <time>2021-02-20T07:10:59Z</time>
      </trkpt>
      <trkpt lat="45.17832" lon="5.91699">
        <ele>1566.7</ele>
        <time>2021-02-20T07:11:00Z</time>
      </trkpt>
      <trkpt lat="45.17832" lon="5.91699">
        <ele>1566.8</ele>
        <time>2021-02-20T07:11:01Z</time>
      </trkpt>
      <trkpt lat="45.17832" lon="5.91699">
        <ele>1566.8</ele>
        <time>2021-02-20T07:11:02Z</time>
      </trkpt>
      <trkpt lat="45.17833" lon="5.91701">
        <ele>1567</ele>
        <time>2021-02-20T07:11:03Z</time>
      </trkpt>
      <trkpt lat="45.17833" lon="5.91701">
        <ele>1567</ele>
        <time>2021-02-20T07:11:04Z</time>
      </trkpt>
      <trkpt lat="45.17833" lon="5.91702">
        <ele>1567.1</ele>
        <time>2021-02-20T07:11:05Z</time>
      </trkpt>
      <trkpt lat="45.17834" lon="5.91702">
        <ele>1567.2</ele>
        <time>2021-02-20T07:11:06Z</time>
      </trkpt>
      <trkpt lat="45.17834" lon="5.91702">
        <ele>1567.3</ele>
        <time>2021-02-20T07:11:07Z</time>
      </trkpt>
      <trkpt lat="45.17834" lon="5.91702">
        <ele>1567.4</ele>
        <time>2021-02-20T07:11:08Z</time>
      </trkpt>
      <trkpt lat="45.17835" lon="5.91703">
        <ele>1567.4</ele>
        <time>2021-02-20T07:11:09Z</time>
      </trkpt>
      <trkpt lat="45.17835" lon="5.91703">
        <ele>1567.5</ele>
        <time>2021-02-20T07:11:10Z</time>
      </trkpt>
      <trkpt lat="45.17836" lon="5.91703">
        <ele>1567.6</ele>
        <time>2021-02-20T07:11:11Z</time>
      </trkpt>
      <trkpt lat="45.17836" lon="5.91703">
        <ele>1567.6</ele>
        <time>2021-02-20T07:11:15Z</time>
      </trkpt>
      <trkpt lat="45.17836" lon="5.91704">
        <ele>1567.7</ele>
        <time>2021-02-20T07:11:16Z</time>
      </trkpt>
      <trkpt lat="45.17837" lon="5.91704">
        <ele>1567.8</ele>
        <time>2021-02-20T07:11:17Z</time>
      </trkpt>
      <trkpt lat="45.17837" lon="5.91704">
        <ele>1567.8</ele>
        <time>2021-02-20T07:11:18Z</time>
      </trkpt>
      <trkpt lat="45.17838" lon="5.91704">
        <ele>1567.9</ele>
        <time>2021-02-20T07:11:19Z</time>
      </trkpt>
      <trkpt lat="45.17838" lon="5.91704">
        <ele>1568</ele>
        <time>2021-02-20T07:11:20Z</time>
      </trkpt>
      <trkpt lat="45.17838" lon="5.91705">
        <ele>1568.1</ele>
        <time>2021-02-20T07:11:21Z</time>
      </trkpt>
      <trkpt lat="45.17838" lon="5.91707">
        <ele>1568.3</ele>
        <time>2021-02-20T07:11:22Z</time>
      </trkpt>
      <trkpt lat="45.17838" lon="5.91709">
        <ele>1568.6</ele>
        <time>2021-02-20T07:11:23Z</time>
      </trkpt>
      <trkpt lat="45.17837" lon="5.91711">
        <ele>1568.9</ele>
        <time>2021-02-20T07:11:24Z</time>
      </trkpt>
      <trkpt lat="45.17837" lon="5.91713">
        <ele>1569.2</ele>
        <time>2021-02-20T07:11:25Z</time>
      </trkpt>
      <trkpt lat="45.17836" lon="5.91716">
        <ele>1569.5</ele>
        <time>2021-02-20T07:13:20Z</time>
      </trkpt>
      <trkpt lat="45.17836" lon="5.91718">
        <ele>1569.8</ele>
        <time>2021-02-20T07:13:21Z</time>
      </trkpt>
      <trkpt lat="45.17835" lon="5.9172">
        <ele>1570.1</ele>
        <time>2021-02-20T07:13:22Z</time>
      </trkpt>
      <trkpt lat="45.17834" lon="5.91721">
        <ele>1570.3</ele>
        <time>2021-02-20T07:13:23Z</time>
      </trkpt>
      <trkpt lat="45.17833" lon="5.91721">
        <ele>1570.5</ele>
        <time>2021-02-20T07:13:24Z</time>
      </trkpt>
      <trkpt lat="45.17832" lon="5.91722">
        <ele>1570.7</ele>
        <time>2021-02-20T07:13:25Z</time>
      </trkpt>
      <trkpt lat="45.17832" lon="5.91723">
        <ele>1570.8</ele>
        <time>2021-02-20T07:13:26Z</time>
      </trkpt>
      <trkpt lat="45.17831" lon="5.91723">
        <ele>1570.9</ele>
        <time>2021-02-20T07:13:27Z</time>
      </trkpt>
      <trkpt lat="45.17831" lon="5.91724">
        <ele>1571.1</ele>
        <time>2021-02-20T07:13:28Z</time>
      </trkpt>
      <trkpt lat="45.1783" lon="5.91725">
        <ele>1571.3</ele>
        <time>2021-02-20T07:13:29Z</time>
      </trkpt>
      <trkpt lat="45.17829" lon="5.91726">
        <ele>1571.4</ele>
        <time>2021-02-20T07:13:30Z</time>
      </trkpt>
      <trkpt lat="45.17829" lon="5.91727">
        <ele>1571.5</ele>
        <time>2021-02-20T07:13:31Z</time>
      </trkpt>
      <trkpt lat="45.17828" lon="5.91727">
        <ele>1571.6</ele>
        <time>2021-02-20T07:13:32Z</time>
      </trkpt>
      <trkpt lat="45.17828" lon="5.91727">
        <ele>1571.6</ele>
        <time>2021-02-20T07:13:33Z</time>
      </trkpt>
      <trkpt lat="45.17828" lon="5.91727">
        <ele>1571.6</ele>
        <time>2021-02-20T07:13:34Z</time>
      </trkpt>
      <trkpt lat="45.17828" lon="5.91727">
        <ele>1571.6</ele>
        <time>2021-02-20T07:13:35Z</time>
      </trkpt>
      <trkpt lat="45.17828" lon="5.91727">
        <ele>1571.6</ele>
        <time>2021-02-20T07:13:36Z</time>
      </trkpt>
      <trkpt lat="45.17827" lon="5.91726">
        <ele>1571.9</ele>
        <time>2021-02-20T07:13:37Z</time>
      </trkpt>
      <trkpt lat="45.17826" lon="5.91727">
        <ele>1572.1</ele>
        <time>2021-02-20T07:13:38Z</time>
      </trkpt>
      <trkpt lat="45.17825" lon="5.91727">
        <ele>1572.3</ele>
        <time>2021-02-20T07:13:39Z</time>
      </trkpt>
      <trkpt lat="45.17824" lon="5.91727">
        <ele>1572.5</ele>
        <time>2021-02-20T07:13:40Z</time>
      </trkpt>
      <trkpt lat="45.17822" lon="5.91727">
        <ele>1572.7</ele>
        <time>2021-02-20T07:13:41Z</time>
      </trkpt>
      <trkpt lat="45.17821" lon="5.91728">
        <ele>1572.9</ele>
        <time>2021-02-20T07:13:42Z</time>
      </trkpt>
      <trkpt lat="45.1782" lon="5.91728">
        <ele>1573.2</ele>
        <time>2021-02-20T07:13:56Z</time>
      </trkpt>
      <trkpt lat="45.17819" lon="5.91728">
        <ele>1573.4</ele>
        <time>2021-02-20T07:13:57Z</time>
      </trkpt>
      <trkpt lat="45.17818" lon="5.91728">
        <ele>1573.6</ele>
        <time>2021-02-20T07:13:58Z</time>
      </trkpt>
      <trkpt lat="45.17816" lon="5.91729">
        <ele>1573.8</ele>
        <time>2021-02-20T07:13:59Z</time>
      </trkpt>
      <trkpt lat="45.17815" lon="5.91729">
        <ele>1574</ele>
        <time>2021-02-20T07:14:00Z</time>
      </trkpt>
      <trkpt lat="45.17814" lon="5.91729">
        <ele>1574.1</ele>
        <time>2021-02-20T07:14:01Z</time>
      </trkpt>
      <trkpt lat="45.17814" lon="5.91729">
        <ele>1574.3</ele>
        <time>2021-02-20T07:14:02Z</time>
      </trkpt>
      <trkpt lat="45.17813" lon="5.91729">
        <ele>1574.4</ele>
        <time>2021-02-20T07:14:03Z</time>
      </trkpt>
      <trkpt lat="45.17812" lon="5.91729">
        <ele>1574.5</ele>
        <time>2021-02-20T07:14:04Z</time>
      </trkpt>
      <trkpt lat="45.17812" lon="5.91729">
        <ele>1574.6</ele>
        <time>2021-02-20T07:14:05Z</time>
      </trkpt>
      <trkpt lat="45.17811" lon="5.9173">
        <ele>1574.8</ele>
        <time>2021-02-20T07:14:06Z</time>
      </trkpt>
      <trkpt lat="45.1781" lon="5.9173">
        <ele>1574.9</ele>
        <time>2021-02-20T07:14:07Z</time>
      </trkpt>
      <trkpt lat="45.17809" lon="5.9173">
        <ele>1575.1</ele>
        <time>2021-02-20T07:14:08Z</time>
      </trkpt>
      <trkpt lat="45.17809" lon="5.9173">
        <ele>1575.2</ele>
        <time>2021-02-20T07:14:09Z</time>
      </trkpt>
      <trkpt lat="45.17808" lon="5.91731">
        <ele>1575.4</ele>
        <time>2021-02-20T07:14:10Z</time>
      </trkpt>
      <trkpt lat="45.17807" lon="5.9173">
        <ele>1575.5</ele>
        <time>2021-02-20T07:14:11Z</time>
      </trkpt>
      <trkpt lat="45.17807" lon="5.91731">
        <ele>1575.6</ele>
        <time>2021-02-20T07:14:12Z</time>
      </trkpt>
      <trkpt lat="45.17806" lon="5.91731">
        <ele>1575.7</ele>
        <time>2021-02-20T07:14:13Z</time>
      </trkpt>
      <trkpt lat="45.17806" lon="5.9173">
        <ele>1575.8</ele>
        <time>2021-02-20T07:14:14Z</time>
      </trkpt>
      <trkpt lat="45.17805" lon="5.91731">
        <ele>1575.9</ele>
        <time>2021-02-20T07:14:15Z</time>
      </trkpt>
      <trkpt lat="45.17804" lon="5.91732">
        <ele>1576.1</ele>
        <time>2021-02-20T07:14:16Z</time>
      </trkpt>
      <trkpt lat="45.17804" lon="5.91733">
        <ele>1576.4</ele>
        <time>2021-02-20T07:14:17Z</time>
      </trkpt>
      <trkpt lat="45.17803" lon="5.91735">
        <ele>1576.6</ele>
        <time>2021-02-20T07:14:18Z</time>
      </trkpt>
      <trkpt lat="45.17803" lon="5.91735">
        <ele>1576.6</ele>
        <time>2021-02-20T07:14:19Z</time>
      </trkpt>
      <trkpt lat="45.17802" lon="5.91736">
        <ele>1576.8</ele>
        <time>2021-02-20T07:14:20Z</time>
      </trkpt>
      <trkpt lat="45.17802" lon="5.91736">
        <ele>1576.9</ele>
        <time>2021-02-20T07:14:21Z</time>
      </trkpt>
      <trkpt lat="45.17801" lon="5.91736">
        <ele>1577.1</ele>
        <time>2021-02-20T07:14:22Z</time>
      </trkpt>
      <trkpt lat="45.178" lon="5.91737">
        <ele>1577.2</ele>
        <time>2021-02-20T07:14:23Z</time>
      </trkpt>
      <trkpt lat="45.178" lon="5.91736">
        <ele>1577.3</ele>
        <time>2021-02-20T07:14:24Z</time>
      </trkpt>
      <trkpt lat="45.178" lon="5.91736">
        <ele>1577.3</ele>
        <time>2021-02-20T07:14:25Z</time>
      </trkpt>
      <trkpt lat="45.17799" lon="5.91737">
        <ele>1577.4</ele>
        <time>2021-02-20T07:14:26Z</time>
      </trkpt>
      <trkpt lat="45.17799" lon="5.91737">
        <ele>1577.5</ele>
        <time>2021-02-20T07:14:27Z</time>
      </trkpt>
      <trkpt lat="45.17798" lon="5.91737">
        <ele>1577.7</ele>
        <time>2021-02-20T07:14:28Z</time>
      </trkpt>
      <trkpt lat="45.17797" lon="5.91737">
        <ele>1577.9</ele>
        <time>2021-02-20T07:14:29Z</time>
      </trkpt>
      <trkpt lat="45.17796" lon="5.91736">
        <ele>1578.1</ele>
        <time>2021-02-20T07:14:30Z</time>
      </trkpt>
      <trkpt lat="45.17795" lon="5.91736">
        <ele>1578.3</ele>
        <time>2021-02-20T07:14:31Z</time>
      </trkpt>
      <trkpt lat="45.17795" lon="5.91736">
        <ele>1578.4</ele>
        <time>2021-02-20T07:14:32Z</time>
      </trkpt>
      <trkpt lat="45.17794" lon="5.91736">
        <ele>1578.6</ele>
        <time>2021-02-20T07:14:33Z</time>
      </trkpt>
      <trkpt lat="45.17793" lon="5.91736">
        <ele>1578.7</ele>
        <time>2021-02-20T07:14:34Z</time>
      </trkpt>
      <trkpt lat="45.17792" lon="5.91736">
        <ele>1578.9</ele>
        <time>2021-02-20T07:14:35Z</time>
      </trkpt>
      <trkpt lat="45.17791" lon="5.91736">
        <ele>1579.1</ele>
        <time>2021-02-20T07:14:36Z</time>
      </trkpt>
      <trkpt lat="45.1779" lon="5.91736">
        <ele>1579.3</ele>
        <time>2021-02-20T07:14:37Z</time>
      </trkpt>
      <trkpt lat="45.1779" lon="5.91736">
        <ele>1579.5</ele>
        <time>2021-02-20T07:14:38Z</time>
      </trkpt>
      <trkpt lat="45.17789" lon="5.91736">
        <ele>1579.6</ele>
        <time>2021-02-20T07:14:39Z</time>
      </trkpt>
      <trkpt lat="45.17788" lon="5.91737">
        <ele>1579.8</ele>
        <time>2021-02-20T07:14:40Z</time>
      </trkpt>
      <trkpt lat="45.17787" lon="5.91737">
        <ele>1580</ele>
        <time>2021-02-20T07:14:41Z</time>
      </trkpt>
      <trkpt lat="45.17786" lon="5.91737">
        <ele>1580.2</ele>
        <time>2021-02-20T07:14:42Z</time>
      </trkpt>
      <trkpt lat="45.17785" lon="5.91738">
        <ele>1580.4</ele>
        <time>2021-02-20T07:14:43Z</time>
      </trkpt>
      <trkpt lat="45.17784" lon="5.91738">
        <ele>1580.6</ele>
        <time>2021-02-20T07:14:44Z</time>
      </trkpt>
      <trkpt lat="45.17783" lon="5.91738">
        <ele>1580.8</ele>
        <time>2021-02-20T07:14:45Z</time>
      </trkpt>
      <trkpt lat="45.17783" lon="5.91739">
        <ele>1580.9</ele>
        <time>2021-02-20T07:14:46Z</time>
      </trkpt>
      <trkpt lat="45.17782" lon="5.91739">
        <ele>1581.1</ele>
        <time>2021-02-20T07:14:47Z</time>
      </trkpt>
      <trkpt lat="45.17781" lon="5.91739">
        <ele>1581.3</ele>
        <time>2021-02-20T07:14:48Z</time>
      </trkpt>
      <trkpt lat="45.1778" lon="5.91739">
        <ele>1581.5</ele>
        <time>2021-02-20T07:14:49Z</time>
      </trkpt>
      <trkpt lat="45.1778" lon="5.91739">
        <ele>1581.5</ele>
        <time>2021-02-20T07:14:50Z</time>
      </trkpt>
      <trkpt lat="45.17779" lon="5.9174">
        <ele>1581.6</ele>
        <time>2021-02-20T07:14:51Z</time>
      </trkpt>
      <trkpt lat="45.17779" lon="5.9174">
        <ele>1581.7</ele>
        <time>2021-02-20T07:14:52Z</time>
      </trkpt>
      <trkpt lat="45.17778" lon="5.91741">
        <ele>1581.9</ele>
        <time>2021-02-20T07:14:53Z</time>
      </trkpt>
      <trkpt lat="45.17778" lon="5.91742">
        <ele>1582.1</ele>
        <time>2021-02-20T07:14:54Z</time>
      </trkpt>
      <trkpt lat="45.17777" lon="5.91742">
        <ele>1582.2</ele>
        <time>2021-02-20T07:14:55Z</time>
      </trkpt>
      <trkpt lat="45.17776" lon="5.91742">
        <ele>1582.3</ele>
        <time>2021-02-20T07:14:56Z</time>
      </trkpt>
      <trkpt lat="45.17776" lon="5.91742">
        <ele>1582.4</ele>
        <time>2021-02-20T07:14:57Z</time>
      </trkpt>
      <trkpt lat="45.17776" lon="5.91743">
        <ele>1582.5</ele>
        <time>2021-02-20T07:14:58Z</time>
      </trkpt>
      <trkpt lat="45.17775" lon="5.91743">
        <ele>1582.6</ele>
        <time>2021-02-20T07:15:07Z</time>
      </trkpt>
      <trkpt lat="45.17775" lon="5.91743">
        <ele>1582.7</ele>
        <time>2021-02-20T07:15:08Z</time>
      </trkpt>
      <trkpt lat="45.17775" lon="5.91743">
        <ele>1582.7</ele>
        <time>2021-02-20T07:15:09Z</time>
      </trkpt>
      <trkpt lat="45.17774" lon="5.91743">
        <ele>1582.8</ele>
        <time>2021-02-20T07:15:10Z</time>
      </trkpt>
      <trkpt lat="45.17774" lon="5.91743">
        <ele>1582.9</ele>
        <time>2021-02-20T07:15:11Z</time>
      </trkpt>
      <trkpt lat="45.17773" lon="5.91744">
        <ele>1583</ele>
        <time>2021-02-20T07:15:12Z</time>
      </trkpt>
      <trkpt lat="45.17773" lon="5.91744">
        <ele>1583.1</ele>
        <time>2021-02-20T07:15:13Z</time>
      </trkpt>
      <trkpt lat="45.17773" lon="5.91744">
        <ele>1583.1</ele>
        <time>2021-02-20T07:15:14Z</time>
      </trkpt>
      <trkpt lat="45.17772" lon="5.91744">
        <ele>1583.2</ele>
        <time>2021-02-20T07:15:15Z</time>
      </trkpt>
      <trkpt lat="45.17772" lon="5.91744">
        <ele>1583.4</ele>
        <time>2021-02-20T07:15:16Z</time>
      </trkpt>
      <trkpt lat="45.17771" lon="5.91743">
        <ele>1583.5</ele>
        <time>2021-02-20T07:15:17Z</time>
      </trkpt>
      <trkpt lat="45.1777" lon="5.91743">
        <ele>1583.7</ele>
        <time>2021-02-20T07:15:27Z</time>
      </trkpt>
      <trkpt lat="45.1777" lon="5.91743">
        <ele>1583.9</ele>
        <time>2021-02-20T07:15:28Z</time>
      </trkpt>
      <trkpt lat="45.17769" lon="5.91743">
        <ele>1584.1</ele>
        <time>2021-02-20T07:15:29Z</time>
      </trkpt>
      <trkpt lat="45.17768" lon="5.91743">
        <ele>1584.2</ele>
        <time>2021-02-20T07:15:30Z</time>
      </trkpt>
      <trkpt lat="45.17767" lon="5.91743">
        <ele>1584.4</ele>
        <time>2021-02-20T07:15:31Z</time>
      </trkpt>
      <trkpt lat="45.17766" lon="5.91743">
        <ele>1584.6</ele>
        <time>2021-02-20T07:15:32Z</time>
      </trkpt>
      <trkpt lat="45.17765" lon="5.91743">
        <ele>1584.8</ele>
        <time>2021-02-20T07:15:33Z</time>
      </trkpt>
      <trkpt lat="45.17765" lon="5.91742">
        <ele>1585</ele>
        <time>2021-02-20T07:15:34Z</time>
      </trkpt>
      <trkpt lat="45.17764" lon="5.91742">
        <ele>1585.1</ele>
        <time>2021-02-20T07:15:35Z</time>
      </trkpt>
      <trkpt lat="45.17763" lon="5.91742">
        <ele>1585.3</ele>
        <time>2021-02-20T07:15:36Z</time>
      </trkpt>
      <trkpt lat="45.17762" lon="5.91742">
        <ele>1585.5</ele>
        <time>2021-02-20T07:15:37Z</time>
      </trkpt>
      <trkpt lat="45.17762" lon="5.91742">
        <ele>1585.6</ele>
        <time>2021-02-20T07:15:38Z</time>
      </trkpt>
      <trkpt lat="45.17761" lon="5.91742">
        <ele>1585.8</ele>
        <time>2021-02-20T07:15:39Z</time>
      </trkpt>
      <trkpt lat="45.1776" lon="5.91743">
        <ele>1585.9</ele>
        <time>2021-02-20T07:15:40Z</time>
      </trkpt>
      <trkpt lat="45.1776" lon="5.91743">
        <ele>1585.9</ele>
        <time>2021-02-20T07:15:41Z</time>
      </trkpt>
      <trkpt lat="45.17759" lon="5.91743">
        <ele>1586.1</ele>
        <time>2021-02-20T07:15:42Z</time>
      </trkpt>
      <trkpt lat="45.17758" lon="5.91743">
        <ele>1586.4</ele>
        <time>2021-02-20T07:15:43Z</time>
      </trkpt>
      <trkpt lat="45.17757" lon="5.91743">
        <ele>1586.6</ele>
        <time>2021-02-20T07:15:44Z</time>
      </trkpt>
      <trkpt lat="45.17757" lon="5.91743">
        <ele>1586.7</ele>
        <time>2021-02-20T07:15:45Z</time>
      </trkpt>
      <trkpt lat="45.17756" lon="5.91743">
        <ele>1586.8</ele>
        <time>2021-02-20T07:15:46Z</time>
      </trkpt>
      <trkpt lat="45.17756" lon="5.91743">
        <ele>1587</ele>
        <time>2021-02-20T07:15:47Z</time>
      </trkpt>
      <trkpt lat="45.17755" lon="5.91743">
        <ele>1587.2</ele>
        <time>2021-02-20T07:15:48Z</time>
      </trkpt>
      <trkpt lat="45.17754" lon="5.91742">
        <ele>1587.4</ele>
        <time>2021-02-20T07:15:49Z</time>
      </trkpt>
      <trkpt lat="45.17753" lon="5.91741">
        <ele>1587.6</ele>
        <time>2021-02-20T07:15:50Z</time>
      </trkpt>
      <trkpt lat="45.17752" lon="5.91741">
        <ele>1587.9</ele>
        <time>2021-02-20T07:15:51Z</time>
      </trkpt>
      <trkpt lat="45.17751" lon="5.91741">
        <ele>1588</ele>
        <time>2021-02-20T07:15:52Z</time>
      </trkpt>
      <trkpt lat="45.1775" lon="5.91741">
        <ele>1588.2</ele>
        <time>2021-02-20T07:15:53Z</time>
      </trkpt>
      <trkpt lat="45.17749" lon="5.91741">
        <ele>1588.3</ele>
        <time>2021-02-20T07:15:54Z</time>
      </trkpt>
      <trkpt lat="45.17749" lon="5.91741">
        <ele>1588.4</ele>
        <time>2021-02-20T07:15:55Z</time>
      </trkpt>
      <trkpt lat="45.17748" lon="5.91741">
        <ele>1588.5</ele>
        <time>2021-02-20T07:15:56Z</time>
      </trkpt>
      <trkpt lat="45.17748" lon="5.91741">
        <ele>1588.7</ele>
        <time>2021-02-20T07:15:57Z</time>
      </trkpt>
      <trkpt lat="45.17747" lon="5.91742">
        <ele>1588.8</ele>
        <time>2021-02-20T07:15:58Z</time>
      </trkpt>
      <trkpt lat="45.17747" lon="5.91743">
        <ele>1589</ele>
        <time>2021-02-20T07:15:59Z</time>
      </trkpt>
      <trkpt lat="45.17747" lon="5.91744">
        <ele>1589.3</ele>
        <time>2021-02-20T07:16:00Z</time>
      </trkpt>
      <trkpt lat="45.17747" lon="5.91746">
        <ele>1589.5</ele>
        <time>2021-02-20T07:16:01Z</time>
      </trkpt>
      <trkpt lat="45.17747" lon="5.91748">
        <ele>1589.8</ele>
        <time>2021-02-20T07:16:02Z</time>
      </trkpt>
      <trkpt lat="45.17747" lon="5.9175">
        <ele>1590.1</ele>
        <time>2021-02-20T07:16:03Z</time>
      </trkpt>
      <trkpt lat="45.17747" lon="5.91751">
        <ele>1590.3</ele>
        <time>2021-02-20T07:16:04Z</time>
      </trkpt>
      <trkpt lat="45.17747" lon="5.91752">
        <ele>1590.4</ele>
        <time>2021-02-20T07:16:05Z</time>
      </trkpt>
      <trkpt lat="45.17747" lon="5.91752">
        <ele>1590.5</ele>
        <time>2021-02-20T07:16:06Z</time>
      </trkpt>
      <trkpt lat="45.17747" lon="5.91753">
        <ele>1590.6</ele>
        <time>2021-02-20T07:16:07Z</time>
      </trkpt>
      <trkpt lat="45.17747" lon="5.91754">
        <ele>1590.7</ele>
        <time>2021-02-20T07:16:08Z</time>
      </trkpt>
      <trkpt lat="45.17748" lon="5.91755">
        <ele>1590.9</ele>
        <time>2021-02-20T07:16:09Z</time>
      </trkpt>
      <trkpt lat="45.17748" lon="5.91757">
        <ele>1591.1</ele>
        <time>2021-02-20T07:16:10Z</time>
      </trkpt>
      <trkpt lat="45.17749" lon="5.91758">
        <ele>1591.4</ele>
        <time>2021-02-20T07:16:11Z</time>
      </trkpt>
      <trkpt lat="45.1775" lon="5.91759">
        <ele>1591.7</ele>
        <time>2021-02-20T07:16:12Z</time>
      </trkpt>
      <trkpt lat="45.1775" lon="5.9176">
        <ele>1591.9</ele>
        <time>2021-02-20T07:16:13Z</time>
      </trkpt>
      <trkpt lat="45.17751" lon="5.91761">
        <ele>1592</ele>
        <time>2021-02-20T07:16:14Z</time>
      </trkpt>
      <trkpt lat="45.17751" lon="5.91761">
        <ele>1592.2</ele>
        <time>2021-02-20T07:16:15Z</time>
      </trkpt>
      <trkpt lat="45.17752" lon="5.91762">
        <ele>1592.4</ele>
        <time>2021-02-20T07:16:16Z</time>
      </trkpt>
      <trkpt lat="45.17753" lon="5.91763">
        <ele>1592.6</ele>
        <time>2021-02-20T07:16:17Z</time>
      </trkpt>
      <trkpt lat="45.17754" lon="5.91764">
        <ele>1592.9</ele>
        <time>2021-02-20T07:16:18Z</time>
      </trkpt>
      <trkpt lat="45.17754" lon="5.91765">
        <ele>1593.2</ele>
        <time>2021-02-20T07:16:19Z</time>
      </trkpt>
      <trkpt lat="45.17755" lon="5.91767">
        <ele>1593.4</ele>
        <time>2021-02-20T07:16:20Z</time>
      </trkpt>
      <trkpt lat="45.17756" lon="5.91768">
        <ele>1593.7</ele>
        <time>2021-02-20T07:16:21Z</time>
      </trkpt>
      <trkpt lat="45.17757" lon="5.9177">
        <ele>1594</ele>
        <time>2021-02-20T07:16:22Z</time>
      </trkpt>
      <trkpt lat="45.17757" lon="5.9177">
        <ele>1594.2</ele>
        <time>2021-02-20T07:16:23Z</time>
      </trkpt>
      <trkpt lat="45.17758" lon="5.91771">
        <ele>1594.3</ele>
        <time>2021-02-20T07:16:24Z</time>
      </trkpt>
      <trkpt lat="45.17758" lon="5.91771">
        <ele>1594.4</ele>
        <time>2021-02-20T07:16:25Z</time>
      </trkpt>
      <trkpt lat="45.17759" lon="5.91771">
        <ele>1594.5</ele>
        <time>2021-02-20T07:16:26Z</time>
      </trkpt>
      <trkpt lat="45.17759" lon="5.91771">
        <ele>1593.9</ele>
        <time>2021-02-20T07:16:27Z</time>
      </trkpt>
      <trkpt lat="45.1776" lon="5.91772">
        <ele>1593.9</ele>
        <time>2021-02-20T07:16:28Z</time>
      </trkpt>
      <trkpt lat="45.1776" lon="5.91773">
        <ele>1595.8</ele>
        <time>2021-02-20T07:16:29Z</time>
      </trkpt>
      <trkpt lat="45.17761" lon="5.91773">
        <ele>1595.9</ele>
        <time>2021-02-20T07:16:30Z</time>
      </trkpt>
      <trkpt lat="45.17761" lon="5.91774">
        <ele>1595.9</ele>
        <time>2021-02-20T07:16:31Z</time>
      </trkpt>
      <trkpt lat="45.17761" lon="5.91774">
        <ele>1596</ele>
        <time>2021-02-20T07:16:32Z</time>
      </trkpt>
      <trkpt lat="45.17762" lon="5.91775">
        <ele>1596</ele>
        <time>2021-02-20T07:16:33Z</time>
      </trkpt>
      <trkpt lat="45.17763" lon="5.91775">
        <ele>1595.4</ele>
        <time>2021-02-20T07:16:34Z</time>
      </trkpt>
      <trkpt lat="45.17763" lon="5.91775">
        <ele>1595.4</ele>
        <time>2021-02-20T07:16:35Z</time>
      </trkpt>
      <trkpt lat="45.17763" lon="5.91776">
        <ele>1595.5</ele>
        <time>2021-02-20T07:16:36Z</time>
      </trkpt>
      <trkpt lat="45.17764" lon="5.91777">
        <ele>1597.4</ele>
        <time>2021-02-20T07:16:37Z</time>
      </trkpt>
      <trkpt lat="45.17765" lon="5.91777">
        <ele>1597.4</ele>
        <time>2021-02-20T07:16:38Z</time>
      </trkpt>
      <trkpt lat="45.17766" lon="5.91778">
        <ele>1596.7</ele>
        <time>2021-02-20T07:16:39Z</time>
      </trkpt>
      <trkpt lat="45.17766" lon="5.91778">
        <ele>1596.8</ele>
        <time>2021-02-20T07:16:40Z</time>
      </trkpt>
      <trkpt lat="45.17767" lon="5.91778">
        <ele>1596.8</ele>
        <time>2021-02-20T07:16:41Z</time>
      </trkpt>
      <trkpt lat="45.17767" lon="5.91778">
        <ele>1596.9</ele>
        <time>2021-02-20T07:16:42Z</time>
      </trkpt>
      <trkpt lat="45.17768" lon="5.91778">
        <ele>1596.2</ele>
        <time>2021-02-20T07:16:43Z</time>
      </trkpt>
      <trkpt lat="45.17769" lon="5.91778">
        <ele>1596.2</ele>
        <time>2021-02-20T07:16:44Z</time>
      </trkpt>
      <trkpt lat="45.1777" lon="5.91778">
        <ele>1596.3</ele>
        <time>2021-02-20T07:16:45Z</time>
      </trkpt>
      <trkpt lat="45.17771" lon="5.91778">
        <ele>1596.3</ele>
        <time>2021-02-20T07:16:46Z</time>
      </trkpt>
      <trkpt lat="45.17771" lon="5.91778">
        <ele>1595.5</ele>
        <time>2021-02-20T07:16:47Z</time>
      </trkpt>
      <trkpt lat="45.17771" lon="5.91778">
        <ele>1595.6</ele>
        <time>2021-02-20T07:16:48Z</time>
      </trkpt>
      <trkpt lat="45.17771" lon="5.91779">
        <ele>1595.6</ele>
        <time>2021-02-20T07:16:49Z</time>
      </trkpt>
      <trkpt lat="45.17772" lon="5.91779">
        <ele>1595.7</ele>
        <time>2021-02-20T07:16:50Z</time>
      </trkpt>
      <trkpt lat="45.17771" lon="5.9178">
        <ele>1595.8</ele>
        <time>2021-02-20T07:16:51Z</time>
      </trkpt>
      <trkpt lat="45.17771" lon="5.9178">
        <ele>1595.8</ele>
        <time>2021-02-20T07:16:52Z</time>
      </trkpt>
      <trkpt lat="45.17771" lon="5.9178">
        <ele>1596.7</ele>
        <time>2021-02-20T07:16:53Z</time>
      </trkpt>
      <trkpt lat="45.17771" lon="5.91781">
        <ele>1596.7</ele>
        <time>2021-02-20T07:16:54Z</time>
      </trkpt>
      <trkpt lat="45.17771" lon="5.91781">
        <ele>1597.8</ele>
        <time>2021-02-20T07:16:55Z</time>
      </trkpt>
      <trkpt lat="45.17772" lon="5.91782">
        <ele>1597.8</ele>
        <time>2021-02-20T07:16:56Z</time>
      </trkpt>
      <trkpt lat="45.17772" lon="5.91782">
        <ele>1597.9</ele>
        <time>2021-02-20T07:16:57Z</time>
      </trkpt>
      <trkpt lat="45.17773" lon="5.91782">
        <ele>1597.9</ele>
        <time>2021-02-20T07:16:58Z</time>
      </trkpt>
      <trkpt lat="45.17774" lon="5.91782">
        <ele>1598</ele>
        <time>2021-02-20T07:16:59Z</time>
      </trkpt>
      <trkpt lat="45.17775" lon="5.91783">
        <ele>1597.1</ele>
        <time>2021-02-20T07:17:00Z</time>
      </trkpt>
      <trkpt lat="45.17775" lon="5.91783">
        <ele>1597.1</ele>
        <time>2021-02-20T07:17:01Z</time>
      </trkpt>
      <trkpt lat="45.17776" lon="5.91783">
        <ele>1597.2</ele>
        <time>2021-02-20T07:17:02Z</time>
      </trkpt>
      <trkpt lat="45.17777" lon="5.91783">
        <ele>1597.2</ele>
        <time>2021-02-20T07:17:03Z</time>
      </trkpt>
      <trkpt lat="45.17778" lon="5.91783">
        <ele>1596.2</ele>
        <time>2021-02-20T07:17:04Z</time>
      </trkpt>
      <trkpt lat="45.17779" lon="5.91784">
        <ele>1596.3</ele>
        <time>2021-02-20T07:17:05Z</time>
      </trkpt>
      <trkpt lat="45.1778" lon="5.91784">
        <ele>1596.3</ele>
        <time>2021-02-20T07:17:06Z</time>
      </trkpt>
      <trkpt lat="45.17781" lon="5.91784">
        <ele>1595.3</ele>
        <time>2021-02-20T07:17:07Z</time>
      </trkpt>
      <trkpt lat="45.17781" lon="5.91784">
        <ele>1595.4</ele>
        <time>2021-02-20T07:17:08Z</time>
      </trkpt>
      <trkpt lat="45.17782" lon="5.91784">
        <ele>1595.4</ele>
        <time>2021-02-20T07:17:09Z</time>
      </trkpt>
      <trkpt lat="45.17782" lon="5.91784">
        <ele>1595.5</ele>
        <time>2021-02-20T07:17:10Z</time>
      </trkpt>
      <trkpt lat="45.17783" lon="5.91784">
        <ele>1595.5</ele>
        <time>2021-02-20T07:17:11Z</time>
      </trkpt>
      <trkpt lat="45.17783" lon="5.91784">
        <ele>1595.6</ele>
        <time>2021-02-20T07:17:12Z</time>
      </trkpt>
      <trkpt lat="45.17784" lon="5.91785">
        <ele>1594.6</ele>
        <time>2021-02-20T07:17:13Z</time>
      </trkpt>
      <trkpt lat="45.17784" lon="5.91786">
        <ele>1596.3</ele>
        <time>2021-02-20T07:17:14Z</time>
      </trkpt>
      <trkpt lat="45.17784" lon="5.91786">
        <ele>1596.4</ele>
        <time>2021-02-20T07:17:15Z</time>
      </trkpt>
      <trkpt lat="45.17785" lon="5.91787">
        <ele>1596.4</ele>
        <time>2021-02-20T07:17:16Z</time>
      </trkpt>
      <trkpt lat="45.17786" lon="5.91786">
        <ele>1596.5</ele>
        <time>2021-02-20T07:17:17Z</time>
      </trkpt>
      <trkpt lat="45.17787" lon="5.91786">
        <ele>1595.5</ele>
        <time>2021-02-20T07:17:18Z</time>
      </trkpt>
      <trkpt lat="45.17788" lon="5.91786">
        <ele>1595.5</ele>
        <time>2021-02-20T07:17:19Z</time>
      </trkpt>
      <trkpt lat="45.17789" lon="5.91785">
        <ele>1594</ele>
        <time>2021-02-20T07:17:20Z</time>
      </trkpt>
      <trkpt lat="45.1779" lon="5.91786">
        <ele>1594.7</ele>
        <time>2021-02-20T07:17:21Z</time>
      </trkpt>
      <trkpt lat="45.1779" lon="5.91786">
        <ele>1594.8</ele>
        <time>2021-02-20T07:17:22Z</time>
      </trkpt>
      <trkpt lat="45.17791" lon="5.91787">
        <ele>1594.8</ele>
        <time>2021-02-20T07:17:23Z</time>
      </trkpt>
      <trkpt lat="45.17791" lon="5.91788">
        <ele>1594.9</ele>
        <time>2021-02-20T07:17:24Z</time>
      </trkpt>
      <trkpt lat="45.17791" lon="5.91789">
        <ele>1594.9</ele>
        <time>2021-02-20T07:17:25Z</time>
      </trkpt>
      <trkpt lat="45.17791" lon="5.9179">
        <ele>1596.6</ele>
        <time>2021-02-20T07:17:26Z</time>
      </trkpt>
      <trkpt lat="45.17792" lon="5.91791">
        <ele>1596.6</ele>
        <time>2021-02-20T07:17:27Z</time>
      </trkpt>
      <trkpt lat="45.17792" lon="5.91791">
        <ele>1596.7</ele>
        <time>2021-02-20T07:17:28Z</time>
      </trkpt>
      <trkpt lat="45.17792" lon="5.91792">
        <ele>1596.7</ele>
        <time>2021-02-20T07:17:29Z</time>
      </trkpt>
      <trkpt lat="45.17792" lon="5.91793">
        <ele>1596.8</ele>
        <time>2021-02-20T07:17:30Z</time>
      </trkpt>
      <trkpt lat="45.17793" lon="5.91794">
        <ele>1595.9</ele>
        <time>2021-02-20T07:17:31Z</time>
      </trkpt>
      <trkpt lat="45.17793" lon="5.91795">
        <ele>1597.5</ele>
        <time>2021-02-20T07:17:32Z</time>
      </trkpt>
      <trkpt lat="45.17793" lon="5.91796">
        <ele>1597.6</ele>
        <time>2021-02-20T07:17:33Z</time>
      </trkpt>
      <trkpt lat="45.17793" lon="5.91796">
        <ele>1597.6</ele>
        <time>2021-02-20T07:17:34Z</time>
      </trkpt>
      <trkpt lat="45.17794" lon="5.91797">
        <ele>1597.7</ele>
        <time>2021-02-20T07:17:35Z</time>
      </trkpt>
      <trkpt lat="45.17794" lon="5.91797">
        <ele>1597.7</ele>
        <time>2021-02-20T07:17:36Z</time>
      </trkpt>
      <trkpt lat="45.17795" lon="5.91797">
        <ele>1597.8</ele>
        <time>2021-02-20T07:17:37Z</time>
      </trkpt>
      <trkpt lat="45.17796" lon="5.91797">
        <ele>1596.8</ele>
        <time>2021-02-20T07:17:38Z</time>
      </trkpt>
      <trkpt lat="45.17797" lon="5.91798">
        <ele>1596.8</ele>
        <time>2021-02-20T07:17:39Z</time>
      </trkpt>
      <trkpt lat="45.17798" lon="5.91798">
        <ele>1596.9</ele>
        <time>2021-02-20T07:17:40Z</time>
      </trkpt>
      <trkpt lat="45.17798" lon="5.91798">
        <ele>1597</ele>
        <time>2021-02-20T07:17:41Z</time>
      </trkpt>
      <trkpt lat="45.17798" lon="5.91799">
        <ele>1598.5</ele>
        <time>2021-02-20T07:17:42Z</time>
      </trkpt>
      <trkpt lat="45.17798" lon="5.91799">
        <ele>1598.6</ele>
        <time>2021-02-20T07:17:43Z</time>
      </trkpt>
      <trkpt lat="45.17798" lon="5.91799">
        <ele>1597.5</ele>
        <time>2021-02-20T07:17:44Z</time>
      </trkpt>
      <trkpt lat="45.17799" lon="5.918">
        <ele>1597.5</ele>
        <time>2021-02-20T07:17:45Z</time>
      </trkpt>
      <trkpt lat="45.17799" lon="5.918">
        <ele>1597.6</ele>
        <time>2021-02-20T07:17:46Z</time>
      </trkpt>
      <trkpt lat="45.17799" lon="5.918">
        <ele>1597.6</ele>
        <time>2021-02-20T07:17:47Z</time>
      </trkpt>
      <trkpt lat="45.17799" lon="5.918">
        <ele>1597.7</ele>
        <time>2021-02-20T07:17:48Z</time>
      </trkpt>
      <trkpt lat="45.17799" lon="5.91801">
        <ele>1597.7</ele>
        <time>2021-02-20T07:17:49Z</time>
      </trkpt>
      <trkpt lat="45.178" lon="5.91801">
        <ele>1597.8</ele>
        <time>2021-02-20T07:17:50Z</time>
      </trkpt>
      <trkpt lat="45.178" lon="5.91801">
        <ele>1597.8</ele>
        <time>2021-02-20T07:18:56Z</time>
      </trkpt>
      <trkpt lat="45.178" lon="5.91802">
        <ele>1597.9</ele>
        <time>2021-02-20T07:18:57Z</time>
      </trkpt>
      <trkpt lat="45.178" lon="5.91802">
        <ele>1597.9</ele>
        <time>2021-02-20T07:18:58Z</time>
      </trkpt>
      <trkpt lat="45.178" lon="5.91802">
        <ele>1598</ele>
        <time>2021-02-20T07:18:59Z</time>
      </trkpt>
      <trkpt lat="45.17801" lon="5.91803">
        <ele>1598</ele>
        <time>2021-02-20T07:19:00Z</time>
      </trkpt>
      <trkpt lat="45.17801" lon="5.91803">
        <ele>1599.5</ele>
        <time>2021-02-20T07:19:01Z</time>
      </trkpt>
      <trkpt lat="45.17801" lon="5.91803">
        <ele>1599.6</ele>
        <time>2021-02-20T07:19:02Z</time>
      </trkpt>
      <trkpt lat="45.17801" lon="5.91803">
        <ele>1599.6</ele>
        <time>2021-02-20T07:19:03Z</time>
      </trkpt>
      <trkpt lat="45.17801" lon="5.91804">
        <ele>1598.4</ele>
        <time>2021-02-20T07:19:04Z</time>
      </trkpt>
      <trkpt lat="45.17802" lon="5.91804">
        <ele>1598.4</ele>
        <time>2021-02-20T07:19:05Z</time>
      </trkpt>
      <trkpt lat="45.17802" lon="5.91804">
        <ele>1598.5</ele>
        <time>2021-02-20T07:19:06Z</time>
      </trkpt>
      <trkpt lat="45.17802" lon="5.91805">
        <ele>1598.5</ele>
        <time>2021-02-20T07:19:07Z</time>
      </trkpt>
      <trkpt lat="45.17802" lon="5.91805">
        <ele>1598.6</ele>
        <time>2021-02-20T07:19:08Z</time>
      </trkpt>
      <trkpt lat="45.17801" lon="5.91806">
        <ele>1600</ele>
        <time>2021-02-20T07:19:09Z</time>
      </trkpt>
      <trkpt lat="45.178" lon="5.91806">
        <ele>1600</ele>
        <time>2021-02-20T07:19:10Z</time>
      </trkpt>
      <trkpt lat="45.178" lon="5.91806">
        <ele>1600.1</ele>
        <time>2021-02-20T07:19:11Z</time>
      </trkpt>
      <trkpt lat="45.178" lon="5.91807">
        <ele>1601.5</ele>
        <time>2021-02-20T07:19:12Z</time>
      </trkpt>
      <trkpt lat="45.178" lon="5.91808">
        <ele>1601.5</ele>
        <time>2021-02-20T07:19:13Z</time>
      </trkpt>
      <trkpt lat="45.178" lon="5.91809">
        <ele>1601.6</ele>
        <time>2021-02-20T07:19:14Z</time>
      </trkpt>
      <trkpt lat="45.178" lon="5.9181">
        <ele>1601.6</ele>
        <time>2021-02-20T07:19:15Z</time>
      </trkpt>
      <trkpt lat="45.178" lon="5.91811">
        <ele>1601.7</ele>
        <time>2021-02-20T07:19:24Z</time>
      </trkpt>
      <trkpt lat="45.178" lon="5.91812">
        <ele>1602.9</ele>
        <time>2021-02-20T07:19:25Z</time>
      </trkpt>
      <trkpt lat="45.178" lon="5.91812">
        <ele>1603</ele>
        <time>2021-02-20T07:19:26Z</time>
      </trkpt>
      <trkpt lat="45.17799" lon="5.91813">
        <ele>1603</ele>
        <time>2021-02-20T07:19:27Z</time>
      </trkpt>
      <trkpt lat="45.17799" lon="5.91814">
        <ele>1603.1</ele>
        <time>2021-02-20T07:19:28Z</time>
      </trkpt>
      <trkpt lat="45.17799" lon="5.91815">
        <ele>1603.1</ele>
        <time>2021-02-20T07:19:29Z</time>
      </trkpt>
      <trkpt lat="45.17799" lon="5.91816">
        <ele>1604.3</ele>
        <time>2021-02-20T07:19:30Z</time>
      </trkpt>
      <trkpt lat="45.17799" lon="5.91817">
        <ele>1604.3</ele>
        <time>2021-02-20T07:19:31Z</time>
      </trkpt>
      <trkpt lat="45.17799" lon="5.91818">
        <ele>1604.4</ele>
        <time>2021-02-20T07:19:32Z</time>
      </trkpt>
      <trkpt lat="45.17799" lon="5.91819">
        <ele>1604.4</ele>
        <time>2021-02-20T07:19:33Z</time>
      </trkpt>
      <trkpt lat="45.17799" lon="5.9182">
        <ele>1604.5</ele>
        <time>2021-02-20T07:19:34Z</time>
      </trkpt>
      <trkpt lat="45.17799" lon="5.91821">
        <ele>1605.5</ele>
        <time>2021-02-20T07:20:18Z</time>
      </trkpt>
      <trkpt lat="45.17799" lon="5.91821">
        <ele>1605.5</ele>
        <time>2021-02-20T07:20:19Z</time>
      </trkpt>
      <trkpt lat="45.17799" lon="5.91822">
        <ele>1605.6</ele>
        <time>2021-02-20T07:20:20Z</time>
      </trkpt>
      <trkpt lat="45.17798" lon="5.91823">
        <ele>1605.6</ele>
        <time>2021-02-20T07:20:21Z</time>
      </trkpt>
      <trkpt lat="45.17798" lon="5.91824">
        <ele>1607</ele>
        <time>2021-02-20T07:20:22Z</time>
      </trkpt>
      <trkpt lat="45.17798" lon="5.91825">
        <ele>1607.9</ele>
        <time>2021-02-20T07:20:23Z</time>
      </trkpt>
      <trkpt lat="45.17798" lon="5.91825">
        <ele>1607.9</ele>
        <time>2021-02-20T07:20:24Z</time>
      </trkpt>
      <trkpt lat="45.17797" lon="5.91826">
        <ele>1608</ele>
        <time>2021-02-20T07:20:25Z</time>
      </trkpt>
      <trkpt lat="45.17797" lon="5.91826">
        <ele>1608.1</ele>
        <time>2021-02-20T07:20:26Z</time>
      </trkpt>
      <trkpt lat="45.17796" lon="5.91827">
        <ele>1608.1</ele>
        <time>2021-02-20T07:20:27Z</time>
      </trkpt>
      <trkpt lat="45.17796" lon="5.91827">
        <ele>1608.2</ele>
        <time>2021-02-20T07:20:28Z</time>
      </trkpt>
      <trkpt lat="45.17796" lon="5.91828">
        <ele>1608.2</ele>
        <time>2021-02-20T07:20:29Z</time>
      </trkpt>
      <trkpt lat="45.17796" lon="5.91828">
        <ele>1609</ele>
        <time>2021-02-20T07:20:30Z</time>
      </trkpt>
      <trkpt lat="45.17796" lon="5.91829">
        <ele>1609.1</ele>
        <time>2021-02-20T07:20:31Z</time>
      </trkpt>
      <trkpt lat="45.17795" lon="5.9183">
        <ele>1609.1</ele>
        <time>2021-02-20T07:20:32Z</time>
      </trkpt>
      <trkpt lat="45.17795" lon="5.91831">
        <ele>1610.4</ele>
        <time>2021-02-20T07:20:33Z</time>
      </trkpt>
      <trkpt lat="45.17794" lon="5.91831">
        <ele>1610.5</ele>
        <time>2021-02-20T07:20:34Z</time>
      </trkpt>
      <trkpt lat="45.17793" lon="5.91831">
        <ele>1610.5</ele>
        <time>2021-02-20T07:20:35Z</time>
      </trkpt>
      <trkpt lat="45.17792" lon="5.9183">
        <ele>1610.6</ele>
        <time>2021-02-20T07:20:36Z</time>
      </trkpt>
      <trkpt lat="45.17791" lon="5.9183">
        <ele>1611.8</ele>
        <time>2021-02-20T07:20:37Z</time>
      </trkpt>
      <trkpt lat="45.17791" lon="5.9183">
        <ele>1611.9</ele>
        <time>2021-02-20T07:20:38Z</time>
      </trkpt>
      <trkpt lat="45.1779" lon="5.9183">
        <ele>1612</ele>
        <time>2021-02-20T07:20:39Z</time>
      </trkpt>
      <trkpt lat="45.1779" lon="5.9183">
        <ele>1612</ele>
        <time>2021-02-20T07:20:40Z</time>
      </trkpt>
      <trkpt lat="45.1779" lon="5.9183">
        <ele>1612.1</ele>
        <time>2021-02-20T07:20:41Z</time>
      </trkpt>
      <trkpt lat="45.1779" lon="5.9183">
        <ele>1612.1</ele>
        <time>2021-02-20T07:20:42Z</time>
      </trkpt>
      <trkpt lat="45.1779" lon="5.91829">
        <ele>1612.2</ele>
        <time>2021-02-20T07:20:43Z</time>
      </trkpt>
      <trkpt lat="45.1779" lon="5.91829">
        <ele>1612.2</ele>
        <time>2021-02-20T07:20:44Z</time>
      </trkpt>
      <trkpt lat="45.1779" lon="5.91828">
        <ele>1611.5</ele>
        <time>2021-02-20T07:20:45Z</time>
      </trkpt>
      <trkpt lat="45.17789" lon="5.91828">
        <ele>1612.7</ele>
        <time>2021-02-20T07:20:46Z</time>
      </trkpt>
      <trkpt lat="45.17788" lon="5.91828">
        <ele>1612.8</ele>
        <time>2021-02-20T07:20:47Z</time>
      </trkpt>
      <trkpt lat="45.17788" lon="5.91829">
        <ele>1613.6</ele>
        <time>2021-02-20T07:20:48Z</time>
      </trkpt>
      <trkpt lat="45.17788" lon="5.9183">
        <ele>1613.7</ele>
        <time>2021-02-20T07:20:49Z</time>
      </trkpt>
      <trkpt lat="45.17788" lon="5.9183">
        <ele>1613.8</ele>
        <time>2021-02-20T07:20:50Z</time>
      </trkpt>
      <trkpt lat="45.17788" lon="5.91831">
        <ele>1613.8</ele>
        <time>2021-02-20T07:20:51Z</time>
      </trkpt>
      <trkpt lat="45.17788" lon="5.91832">
        <ele>1613.9</ele>
        <time>2021-02-20T07:20:52Z</time>
      </trkpt>
      <trkpt lat="45.17788" lon="5.91833">
        <ele>1614.7</ele>
        <time>2021-02-20T07:20:53Z</time>
      </trkpt>
      <trkpt lat="45.17788" lon="5.91834">
        <ele>1614.7</ele>
        <time>2021-02-20T07:20:54Z</time>
      </trkpt>
      <trkpt lat="45.17788" lon="5.91834">
        <ele>1614.8</ele>
        <time>2021-02-20T07:20:55Z</time>
      </trkpt>
      <trkpt lat="45.17788" lon="5.91834">
        <ele>1614.8</ele>
        <time>2021-02-20T07:20:56Z</time>
      </trkpt>
      <trkpt lat="45.17787" lon="5.91834">
        <ele>1614.9</ele>
        <time>2021-02-20T07:20:57Z</time>
      </trkpt>
      <trkpt lat="45.17787" lon="5.91833">
        <ele>1614.9</ele>
        <time>2021-02-20T07:20:58Z</time>
      </trkpt>
      <trkpt lat="45.17786" lon="5.91833">
        <ele>1615</ele>
        <time>2021-02-20T07:20:59Z</time>
      </trkpt>
      <trkpt lat="45.17786" lon="5.91833">
        <ele>1615.6</ele>
        <time>2021-02-20T07:21:00Z</time>
      </trkpt>
      <trkpt lat="45.17786" lon="5.91832">
        <ele>1615.7</ele>
        <time>2021-02-20T07:21:01Z</time>
      </trkpt>
      <trkpt lat="45.17785" lon="5.91832">
        <ele>1615.7</ele>
        <time>2021-02-20T07:21:02Z</time>
      </trkpt>
      <trkpt lat="45.17784" lon="5.91831">
        <ele>1615.8</ele>
        <time>2021-02-20T07:21:03Z</time>
      </trkpt>
      <trkpt lat="45.17783" lon="5.91831">
        <ele>1617.3</ele>
        <time>2021-02-20T07:21:04Z</time>
      </trkpt>
      <trkpt lat="45.17783" lon="5.9183">
        <ele>1617.3</ele>
        <time>2021-02-20T07:21:05Z</time>
      </trkpt>
      <trkpt lat="45.17782" lon="5.9183">
        <ele>1617.4</ele>
        <time>2021-02-20T07:21:06Z</time>
      </trkpt>
      <trkpt lat="45.17781" lon="5.9183">
        <ele>1617.4</ele>
        <time>2021-02-20T07:21:07Z</time>
      </trkpt>
      <trkpt lat="45.1778" lon="5.9183">
        <ele>1617.5</ele>
        <time>2021-02-20T07:21:08Z</time>
      </trkpt>
      <trkpt lat="45.1778" lon="5.91829">
        <ele>1619</ele>
        <time>2021-02-20T07:21:09Z</time>
      </trkpt>
      <trkpt lat="45.17779" lon="5.91829">
        <ele>1619</ele>
        <time>2021-02-20T07:21:10Z</time>
      </trkpt>
      <trkpt lat="45.17778" lon="5.91829">
        <ele>1619.1</ele>
        <time>2021-02-20T07:21:11Z</time>
      </trkpt>
      <trkpt lat="45.17777" lon="5.91828">
        <ele>1618.2</ele>
        <time>2021-02-20T07:21:34Z</time>
      </trkpt>
      <trkpt lat="45.17777" lon="5.91828">
        <ele>1619.7</ele>
        <time>2021-02-20T07:21:35Z</time>
      </trkpt>
      <trkpt lat="45.17776" lon="5.91828">
        <ele>1619.8</ele>
        <time>2021-02-20T07:21:36Z</time>
      </trkpt>
      <trkpt lat="45.17775" lon="5.91827">
        <ele>1619.8</ele>
        <time>2021-02-20T07:21:37Z</time>
      </trkpt>
      <trkpt lat="45.17775" lon="5.91827">
        <ele>1619.9</ele>
        <time>2021-02-20T07:21:38Z</time>
      </trkpt>
      <trkpt lat="45.17775" lon="5.91827">
        <ele>1619.9</ele>
        <time>2021-02-20T07:21:39Z</time>
      </trkpt>
      <trkpt lat="45.17774" lon="5.91827">
        <ele>1620</ele>
        <time>2021-02-20T07:21:40Z</time>
      </trkpt>
      <trkpt lat="45.17774" lon="5.91827">
        <ele>1621.3</ele>
        <time>2021-02-20T07:21:41Z</time>
      </trkpt>
      <trkpt lat="45.17773" lon="5.91828">
        <ele>1621.4</ele>
        <time>2021-02-20T07:21:42Z</time>
      </trkpt>
      <trkpt lat="45.17773" lon="5.91829">
        <ele>1622.4</ele>
        <time>2021-02-20T07:21:43Z</time>
      </trkpt>
      <trkpt lat="45.17772" lon="5.9183">
        <ele>1622.5</ele>
        <time>2021-02-20T07:21:44Z</time>
      </trkpt>
      <trkpt lat="45.17771" lon="5.91831">
        <ele>1623.8</ele>
        <time>2021-02-20T07:21:45Z</time>
      </trkpt>
      <trkpt lat="45.1777" lon="5.91832">
        <ele>1623.8</ele>
        <time>2021-02-20T07:21:46Z</time>
      </trkpt>
      <trkpt lat="45.1777" lon="5.91832">
        <ele>1623.9</ele>
        <time>2021-02-20T07:21:47Z</time>
      </trkpt>
      <trkpt lat="45.17769" lon="5.91833">
        <ele>1623.9</ele>
        <time>2021-02-20T07:21:48Z</time>
      </trkpt>
      <trkpt lat="45.17769" lon="5.91833">
        <ele>1625</ele>
        <time>2021-02-20T07:21:49Z</time>
      </trkpt>
      <trkpt lat="45.17768" lon="5.91833">
        <ele>1625</ele>
        <time>2021-02-20T07:21:50Z</time>
      </trkpt>
      <trkpt lat="45.17768" lon="5.91833">
        <ele>1626.3</ele>
        <time>2021-02-20T07:21:51Z</time>
      </trkpt>
      <trkpt lat="45.17767" lon="5.91833">
        <ele>1626.3</ele>
        <time>2021-02-20T07:21:52Z</time>
      </trkpt>
      <trkpt lat="45.17767" lon="5.91833">
        <ele>1626.4</ele>
        <time>2021-02-20T07:21:53Z</time>
      </trkpt>
      <trkpt lat="45.17766" lon="5.91833">
        <ele>1626.4</ele>
        <time>2021-02-20T07:21:54Z</time>
      </trkpt>
      <trkpt lat="45.17765" lon="5.91833">
        <ele>1627.7</ele>
        <time>2021-02-20T07:21:55Z</time>
      </trkpt>
      <trkpt lat="45.17765" lon="5.91832">
        <ele>1626.6</ele>
        <time>2021-02-20T07:21:56Z</time>
      </trkpt>
      <trkpt lat="45.17764" lon="5.91831">
        <ele>1626.7</ele>
        <time>2021-02-20T07:21:57Z</time>
      </trkpt>
      <trkpt lat="45.17763" lon="5.91831">
        <ele>1626.7</ele>
        <time>2021-02-20T07:21:58Z</time>
      </trkpt>
      <trkpt lat="45.17763" lon="5.91831">
        <ele>1626.8</ele>
        <time>2021-02-20T07:21:59Z</time>
      </trkpt>
      <trkpt lat="45.17762" lon="5.91831">
        <ele>1628</ele>
        <time>2021-02-20T07:22:00Z</time>
      </trkpt>
      <trkpt lat="45.17761" lon="5.9183">
        <ele>1628</ele>
        <time>2021-02-20T07:22:01Z</time>
      </trkpt>
      <trkpt lat="45.17761" lon="5.9183">
        <ele>1628.1</ele>
        <time>2021-02-20T07:22:02Z</time>
      </trkpt>
      <trkpt lat="45.1776" lon="5.9183">
        <ele>1628.1</ele>
        <time>2021-02-20T07:22:03Z</time>
      </trkpt>
      <trkpt lat="45.17759" lon="5.9183">
        <ele>1628.2</ele>
        <time>2021-02-20T07:22:04Z</time>
      </trkpt>
      <trkpt lat="45.17758" lon="5.9183">
        <ele>1629.4</ele>
        <time>2021-02-20T07:22:05Z</time>
      </trkpt>
      <trkpt lat="45.17758" lon="5.9183">
        <ele>1629.4</ele>
        <time>2021-02-20T07:22:06Z</time>
      </trkpt>
      <trkpt lat="45.17757" lon="5.9183">
        <ele>1629.5</ele>
        <time>2021-02-20T07:22:07Z</time>
      </trkpt>
      <trkpt lat="45.17757" lon="5.9183">
        <ele>1629.5</ele>
        <time>2021-02-20T07:22:08Z</time>
      </trkpt>
      <trkpt lat="45.17756" lon="5.91831">
        <ele>1630.7</ele>
        <time>2021-02-20T07:22:09Z</time>
      </trkpt>
      <trkpt lat="45.17755" lon="5.91831">
        <ele>1630.7</ele>
        <time>2021-02-20T07:22:10Z</time>
      </trkpt>
      <trkpt lat="45.17755" lon="5.91832">
        <ele>1630.8</ele>
        <time>2021-02-20T07:22:11Z</time>
      </trkpt>
      <trkpt lat="45.17755" lon="5.91834">
        <ele>1632.1</ele>
        <time>2021-02-20T07:22:12Z</time>
      </trkpt>
      <trkpt lat="45.17755" lon="5.91835">
        <ele>1632.1</ele>
        <time>2021-02-20T07:22:13Z</time>
      </trkpt>
      <trkpt lat="45.17755" lon="5.91836">
        <ele>1632.2</ele>
        <time>2021-02-20T07:22:14Z</time>
      </trkpt>
      <trkpt lat="45.17756" lon="5.91838">
        <ele>1633.4</ele>
        <time>2021-02-20T07:22:15Z</time>
      </trkpt>
      <trkpt lat="45.17756" lon="5.91839">
        <ele>1632.2</ele>
        <time>2021-02-20T07:22:16Z</time>
      </trkpt>
      <trkpt lat="45.17757" lon="5.9184">
        <ele>1632.2</ele>
        <time>2021-02-20T07:22:17Z</time>
      </trkpt>
      <trkpt lat="45.17757" lon="5.9184">
        <ele>1632.3</ele>
        <time>2021-02-20T07:22:18Z</time>
      </trkpt>
      <trkpt lat="45.17757" lon="5.9184">
        <ele>1632.4</ele>
        <time>2021-02-20T07:22:19Z</time>
      </trkpt>
      <trkpt lat="45.17758" lon="5.91841">
        <ele>1632.4</ele>
        <time>2021-02-20T07:22:20Z</time>
      </trkpt>
      <trkpt lat="45.17759" lon="5.91841">
        <ele>1632.5</ele>
        <time>2021-02-20T07:22:21Z</time>
      </trkpt>
      <trkpt lat="45.17759" lon="5.91841">
        <ele>1632.2</ele>
        <time>2021-02-20T07:22:22Z</time>
      </trkpt>
      <trkpt lat="45.17759" lon="5.91842">
        <ele>1632.3</ele>
        <time>2021-02-20T07:22:23Z</time>
      </trkpt>
      <trkpt lat="45.1776" lon="5.91843">
        <ele>1632.3</ele>
        <time>2021-02-20T07:22:24Z</time>
      </trkpt>
      <trkpt lat="45.1776" lon="5.91843">
        <ele>1632.4</ele>
        <time>2021-02-20T07:22:25Z</time>
      </trkpt>
      <trkpt lat="45.1776" lon="5.91844">
        <ele>1632.4</ele>
        <time>2021-02-20T07:22:26Z</time>
      </trkpt>
      <trkpt lat="45.1776" lon="5.91844">
        <ele>1632.5</ele>
        <time>2021-02-20T07:22:27Z</time>
      </trkpt>
      <trkpt lat="45.1776" lon="5.91844">
        <ele>1632.5</ele>
        <time>2021-02-20T07:22:28Z</time>
      </trkpt>
      <trkpt lat="45.17761" lon="5.91844">
        <ele>1632.6</ele>
        <time>2021-02-20T07:22:29Z</time>
      </trkpt>
      <trkpt lat="45.17761" lon="5.91844">
        <ele>1632.6</ele>
        <time>2021-02-20T07:22:30Z</time>
      </trkpt>
      <trkpt lat="45.17762" lon="5.91844">
        <ele>1632.7</ele>
        <time>2021-02-20T07:22:31Z</time>
      </trkpt>
      <trkpt lat="45.17763" lon="5.91844">
        <ele>1631.5</ele>
        <time>2021-02-20T07:22:32Z</time>
      </trkpt>
      <trkpt lat="45.17763" lon="5.91844">
        <ele>1631.5</ele>
        <time>2021-02-20T07:22:33Z</time>
      </trkpt>
      <trkpt lat="45.17764" lon="5.91844">
        <ele>1631.6</ele>
        <time>2021-02-20T07:22:34Z</time>
      </trkpt>
      <trkpt lat="45.17764" lon="5.91844">
        <ele>1631.6</ele>
        <time>2021-02-20T07:22:35Z</time>
      </trkpt>
      <trkpt lat="45.17764" lon="5.91845">
        <ele>1631.7</ele>
        <time>2021-02-20T07:22:36Z</time>
      </trkpt>
      <trkpt lat="45.17764" lon="5.91846">
        <ele>1632.6</ele>
        <time>2021-02-20T07:22:37Z</time>
      </trkpt>
      <trkpt lat="45.17765" lon="5.91847">
        <ele>1632.6</ele>
        <time>2021-02-20T07:22:38Z</time>
      </trkpt>
      <trkpt lat="45.17764" lon="5.91849">
        <ele>1632.7</ele>
        <time>2021-02-20T07:22:39Z</time>
      </trkpt>
      <trkpt lat="45.17764" lon="5.91849">
        <ele>1632.7</ele>
        <time>2021-02-20T07:22:40Z</time>
      </trkpt>
      <trkpt lat="45.17763" lon="5.91849">
        <ele>1632.8</ele>
        <time>2021-02-20T07:22:41Z</time>
      </trkpt>
      <trkpt lat="45.17763" lon="5.91848">
        <ele>1632.8</ele>
        <time>2021-02-20T07:22:55Z</time>
      </trkpt>
      <trkpt lat="45.17762" lon="5.91848">
        <ele>1632.9</ele>
        <time>2021-02-20T07:22:56Z</time>
      </trkpt>
      <trkpt lat="45.17762" lon="5.91847">
        <ele>1634.2</ele>
        <time>2021-02-20T07:22:57Z</time>
      </trkpt>
      <trkpt lat="45.17761" lon="5.91847">
        <ele>1634.3</ele>
        <time>2021-02-20T07:22:58Z</time>
      </trkpt>
      <trkpt lat="45.17761" lon="5.91847">
        <ele>1634.3</ele>
        <time>2021-02-20T07:22:59Z</time>
      </trkpt>
      <trkpt lat="45.1776" lon="5.91847">
        <ele>1634.4</ele>
        <time>2021-02-20T07:23:00Z</time>
      </trkpt>
      <trkpt lat="45.1776" lon="5.91847">
        <ele>1634.4</ele>
        <time>2021-02-20T07:23:01Z</time>
      </trkpt>
      <trkpt lat="45.1776" lon="5.91847">
        <ele>1634.5</ele>
        <time>2021-02-20T07:23:02Z</time>
      </trkpt>
      <trkpt lat="45.17759" lon="5.91848">
        <ele>1634.5</ele>
        <time>2021-02-20T07:23:03Z</time>
      </trkpt>
      <trkpt lat="45.17759" lon="5.91847">
        <ele>1635.9</ele>
        <time>2021-02-20T07:23:04Z</time>
      </trkpt>
      <trkpt lat="45.17758" lon="5.91847">
        <ele>1636</ele>
        <time>2021-02-20T07:23:05Z</time>
      </trkpt>
      <trkpt lat="45.17757" lon="5.91847">
        <ele>1636</ele>
        <time>2021-02-20T07:23:06Z</time>
      </trkpt>
      <trkpt lat="45.17757" lon="5.91847">
        <ele>1636.1</ele>
        <time>2021-02-20T07:23:07Z</time>
      </trkpt>
      <trkpt lat="45.17756" lon="5.91847">
        <ele>1637.4</ele>
        <time>2021-02-20T07:23:08Z</time>
      </trkpt>
      <trkpt lat="45.17755" lon="5.91848">
        <ele>1637.5</ele>
        <time>2021-02-20T07:23:09Z</time>
      </trkpt>
      <trkpt lat="45.17755" lon="5.91848">
        <ele>1637.5</ele>
        <time>2021-02-20T07:23:10Z</time>
      </trkpt>
      <trkpt lat="45.17754" lon="5.91848">
        <ele>1637.6</ele>
        <time>2021-02-20T07:23:11Z</time>
      </trkpt>
      <trkpt lat="45.17754" lon="5.91849">
        <ele>1637.6</ele>
        <time>2021-02-20T07:23:12Z</time>
      </trkpt>
      <trkpt lat="45.17754" lon="5.91849">
        <ele>1637.7</ele>
        <time>2021-02-20T07:23:13Z</time>
      </trkpt>
      <trkpt lat="45.17753" lon="5.9185">
        <ele>1637.7</ele>
        <time>2021-02-20T07:23:14Z</time>
      </trkpt>
      <trkpt lat="45.17753" lon="5.91851">
        <ele>1638.6</ele>
        <time>2021-02-20T07:23:15Z</time>
      </trkpt>
      <trkpt lat="45.17754" lon="5.91851">
        <ele>1638.6</ele>
        <time>2021-02-20T07:23:16Z</time>
      </trkpt>
      <trkpt lat="45.17754" lon="5.91851">
        <ele>1638.7</ele>
        <time>2021-02-20T07:23:17Z</time>
      </trkpt>
      <trkpt lat="45.17755" lon="5.91852">
        <ele>1638.7</ele>
        <time>2021-02-20T07:23:18Z</time>
      </trkpt>
      <trkpt lat="45.17756" lon="5.91853">
        <ele>1638.8</ele>
        <time>2021-02-20T07:23:19Z</time>
      </trkpt>
      <trkpt lat="45.17756" lon="5.91854">
        <ele>1638.8</ele>
        <time>2021-02-20T07:23:20Z</time>
      </trkpt>
      <trkpt lat="45.17756" lon="5.91854">
        <ele>1638.9</ele>
        <time>2021-02-20T07:23:21Z</time>
      </trkpt>
      <trkpt lat="45.17756" lon="5.91855">
        <ele>1638.3</ele>
        <time>2021-02-20T07:23:22Z</time>
      </trkpt>
      <trkpt lat="45.17756" lon="5.91856">
        <ele>1638.3</ele>
        <time>2021-02-20T07:23:23Z</time>
      </trkpt>
      <trkpt lat="45.17756" lon="5.91858">
        <ele>1638.4</ele>
        <time>2021-02-20T07:23:24Z</time>
      </trkpt>
      <trkpt lat="45.17756" lon="5.9186">
        <ele>1638.9</ele>
        <time>2021-02-20T07:23:25Z</time>
      </trkpt>
      <trkpt lat="45.17756" lon="5.91861">
        <ele>1640.4</ele>
        <time>2021-02-20T07:23:26Z</time>
      </trkpt>
      <trkpt lat="45.17756" lon="5.91862">
        <ele>1639.1</ele>
        <time>2021-02-20T07:23:27Z</time>
      </trkpt>
      <trkpt lat="45.17756" lon="5.91863">
        <ele>1639.6</ele>
        <time>2021-02-20T07:23:28Z</time>
      </trkpt>
      <trkpt lat="45.17756" lon="5.91864">
        <ele>1639.6</ele>
        <time>2021-02-20T07:23:29Z</time>
      </trkpt>
      <trkpt lat="45.17756" lon="5.91866">
        <ele>1639.7</ele>
        <time>2021-02-20T07:23:30Z</time>
      </trkpt>
      <trkpt lat="45.17756" lon="5.91868">
        <ele>1641.5</ele>
        <time>2021-02-20T07:23:31Z</time>
      </trkpt>
      <trkpt lat="45.17756" lon="5.91868">
        <ele>1641.5</ele>
        <time>2021-02-20T07:23:32Z</time>
      </trkpt>
      <trkpt lat="45.17755" lon="5.91869">
        <ele>1641.6</ele>
        <time>2021-02-20T07:23:33Z</time>
      </trkpt>
      <trkpt lat="45.17755" lon="5.91869">
        <ele>1641.7</ele>
        <time>2021-02-20T07:23:34Z</time>
      </trkpt>
      <trkpt lat="45.17755" lon="5.91869">
        <ele>1641.7</ele>
        <time>2021-02-20T07:23:35Z</time>
      </trkpt>
      <trkpt lat="45.17755" lon="5.91869">
        <ele>1641.8</ele>
        <time>2021-02-20T07:23:36Z</time>
      </trkpt>
      <trkpt lat="45.17755" lon="5.91869">
        <ele>1641.8</ele>
        <time>2021-02-20T07:23:37Z</time>
      </trkpt>
      <trkpt lat="45.17755" lon="5.91869">
        <ele>1641.9</ele>
        <time>2021-02-20T07:23:38Z</time>
      </trkpt>
      <trkpt lat="45.17755" lon="5.91869">
        <ele>1641.9</ele>
        <time>2021-02-20T07:23:39Z</time>
      </trkpt>
      <trkpt lat="45.17754" lon="5.9187">
        <ele>1642</ele>
        <time>2021-02-20T07:23:40Z</time>
      </trkpt>
      <trkpt lat="45.17753" lon="5.91871">
        <ele>1643.4</ele>
        <time>2021-02-20T07:23:41Z</time>
      </trkpt>
      <trkpt lat="45.17752" lon="5.91872">
        <ele>1643.8</ele>
        <time>2021-02-20T07:23:42Z</time>
      </trkpt>
      <trkpt lat="45.17751" lon="5.91873">
        <ele>1643.8</ele>
        <time>2021-02-20T07:24:12Z</time>
      </trkpt>
      <trkpt lat="45.1775" lon="5.91875">
        <ele>1645.3</ele>
        <time>2021-02-20T07:24:13Z</time>
      </trkpt>
      <trkpt lat="45.17749" lon="5.91876">
        <ele>1645.6</ele>
        <time>2021-02-20T07:24:14Z</time>
      </trkpt>
      <trkpt lat="45.17748" lon="5.91877">
        <ele>1645.7</ele>
        <time>2021-02-20T07:24:15Z</time>
      </trkpt>
      <trkpt lat="45.17748" lon="5.91878">
        <ele>1645.7</ele>
        <time>2021-02-20T07:24:16Z</time>
      </trkpt>
      <trkpt lat="45.17748" lon="5.91879">
        <ele>1645.8</ele>
        <time>2021-02-20T07:24:17Z</time>
      </trkpt>
      <trkpt lat="45.17747" lon="5.9188">
        <ele>1645.8</ele>
        <time>2021-02-20T07:24:18Z</time>
      </trkpt>
      <trkpt lat="45.17747" lon="5.9188">
        <ele>1646.1</ele>
        <time>2021-02-20T07:24:19Z</time>
      </trkpt>
      <trkpt lat="45.17747" lon="5.91881">
        <ele>1646.1</ele>
        <time>2021-02-20T07:24:20Z</time>
      </trkpt>
      <trkpt lat="45.17747" lon="5.91882">
        <ele>1646.2</ele>
        <time>2021-02-20T07:24:21Z</time>
      </trkpt>
      <trkpt lat="45.17747" lon="5.91883">
        <ele>1646.2</ele>
        <time>2021-02-20T07:24:22Z</time>
      </trkpt>
      <trkpt lat="45.17747" lon="5.91884">
        <ele>1646.3</ele>
        <time>2021-02-20T07:24:23Z</time>
      </trkpt>
      <trkpt lat="45.17747" lon="5.91884">
        <ele>1647.7</ele>
        <time>2021-02-20T07:24:24Z</time>
      </trkpt>
      <trkpt lat="45.17746" lon="5.91885">
        <ele>1648</ele>
        <time>2021-02-20T07:24:25Z</time>
      </trkpt>
      <trkpt lat="45.17745" lon="5.91885">
        <ele>1648</ele>
        <time>2021-02-20T07:24:26Z</time>
      </trkpt>
      <trkpt lat="45.17744" lon="5.91885">
        <ele>1648.1</ele>
        <time>2021-02-20T07:24:27Z</time>
      </trkpt>
      <trkpt lat="45.17744" lon="5.91885">
        <ele>1649.5</ele>
        <time>2021-02-20T07:24:28Z</time>
      </trkpt>
      <trkpt lat="45.17743" lon="5.91885">
        <ele>1649.6</ele>
        <time>2021-02-20T07:24:29Z</time>
      </trkpt>
      <trkpt lat="45.17743" lon="5.91885">
        <ele>1649.6</ele>
        <time>2021-02-20T07:24:30Z</time>
      </trkpt>
      <trkpt lat="45.17742" lon="5.91886">
        <ele>1649.7</ele>
        <time>2021-02-20T07:24:31Z</time>
      </trkpt>
      <trkpt lat="45.17741" lon="5.91886">
        <ele>1649.7</ele>
        <time>2021-02-20T07:24:32Z</time>
      </trkpt>
      <trkpt lat="45.1774" lon="5.91886">
        <ele>1651.1</ele>
        <time>2021-02-20T07:24:33Z</time>
      </trkpt>
      <trkpt lat="45.1774" lon="5.91886">
        <ele>1651.2</ele>
        <time>2021-02-20T07:24:34Z</time>
      </trkpt>
      <trkpt lat="45.17739" lon="5.91886">
        <ele>1651.2</ele>
        <time>2021-02-20T07:24:35Z</time>
      </trkpt>
      <trkpt lat="45.17739" lon="5.91887">
        <ele>1651.3</ele>
        <time>2021-02-20T07:24:36Z</time>
      </trkpt>
      <trkpt lat="45.17738" lon="5.91888">
        <ele>1651.3</ele>
        <time>2021-02-20T07:24:37Z</time>
      </trkpt>
      <trkpt lat="45.17738" lon="5.91888">
        <ele>1652.6</ele>
        <time>2021-02-20T07:24:38Z</time>
      </trkpt>
      <trkpt lat="45.17737" lon="5.91889">
        <ele>1652.9</ele>
        <time>2021-02-20T07:24:39Z</time>
      </trkpt>
      <trkpt lat="45.17736" lon="5.9189">
        <ele>1653</ele>
        <time>2021-02-20T07:24:40Z</time>
      </trkpt>
      <trkpt lat="45.17735" lon="5.9189">
        <ele>1653</ele>
        <time>2021-02-20T07:24:41Z</time>
      </trkpt>
      <trkpt lat="45.17735" lon="5.91891">
        <ele>1654.3</ele>
        <time>2021-02-20T07:24:42Z</time>
      </trkpt>
      <trkpt lat="45.17734" lon="5.91892">
        <ele>1654.4</ele>
        <time>2021-02-20T07:24:43Z</time>
      </trkpt>
      <trkpt lat="45.17734" lon="5.91892">
        <ele>1654.4</ele>
        <time>2021-02-20T07:24:44Z</time>
      </trkpt>
      <trkpt lat="45.17733" lon="5.91893">
        <ele>1654.6</ele>
        <time>2021-02-20T07:24:45Z</time>
      </trkpt>
      <trkpt lat="45.17732" lon="5.91893">
        <ele>1655.9</ele>
        <time>2021-02-20T07:24:46Z</time>
      </trkpt>
      <trkpt lat="45.17731" lon="5.91893">
        <ele>1656</ele>
        <time>2021-02-20T07:24:47Z</time>
      </trkpt>
      <trkpt lat="45.1773" lon="5.91893">
        <ele>1656</ele>
        <time>2021-02-20T07:24:48Z</time>
      </trkpt>
      <trkpt lat="45.17729" lon="5.91894">
        <ele>1656.1</ele>
        <time>2021-02-20T07:24:49Z</time>
      </trkpt>
      <trkpt lat="45.17728" lon="5.91893">
        <ele>1657.4</ele>
        <time>2021-02-20T07:24:50Z</time>
      </trkpt>
      <trkpt lat="45.17727" lon="5.91894">
        <ele>1657.4</ele>
        <time>2021-02-20T07:24:51Z</time>
      </trkpt>
      <trkpt lat="45.17726" lon="5.91894">
        <ele>1657.5</ele>
        <time>2021-02-20T07:24:52Z</time>
      </trkpt>
      <trkpt lat="45.17725" lon="5.91894">
        <ele>1658.8</ele>
        <time>2021-02-20T07:24:53Z</time>
      </trkpt>
      <trkpt lat="45.17725" lon="5.91894">
        <ele>1658.8</ele>
        <time>2021-02-20T07:24:54Z</time>
      </trkpt>
      <trkpt lat="45.17724" lon="5.91895">
        <ele>1658.9</ele>
        <time>2021-02-20T07:24:55Z</time>
      </trkpt>
      <trkpt lat="45.17723" lon="5.91896">
        <ele>1658.9</ele>
        <time>2021-02-20T07:24:56Z</time>
      </trkpt>
      <trkpt lat="45.17722" lon="5.91897">
        <ele>1660.3</ele>
        <time>2021-02-20T07:24:57Z</time>
      </trkpt>
      <trkpt lat="45.17722" lon="5.91898">
        <ele>1660.5</ele>
        <time>2021-02-20T07:24:58Z</time>
      </trkpt>
      <trkpt lat="45.17722" lon="5.91898">
        <ele>1660.5</ele>
        <time>2021-02-20T07:24:59Z</time>
      </trkpt>
      <trkpt lat="45.17722" lon="5.91899">
        <ele>1660.6</ele>
        <time>2021-02-20T07:25:00Z</time>
      </trkpt>
      <trkpt lat="45.17722" lon="5.919">
        <ele>1660.6</ele>
        <time>2021-02-20T07:25:01Z</time>
      </trkpt>
      <trkpt lat="45.17722" lon="5.91901">
        <ele>1660.7</ele>
        <time>2021-02-20T07:25:02Z</time>
      </trkpt>
      <trkpt lat="45.17721" lon="5.91902">
        <ele>1660.8</ele>
        <time>2021-02-20T07:25:03Z</time>
      </trkpt>
      <trkpt lat="45.17721" lon="5.91902">
        <ele>1660.8</ele>
        <time>2021-02-20T07:25:04Z</time>
      </trkpt>
      <trkpt lat="45.17721" lon="5.91902">
        <ele>1660.9</ele>
        <time>2021-02-20T07:25:05Z</time>
      </trkpt>
      <trkpt lat="45.17721" lon="5.91903">
        <ele>1660.9</ele>
        <time>2021-02-20T07:25:06Z</time>
      </trkpt>
      <trkpt lat="45.1772" lon="5.91904">
        <ele>1661</ele>
        <time>2021-02-20T07:25:07Z</time>
      </trkpt>
      <trkpt lat="45.1772" lon="5.91904">
        <ele>1661</ele>
        <time>2021-02-20T07:25:08Z</time>
      </trkpt>
      <trkpt lat="45.1772" lon="5.91905">
        <ele>1662.4</ele>
        <time>2021-02-20T07:25:09Z</time>
      </trkpt>
      <trkpt lat="45.17719" lon="5.91906">
        <ele>1662.4</ele>
        <time>2021-02-20T07:25:10Z</time>
      </trkpt>
      <trkpt lat="45.17719" lon="5.91906">
        <ele>1662.5</ele>
        <time>2021-02-20T07:25:11Z</time>
      </trkpt>
      <trkpt lat="45.17718" lon="5.91906">
        <ele>1662.5</ele>
        <time>2021-02-20T07:25:12Z</time>
      </trkpt>
      <trkpt lat="45.17717" lon="5.91906">
        <ele>1662.6</ele>
        <time>2021-02-20T07:25:13Z</time>
      </trkpt>
      <trkpt lat="45.17717" lon="5.91907">
        <ele>1662.7</ele>
        <time>2021-02-20T07:25:14Z</time>
      </trkpt>
      <trkpt lat="45.17717" lon="5.91907">
        <ele>1664</ele>
        <time>2021-02-20T07:25:15Z</time>
      </trkpt>
      <trkpt lat="45.17717" lon="5.91908">
        <ele>1664</ele>
        <time>2021-02-20T07:25:16Z</time>
      </trkpt>
      <trkpt lat="45.17717" lon="5.91909">
        <ele>1662.8</ele>
        <time>2021-02-20T07:25:17Z</time>
      </trkpt>
      <trkpt lat="45.17717" lon="5.9191">
        <ele>1662.9</ele>
        <time>2021-02-20T07:25:18Z</time>
      </trkpt>
      <trkpt lat="45.17717" lon="5.91911">
        <ele>1662.8</ele>
        <time>2021-02-20T07:25:19Z</time>
      </trkpt>
      <trkpt lat="45.17717" lon="5.91911">
        <ele>1662.9</ele>
        <time>2021-02-20T07:25:20Z</time>
      </trkpt>
      <trkpt lat="45.17717" lon="5.91912">
        <ele>1664.2</ele>
        <time>2021-02-20T07:25:21Z</time>
      </trkpt>
      <trkpt lat="45.17716" lon="5.91912">
        <ele>1664.3</ele>
        <time>2021-02-20T07:25:22Z</time>
      </trkpt>
      <trkpt lat="45.17716" lon="5.91913">
        <ele>1664.3</ele>
        <time>2021-02-20T07:25:23Z</time>
      </trkpt>
      <trkpt lat="45.17716" lon="5.91913">
        <ele>1664.4</ele>
        <time>2021-02-20T07:25:24Z</time>
      </trkpt>
      <trkpt lat="45.17716" lon="5.91914">
        <ele>1664.4</ele>
        <time>2021-02-20T07:25:25Z</time>
      </trkpt>
      <trkpt lat="45.17715" lon="5.91915">
        <ele>1664.4</ele>
        <time>2021-02-20T07:25:26Z</time>
      </trkpt>
      <trkpt lat="45.17715" lon="5.91916">
        <ele>1664.4</ele>
        <time>2021-02-20T07:25:27Z</time>
      </trkpt>
      <trkpt lat="45.17715" lon="5.91916">
        <ele>1664.5</ele>
        <time>2021-02-20T07:25:28Z</time>
      </trkpt>
      <trkpt lat="45.17715" lon="5.91917">
        <ele>1664.5</ele>
        <time>2021-02-20T07:25:29Z</time>
      </trkpt>
      <trkpt lat="45.17715" lon="5.91918">
        <ele>1664.6</ele>
        <time>2021-02-20T07:25:30Z</time>
      </trkpt>
      <trkpt lat="45.17715" lon="5.91919">
        <ele>1664.7</ele>
        <time>2021-02-20T07:25:31Z</time>
      </trkpt>
      <trkpt lat="45.17715" lon="5.9192">
        <ele>1664.8</ele>
        <time>2021-02-20T07:25:32Z</time>
      </trkpt>
      <trkpt lat="45.17715" lon="5.91921">
        <ele>1664.8</ele>
        <time>2021-02-20T07:25:33Z</time>
      </trkpt>
      <trkpt lat="45.17714" lon="5.91921">
        <ele>1664.9</ele>
        <time>2021-02-20T07:25:34Z</time>
      </trkpt>
      <trkpt lat="45.17714" lon="5.91921">
        <ele>1664.9</ele>
        <time>2021-02-20T07:25:35Z</time>
      </trkpt>
      <trkpt lat="45.17714" lon="5.91921">
        <ele>1665</ele>
        <time>2021-02-20T07:25:36Z</time>
      </trkpt>
      <trkpt lat="45.17714" lon="5.91921">
        <ele>1665</ele>
        <time>2021-02-20T07:25:37Z</time>
      </trkpt>
      <trkpt lat="45.17714" lon="5.91921">
        <ele>1665</ele>
        <time>2021-02-20T07:25:38Z</time>
      </trkpt>
      <trkpt lat="45.17713" lon="5.9192">
        <ele>1665.1</ele>
        <time>2021-02-20T07:25:39Z</time>
      </trkpt>
      <trkpt lat="45.17712" lon="5.91919">
        <ele>1665.2</ele>
        <time>2021-02-20T07:25:40Z</time>
      </trkpt>
      <trkpt lat="45.17711" lon="5.91918">
        <ele>1665.3</ele>
        <time>2021-02-20T07:25:41Z</time>
      </trkpt>
      <trkpt lat="45.17711" lon="5.91918">
        <ele>1665.4</ele>
        <time>2021-02-20T07:25:42Z</time>
      </trkpt>
      <trkpt lat="45.1771" lon="5.91918">
        <ele>1665.4</ele>
        <time>2021-02-20T07:25:43Z</time>
      </trkpt>
      <trkpt lat="45.1771" lon="5.91918">
        <ele>1665.5</ele>
        <time>2021-02-20T07:25:44Z</time>
      </trkpt>
      <trkpt lat="45.1771" lon="5.91918">
        <ele>1665.5</ele>
        <time>2021-02-20T07:25:45Z</time>
      </trkpt>
      <trkpt lat="45.17709" lon="5.91919">
        <ele>1665.5</ele>
        <time>2021-02-20T07:25:46Z</time>
      </trkpt>
      <trkpt lat="45.17709" lon="5.91919">
        <ele>1665.5</ele>
        <time>2021-02-20T07:25:47Z</time>
      </trkpt>
      <trkpt lat="45.17709" lon="5.9192">
        <ele>1665.6</ele>
        <time>2021-02-20T07:25:48Z</time>
      </trkpt>
      <trkpt lat="45.17709" lon="5.91921">
        <ele>1665.7</ele>
        <time>2021-02-20T07:25:49Z</time>
      </trkpt>
      <trkpt lat="45.17709" lon="5.91922">
        <ele>1665.8</ele>
        <time>2021-02-20T07:25:50Z</time>
      </trkpt>
      <trkpt lat="45.17709" lon="5.91924">
        <ele>1665.9</ele>
        <time>2021-02-20T07:25:51Z</time>
      </trkpt>
      <trkpt lat="45.1771" lon="5.91925">
        <ele>1666</ele>
        <time>2021-02-20T07:25:52Z</time>
      </trkpt>
      <trkpt lat="45.17711" lon="5.91926">
        <ele>1666.1</ele>
        <time>2021-02-20T07:25:53Z</time>
      </trkpt>
      <trkpt lat="45.17711" lon="5.91928">
        <ele>1666.2</ele>
        <time>2021-02-20T07:25:54Z</time>
      </trkpt>
      <trkpt lat="45.17711" lon="5.91929">
        <ele>1666.3</ele>
        <time>2021-02-20T07:25:55Z</time>
      </trkpt>
      <trkpt lat="45.17711" lon="5.9193">
        <ele>1666.4</ele>
        <time>2021-02-20T07:25:56Z</time>
      </trkpt>
      <trkpt lat="45.17711" lon="5.91931">
        <ele>1666.5</ele>
        <time>2021-02-20T07:25:57Z</time>
      </trkpt>
      <trkpt lat="45.17711" lon="5.91932">
        <ele>1666.6</ele>
        <time>2021-02-20T07:25:58Z</time>
      </trkpt>
      <trkpt lat="45.17711" lon="5.91933">
        <ele>1666.6</ele>
        <time>2021-02-20T07:25:59Z</time>
      </trkpt>
      <trkpt lat="45.17711" lon="5.91934">
        <ele>1666.7</ele>
        <time>2021-02-20T07:26:00Z</time>
      </trkpt>
      <trkpt lat="45.1771" lon="5.91935">
        <ele>1666.8</ele>
        <time>2021-02-20T07:26:01Z</time>
      </trkpt>
      <trkpt lat="45.1771" lon="5.91936">
        <ele>1666.8</ele>
        <time>2021-02-20T07:26:02Z</time>
      </trkpt>
      <trkpt lat="45.1771" lon="5.91936">
        <ele>1666.9</ele>
        <time>2021-02-20T07:26:03Z</time>
      </trkpt>
      <trkpt lat="45.1771" lon="5.91937">
        <ele>1666.9</ele>
        <time>2021-02-20T07:26:04Z</time>
      </trkpt>
      <trkpt lat="45.1771" lon="5.91938">
        <ele>1667</ele>
        <time>2021-02-20T07:26:05Z</time>
      </trkpt>
      <trkpt lat="45.1771" lon="5.91939">
        <ele>1667.1</ele>
        <time>2021-02-20T07:26:06Z</time>
      </trkpt>
      <trkpt lat="45.17709" lon="5.91939">
        <ele>1667.1</ele>
        <time>2021-02-20T07:26:07Z</time>
      </trkpt>
      <trkpt lat="45.17709" lon="5.9194">
        <ele>1667.2</ele>
        <time>2021-02-20T07:26:08Z</time>
      </trkpt>
      <trkpt lat="45.17708" lon="5.91941">
        <ele>1667.3</ele>
        <time>2021-02-20T07:26:09Z</time>
      </trkpt>
      <trkpt lat="45.17708" lon="5.91942">
        <ele>1667.4</ele>
        <time>2021-02-20T07:26:10Z</time>
      </trkpt>
      <trkpt lat="45.17707" lon="5.91943">
        <ele>1667.5</ele>
        <time>2021-02-20T07:26:11Z</time>
      </trkpt>
      <trkpt lat="45.17707" lon="5.91945">
        <ele>1667.6</ele>
        <time>2021-02-20T07:26:12Z</time>
      </trkpt>
      <trkpt lat="45.17706" lon="5.91946">
        <ele>1667.7</ele>
        <time>2021-02-20T07:26:13Z</time>
      </trkpt>
      <trkpt lat="45.17706" lon="5.91948">
        <ele>1667.8</ele>
        <time>2021-02-20T07:26:14Z</time>
      </trkpt>
      <trkpt lat="45.17706" lon="5.91949">
        <ele>1667.9</ele>
        <time>2021-02-20T07:26:15Z</time>
      </trkpt>
      <trkpt lat="45.17707" lon="5.9195">
        <ele>1668</ele>
        <time>2021-02-20T07:26:16Z</time>
      </trkpt>
      <trkpt lat="45.17707" lon="5.91952">
        <ele>1668.1</ele>
        <time>2021-02-20T07:26:17Z</time>
      </trkpt>
      <trkpt lat="45.17707" lon="5.91952">
        <ele>1668.2</ele>
        <time>2021-02-20T07:26:18Z</time>
      </trkpt>
      <trkpt lat="45.17706" lon="5.91953">
        <ele>1668.2</ele>
        <time>2021-02-20T07:26:19Z</time>
      </trkpt>
      <trkpt lat="45.17705" lon="5.91954">
        <ele>1668.3</ele>
        <time>2021-02-20T07:26:20Z</time>
      </trkpt>
      <trkpt lat="45.17704" lon="5.91954">
        <ele>1668.5</ele>
        <time>2021-02-20T07:26:21Z</time>
      </trkpt>
      <trkpt lat="45.17702" lon="5.91955">
        <ele>1668.7</ele>
        <time>2021-02-20T07:26:22Z</time>
      </trkpt>
      <trkpt lat="45.17701" lon="5.91957">
        <ele>1668.8</ele>
        <time>2021-02-20T07:26:23Z</time>
      </trkpt>
      <trkpt lat="45.177" lon="5.91958">
        <ele>1668.9</ele>
        <time>2021-02-20T07:26:24Z</time>
      </trkpt>
      <trkpt lat="45.177" lon="5.91959">
        <ele>1669</ele>
        <time>2021-02-20T07:26:25Z</time>
      </trkpt>
      <trkpt lat="45.177" lon="5.91961">
        <ele>1669.1</ele>
        <time>2021-02-20T07:26:26Z</time>
      </trkpt>
      <trkpt lat="45.177" lon="5.91961">
        <ele>1669.1</ele>
        <time>2021-02-20T07:26:27Z</time>
      </trkpt>
      <trkpt lat="45.177" lon="5.91961">
        <ele>1669.1</ele>
        <time>2021-02-20T07:26:28Z</time>
      </trkpt>
      <trkpt lat="45.177" lon="5.91961">
        <ele>1669.2</ele>
        <time>2021-02-20T07:26:29Z</time>
      </trkpt>
      <trkpt lat="45.17701" lon="5.91962">
        <ele>1669.3</ele>
        <time>2021-02-20T07:26:30Z</time>
      </trkpt>
      <trkpt lat="45.17701" lon="5.91963">
        <ele>1669.4</ele>
        <time>2021-02-20T07:26:31Z</time>
      </trkpt>
      <trkpt lat="45.17701" lon="5.91965">
        <ele>1669.5</ele>
        <time>2021-02-20T07:26:32Z</time>
      </trkpt>
      <trkpt lat="45.17701" lon="5.91966">
        <ele>1669.7</ele>
        <time>2021-02-20T07:26:33Z</time>
      </trkpt>
      <trkpt lat="45.17701" lon="5.91966">
        <ele>1669.7</ele>
        <time>2021-02-20T07:26:34Z</time>
      </trkpt>
      <trkpt lat="45.17701" lon="5.91967">
        <ele>1669.8</ele>
        <time>2021-02-20T07:26:35Z</time>
      </trkpt>
      <trkpt lat="45.17701" lon="5.91968">
        <ele>1669.9</ele>
        <time>2021-02-20T07:26:36Z</time>
      </trkpt>
      <trkpt lat="45.17701" lon="5.91969">
        <ele>1670</ele>
        <time>2021-02-20T07:26:37Z</time>
      </trkpt>
      <trkpt lat="45.17701" lon="5.9197">
        <ele>1670.1</ele>
        <time>2021-02-20T07:26:38Z</time>
      </trkpt>
      <trkpt lat="45.17699" lon="5.91972">
        <ele>1670.3</ele>
        <time>2021-02-20T07:26:39Z</time>
      </trkpt>
      <trkpt lat="45.17698" lon="5.91973">
        <ele>1670.4</ele>
        <time>2021-02-20T07:26:40Z</time>
      </trkpt>
      <trkpt lat="45.17698" lon="5.91974">
        <ele>1670.5</ele>
        <time>2021-02-20T07:26:41Z</time>
      </trkpt>
      <trkpt lat="45.17697" lon="5.91975">
        <ele>1670.6</ele>
        <time>2021-02-20T07:26:42Z</time>
      </trkpt>
      <trkpt lat="45.17696" lon="5.91976">
        <ele>1670.7</ele>
        <time>2021-02-20T07:26:43Z</time>
      </trkpt>
      <trkpt lat="45.17696" lon="5.91976">
        <ele>1670.8</ele>
        <time>2021-02-20T07:26:44Z</time>
      </trkpt>
      <trkpt lat="45.17695" lon="5.91977">
        <ele>1670.9</ele>
        <time>2021-02-20T07:26:45Z</time>
      </trkpt>
      <trkpt lat="45.17695" lon="5.91977">
        <ele>1670.9</ele>
        <time>2021-02-20T07:26:46Z</time>
      </trkpt>
      <trkpt lat="45.17695" lon="5.91977">
        <ele>1670.9</ele>
        <time>2021-02-20T07:26:47Z</time>
      </trkpt>
      <trkpt lat="45.17694" lon="5.91977">
        <ele>1671</ele>
        <time>2021-02-20T07:26:48Z</time>
      </trkpt>
      <trkpt lat="45.17694" lon="5.91978">
        <ele>1671.1</ele>
        <time>2021-02-20T07:26:49Z</time>
      </trkpt>
      <trkpt lat="45.17693" lon="5.91979">
        <ele>1671.2</ele>
        <time>2021-02-20T07:26:50Z</time>
      </trkpt>
      <trkpt lat="45.17692" lon="5.91981">
        <ele>1671.4</ele>
        <time>2021-02-20T07:26:51Z</time>
      </trkpt>
      <trkpt lat="45.17691" lon="5.91983">
        <ele>1671.5</ele>
        <time>2021-02-20T07:26:52Z</time>
      </trkpt>
      <trkpt lat="45.1769" lon="5.91984">
        <ele>1671.6</ele>
        <time>2021-02-20T07:26:53Z</time>
      </trkpt>
      <trkpt lat="45.1769" lon="5.91985">
        <ele>1671.7</ele>
        <time>2021-02-20T07:26:54Z</time>
      </trkpt>
      <trkpt lat="45.17689" lon="5.91985">
        <ele>1671.8</ele>
        <time>2021-02-20T07:26:55Z</time>
      </trkpt>
      <trkpt lat="45.17688" lon="5.91986">
        <ele>1671.9</ele>
        <time>2021-02-20T07:26:56Z</time>
      </trkpt>
      <trkpt lat="45.17687" lon="5.91986">
        <ele>1672</ele>
        <time>2021-02-20T07:26:57Z</time>
      </trkpt>
      <trkpt lat="45.17687" lon="5.91987">
        <ele>1672</ele>
        <time>2021-02-20T07:26:58Z</time>
      </trkpt>
      <trkpt lat="45.17686" lon="5.91987">
        <ele>1672.1</ele>
        <time>2021-02-20T07:26:59Z</time>
      </trkpt>
      <trkpt lat="45.17686" lon="5.91987">
        <ele>1672.1</ele>
        <time>2021-02-20T07:27:00Z</time>
      </trkpt>
      <trkpt lat="45.17685" lon="5.91988">
        <ele>1672.2</ele>
        <time>2021-02-20T07:27:01Z</time>
      </trkpt>
      <trkpt lat="45.17685" lon="5.91988">
        <ele>1672.3</ele>
        <time>2021-02-20T07:27:02Z</time>
      </trkpt>
      <trkpt lat="45.17684" lon="5.91988">
        <ele>1672.3</ele>
        <time>2021-02-20T07:27:03Z</time>
      </trkpt>
      <trkpt lat="45.17683" lon="5.91989">
        <ele>1672.4</ele>
        <time>2021-02-20T07:27:04Z</time>
      </trkpt>
      <trkpt lat="45.17683" lon="5.91989">
        <ele>1672.4</ele>
        <time>2021-02-20T07:27:05Z</time>
      </trkpt>
      <trkpt lat="45.1768" lon="5.9199">
        <ele>1672.7</ele>
        <time>2021-02-20T07:27:06Z</time>
      </trkpt>
      <trkpt lat="45.17679" lon="5.91991">
        <ele>1672.8</ele>
        <time>2021-02-20T07:27:07Z</time>
      </trkpt>
      <trkpt lat="45.17676" lon="5.91992">
        <ele>1673.1</ele>
        <time>2021-02-20T07:27:08Z</time>
      </trkpt>
      <trkpt lat="45.17674" lon="5.91992">
        <ele>1673.2</ele>
        <time>2021-02-20T07:27:09Z</time>
      </trkpt>
      <trkpt lat="45.17671" lon="5.91992">
        <ele>1673.5</ele>
        <time>2021-02-20T07:27:10Z</time>
      </trkpt>
      <trkpt lat="45.17671" lon="5.91993">
        <ele>1673.6</ele>
        <time>2021-02-20T07:27:11Z</time>
      </trkpt>
      <trkpt lat="45.1767" lon="5.91993">
        <ele>1673.6</ele>
        <time>2021-02-20T07:27:12Z</time>
      </trkpt>
      <trkpt lat="45.17669" lon="5.91994">
        <ele>1673.7</ele>
        <time>2021-02-20T07:27:13Z</time>
      </trkpt>
      <trkpt lat="45.17669" lon="5.91995">
        <ele>1673.8</ele>
        <time>2021-02-20T07:27:14Z</time>
      </trkpt>
      <trkpt lat="45.17668" lon="5.91996">
        <ele>1673.9</ele>
        <time>2021-02-20T07:27:15Z</time>
      </trkpt>
      <trkpt lat="45.17667" lon="5.91998">
        <ele>1674.1</ele>
        <time>2021-02-20T07:27:16Z</time>
      </trkpt>
      <trkpt lat="45.17666" lon="5.91998">
        <ele>1674.2</ele>
        <time>2021-02-20T07:27:17Z</time>
      </trkpt>
      <trkpt lat="45.17665" lon="5.91999">
        <ele>1674.2</ele>
        <time>2021-02-20T07:27:18Z</time>
      </trkpt>
      <trkpt lat="45.17664" lon="5.92">
        <ele>1674.4</ele>
        <time>2021-02-20T07:27:19Z</time>
      </trkpt>
      <trkpt lat="45.17663" lon="5.92001">
        <ele>1674.5</ele>
        <time>2021-02-20T07:27:20Z</time>
      </trkpt>
      <trkpt lat="45.17662" lon="5.92002">
        <ele>1674.6</ele>
        <time>2021-02-20T07:27:21Z</time>
      </trkpt>
      <trkpt lat="45.17661" lon="5.92003">
        <ele>1674.7</ele>
        <time>2021-02-20T07:27:22Z</time>
      </trkpt>
      <trkpt lat="45.17662" lon="5.92004">
        <ele>1674.7</ele>
        <time>2021-02-20T07:27:23Z</time>
      </trkpt>
      <trkpt lat="45.17662" lon="5.92005">
        <ele>1674.8</ele>
        <time>2021-02-20T07:27:24Z</time>
      </trkpt>
      <trkpt lat="45.17662" lon="5.92005">
        <ele>1674.8</ele>
        <time>2021-02-20T07:27:25Z</time>
      </trkpt>
      <trkpt lat="45.17663" lon="5.92006">
        <ele>1674.9</ele>
        <time>2021-02-20T07:27:26Z</time>
      </trkpt>
      <trkpt lat="45.17664" lon="5.92007">
        <ele>1675</ele>
        <time>2021-02-20T07:27:27Z</time>
      </trkpt>
      <trkpt lat="45.17663" lon="5.92008">
        <ele>1675.1</ele>
        <time>2021-02-20T07:27:28Z</time>
      </trkpt>
      <trkpt lat="45.17663" lon="5.92011">
        <ele>1675.3</ele>
        <time>2021-02-20T07:27:29Z</time>
      </trkpt>
      <trkpt lat="45.17662" lon="5.92012">
        <ele>1675.3</ele>
        <time>2021-02-20T07:27:30Z</time>
      </trkpt>
      <trkpt lat="45.17662" lon="5.92013">
        <ele>1675.4</ele>
        <time>2021-02-20T07:27:31Z</time>
      </trkpt>
      <trkpt lat="45.1766" lon="5.92014">
        <ele>1675.5</ele>
        <time>2021-02-20T07:27:32Z</time>
      </trkpt>
      <trkpt lat="45.17658" lon="5.92015">
        <ele>1675.7</ele>
        <time>2021-02-20T07:27:33Z</time>
      </trkpt>
      <trkpt lat="45.17656" lon="5.92016">
        <ele>1675.8</ele>
        <time>2021-02-20T07:27:34Z</time>
      </trkpt>
      <trkpt lat="45.17655" lon="5.92016">
        <ele>1675.9</ele>
        <time>2021-02-20T07:27:35Z</time>
      </trkpt>
      <trkpt lat="45.17654" lon="5.92018">
        <ele>1676</ele>
        <time>2021-02-20T07:27:36Z</time>
      </trkpt>
      <trkpt lat="45.17654" lon="5.9202">
        <ele>1676.1</ele>
        <time>2021-02-20T07:27:37Z</time>
      </trkpt>
      <trkpt lat="45.17653" lon="5.92021">
        <ele>1676.1</ele>
        <time>2021-02-20T07:27:38Z</time>
      </trkpt>
      <trkpt lat="45.17652" lon="5.92023">
        <ele>1676.2</ele>
        <time>2021-02-20T07:27:39Z</time>
      </trkpt>
      <trkpt lat="45.17651" lon="5.92024">
        <ele>1676.3</ele>
        <time>2021-02-20T07:27:40Z</time>
      </trkpt>
      <trkpt lat="45.17651" lon="5.92025">
        <ele>1676.4</ele>
        <time>2021-02-20T07:27:41Z</time>
      </trkpt>
      <trkpt lat="45.17652" lon="5.92027">
        <ele>1676.5</ele>
        <time>2021-02-20T07:27:42Z</time>
      </trkpt>
      <trkpt lat="45.17652" lon="5.92029">
        <ele>1676.6</ele>
        <time>2021-02-20T07:27:43Z</time>
      </trkpt>
      <trkpt lat="45.17654" lon="5.92033">
        <ele>1676.8</ele>
        <time>2021-02-20T07:27:44Z</time>
      </trkpt>
      <trkpt lat="45.17655" lon="5.92034">
        <ele>1676.8</ele>
        <time>2021-02-20T07:27:45Z</time>
      </trkpt>
      <trkpt lat="45.17656" lon="5.92036">
        <ele>1676.9</ele>
        <time>2021-02-20T07:27:46Z</time>
      </trkpt>
      <trkpt lat="45.17657" lon="5.92038">
        <ele>1677</ele>
        <time>2021-02-20T07:27:47Z</time>
      </trkpt>
      <trkpt lat="45.17657" lon="5.9204">
        <ele>1677.1</ele>
        <time>2021-02-20T07:27:48Z</time>
      </trkpt>
      <trkpt lat="45.17657" lon="5.92042">
        <ele>1677.2</ele>
        <time>2021-02-20T07:27:49Z</time>
      </trkpt>
      <trkpt lat="45.17657" lon="5.92043">
        <ele>1677.3</ele>
        <time>2021-02-20T07:27:50Z</time>
      </trkpt>
      <trkpt lat="45.17656" lon="5.92045">
        <ele>1677.3</ele>
        <time>2021-02-20T07:27:51Z</time>
      </trkpt>
      <trkpt lat="45.17656" lon="5.92046">
        <ele>1677.4</ele>
        <time>2021-02-20T07:27:52Z</time>
      </trkpt>
      <trkpt lat="45.17656" lon="5.92046">
        <ele>1677.4</ele>
        <time>2021-02-20T07:27:53Z</time>
      </trkpt>
      <trkpt lat="45.17656" lon="5.92047">
        <ele>1677.5</ele>
        <time>2021-02-20T07:27:54Z</time>
      </trkpt>
      <trkpt lat="45.17656" lon="5.92048">
        <ele>1677.5</ele>
        <time>2021-02-20T07:27:55Z</time>
      </trkpt>
      <trkpt lat="45.17656" lon="5.9205">
        <ele>1677.6</ele>
        <time>2021-02-20T07:27:56Z</time>
      </trkpt>
      <trkpt lat="45.17656" lon="5.92051">
        <ele>1677.6</ele>
        <time>2021-02-20T07:27:57Z</time>
      </trkpt>
      <trkpt lat="45.17656" lon="5.92053">
        <ele>1677.7</ele>
        <time>2021-02-20T07:27:58Z</time>
      </trkpt>
      <trkpt lat="45.17655" lon="5.92054">
        <ele>1677.8</ele>
        <time>2021-02-20T07:27:59Z</time>
      </trkpt>
      <trkpt lat="45.17655" lon="5.92055">
        <ele>1677.8</ele>
        <time>2021-02-20T07:28:00Z</time>
      </trkpt>
      <trkpt lat="45.17654" lon="5.92057">
        <ele>1677.9</ele>
        <time>2021-02-20T07:28:01Z</time>
      </trkpt>
      <trkpt lat="45.17654" lon="5.92057">
        <ele>1678</ele>
        <time>2021-02-20T07:28:02Z</time>
      </trkpt>
      <trkpt lat="45.17653" lon="5.92058">
        <ele>1678</ele>
        <time>2021-02-20T07:28:03Z</time>
      </trkpt>
      <trkpt lat="45.17652" lon="5.92059">
        <ele>1678.1</ele>
        <time>2021-02-20T07:28:04Z</time>
      </trkpt>
      <trkpt lat="45.1765" lon="5.92059">
        <ele>1678.2</ele>
        <time>2021-02-20T07:28:05Z</time>
      </trkpt>
      <trkpt lat="45.17649" lon="5.9206">
        <ele>1678.3</ele>
        <time>2021-02-20T07:28:06Z</time>
      </trkpt>
      <trkpt lat="45.17648" lon="5.9206">
        <ele>1678.4</ele>
        <time>2021-02-20T07:28:07Z</time>
      </trkpt>
      <trkpt lat="45.17647" lon="5.9206">
        <ele>1678.5</ele>
        <time>2021-02-20T07:28:08Z</time>
      </trkpt>
      <trkpt lat="45.17646" lon="5.92061">
        <ele>1678.6</ele>
        <time>2021-02-20T07:28:09Z</time>
      </trkpt>
      <trkpt lat="45.17646" lon="5.92061">
        <ele>1678.6</ele>
        <time>2021-02-20T07:28:10Z</time>
      </trkpt>
      <trkpt lat="45.17645" lon="5.92062">
        <ele>1678.7</ele>
        <time>2021-02-20T07:28:11Z</time>
      </trkpt>
      <trkpt lat="45.17644" lon="5.92063">
        <ele>1678.8</ele>
        <time>2021-02-20T07:28:12Z</time>
      </trkpt>
      <trkpt lat="45.17644" lon="5.92064">
        <ele>1678.8</ele>
        <time>2021-02-20T07:28:13Z</time>
      </trkpt>
      <trkpt lat="45.17643" lon="5.92065">
        <ele>1678.9</ele>
        <time>2021-02-20T07:28:14Z</time>
      </trkpt>
      <trkpt lat="45.17642" lon="5.92065">
        <ele>1679</ele>
        <time>2021-02-20T07:28:15Z</time>
      </trkpt>
      <trkpt lat="45.17641" lon="5.92065">
        <ele>1679.1</ele>
        <time>2021-02-20T07:28:16Z</time>
      </trkpt>
      <trkpt lat="45.1764" lon="5.92066">
        <ele>1679.1</ele>
        <time>2021-02-20T07:28:17Z</time>
      </trkpt>
      <trkpt lat="45.17638" lon="5.92066">
        <ele>1679.3</ele>
        <time>2021-02-20T07:28:18Z</time>
      </trkpt>
      <trkpt lat="45.17637" lon="5.92066">
        <ele>1679.4</ele>
        <time>2021-02-20T07:28:19Z</time>
      </trkpt>
      <trkpt lat="45.17636" lon="5.92066">
        <ele>1679.4</ele>
        <time>2021-02-20T07:28:20Z</time>
      </trkpt>
      <trkpt lat="45.17635" lon="5.92066">
        <ele>1679.5</ele>
        <time>2021-02-20T07:28:21Z</time>
      </trkpt>
      <trkpt lat="45.17634" lon="5.92066">
        <ele>1679.6</ele>
        <time>2021-02-20T07:28:22Z</time>
      </trkpt>
      <trkpt lat="45.17633" lon="5.92066">
        <ele>1679.6</ele>
        <time>2021-02-20T07:28:23Z</time>
      </trkpt>
      <trkpt lat="45.17632" lon="5.92067">
        <ele>1679.7</ele>
        <time>2021-02-20T07:28:24Z</time>
      </trkpt>
      <trkpt lat="45.17631" lon="5.92066">
        <ele>1679.8</ele>
        <time>2021-02-20T07:28:25Z</time>
      </trkpt>
      <trkpt lat="45.1763" lon="5.92066">
        <ele>1679.8</ele>
        <time>2021-02-20T07:28:26Z</time>
      </trkpt>
      <trkpt lat="45.17629" lon="5.92067">
        <ele>1679.9</ele>
        <time>2021-02-20T07:28:27Z</time>
      </trkpt>
      <trkpt lat="45.17628" lon="5.92067">
        <ele>1680</ele>
        <time>2021-02-20T07:28:28Z</time>
      </trkpt>
      <trkpt lat="45.17627" lon="5.92067">
        <ele>1680</ele>
        <time>2021-02-20T07:28:29Z</time>
      </trkpt>
      <trkpt lat="45.17626" lon="5.92068">
        <ele>1680.1</ele>
        <time>2021-02-20T07:28:30Z</time>
      </trkpt>
      <trkpt lat="45.17624" lon="5.92069">
        <ele>1680.2</ele>
        <time>2021-02-20T07:28:31Z</time>
      </trkpt>
      <trkpt lat="45.17623" lon="5.92069">
        <ele>1680.3</ele>
        <time>2021-02-20T07:28:32Z</time>
      </trkpt>
      <trkpt lat="45.17622" lon="5.9207">
        <ele>1680.4</ele>
        <time>2021-02-20T07:28:33Z</time>
      </trkpt>
      <trkpt lat="45.17621" lon="5.92071">
        <ele>1680.5</ele>
        <time>2021-02-20T07:28:34Z</time>
      </trkpt>
      <trkpt lat="45.1762" lon="5.92071">
        <ele>1680.5</ele>
        <time>2021-02-20T07:28:35Z</time>
      </trkpt>
      <trkpt lat="45.17619" lon="5.92073">
        <ele>1680.6</ele>
        <time>2021-02-20T07:28:36Z</time>
      </trkpt>
      <trkpt lat="45.17618" lon="5.92074">
        <ele>1680.7</ele>
        <time>2021-02-20T07:28:37Z</time>
      </trkpt>
      <trkpt lat="45.17616" lon="5.92075">
        <ele>1680.8</ele>
        <time>2021-02-20T07:28:38Z</time>
      </trkpt>
      <trkpt lat="45.17615" lon="5.92075">
        <ele>1680.9</ele>
        <time>2021-02-20T07:28:39Z</time>
      </trkpt>
      <trkpt lat="45.17614" lon="5.92076">
        <ele>1681</ele>
        <time>2021-02-20T07:28:40Z</time>
      </trkpt>
      <trkpt lat="45.17614" lon="5.92077">
        <ele>1681</ele>
        <time>2021-02-20T07:28:41Z</time>
      </trkpt>
      <trkpt lat="45.17614" lon="5.92078">
        <ele>1681.1</ele>
        <time>2021-02-20T07:28:42Z</time>
      </trkpt>
      <trkpt lat="45.17613" lon="5.92079">
        <ele>1681.2</ele>
        <time>2021-02-20T07:28:43Z</time>
      </trkpt>
      <trkpt lat="45.17613" lon="5.92081">
        <ele>1681.2</ele>
        <time>2021-02-20T07:28:44Z</time>
      </trkpt>
      <trkpt lat="45.17613" lon="5.92082">
        <ele>1681.3</ele>
        <time>2021-02-20T07:28:45Z</time>
      </trkpt>
      <trkpt lat="45.17613" lon="5.92083">
        <ele>1681.4</ele>
        <time>2021-02-20T07:28:46Z</time>
      </trkpt>
      <trkpt lat="45.17613" lon="5.92085">
        <ele>1681.4</ele>
        <time>2021-02-20T07:28:47Z</time>
      </trkpt>
      <trkpt lat="45.17612" lon="5.92086">
        <ele>1681.5</ele>
        <time>2021-02-20T07:28:48Z</time>
      </trkpt>
      <trkpt lat="45.17611" lon="5.92088">
        <ele>1681.6</ele>
        <time>2021-02-20T07:28:49Z</time>
      </trkpt>
      <trkpt lat="45.17611" lon="5.92089">
        <ele>1681.7</ele>
        <time>2021-02-20T07:28:50Z</time>
      </trkpt>
      <trkpt lat="45.1761" lon="5.9209">
        <ele>1681.7</ele>
        <time>2021-02-20T07:28:51Z</time>
      </trkpt>
      <trkpt lat="45.1761" lon="5.92091">
        <ele>1681.8</ele>
        <time>2021-02-20T07:28:52Z</time>
      </trkpt>
      <trkpt lat="45.17609" lon="5.92092">
        <ele>1681.9</ele>
        <time>2021-02-20T07:28:53Z</time>
      </trkpt>
      <trkpt lat="45.17608" lon="5.92093">
        <ele>1682</ele>
        <time>2021-02-20T07:28:54Z</time>
      </trkpt>
      <trkpt lat="45.17608" lon="5.92094">
        <ele>1682</ele>
        <time>2021-02-20T07:28:55Z</time>
      </trkpt>
      <trkpt lat="45.17607" lon="5.92095">
        <ele>1682.1</ele>
        <time>2021-02-20T07:28:56Z</time>
      </trkpt>
      <trkpt lat="45.17607" lon="5.92097">
        <ele>1682.2</ele>
        <time>2021-02-20T07:28:57Z</time>
      </trkpt>
      <trkpt lat="45.17606" lon="5.92099">
        <ele>1682.2</ele>
        <time>2021-02-20T07:28:58Z</time>
      </trkpt>
      <trkpt lat="45.17606" lon="5.921">
        <ele>1682.3</ele>
        <time>2021-02-20T07:28:59Z</time>
      </trkpt>
      <trkpt lat="45.17604" lon="5.92102">
        <ele>1682.4</ele>
        <time>2021-02-20T07:29:00Z</time>
      </trkpt>
      <trkpt lat="45.17603" lon="5.92103">
        <ele>1682.5</ele>
        <time>2021-02-20T07:29:01Z</time>
      </trkpt>
      <trkpt lat="45.17602" lon="5.92104">
        <ele>1682.6</ele>
        <time>2021-02-20T07:29:02Z</time>
      </trkpt>
      <trkpt lat="45.17599" lon="5.92105">
        <ele>1682.8</ele>
        <time>2021-02-20T07:29:03Z</time>
      </trkpt>
      <trkpt lat="45.17598" lon="5.92106">
        <ele>1682.9</ele>
        <time>2021-02-20T07:29:04Z</time>
      </trkpt>
      <trkpt lat="45.17597" lon="5.92108">
        <ele>1683</ele>
        <time>2021-02-20T07:29:05Z</time>
      </trkpt>
      <trkpt lat="45.17596" lon="5.92109">
        <ele>1683</ele>
        <time>2021-02-20T07:29:06Z</time>
      </trkpt>
      <trkpt lat="45.17594" lon="5.92112">
        <ele>1683.2</ele>
        <time>2021-02-20T07:29:07Z</time>
      </trkpt>
      <trkpt lat="45.17594" lon="5.92113">
        <ele>1683.2</ele>
        <time>2021-02-20T07:29:08Z</time>
      </trkpt>
      <trkpt lat="45.17594" lon="5.92114">
        <ele>1683.3</ele>
        <time>2021-02-20T07:29:09Z</time>
      </trkpt>
      <trkpt lat="45.17593" lon="5.92115">
        <ele>1683.3</ele>
        <time>2021-02-20T07:29:10Z</time>
      </trkpt>
      <trkpt lat="45.17593" lon="5.92117">
        <ele>1683.4</ele>
        <time>2021-02-20T07:29:11Z</time>
      </trkpt>
      <trkpt lat="45.17593" lon="5.92119">
        <ele>1683.5</ele>
        <time>2021-02-20T07:29:12Z</time>
      </trkpt>
      <trkpt lat="45.17595" lon="5.92121">
        <ele>1683.6</ele>
        <time>2021-02-20T07:29:13Z</time>
      </trkpt>
      <trkpt lat="45.17595" lon="5.92122">
        <ele>1683.7</ele>
        <time>2021-02-20T07:29:14Z</time>
      </trkpt>
      <trkpt lat="45.17596" lon="5.92123">
        <ele>1683.7</ele>
        <time>2021-02-20T07:29:15Z</time>
      </trkpt>
      <trkpt lat="45.17596" lon="5.92124">
        <ele>1683.8</ele>
        <time>2021-02-20T07:29:16Z</time>
      </trkpt>
      <trkpt lat="45.17596" lon="5.92126">
        <ele>1683.8</ele>
        <time>2021-02-20T07:29:17Z</time>
      </trkpt>
      <trkpt lat="45.17595" lon="5.92127">
        <ele>1683.9</ele>
        <time>2021-02-20T07:29:18Z</time>
      </trkpt>
      <trkpt lat="45.17593" lon="5.92129">
        <ele>1684</ele>
        <time>2021-02-20T07:29:19Z</time>
      </trkpt>
      <trkpt lat="45.17592" lon="5.9213">
        <ele>1684.1</ele>
        <time>2021-02-20T07:29:20Z</time>
      </trkpt>
      <trkpt lat="45.17592" lon="5.92131">
        <ele>1684.2</ele>
        <time>2021-02-20T07:29:21Z</time>
      </trkpt>
      <trkpt lat="45.17591" lon="5.92132">
        <ele>1684.2</ele>
        <time>2021-02-20T07:29:22Z</time>
      </trkpt>
      <trkpt lat="45.17591" lon="5.92133">
        <ele>1684.3</ele>
        <time>2021-02-20T07:29:23Z</time>
      </trkpt>
      <trkpt lat="45.17591" lon="5.92133">
        <ele>1684.3</ele>
        <time>2021-02-20T07:29:24Z</time>
      </trkpt>
      <trkpt lat="45.17591" lon="5.92134">
        <ele>1684.3</ele>
        <time>2021-02-20T07:29:25Z</time>
      </trkpt>
      <trkpt lat="45.17591" lon="5.92134">
        <ele>1684.3</ele>
        <time>2021-02-20T07:29:26Z</time>
      </trkpt>
      <trkpt lat="45.17591" lon="5.92135">
        <ele>1684.3</ele>
        <time>2021-02-20T07:29:27Z</time>
      </trkpt>
      <trkpt lat="45.1759" lon="5.92136">
        <ele>1684.4</ele>
        <time>2021-02-20T07:29:28Z</time>
      </trkpt>
      <trkpt lat="45.1759" lon="5.92136">
        <ele>1684.4</ele>
        <time>2021-02-20T07:29:29Z</time>
      </trkpt>
      <trkpt lat="45.17589" lon="5.92137">
        <ele>1684.4</ele>
        <time>2021-02-20T07:29:30Z</time>
      </trkpt>
      <trkpt lat="45.17589" lon="5.92138">
        <ele>1684.5</ele>
        <time>2021-02-20T07:29:31Z</time>
      </trkpt>
      <trkpt lat="45.17588" lon="5.92139">
        <ele>1684.5</ele>
        <time>2021-02-20T07:29:32Z</time>
      </trkpt>
      <trkpt lat="45.17587" lon="5.9214">
        <ele>1684.6</ele>
        <time>2021-02-20T07:29:33Z</time>
      </trkpt>
      <trkpt lat="45.17587" lon="5.9214">
        <ele>1684.6</ele>
        <time>2021-02-20T07:29:34Z</time>
      </trkpt>
      <trkpt lat="45.17586" lon="5.92141">
        <ele>1684.6</ele>
        <time>2021-02-20T07:29:35Z</time>
      </trkpt>
      <trkpt lat="45.17585" lon="5.92142">
        <ele>1684.7</ele>
        <time>2021-02-20T07:29:36Z</time>
      </trkpt>
      <trkpt lat="45.17584" lon="5.92142">
        <ele>1684.7</ele>
        <time>2021-02-20T07:29:37Z</time>
      </trkpt>
      <trkpt lat="45.17583" lon="5.92143">
        <ele>1684.8</ele>
        <time>2021-02-20T07:29:38Z</time>
      </trkpt>
      <trkpt lat="45.17582" lon="5.92143">
        <ele>1684.8</ele>
        <time>2021-02-20T07:29:39Z</time>
      </trkpt>
      <trkpt lat="45.17581" lon="5.92144">
        <ele>1684.9</ele>
        <time>2021-02-20T07:29:40Z</time>
      </trkpt>
      <trkpt lat="45.1758" lon="5.92144">
        <ele>1684.9</ele>
        <time>2021-02-20T07:29:41Z</time>
      </trkpt>
      <trkpt lat="45.17579" lon="5.92145">
        <ele>1685</ele>
        <time>2021-02-20T07:29:42Z</time>
      </trkpt>
      <trkpt lat="45.17579" lon="5.92146">
        <ele>1685</ele>
        <time>2021-02-20T07:29:43Z</time>
      </trkpt>
      <trkpt lat="45.17578" lon="5.92148">
        <ele>1685.1</ele>
        <time>2021-02-20T07:29:44Z</time>
      </trkpt>
      <trkpt lat="45.17578" lon="5.92149">
        <ele>1685.1</ele>
        <time>2021-02-20T07:29:45Z</time>
      </trkpt>
      <trkpt lat="45.17578" lon="5.92151">
        <ele>1685.2</ele>
        <time>2021-02-20T07:29:46Z</time>
      </trkpt>
      <trkpt lat="45.17577" lon="5.92152">
        <ele>1685.2</ele>
        <time>2021-02-20T07:29:47Z</time>
      </trkpt>
      <trkpt lat="45.17577" lon="5.92153">
        <ele>1685.3</ele>
        <time>2021-02-20T07:29:48Z</time>
      </trkpt>
      <trkpt lat="45.17576" lon="5.92154">
        <ele>1685.3</ele>
        <time>2021-02-20T07:29:49Z</time>
      </trkpt>
      <trkpt lat="45.17575" lon="5.92156">
        <ele>1685.4</ele>
        <time>2021-02-20T07:29:50Z</time>
      </trkpt>
      <trkpt lat="45.17574" lon="5.92156">
        <ele>1685.5</ele>
        <time>2021-02-20T07:29:51Z</time>
      </trkpt>
      <trkpt lat="45.17573" lon="5.92157">
        <ele>1685.5</ele>
        <time>2021-02-20T07:29:52Z</time>
      </trkpt>
      <trkpt lat="45.17572" lon="5.92157">
        <ele>1685.6</ele>
        <time>2021-02-20T07:29:53Z</time>
      </trkpt>
      <trkpt lat="45.17571" lon="5.92158">
        <ele>1685.6</ele>
        <time>2021-02-20T07:29:54Z</time>
      </trkpt>
      <trkpt lat="45.1757" lon="5.92159">
        <ele>1685.7</ele>
        <time>2021-02-20T07:29:55Z</time>
      </trkpt>
      <trkpt lat="45.1757" lon="5.9216">
        <ele>1685.7</ele>
        <time>2021-02-20T07:29:56Z</time>
      </trkpt>
      <trkpt lat="45.1757" lon="5.9216">
        <ele>1685.7</ele>
        <time>2021-02-20T07:29:57Z</time>
      </trkpt>
      <trkpt lat="45.17569" lon="5.92161">
        <ele>1685.8</ele>
        <time>2021-02-20T07:29:58Z</time>
      </trkpt>
      <trkpt lat="45.17569" lon="5.92163">
        <ele>1685.8</ele>
        <time>2021-02-20T07:29:59Z</time>
      </trkpt>
      <trkpt lat="45.17569" lon="5.92164">
        <ele>1685.8</ele>
        <time>2021-02-20T07:30:00Z</time>
      </trkpt>
      <trkpt lat="45.1757" lon="5.92165">
        <ele>1685.9</ele>
        <time>2021-02-20T07:30:01Z</time>
      </trkpt>
      <trkpt lat="45.1757" lon="5.92166">
        <ele>1685.9</ele>
        <time>2021-02-20T07:30:02Z</time>
      </trkpt>
      <trkpt lat="45.17571" lon="5.92166">
        <ele>1686</ele>
        <time>2021-02-20T07:30:03Z</time>
      </trkpt>
      <trkpt lat="45.17571" lon="5.92167">
        <ele>1686</ele>
        <time>2021-02-20T07:30:04Z</time>
      </trkpt>
      <trkpt lat="45.17571" lon="5.92169">
        <ele>1686.1</ele>
        <time>2021-02-20T07:30:05Z</time>
      </trkpt>
      <trkpt lat="45.17571" lon="5.9217">
        <ele>1686.1</ele>
        <time>2021-02-20T07:30:06Z</time>
      </trkpt>
      <trkpt lat="45.17571" lon="5.92173">
        <ele>1686.2</ele>
        <time>2021-02-20T07:30:07Z</time>
      </trkpt>
      <trkpt lat="45.1757" lon="5.92174">
        <ele>1686.3</ele>
        <time>2021-02-20T07:30:08Z</time>
      </trkpt>
      <trkpt lat="45.1757" lon="5.92175">
        <ele>1686.3</ele>
        <time>2021-02-20T07:30:09Z</time>
      </trkpt>
      <trkpt lat="45.17569" lon="5.92178">
        <ele>1686.4</ele>
        <time>2021-02-20T07:30:10Z</time>
      </trkpt>
      <trkpt lat="45.17569" lon="5.92179">
        <ele>1686.5</ele>
        <time>2021-02-20T07:30:11Z</time>
      </trkpt>
      <trkpt lat="45.17568" lon="5.9218">
        <ele>1686.5</ele>
        <time>2021-02-20T07:30:12Z</time>
      </trkpt>
      <trkpt lat="45.17567" lon="5.92181">
        <ele>1686.6</ele>
        <time>2021-02-20T07:30:13Z</time>
      </trkpt>
      <trkpt lat="45.17566" lon="5.92182">
        <ele>1686.7</ele>
        <time>2021-02-20T07:30:14Z</time>
      </trkpt>
      <trkpt lat="45.17566" lon="5.92183">
        <ele>1686.7</ele>
        <time>2021-02-20T07:30:15Z</time>
      </trkpt>
      <trkpt lat="45.17566" lon="5.92184">
        <ele>1686.8</ele>
        <time>2021-02-20T07:30:16Z</time>
      </trkpt>
      <trkpt lat="45.17565" lon="5.92186">
        <ele>1686.8</ele>
        <time>2021-02-20T07:30:17Z</time>
      </trkpt>
      <trkpt lat="45.17564" lon="5.92187">
        <ele>1686.9</ele>
        <time>2021-02-20T07:30:18Z</time>
      </trkpt>
      <trkpt lat="45.17562" lon="5.92189">
        <ele>1687</ele>
        <time>2021-02-20T07:30:19Z</time>
      </trkpt>
      <trkpt lat="45.17562" lon="5.9219">
        <ele>1687.1</ele>
        <time>2021-02-20T07:30:20Z</time>
      </trkpt>
      <trkpt lat="45.17561" lon="5.9219">
        <ele>1687.1</ele>
        <time>2021-02-20T07:30:21Z</time>
      </trkpt>
      <trkpt lat="45.1756" lon="5.92191">
        <ele>1687.2</ele>
        <time>2021-02-20T07:30:22Z</time>
      </trkpt>
      <trkpt lat="45.1756" lon="5.92192">
        <ele>1687.2</ele>
        <time>2021-02-20T07:30:23Z</time>
      </trkpt>
      <trkpt lat="45.17559" lon="5.92194">
        <ele>1687.3</ele>
        <time>2021-02-20T07:30:24Z</time>
      </trkpt>
      <trkpt lat="45.17559" lon="5.92195">
        <ele>1687.3</ele>
        <time>2021-02-20T07:30:25Z</time>
      </trkpt>
      <trkpt lat="45.17558" lon="5.92195">
        <ele>1687.4</ele>
        <time>2021-02-20T07:30:26Z</time>
      </trkpt>
      <trkpt lat="45.17557" lon="5.92196">
        <ele>1687.4</ele>
        <time>2021-02-20T07:30:27Z</time>
      </trkpt>
      <trkpt lat="45.17555" lon="5.92197">
        <ele>1687.5</ele>
        <time>2021-02-20T07:30:28Z</time>
      </trkpt>
      <trkpt lat="45.17555" lon="5.92198">
        <ele>1687.6</ele>
        <time>2021-02-20T07:30:29Z</time>
      </trkpt>
      <trkpt lat="45.17554" lon="5.92198">
        <ele>1687.6</ele>
        <time>2021-02-20T07:30:30Z</time>
      </trkpt>
      <trkpt lat="45.17553" lon="5.92199">
        <ele>1687.7</ele>
        <time>2021-02-20T07:30:31Z</time>
      </trkpt>
      <trkpt lat="45.17552" lon="5.922">
        <ele>1687.7</ele>
        <time>2021-02-20T07:30:32Z</time>
      </trkpt>
      <trkpt lat="45.17552" lon="5.92202">
        <ele>1687.8</ele>
        <time>2021-02-20T07:30:33Z</time>
      </trkpt>
      <trkpt lat="45.17551" lon="5.92203">
        <ele>1687.9</ele>
        <time>2021-02-20T07:30:34Z</time>
      </trkpt>
      <trkpt lat="45.1755" lon="5.92204">
        <ele>1687.9</ele>
        <time>2021-02-20T07:30:35Z</time>
      </trkpt>
      <trkpt lat="45.1755" lon="5.92206">
        <ele>1688</ele>
        <time>2021-02-20T07:30:36Z</time>
      </trkpt>
      <trkpt lat="45.1755" lon="5.92207">
        <ele>1688</ele>
        <time>2021-02-20T07:30:37Z</time>
      </trkpt>
      <trkpt lat="45.17549" lon="5.92208">
        <ele>1688.1</ele>
        <time>2021-02-20T07:30:38Z</time>
      </trkpt>
      <trkpt lat="45.17549" lon="5.9221">
        <ele>1688.1</ele>
        <time>2021-02-20T07:30:39Z</time>
      </trkpt>
      <trkpt lat="45.17548" lon="5.92211">
        <ele>1688.2</ele>
        <time>2021-02-20T07:30:40Z</time>
      </trkpt>
      <trkpt lat="45.17548" lon="5.92212">
        <ele>1688.2</ele>
        <time>2021-02-20T07:30:41Z</time>
      </trkpt>
      <trkpt lat="45.17547" lon="5.92213">
        <ele>1688.3</ele>
        <time>2021-02-20T07:30:42Z</time>
      </trkpt>
      <trkpt lat="45.17546" lon="5.92214">
        <ele>1688.4</ele>
        <time>2021-02-20T07:30:43Z</time>
      </trkpt>
      <trkpt lat="45.17546" lon="5.92216">
        <ele>1688.4</ele>
        <time>2021-02-20T07:30:44Z</time>
      </trkpt>
      <trkpt lat="45.17545" lon="5.92217">
        <ele>1688.5</ele>
        <time>2021-02-20T07:30:45Z</time>
      </trkpt>
      <trkpt lat="45.17544" lon="5.92218">
        <ele>1688.5</ele>
        <time>2021-02-20T07:30:46Z</time>
      </trkpt>
      <trkpt lat="45.17544" lon="5.9222">
        <ele>1688.6</ele>
        <time>2021-02-20T07:30:47Z</time>
      </trkpt>
      <trkpt lat="45.17544" lon="5.92221">
        <ele>1688.6</ele>
        <time>2021-02-20T07:30:48Z</time>
      </trkpt>
      <trkpt lat="45.17544" lon="5.92222">
        <ele>1688.7</ele>
        <time>2021-02-20T07:30:49Z</time>
      </trkpt>
      <trkpt lat="45.17543" lon="5.92224">
        <ele>1688.7</ele>
        <time>2021-02-20T07:30:50Z</time>
      </trkpt>
      <trkpt lat="45.17543" lon="5.92225">
        <ele>1688.8</ele>
        <time>2021-02-20T07:30:51Z</time>
      </trkpt>
      <trkpt lat="45.17542" lon="5.92226">
        <ele>1688.8</ele>
        <time>2021-02-20T07:30:52Z</time>
      </trkpt>
      <trkpt lat="45.17542" lon="5.92227">
        <ele>1688.9</ele>
        <time>2021-02-20T07:30:53Z</time>
      </trkpt>
      <trkpt lat="45.17541" lon="5.92228">
        <ele>1688.9</ele>
        <time>2021-02-20T07:30:54Z</time>
      </trkpt>
      <trkpt lat="45.17541" lon="5.92229">
        <ele>1689</ele>
        <time>2021-02-20T07:30:55Z</time>
      </trkpt>
      <trkpt lat="45.1754" lon="5.9223">
        <ele>1689.1</ele>
        <time>2021-02-20T07:30:56Z</time>
      </trkpt>
      <trkpt lat="45.1754" lon="5.92231">
        <ele>1689.1</ele>
        <time>2021-02-20T07:30:57Z</time>
      </trkpt>
      <trkpt lat="45.17539" lon="5.92232">
        <ele>1689.2</ele>
        <time>2021-02-20T07:30:58Z</time>
      </trkpt>
      <trkpt lat="45.17538" lon="5.92234">
        <ele>1689.3</ele>
        <time>2021-02-20T07:30:59Z</time>
      </trkpt>
      <trkpt lat="45.17537" lon="5.92235">
        <ele>1689.4</ele>
        <time>2021-02-20T07:31:00Z</time>
      </trkpt>
      <trkpt lat="45.17537" lon="5.92236">
        <ele>1689.5</ele>
        <time>2021-02-20T07:31:01Z</time>
      </trkpt>
      <trkpt lat="45.17536" lon="5.92237">
        <ele>1689.5</ele>
        <time>2021-02-20T07:31:02Z</time>
      </trkpt>
      <trkpt lat="45.17536" lon="5.92238">
        <ele>1689.6</ele>
        <time>2021-02-20T07:31:03Z</time>
      </trkpt>
      <trkpt lat="45.17536" lon="5.92239">
        <ele>1689.7</ele>
        <time>2021-02-20T07:31:04Z</time>
      </trkpt>
      <trkpt lat="45.17536" lon="5.92241">
        <ele>1689.7</ele>
        <time>2021-02-20T07:31:05Z</time>
      </trkpt>
      <trkpt lat="45.17535" lon="5.92242">
        <ele>1689.8</ele>
        <time>2021-02-20T07:31:06Z</time>
      </trkpt>
      <trkpt lat="45.17535" lon="5.92243">
        <ele>1689.9</ele>
        <time>2021-02-20T07:31:07Z</time>
      </trkpt>
      <trkpt lat="45.17534" lon="5.92245">
        <ele>1690</ele>
        <time>2021-02-20T07:31:08Z</time>
      </trkpt>
      <trkpt lat="45.17533" lon="5.92247">
        <ele>1690.1</ele>
        <time>2021-02-20T07:31:09Z</time>
      </trkpt>
      <trkpt lat="45.17532" lon="5.92248">
        <ele>1690.2</ele>
        <time>2021-02-20T07:31:10Z</time>
      </trkpt>
      <trkpt lat="45.17532" lon="5.92249">
        <ele>1690.3</ele>
        <time>2021-02-20T07:31:11Z</time>
      </trkpt>
      <trkpt lat="45.17531" lon="5.9225">
        <ele>1690.3</ele>
        <time>2021-02-20T07:31:12Z</time>
      </trkpt>
      <trkpt lat="45.17531" lon="5.92251">
        <ele>1690.4</ele>
        <time>2021-02-20T07:31:13Z</time>
      </trkpt>
      <trkpt lat="45.17531" lon="5.92252">
        <ele>1690.4</ele>
        <time>2021-02-20T07:31:14Z</time>
      </trkpt>
      <trkpt lat="45.17531" lon="5.92253">
        <ele>1690.5</ele>
        <time>2021-02-20T07:31:15Z</time>
      </trkpt>
      <trkpt lat="45.1753" lon="5.92254">
        <ele>1690.6</ele>
        <time>2021-02-20T07:31:16Z</time>
      </trkpt>
      <trkpt lat="45.1753" lon="5.92256">
        <ele>1690.6</ele>
        <time>2021-02-20T07:31:17Z</time>
      </trkpt>
      <trkpt lat="45.1753" lon="5.92257">
        <ele>1690.7</ele>
        <time>2021-02-20T07:31:18Z</time>
      </trkpt>
      <trkpt lat="45.1753" lon="5.92258">
        <ele>1690.8</ele>
        <time>2021-02-20T07:31:19Z</time>
      </trkpt>
      <trkpt lat="45.1753" lon="5.9226">
        <ele>1690.8</ele>
        <time>2021-02-20T07:31:20Z</time>
      </trkpt>
      <trkpt lat="45.1753" lon="5.92261">
        <ele>1690.9</ele>
        <time>2021-02-20T07:31:21Z</time>
      </trkpt>
      <trkpt lat="45.1753" lon="5.92263">
        <ele>1691</ele>
        <time>2021-02-20T07:31:22Z</time>
      </trkpt>
      <trkpt lat="45.1753" lon="5.92264">
        <ele>1691.1</ele>
        <time>2021-02-20T07:31:23Z</time>
      </trkpt>
      <trkpt lat="45.1753" lon="5.92266">
        <ele>1691.1</ele>
        <time>2021-02-20T07:31:24Z</time>
      </trkpt>
      <trkpt lat="45.1753" lon="5.92267">
        <ele>1691.2</ele>
        <time>2021-02-20T07:31:25Z</time>
      </trkpt>
      <trkpt lat="45.1753" lon="5.92268">
        <ele>1691.2</ele>
        <time>2021-02-20T07:31:26Z</time>
      </trkpt>
      <trkpt lat="45.17529" lon="5.92269">
        <ele>1691.3</ele>
        <time>2021-02-20T07:31:27Z</time>
      </trkpt>
      <trkpt lat="45.17529" lon="5.92271">
        <ele>1691.3</ele>
        <time>2021-02-20T07:31:28Z</time>
      </trkpt>
      <trkpt lat="45.17529" lon="5.92272">
        <ele>1691.4</ele>
        <time>2021-02-20T07:31:29Z</time>
      </trkpt>
      <trkpt lat="45.17528" lon="5.92273">
        <ele>1691.5</ele>
        <time>2021-02-20T07:31:30Z</time>
      </trkpt>
      <trkpt lat="45.17528" lon="5.92274">
        <ele>1691.5</ele>
        <time>2021-02-20T07:31:31Z</time>
      </trkpt>
      <trkpt lat="45.17528" lon="5.92275">
        <ele>1691.6</ele>
        <time>2021-02-20T07:31:32Z</time>
      </trkpt>
      <trkpt lat="45.17527" lon="5.92277">
        <ele>1691.6</ele>
        <time>2021-02-20T07:31:33Z</time>
      </trkpt>
      <trkpt lat="45.17527" lon="5.92279">
        <ele>1691.7</ele>
        <time>2021-02-20T07:31:34Z</time>
      </trkpt>
      <trkpt lat="45.17526" lon="5.9228">
        <ele>1691.7</ele>
        <time>2021-02-20T07:31:35Z</time>
      </trkpt>
      <trkpt lat="45.17526" lon="5.9228">
        <ele>1691.8</ele>
        <time>2021-02-20T07:31:36Z</time>
      </trkpt>
      <trkpt lat="45.17526" lon="5.92281">
        <ele>1691.8</ele>
        <time>2021-02-20T07:31:37Z</time>
      </trkpt>
      <trkpt lat="45.17525" lon="5.92283">
        <ele>1691.9</ele>
        <time>2021-02-20T07:31:38Z</time>
      </trkpt>
      <trkpt lat="45.17525" lon="5.92284">
        <ele>1691.9</ele>
        <time>2021-02-20T07:31:39Z</time>
      </trkpt>
      <trkpt lat="45.17524" lon="5.92285">
        <ele>1692</ele>
        <time>2021-02-20T07:31:40Z</time>
      </trkpt>
      <trkpt lat="45.17524" lon="5.92286">
        <ele>1692</ele>
        <time>2021-02-20T07:31:41Z</time>
      </trkpt>
      <trkpt lat="45.17523" lon="5.92288">
        <ele>1692.1</ele>
        <time>2021-02-20T07:31:42Z</time>
      </trkpt>
      <trkpt lat="45.17523" lon="5.92289">
        <ele>1692.2</ele>
        <time>2021-02-20T07:31:43Z</time>
      </trkpt>
      <trkpt lat="45.17523" lon="5.92292">
        <ele>1692.3</ele>
        <time>2021-02-20T07:31:44Z</time>
      </trkpt>
      <trkpt lat="45.17523" lon="5.92293">
        <ele>1692.3</ele>
        <time>2021-02-20T07:31:45Z</time>
      </trkpt>
      <trkpt lat="45.17523" lon="5.92294">
        <ele>1692.4</ele>
        <time>2021-02-20T07:31:46Z</time>
      </trkpt>
      <trkpt lat="45.17522" lon="5.92296">
        <ele>1692.5</ele>
        <time>2021-02-20T07:31:47Z</time>
      </trkpt>
      <trkpt lat="45.17522" lon="5.92297">
        <ele>1692.5</ele>
        <time>2021-02-20T07:31:48Z</time>
      </trkpt>
      <trkpt lat="45.17521" lon="5.92298">
        <ele>1692.5</ele>
        <time>2021-02-20T07:31:49Z</time>
      </trkpt>
      <trkpt lat="45.17521" lon="5.92299">
        <ele>1692.6</ele>
        <time>2021-02-20T07:31:50Z</time>
      </trkpt>
      <trkpt lat="45.17521" lon="5.923">
        <ele>1692.6</ele>
        <time>2021-02-20T07:31:51Z</time>
      </trkpt>
      <trkpt lat="45.17521" lon="5.92301">
        <ele>1692.6</ele>
        <time>2021-02-20T07:31:52Z</time>
      </trkpt>
      <trkpt lat="45.1752" lon="5.92302">
        <ele>1692.7</ele>
        <time>2021-02-20T07:31:53Z</time>
      </trkpt>
      <trkpt lat="45.1752" lon="5.92302">
        <ele>1692.7</ele>
        <time>2021-02-20T07:31:54Z</time>
      </trkpt>
      <trkpt lat="45.1752" lon="5.92302">
        <ele>1692.7</ele>
        <time>2021-02-20T07:31:55Z</time>
      </trkpt>
      <trkpt lat="45.1752" lon="5.92303">
        <ele>1692.7</ele>
        <time>2021-02-20T07:31:56Z</time>
      </trkpt>
      <trkpt lat="45.1752" lon="5.92304">
        <ele>1692.8</ele>
        <time>2021-02-20T07:31:57Z</time>
      </trkpt>
      <trkpt lat="45.17519" lon="5.92304">
        <ele>1692.8</ele>
        <time>2021-02-20T07:31:58Z</time>
      </trkpt>
      <trkpt lat="45.17519" lon="5.92305">
        <ele>1692.8</ele>
        <time>2021-02-20T07:31:59Z</time>
      </trkpt>
      <trkpt lat="45.17518" lon="5.92305">
        <ele>1692.8</ele>
        <time>2021-02-20T07:32:00Z</time>
      </trkpt>
      <trkpt lat="45.17518" lon="5.92306">
        <ele>1692.8</ele>
        <time>2021-02-20T07:32:01Z</time>
      </trkpt>
      <trkpt lat="45.17518" lon="5.92306">
        <ele>1692.8</ele>
        <time>2021-02-20T07:32:02Z</time>
      </trkpt>
      <trkpt lat="45.17517" lon="5.92308">
        <ele>1692.9</ele>
        <time>2021-02-20T07:32:03Z</time>
      </trkpt>
      <trkpt lat="45.17517" lon="5.92309">
        <ele>1692.9</ele>
        <time>2021-02-20T07:32:04Z</time>
      </trkpt>
      <trkpt lat="45.17517" lon="5.9231">
        <ele>1693</ele>
        <time>2021-02-20T07:32:05Z</time>
      </trkpt>
      <trkpt lat="45.17518" lon="5.92312">
        <ele>1693.1</ele>
        <time>2021-02-20T07:32:06Z</time>
      </trkpt>
      <trkpt lat="45.17519" lon="5.92313">
        <ele>1693.1</ele>
        <time>2021-02-20T07:32:07Z</time>
      </trkpt>
      <trkpt lat="45.1752" lon="5.92314">
        <ele>1693.2</ele>
        <time>2021-02-20T07:32:08Z</time>
      </trkpt>
      <trkpt lat="45.1752" lon="5.92314">
        <ele>1693.2</ele>
        <time>2021-02-20T07:32:09Z</time>
      </trkpt>
      <trkpt lat="45.1752" lon="5.92314">
        <ele>1693.2</ele>
        <time>2021-02-20T07:32:10Z</time>
      </trkpt>
      <trkpt lat="45.1752" lon="5.92314">
        <ele>1693.2</ele>
        <time>2021-02-20T07:32:11Z</time>
      </trkpt>
      <trkpt lat="45.17521" lon="5.92317">
        <ele>1693.3</ele>
        <time>2021-02-20T07:32:12Z</time>
      </trkpt>
      <trkpt lat="45.17522" lon="5.92318">
        <ele>1693.4</ele>
        <time>2021-02-20T07:32:13Z</time>
      </trkpt>
      <trkpt lat="45.17523" lon="5.9232">
        <ele>1693.5</ele>
        <time>2021-02-20T07:32:14Z</time>
      </trkpt>
      <trkpt lat="45.17524" lon="5.92321">
        <ele>1693.5</ele>
        <time>2021-02-20T07:32:15Z</time>
      </trkpt>
      <trkpt lat="45.17524" lon="5.92322">
        <ele>1693.6</ele>
        <time>2021-02-20T07:32:16Z</time>
      </trkpt>
      <trkpt lat="45.17525" lon="5.92322">
        <ele>1693.6</ele>
        <time>2021-02-20T07:32:17Z</time>
      </trkpt>
      <trkpt lat="45.17525" lon="5.92323">
        <ele>1693.6</ele>
        <time>2021-02-20T07:32:18Z</time>
      </trkpt>
      <trkpt lat="45.17526" lon="5.92324">
        <ele>1693.7</ele>
        <time>2021-02-20T07:32:19Z</time>
      </trkpt>
      <trkpt lat="45.17527" lon="5.92325">
        <ele>1693.8</ele>
        <time>2021-02-20T07:32:20Z</time>
      </trkpt>
      <trkpt lat="45.17527" lon="5.92326">
        <ele>1693.8</ele>
        <time>2021-02-20T07:32:21Z</time>
      </trkpt>
      <trkpt lat="45.17528" lon="5.92327">
        <ele>1693.9</ele>
        <time>2021-02-20T07:32:22Z</time>
      </trkpt>
      <trkpt lat="45.17529" lon="5.92328">
        <ele>1693.9</ele>
        <time>2021-02-20T07:32:23Z</time>
      </trkpt>
      <trkpt lat="45.17529" lon="5.9233">
        <ele>1694</ele>
        <time>2021-02-20T07:32:24Z</time>
      </trkpt>
      <trkpt lat="45.1753" lon="5.9233">
        <ele>1694</ele>
        <time>2021-02-20T07:32:25Z</time>
      </trkpt>
      <trkpt lat="45.17531" lon="5.92332">
        <ele>1694.1</ele>
        <time>2021-02-20T07:32:26Z</time>
      </trkpt>
      <trkpt lat="45.17532" lon="5.92334">
        <ele>1694.2</ele>
        <time>2021-02-20T07:32:27Z</time>
      </trkpt>
      <trkpt lat="45.17533" lon="5.92337">
        <ele>1694.3</ele>
        <time>2021-02-20T07:32:28Z</time>
      </trkpt>
      <trkpt lat="45.17534" lon="5.92338">
        <ele>1694.3</ele>
        <time>2021-02-20T07:32:29Z</time>
      </trkpt>
      <trkpt lat="45.17534" lon="5.92339">
        <ele>1694.3</ele>
        <time>2021-02-20T07:32:30Z</time>
      </trkpt>
      <trkpt lat="45.17535" lon="5.9234">
        <ele>1694.4</ele>
        <time>2021-02-20T07:32:31Z</time>
      </trkpt>
      <trkpt lat="45.17537" lon="5.92341">
        <ele>1694.4</ele>
        <time>2021-02-20T07:32:32Z</time>
      </trkpt>
      <trkpt lat="45.17537" lon="5.92342">
        <ele>1694.5</ele>
        <time>2021-02-20T07:32:33Z</time>
      </trkpt>
      <trkpt lat="45.17538" lon="5.92343">
        <ele>1694.5</ele>
        <time>2021-02-20T07:32:34Z</time>
      </trkpt>
      <trkpt lat="45.17538" lon="5.92344">
        <ele>1694.5</ele>
        <time>2021-02-20T07:32:35Z</time>
      </trkpt>
      <trkpt lat="45.17539" lon="5.92345">
        <ele>1694.6</ele>
        <time>2021-02-20T07:32:36Z</time>
      </trkpt>
      <trkpt lat="45.17539" lon="5.92347">
        <ele>1694.6</ele>
        <time>2021-02-20T07:32:37Z</time>
      </trkpt>
      <trkpt lat="45.1754" lon="5.92348">
        <ele>1694.7</ele>
        <time>2021-02-20T07:32:38Z</time>
      </trkpt>
      <trkpt lat="45.17541" lon="5.92351">
        <ele>1694.8</ele>
        <time>2021-02-20T07:32:39Z</time>
      </trkpt>
      <trkpt lat="45.17541" lon="5.92352">
        <ele>1694.8</ele>
        <time>2021-02-20T07:32:40Z</time>
      </trkpt>
      <trkpt lat="45.17541" lon="5.92353">
        <ele>1694.8</ele>
        <time>2021-02-20T07:32:41Z</time>
      </trkpt>
      <trkpt lat="45.17541" lon="5.92355">
        <ele>1694.8</ele>
        <time>2021-02-20T07:32:42Z</time>
      </trkpt>
      <trkpt lat="45.17541" lon="5.92357">
        <ele>1694.9</ele>
        <time>2021-02-20T07:32:43Z</time>
      </trkpt>
      <trkpt lat="45.17541" lon="5.92358">
        <ele>1694.9</ele>
        <time>2021-02-20T07:32:44Z</time>
      </trkpt>
      <trkpt lat="45.1754" lon="5.92361">
        <ele>1695</ele>
        <time>2021-02-20T07:32:45Z</time>
      </trkpt>
      <trkpt lat="45.17539" lon="5.92362">
        <ele>1695</ele>
        <time>2021-02-20T07:32:46Z</time>
      </trkpt>
      <trkpt lat="45.17539" lon="5.92363">
        <ele>1695.1</ele>
        <time>2021-02-20T07:32:47Z</time>
      </trkpt>
      <trkpt lat="45.17538" lon="5.92364">
        <ele>1695.1</ele>
        <time>2021-02-20T07:32:48Z</time>
      </trkpt>
      <trkpt lat="45.17537" lon="5.92365">
        <ele>1695.1</ele>
        <time>2021-02-20T07:32:49Z</time>
      </trkpt>
      <trkpt lat="45.17537" lon="5.92366">
        <ele>1695.2</ele>
        <time>2021-02-20T07:32:50Z</time>
      </trkpt>
      <trkpt lat="45.17536" lon="5.92367">
        <ele>1695.2</ele>
        <time>2021-02-20T07:32:51Z</time>
      </trkpt>
      <trkpt lat="45.17536" lon="5.92368">
        <ele>1695.2</ele>
        <time>2021-02-20T07:32:52Z</time>
      </trkpt>
      <trkpt lat="45.17535" lon="5.92369">
        <ele>1695.3</ele>
        <time>2021-02-20T07:32:53Z</time>
      </trkpt>
      <trkpt lat="45.17534" lon="5.92369">
        <ele>1695.3</ele>
        <time>2021-02-20T07:32:54Z</time>
      </trkpt>
      <trkpt lat="45.17534" lon="5.9237">
        <ele>1695.3</ele>
        <time>2021-02-20T07:32:55Z</time>
      </trkpt>
      <trkpt lat="45.17533" lon="5.9237">
        <ele>1695.4</ele>
        <time>2021-02-20T07:32:56Z</time>
      </trkpt>
      <trkpt lat="45.17532" lon="5.9237">
        <ele>1695.4</ele>
        <time>2021-02-20T07:32:57Z</time>
      </trkpt>
      <trkpt lat="45.17532" lon="5.92371">
        <ele>1695.4</ele>
        <time>2021-02-20T07:32:58Z</time>
      </trkpt>
      <trkpt lat="45.17531" lon="5.92372">
        <ele>1695.5</ele>
        <time>2021-02-20T07:32:59Z</time>
      </trkpt>
      <trkpt lat="45.17531" lon="5.92373">
        <ele>1695.5</ele>
        <time>2021-02-20T07:33:00Z</time>
      </trkpt>
      <trkpt lat="45.1753" lon="5.92374">
        <ele>1695.5</ele>
        <time>2021-02-20T07:33:01Z</time>
      </trkpt>
      <trkpt lat="45.1753" lon="5.92375">
        <ele>1695.6</ele>
        <time>2021-02-20T07:33:02Z</time>
      </trkpt>
      <trkpt lat="45.17529" lon="5.92375">
        <ele>1695.6</ele>
        <time>2021-02-20T07:33:03Z</time>
      </trkpt>
      <trkpt lat="45.17528" lon="5.92376">
        <ele>1695.7</ele>
        <time>2021-02-20T07:33:04Z</time>
      </trkpt>
      <trkpt lat="45.17527" lon="5.92377">
        <ele>1695.7</ele>
        <time>2021-02-20T07:33:05Z</time>
      </trkpt>
      <trkpt lat="45.17526" lon="5.92377">
        <ele>1695.8</ele>
        <time>2021-02-20T07:33:06Z</time>
      </trkpt>
      <trkpt lat="45.17525" lon="5.92378">
        <ele>1695.8</ele>
        <time>2021-02-20T07:33:07Z</time>
      </trkpt>
      <trkpt lat="45.17525" lon="5.92378">
        <ele>1695.9</ele>
        <time>2021-02-20T07:33:08Z</time>
      </trkpt>
      <trkpt lat="45.17524" lon="5.92378">
        <ele>1695.9</ele>
        <time>2021-02-20T07:33:09Z</time>
      </trkpt>
      <trkpt lat="45.17523" lon="5.92378">
        <ele>1696</ele>
        <time>2021-02-20T07:33:10Z</time>
      </trkpt>
      <trkpt lat="45.17522" lon="5.92379">
        <ele>1696</ele>
        <time>2021-02-20T07:33:11Z</time>
      </trkpt>
      <trkpt lat="45.17521" lon="5.92379">
        <ele>1696.1</ele>
        <time>2021-02-20T07:33:12Z</time>
      </trkpt>
      <trkpt lat="45.1752" lon="5.92378">
        <ele>1696.1</ele>
        <time>2021-02-20T07:33:13Z</time>
      </trkpt>
      <trkpt lat="45.17519" lon="5.92379">
        <ele>1696.2</ele>
        <time>2021-02-20T07:33:14Z</time>
      </trkpt>
      <trkpt lat="45.17519" lon="5.92379">
        <ele>1696.2</ele>
        <time>2021-02-20T07:33:15Z</time>
      </trkpt>
      <trkpt lat="45.17518" lon="5.92379">
        <ele>1696.3</ele>
        <time>2021-02-20T07:33:16Z</time>
      </trkpt>
      <trkpt lat="45.17517" lon="5.9238">
        <ele>1696.3</ele>
        <time>2021-02-20T07:33:17Z</time>
      </trkpt>
      <trkpt lat="45.17516" lon="5.9238">
        <ele>1696.3</ele>
        <time>2021-02-20T07:33:18Z</time>
      </trkpt>
      <trkpt lat="45.17516" lon="5.92381">
        <ele>1696.4</ele>
        <time>2021-02-20T07:33:19Z</time>
      </trkpt>
      <trkpt lat="45.17515" lon="5.92381">
        <ele>1696.4</ele>
        <time>2021-02-20T07:33:20Z</time>
      </trkpt>
      <trkpt lat="45.17514" lon="5.92382">
        <ele>1696.5</ele>
        <time>2021-02-20T07:33:21Z</time>
      </trkpt>
      <trkpt lat="45.17513" lon="5.92382">
        <ele>1696.5</ele>
        <time>2021-02-20T07:33:22Z</time>
      </trkpt>
      <trkpt lat="45.17513" lon="5.92383">
        <ele>1696.6</ele>
        <time>2021-02-20T07:33:23Z</time>
      </trkpt>
      <trkpt lat="45.17512" lon="5.92384">
        <ele>1696.7</ele>
        <time>2021-02-20T07:33:24Z</time>
      </trkpt>
      <trkpt lat="45.17511" lon="5.92384">
        <ele>1696.7</ele>
        <time>2021-02-20T07:33:25Z</time>
      </trkpt>
      <trkpt lat="45.1751" lon="5.92385">
        <ele>1696.8</ele>
        <time>2021-02-20T07:33:26Z</time>
      </trkpt>
      <trkpt lat="45.17509" lon="5.92385">
        <ele>1696.8</ele>
        <time>2021-02-20T07:33:27Z</time>
      </trkpt>
      <trkpt lat="45.17507" lon="5.92385">
        <ele>1697</ele>
        <time>2021-02-20T07:33:28Z</time>
      </trkpt>
      <trkpt lat="45.17506" lon="5.92386">
        <ele>1697</ele>
        <time>2021-02-20T07:33:29Z</time>
      </trkpt>
      <trkpt lat="45.17505" lon="5.92386">
        <ele>1697.1</ele>
        <time>2021-02-20T07:33:30Z</time>
      </trkpt>
      <trkpt lat="45.17504" lon="5.92386">
        <ele>1697.1</ele>
        <time>2021-02-20T07:33:31Z</time>
      </trkpt>
      <trkpt lat="45.17503" lon="5.92387">
        <ele>1697.2</ele>
        <time>2021-02-20T07:33:32Z</time>
      </trkpt>
      <trkpt lat="45.17502" lon="5.92387">
        <ele>1697.3</ele>
        <time>2021-02-20T07:33:33Z</time>
      </trkpt>
      <trkpt lat="45.175" lon="5.92388">
        <ele>1697.4</ele>
        <time>2021-02-20T07:33:34Z</time>
      </trkpt>
      <trkpt lat="45.17499" lon="5.92388">
        <ele>1697.5</ele>
        <time>2021-02-20T07:33:35Z</time>
      </trkpt>
      <trkpt lat="45.17498" lon="5.92389">
        <ele>1697.5</ele>
        <time>2021-02-20T07:33:36Z</time>
      </trkpt>
      <trkpt lat="45.17496" lon="5.92389">
        <ele>1697.6</ele>
        <time>2021-02-20T07:33:37Z</time>
      </trkpt>
      <trkpt lat="45.17495" lon="5.9239">
        <ele>1697.7</ele>
        <time>2021-02-20T07:33:38Z</time>
      </trkpt>
      <trkpt lat="45.17495" lon="5.92391">
        <ele>1697.7</ele>
        <time>2021-02-20T07:33:39Z</time>
      </trkpt>
      <trkpt lat="45.17494" lon="5.92392">
        <ele>1697.8</ele>
        <time>2021-02-20T07:33:40Z</time>
      </trkpt>
      <trkpt lat="45.17494" lon="5.92393">
        <ele>1697.8</ele>
        <time>2021-02-20T07:33:41Z</time>
      </trkpt>
      <trkpt lat="45.17493" lon="5.92394">
        <ele>1697.9</ele>
        <time>2021-02-20T07:33:42Z</time>
      </trkpt>
      <trkpt lat="45.17493" lon="5.92395">
        <ele>1697.9</ele>
        <time>2021-02-20T07:33:43Z</time>
      </trkpt>
      <trkpt lat="45.17492" lon="5.92396">
        <ele>1698</ele>
        <time>2021-02-20T07:33:44Z</time>
      </trkpt>
      <trkpt lat="45.17492" lon="5.92397">
        <ele>1698</ele>
        <time>2021-02-20T07:33:45Z</time>
      </trkpt>
      <trkpt lat="45.17491" lon="5.92398">
        <ele>1698.1</ele>
        <time>2021-02-20T07:33:46Z</time>
      </trkpt>
      <trkpt lat="45.1749" lon="5.92399">
        <ele>1698.1</ele>
        <time>2021-02-20T07:33:47Z</time>
      </trkpt>
      <trkpt lat="45.1749" lon="5.924">
        <ele>1698.2</ele>
        <time>2021-02-20T07:33:48Z</time>
      </trkpt>
      <trkpt lat="45.1749" lon="5.92401">
        <ele>1698.2</ele>
        <time>2021-02-20T07:33:49Z</time>
      </trkpt>
      <trkpt lat="45.17489" lon="5.92403">
        <ele>1698.3</ele>
        <time>2021-02-20T07:33:50Z</time>
      </trkpt>
      <trkpt lat="45.17489" lon="5.92405">
        <ele>1698.3</ele>
        <time>2021-02-20T07:33:51Z</time>
      </trkpt>
      <trkpt lat="45.17489" lon="5.92406">
        <ele>1698.4</ele>
        <time>2021-02-20T07:33:52Z</time>
      </trkpt>
      <trkpt lat="45.17489" lon="5.92407">
        <ele>1698.4</ele>
        <time>2021-02-20T07:33:53Z</time>
      </trkpt>
      <trkpt lat="45.17488" lon="5.92408">
        <ele>1698.5</ele>
        <time>2021-02-20T07:33:54Z</time>
      </trkpt>
      <trkpt lat="45.17487" lon="5.92409">
        <ele>1698.5</ele>
        <time>2021-02-20T07:33:55Z</time>
      </trkpt>
      <trkpt lat="45.17487" lon="5.9241">
        <ele>1698.6</ele>
        <time>2021-02-20T07:33:56Z</time>
      </trkpt>
      <trkpt lat="45.17487" lon="5.92411">
        <ele>1698.6</ele>
        <time>2021-02-20T07:33:57Z</time>
      </trkpt>
      <trkpt lat="45.17486" lon="5.92412">
        <ele>1698.7</ele>
        <time>2021-02-20T07:33:58Z</time>
      </trkpt>
      <trkpt lat="45.17486" lon="5.92412">
        <ele>1698.7</ele>
        <time>2021-02-20T07:33:59Z</time>
      </trkpt>
      <trkpt lat="45.17485" lon="5.92413">
        <ele>1698.7</ele>
        <time>2021-02-20T07:34:00Z</time>
      </trkpt>
      <trkpt lat="45.17485" lon="5.92413">
        <ele>1698.8</ele>
        <time>2021-02-20T07:34:01Z</time>
      </trkpt>
      <trkpt lat="45.17484" lon="5.92414">
        <ele>1698.8</ele>
        <time>2021-02-20T07:34:02Z</time>
      </trkpt>
      <trkpt lat="45.17483" lon="5.92414">
        <ele>1698.9</ele>
        <time>2021-02-20T07:34:03Z</time>
      </trkpt>
      <trkpt lat="45.17482" lon="5.92414">
        <ele>1698.9</ele>
        <time>2021-02-20T07:34:04Z</time>
      </trkpt>
      <trkpt lat="45.17481" lon="5.92414">
        <ele>1699</ele>
        <time>2021-02-20T07:34:05Z</time>
      </trkpt>
      <trkpt lat="45.17481" lon="5.92414">
        <ele>1699</ele>
        <time>2021-02-20T07:34:06Z</time>
      </trkpt>
      <trkpt lat="45.1748" lon="5.92415">
        <ele>1699.1</ele>
        <time>2021-02-20T07:34:07Z</time>
      </trkpt>
      <trkpt lat="45.17479" lon="5.92415">
        <ele>1699.1</ele>
        <time>2021-02-20T07:34:08Z</time>
      </trkpt>
      <trkpt lat="45.17479" lon="5.92416">
        <ele>1699.2</ele>
        <time>2021-02-20T07:34:09Z</time>
      </trkpt>
      <trkpt lat="45.17478" lon="5.92416">
        <ele>1699.2</ele>
        <time>2021-02-20T07:34:10Z</time>
      </trkpt>
      <trkpt lat="45.17477" lon="5.92417">
        <ele>1699.3</ele>
        <time>2021-02-20T07:34:11Z</time>
      </trkpt>
      <trkpt lat="45.17477" lon="5.92417">
        <ele>1699.3</ele>
        <time>2021-02-20T07:34:12Z</time>
      </trkpt>
      <trkpt lat="45.17476" lon="5.92418">
        <ele>1699.4</ele>
        <time>2021-02-20T07:34:13Z</time>
      </trkpt>
      <trkpt lat="45.17476" lon="5.92418">
        <ele>1699.4</ele>
        <time>2021-02-20T07:34:14Z</time>
      </trkpt>
      <trkpt lat="45.17476" lon="5.92419">
        <ele>1699.5</ele>
        <time>2021-02-20T07:34:15Z</time>
      </trkpt>
      <trkpt lat="45.17475" lon="5.9242">
        <ele>1699.5</ele>
        <time>2021-02-20T07:34:16Z</time>
      </trkpt>
      <trkpt lat="45.17475" lon="5.92422">
        <ele>1699.6</ele>
        <time>2021-02-20T07:34:17Z</time>
      </trkpt>
      <trkpt lat="45.17475" lon="5.92423">
        <ele>1699.6</ele>
        <time>2021-02-20T07:34:18Z</time>
      </trkpt>
      <trkpt lat="45.17474" lon="5.92424">
        <ele>1699.7</ele>
        <time>2021-02-20T07:34:19Z</time>
      </trkpt>
      <trkpt lat="45.17473" lon="5.92425">
        <ele>1699.8</ele>
        <time>2021-02-20T07:34:20Z</time>
      </trkpt>
      <trkpt lat="45.17473" lon="5.92426">
        <ele>1699.8</ele>
        <time>2021-02-20T07:34:21Z</time>
      </trkpt>
      <trkpt lat="45.17473" lon="5.92427">
        <ele>1699.9</ele>
        <time>2021-02-20T07:34:22Z</time>
      </trkpt>
      <trkpt lat="45.17472" lon="5.92428">
        <ele>1699.9</ele>
        <time>2021-02-20T07:34:23Z</time>
      </trkpt>
      <trkpt lat="45.17472" lon="5.92429">
        <ele>1700</ele>
        <time>2021-02-20T07:34:24Z</time>
      </trkpt>
      <trkpt lat="45.17471" lon="5.9243">
        <ele>1700</ele>
        <time>2021-02-20T07:34:25Z</time>
      </trkpt>
      <trkpt lat="45.17471" lon="5.92431">
        <ele>1700.1</ele>
        <time>2021-02-20T07:34:26Z</time>
      </trkpt>
      <trkpt lat="45.1747" lon="5.92432">
        <ele>1700.1</ele>
        <time>2021-02-20T07:34:27Z</time>
      </trkpt>
      <trkpt lat="45.1747" lon="5.92432">
        <ele>1700.2</ele>
        <time>2021-02-20T07:34:28Z</time>
      </trkpt>
      <trkpt lat="45.17469" lon="5.92433">
        <ele>1700.2</ele>
        <time>2021-02-20T07:34:29Z</time>
      </trkpt>
      <trkpt lat="45.17469" lon="5.92434">
        <ele>1700.3</ele>
        <time>2021-02-20T07:34:30Z</time>
      </trkpt>
      <trkpt lat="45.17468" lon="5.92435">
        <ele>1700.3</ele>
        <time>2021-02-20T07:34:31Z</time>
      </trkpt>
      <trkpt lat="45.17467" lon="5.92436">
        <ele>1700.4</ele>
        <time>2021-02-20T07:34:32Z</time>
      </trkpt>
      <trkpt lat="45.17467" lon="5.92436">
        <ele>1700.4</ele>
        <time>2021-02-20T07:34:33Z</time>
      </trkpt>
      <trkpt lat="45.17466" lon="5.92437">
        <ele>1700.5</ele>
        <time>2021-02-20T07:34:34Z</time>
      </trkpt>
      <trkpt lat="45.17466" lon="5.92438">
        <ele>1700.5</ele>
        <time>2021-02-20T07:34:35Z</time>
      </trkpt>
      <trkpt lat="45.17465" lon="5.92439">
        <ele>1700.6</ele>
        <time>2021-02-20T07:34:36Z</time>
      </trkpt>
      <trkpt lat="45.17464" lon="5.92441">
        <ele>1700.7</ele>
        <time>2021-02-20T07:34:37Z</time>
      </trkpt>
      <trkpt lat="45.17463" lon="5.92442">
        <ele>1700.7</ele>
        <time>2021-02-20T07:34:38Z</time>
      </trkpt>
      <trkpt lat="45.17462" lon="5.92442">
        <ele>1700.8</ele>
        <time>2021-02-20T07:34:39Z</time>
      </trkpt>
      <trkpt lat="45.17462" lon="5.92443">
        <ele>1700.8</ele>
        <time>2021-02-20T07:34:40Z</time>
      </trkpt>
      <trkpt lat="45.17461" lon="5.92444">
        <ele>1700.9</ele>
        <time>2021-02-20T07:34:41Z</time>
      </trkpt>
      <trkpt lat="45.17461" lon="5.92445">
        <ele>1701</ele>
        <time>2021-02-20T07:34:42Z</time>
      </trkpt>
      <trkpt lat="45.1746" lon="5.92446">
        <ele>1701</ele>
        <time>2021-02-20T07:34:43Z</time>
      </trkpt>
      <trkpt lat="45.17459" lon="5.92447">
        <ele>1701.1</ele>
        <time>2021-02-20T07:34:44Z</time>
      </trkpt>
      <trkpt lat="45.17459" lon="5.92448">
        <ele>1701.1</ele>
        <time>2021-02-20T07:34:45Z</time>
      </trkpt>
      <trkpt lat="45.17459" lon="5.9245">
        <ele>1701.2</ele>
        <time>2021-02-20T07:34:46Z</time>
      </trkpt>
      <trkpt lat="45.17459" lon="5.92452">
        <ele>1701.3</ele>
        <time>2021-02-20T07:34:47Z</time>
      </trkpt>
      <trkpt lat="45.17459" lon="5.92453">
        <ele>1701.3</ele>
        <time>2021-02-20T07:34:48Z</time>
      </trkpt>
      <trkpt lat="45.17459" lon="5.92454">
        <ele>1701.4</ele>
        <time>2021-02-20T07:34:49Z</time>
      </trkpt>
      <trkpt lat="45.17459" lon="5.92456">
        <ele>1701.4</ele>
        <time>2021-02-20T07:34:50Z</time>
      </trkpt>
      <trkpt lat="45.17459" lon="5.92457">
        <ele>1701.5</ele>
        <time>2021-02-20T07:34:51Z</time>
      </trkpt>
      <trkpt lat="45.17459" lon="5.92459">
        <ele>1701.6</ele>
        <time>2021-02-20T07:34:52Z</time>
      </trkpt>
      <trkpt lat="45.1746" lon="5.9246">
        <ele>1701.6</ele>
        <time>2021-02-20T07:34:53Z</time>
      </trkpt>
      <trkpt lat="45.1746" lon="5.92461">
        <ele>1701.7</ele>
        <time>2021-02-20T07:34:54Z</time>
      </trkpt>
      <trkpt lat="45.1746" lon="5.92463">
        <ele>1701.8</ele>
        <time>2021-02-20T07:34:55Z</time>
      </trkpt>
      <trkpt lat="45.1746" lon="5.92464">
        <ele>1701.8</ele>
        <time>2021-02-20T07:34:56Z</time>
      </trkpt>
      <trkpt lat="45.1746" lon="5.92465">
        <ele>1701.9</ele>
        <time>2021-02-20T07:34:57Z</time>
      </trkpt>
      <trkpt lat="45.17459" lon="5.92467">
        <ele>1702</ele>
        <time>2021-02-20T07:34:58Z</time>
      </trkpt>
      <trkpt lat="45.17459" lon="5.92468">
        <ele>1702</ele>
        <time>2021-02-20T07:34:59Z</time>
      </trkpt>
      <trkpt lat="45.17459" lon="5.92469">
        <ele>1702.1</ele>
        <time>2021-02-20T07:35:00Z</time>
      </trkpt>
      <trkpt lat="45.17459" lon="5.9247">
        <ele>1702.2</ele>
        <time>2021-02-20T07:35:01Z</time>
      </trkpt>
      <trkpt lat="45.17459" lon="5.92471">
        <ele>1702.2</ele>
        <time>2021-02-20T07:35:02Z</time>
      </trkpt>
      <trkpt lat="45.17458" lon="5.92472">
        <ele>1702.3</ele>
        <time>2021-02-20T07:35:03Z</time>
      </trkpt>
      <trkpt lat="45.17458" lon="5.92472">
        <ele>1702.3</ele>
        <time>2021-02-20T07:35:04Z</time>
      </trkpt>
      <trkpt lat="45.17457" lon="5.92472">
        <ele>1701.7</ele>
        <time>2021-02-20T07:35:05Z</time>
      </trkpt>
      <trkpt lat="45.17456" lon="5.92473">
        <ele>1703</ele>
        <time>2021-02-20T07:35:06Z</time>
      </trkpt>
      <trkpt lat="45.17455" lon="5.92473">
        <ele>1703</ele>
        <time>2021-02-20T07:35:07Z</time>
      </trkpt>
      <trkpt lat="45.17455" lon="5.92474">
        <ele>1703.1</ele>
        <time>2021-02-20T07:35:08Z</time>
      </trkpt>
      <trkpt lat="45.17454" lon="5.92474">
        <ele>1703.1</ele>
        <time>2021-02-20T07:35:09Z</time>
      </trkpt>
      <trkpt lat="45.17453" lon="5.92475">
        <ele>1704.4</ele>
        <time>2021-02-20T07:35:10Z</time>
      </trkpt>
      <trkpt lat="45.17453" lon="5.92477">
        <ele>1703.9</ele>
        <time>2021-02-20T07:35:11Z</time>
      </trkpt>
      <trkpt lat="45.17453" lon="5.92478">
        <ele>1703.9</ele>
        <time>2021-02-20T07:35:12Z</time>
      </trkpt>
      <trkpt lat="45.17453" lon="5.92479">
        <ele>1703.9</ele>
        <time>2021-02-20T07:35:13Z</time>
      </trkpt>
      <trkpt lat="45.17452" lon="5.9248">
        <ele>1704</ele>
        <time>2021-02-20T07:35:14Z</time>
      </trkpt>
      <trkpt lat="45.17452" lon="5.92481">
        <ele>1703.6</ele>
        <time>2021-02-20T07:35:15Z</time>
      </trkpt>
      <trkpt lat="45.17451" lon="5.92483">
        <ele>1703.6</ele>
        <time>2021-02-20T07:35:16Z</time>
      </trkpt>
      <trkpt lat="45.1745" lon="5.92483">
        <ele>1704.9</ele>
        <time>2021-02-20T07:35:17Z</time>
      </trkpt>
      <trkpt lat="45.17449" lon="5.92484">
        <ele>1704.9</ele>
        <time>2021-02-20T07:35:18Z</time>
      </trkpt>
      <trkpt lat="45.17448" lon="5.92485">
        <ele>1705</ele>
        <time>2021-02-20T07:35:19Z</time>
      </trkpt>
      <trkpt lat="45.17447" lon="5.92486">
        <ele>1705.9</ele>
        <time>2021-02-20T07:35:20Z</time>
      </trkpt>
      <trkpt lat="45.17446" lon="5.92486">
        <ele>1706</ele>
        <time>2021-02-20T07:35:21Z</time>
      </trkpt>
      <trkpt lat="45.17446" lon="5.92487">
        <ele>1706</ele>
        <time>2021-02-20T07:35:22Z</time>
      </trkpt>
      <trkpt lat="45.17445" lon="5.92487">
        <ele>1706</ele>
        <time>2021-02-20T07:35:23Z</time>
      </trkpt>
      <trkpt lat="45.17444" lon="5.92488">
        <ele>1707.4</ele>
        <time>2021-02-20T07:35:24Z</time>
      </trkpt>
      <trkpt lat="45.17443" lon="5.92488">
        <ele>1707.4</ele>
        <time>2021-02-20T07:35:25Z</time>
      </trkpt>
      <trkpt lat="45.17443" lon="5.92489">
        <ele>1707.5</ele>
        <time>2021-02-20T07:35:26Z</time>
      </trkpt>
      <trkpt lat="45.17442" lon="5.9249">
        <ele>1707.2</ele>
        <time>2021-02-20T07:35:27Z</time>
      </trkpt>
      <trkpt lat="45.17442" lon="5.92491">
        <ele>1707.3</ele>
        <time>2021-02-20T07:35:28Z</time>
      </trkpt>
      <trkpt lat="45.17441" lon="5.92492">
        <ele>1708.6</ele>
        <time>2021-02-20T07:35:29Z</time>
      </trkpt>
      <trkpt lat="45.17441" lon="5.92492">
        <ele>1708.7</ele>
        <time>2021-02-20T07:35:30Z</time>
      </trkpt>
      <trkpt lat="45.1744" lon="5.92493">
        <ele>1708.7</ele>
        <time>2021-02-20T07:35:31Z</time>
      </trkpt>
      <trkpt lat="45.1744" lon="5.92494">
        <ele>1708.5</ele>
        <time>2021-02-20T07:35:32Z</time>
      </trkpt>
      <trkpt lat="45.17439" lon="5.92496">
        <ele>1708.6</ele>
        <time>2021-02-20T07:35:33Z</time>
      </trkpt>
      <trkpt lat="45.17438" lon="5.92497">
        <ele>1708.6</ele>
        <time>2021-02-20T07:35:34Z</time>
      </trkpt>
      <trkpt lat="45.17438" lon="5.92497">
        <ele>1709.9</ele>
        <time>2021-02-20T07:35:35Z</time>
      </trkpt>
      <trkpt lat="45.17437" lon="5.92498">
        <ele>1709.9</ele>
        <time>2021-02-20T07:35:36Z</time>
      </trkpt>
      <trkpt lat="45.17436" lon="5.92498">
        <ele>1709.8</ele>
        <time>2021-02-20T07:35:37Z</time>
      </trkpt>
      <trkpt lat="45.17434" lon="5.92498">
        <ele>1711</ele>
        <time>2021-02-20T07:35:38Z</time>
      </trkpt>
      <trkpt lat="45.17433" lon="5.92498">
        <ele>1711</ele>
        <time>2021-02-20T07:35:39Z</time>
      </trkpt>
      <trkpt lat="45.17432" lon="5.92499">
        <ele>1712.1</ele>
        <time>2021-02-20T07:35:40Z</time>
      </trkpt>
      <trkpt lat="45.17431" lon="5.925">
        <ele>1712.1</ele>
        <time>2021-02-20T07:35:41Z</time>
      </trkpt>
      <trkpt lat="45.1743" lon="5.925">
        <ele>1712.1</ele>
        <time>2021-02-20T07:35:42Z</time>
      </trkpt>
      <trkpt lat="45.1743" lon="5.92501">
        <ele>1712.2</ele>
        <time>2021-02-20T07:35:43Z</time>
      </trkpt>
      <trkpt lat="45.17429" lon="5.92502">
        <ele>1713.7</ele>
        <time>2021-02-20T07:35:44Z</time>
      </trkpt>
      <trkpt lat="45.17428" lon="5.92503">
        <ele>1713.6</ele>
        <time>2021-02-20T07:35:45Z</time>
      </trkpt>
      <trkpt lat="45.17428" lon="5.92503">
        <ele>1713.6</ele>
        <time>2021-02-20T07:35:46Z</time>
      </trkpt>
      <trkpt lat="45.17427" lon="5.92504">
        <ele>1713.7</ele>
        <time>2021-02-20T07:35:47Z</time>
      </trkpt>
      <trkpt lat="45.17426" lon="5.92505">
        <ele>1714.6</ele>
        <time>2021-02-20T07:35:48Z</time>
      </trkpt>
      <trkpt lat="45.17425" lon="5.92505">
        <ele>1714.7</ele>
        <time>2021-02-20T07:35:49Z</time>
      </trkpt>
      <trkpt lat="45.17425" lon="5.92505">
        <ele>1714.7</ele>
        <time>2021-02-20T07:35:50Z</time>
      </trkpt>
      <trkpt lat="45.17424" lon="5.92506">
        <ele>1714.8</ele>
        <time>2021-02-20T07:35:51Z</time>
      </trkpt>
      <trkpt lat="45.17424" lon="5.92506">
        <ele>1714.8</ele>
        <time>2021-02-20T07:35:52Z</time>
      </trkpt>
      <trkpt lat="45.17423" lon="5.92507">
        <ele>1715.8</ele>
        <time>2021-02-20T07:35:53Z</time>
      </trkpt>
      <trkpt lat="45.17423" lon="5.92508">
        <ele>1715.8</ele>
        <time>2021-02-20T07:35:54Z</time>
      </trkpt>
      <trkpt lat="45.17422" lon="5.92508">
        <ele>1715.9</ele>
        <time>2021-02-20T07:35:55Z</time>
      </trkpt>
      <trkpt lat="45.17421" lon="5.92508">
        <ele>1715.9</ele>
        <time>2021-02-20T07:35:56Z</time>
      </trkpt>
      <trkpt lat="45.17421" lon="5.92508">
        <ele>1715.9</ele>
        <time>2021-02-20T07:35:57Z</time>
      </trkpt>
      <trkpt lat="45.1742" lon="5.92508">
        <ele>1717.1</ele>
        <time>2021-02-20T07:35:58Z</time>
      </trkpt>
      <trkpt lat="45.17419" lon="5.92509">
        <ele>1717.2</ele>
        <time>2021-02-20T07:35:59Z</time>
      </trkpt>
      <trkpt lat="45.17419" lon="5.92509">
        <ele>1717.2</ele>
        <time>2021-02-20T07:36:00Z</time>
      </trkpt>
      <trkpt lat="45.17418" lon="5.92509">
        <ele>1717.2</ele>
        <time>2021-02-20T07:36:01Z</time>
      </trkpt>
      <trkpt lat="45.17418" lon="5.9251">
        <ele>1717.3</ele>
        <time>2021-02-20T07:36:02Z</time>
      </trkpt>
      <trkpt lat="45.17418" lon="5.92511">
        <ele>1717.2</ele>
        <time>2021-02-20T07:36:03Z</time>
      </trkpt>
      <trkpt lat="45.17418" lon="5.92512">
        <ele>1717.2</ele>
        <time>2021-02-20T07:36:04Z</time>
      </trkpt>
      <trkpt lat="45.17418" lon="5.92513">
        <ele>1717.3</ele>
        <time>2021-02-20T07:36:05Z</time>
      </trkpt>
      <trkpt lat="45.17417" lon="5.92514">
        <ele>1717.3</ele>
        <time>2021-02-20T07:36:06Z</time>
      </trkpt>
      <trkpt lat="45.17417" lon="5.92514">
        <ele>1718.5</ele>
        <time>2021-02-20T07:36:07Z</time>
      </trkpt>
      <trkpt lat="45.17417" lon="5.92515">
        <ele>1718.6</ele>
        <time>2021-02-20T07:36:08Z</time>
      </trkpt>
      <trkpt lat="45.17416" lon="5.92515">
        <ele>1718.6</ele>
        <time>2021-02-20T07:36:09Z</time>
      </trkpt>
      <trkpt lat="45.17416" lon="5.92515">
        <ele>1718.6</ele>
        <time>2021-02-20T07:36:10Z</time>
      </trkpt>
      <trkpt lat="45.17415" lon="5.92516">
        <ele>1718.6</ele>
        <time>2021-02-20T07:36:11Z</time>
      </trkpt>
      <trkpt lat="45.17415" lon="5.92516">
        <ele>1718.7</ele>
        <time>2021-02-20T07:36:12Z</time>
      </trkpt>
      <trkpt lat="45.17414" lon="5.92517">
        <ele>1719.8</ele>
        <time>2021-02-20T07:36:13Z</time>
      </trkpt>
      <trkpt lat="45.17414" lon="5.92518">
        <ele>1719.9</ele>
        <time>2021-02-20T07:36:14Z</time>
      </trkpt>
      <trkpt lat="45.17413" lon="5.92519">
        <ele>1719.9</ele>
        <time>2021-02-20T07:36:15Z</time>
      </trkpt>
      <trkpt lat="45.17413" lon="5.9252">
        <ele>1720</ele>
        <time>2021-02-20T07:36:16Z</time>
      </trkpt>
      <trkpt lat="45.17413" lon="5.92521">
        <ele>1720</ele>
        <time>2021-02-20T07:36:17Z</time>
      </trkpt>
      <trkpt lat="45.17412" lon="5.92522">
        <ele>1720</ele>
        <time>2021-02-20T07:36:18Z</time>
      </trkpt>
      <trkpt lat="45.17412" lon="5.92523">
        <ele>1720.1</ele>
        <time>2021-02-20T07:36:19Z</time>
      </trkpt>
      <trkpt lat="45.17412" lon="5.92524">
        <ele>1720.2</ele>
        <time>2021-02-20T07:36:20Z</time>
      </trkpt>
      <trkpt lat="45.17411" lon="5.92525">
        <ele>1721.3</ele>
        <time>2021-02-20T07:36:21Z</time>
      </trkpt>
      <trkpt lat="45.17411" lon="5.92526">
        <ele>1721.3</ele>
        <time>2021-02-20T07:36:22Z</time>
      </trkpt>
      <trkpt lat="45.1741" lon="5.92527">
        <ele>1721.4</ele>
        <time>2021-02-20T07:36:23Z</time>
      </trkpt>
      <trkpt lat="45.1741" lon="5.92528">
        <ele>1721.4</ele>
        <time>2021-02-20T07:36:24Z</time>
      </trkpt>
      <trkpt lat="45.17409" lon="5.92529">
        <ele>1721.6</ele>
        <time>2021-02-20T07:36:25Z</time>
      </trkpt>
      <trkpt lat="45.17409" lon="5.92529">
        <ele>1721.7</ele>
        <time>2021-02-20T07:36:26Z</time>
      </trkpt>
      <trkpt lat="45.17408" lon="5.9253">
        <ele>1722.6</ele>
        <time>2021-02-20T07:36:27Z</time>
      </trkpt>
      <trkpt lat="45.17407" lon="5.9253">
        <ele>1722.7</ele>
        <time>2021-02-20T07:36:28Z</time>
      </trkpt>
      <trkpt lat="45.17407" lon="5.92531">
        <ele>1722.7</ele>
        <time>2021-02-20T07:36:29Z</time>
      </trkpt>
      <trkpt lat="45.17406" lon="5.92532">
        <ele>1722.8</ele>
        <time>2021-02-20T07:36:30Z</time>
      </trkpt>
      <trkpt lat="45.17405" lon="5.92532">
        <ele>1723.1</ele>
        <time>2021-02-20T07:36:31Z</time>
      </trkpt>
      <trkpt lat="45.17405" lon="5.92533">
        <ele>1723.1</ele>
        <time>2021-02-20T07:36:32Z</time>
      </trkpt>
      <trkpt lat="45.17405" lon="5.92534">
        <ele>1724.1</ele>
        <time>2021-02-20T07:36:33Z</time>
      </trkpt>
      <trkpt lat="45.17404" lon="5.92535">
        <ele>1724.1</ele>
        <time>2021-02-20T07:36:34Z</time>
      </trkpt>
      <trkpt lat="45.17403" lon="5.92536">
        <ele>1724.1</ele>
        <time>2021-02-20T07:36:35Z</time>
      </trkpt>
      <trkpt lat="45.17403" lon="5.92537">
        <ele>1724.5</ele>
        <time>2021-02-20T07:36:36Z</time>
      </trkpt>
      <trkpt lat="45.17402" lon="5.92538">
        <ele>1725.5</ele>
        <time>2021-02-20T07:36:37Z</time>
      </trkpt>
      <trkpt lat="45.17401" lon="5.92538">
        <ele>1725.6</ele>
        <time>2021-02-20T07:36:38Z</time>
      </trkpt>
      <trkpt lat="45.174" lon="5.92539">
        <ele>1725.6</ele>
        <time>2021-02-20T07:36:39Z</time>
      </trkpt>
      <trkpt lat="45.174" lon="5.92539">
        <ele>1725.6</ele>
        <time>2021-02-20T07:36:40Z</time>
      </trkpt>
      <trkpt lat="45.174" lon="5.92539">
        <ele>1725.7</ele>
        <time>2021-02-20T07:36:41Z</time>
      </trkpt>
      <trkpt lat="45.17399" lon="5.9254">
        <ele>1725.7</ele>
        <time>2021-02-20T07:36:42Z</time>
      </trkpt>
      <trkpt lat="45.17399" lon="5.9254">
        <ele>1726.8</ele>
        <time>2021-02-20T07:36:43Z</time>
      </trkpt>
      <trkpt lat="45.17398" lon="5.92541">
        <ele>1727.2</ele>
        <time>2021-02-20T07:36:44Z</time>
      </trkpt>
      <trkpt lat="45.17398" lon="5.92542">
        <ele>1727.3</ele>
        <time>2021-02-20T07:36:45Z</time>
      </trkpt>
      <trkpt lat="45.17397" lon="5.92543">
        <ele>1727.3</ele>
        <time>2021-02-20T07:36:46Z</time>
      </trkpt>
      <trkpt lat="45.17397" lon="5.92543">
        <ele>1727.3</ele>
        <time>2021-02-20T07:36:47Z</time>
      </trkpt>
      <trkpt lat="45.17396" lon="5.92543">
        <ele>1727.4</ele>
        <time>2021-02-20T07:36:48Z</time>
      </trkpt>
      <trkpt lat="45.17395" lon="5.92543">
        <ele>1728.6</ele>
        <time>2021-02-20T07:36:49Z</time>
      </trkpt>
      <trkpt lat="45.17395" lon="5.92543">
        <ele>1728.6</ele>
        <time>2021-02-20T07:36:50Z</time>
      </trkpt>
      <trkpt lat="45.17394" lon="5.92543">
        <ele>1728.6</ele>
        <time>2021-02-20T07:36:51Z</time>
      </trkpt>
      <trkpt lat="45.17393" lon="5.92544">
        <ele>1728.7</ele>
        <time>2021-02-20T07:36:52Z</time>
      </trkpt>
      <trkpt lat="45.17392" lon="5.92544">
        <ele>1729.9</ele>
        <time>2021-02-20T07:36:53Z</time>
      </trkpt>
      <trkpt lat="45.17392" lon="5.92544">
        <ele>1729.9</ele>
        <time>2021-02-20T07:36:54Z</time>
      </trkpt>
      <trkpt lat="45.17391" lon="5.92544">
        <ele>1729.9</ele>
        <time>2021-02-20T07:36:55Z</time>
      </trkpt>
      <trkpt lat="45.1739" lon="5.92544">
        <ele>1730</ele>
        <time>2021-02-20T07:36:56Z</time>
      </trkpt>
      <trkpt lat="45.1739" lon="5.92544">
        <ele>1731.2</ele>
        <time>2021-02-20T07:36:57Z</time>
      </trkpt>
      <trkpt lat="45.17389" lon="5.92544">
        <ele>1731.2</ele>
        <time>2021-02-20T07:36:58Z</time>
      </trkpt>
      <trkpt lat="45.17389" lon="5.92544">
        <ele>1731.2</ele>
        <time>2021-02-20T07:36:59Z</time>
      </trkpt>
      <trkpt lat="45.17388" lon="5.92544">
        <ele>1731.3</ele>
        <time>2021-02-20T07:37:00Z</time>
      </trkpt>
      <trkpt lat="45.17387" lon="5.92545">
        <ele>1731.3</ele>
        <time>2021-02-20T07:37:01Z</time>
      </trkpt>
      <trkpt lat="45.17387" lon="5.92545">
        <ele>1732.5</ele>
        <time>2021-02-20T07:37:02Z</time>
      </trkpt>
      <trkpt lat="45.17386" lon="5.92545">
        <ele>1732.5</ele>
        <time>2021-02-20T07:37:03Z</time>
      </trkpt>
      <trkpt lat="45.17386" lon="5.92545">
        <ele>1732.5</ele>
        <time>2021-02-20T07:37:04Z</time>
      </trkpt>
      <trkpt lat="45.17385" lon="5.92545">
        <ele>1732.9</ele>
        <time>2021-02-20T07:37:05Z</time>
      </trkpt>
      <trkpt lat="45.17385" lon="5.92545">
        <ele>1732.9</ele>
        <time>2021-02-20T07:37:06Z</time>
      </trkpt>
      <trkpt lat="45.17384" lon="5.92545">
        <ele>1733</ele>
        <time>2021-02-20T07:37:07Z</time>
      </trkpt>
      <trkpt lat="45.17384" lon="5.92545">
        <ele>1734</ele>
        <time>2021-02-20T07:37:08Z</time>
      </trkpt>
      <trkpt lat="45.17383" lon="5.92546">
        <ele>1734</ele>
        <time>2021-02-20T07:37:09Z</time>
      </trkpt>
      <trkpt lat="45.17383" lon="5.92547">
        <ele>1734.1</ele>
        <time>2021-02-20T07:37:10Z</time>
      </trkpt>
      <trkpt lat="45.17383" lon="5.92547">
        <ele>1734.1</ele>
        <time>2021-02-20T07:37:11Z</time>
      </trkpt>
      <trkpt lat="45.17383" lon="5.92548">
        <ele>1734.1</ele>
        <time>2021-02-20T07:37:12Z</time>
      </trkpt>
      <trkpt lat="45.17383" lon="5.92548">
        <ele>1734.2</ele>
        <time>2021-02-20T07:37:13Z</time>
      </trkpt>
      <trkpt lat="45.17383" lon="5.92549">
        <ele>1734.2</ele>
        <time>2021-02-20T07:37:14Z</time>
      </trkpt>
      <trkpt lat="45.17383" lon="5.92549">
        <ele>1734.2</ele>
        <time>2021-02-20T07:37:15Z</time>
      </trkpt>
      <trkpt lat="45.17383" lon="5.9255">
        <ele>1734.6</ele>
        <time>2021-02-20T07:37:16Z</time>
      </trkpt>
      <trkpt lat="45.17382" lon="5.92551">
        <ele>1734.6</ele>
        <time>2021-02-20T07:37:17Z</time>
      </trkpt>
      <trkpt lat="45.17382" lon="5.92551">
        <ele>1734.7</ele>
        <time>2021-02-20T07:37:18Z</time>
      </trkpt>
      <trkpt lat="45.17382" lon="5.92552">
        <ele>1734.7</ele>
        <time>2021-02-20T07:37:19Z</time>
      </trkpt>
      <trkpt lat="45.17382" lon="5.92553">
        <ele>1734.7</ele>
        <time>2021-02-20T07:37:20Z</time>
      </trkpt>
      <trkpt lat="45.17382" lon="5.92553">
        <ele>1734.8</ele>
        <time>2021-02-20T07:37:21Z</time>
      </trkpt>
      <trkpt lat="45.17382" lon="5.92554">
        <ele>1735.2</ele>
        <time>2021-02-20T07:37:22Z</time>
      </trkpt>
      <trkpt lat="45.17382" lon="5.92555">
        <ele>1735.2</ele>
        <time>2021-02-20T07:37:23Z</time>
      </trkpt>
      <trkpt lat="45.17382" lon="5.92556">
        <ele>1735.3</ele>
        <time>2021-02-20T07:37:24Z</time>
      </trkpt>
      <trkpt lat="45.17381" lon="5.92556">
        <ele>1735.3</ele>
        <time>2021-02-20T07:37:25Z</time>
      </trkpt>
      <trkpt lat="45.17381" lon="5.92557">
        <ele>1736.2</ele>
        <time>2021-02-20T07:37:26Z</time>
      </trkpt>
      <trkpt lat="45.1738" lon="5.92558">
        <ele>1736.2</ele>
        <time>2021-02-20T07:37:27Z</time>
      </trkpt>
      <trkpt lat="45.17379" lon="5.92558">
        <ele>1736.6</ele>
        <time>2021-02-20T07:37:28Z</time>
      </trkpt>
      <trkpt lat="45.17379" lon="5.92559">
        <ele>1736.7</ele>
        <time>2021-02-20T07:37:29Z</time>
      </trkpt>
      <trkpt lat="45.17378" lon="5.92559">
        <ele>1736.7</ele>
        <time>2021-02-20T07:37:30Z</time>
      </trkpt>
      <trkpt lat="45.17377" lon="5.9256">
        <ele>1737.5</ele>
        <time>2021-02-20T07:37:31Z</time>
      </trkpt>
      <trkpt lat="45.17377" lon="5.9256">
        <ele>1737.6</ele>
        <time>2021-02-20T07:37:32Z</time>
      </trkpt>
      <trkpt lat="45.17376" lon="5.92561">
        <ele>1737.6</ele>
        <time>2021-02-20T07:37:33Z</time>
      </trkpt>
      <trkpt lat="45.17375" lon="5.92562">
        <ele>1737.6</ele>
        <time>2021-02-20T07:37:34Z</time>
      </trkpt>
      <trkpt lat="45.17374" lon="5.92562">
        <ele>1738.4</ele>
        <time>2021-02-20T07:37:35Z</time>
      </trkpt>
      <trkpt lat="45.17374" lon="5.92563">
        <ele>1738.8</ele>
        <time>2021-02-20T07:37:36Z</time>
      </trkpt>
      <trkpt lat="45.17373" lon="5.92563">
        <ele>1738.8</ele>
        <time>2021-02-20T07:37:37Z</time>
      </trkpt>
      <trkpt lat="45.17372" lon="5.92564">
        <ele>1738.9</ele>
        <time>2021-02-20T07:37:38Z</time>
      </trkpt>
      <trkpt lat="45.17372" lon="5.92564">
        <ele>1739.6</ele>
        <time>2021-02-20T07:37:39Z</time>
      </trkpt>
      <trkpt lat="45.17371" lon="5.92564">
        <ele>1739.7</ele>
        <time>2021-02-20T07:37:40Z</time>
      </trkpt>
      <trkpt lat="45.1737" lon="5.92564">
        <ele>1739.7</ele>
        <time>2021-02-20T07:37:41Z</time>
      </trkpt>
      <trkpt lat="45.1737" lon="5.92564">
        <ele>1739.7</ele>
        <time>2021-02-20T07:37:42Z</time>
      </trkpt>
      <trkpt lat="45.1737" lon="5.92564">
        <ele>1739.8</ele>
        <time>2021-02-20T07:37:43Z</time>
      </trkpt>
      <trkpt lat="45.1737" lon="5.92564">
        <ele>1739.8</ele>
        <time>2021-02-20T07:37:44Z</time>
      </trkpt>
      <trkpt lat="45.1737" lon="5.92564">
        <ele>1739.9</ele>
        <time>2021-02-20T07:37:45Z</time>
      </trkpt>
      <trkpt lat="45.1737" lon="5.92564">
        <ele>1739.9</ele>
        <time>2021-02-20T07:37:46Z</time>
      </trkpt>
      <trkpt lat="45.1737" lon="5.92565">
        <ele>1739.9</ele>
        <time>2021-02-20T07:37:47Z</time>
      </trkpt>
      <trkpt lat="45.1737" lon="5.92567">
        <ele>1740.3</ele>
        <time>2021-02-20T07:37:48Z</time>
      </trkpt>
      <trkpt lat="45.1737" lon="5.92567">
        <ele>1740.3</ele>
        <time>2021-02-20T07:37:49Z</time>
      </trkpt>
      <trkpt lat="45.1737" lon="5.92568">
        <ele>1740.4</ele>
        <time>2021-02-20T07:37:50Z</time>
      </trkpt>
      <trkpt lat="45.17369" lon="5.92569">
        <ele>1740.4</ele>
        <time>2021-02-20T07:37:51Z</time>
      </trkpt>
      <trkpt lat="45.17369" lon="5.92569">
        <ele>1740.4</ele>
        <time>2021-02-20T07:37:52Z</time>
      </trkpt>
      <trkpt lat="45.17369" lon="5.9257">
        <ele>1740.5</ele>
        <time>2021-02-20T07:37:53Z</time>
      </trkpt>
      <trkpt lat="45.17369" lon="5.9257">
        <ele>1740.5</ele>
        <time>2021-02-20T07:37:54Z</time>
      </trkpt>
      <trkpt lat="45.17369" lon="5.92571">
        <ele>1741.3</ele>
        <time>2021-02-20T07:37:55Z</time>
      </trkpt>
      <trkpt lat="45.17368" lon="5.92571">
        <ele>1741.7</ele>
        <time>2021-02-20T07:37:56Z</time>
      </trkpt>
      <trkpt lat="45.17367" lon="5.92572">
        <ele>1741.7</ele>
        <time>2021-02-20T07:37:57Z</time>
      </trkpt>
      <trkpt lat="45.17367" lon="5.92572">
        <ele>1741.7</ele>
        <time>2021-02-20T07:37:58Z</time>
      </trkpt>
      <trkpt lat="45.17367" lon="5.92573">
        <ele>1741.8</ele>
        <time>2021-02-20T07:37:59Z</time>
      </trkpt>
      <trkpt lat="45.17366" lon="5.92573">
        <ele>1741.8</ele>
        <time>2021-02-20T07:38:00Z</time>
      </trkpt>
      <trkpt lat="45.17366" lon="5.92574">
        <ele>1742.6</ele>
        <time>2021-02-20T07:38:01Z</time>
      </trkpt>
      <trkpt lat="45.17365" lon="5.92574">
        <ele>1742.6</ele>
        <time>2021-02-20T07:38:02Z</time>
      </trkpt>
      <trkpt lat="45.17364" lon="5.92575">
        <ele>1743</ele>
        <time>2021-02-20T07:38:03Z</time>
      </trkpt>
      <trkpt lat="45.17363" lon="5.92576">
        <ele>1743.1</ele>
        <time>2021-02-20T07:38:04Z</time>
      </trkpt>
      <trkpt lat="45.17363" lon="5.92576">
        <ele>1743.1</ele>
        <time>2021-02-20T07:38:05Z</time>
      </trkpt>
      <trkpt lat="45.17362" lon="5.92577">
        <ele>1743.9</ele>
        <time>2021-02-20T07:38:06Z</time>
      </trkpt>
      <trkpt lat="45.17361" lon="5.92577">
        <ele>1743.9</ele>
        <time>2021-02-20T07:38:07Z</time>
      </trkpt>
      <trkpt lat="45.17361" lon="5.92578">
        <ele>1744</ele>
        <time>2021-02-20T07:38:08Z</time>
      </trkpt>
      <trkpt lat="45.1736" lon="5.92578">
        <ele>1744</ele>
        <time>2021-02-20T07:38:09Z</time>
      </trkpt>
      <trkpt lat="45.17359" lon="5.92579">
        <ele>1744.8</ele>
        <time>2021-02-20T07:38:10Z</time>
      </trkpt>
      <trkpt lat="45.17359" lon="5.9258">
        <ele>1745.2</ele>
        <time>2021-02-20T07:38:11Z</time>
      </trkpt>
      <trkpt lat="45.17358" lon="5.92581">
        <ele>1745.2</ele>
        <time>2021-02-20T07:38:12Z</time>
      </trkpt>
      <trkpt lat="45.17358" lon="5.92582">
        <ele>1745.3</ele>
        <time>2021-02-20T07:38:13Z</time>
      </trkpt>
      <trkpt lat="45.17358" lon="5.92583">
        <ele>1745.3</ele>
        <time>2021-02-20T07:38:14Z</time>
      </trkpt>
      <trkpt lat="45.17358" lon="5.92584">
        <ele>1745.7</ele>
        <time>2021-02-20T07:38:15Z</time>
      </trkpt>
      <trkpt lat="45.17357" lon="5.92584">
        <ele>1745.8</ele>
        <time>2021-02-20T07:38:16Z</time>
      </trkpt>
      <trkpt lat="45.17356" lon="5.92585">
        <ele>1746.5</ele>
        <time>2021-02-20T07:38:17Z</time>
      </trkpt>
      <trkpt lat="45.17356" lon="5.92586">
        <ele>1746.6</ele>
        <time>2021-02-20T07:38:18Z</time>
      </trkpt>
      <trkpt lat="45.17355" lon="5.92586">
        <ele>1746.6</ele>
        <time>2021-02-20T07:38:19Z</time>
      </trkpt>
      <trkpt lat="45.17354" lon="5.92587">
        <ele>1746.6</ele>
        <time>2021-02-20T07:38:20Z</time>
      </trkpt>
      <trkpt lat="45.17354" lon="5.92587">
        <ele>1747.4</ele>
        <time>2021-02-20T07:38:21Z</time>
      </trkpt>
      <trkpt lat="45.17353" lon="5.92588">
        <ele>1747.7</ele>
        <time>2021-02-20T07:38:22Z</time>
      </trkpt>
      <trkpt lat="45.17353" lon="5.92589">
        <ele>1747.8</ele>
        <time>2021-02-20T07:38:23Z</time>
      </trkpt>
      <trkpt lat="45.17352" lon="5.9259">
        <ele>1747.8</ele>
        <time>2021-02-20T07:38:24Z</time>
      </trkpt>
      <trkpt lat="45.17352" lon="5.9259">
        <ele>1747.8</ele>
        <time>2021-02-20T07:38:25Z</time>
      </trkpt>
      <trkpt lat="45.17351" lon="5.92591">
        <ele>1747.9</ele>
        <time>2021-02-20T07:38:26Z</time>
      </trkpt>
      <trkpt lat="45.17351" lon="5.92592">
        <ele>1747.9</ele>
        <time>2021-02-20T07:38:27Z</time>
      </trkpt>
      <trkpt lat="45.1735" lon="5.92592">
        <ele>1748.9</ele>
        <time>2021-02-20T07:38:28Z</time>
      </trkpt>
      <trkpt lat="45.1735" lon="5.92593">
        <ele>1748.9</ele>
        <time>2021-02-20T07:38:29Z</time>
      </trkpt>
      <trkpt lat="45.17349" lon="5.92593">
        <ele>1748.9</ele>
        <time>2021-02-20T07:38:30Z</time>
      </trkpt>
      <trkpt lat="45.17348" lon="5.92594">
        <ele>1749</ele>
        <time>2021-02-20T07:38:31Z</time>
      </trkpt>
      <trkpt lat="45.17348" lon="5.92594">
        <ele>1749</ele>
        <time>2021-02-20T07:38:32Z</time>
      </trkpt>
      <trkpt lat="45.17347" lon="5.92595">
        <ele>1749.6</ele>
        <time>2021-02-20T07:38:33Z</time>
      </trkpt>
      <trkpt lat="45.17347" lon="5.92596">
        <ele>1749.6</ele>
        <time>2021-02-20T07:38:34Z</time>
      </trkpt>
      <trkpt lat="45.17347" lon="5.92597">
        <ele>1750</ele>
        <time>2021-02-20T07:38:35Z</time>
      </trkpt>
      <trkpt lat="45.17347" lon="5.92597">
        <ele>1750</ele>
        <time>2021-02-20T07:38:36Z</time>
      </trkpt>
      <trkpt lat="45.17346" lon="5.92598">
        <ele>1750</ele>
        <time>2021-02-20T07:38:37Z</time>
      </trkpt>
      <trkpt lat="45.17345" lon="5.92599">
        <ele>1750.1</ele>
        <time>2021-02-20T07:38:38Z</time>
      </trkpt>
      <trkpt lat="45.17345" lon="5.92599">
        <ele>1750.1</ele>
        <time>2021-02-20T07:38:39Z</time>
      </trkpt>
      <trkpt lat="45.17344" lon="5.926">
        <ele>1750.7</ele>
        <time>2021-02-20T07:38:40Z</time>
      </trkpt>
      <trkpt lat="45.17344" lon="5.92601">
        <ele>1750.7</ele>
        <time>2021-02-20T07:38:41Z</time>
      </trkpt>
      <trkpt lat="45.17344" lon="5.92601">
        <ele>1751</ele>
        <time>2021-02-20T07:38:42Z</time>
      </trkpt>
      <trkpt lat="45.17343" lon="5.92602">
        <ele>1751</ele>
        <time>2021-02-20T07:38:43Z</time>
      </trkpt>
      <trkpt lat="45.17343" lon="5.92603">
        <ele>1751.1</ele>
        <time>2021-02-20T07:38:44Z</time>
      </trkpt>
      <trkpt lat="45.17343" lon="5.92604">
        <ele>1751.1</ele>
        <time>2021-02-20T07:38:45Z</time>
      </trkpt>
      <trkpt lat="45.17342" lon="5.92605">
        <ele>1751.1</ele>
        <time>2021-02-20T07:38:46Z</time>
      </trkpt>
      <trkpt lat="45.17341" lon="5.92606">
        <ele>1752</ele>
        <time>2021-02-20T07:38:47Z</time>
      </trkpt>
      <trkpt lat="45.17341" lon="5.92606">
        <ele>1752</ele>
        <time>2021-02-20T07:38:48Z</time>
      </trkpt>
      <trkpt lat="45.1734" lon="5.92607">
        <ele>1752.1</ele>
        <time>2021-02-20T07:38:49Z</time>
      </trkpt>
      <trkpt lat="45.1734" lon="5.92609">
        <ele>1752.1</ele>
        <time>2021-02-20T07:38:50Z</time>
      </trkpt>
      <trkpt lat="45.1734" lon="5.9261">
        <ele>1752.4</ele>
        <time>2021-02-20T07:38:51Z</time>
      </trkpt>
      <trkpt lat="45.17339" lon="5.92611">
        <ele>1752.4</ele>
        <time>2021-02-20T07:38:52Z</time>
      </trkpt>
      <trkpt lat="45.17339" lon="5.92612">
        <ele>1752.5</ele>
        <time>2021-02-20T07:38:53Z</time>
      </trkpt>
      <trkpt lat="45.17339" lon="5.92614">
        <ele>1752.8</ele>
        <time>2021-02-20T07:38:54Z</time>
      </trkpt>
      <trkpt lat="45.17339" lon="5.92615">
        <ele>1752.8</ele>
        <time>2021-02-20T07:38:55Z</time>
      </trkpt>
      <trkpt lat="45.17339" lon="5.92615">
        <ele>1752.9</ele>
        <time>2021-02-20T07:38:56Z</time>
      </trkpt>
      <trkpt lat="45.17338" lon="5.92616">
        <ele>1753.5</ele>
        <time>2021-02-20T07:38:57Z</time>
      </trkpt>
      <trkpt lat="45.17338" lon="5.92616">
        <ele>1753.5</ele>
        <time>2021-02-20T07:38:58Z</time>
      </trkpt>
      <trkpt lat="45.17338" lon="5.92616">
        <ele>1753.6</ele>
        <time>2021-02-20T07:38:59Z</time>
      </trkpt>
      <trkpt lat="45.17337" lon="5.92617">
        <ele>1753.6</ele>
        <time>2021-02-20T07:39:00Z</time>
      </trkpt>
      <trkpt lat="45.17337" lon="5.92618">
        <ele>1753.6</ele>
        <time>2021-02-20T07:39:01Z</time>
      </trkpt>
      <trkpt lat="45.17337" lon="5.92618">
        <ele>1753.9</ele>
        <time>2021-02-20T07:39:02Z</time>
      </trkpt>
      <trkpt lat="45.17336" lon="5.92619">
        <ele>1754</ele>
        <time>2021-02-20T07:39:03Z</time>
      </trkpt>
      <trkpt lat="45.17336" lon="5.9262">
        <ele>1754</ele>
        <time>2021-02-20T07:39:04Z</time>
      </trkpt>
      <trkpt lat="45.17336" lon="5.9262">
        <ele>1754</ele>
        <time>2021-02-20T07:39:05Z</time>
      </trkpt>
      <trkpt lat="45.17335" lon="5.9262">
        <ele>1754.7</ele>
        <time>2021-02-20T07:39:06Z</time>
      </trkpt>
      <trkpt lat="45.17334" lon="5.92621">
        <ele>1754.8</ele>
        <time>2021-02-20T07:39:07Z</time>
      </trkpt>
      <trkpt lat="45.17333" lon="5.92622">
        <ele>1754.8</ele>
        <time>2021-02-20T07:39:08Z</time>
      </trkpt>
      <trkpt lat="45.17333" lon="5.92622">
        <ele>1755.1</ele>
        <time>2021-02-20T07:39:09Z</time>
      </trkpt>
      <trkpt lat="45.17332" lon="5.92623">
        <ele>1755.8</ele>
        <time>2021-02-20T07:39:10Z</time>
      </trkpt>
      <trkpt lat="45.17332" lon="5.92624">
        <ele>1755.9</ele>
        <time>2021-02-20T07:39:11Z</time>
      </trkpt>
      <trkpt lat="45.17331" lon="5.92625">
        <ele>1755.9</ele>
        <time>2021-02-20T07:39:12Z</time>
      </trkpt>
      <trkpt lat="45.17331" lon="5.92625">
        <ele>1755.9</ele>
        <time>2021-02-20T07:39:13Z</time>
      </trkpt>
      <trkpt lat="45.1733" lon="5.92626">
        <ele>1756</ele>
        <time>2021-02-20T07:39:14Z</time>
      </trkpt>
      <trkpt lat="45.1733" lon="5.92627">
        <ele>1756.3</ele>
        <time>2021-02-20T07:39:15Z</time>
      </trkpt>
      <trkpt lat="45.17329" lon="5.92628">
        <ele>1757</ele>
        <time>2021-02-20T07:39:16Z</time>
      </trkpt>
      <trkpt lat="45.17329" lon="5.92628">
        <ele>1757</ele>
        <time>2021-02-20T07:39:17Z</time>
      </trkpt>
      <trkpt lat="45.17328" lon="5.92629">
        <ele>1757</ele>
        <time>2021-02-20T07:39:18Z</time>
      </trkpt>
      <trkpt lat="45.17328" lon="5.92629">
        <ele>1757.1</ele>
        <time>2021-02-20T07:39:19Z</time>
      </trkpt>
      <trkpt lat="45.17327" lon="5.9263">
        <ele>1757.1</ele>
        <time>2021-02-20T07:39:20Z</time>
      </trkpt>
      <trkpt lat="45.17326" lon="5.92631">
        <ele>1758</ele>
        <time>2021-02-20T07:39:21Z</time>
      </trkpt>
      <trkpt lat="45.17326" lon="5.92632">
        <ele>1758</ele>
        <time>2021-02-20T07:39:22Z</time>
      </trkpt>
      <trkpt lat="45.17325" lon="5.92633">
        <ele>1758.1</ele>
        <time>2021-02-20T07:39:23Z</time>
      </trkpt>
      <trkpt lat="45.17325" lon="5.92634">
        <ele>1758.1</ele>
        <time>2021-02-20T07:39:24Z</time>
      </trkpt>
      <trkpt lat="45.17324" lon="5.92634">
        <ele>1758.2</ele>
        <time>2021-02-20T07:39:25Z</time>
      </trkpt>
      <trkpt lat="45.17324" lon="5.92635">
        <ele>1758.5</ele>
        <time>2021-02-20T07:39:26Z</time>
      </trkpt>
      <trkpt lat="45.17324" lon="5.92636">
        <ele>1758.5</ele>
        <time>2021-02-20T07:39:27Z</time>
      </trkpt>
      <trkpt lat="45.17323" lon="5.92637">
        <ele>1758.6</ele>
        <time>2021-02-20T07:39:28Z</time>
      </trkpt>
      <trkpt lat="45.17323" lon="5.92637">
        <ele>1759.1</ele>
        <time>2021-02-20T07:39:29Z</time>
      </trkpt>
      <trkpt lat="45.17323" lon="5.92638">
        <ele>1759.2</ele>
        <time>2021-02-20T07:39:30Z</time>
      </trkpt>
      <trkpt lat="45.17322" lon="5.92639">
        <ele>1759.2</ele>
        <time>2021-02-20T07:39:31Z</time>
      </trkpt>
      <trkpt lat="45.17322" lon="5.9264">
        <ele>1759.6</ele>
        <time>2021-02-20T07:39:32Z</time>
      </trkpt>
      <trkpt lat="45.17322" lon="5.92641">
        <ele>1759.6</ele>
        <time>2021-02-20T07:39:33Z</time>
      </trkpt>
      <trkpt lat="45.17321" lon="5.92641">
        <ele>1759.7</ele>
        <time>2021-02-20T07:39:34Z</time>
      </trkpt>
      <trkpt lat="45.17321" lon="5.92642">
        <ele>1759.7</ele>
        <time>2021-02-20T07:39:35Z</time>
      </trkpt>
      <trkpt lat="45.1732" lon="5.92642">
        <ele>1760.2</ele>
        <time>2021-02-20T07:39:36Z</time>
      </trkpt>
      <trkpt lat="45.17319" lon="5.92642">
        <ele>1760.3</ele>
        <time>2021-02-20T07:39:37Z</time>
      </trkpt>
      <trkpt lat="45.17318" lon="5.92642">
        <ele>1760.3</ele>
        <time>2021-02-20T07:39:38Z</time>
      </trkpt>
      <trkpt lat="45.17317" lon="5.92643">
        <ele>1760.9</ele>
        <time>2021-02-20T07:39:39Z</time>
      </trkpt>
      <trkpt lat="45.17317" lon="5.92643">
        <ele>1760.9</ele>
        <time>2021-02-20T07:39:40Z</time>
      </trkpt>
      <trkpt lat="45.17316" lon="5.92644">
        <ele>1760.9</ele>
        <time>2021-02-20T07:39:41Z</time>
      </trkpt>
      <trkpt lat="45.17315" lon="5.92644">
        <ele>1761.4</ele>
        <time>2021-02-20T07:39:42Z</time>
      </trkpt>
      <trkpt lat="45.17315" lon="5.92644">
        <ele>1761.4</ele>
        <time>2021-02-20T07:39:43Z</time>
      </trkpt>
      <trkpt lat="45.17314" lon="5.92644">
        <ele>1761.4</ele>
        <time>2021-02-20T07:39:44Z</time>
      </trkpt>
      <trkpt lat="45.17314" lon="5.92645">
        <ele>1762.1</ele>
        <time>2021-02-20T07:39:45Z</time>
      </trkpt>
      <trkpt lat="45.17313" lon="5.92645">
        <ele>1762.1</ele>
        <time>2021-02-20T07:39:46Z</time>
      </trkpt>
      <trkpt lat="45.17312" lon="5.92646">
        <ele>1762.1</ele>
        <time>2021-02-20T07:39:47Z</time>
      </trkpt>
      <trkpt lat="45.17312" lon="5.92646">
        <ele>1762.2</ele>
        <time>2021-02-20T07:39:48Z</time>
      </trkpt>
      <trkpt lat="45.17311" lon="5.92646">
        <ele>1762.9</ele>
        <time>2021-02-20T07:39:49Z</time>
      </trkpt>
      <trkpt lat="45.1731" lon="5.92647">
        <ele>1762.9</ele>
        <time>2021-02-20T07:39:50Z</time>
      </trkpt>
      <trkpt lat="45.17309" lon="5.92647">
        <ele>1762.9</ele>
        <time>2021-02-20T07:39:51Z</time>
      </trkpt>
      <trkpt lat="45.17309" lon="5.92648">
        <ele>1763</ele>
        <time>2021-02-20T07:39:52Z</time>
      </trkpt>
      <trkpt lat="45.17308" lon="5.92648">
        <ele>1764.1</ele>
        <time>2021-02-20T07:39:53Z</time>
      </trkpt>
      <trkpt lat="45.17307" lon="5.92649">
        <ele>1764.1</ele>
        <time>2021-02-20T07:39:54Z</time>
      </trkpt>
      <trkpt lat="45.17307" lon="5.92649">
        <ele>1764.1</ele>
        <time>2021-02-20T07:39:55Z</time>
      </trkpt>
      <trkpt lat="45.17306" lon="5.9265">
        <ele>1764.2</ele>
        <time>2021-02-20T07:39:56Z</time>
      </trkpt>
      <trkpt lat="45.17305" lon="5.92651">
        <ele>1764.9</ele>
        <time>2021-02-20T07:39:57Z</time>
      </trkpt>
      <trkpt lat="45.17304" lon="5.92651">
        <ele>1764.9</ele>
        <time>2021-02-20T07:39:58Z</time>
      </trkpt>
      <trkpt lat="45.17304" lon="5.92651">
        <ele>1765</ele>
        <time>2021-02-20T07:39:59Z</time>
      </trkpt>
      <trkpt lat="45.17303" lon="5.92652">
        <ele>1765</ele>
        <time>2021-02-20T07:40:00Z</time>
      </trkpt>
      <trkpt lat="45.17302" lon="5.92652">
        <ele>1765</ele>
        <time>2021-02-20T07:40:01Z</time>
      </trkpt>
      <trkpt lat="45.17302" lon="5.92652">
        <ele>1765.7</ele>
        <time>2021-02-20T07:40:02Z</time>
      </trkpt>
      <trkpt lat="45.17301" lon="5.92652">
        <ele>1765.8</ele>
        <time>2021-02-20T07:40:03Z</time>
      </trkpt>
      <trkpt lat="45.17301" lon="5.92652">
        <ele>1766.2</ele>
        <time>2021-02-20T07:40:04Z</time>
      </trkpt>
      <trkpt lat="45.173" lon="5.92653">
        <ele>1766.2</ele>
        <time>2021-02-20T07:40:05Z</time>
      </trkpt>
      <trkpt lat="45.17299" lon="5.92653">
        <ele>1766.3</ele>
        <time>2021-02-20T07:40:06Z</time>
      </trkpt>
      <trkpt lat="45.17299" lon="5.92653">
        <ele>1766.9</ele>
        <time>2021-02-20T07:40:07Z</time>
      </trkpt>
      <trkpt lat="45.17299" lon="5.92654">
        <ele>1766.9</ele>
        <time>2021-02-20T07:40:08Z</time>
      </trkpt>
      <trkpt lat="45.17298" lon="5.92654">
        <ele>1767</ele>
        <time>2021-02-20T07:40:09Z</time>
      </trkpt>
      <trkpt lat="45.17298" lon="5.92655">
        <ele>1767</ele>
        <time>2021-02-20T07:40:10Z</time>
      </trkpt>
      <trkpt lat="45.17297" lon="5.92656">
        <ele>1767.1</ele>
        <time>2021-02-20T07:40:11Z</time>
      </trkpt>
      <trkpt lat="45.17297" lon="5.92656">
        <ele>1767.1</ele>
        <time>2021-02-20T07:40:12Z</time>
      </trkpt>
      <trkpt lat="45.17296" lon="5.92657">
        <ele>1767.1</ele>
        <time>2021-02-20T07:40:13Z</time>
      </trkpt>
      <trkpt lat="45.17296" lon="5.92657">
        <ele>1768.2</ele>
        <time>2021-02-20T07:40:14Z</time>
      </trkpt>
      <trkpt lat="45.17295" lon="5.92658">
        <ele>1768.2</ele>
        <time>2021-02-20T07:40:15Z</time>
      </trkpt>
      <trkpt lat="45.17294" lon="5.92659">
        <ele>1768.2</ele>
        <time>2021-02-20T07:40:16Z</time>
      </trkpt>
      <trkpt lat="45.17294" lon="5.9266">
        <ele>1768.3</ele>
        <time>2021-02-20T07:40:17Z</time>
      </trkpt>
      <trkpt lat="45.17294" lon="5.92661">
        <ele>1768.7</ele>
        <time>2021-02-20T07:40:18Z</time>
      </trkpt>
      <trkpt lat="45.17293" lon="5.92662">
        <ele>1769.4</ele>
        <time>2021-02-20T07:40:19Z</time>
      </trkpt>
      <trkpt lat="45.17292" lon="5.92662">
        <ele>1769.4</ele>
        <time>2021-02-20T07:40:20Z</time>
      </trkpt>
      <trkpt lat="45.17292" lon="5.92662">
        <ele>1769.5</ele>
        <time>2021-02-20T07:40:21Z</time>
      </trkpt>
      <trkpt lat="45.17291" lon="5.92662">
        <ele>1769.5</ele>
        <time>2021-02-20T07:40:22Z</time>
      </trkpt>
      <trkpt lat="45.17291" lon="5.92662">
        <ele>1769.6</ele>
        <time>2021-02-20T07:40:23Z</time>
      </trkpt>
      <trkpt lat="45.1729" lon="5.92662">
        <ele>1770.3</ele>
        <time>2021-02-20T07:40:24Z</time>
      </trkpt>
      <trkpt lat="45.17289" lon="5.92661">
        <ele>1770.3</ele>
        <time>2021-02-20T07:40:25Z</time>
      </trkpt>
      <trkpt lat="45.17288" lon="5.92661">
        <ele>1770.4</ele>
        <time>2021-02-20T07:40:26Z</time>
      </trkpt>
      <trkpt lat="45.17288" lon="5.92661">
        <ele>1770.4</ele>
        <time>2021-02-20T07:40:27Z</time>
      </trkpt>
      <trkpt lat="45.17287" lon="5.92661">
        <ele>1771.2</ele>
        <time>2021-02-20T07:40:28Z</time>
      </trkpt>
      <trkpt lat="45.17286" lon="5.92661">
        <ele>1770.9</ele>
        <time>2021-02-20T07:40:29Z</time>
      </trkpt>
      <trkpt lat="45.17285" lon="5.92661">
        <ele>1770.9</ele>
        <time>2021-02-20T07:40:30Z</time>
      </trkpt>
      <trkpt lat="45.17285" lon="5.9266">
        <ele>1770.9</ele>
        <time>2021-02-20T07:40:31Z</time>
      </trkpt>
      <trkpt lat="45.17284" lon="5.9266">
        <ele>1771.8</ele>
        <time>2021-02-20T07:40:32Z</time>
      </trkpt>
      <trkpt lat="45.17283" lon="5.9266">
        <ele>1771.9</ele>
        <time>2021-02-20T07:40:33Z</time>
      </trkpt>
      <trkpt lat="45.17282" lon="5.9266">
        <ele>1771.9</ele>
        <time>2021-02-20T07:40:34Z</time>
      </trkpt>
      <trkpt lat="45.17282" lon="5.9266">
        <ele>1771.9</ele>
        <time>2021-02-20T07:40:35Z</time>
      </trkpt>
      <trkpt lat="45.17281" lon="5.9266">
        <ele>1772</ele>
        <time>2021-02-20T07:40:36Z</time>
      </trkpt>
      <trkpt lat="45.1728" lon="5.9266">
        <ele>1772.9</ele>
        <time>2021-02-20T07:40:37Z</time>
      </trkpt>
      <trkpt lat="45.1728" lon="5.92659">
        <ele>1773</ele>
        <time>2021-02-20T07:40:38Z</time>
      </trkpt>
      <trkpt lat="45.17279" lon="5.92659">
        <ele>1773</ele>
        <time>2021-02-20T07:40:39Z</time>
      </trkpt>
      <trkpt lat="45.17278" lon="5.92659">
        <ele>1773</ele>
        <time>2021-02-20T07:40:40Z</time>
      </trkpt>
      <trkpt lat="45.17277" lon="5.92658">
        <ele>1774.1</ele>
        <time>2021-02-20T07:40:41Z</time>
      </trkpt>
      <trkpt lat="45.17277" lon="5.92658">
        <ele>1774.1</ele>
        <time>2021-02-20T07:40:42Z</time>
      </trkpt>
      <trkpt lat="45.17276" lon="5.92658">
        <ele>1774.1</ele>
        <time>2021-02-20T07:40:43Z</time>
      </trkpt>
      <trkpt lat="45.17276" lon="5.92658">
        <ele>1774.2</ele>
        <time>2021-02-20T07:40:44Z</time>
      </trkpt>
      <trkpt lat="45.17275" lon="5.92658">
        <ele>1774.2</ele>
        <time>2021-02-20T07:40:45Z</time>
      </trkpt>
      <trkpt lat="45.17274" lon="5.92657">
        <ele>1775.3</ele>
        <time>2021-02-20T07:40:46Z</time>
      </trkpt>
      <trkpt lat="45.17274" lon="5.92657">
        <ele>1775.3</ele>
        <time>2021-02-20T07:40:47Z</time>
      </trkpt>
      <trkpt lat="45.17273" lon="5.92657">
        <ele>1775.4</ele>
        <time>2021-02-20T07:40:48Z</time>
      </trkpt>
      <trkpt lat="45.17272" lon="5.92657">
        <ele>1775.4</ele>
        <time>2021-02-20T07:40:49Z</time>
      </trkpt>
      <trkpt lat="45.17272" lon="5.92656">
        <ele>1776.2</ele>
        <time>2021-02-20T07:40:50Z</time>
      </trkpt>
      <trkpt lat="45.17271" lon="5.92656">
        <ele>1776.3</ele>
        <time>2021-02-20T07:40:51Z</time>
      </trkpt>
      <trkpt lat="45.1727" lon="5.92656">
        <ele>1776.3</ele>
        <time>2021-02-20T07:40:52Z</time>
      </trkpt>
      <trkpt lat="45.17269" lon="5.92656">
        <ele>1777.4</ele>
        <time>2021-02-20T07:40:53Z</time>
      </trkpt>
      <trkpt lat="45.17268" lon="5.92656">
        <ele>1777.4</ele>
        <time>2021-02-20T07:40:54Z</time>
      </trkpt>
      <trkpt lat="45.17267" lon="5.92656">
        <ele>1777.5</ele>
        <time>2021-02-20T07:40:55Z</time>
      </trkpt>
      <trkpt lat="45.17266" lon="5.92655">
        <ele>1777.5</ele>
        <time>2021-02-20T07:40:56Z</time>
      </trkpt>
      <trkpt lat="45.17265" lon="5.92655">
        <ele>1778.6</ele>
        <time>2021-02-20T07:40:57Z</time>
      </trkpt>
      <trkpt lat="45.17264" lon="5.92655">
        <ele>1778.7</ele>
        <time>2021-02-20T07:40:58Z</time>
      </trkpt>
      <trkpt lat="45.17264" lon="5.92655">
        <ele>1778.7</ele>
        <time>2021-02-20T07:40:59Z</time>
      </trkpt>
      <trkpt lat="45.17263" lon="5.92655">
        <ele>1779.8</ele>
        <time>2021-02-20T07:41:00Z</time>
      </trkpt>
      <trkpt lat="45.17262" lon="5.92655">
        <ele>1779.8</ele>
        <time>2021-02-20T07:41:01Z</time>
      </trkpt>
      <trkpt lat="45.17261" lon="5.92655">
        <ele>1779.9</ele>
        <time>2021-02-20T07:41:02Z</time>
      </trkpt>
      <trkpt lat="45.17261" lon="5.92655">
        <ele>1779.9</ele>
        <time>2021-02-20T07:41:03Z</time>
      </trkpt>
      <trkpt lat="45.1726" lon="5.92655">
        <ele>1781.1</ele>
        <time>2021-02-20T07:41:04Z</time>
      </trkpt>
      <trkpt lat="45.17259" lon="5.92654">
        <ele>1781.1</ele>
        <time>2021-02-20T07:41:05Z</time>
      </trkpt>
      <trkpt lat="45.17259" lon="5.92653">
        <ele>1781.2</ele>
        <time>2021-02-20T07:41:06Z</time>
      </trkpt>
      <trkpt lat="45.17258" lon="5.92652">
        <ele>1781</ele>
        <time>2021-02-20T07:41:07Z</time>
      </trkpt>
      <trkpt lat="45.17258" lon="5.92653">
        <ele>1781.2</ele>
        <time>2021-02-20T07:41:08Z</time>
      </trkpt>
      <trkpt lat="45.17258" lon="5.92654">
        <ele>1781.3</ele>
        <time>2021-02-20T07:41:09Z</time>
      </trkpt>
      <trkpt lat="45.17258" lon="5.92655">
        <ele>1781.3</ele>
        <time>2021-02-20T07:41:10Z</time>
      </trkpt>
      <trkpt lat="45.17258" lon="5.92656">
        <ele>1781.3</ele>
        <time>2021-02-20T07:41:11Z</time>
      </trkpt>
      <trkpt lat="45.17257" lon="5.92657">
        <ele>1781.7</ele>
        <time>2021-02-20T07:41:12Z</time>
      </trkpt>
      <trkpt lat="45.17257" lon="5.92657">
        <ele>1781.7</ele>
        <time>2021-02-20T07:41:13Z</time>
      </trkpt>
      <trkpt lat="45.17257" lon="5.92658">
        <ele>1783</ele>
        <time>2021-02-20T07:41:14Z</time>
      </trkpt>
      <trkpt lat="45.17256" lon="5.92657">
        <ele>1783</ele>
        <time>2021-02-20T07:41:15Z</time>
      </trkpt>
      <trkpt lat="45.17255" lon="5.92657">
        <ele>1783</ele>
        <time>2021-02-20T07:41:16Z</time>
      </trkpt>
      <trkpt lat="45.17255" lon="5.92658">
        <ele>1783.1</ele>
        <time>2021-02-20T07:41:17Z</time>
      </trkpt>
      <trkpt lat="45.17254" lon="5.92658">
        <ele>1783.1</ele>
        <time>2021-02-20T07:41:18Z</time>
      </trkpt>
      <trkpt lat="45.17254" lon="5.92658">
        <ele>1784.5</ele>
        <time>2021-02-20T07:41:19Z</time>
      </trkpt>
      <trkpt lat="45.17253" lon="5.92657">
        <ele>1784.6</ele>
        <time>2021-02-20T07:41:20Z</time>
      </trkpt>
      <trkpt lat="45.17253" lon="5.92657">
        <ele>1784.6</ele>
        <time>2021-02-20T07:41:21Z</time>
      </trkpt>
      <trkpt lat="45.17252" lon="5.92657">
        <ele>1784.6</ele>
        <time>2021-02-20T07:41:22Z</time>
      </trkpt>
      <trkpt lat="45.17252" lon="5.92657">
        <ele>1784.7</ele>
        <time>2021-02-20T07:41:23Z</time>
      </trkpt>
      <trkpt lat="45.17251" lon="5.92657">
        <ele>1784.4</ele>
        <time>2021-02-20T07:41:24Z</time>
      </trkpt>
      <trkpt lat="45.17251" lon="5.92657">
        <ele>1784.5</ele>
        <time>2021-02-20T07:41:25Z</time>
      </trkpt>
      <trkpt lat="45.17251" lon="5.92656">
        <ele>1786</ele>
        <time>2021-02-20T07:41:26Z</time>
      </trkpt>
      <trkpt lat="45.1725" lon="5.92656">
        <ele>1786</ele>
        <time>2021-02-20T07:41:27Z</time>
      </trkpt>
      <trkpt lat="45.1725" lon="5.92656">
        <ele>1786.1</ele>
        <time>2021-02-20T07:41:28Z</time>
      </trkpt>
      <trkpt lat="45.17249" lon="5.92655">
        <ele>1786.1</ele>
        <time>2021-02-20T07:41:29Z</time>
      </trkpt>
      <trkpt lat="45.17249" lon="5.92655">
        <ele>1786.1</ele>
        <time>2021-02-20T07:41:30Z</time>
      </trkpt>
      <trkpt lat="45.17248" lon="5.92655">
        <ele>1786.2</ele>
        <time>2021-02-20T07:41:31Z</time>
      </trkpt>
      <trkpt lat="45.17247" lon="5.92654">
        <ele>1787.7</ele>
        <time>2021-02-20T07:41:32Z</time>
      </trkpt>
      <trkpt lat="45.17246" lon="5.92653">
        <ele>1787.8</ele>
        <time>2021-02-20T07:41:33Z</time>
      </trkpt>
      <trkpt lat="45.17246" lon="5.92653">
        <ele>1787.8</ele>
        <time>2021-02-20T07:41:34Z</time>
      </trkpt>
      <trkpt lat="45.17246" lon="5.92653">
        <ele>1787.8</ele>
        <time>2021-02-20T07:41:35Z</time>
      </trkpt>
      <trkpt lat="45.17246" lon="5.92653">
        <ele>1787.9</ele>
        <time>2021-02-20T07:41:36Z</time>
      </trkpt>
      <trkpt lat="45.17246" lon="5.92654">
        <ele>1787.9</ele>
        <time>2021-02-20T07:41:37Z</time>
      </trkpt>
      <trkpt lat="45.17246" lon="5.92655">
        <ele>1788</ele>
        <time>2021-02-20T07:41:38Z</time>
      </trkpt>
      <trkpt lat="45.17247" lon="5.92657">
        <ele>1788</ele>
        <time>2021-02-20T07:41:39Z</time>
      </trkpt>
      <trkpt lat="45.17247" lon="5.92658">
        <ele>1788.3</ele>
        <time>2021-02-20T07:41:40Z</time>
      </trkpt>
      <trkpt lat="45.17248" lon="5.92659">
        <ele>1788.3</ele>
        <time>2021-02-20T07:41:41Z</time>
      </trkpt>
      <trkpt lat="45.17248" lon="5.9266">
        <ele>1786.8</ele>
        <time>2021-02-20T07:41:42Z</time>
      </trkpt>
      <trkpt lat="45.17249" lon="5.92662">
        <ele>1787.2</ele>
        <time>2021-02-20T07:41:43Z</time>
      </trkpt>
      <trkpt lat="45.17249" lon="5.92663">
        <ele>1787.2</ele>
        <time>2021-02-20T07:41:44Z</time>
      </trkpt>
      <trkpt lat="45.17249" lon="5.92664">
        <ele>1787.3</ele>
        <time>2021-02-20T07:41:45Z</time>
      </trkpt>
      <trkpt lat="45.1725" lon="5.92665">
        <ele>1787.7</ele>
        <time>2021-02-20T07:41:46Z</time>
      </trkpt>
      <trkpt lat="45.1725" lon="5.92666">
        <ele>1787.7</ele>
        <time>2021-02-20T07:41:47Z</time>
      </trkpt>
      <trkpt lat="45.1725" lon="5.92668">
        <ele>1787.8</ele>
        <time>2021-02-20T07:41:48Z</time>
      </trkpt>
      <trkpt lat="45.17251" lon="5.92668">
        <ele>1787.8</ele>
        <time>2021-02-20T07:41:49Z</time>
      </trkpt>
      <trkpt lat="45.17251" lon="5.92669">
        <ele>1786.4</ele>
        <time>2021-02-20T07:41:50Z</time>
      </trkpt>
      <trkpt lat="45.17251" lon="5.9267">
        <ele>1786.8</ele>
        <time>2021-02-20T07:41:51Z</time>
      </trkpt>
      <trkpt lat="45.17252" lon="5.92671">
        <ele>1786.9</ele>
        <time>2021-02-20T07:41:52Z</time>
      </trkpt>
      <trkpt lat="45.17252" lon="5.92672">
        <ele>1786.9</ele>
        <time>2021-02-20T07:41:53Z</time>
      </trkpt>
      <trkpt lat="45.17253" lon="5.92672">
        <ele>1786.9</ele>
        <time>2021-02-20T07:41:54Z</time>
      </trkpt>
      <trkpt lat="45.17253" lon="5.92673">
        <ele>1787</ele>
        <time>2021-02-20T07:41:55Z</time>
      </trkpt>
      <trkpt lat="45.17254" lon="5.92674">
        <ele>1786.1</ele>
        <time>2021-02-20T07:41:56Z</time>
      </trkpt>
      <trkpt lat="45.17255" lon="5.92675">
        <ele>1786.2</ele>
        <time>2021-02-20T07:41:57Z</time>
      </trkpt>
      <trkpt lat="45.17256" lon="5.92676">
        <ele>1786.2</ele>
        <time>2021-02-20T07:41:58Z</time>
      </trkpt>
      <trkpt lat="45.17257" lon="5.92676">
        <ele>1785</ele>
        <time>2021-02-20T07:41:59Z</time>
      </trkpt>
      <trkpt lat="45.17258" lon="5.92677">
        <ele>1785.1</ele>
        <time>2021-02-20T07:42:00Z</time>
      </trkpt>
      <trkpt lat="45.17259" lon="5.92678">
        <ele>1785.1</ele>
        <time>2021-02-20T07:42:01Z</time>
      </trkpt>
      <trkpt lat="45.17259" lon="5.92679">
        <ele>1785.7</ele>
        <time>2021-02-20T07:42:02Z</time>
      </trkpt>
      <trkpt lat="45.1726" lon="5.9268">
        <ele>1784.6</ele>
        <time>2021-02-20T07:42:03Z</time>
      </trkpt>
      <trkpt lat="45.17261" lon="5.92681">
        <ele>1784.6</ele>
        <time>2021-02-20T07:42:04Z</time>
      </trkpt>
      <trkpt lat="45.17262" lon="5.92683">
        <ele>1785.2</ele>
        <time>2021-02-20T07:42:05Z</time>
      </trkpt>
      <trkpt lat="45.17263" lon="5.92683">
        <ele>1784.2</ele>
        <time>2021-02-20T07:42:06Z</time>
      </trkpt>
      <trkpt lat="45.17264" lon="5.92684">
        <ele>1784.3</ele>
        <time>2021-02-20T07:42:07Z</time>
      </trkpt>
      <trkpt lat="45.17264" lon="5.92684">
        <ele>1784.3</ele>
        <time>2021-02-20T07:42:08Z</time>
      </trkpt>
      <trkpt lat="45.17265" lon="5.92685">
        <ele>1784.3</ele>
        <time>2021-02-20T07:42:09Z</time>
      </trkpt>
      <trkpt lat="45.17266" lon="5.92686">
        <ele>1784.4</ele>
        <time>2021-02-20T07:42:10Z</time>
      </trkpt>
      <trkpt lat="45.17267" lon="5.92686">
        <ele>1783.4</ele>
        <time>2021-02-20T07:42:11Z</time>
      </trkpt>
      <trkpt lat="45.17268" lon="5.92686">
        <ele>1783.4</ele>
        <time>2021-02-20T07:42:12Z</time>
      </trkpt>
      <trkpt lat="45.17268" lon="5.92686">
        <ele>1783.4</ele>
        <time>2021-02-20T07:42:13Z</time>
      </trkpt>
      <trkpt lat="45.1727" lon="5.92687">
        <ele>1783.1</ele>
        <time>2021-02-20T07:42:14Z</time>
      </trkpt>
      <trkpt lat="45.17271" lon="5.92688">
        <ele>1783.1</ele>
        <time>2021-02-20T07:42:15Z</time>
      </trkpt>
      <trkpt lat="45.17271" lon="5.92689">
        <ele>1783.2</ele>
        <time>2021-02-20T07:42:16Z</time>
      </trkpt>
      <trkpt lat="45.17272" lon="5.9269">
        <ele>1782.2</ele>
        <time>2021-02-20T07:42:17Z</time>
      </trkpt>
      <trkpt lat="45.17273" lon="5.92692">
        <ele>1782.9</ele>
        <time>2021-02-20T07:42:18Z</time>
      </trkpt>
      <trkpt lat="45.17273" lon="5.92693">
        <ele>1783</ele>
        <time>2021-02-20T07:42:19Z</time>
      </trkpt>
      <trkpt lat="45.17274" lon="5.92694">
        <ele>1783</ele>
        <time>2021-02-20T07:42:20Z</time>
      </trkpt>
      <trkpt lat="45.17275" lon="5.92695">
        <ele>1783</ele>
        <time>2021-02-20T07:42:21Z</time>
      </trkpt>
      <trkpt lat="45.17276" lon="5.92696">
        <ele>1782.9</ele>
        <time>2021-02-20T07:42:22Z</time>
      </trkpt>
      <trkpt lat="45.17276" lon="5.92696">
        <ele>1782.9</ele>
        <time>2021-02-20T07:42:23Z</time>
      </trkpt>
      <trkpt lat="45.17277" lon="5.92697">
        <ele>1783</ele>
        <time>2021-02-20T07:42:24Z</time>
      </trkpt>
      <trkpt lat="45.17278" lon="5.92697">
        <ele>1783</ele>
        <time>2021-02-20T07:42:25Z</time>
      </trkpt>
      <trkpt lat="45.17279" lon="5.92698">
        <ele>1782.1</ele>
        <time>2021-02-20T07:42:26Z</time>
      </trkpt>
      <trkpt lat="45.1728" lon="5.92698">
        <ele>1782.1</ele>
        <time>2021-02-20T07:42:27Z</time>
      </trkpt>
      <trkpt lat="45.1728" lon="5.92698">
        <ele>1782.2</ele>
        <time>2021-02-20T07:42:28Z</time>
      </trkpt>
      <trkpt lat="45.17281" lon="5.92698">
        <ele>1781.4</ele>
        <time>2021-02-20T07:42:29Z</time>
      </trkpt>
      <trkpt lat="45.17283" lon="5.92699">
        <ele>1781.4</ele>
        <time>2021-02-20T07:42:30Z</time>
      </trkpt>
      <trkpt lat="45.17283" lon="5.92698">
        <ele>1781.4</ele>
        <time>2021-02-20T07:42:31Z</time>
      </trkpt>
      <trkpt lat="45.17284" lon="5.92698">
        <ele>1781.5</ele>
        <time>2021-02-20T07:42:32Z</time>
      </trkpt>
      <trkpt lat="45.17285" lon="5.92698">
        <ele>1780.7</ele>
        <time>2021-02-20T07:42:33Z</time>
      </trkpt>
      <trkpt lat="45.17286" lon="5.92698">
        <ele>1780.7</ele>
        <time>2021-02-20T07:42:34Z</time>
      </trkpt>
      <trkpt lat="45.17287" lon="5.92698">
        <ele>1780.8</ele>
        <time>2021-02-20T07:42:35Z</time>
      </trkpt>
      <trkpt lat="45.17287" lon="5.92699">
        <ele>1780.1</ele>
        <time>2021-02-20T07:42:36Z</time>
      </trkpt>
      <trkpt lat="45.17288" lon="5.92699">
        <ele>1780.1</ele>
        <time>2021-02-20T07:42:37Z</time>
      </trkpt>
      <trkpt lat="45.17289" lon="5.927">
        <ele>1781</ele>
        <time>2021-02-20T07:42:38Z</time>
      </trkpt>
      <trkpt lat="45.17289" lon="5.927">
        <ele>1781.1</ele>
        <time>2021-02-20T07:42:39Z</time>
      </trkpt>
      <trkpt lat="45.1729" lon="5.92701">
        <ele>1780.5</ele>
        <time>2021-02-20T07:42:40Z</time>
      </trkpt>
      <trkpt lat="45.17291" lon="5.92702">
        <ele>1780.5</ele>
        <time>2021-02-20T07:42:41Z</time>
      </trkpt>
      <trkpt lat="45.17292" lon="5.92702">
        <ele>1780.5</ele>
        <time>2021-02-20T07:42:42Z</time>
      </trkpt>
      <trkpt lat="45.17293" lon="5.92703">
        <ele>1780.6</ele>
        <time>2021-02-20T07:42:43Z</time>
      </trkpt>
      <trkpt lat="45.17293" lon="5.92703">
        <ele>1780</ele>
        <time>2021-02-20T07:42:44Z</time>
      </trkpt>
      <trkpt lat="45.17294" lon="5.92704">
        <ele>1780</ele>
        <time>2021-02-20T07:42:45Z</time>
      </trkpt>
      <trkpt lat="45.17295" lon="5.92704">
        <ele>1780.1</ele>
        <time>2021-02-20T07:42:46Z</time>
      </trkpt>
      <trkpt lat="45.17295" lon="5.92704">
        <ele>1780.1</ele>
        <time>2021-02-20T07:42:47Z</time>
      </trkpt>
      <trkpt lat="45.17296" lon="5.92704">
        <ele>1781.1</ele>
        <time>2021-02-20T07:42:48Z</time>
      </trkpt>
      <trkpt lat="45.17297" lon="5.92704">
        <ele>1780.5</ele>
        <time>2021-02-20T07:42:49Z</time>
      </trkpt>
      <trkpt lat="45.17297" lon="5.92705">
        <ele>1780.6</ele>
        <time>2021-02-20T07:42:50Z</time>
      </trkpt>
      <trkpt lat="45.17298" lon="5.92705">
        <ele>1780.6</ele>
        <time>2021-02-20T07:42:51Z</time>
      </trkpt>
      <trkpt lat="45.17299" lon="5.92706">
        <ele>1780.6</ele>
        <time>2021-02-20T07:42:52Z</time>
      </trkpt>
      <trkpt lat="45.17299" lon="5.92706">
        <ele>1780.1</ele>
        <time>2021-02-20T07:42:53Z</time>
      </trkpt>
      <trkpt lat="45.173" lon="5.92706">
        <ele>1780.1</ele>
        <time>2021-02-20T07:42:54Z</time>
      </trkpt>
      <trkpt lat="45.17301" lon="5.92707">
        <ele>1780.2</ele>
        <time>2021-02-20T07:42:55Z</time>
      </trkpt>
      <trkpt lat="45.17302" lon="5.92707">
        <ele>1780.2</ele>
        <time>2021-02-20T07:42:56Z</time>
      </trkpt>
      <trkpt lat="45.17302" lon="5.92708">
        <ele>1779.7</ele>
        <time>2021-02-20T07:42:57Z</time>
      </trkpt>
      <trkpt lat="45.17303" lon="5.92708">
        <ele>1779.7</ele>
        <time>2021-02-20T07:42:58Z</time>
      </trkpt>
      <trkpt lat="45.17303" lon="5.92708">
        <ele>1779.7</ele>
        <time>2021-02-20T07:42:59Z</time>
      </trkpt>
      <trkpt lat="45.17304" lon="5.92708">
        <ele>1779.8</ele>
        <time>2021-02-20T07:43:00Z</time>
      </trkpt>
      <trkpt lat="45.17305" lon="5.92708">
        <ele>1779.8</ele>
        <time>2021-02-20T07:43:01Z</time>
      </trkpt>
      <trkpt lat="45.17306" lon="5.92708">
        <ele>1779.3</ele>
        <time>2021-02-20T07:43:02Z</time>
      </trkpt>
      <trkpt lat="45.17306" lon="5.92708">
        <ele>1779.3</ele>
        <time>2021-02-20T07:43:03Z</time>
      </trkpt>
      <trkpt lat="45.17307" lon="5.92708">
        <ele>1779.3</ele>
        <time>2021-02-20T07:43:04Z</time>
      </trkpt>
      <trkpt lat="45.17307" lon="5.92708">
        <ele>1779.4</ele>
        <time>2021-02-20T07:43:05Z</time>
      </trkpt>
      <trkpt lat="45.17308" lon="5.92709">
        <ele>1779.6</ele>
        <time>2021-02-20T07:43:06Z</time>
      </trkpt>
      <trkpt lat="45.1731" lon="5.92709">
        <ele>1779.7</ele>
        <time>2021-02-20T07:43:07Z</time>
      </trkpt>
      <trkpt lat="45.1731" lon="5.92709">
        <ele>1779.7</ele>
        <time>2021-02-20T07:43:08Z</time>
      </trkpt>
      <trkpt lat="45.17311" lon="5.92709">
        <ele>1779.8</ele>
        <time>2021-02-20T07:43:09Z</time>
      </trkpt>
      <trkpt lat="45.17312" lon="5.92709">
        <ele>1779.2</ele>
        <time>2021-02-20T07:43:10Z</time>
      </trkpt>
      <trkpt lat="45.17312" lon="5.92709">
        <ele>1779.3</ele>
        <time>2021-02-20T07:43:11Z</time>
      </trkpt>
      <trkpt lat="45.17313" lon="5.92709">
        <ele>1779.3</ele>
        <time>2021-02-20T07:43:12Z</time>
      </trkpt>
      <trkpt lat="45.17314" lon="5.92709">
        <ele>1779.3</ele>
        <time>2021-02-20T07:43:13Z</time>
      </trkpt>
      <trkpt lat="45.17315" lon="5.92709">
        <ele>1778.9</ele>
        <time>2021-02-20T07:43:14Z</time>
      </trkpt>
      <trkpt lat="45.17315" lon="5.92709">
        <ele>1778.9</ele>
        <time>2021-02-20T07:43:15Z</time>
      </trkpt>
      <trkpt lat="45.17315" lon="5.92709">
        <ele>1778.9</ele>
        <time>2021-02-20T07:43:16Z</time>
      </trkpt>
      <trkpt lat="45.17315" lon="5.92708">
        <ele>1778.1</ele>
        <time>2021-02-20T07:43:17Z</time>
      </trkpt>
      <trkpt lat="45.17315" lon="5.92707">
        <ele>1778.2</ele>
        <time>2021-02-20T07:43:18Z</time>
      </trkpt>
      <trkpt lat="45.17316" lon="5.92707">
        <ele>1778.2</ele>
        <time>2021-02-20T07:43:19Z</time>
      </trkpt>
      <trkpt lat="45.17316" lon="5.92706">
        <ele>1778.3</ele>
        <time>2021-02-20T07:43:20Z</time>
      </trkpt>
      <trkpt lat="45.17316" lon="5.92706">
        <ele>1778.3</ele>
        <time>2021-02-20T07:43:21Z</time>
      </trkpt>
      <trkpt lat="45.17316" lon="5.92705">
        <ele>1778.3</ele>
        <time>2021-02-20T07:43:22Z</time>
      </trkpt>
      <trkpt lat="45.17317" lon="5.92705">
        <ele>1778.4</ele>
        <time>2021-02-20T07:43:23Z</time>
      </trkpt>
      <trkpt lat="45.17317" lon="5.92704">
        <ele>1778.4</ele>
        <time>2021-02-20T07:43:24Z</time>
      </trkpt>
      <trkpt lat="45.17318" lon="5.92703">
        <ele>1777.2</ele>
        <time>2021-02-20T07:43:25Z</time>
      </trkpt>
      <trkpt lat="45.17318" lon="5.92703">
        <ele>1777.3</ele>
        <time>2021-02-20T07:43:26Z</time>
      </trkpt>
      <trkpt lat="45.17319" lon="5.92702">
        <ele>1777.3</ele>
        <time>2021-02-20T07:43:27Z</time>
      </trkpt>
      <trkpt lat="45.17319" lon="5.92701">
        <ele>1777.4</ele>
        <time>2021-02-20T07:43:28Z</time>
      </trkpt>
      <trkpt lat="45.17319" lon="5.92701">
        <ele>1777.4</ele>
        <time>2021-02-20T07:43:29Z</time>
      </trkpt>
      <trkpt lat="45.17319" lon="5.92701">
        <ele>1777.4</ele>
        <time>2021-02-20T07:43:30Z</time>
      </trkpt>
      <trkpt lat="45.17319" lon="5.92701">
        <ele>1777.4</ele>
        <time>2021-02-20T07:43:31Z</time>
      </trkpt>
      <trkpt lat="45.17317" lon="5.92703">
        <ele>1777.6</ele>
        <time>2021-02-20T07:43:32Z</time>
      </trkpt>
      <trkpt lat="45.17317" lon="5.92705">
        <ele>1777.7</ele>
        <time>2021-02-20T07:43:33Z</time>
      </trkpt>
      <trkpt lat="45.17317" lon="5.92706">
        <ele>1777.8</ele>
        <time>2021-02-20T07:43:34Z</time>
      </trkpt>
      <trkpt lat="45.17317" lon="5.92708">
        <ele>1777.9</ele>
        <time>2021-02-20T07:43:35Z</time>
      </trkpt>
      <trkpt lat="45.17317" lon="5.92709">
        <ele>1778</ele>
        <time>2021-02-20T07:43:36Z</time>
      </trkpt>
      <trkpt lat="45.17317" lon="5.9271">
        <ele>1778.1</ele>
        <time>2021-02-20T07:43:37Z</time>
      </trkpt>
      <trkpt lat="45.17317" lon="5.92712">
        <ele>1778.2</ele>
        <time>2021-02-20T07:43:38Z</time>
      </trkpt>
      <trkpt lat="45.17318" lon="5.92713">
        <ele>1778.4</ele>
        <time>2021-02-20T07:43:39Z</time>
      </trkpt>
      <trkpt lat="45.17318" lon="5.92715">
        <ele>1778.5</ele>
        <time>2021-02-20T07:43:40Z</time>
      </trkpt>
      <trkpt lat="45.17318" lon="5.92716">
        <ele>1778.6</ele>
        <time>2021-02-20T07:43:41Z</time>
      </trkpt>
      <trkpt lat="45.17318" lon="5.92718">
        <ele>1778.7</ele>
        <time>2021-02-20T07:43:42Z</time>
      </trkpt>
      <trkpt lat="45.17318" lon="5.92719">
        <ele>1778.8</ele>
        <time>2021-02-20T07:43:43Z</time>
      </trkpt>
      <trkpt lat="45.17319" lon="5.92721">
        <ele>1778.9</ele>
        <time>2021-02-20T07:43:44Z</time>
      </trkpt>
      <trkpt lat="45.17319" lon="5.92722">
        <ele>1779</ele>
        <time>2021-02-20T07:43:45Z</time>
      </trkpt>
      <trkpt lat="45.17319" lon="5.92724">
        <ele>1779.2</ele>
        <time>2021-02-20T07:43:46Z</time>
      </trkpt>
      <trkpt lat="45.17319" lon="5.92725">
        <ele>1779.3</ele>
        <time>2021-02-20T07:43:47Z</time>
      </trkpt>
      <trkpt lat="45.17319" lon="5.92727">
        <ele>1779.4</ele>
        <time>2021-02-20T07:43:48Z</time>
      </trkpt>
      <trkpt lat="45.17319" lon="5.92728">
        <ele>1779.5</ele>
        <time>2021-02-20T07:43:49Z</time>
      </trkpt>
      <trkpt lat="45.17319" lon="5.92729">
        <ele>1779.6</ele>
        <time>2021-02-20T07:43:50Z</time>
      </trkpt>
      <trkpt lat="45.17319" lon="5.9273">
        <ele>1779.7</ele>
        <time>2021-02-20T07:43:51Z</time>
      </trkpt>
      <trkpt lat="45.17319" lon="5.92731">
        <ele>1779.8</ele>
        <time>2021-02-20T07:43:52Z</time>
      </trkpt>
      <trkpt lat="45.17319" lon="5.92732">
        <ele>1779.9</ele>
        <time>2021-02-20T07:43:53Z</time>
      </trkpt>
      <trkpt lat="45.1732" lon="5.92733">
        <ele>1780</ele>
        <time>2021-02-20T07:43:54Z</time>
      </trkpt>
      <trkpt lat="45.1732" lon="5.92735">
        <ele>1780.1</ele>
        <time>2021-02-20T07:43:55Z</time>
      </trkpt>
      <trkpt lat="45.1732" lon="5.92736">
        <ele>1780.2</ele>
        <time>2021-02-20T07:43:56Z</time>
      </trkpt>
      <trkpt lat="45.1732" lon="5.92737">
        <ele>1780.3</ele>
        <time>2021-02-20T07:43:57Z</time>
      </trkpt>
      <trkpt lat="45.17319" lon="5.92738">
        <ele>1780.4</ele>
        <time>2021-02-20T07:43:58Z</time>
      </trkpt>
      <trkpt lat="45.17319" lon="5.92739">
        <ele>1780.5</ele>
        <time>2021-02-20T07:43:59Z</time>
      </trkpt>
      <trkpt lat="45.17319" lon="5.9274">
        <ele>1780.6</ele>
        <time>2021-02-20T07:44:00Z</time>
      </trkpt>
      <trkpt lat="45.17318" lon="5.92741">
        <ele>1780.7</ele>
        <time>2021-02-20T07:44:01Z</time>
      </trkpt>
      <trkpt lat="45.17318" lon="5.92742">
        <ele>1780.8</ele>
        <time>2021-02-20T07:44:02Z</time>
      </trkpt>
      <trkpt lat="45.17318" lon="5.92743">
        <ele>1780.9</ele>
        <time>2021-02-20T07:44:03Z</time>
      </trkpt>
      <trkpt lat="45.17318" lon="5.92744">
        <ele>1780.9</ele>
        <time>2021-02-20T07:44:04Z</time>
      </trkpt>
      <trkpt lat="45.17317" lon="5.92745">
        <ele>1781</ele>
        <time>2021-02-20T07:44:05Z</time>
      </trkpt>
      <trkpt lat="45.17317" lon="5.92747">
        <ele>1781.2</ele>
        <time>2021-02-20T07:44:06Z</time>
      </trkpt>
      <trkpt lat="45.17316" lon="5.92748">
        <ele>1781.2</ele>
        <time>2021-02-20T07:44:07Z</time>
      </trkpt>
      <trkpt lat="45.17316" lon="5.92748">
        <ele>1781.3</ele>
        <time>2021-02-20T07:44:08Z</time>
      </trkpt>
      <trkpt lat="45.17316" lon="5.92749">
        <ele>1781.4</ele>
        <time>2021-02-20T07:44:09Z</time>
      </trkpt>
      <trkpt lat="45.17315" lon="5.92751">
        <ele>1781.5</ele>
        <time>2021-02-20T07:44:10Z</time>
      </trkpt>
      <trkpt lat="45.17315" lon="5.92752">
        <ele>1781.6</ele>
        <time>2021-02-20T07:44:11Z</time>
      </trkpt>
      <trkpt lat="45.17314" lon="5.92753">
        <ele>1781.7</ele>
        <time>2021-02-20T07:44:12Z</time>
      </trkpt>
      <trkpt lat="45.17313" lon="5.92753">
        <ele>1781.8</ele>
        <time>2021-02-20T07:44:13Z</time>
      </trkpt>
      <trkpt lat="45.17313" lon="5.92754">
        <ele>1781.8</ele>
        <time>2021-02-20T07:44:14Z</time>
      </trkpt>
      <trkpt lat="45.17313" lon="5.92755">
        <ele>1781.9</ele>
        <time>2021-02-20T07:44:15Z</time>
      </trkpt>
      <trkpt lat="45.17313" lon="5.92757">
        <ele>1782</ele>
        <time>2021-02-20T07:44:16Z</time>
      </trkpt>
      <trkpt lat="45.17313" lon="5.92758">
        <ele>1782.1</ele>
        <time>2021-02-20T07:44:17Z</time>
      </trkpt>
      <trkpt lat="45.17312" lon="5.9276">
        <ele>1782.2</ele>
        <time>2021-02-20T07:44:18Z</time>
      </trkpt>
      <trkpt lat="45.17312" lon="5.92761">
        <ele>1782.3</ele>
        <time>2021-02-20T07:44:19Z</time>
      </trkpt>
      <trkpt lat="45.17312" lon="5.92762">
        <ele>1782.3</ele>
        <time>2021-02-20T07:44:20Z</time>
      </trkpt>
      <trkpt lat="45.17312" lon="5.92763">
        <ele>1782.4</ele>
        <time>2021-02-20T07:44:21Z</time>
      </trkpt>
      <trkpt lat="45.17312" lon="5.92764">
        <ele>1782.5</ele>
        <time>2021-02-20T07:44:22Z</time>
      </trkpt>
      <trkpt lat="45.17312" lon="5.92766">
        <ele>1782.5</ele>
        <time>2021-02-20T07:44:23Z</time>
      </trkpt>
      <trkpt lat="45.17313" lon="5.92767">
        <ele>1782.6</ele>
        <time>2021-02-20T07:44:24Z</time>
      </trkpt>
      <trkpt lat="45.17313" lon="5.92769">
        <ele>1782.7</ele>
        <time>2021-02-20T07:44:25Z</time>
      </trkpt>
      <trkpt lat="45.17313" lon="5.9277">
        <ele>1782.8</ele>
        <time>2021-02-20T07:44:26Z</time>
      </trkpt>
      <trkpt lat="45.17313" lon="5.92771">
        <ele>1782.9</ele>
        <time>2021-02-20T07:44:27Z</time>
      </trkpt>
      <trkpt lat="45.17313" lon="5.92773">
        <ele>1783</ele>
        <time>2021-02-20T07:44:28Z</time>
      </trkpt>
      <trkpt lat="45.17313" lon="5.92774">
        <ele>1783.1</ele>
        <time>2021-02-20T07:44:29Z</time>
      </trkpt>
      <trkpt lat="45.17313" lon="5.92775">
        <ele>1783.2</ele>
        <time>2021-02-20T07:44:30Z</time>
      </trkpt>
      <trkpt lat="45.17313" lon="5.92776">
        <ele>1783.3</ele>
        <time>2021-02-20T07:44:31Z</time>
      </trkpt>
      <trkpt lat="45.17312" lon="5.92777">
        <ele>1783.4</ele>
        <time>2021-02-20T07:44:32Z</time>
      </trkpt>
      <trkpt lat="45.17312" lon="5.92778">
        <ele>1783.5</ele>
        <time>2021-02-20T07:44:33Z</time>
      </trkpt>
      <trkpt lat="45.17312" lon="5.9278">
        <ele>1783.6</ele>
        <time>2021-02-20T07:44:34Z</time>
      </trkpt>
      <trkpt lat="45.17312" lon="5.92781">
        <ele>1783.7</ele>
        <time>2021-02-20T07:44:35Z</time>
      </trkpt>
      <trkpt lat="45.17311" lon="5.92782">
        <ele>1783.7</ele>
        <time>2021-02-20T07:44:36Z</time>
      </trkpt>
      <trkpt lat="45.17311" lon="5.92782">
        <ele>1783.8</ele>
        <time>2021-02-20T07:44:37Z</time>
      </trkpt>
      <trkpt lat="45.17311" lon="5.92783">
        <ele>1783.8</ele>
        <time>2021-02-20T07:44:38Z</time>
      </trkpt>
      <trkpt lat="45.17311" lon="5.92783">
        <ele>1783.8</ele>
        <time>2021-02-20T07:44:39Z</time>
      </trkpt>
      <trkpt lat="45.17311" lon="5.92784">
        <ele>1783.9</ele>
        <time>2021-02-20T07:44:40Z</time>
      </trkpt>
      <trkpt lat="45.17311" lon="5.92784">
        <ele>1783.9</ele>
        <time>2021-02-20T07:44:41Z</time>
      </trkpt>
      <trkpt lat="45.17311" lon="5.92785">
        <ele>1783.9</ele>
        <time>2021-02-20T07:44:42Z</time>
      </trkpt>
      <trkpt lat="45.17311" lon="5.92785">
        <ele>1784</ele>
        <time>2021-02-20T07:44:43Z</time>
      </trkpt>
      <trkpt lat="45.17311" lon="5.92785">
        <ele>1784</ele>
        <time>2021-02-20T07:44:44Z</time>
      </trkpt>
      <trkpt lat="45.17311" lon="5.92786">
        <ele>1784.1</ele>
        <time>2021-02-20T07:44:45Z</time>
      </trkpt>
      <trkpt lat="45.17311" lon="5.92786">
        <ele>1784.1</ele>
        <time>2021-02-20T07:44:46Z</time>
      </trkpt>
      <trkpt lat="45.17311" lon="5.92787">
        <ele>1784.1</ele>
        <time>2021-02-20T07:44:47Z</time>
      </trkpt>
      <trkpt lat="45.17311" lon="5.92787">
        <ele>1784.2</ele>
        <time>2021-02-20T07:45:18Z</time>
      </trkpt>
      <trkpt lat="45.17311" lon="5.92788">
        <ele>1784.2</ele>
        <time>2021-02-20T07:45:19Z</time>
      </trkpt>
      <trkpt lat="45.17311" lon="5.92788">
        <ele>1784.2</ele>
        <time>2021-02-20T07:45:20Z</time>
      </trkpt>
      <trkpt lat="45.17311" lon="5.92789">
        <ele>1784.3</ele>
        <time>2021-02-20T07:45:21Z</time>
      </trkpt>
      <trkpt lat="45.17311" lon="5.92791">
        <ele>1784.5</ele>
        <time>2021-02-20T07:45:22Z</time>
      </trkpt>
      <trkpt lat="45.17312" lon="5.92792">
        <ele>1784.7</ele>
        <time>2021-02-20T07:45:23Z</time>
      </trkpt>
      <trkpt lat="45.17312" lon="5.92794">
        <ele>1784.9</ele>
        <time>2021-02-20T07:45:24Z</time>
      </trkpt>
      <trkpt lat="45.17312" lon="5.92795">
        <ele>1785</ele>
        <time>2021-02-20T07:45:25Z</time>
      </trkpt>
      <trkpt lat="45.17313" lon="5.92796">
        <ele>1785.1</ele>
        <time>2021-02-20T07:45:26Z</time>
      </trkpt>
      <trkpt lat="45.17313" lon="5.92796">
        <ele>1785.1</ele>
        <time>2021-02-20T07:45:27Z</time>
      </trkpt>
      <trkpt lat="45.17313" lon="5.92797">
        <ele>1785.3</ele>
        <time>2021-02-20T07:45:28Z</time>
      </trkpt>
      <trkpt lat="45.17314" lon="5.92798">
        <ele>1785.4</ele>
        <time>2021-02-20T07:45:29Z</time>
      </trkpt>
      <trkpt lat="45.17314" lon="5.92799">
        <ele>1785.6</ele>
        <time>2021-02-20T07:45:30Z</time>
      </trkpt>
      <trkpt lat="45.17314" lon="5.928">
        <ele>1785.7</ele>
        <time>2021-02-20T07:45:31Z</time>
      </trkpt>
      <trkpt lat="45.17316" lon="5.92802">
        <ele>1786.1</ele>
        <time>2021-02-20T07:45:32Z</time>
      </trkpt>
      <trkpt lat="45.17317" lon="5.92804">
        <ele>1786.4</ele>
        <time>2021-02-20T07:45:33Z</time>
      </trkpt>
      <trkpt lat="45.17318" lon="5.92805">
        <ele>1786.7</ele>
        <time>2021-02-20T07:45:34Z</time>
      </trkpt>
      <trkpt lat="45.17319" lon="5.92806">
        <ele>1787</ele>
        <time>2021-02-20T07:45:35Z</time>
      </trkpt>
      <trkpt lat="45.1732" lon="5.92807">
        <ele>1787.4</ele>
        <time>2021-02-20T07:45:41Z</time>
      </trkpt>
      <trkpt lat="45.17321" lon="5.92808">
        <ele>1787.7</ele>
        <time>2021-02-20T07:45:42Z</time>
      </trkpt>
      <trkpt lat="45.17322" lon="5.92809">
        <ele>1788</ele>
        <time>2021-02-20T07:45:43Z</time>
      </trkpt>
      <trkpt lat="45.17323" lon="5.9281">
        <ele>1788.2</ele>
        <time>2021-02-20T07:45:44Z</time>
      </trkpt>
      <trkpt lat="45.17324" lon="5.92811">
        <ele>1788.6</ele>
        <time>2021-02-20T07:45:45Z</time>
      </trkpt>
      <trkpt lat="45.17325" lon="5.92813">
        <ele>1788.9</ele>
        <time>2021-02-20T07:45:46Z</time>
      </trkpt>
      <trkpt lat="45.17325" lon="5.92814">
        <ele>1789.1</ele>
        <time>2021-02-20T07:45:47Z</time>
      </trkpt>
      <trkpt lat="45.17325" lon="5.92815">
        <ele>1789.3</ele>
        <time>2021-02-20T07:45:48Z</time>
      </trkpt>
      <trkpt lat="45.17326" lon="5.92816">
        <ele>1789.5</ele>
        <time>2021-02-20T07:45:49Z</time>
      </trkpt>
      <trkpt lat="45.17326" lon="5.92816">
        <ele>1789.6</ele>
        <time>2021-02-20T07:45:50Z</time>
      </trkpt>
      <trkpt lat="45.17326" lon="5.92816">
        <ele>1789.6</ele>
        <time>2021-02-20T07:45:51Z</time>
      </trkpt>
      <trkpt lat="45.17326" lon="5.92816">
        <ele>1789.6</ele>
        <time>2021-02-20T07:45:52Z</time>
      </trkpt>
      <trkpt lat="45.17326" lon="5.92816">
        <ele>1789.6</ele>
        <time>2021-02-20T07:45:53Z</time>
      </trkpt>
      <trkpt lat="45.17326" lon="5.92816">
        <ele>1789.6</ele>
        <time>2021-02-20T07:45:54Z</time>
      </trkpt>
      <trkpt lat="45.17326" lon="5.92818">
        <ele>1790</ele>
        <time>2021-02-20T07:45:55Z</time>
      </trkpt>
      <trkpt lat="45.17326" lon="5.92819">
        <ele>1790.1</ele>
        <time>2021-02-20T07:45:56Z</time>
      </trkpt>
      <trkpt lat="45.17326" lon="5.92819">
        <ele>1790.2</ele>
        <time>2021-02-20T07:45:57Z</time>
      </trkpt>
      <trkpt lat="45.17327" lon="5.9282">
        <ele>1790.3</ele>
        <time>2021-02-20T07:45:58Z</time>
      </trkpt>
      <trkpt lat="45.17328" lon="5.9282">
        <ele>1790.5</ele>
        <time>2021-02-20T07:45:59Z</time>
      </trkpt>
      <trkpt lat="45.17328" lon="5.92821">
        <ele>1790.7</ele>
        <time>2021-02-20T07:46:00Z</time>
      </trkpt>
      <trkpt lat="45.17329" lon="5.92821">
        <ele>1790.9</ele>
        <time>2021-02-20T07:46:01Z</time>
      </trkpt>
      <trkpt lat="45.17329" lon="5.92821">
        <ele>1791.1</ele>
        <time>2021-02-20T07:46:02Z</time>
      </trkpt>
      <trkpt lat="45.1733" lon="5.92821">
        <ele>1791.1</ele>
        <time>2021-02-20T07:46:03Z</time>
      </trkpt>
      <trkpt lat="45.1733" lon="5.92821">
        <ele>1791.3</ele>
        <time>2021-02-20T07:46:04Z</time>
      </trkpt>
      <trkpt lat="45.17331" lon="5.92821">
        <ele>1791.4</ele>
        <time>2021-02-20T07:46:05Z</time>
      </trkpt>
      <trkpt lat="45.17331" lon="5.92822">
        <ele>1791.5</ele>
        <time>2021-02-20T07:46:06Z</time>
      </trkpt>
      <trkpt lat="45.17332" lon="5.92822">
        <ele>1791.6</ele>
        <time>2021-02-20T07:46:07Z</time>
      </trkpt>
      <trkpt lat="45.17332" lon="5.92822">
        <ele>1791.7</ele>
        <time>2021-02-20T07:46:08Z</time>
      </trkpt>
      <trkpt lat="45.17333" lon="5.92823">
        <ele>1791.9</ele>
        <time>2021-02-20T07:46:09Z</time>
      </trkpt>
      <trkpt lat="45.17333" lon="5.92824">
        <ele>1792</ele>
        <time>2021-02-20T07:46:10Z</time>
      </trkpt>
      <trkpt lat="45.17334" lon="5.92824">
        <ele>1792.1</ele>
        <time>2021-02-20T07:46:11Z</time>
      </trkpt>
      <trkpt lat="45.17334" lon="5.92825">
        <ele>1792.3</ele>
        <time>2021-02-20T07:46:12Z</time>
      </trkpt>
      <trkpt lat="45.17335" lon="5.92825">
        <ele>1792.4</ele>
        <time>2021-02-20T07:46:13Z</time>
      </trkpt>
      <trkpt lat="45.17335" lon="5.92825">
        <ele>1792.4</ele>
        <time>2021-02-20T07:46:14Z</time>
      </trkpt>
      <trkpt lat="45.17335" lon="5.92825">
        <ele>1792.5</ele>
        <time>2021-02-20T07:46:15Z</time>
      </trkpt>
      <trkpt lat="45.17335" lon="5.92825">
        <ele>1792.5</ele>
        <time>2021-02-20T07:46:16Z</time>
      </trkpt>
      <trkpt lat="45.17336" lon="5.92825">
        <ele>1792.6</ele>
        <time>2021-02-20T07:46:17Z</time>
      </trkpt>
      <trkpt lat="45.17336" lon="5.92825">
        <ele>1792.6</ele>
        <time>2021-02-20T07:46:18Z</time>
      </trkpt>
      <trkpt lat="45.17336" lon="5.92825">
        <ele>1792.6</ele>
        <time>2021-02-20T07:46:19Z</time>
      </trkpt>
      <trkpt lat="45.17336" lon="5.92825">
        <ele>1792.6</ele>
        <time>2021-02-20T07:46:20Z</time>
      </trkpt>
      <trkpt lat="45.17336" lon="5.92826">
        <ele>1792.8</ele>
        <time>2021-02-20T07:46:21Z</time>
      </trkpt>
      <trkpt lat="45.17337" lon="5.92827">
        <ele>1793</ele>
        <time>2021-02-20T07:46:22Z</time>
      </trkpt>
      <trkpt lat="45.17338" lon="5.92829">
        <ele>1793.2</ele>
        <time>2021-02-20T07:46:23Z</time>
      </trkpt>
      <trkpt lat="45.17338" lon="5.9283">
        <ele>1793.4</ele>
        <time>2021-02-20T07:46:26Z</time>
      </trkpt>
      <trkpt lat="45.17339" lon="5.92831">
        <ele>1793.5</ele>
        <time>2021-02-20T07:46:27Z</time>
      </trkpt>
      <trkpt lat="45.1734" lon="5.92832">
        <ele>1793.7</ele>
        <time>2021-02-20T07:46:28Z</time>
      </trkpt>
      <trkpt lat="45.1734" lon="5.92833">
        <ele>1793.8</ele>
        <time>2021-02-20T07:46:29Z</time>
      </trkpt>
      <trkpt lat="45.17341" lon="5.92834">
        <ele>1794</ele>
        <time>2021-02-20T07:46:30Z</time>
      </trkpt>
      <trkpt lat="45.17341" lon="5.92835">
        <ele>1794.1</ele>
        <time>2021-02-20T07:46:31Z</time>
      </trkpt>
      <trkpt lat="45.17343" lon="5.92837">
        <ele>1794.3</ele>
        <time>2021-02-20T07:46:32Z</time>
      </trkpt>
      <trkpt lat="45.17344" lon="5.92838">
        <ele>1794.4</ele>
        <time>2021-02-20T07:46:33Z</time>
      </trkpt>
      <trkpt lat="45.17344" lon="5.92838">
        <ele>1794.6</ele>
        <time>2021-02-20T07:46:34Z</time>
      </trkpt>
      <trkpt lat="45.17345" lon="5.92839">
        <ele>1794.7</ele>
        <time>2021-02-20T07:46:35Z</time>
      </trkpt>
      <trkpt lat="45.17346" lon="5.9284">
        <ele>1794.8</ele>
        <time>2021-02-20T07:46:36Z</time>
      </trkpt>
      <trkpt lat="45.17347" lon="5.92841">
        <ele>1795</ele>
        <time>2021-02-20T07:46:37Z</time>
      </trkpt>
      <trkpt lat="45.17348" lon="5.92842">
        <ele>1795.1</ele>
        <time>2021-02-20T07:46:38Z</time>
      </trkpt>
      <trkpt lat="45.17349" lon="5.92842">
        <ele>1795.2</ele>
        <time>2021-02-20T07:46:39Z</time>
      </trkpt>
      <trkpt lat="45.17349" lon="5.92843">
        <ele>1795.3</ele>
        <time>2021-02-20T07:46:40Z</time>
      </trkpt>
      <trkpt lat="45.1735" lon="5.92843">
        <ele>1795.4</ele>
        <time>2021-02-20T07:46:41Z</time>
      </trkpt>
      <trkpt lat="45.17351" lon="5.92844">
        <ele>1795.5</ele>
        <time>2021-02-20T07:46:42Z</time>
      </trkpt>
      <trkpt lat="45.17352" lon="5.92844">
        <ele>1795.6</ele>
        <time>2021-02-20T07:46:43Z</time>
      </trkpt>
      <trkpt lat="45.17353" lon="5.92845">
        <ele>1795.7</ele>
        <time>2021-02-20T07:46:44Z</time>
      </trkpt>
      <trkpt lat="45.17354" lon="5.92845">
        <ele>1795.8</ele>
        <time>2021-02-20T07:46:45Z</time>
      </trkpt>
      <trkpt lat="45.17354" lon="5.92846">
        <ele>1795.9</ele>
        <time>2021-02-20T07:46:46Z</time>
      </trkpt>
      <trkpt lat="45.17355" lon="5.92846">
        <ele>1796.1</ele>
        <time>2021-02-20T07:46:47Z</time>
      </trkpt>
      <trkpt lat="45.17356" lon="5.92847">
        <ele>1796.2</ele>
        <time>2021-02-20T07:46:48Z</time>
      </trkpt>
      <trkpt lat="45.17356" lon="5.92847">
        <ele>1796.3</ele>
        <time>2021-02-20T07:46:49Z</time>
      </trkpt>
      <trkpt lat="45.17357" lon="5.92848">
        <ele>1796.4</ele>
        <time>2021-02-20T07:46:50Z</time>
      </trkpt>
      <trkpt lat="45.17358" lon="5.92849">
        <ele>1796.5</ele>
        <time>2021-02-20T07:46:51Z</time>
      </trkpt>
      <trkpt lat="45.17359" lon="5.9285">
        <ele>1796.7</ele>
        <time>2021-02-20T07:46:52Z</time>
      </trkpt>
      <trkpt lat="45.1736" lon="5.9285">
        <ele>1796.8</ele>
        <time>2021-02-20T07:46:53Z</time>
      </trkpt>
      <trkpt lat="45.1736" lon="5.92851">
        <ele>1796.9</ele>
        <time>2021-02-20T07:46:54Z</time>
      </trkpt>
      <trkpt lat="45.17361" lon="5.92852">
        <ele>1797</ele>
        <time>2021-02-20T07:46:55Z</time>
      </trkpt>
      <trkpt lat="45.17362" lon="5.92853">
        <ele>1797.2</ele>
        <time>2021-02-20T07:46:56Z</time>
      </trkpt>
      <trkpt lat="45.17362" lon="5.92854">
        <ele>1797.3</ele>
        <time>2021-02-20T07:46:57Z</time>
      </trkpt>
      <trkpt lat="45.17363" lon="5.92854">
        <ele>1797.5</ele>
        <time>2021-02-20T07:46:58Z</time>
      </trkpt>
      <trkpt lat="45.17364" lon="5.92855">
        <ele>1797.6</ele>
        <time>2021-02-20T07:46:59Z</time>
      </trkpt>
      <trkpt lat="45.17364" lon="5.92855">
        <ele>1797.7</ele>
        <time>2021-02-20T07:47:00Z</time>
      </trkpt>
      <trkpt lat="45.17365" lon="5.92855">
        <ele>1797.9</ele>
        <time>2021-02-20T07:47:01Z</time>
      </trkpt>
      <trkpt lat="45.17365" lon="5.92856">
        <ele>1798.1</ele>
        <time>2021-02-20T07:47:02Z</time>
      </trkpt>
      <trkpt lat="45.17366" lon="5.92857">
        <ele>1798.4</ele>
        <time>2021-02-20T07:47:03Z</time>
      </trkpt>
      <trkpt lat="45.17367" lon="5.92859">
        <ele>1798.7</ele>
        <time>2021-02-20T07:47:04Z</time>
      </trkpt>
      <trkpt lat="45.17367" lon="5.9286">
        <ele>1798.9</ele>
        <time>2021-02-20T07:47:05Z</time>
      </trkpt>
      <trkpt lat="45.17368" lon="5.92861">
        <ele>1799.2</ele>
        <time>2021-02-20T07:47:06Z</time>
      </trkpt>
      <trkpt lat="45.17368" lon="5.92861">
        <ele>1799.3</ele>
        <time>2021-02-20T07:47:07Z</time>
      </trkpt>
      <trkpt lat="45.17368" lon="5.92862">
        <ele>1799.4</ele>
        <time>2021-02-20T07:47:08Z</time>
      </trkpt>
      <trkpt lat="45.17368" lon="5.92862">
        <ele>1799.4</ele>
        <time>2021-02-20T07:47:09Z</time>
      </trkpt>
      <trkpt lat="45.17368" lon="5.92863">
        <ele>1799.6</ele>
        <time>2021-02-20T07:47:10Z</time>
      </trkpt>
      <trkpt lat="45.17368" lon="5.92864">
        <ele>1799.8</ele>
        <time>2021-02-20T07:47:11Z</time>
      </trkpt>
      <trkpt lat="45.17368" lon="5.92866">
        <ele>1800.1</ele>
        <time>2021-02-20T07:47:12Z</time>
      </trkpt>
      <trkpt lat="45.17368" lon="5.92867">
        <ele>1800.3</ele>
        <time>2021-02-20T07:47:13Z</time>
      </trkpt>
      <trkpt lat="45.17369" lon="5.92868">
        <ele>1800.6</ele>
        <time>2021-02-20T07:47:14Z</time>
      </trkpt>
      <trkpt lat="45.17369" lon="5.92869">
        <ele>1800.7</ele>
        <time>2021-02-20T07:47:15Z</time>
      </trkpt>
      <trkpt lat="45.17369" lon="5.9287">
        <ele>1800.8</ele>
        <time>2021-02-20T07:47:16Z</time>
      </trkpt>
      <trkpt lat="45.17369" lon="5.92871">
        <ele>1801.1</ele>
        <time>2021-02-20T07:47:17Z</time>
      </trkpt>
      <trkpt lat="45.1737" lon="5.92872">
        <ele>1801.3</ele>
        <time>2021-02-20T07:47:18Z</time>
      </trkpt>
      <trkpt lat="45.17371" lon="5.92873">
        <ele>1801.6</ele>
        <time>2021-02-20T07:47:19Z</time>
      </trkpt>
      <trkpt lat="45.17371" lon="5.92874">
        <ele>1801.9</ele>
        <time>2021-02-20T07:47:20Z</time>
      </trkpt>
      <trkpt lat="45.17372" lon="5.92875">
        <ele>1802.2</ele>
        <time>2021-02-20T07:47:21Z</time>
      </trkpt>
      <trkpt lat="45.17373" lon="5.92876">
        <ele>1802.4</ele>
        <time>2021-02-20T07:47:22Z</time>
      </trkpt>
      <trkpt lat="45.17373" lon="5.92876">
        <ele>1802.4</ele>
        <time>2021-02-20T07:47:23Z</time>
      </trkpt>
      <trkpt lat="45.17373" lon="5.92876">
        <ele>1802.6</ele>
        <time>2021-02-20T07:47:24Z</time>
      </trkpt>
      <trkpt lat="45.17373" lon="5.92877">
        <ele>1802.7</ele>
        <time>2021-02-20T07:47:25Z</time>
      </trkpt>
      <trkpt lat="45.17373" lon="5.92878">
        <ele>1802.8</ele>
        <time>2021-02-20T07:47:26Z</time>
      </trkpt>
      <trkpt lat="45.17373" lon="5.92878">
        <ele>1802.9</ele>
        <time>2021-02-20T07:47:27Z</time>
      </trkpt>
      <trkpt lat="45.17373" lon="5.92879">
        <ele>1803.1</ele>
        <time>2021-02-20T07:47:28Z</time>
      </trkpt>
      <trkpt lat="45.17374" lon="5.9288">
        <ele>1803.2</ele>
        <time>2021-02-20T07:47:29Z</time>
      </trkpt>
      <trkpt lat="45.17373" lon="5.9288">
        <ele>1803.2</ele>
        <time>2021-02-20T07:47:30Z</time>
      </trkpt>
      <trkpt lat="45.17373" lon="5.9288">
        <ele>1803.2</ele>
        <time>2021-02-20T07:47:31Z</time>
      </trkpt>
      <trkpt lat="45.17373" lon="5.92881">
        <ele>1803.4</ele>
        <time>2021-02-20T07:47:32Z</time>
      </trkpt>
      <trkpt lat="45.17374" lon="5.92882">
        <ele>1803.6</ele>
        <time>2021-02-20T07:47:33Z</time>
      </trkpt>
      <trkpt lat="45.17374" lon="5.92883">
        <ele>1803.9</ele>
        <time>2021-02-20T07:47:34Z</time>
      </trkpt>
      <trkpt lat="45.17375" lon="5.92885">
        <ele>1804.2</ele>
        <time>2021-02-20T07:47:35Z</time>
      </trkpt>
      <trkpt lat="45.17375" lon="5.92886">
        <ele>1804.3</ele>
        <time>2021-02-20T07:47:36Z</time>
      </trkpt>
      <trkpt lat="45.17375" lon="5.92886">
        <ele>1804.5</ele>
        <time>2021-02-20T07:47:37Z</time>
      </trkpt>
      <trkpt lat="45.17375" lon="5.92887">
        <ele>1804.7</ele>
        <time>2021-02-20T07:47:38Z</time>
      </trkpt>
      <trkpt lat="45.17375" lon="5.92888">
        <ele>1804.8</ele>
        <time>2021-02-20T07:47:39Z</time>
      </trkpt>
      <trkpt lat="45.17375" lon="5.92889">
        <ele>1805</ele>
        <time>2021-02-20T07:47:40Z</time>
      </trkpt>
      <trkpt lat="45.17376" lon="5.9289">
        <ele>1805.2</ele>
        <time>2021-02-20T07:47:41Z</time>
      </trkpt>
      <trkpt lat="45.17376" lon="5.92891">
        <ele>1805.3</ele>
        <time>2021-02-20T07:47:42Z</time>
      </trkpt>
      <trkpt lat="45.17376" lon="5.92892">
        <ele>1805.5</ele>
        <time>2021-02-20T07:47:43Z</time>
      </trkpt>
      <trkpt lat="45.17377" lon="5.92892">
        <ele>1805.6</ele>
        <time>2021-02-20T07:47:44Z</time>
      </trkpt>
      <trkpt lat="45.17377" lon="5.92893">
        <ele>1805.7</ele>
        <time>2021-02-20T07:47:45Z</time>
      </trkpt>
      <trkpt lat="45.17377" lon="5.92893">
        <ele>1805.9</ele>
        <time>2021-02-20T07:47:46Z</time>
      </trkpt>
      <trkpt lat="45.17378" lon="5.92894">
        <ele>1806.1</ele>
        <time>2021-02-20T07:47:47Z</time>
      </trkpt>
      <trkpt lat="45.17379" lon="5.92894">
        <ele>1806.2</ele>
        <time>2021-02-20T07:47:48Z</time>
      </trkpt>
      <trkpt lat="45.17379" lon="5.92894">
        <ele>1806.3</ele>
        <time>2021-02-20T07:47:49Z</time>
      </trkpt>
      <trkpt lat="45.1738" lon="5.92894">
        <ele>1806.5</ele>
        <time>2021-02-20T07:47:50Z</time>
      </trkpt>
      <trkpt lat="45.1738" lon="5.92895">
        <ele>1806.7</ele>
        <time>2021-02-20T07:47:51Z</time>
      </trkpt>
      <trkpt lat="45.17381" lon="5.92896">
        <ele>1806.9</ele>
        <time>2021-02-20T07:47:52Z</time>
      </trkpt>
      <trkpt lat="45.17382" lon="5.92896">
        <ele>1807.1</ele>
        <time>2021-02-20T07:47:53Z</time>
      </trkpt>
      <trkpt lat="45.17382" lon="5.92897">
        <ele>1807.3</ele>
        <time>2021-02-20T07:47:54Z</time>
      </trkpt>
      <trkpt lat="45.17383" lon="5.92897">
        <ele>1807.4</ele>
        <time>2021-02-20T07:47:55Z</time>
      </trkpt>
      <trkpt lat="45.17383" lon="5.92897">
        <ele>1807.5</ele>
        <time>2021-02-20T07:47:56Z</time>
      </trkpt>
      <trkpt lat="45.17383" lon="5.92898">
        <ele>1807.6</ele>
        <time>2021-02-20T07:47:57Z</time>
      </trkpt>
      <trkpt lat="45.17383" lon="5.92899">
        <ele>1807.9</ele>
        <time>2021-02-20T07:47:58Z</time>
      </trkpt>
      <trkpt lat="45.17383" lon="5.929">
        <ele>1808</ele>
        <time>2021-02-20T07:47:59Z</time>
      </trkpt>
      <trkpt lat="45.17384" lon="5.92901">
        <ele>1808.2</ele>
        <time>2021-02-20T07:48:00Z</time>
      </trkpt>
      <trkpt lat="45.17384" lon="5.92902">
        <ele>1808.4</ele>
        <time>2021-02-20T07:48:01Z</time>
      </trkpt>
      <trkpt lat="45.17384" lon="5.92903">
        <ele>1808.6</ele>
        <time>2021-02-20T07:48:02Z</time>
      </trkpt>
      <trkpt lat="45.17384" lon="5.92904">
        <ele>1808.7</ele>
        <time>2021-02-20T07:48:03Z</time>
      </trkpt>
      <trkpt lat="45.17384" lon="5.92905">
        <ele>1808.9</ele>
        <time>2021-02-20T07:48:04Z</time>
      </trkpt>
      <trkpt lat="45.17384" lon="5.92906">
        <ele>1809</ele>
        <time>2021-02-20T07:48:05Z</time>
      </trkpt>
      <trkpt lat="45.17385" lon="5.92906">
        <ele>1809.2</ele>
        <time>2021-02-20T07:48:06Z</time>
      </trkpt>
      <trkpt lat="45.17384" lon="5.92907">
        <ele>1809.4</ele>
        <time>2021-02-20T07:48:07Z</time>
      </trkpt>
      <trkpt lat="45.17384" lon="5.92908">
        <ele>1809.5</ele>
        <time>2021-02-20T07:48:08Z</time>
      </trkpt>
      <trkpt lat="45.17384" lon="5.92909">
        <ele>1809.7</ele>
        <time>2021-02-20T07:48:09Z</time>
      </trkpt>
      <trkpt lat="45.17384" lon="5.9291">
        <ele>1809.9</ele>
        <time>2021-02-20T07:48:10Z</time>
      </trkpt>
      <trkpt lat="45.17383" lon="5.92911">
        <ele>1810.1</ele>
        <time>2021-02-20T07:48:11Z</time>
      </trkpt>
      <trkpt lat="45.17383" lon="5.92912">
        <ele>1810.2</ele>
        <time>2021-02-20T07:48:12Z</time>
      </trkpt>
      <trkpt lat="45.17383" lon="5.92913">
        <ele>1810.5</ele>
        <time>2021-02-20T07:48:13Z</time>
      </trkpt>
      <trkpt lat="45.17383" lon="5.92914">
        <ele>1810.7</ele>
        <time>2021-02-20T07:48:14Z</time>
      </trkpt>
      <trkpt lat="45.17383" lon="5.92915">
        <ele>1810.9</ele>
        <time>2021-02-20T07:48:15Z</time>
      </trkpt>
      <trkpt lat="45.17383" lon="5.92916">
        <ele>1811</ele>
        <time>2021-02-20T07:48:16Z</time>
      </trkpt>
      <trkpt lat="45.17383" lon="5.92916">
        <ele>1811</ele>
        <time>2021-02-20T07:48:17Z</time>
      </trkpt>
      <trkpt lat="45.17383" lon="5.92916">
        <ele>1811.1</ele>
        <time>2021-02-20T07:48:18Z</time>
      </trkpt>
      <trkpt lat="45.17383" lon="5.92916">
        <ele>1811.1</ele>
        <time>2021-02-20T07:48:19Z</time>
      </trkpt>
      <trkpt lat="45.17383" lon="5.92917">
        <ele>1811.3</ele>
        <time>2021-02-20T07:48:20Z</time>
      </trkpt>
      <trkpt lat="45.17383" lon="5.92917">
        <ele>1811.3</ele>
        <time>2021-02-20T07:48:21Z</time>
      </trkpt>
      <trkpt lat="45.17384" lon="5.92918">
        <ele>1811.6</ele>
        <time>2021-02-20T07:48:22Z</time>
      </trkpt>
      <trkpt lat="45.17385" lon="5.92919">
        <ele>1811.8</ele>
        <time>2021-02-20T07:48:23Z</time>
      </trkpt>
      <trkpt lat="45.17385" lon="5.9292">
        <ele>1812.1</ele>
        <time>2021-02-20T07:48:24Z</time>
      </trkpt>
      <trkpt lat="45.17386" lon="5.92921">
        <ele>1812.3</ele>
        <time>2021-02-20T07:48:25Z</time>
      </trkpt>
      <trkpt lat="45.17387" lon="5.92921">
        <ele>1812.5</ele>
        <time>2021-02-20T07:48:26Z</time>
      </trkpt>
      <trkpt lat="45.17387" lon="5.92921">
        <ele>1812.5</ele>
        <time>2021-02-20T07:48:27Z</time>
      </trkpt>
      <trkpt lat="45.17387" lon="5.92922">
        <ele>1812.7</ele>
        <time>2021-02-20T07:48:28Z</time>
      </trkpt>
      <trkpt lat="45.17388" lon="5.92922">
        <ele>1812.8</ele>
        <time>2021-02-20T07:48:29Z</time>
      </trkpt>
      <trkpt lat="45.17388" lon="5.92921">
        <ele>1813</ele>
        <time>2021-02-20T07:48:30Z</time>
      </trkpt>
      <trkpt lat="45.17389" lon="5.92921">
        <ele>1813.1</ele>
        <time>2021-02-20T07:48:31Z</time>
      </trkpt>
      <trkpt lat="45.17389" lon="5.9292">
        <ele>1813.3</ele>
        <time>2021-02-20T07:48:32Z</time>
      </trkpt>
      <trkpt lat="45.1739" lon="5.92921">
        <ele>1813.4</ele>
        <time>2021-02-20T07:48:33Z</time>
      </trkpt>
      <trkpt lat="45.1739" lon="5.92921">
        <ele>1813.4</ele>
        <time>2021-02-20T07:48:34Z</time>
      </trkpt>
      <trkpt lat="45.1739" lon="5.92921">
        <ele>1813.5</ele>
        <time>2021-02-20T07:48:35Z</time>
      </trkpt>
      <trkpt lat="45.17391" lon="5.92921">
        <ele>1813.7</ele>
        <time>2021-02-20T07:48:36Z</time>
      </trkpt>
      <trkpt lat="45.17391" lon="5.92922">
        <ele>1813.8</ele>
        <time>2021-02-20T07:48:37Z</time>
      </trkpt>
      <trkpt lat="45.17391" lon="5.92923">
        <ele>1814</ele>
        <time>2021-02-20T07:48:38Z</time>
      </trkpt>
      <trkpt lat="45.17392" lon="5.92924">
        <ele>1814.2</ele>
        <time>2021-02-20T07:48:39Z</time>
      </trkpt>
      <trkpt lat="45.17393" lon="5.92925">
        <ele>1814.5</ele>
        <time>2021-02-20T07:48:40Z</time>
      </trkpt>
      <trkpt lat="45.17393" lon="5.92926">
        <ele>1814.8</ele>
        <time>2021-02-20T07:48:41Z</time>
      </trkpt>
      <trkpt lat="45.17393" lon="5.92928">
        <ele>1815.1</ele>
        <time>2021-02-20T07:48:42Z</time>
      </trkpt>
      <trkpt lat="45.17393" lon="5.92929">
        <ele>1815.4</ele>
        <time>2021-02-20T07:48:43Z</time>
      </trkpt>
      <trkpt lat="45.17393" lon="5.92931">
        <ele>1815.7</ele>
        <time>2021-02-20T07:48:44Z</time>
      </trkpt>
      <trkpt lat="45.17392" lon="5.92932">
        <ele>1816</ele>
        <time>2021-02-20T07:48:45Z</time>
      </trkpt>
      <trkpt lat="45.17392" lon="5.92933">
        <ele>1816.3</ele>
        <time>2021-02-20T07:48:46Z</time>
      </trkpt>
      <trkpt lat="45.17392" lon="5.92934">
        <ele>1816.5</ele>
        <time>2021-02-20T07:48:47Z</time>
      </trkpt>
      <trkpt lat="45.17392" lon="5.92935">
        <ele>1816.7</ele>
        <time>2021-02-20T07:48:48Z</time>
      </trkpt>
      <trkpt lat="45.17392" lon="5.92936">
        <ele>1816.9</ele>
        <time>2021-02-20T07:48:49Z</time>
      </trkpt>
      <trkpt lat="45.17392" lon="5.92937">
        <ele>1817.1</ele>
        <time>2021-02-20T07:48:50Z</time>
      </trkpt>
      <trkpt lat="45.17393" lon="5.92938">
        <ele>1817.5</ele>
        <time>2021-02-20T07:48:51Z</time>
      </trkpt>
      <trkpt lat="45.17394" lon="5.92939">
        <ele>1817.8</ele>
        <time>2021-02-20T07:48:52Z</time>
      </trkpt>
      <trkpt lat="45.17395" lon="5.9294">
        <ele>1818.2</ele>
        <time>2021-02-20T07:48:53Z</time>
      </trkpt>
      <trkpt lat="45.17395" lon="5.92941">
        <ele>1818.6</ele>
        <time>2021-02-20T07:48:54Z</time>
      </trkpt>
      <trkpt lat="45.17396" lon="5.92942">
        <ele>1819.1</ele>
        <time>2021-02-20T07:48:55Z</time>
      </trkpt>
      <trkpt lat="45.17397" lon="5.92943">
        <ele>1819.3</ele>
        <time>2021-02-20T07:48:56Z</time>
      </trkpt>
      <trkpt lat="45.17398" lon="5.92943">
        <ele>1819.6</ele>
        <time>2021-02-20T07:48:57Z</time>
      </trkpt>
      <trkpt lat="45.17398" lon="5.92943">
        <ele>1819.9</ele>
        <time>2021-02-20T07:48:58Z</time>
      </trkpt>
      <trkpt lat="45.17399" lon="5.92944">
        <ele>1820.1</ele>
        <time>2021-02-20T07:48:59Z</time>
      </trkpt>
      <trkpt lat="45.17399" lon="5.92944">
        <ele>1820.3</ele>
        <time>2021-02-20T07:49:00Z</time>
      </trkpt>
      <trkpt lat="45.174" lon="5.92945">
        <ele>1820.5</ele>
        <time>2021-02-20T07:49:01Z</time>
      </trkpt>
      <trkpt lat="45.174" lon="5.92945">
        <ele>1820.5</ele>
        <time>2021-02-20T07:49:02Z</time>
      </trkpt>
      <trkpt lat="45.174" lon="5.92946">
        <ele>1820.9</ele>
        <time>2021-02-20T07:49:03Z</time>
      </trkpt>
      <trkpt lat="45.17401" lon="5.92948">
        <ele>1821.3</ele>
        <time>2021-02-20T07:49:04Z</time>
      </trkpt>
      <trkpt lat="45.17401" lon="5.92949">
        <ele>1821.7</ele>
        <time>2021-02-20T07:49:05Z</time>
      </trkpt>
      <trkpt lat="45.17401" lon="5.92951">
        <ele>1822</ele>
        <time>2021-02-20T07:49:06Z</time>
      </trkpt>
      <trkpt lat="45.17401" lon="5.92952">
        <ele>1822.3</ele>
        <time>2021-02-20T07:49:07Z</time>
      </trkpt>
      <trkpt lat="45.17402" lon="5.92953">
        <ele>1822.6</ele>
        <time>2021-02-20T07:49:08Z</time>
      </trkpt>
      <trkpt lat="45.17402" lon="5.92954">
        <ele>1822.9</ele>
        <time>2021-02-20T07:49:09Z</time>
      </trkpt>
      <trkpt lat="45.17403" lon="5.92955">
        <ele>1823.2</ele>
        <time>2021-02-20T07:49:10Z</time>
      </trkpt>
      <trkpt lat="45.17403" lon="5.92956">
        <ele>1823.4</ele>
        <time>2021-02-20T07:49:11Z</time>
      </trkpt>
      <trkpt lat="45.17403" lon="5.92956">
        <ele>1823.6</ele>
        <time>2021-02-20T07:49:12Z</time>
      </trkpt>
      <trkpt lat="45.17404" lon="5.92957">
        <ele>1823.7</ele>
        <time>2021-02-20T07:49:13Z</time>
      </trkpt>
      <trkpt lat="45.17404" lon="5.92957">
        <ele>1823.8</ele>
        <time>2021-02-20T07:49:14Z</time>
      </trkpt>
      <trkpt lat="45.17404" lon="5.92957">
        <ele>1823.9</ele>
        <time>2021-02-20T07:49:15Z</time>
      </trkpt>
      <trkpt lat="45.17404" lon="5.92958">
        <ele>1824.1</ele>
        <time>2021-02-20T07:49:16Z</time>
      </trkpt>
      <trkpt lat="45.17405" lon="5.9296">
        <ele>1824.4</ele>
        <time>2021-02-20T07:49:17Z</time>
      </trkpt>
      <trkpt lat="45.17405" lon="5.92961">
        <ele>1824.8</ele>
        <time>2021-02-20T07:49:18Z</time>
      </trkpt>
      <trkpt lat="45.17406" lon="5.92962">
        <ele>1825.1</ele>
        <time>2021-02-20T07:49:19Z</time>
      </trkpt>
      <trkpt lat="45.17407" lon="5.92963">
        <ele>1825.4</ele>
        <time>2021-02-20T07:49:20Z</time>
      </trkpt>
      <trkpt lat="45.17407" lon="5.92964">
        <ele>1825.6</ele>
        <time>2021-02-20T07:49:21Z</time>
      </trkpt>
      <trkpt lat="45.17407" lon="5.92965">
        <ele>1825.7</ele>
        <time>2021-02-20T07:49:22Z</time>
      </trkpt>
      <trkpt lat="45.17407" lon="5.92965">
        <ele>1825.9</ele>
        <time>2021-02-20T07:49:23Z</time>
      </trkpt>
      <trkpt lat="45.17406" lon="5.92966">
        <ele>1826.1</ele>
        <time>2021-02-20T07:49:24Z</time>
      </trkpt>
      <trkpt lat="45.17406" lon="5.92967">
        <ele>1826.4</ele>
        <time>2021-02-20T07:49:25Z</time>
      </trkpt>
      <trkpt lat="45.17405" lon="5.92968">
        <ele>1826.7</ele>
        <time>2021-02-20T07:49:26Z</time>
      </trkpt>
      <trkpt lat="45.17405" lon="5.92969">
        <ele>1826.9</ele>
        <time>2021-02-20T07:49:27Z</time>
      </trkpt>
      <trkpt lat="45.17404" lon="5.9297">
        <ele>1827.2</ele>
        <time>2021-02-20T07:49:28Z</time>
      </trkpt>
      <trkpt lat="45.17404" lon="5.92971">
        <ele>1827.4</ele>
        <time>2021-02-20T07:49:29Z</time>
      </trkpt>
      <trkpt lat="45.17403" lon="5.92972">
        <ele>1827.6</ele>
        <time>2021-02-20T07:49:30Z</time>
      </trkpt>
      <trkpt lat="45.17403" lon="5.92973">
        <ele>1827.8</ele>
        <time>2021-02-20T07:49:31Z</time>
      </trkpt>
      <trkpt lat="45.17403" lon="5.92973">
        <ele>1828</ele>
        <time>2021-02-20T07:49:32Z</time>
      </trkpt>
      <trkpt lat="45.17403" lon="5.92974">
        <ele>1828.2</ele>
        <time>2021-02-20T07:49:33Z</time>
      </trkpt>
      <trkpt lat="45.17404" lon="5.92975">
        <ele>1828.4</ele>
        <time>2021-02-20T07:49:34Z</time>
      </trkpt>
      <trkpt lat="45.17405" lon="5.92975">
        <ele>1828.6</ele>
        <time>2021-02-20T07:49:35Z</time>
      </trkpt>
      <trkpt lat="45.17405" lon="5.92975">
        <ele>1828.8</ele>
        <time>2021-02-20T07:49:36Z</time>
      </trkpt>
      <trkpt lat="45.17406" lon="5.92975">
        <ele>1828.9</ele>
        <time>2021-02-20T07:49:37Z</time>
      </trkpt>
      <trkpt lat="45.17406" lon="5.92975">
        <ele>1829</ele>
        <time>2021-02-20T07:49:38Z</time>
      </trkpt>
      <trkpt lat="45.17407" lon="5.92975">
        <ele>1829.2</ele>
        <time>2021-02-20T07:49:39Z</time>
      </trkpt>
      <trkpt lat="45.17408" lon="5.92975">
        <ele>1829.4</ele>
        <time>2021-02-20T07:49:40Z</time>
      </trkpt>
      <trkpt lat="45.17408" lon="5.92976">
        <ele>1829.6</ele>
        <time>2021-02-20T07:49:41Z</time>
      </trkpt>
      <trkpt lat="45.1741" lon="5.92977">
        <ele>1830.1</ele>
        <time>2021-02-20T07:49:42Z</time>
      </trkpt>
      <trkpt lat="45.1741" lon="5.92979">
        <ele>1830.4</ele>
        <time>2021-02-20T07:49:43Z</time>
      </trkpt>
      <trkpt lat="45.17411" lon="5.9298">
        <ele>1830.7</ele>
        <time>2021-02-20T07:49:44Z</time>
      </trkpt>
      <trkpt lat="45.17412" lon="5.92981">
        <ele>1831</ele>
        <time>2021-02-20T07:49:45Z</time>
      </trkpt>
      <trkpt lat="45.17412" lon="5.92982">
        <ele>1831.3</ele>
        <time>2021-02-20T07:49:46Z</time>
      </trkpt>
      <trkpt lat="45.17413" lon="5.92983">
        <ele>1831.6</ele>
        <time>2021-02-20T07:49:47Z</time>
      </trkpt>
      <trkpt lat="45.17414" lon="5.92985">
        <ele>1831.9</ele>
        <time>2021-02-20T07:49:48Z</time>
      </trkpt>
      <trkpt lat="45.17415" lon="5.92986">
        <ele>1832.2</ele>
        <time>2021-02-20T07:49:49Z</time>
      </trkpt>
      <trkpt lat="45.17415" lon="5.92987">
        <ele>1832.5</ele>
        <time>2021-02-20T07:49:50Z</time>
      </trkpt>
      <trkpt lat="45.17416" lon="5.92988">
        <ele>1832.8</ele>
        <time>2021-02-20T07:49:51Z</time>
      </trkpt>
      <trkpt lat="45.17417" lon="5.9299">
        <ele>1833.1</ele>
        <time>2021-02-20T07:49:52Z</time>
      </trkpt>
      <trkpt lat="45.17417" lon="5.92991">
        <ele>1833.4</ele>
        <time>2021-02-20T07:49:53Z</time>
      </trkpt>
      <trkpt lat="45.17418" lon="5.92992">
        <ele>1833.7</ele>
        <time>2021-02-20T07:49:54Z</time>
      </trkpt>
      <trkpt lat="45.17419" lon="5.92993">
        <ele>1834</ele>
        <time>2021-02-20T07:50:26Z</time>
      </trkpt>
      <trkpt lat="45.17419" lon="5.92994">
        <ele>1834.3</ele>
        <time>2021-02-20T07:50:27Z</time>
      </trkpt>
      <trkpt lat="45.1742" lon="5.92996">
        <ele>1834.6</ele>
        <time>2021-02-20T07:50:28Z</time>
      </trkpt>
      <trkpt lat="45.17421" lon="5.92997">
        <ele>1834.8</ele>
        <time>2021-02-20T07:50:29Z</time>
      </trkpt>
      <trkpt lat="45.17421" lon="5.92998">
        <ele>1835</ele>
        <time>2021-02-20T07:50:30Z</time>
      </trkpt>
      <trkpt lat="45.17422" lon="5.92998">
        <ele>1835.2</ele>
        <time>2021-02-20T07:50:31Z</time>
      </trkpt>
      <trkpt lat="45.17422" lon="5.92999">
        <ele>1835.3</ele>
        <time>2021-02-20T07:50:32Z</time>
      </trkpt>
      <trkpt lat="45.17422" lon="5.93">
        <ele>1835.6</ele>
        <time>2021-02-20T07:50:33Z</time>
      </trkpt>
      <trkpt lat="45.17423" lon="5.93001">
        <ele>1835.8</ele>
        <time>2021-02-20T07:50:34Z</time>
      </trkpt>
      <trkpt lat="45.17423" lon="5.93002">
        <ele>1835.9</ele>
        <time>2021-02-20T07:50:35Z</time>
      </trkpt>
      <trkpt lat="45.17424" lon="5.93003">
        <ele>1836</ele>
        <time>2021-02-20T07:50:36Z</time>
      </trkpt>
      <trkpt lat="45.17424" lon="5.93003">
        <ele>1836.1</ele>
        <time>2021-02-20T07:50:37Z</time>
      </trkpt>
      <trkpt lat="45.17424" lon="5.93004">
        <ele>1836.2</ele>
        <time>2021-02-20T07:50:38Z</time>
      </trkpt>
      <trkpt lat="45.17424" lon="5.93005">
        <ele>1836.3</ele>
        <time>2021-02-20T07:50:39Z</time>
      </trkpt>
      <trkpt lat="45.17423" lon="5.93005">
        <ele>1836.4</ele>
        <time>2021-02-20T07:50:40Z</time>
      </trkpt>
      <trkpt lat="45.17423" lon="5.93006">
        <ele>1836.5</ele>
        <time>2021-02-20T07:50:41Z</time>
      </trkpt>
      <trkpt lat="45.17423" lon="5.93007">
        <ele>1836.7</ele>
        <time>2021-02-20T07:50:42Z</time>
      </trkpt>
      <trkpt lat="45.17423" lon="5.93008">
        <ele>1836.8</ele>
        <time>2021-02-20T07:50:43Z</time>
      </trkpt>
      <trkpt lat="45.17423" lon="5.93009">
        <ele>1836.9</ele>
        <time>2021-02-20T07:50:44Z</time>
      </trkpt>
      <trkpt lat="45.17423" lon="5.9301">
        <ele>1837</ele>
        <time>2021-02-20T07:50:45Z</time>
      </trkpt>
      <trkpt lat="45.17423" lon="5.93011">
        <ele>1837.1</ele>
        <time>2021-02-20T07:50:46Z</time>
      </trkpt>
      <trkpt lat="45.17423" lon="5.93012">
        <ele>1837.2</ele>
        <time>2021-02-20T07:50:47Z</time>
      </trkpt>
      <trkpt lat="45.17423" lon="5.93013">
        <ele>1837.3</ele>
        <time>2021-02-20T07:50:48Z</time>
      </trkpt>
      <trkpt lat="45.17424" lon="5.93014">
        <ele>1837.4</ele>
        <time>2021-02-20T07:50:49Z</time>
      </trkpt>
      <trkpt lat="45.17424" lon="5.93015">
        <ele>1837.6</ele>
        <time>2021-02-20T07:50:50Z</time>
      </trkpt>
      <trkpt lat="45.17424" lon="5.93016">
        <ele>1837.7</ele>
        <time>2021-02-20T07:50:51Z</time>
      </trkpt>
      <trkpt lat="45.17425" lon="5.93017">
        <ele>1837.8</ele>
        <time>2021-02-20T07:50:52Z</time>
      </trkpt>
      <trkpt lat="45.17425" lon="5.93018">
        <ele>1837.9</ele>
        <time>2021-02-20T07:50:53Z</time>
      </trkpt>
      <trkpt lat="45.17426" lon="5.93019">
        <ele>1838</ele>
        <time>2021-02-20T07:50:54Z</time>
      </trkpt>
      <trkpt lat="45.17426" lon="5.9302">
        <ele>1838.1</ele>
        <time>2021-02-20T07:50:55Z</time>
      </trkpt>
      <trkpt lat="45.17427" lon="5.93021">
        <ele>1838.2</ele>
        <time>2021-02-20T07:50:56Z</time>
      </trkpt>
      <trkpt lat="45.17427" lon="5.93023">
        <ele>1838.3</ele>
        <time>2021-02-20T07:50:57Z</time>
      </trkpt>
      <trkpt lat="45.17427" lon="5.93024">
        <ele>1838.3</ele>
        <time>2021-02-20T07:50:58Z</time>
      </trkpt>
      <trkpt lat="45.17428" lon="5.93025">
        <ele>1838.4</ele>
        <time>2021-02-20T07:50:59Z</time>
      </trkpt>
      <trkpt lat="45.17428" lon="5.93027">
        <ele>1838.5</ele>
        <time>2021-02-20T07:51:00Z</time>
      </trkpt>
      <trkpt lat="45.17428" lon="5.93028">
        <ele>1838.6</ele>
        <time>2021-02-20T07:51:01Z</time>
      </trkpt>
      <trkpt lat="45.17428" lon="5.93029">
        <ele>1838.6</ele>
        <time>2021-02-20T07:51:02Z</time>
      </trkpt>
      <trkpt lat="45.17428" lon="5.9303">
        <ele>1838.6</ele>
        <time>2021-02-20T07:51:03Z</time>
      </trkpt>
      <trkpt lat="45.17429" lon="5.93032">
        <ele>1838.7</ele>
        <time>2021-02-20T07:51:04Z</time>
      </trkpt>
      <trkpt lat="45.1743" lon="5.93033">
        <ele>1838.8</ele>
        <time>2021-02-20T07:51:05Z</time>
      </trkpt>
      <trkpt lat="45.1743" lon="5.93034">
        <ele>1838.8</ele>
        <time>2021-02-20T07:51:06Z</time>
      </trkpt>
      <trkpt lat="45.17431" lon="5.93035">
        <ele>1838.8</ele>
        <time>2021-02-20T07:51:07Z</time>
      </trkpt>
      <trkpt lat="45.17431" lon="5.93037">
        <ele>1838.9</ele>
        <time>2021-02-20T07:51:08Z</time>
      </trkpt>
      <trkpt lat="45.17432" lon="5.93038">
        <ele>1838.9</ele>
        <time>2021-02-20T07:51:09Z</time>
      </trkpt>
      <trkpt lat="45.17432" lon="5.93039">
        <ele>1838.9</ele>
        <time>2021-02-20T07:51:10Z</time>
      </trkpt>
      <trkpt lat="45.17433" lon="5.9304">
        <ele>1839</ele>
        <time>2021-02-20T07:51:11Z</time>
      </trkpt>
      <trkpt lat="45.17433" lon="5.93041">
        <ele>1839</ele>
        <time>2021-02-20T07:51:12Z</time>
      </trkpt>
      <trkpt lat="45.17434" lon="5.93043">
        <ele>1839</ele>
        <time>2021-02-20T07:51:13Z</time>
      </trkpt>
      <trkpt lat="45.17434" lon="5.93044">
        <ele>1839</ele>
        <time>2021-02-20T07:51:14Z</time>
      </trkpt>
      <trkpt lat="45.17435" lon="5.93045">
        <ele>1839.1</ele>
        <time>2021-02-20T07:51:15Z</time>
      </trkpt>
      <trkpt lat="45.17435" lon="5.93046">
        <ele>1839.1</ele>
        <time>2021-02-20T07:51:16Z</time>
      </trkpt>
      <trkpt lat="45.17436" lon="5.93046">
        <ele>1839.1</ele>
        <time>2021-02-20T07:51:17Z</time>
      </trkpt>
      <trkpt lat="45.17436" lon="5.93047">
        <ele>1839.2</ele>
        <time>2021-02-20T07:51:18Z</time>
      </trkpt>
      <trkpt lat="45.17437" lon="5.93048">
        <ele>1839.2</ele>
        <time>2021-02-20T07:51:19Z</time>
      </trkpt>
      <trkpt lat="45.17438" lon="5.9305">
        <ele>1839.3</ele>
        <time>2021-02-20T07:51:20Z</time>
      </trkpt>
      <trkpt lat="45.17438" lon="5.93052">
        <ele>1839.3</ele>
        <time>2021-02-20T07:51:21Z</time>
      </trkpt>
      <trkpt lat="45.17439" lon="5.93053">
        <ele>1839.4</ele>
        <time>2021-02-20T07:51:22Z</time>
      </trkpt>
      <trkpt lat="45.17439" lon="5.93054">
        <ele>1839.4</ele>
        <time>2021-02-20T07:51:23Z</time>
      </trkpt>
      <trkpt lat="45.1744" lon="5.93055">
        <ele>1839.5</ele>
        <time>2021-02-20T07:51:24Z</time>
      </trkpt>
      <trkpt lat="45.1744" lon="5.93056">
        <ele>1839.5</ele>
        <time>2021-02-20T07:51:25Z</time>
      </trkpt>
      <trkpt lat="45.1744" lon="5.93057">
        <ele>1839.5</ele>
        <time>2021-02-20T07:51:26Z</time>
      </trkpt>
      <trkpt lat="45.17441" lon="5.93058">
        <ele>1839.6</ele>
        <time>2021-02-20T07:51:27Z</time>
      </trkpt>
      <trkpt lat="45.17441" lon="5.93059">
        <ele>1839.6</ele>
        <time>2021-02-20T07:51:28Z</time>
      </trkpt>
      <trkpt lat="45.17441" lon="5.9306">
        <ele>1839.7</ele>
        <time>2021-02-20T07:51:29Z</time>
      </trkpt>
      <trkpt lat="45.17442" lon="5.93061">
        <ele>1839.8</ele>
        <time>2021-02-20T07:51:30Z</time>
      </trkpt>
      <trkpt lat="45.17442" lon="5.93062">
        <ele>1839.8</ele>
        <time>2021-02-20T07:51:31Z</time>
      </trkpt>
      <trkpt lat="45.17442" lon="5.93063">
        <ele>1839.9</ele>
        <time>2021-02-20T07:51:32Z</time>
      </trkpt>
      <trkpt lat="45.17443" lon="5.93063">
        <ele>1839.9</ele>
        <time>2021-02-20T07:51:33Z</time>
      </trkpt>
      <trkpt lat="45.17443" lon="5.93064">
        <ele>1840</ele>
        <time>2021-02-20T07:51:34Z</time>
      </trkpt>
      <trkpt lat="45.17444" lon="5.93066">
        <ele>1840.1</ele>
        <time>2021-02-20T07:51:35Z</time>
      </trkpt>
      <trkpt lat="45.17444" lon="5.93067">
        <ele>1840.2</ele>
        <time>2021-02-20T07:51:36Z</time>
      </trkpt>
      <trkpt lat="45.17444" lon="5.93068">
        <ele>1840.3</ele>
        <time>2021-02-20T07:51:37Z</time>
      </trkpt>
      <trkpt lat="45.17445" lon="5.93069">
        <ele>1840.3</ele>
        <time>2021-02-20T07:51:38Z</time>
      </trkpt>
      <trkpt lat="45.17445" lon="5.93071">
        <ele>1840.4</ele>
        <time>2021-02-20T07:51:39Z</time>
      </trkpt>
      <trkpt lat="45.17445" lon="5.93072">
        <ele>1840.5</ele>
        <time>2021-02-20T07:51:40Z</time>
      </trkpt>
      <trkpt lat="45.17445" lon="5.93073">
        <ele>1840.6</ele>
        <time>2021-02-20T07:51:41Z</time>
      </trkpt>
      <trkpt lat="45.17446" lon="5.93074">
        <ele>1840.7</ele>
        <time>2021-02-20T07:51:42Z</time>
      </trkpt>
      <trkpt lat="45.17446" lon="5.93075">
        <ele>1840.8</ele>
        <time>2021-02-20T07:51:43Z</time>
      </trkpt>
      <trkpt lat="45.17446" lon="5.93076">
        <ele>1840.9</ele>
        <time>2021-02-20T07:51:44Z</time>
      </trkpt>
      <trkpt lat="45.17446" lon="5.93077">
        <ele>1841</ele>
        <time>2021-02-20T07:51:45Z</time>
      </trkpt>
      <trkpt lat="45.17446" lon="5.93078">
        <ele>1841.1</ele>
        <time>2021-02-20T07:51:46Z</time>
      </trkpt>
      <trkpt lat="45.17447" lon="5.93079">
        <ele>1841.2</ele>
        <time>2021-02-20T07:51:47Z</time>
      </trkpt>
      <trkpt lat="45.17447" lon="5.9308">
        <ele>1841.3</ele>
        <time>2021-02-20T07:51:48Z</time>
      </trkpt>
      <trkpt lat="45.17448" lon="5.93082">
        <ele>1841.5</ele>
        <time>2021-02-20T07:51:49Z</time>
      </trkpt>
      <trkpt lat="45.17448" lon="5.93083">
        <ele>1841.6</ele>
        <time>2021-02-20T07:51:50Z</time>
      </trkpt>
      <trkpt lat="45.17449" lon="5.93083">
        <ele>1841.7</ele>
        <time>2021-02-20T07:51:51Z</time>
      </trkpt>
      <trkpt lat="45.1745" lon="5.93084">
        <ele>1841.9</ele>
        <time>2021-02-20T07:51:52Z</time>
      </trkpt>
      <trkpt lat="45.17451" lon="5.93085">
        <ele>1842</ele>
        <time>2021-02-20T07:51:53Z</time>
      </trkpt>
      <trkpt lat="45.17451" lon="5.93086">
        <ele>1842.1</ele>
        <time>2021-02-20T07:51:54Z</time>
      </trkpt>
      <trkpt lat="45.17453" lon="5.93086">
        <ele>1842.3</ele>
        <time>2021-02-20T07:51:55Z</time>
      </trkpt>
      <trkpt lat="45.17454" lon="5.93087">
        <ele>1842.5</ele>
        <time>2021-02-20T07:51:56Z</time>
      </trkpt>
      <trkpt lat="45.17455" lon="5.93088">
        <ele>1842.7</ele>
        <time>2021-02-20T07:51:57Z</time>
      </trkpt>
      <trkpt lat="45.17455" lon="5.93088">
        <ele>1842.8</ele>
        <time>2021-02-20T07:51:58Z</time>
      </trkpt>
      <trkpt lat="45.17456" lon="5.93088">
        <ele>1842.9</ele>
        <time>2021-02-20T07:51:59Z</time>
      </trkpt>
      <trkpt lat="45.17457" lon="5.93089">
        <ele>1843</ele>
        <time>2021-02-20T07:52:00Z</time>
      </trkpt>
      <trkpt lat="45.17457" lon="5.93089">
        <ele>1843.2</ele>
        <time>2021-02-20T07:52:01Z</time>
      </trkpt>
      <trkpt lat="45.17458" lon="5.9309">
        <ele>1843.3</ele>
        <time>2021-02-20T07:52:02Z</time>
      </trkpt>
      <trkpt lat="45.17458" lon="5.93091">
        <ele>1843.5</ele>
        <time>2021-02-20T07:52:03Z</time>
      </trkpt>
      <trkpt lat="45.17459" lon="5.93092">
        <ele>1843.7</ele>
        <time>2021-02-20T07:52:04Z</time>
      </trkpt>
      <trkpt lat="45.17459" lon="5.93093">
        <ele>1843.8</ele>
        <time>2021-02-20T07:52:05Z</time>
      </trkpt>
      <trkpt lat="45.17459" lon="5.93094">
        <ele>1843.9</ele>
        <time>2021-02-20T07:52:06Z</time>
      </trkpt>
      <trkpt lat="45.17459" lon="5.93096">
        <ele>1844.1</ele>
        <time>2021-02-20T07:52:07Z</time>
      </trkpt>
      <trkpt lat="45.17459" lon="5.93097">
        <ele>1844.3</ele>
        <time>2021-02-20T07:52:08Z</time>
      </trkpt>
      <trkpt lat="45.17459" lon="5.93099">
        <ele>1844.5</ele>
        <time>2021-02-20T07:52:09Z</time>
      </trkpt>
      <trkpt lat="45.17458" lon="5.931">
        <ele>1844.7</ele>
        <time>2021-02-20T07:52:10Z</time>
      </trkpt>
      <trkpt lat="45.17458" lon="5.93101">
        <ele>1844.8</ele>
        <time>2021-02-20T07:52:11Z</time>
      </trkpt>
      <trkpt lat="45.17457" lon="5.93102">
        <ele>1845</ele>
        <time>2021-02-20T07:52:12Z</time>
      </trkpt>
      <trkpt lat="45.17457" lon="5.93103">
        <ele>1845.2</ele>
        <time>2021-02-20T07:52:13Z</time>
      </trkpt>
      <trkpt lat="45.17456" lon="5.93104">
        <ele>1845.3</ele>
        <time>2021-02-20T07:52:14Z</time>
      </trkpt>
      <trkpt lat="45.17456" lon="5.93104">
        <ele>1845.5</ele>
        <time>2021-02-20T07:52:15Z</time>
      </trkpt>
      <trkpt lat="45.17455" lon="5.93105">
        <ele>1845.6</ele>
        <time>2021-02-20T07:52:16Z</time>
      </trkpt>
      <trkpt lat="45.17455" lon="5.93106">
        <ele>1845.8</ele>
        <time>2021-02-20T07:52:17Z</time>
      </trkpt>
      <trkpt lat="45.17454" lon="5.93107">
        <ele>1846</ele>
        <time>2021-02-20T07:52:18Z</time>
      </trkpt>
      <trkpt lat="45.17454" lon="5.93108">
        <ele>1846.1</ele>
        <time>2021-02-20T07:52:19Z</time>
      </trkpt>
      <trkpt lat="45.17454" lon="5.93109">
        <ele>1846.2</ele>
        <time>2021-02-20T07:52:20Z</time>
      </trkpt>
      <trkpt lat="45.17453" lon="5.9311">
        <ele>1846.4</ele>
        <time>2021-02-20T07:52:21Z</time>
      </trkpt>
      <trkpt lat="45.17453" lon="5.93111">
        <ele>1846.5</ele>
        <time>2021-02-20T07:52:22Z</time>
      </trkpt>
      <trkpt lat="45.17452" lon="5.93112">
        <ele>1846.7</ele>
        <time>2021-02-20T07:52:23Z</time>
      </trkpt>
      <trkpt lat="45.17452" lon="5.93113">
        <ele>1846.8</ele>
        <time>2021-02-20T07:52:24Z</time>
      </trkpt>
      <trkpt lat="45.17451" lon="5.93114">
        <ele>1847</ele>
        <time>2021-02-20T07:52:25Z</time>
      </trkpt>
      <trkpt lat="45.17451" lon="5.93115">
        <ele>1847.1</ele>
        <time>2021-02-20T07:52:26Z</time>
      </trkpt>
      <trkpt lat="45.1745" lon="5.93116">
        <ele>1847.2</ele>
        <time>2021-02-20T07:52:27Z</time>
      </trkpt>
      <trkpt lat="45.1745" lon="5.93117">
        <ele>1847.4</ele>
        <time>2021-02-20T07:52:28Z</time>
      </trkpt>
      <trkpt lat="45.17449" lon="5.93118">
        <ele>1847.5</ele>
        <time>2021-02-20T07:52:29Z</time>
      </trkpt>
      <trkpt lat="45.17448" lon="5.93119">
        <ele>1847.7</ele>
        <time>2021-02-20T07:52:30Z</time>
      </trkpt>
      <trkpt lat="45.17448" lon="5.9312">
        <ele>1847.8</ele>
        <time>2021-02-20T07:52:31Z</time>
      </trkpt>
      <trkpt lat="45.17447" lon="5.93121">
        <ele>1847.9</ele>
        <time>2021-02-20T07:52:32Z</time>
      </trkpt>
      <trkpt lat="45.17447" lon="5.93122">
        <ele>1848</ele>
        <time>2021-02-20T07:52:33Z</time>
      </trkpt>
      <trkpt lat="45.17447" lon="5.93123">
        <ele>1848.1</ele>
        <time>2021-02-20T07:52:34Z</time>
      </trkpt>
      <trkpt lat="45.17447" lon="5.93124">
        <ele>1848.2</ele>
        <time>2021-02-20T07:52:35Z</time>
      </trkpt>
      <trkpt lat="45.17447" lon="5.93125">
        <ele>1848.3</ele>
        <time>2021-02-20T07:52:36Z</time>
      </trkpt>
      <trkpt lat="45.17447" lon="5.93127">
        <ele>1848.4</ele>
        <time>2021-02-20T07:52:37Z</time>
      </trkpt>
      <trkpt lat="45.17448" lon="5.93128">
        <ele>1848.5</ele>
        <time>2021-02-20T07:52:38Z</time>
      </trkpt>
      <trkpt lat="45.17448" lon="5.93129">
        <ele>1848.5</ele>
        <time>2021-02-20T07:52:39Z</time>
      </trkpt>
      <trkpt lat="45.17448" lon="5.93129">
        <ele>1849.1</ele>
        <time>2021-02-20T07:52:40Z</time>
      </trkpt>
      <trkpt lat="45.17448" lon="5.9313">
        <ele>1849.1</ele>
        <time>2021-02-20T07:52:41Z</time>
      </trkpt>
      <trkpt lat="45.17448" lon="5.93131">
        <ele>1849.1</ele>
        <time>2021-02-20T07:52:42Z</time>
      </trkpt>
      <trkpt lat="45.17448" lon="5.93132">
        <ele>1849.1</ele>
        <time>2021-02-20T07:52:43Z</time>
      </trkpt>
      <trkpt lat="45.17449" lon="5.93133">
        <ele>1849.8</ele>
        <time>2021-02-20T07:52:44Z</time>
      </trkpt>
      <trkpt lat="45.17449" lon="5.93134">
        <ele>1849.8</ele>
        <time>2021-02-20T07:52:45Z</time>
      </trkpt>
      <trkpt lat="45.17449" lon="5.93136">
        <ele>1849.8</ele>
        <time>2021-02-20T07:52:46Z</time>
      </trkpt>
      <trkpt lat="45.17448" lon="5.93137">
        <ele>1849.8</ele>
        <time>2021-02-20T07:52:47Z</time>
      </trkpt>
      <trkpt lat="45.17448" lon="5.93138">
        <ele>1850.5</ele>
        <time>2021-02-20T07:52:48Z</time>
      </trkpt>
      <trkpt lat="45.17448" lon="5.93138">
        <ele>1850.5</ele>
        <time>2021-02-20T07:52:49Z</time>
      </trkpt>
      <trkpt lat="45.17447" lon="5.93139">
        <ele>1851.4</ele>
        <time>2021-02-20T07:52:50Z</time>
      </trkpt>
      <trkpt lat="45.17446" lon="5.93139">
        <ele>1851.4</ele>
        <time>2021-02-20T07:52:51Z</time>
      </trkpt>
      <trkpt lat="45.17446" lon="5.93139">
        <ele>1851.4</ele>
        <time>2021-02-20T07:52:52Z</time>
      </trkpt>
      <trkpt lat="45.17445" lon="5.93139">
        <ele>1851.4</ele>
        <time>2021-02-20T07:52:53Z</time>
      </trkpt>
      <trkpt lat="45.17444" lon="5.93139">
        <ele>1852.4</ele>
        <time>2021-02-20T07:52:54Z</time>
      </trkpt>
      <trkpt lat="45.17444" lon="5.93139">
        <ele>1852.4</ele>
        <time>2021-02-20T07:52:55Z</time>
      </trkpt>
      <trkpt lat="45.17443" lon="5.93138">
        <ele>1852.4</ele>
        <time>2021-02-20T07:52:56Z</time>
      </trkpt>
      <trkpt lat="45.17443" lon="5.93138">
        <ele>1852.4</ele>
        <time>2021-02-20T07:52:57Z</time>
      </trkpt>
      <trkpt lat="45.17442" lon="5.93138">
        <ele>1852.4</ele>
        <time>2021-02-20T07:52:58Z</time>
      </trkpt>
      <trkpt lat="45.17442" lon="5.93138">
        <ele>1852.4</ele>
        <time>2021-02-20T07:52:59Z</time>
      </trkpt>
      <trkpt lat="45.17441" lon="5.93137">
        <ele>1852.8</ele>
        <time>2021-02-20T07:53:00Z</time>
      </trkpt>
      <trkpt lat="45.17441" lon="5.93137">
        <ele>1852.8</ele>
        <time>2021-02-20T07:53:01Z</time>
      </trkpt>
      <trkpt lat="45.17441" lon="5.93137">
        <ele>1852.8</ele>
        <time>2021-02-20T07:53:02Z</time>
      </trkpt>
      <trkpt lat="45.1744" lon="5.93136">
        <ele>1852.8</ele>
        <time>2021-02-20T07:53:03Z</time>
      </trkpt>
      <trkpt lat="45.1744" lon="5.93136">
        <ele>1852.8</ele>
        <time>2021-02-20T07:53:04Z</time>
      </trkpt>
      <trkpt lat="45.17439" lon="5.93135">
        <ele>1852.8</ele>
        <time>2021-02-20T07:53:05Z</time>
      </trkpt>
      <trkpt lat="45.17439" lon="5.93135">
        <ele>1852.8</ele>
        <time>2021-02-20T07:53:06Z</time>
      </trkpt>
      <trkpt lat="45.17438" lon="5.93134">
        <ele>1853.8</ele>
        <time>2021-02-20T07:53:07Z</time>
      </trkpt>
      <trkpt lat="45.17437" lon="5.93134">
        <ele>1853.8</ele>
        <time>2021-02-20T07:53:08Z</time>
      </trkpt>
      <trkpt lat="45.17436" lon="5.93134">
        <ele>1853.8</ele>
        <time>2021-02-20T07:53:09Z</time>
      </trkpt>
      <trkpt lat="45.17436" lon="5.93134">
        <ele>1853.8</ele>
        <time>2021-02-20T07:53:10Z</time>
      </trkpt>
      <trkpt lat="45.17435" lon="5.93134">
        <ele>1854.7</ele>
        <time>2021-02-20T07:53:11Z</time>
      </trkpt>
      <trkpt lat="45.17434" lon="5.93134">
        <ele>1854.7</ele>
        <time>2021-02-20T07:53:12Z</time>
      </trkpt>
      <trkpt lat="45.17434" lon="5.93134">
        <ele>1854.7</ele>
        <time>2021-02-20T07:53:13Z</time>
      </trkpt>
      <trkpt lat="45.17433" lon="5.93134">
        <ele>1854.7</ele>
        <time>2021-02-20T07:53:14Z</time>
      </trkpt>
      <trkpt lat="45.17433" lon="5.93133">
        <ele>1854.7</ele>
        <time>2021-02-20T07:53:15Z</time>
      </trkpt>
      <trkpt lat="45.17433" lon="5.93134">
        <ele>1854.7</ele>
        <time>2021-02-20T07:53:16Z</time>
      </trkpt>
      <trkpt lat="45.17433" lon="5.93135">
        <ele>1854.7</ele>
        <time>2021-02-20T07:53:17Z</time>
      </trkpt>
      <trkpt lat="45.17433" lon="5.93136">
        <ele>1854.7</ele>
        <time>2021-02-20T07:53:18Z</time>
      </trkpt>
      <trkpt lat="45.17433" lon="5.93137">
        <ele>1854.7</ele>
        <time>2021-02-20T07:53:19Z</time>
      </trkpt>
      <trkpt lat="45.17433" lon="5.93138">
        <ele>1855.4</ele>
        <time>2021-02-20T07:53:20Z</time>
      </trkpt>
      <trkpt lat="45.17433" lon="5.93139">
        <ele>1855.3</ele>
        <time>2021-02-20T07:53:21Z</time>
      </trkpt>
      <trkpt lat="45.17433" lon="5.9314">
        <ele>1855.3</ele>
        <time>2021-02-20T07:53:22Z</time>
      </trkpt>
      <trkpt lat="45.17433" lon="5.93141">
        <ele>1855.3</ele>
        <time>2021-02-20T07:53:23Z</time>
      </trkpt>
      <trkpt lat="45.17433" lon="5.93142">
        <ele>1855.3</ele>
        <time>2021-02-20T07:53:24Z</time>
      </trkpt>
      <trkpt lat="45.17433" lon="5.93143">
        <ele>1856</ele>
        <time>2021-02-20T07:53:25Z</time>
      </trkpt>
      <trkpt lat="45.17433" lon="5.93143">
        <ele>1856</ele>
        <time>2021-02-20T07:53:26Z</time>
      </trkpt>
      <trkpt lat="45.17433" lon="5.93144">
        <ele>1856</ele>
        <time>2021-02-20T07:53:27Z</time>
      </trkpt>
      <trkpt lat="45.17433" lon="5.93145">
        <ele>1856</ele>
        <time>2021-02-20T07:54:06Z</time>
      </trkpt>
      <trkpt lat="45.17433" lon="5.93146">
        <ele>1856.7</ele>
        <time>2021-02-20T07:54:07Z</time>
      </trkpt>
      <trkpt lat="45.17433" lon="5.93147">
        <ele>1856.6</ele>
        <time>2021-02-20T07:54:08Z</time>
      </trkpt>
      <trkpt lat="45.17433" lon="5.93148">
        <ele>1856.6</ele>
        <time>2021-02-20T07:54:09Z</time>
      </trkpt>
      <trkpt lat="45.17433" lon="5.93149">
        <ele>1856.6</ele>
        <time>2021-02-20T07:54:10Z</time>
      </trkpt>
      <trkpt lat="45.17433" lon="5.9315">
        <ele>1857.4</ele>
        <time>2021-02-20T07:54:11Z</time>
      </trkpt>
      <trkpt lat="45.17434" lon="5.93151">
        <ele>1857.3</ele>
        <time>2021-02-20T07:54:12Z</time>
      </trkpt>
      <trkpt lat="45.17434" lon="5.93152">
        <ele>1857.3</ele>
        <time>2021-02-20T07:54:13Z</time>
      </trkpt>
      <trkpt lat="45.17434" lon="5.93153">
        <ele>1857.3</ele>
        <time>2021-02-20T07:54:14Z</time>
      </trkpt>
      <trkpt lat="45.17434" lon="5.93154">
        <ele>1857.3</ele>
        <time>2021-02-20T07:54:15Z</time>
      </trkpt>
      <trkpt lat="45.17434" lon="5.93155">
        <ele>1858</ele>
        <time>2021-02-20T07:55:38Z</time>
      </trkpt>
      <trkpt lat="45.17434" lon="5.93156">
        <ele>1858</ele>
        <time>2021-02-20T07:55:39Z</time>
      </trkpt>
      <trkpt lat="45.17434" lon="5.93157">
        <ele>1857.9</ele>
        <time>2021-02-20T07:55:40Z</time>
      </trkpt>
      <trkpt lat="45.17434" lon="5.93158">
        <ele>1857.9</ele>
        <time>2021-02-20T07:55:41Z</time>
      </trkpt>
      <trkpt lat="45.17434" lon="5.93159">
        <ele>1858.6</ele>
        <time>2021-02-20T07:55:42Z</time>
      </trkpt>
      <trkpt lat="45.17433" lon="5.93159">
        <ele>1858.6</ele>
        <time>2021-02-20T07:55:43Z</time>
      </trkpt>
      <trkpt lat="45.17432" lon="5.93159">
        <ele>1858.6</ele>
        <time>2021-02-20T07:55:44Z</time>
      </trkpt>
      <trkpt lat="45.17432" lon="5.93159">
        <ele>1859.4</ele>
        <time>2021-02-20T07:55:45Z</time>
      </trkpt>
      <trkpt lat="45.17431" lon="5.93159">
        <ele>1858.7</ele>
        <time>2021-02-20T07:55:46Z</time>
      </trkpt>
      <trkpt lat="45.1743" lon="5.93159">
        <ele>1858.7</ele>
        <time>2021-02-20T07:55:47Z</time>
      </trkpt>
      <trkpt lat="45.17428" lon="5.93158">
        <ele>1860</ele>
        <time>2021-02-20T07:55:48Z</time>
      </trkpt>
      <trkpt lat="45.17426" lon="5.93158">
        <ele>1861</ele>
        <time>2021-02-20T07:55:49Z</time>
      </trkpt>
      <trkpt lat="45.17424" lon="5.93158">
        <ele>1860.9</ele>
        <time>2021-02-20T07:57:23Z</time>
      </trkpt>
      <trkpt lat="45.17422" lon="5.93157">
        <ele>1862</ele>
        <time>2021-02-20T07:57:24Z</time>
      </trkpt>
      <trkpt lat="45.1742" lon="5.93157">
        <ele>1863.1</ele>
        <time>2021-02-20T07:57:25Z</time>
      </trkpt>
      <trkpt lat="45.17418" lon="5.93157">
        <ele>1863.1</ele>
        <time>2021-02-20T07:57:26Z</time>
      </trkpt>
      <trkpt lat="45.17416" lon="5.93156">
        <ele>1864.3</ele>
        <time>2021-02-20T07:57:27Z</time>
      </trkpt>
      <trkpt lat="45.17414" lon="5.93157">
        <ele>1865.4</ele>
        <time>2021-02-20T07:57:28Z</time>
      </trkpt>
      <trkpt lat="45.17413" lon="5.93159">
        <ele>1865.3</ele>
        <time>2021-02-20T07:57:29Z</time>
      </trkpt>
      <trkpt lat="45.17413" lon="5.9316">
        <ele>1865.9</ele>
        <time>2021-02-20T07:57:30Z</time>
      </trkpt>
      <trkpt lat="45.17413" lon="5.93162">
        <ele>1865.9</ele>
        <time>2021-02-20T07:57:31Z</time>
      </trkpt>
      <trkpt lat="45.17412" lon="5.93163">
        <ele>1865.9</ele>
        <time>2021-02-20T07:57:32Z</time>
      </trkpt>
      <trkpt lat="45.17412" lon="5.93164">
        <ele>1866.4</ele>
        <time>2021-02-20T07:57:33Z</time>
      </trkpt>
      <trkpt lat="45.17411" lon="5.93165">
        <ele>1866.4</ele>
        <time>2021-02-20T07:57:34Z</time>
      </trkpt>
      <trkpt lat="45.17411" lon="5.93165">
        <ele>1867.4</ele>
        <time>2021-02-20T07:57:35Z</time>
      </trkpt>
      <trkpt lat="45.17411" lon="5.93166">
        <ele>1867.4</ele>
        <time>2021-02-20T07:57:36Z</time>
      </trkpt>
      <trkpt lat="45.17411" lon="5.93167">
        <ele>1867.9</ele>
        <time>2021-02-20T07:57:37Z</time>
      </trkpt>
      <trkpt lat="45.17411" lon="5.93168">
        <ele>1867.9</ele>
        <time>2021-02-20T07:57:38Z</time>
      </trkpt>
      <trkpt lat="45.17411" lon="5.93169">
        <ele>1867.9</ele>
        <time>2021-02-20T07:57:39Z</time>
      </trkpt>
      <trkpt lat="45.17411" lon="5.9317">
        <ele>1866.8</ele>
        <time>2021-02-20T07:57:40Z</time>
      </trkpt>
      <trkpt lat="45.17411" lon="5.9317">
        <ele>1866.7</ele>
        <time>2021-02-20T07:57:41Z</time>
      </trkpt>
      <trkpt lat="45.17412" lon="5.93171">
        <ele>1866.7</ele>
        <time>2021-02-20T07:57:42Z</time>
      </trkpt>
      <trkpt lat="45.17412" lon="5.93172">
        <ele>1867.2</ele>
        <time>2021-02-20T07:57:43Z</time>
      </trkpt>
      <trkpt lat="45.17412" lon="5.93173">
        <ele>1867.2</ele>
        <time>2021-02-20T07:57:44Z</time>
      </trkpt>
      <trkpt lat="45.17413" lon="5.93174">
        <ele>1867.2</ele>
        <time>2021-02-20T07:57:45Z</time>
      </trkpt>
      <trkpt lat="45.17413" lon="5.93174">
        <ele>1867.2</ele>
        <time>2021-02-20T07:57:46Z</time>
      </trkpt>
      <trkpt lat="45.17413" lon="5.93175">
        <ele>1867.1</ele>
        <time>2021-02-20T07:57:47Z</time>
      </trkpt>
      <trkpt lat="45.17414" lon="5.93176">
        <ele>1867.6</ele>
        <time>2021-02-20T07:57:49Z</time>
      </trkpt>
      <trkpt lat="45.17414" lon="5.93177">
        <ele>1867.6</ele>
        <time>2021-02-20T07:57:50Z</time>
      </trkpt>
      <trkpt lat="45.17414" lon="5.93177">
        <ele>1867.5</ele>
        <time>2021-02-20T07:57:51Z</time>
      </trkpt>
      <trkpt lat="45.17415" lon="5.93179">
        <ele>1866.4</ele>
        <time>2021-02-20T07:57:52Z</time>
      </trkpt>
      <trkpt lat="45.17417" lon="5.9318">
        <ele>1866.4</ele>
        <time>2021-02-20T07:57:53Z</time>
      </trkpt>
      <trkpt lat="45.17417" lon="5.93181">
        <ele>1865.9</ele>
        <time>2021-02-20T07:57:54Z</time>
      </trkpt>
      <trkpt lat="45.17418" lon="5.93182">
        <ele>1865.8</ele>
        <time>2021-02-20T07:57:55Z</time>
      </trkpt>
      <trkpt lat="45.17419" lon="5.93183">
        <ele>1865.8</ele>
        <time>2021-02-20T07:57:56Z</time>
      </trkpt>
      <trkpt lat="45.17421" lon="5.93186">
        <ele>1865.4</ele>
        <time>2021-02-20T07:57:57Z</time>
      </trkpt>
      <trkpt lat="45.17421" lon="5.93186">
        <ele>1865.3</ele>
        <time>2021-02-20T07:57:58Z</time>
      </trkpt>
      <trkpt lat="45.17422" lon="5.93187">
        <ele>1865.2</ele>
        <time>2021-02-20T07:57:59Z</time>
      </trkpt>
      <trkpt lat="45.17422" lon="5.93189">
        <ele>1865.9</ele>
        <time>2021-02-20T07:58:00Z</time>
      </trkpt>
      <trkpt lat="45.17423" lon="5.93191">
        <ele>1865</ele>
        <time>2021-02-20T07:58:01Z</time>
      </trkpt>
      <trkpt lat="45.17424" lon="5.93192">
        <ele>1865</ele>
        <time>2021-02-20T07:58:02Z</time>
      </trkpt>
      <trkpt lat="45.17425" lon="5.93194">
        <ele>1865.6</ele>
        <time>2021-02-20T07:58:03Z</time>
      </trkpt>
      <trkpt lat="45.17425" lon="5.93195">
        <ele>1865.5</ele>
        <time>2021-02-20T07:58:04Z</time>
      </trkpt>
      <trkpt lat="45.17426" lon="5.93196">
        <ele>1865.5</ele>
        <time>2021-02-20T07:58:05Z</time>
      </trkpt>
      <trkpt lat="45.17426" lon="5.93198">
        <ele>1866.1</ele>
        <time>2021-02-20T07:58:06Z</time>
      </trkpt>
      <trkpt lat="45.17426" lon="5.93199">
        <ele>1866.1</ele>
        <time>2021-02-20T07:58:07Z</time>
      </trkpt>
      <trkpt lat="45.17426" lon="5.93201">
        <ele>1865.4</ele>
        <time>2021-02-20T07:58:08Z</time>
      </trkpt>
      <trkpt lat="45.17427" lon="5.93203">
        <ele>1866</ele>
        <time>2021-02-20T07:58:09Z</time>
      </trkpt>
      <trkpt lat="45.17427" lon="5.93204">
        <ele>1865.9</ele>
        <time>2021-02-20T07:58:10Z</time>
      </trkpt>
      <trkpt lat="45.17427" lon="5.93206">
        <ele>1865.9</ele>
        <time>2021-02-20T07:58:11Z</time>
      </trkpt>
      <trkpt lat="45.17428" lon="5.93207">
        <ele>1866.5</ele>
        <time>2021-02-20T07:58:12Z</time>
      </trkpt>
      <trkpt lat="45.17428" lon="5.93208">
        <ele>1866.5</ele>
        <time>2021-02-20T07:58:13Z</time>
      </trkpt>
      <trkpt lat="45.17429" lon="5.93209">
        <ele>1866.3</ele>
        <time>2021-02-20T07:58:14Z</time>
      </trkpt>
      <trkpt lat="45.1743" lon="5.9321">
        <ele>1865.3</ele>
        <time>2021-02-20T07:58:15Z</time>
      </trkpt>
      <trkpt lat="45.1743" lon="5.93211">
        <ele>1865.9</ele>
        <time>2021-02-20T07:58:16Z</time>
      </trkpt>
      <trkpt lat="45.17431" lon="5.93213">
        <ele>1865.8</ele>
        <time>2021-02-20T07:58:17Z</time>
      </trkpt>
      <trkpt lat="45.17432" lon="5.93213">
        <ele>1865.8</ele>
        <time>2021-02-20T07:58:18Z</time>
      </trkpt>
      <trkpt lat="45.17433" lon="5.93214">
        <ele>1865.1</ele>
        <time>2021-02-20T07:58:19Z</time>
      </trkpt>
      <trkpt lat="45.17433" lon="5.93215">
        <ele>1865.1</ele>
        <time>2021-02-20T07:58:20Z</time>
      </trkpt>
      <trkpt lat="45.17434" lon="5.93215">
        <ele>1865.6</ele>
        <time>2021-02-20T07:58:21Z</time>
      </trkpt>
      <trkpt lat="45.17435" lon="5.93216">
        <ele>1865.6</ele>
        <time>2021-02-20T07:58:22Z</time>
      </trkpt>
      <trkpt lat="45.17435" lon="5.93217">
        <ele>1865.6</ele>
        <time>2021-02-20T07:58:23Z</time>
      </trkpt>
      <trkpt lat="45.17436" lon="5.93219">
        <ele>1864.7</ele>
        <time>2021-02-20T07:58:24Z</time>
      </trkpt>
      <trkpt lat="45.17436" lon="5.9322">
        <ele>1865.2</ele>
        <time>2021-02-20T07:58:25Z</time>
      </trkpt>
      <trkpt lat="45.17437" lon="5.93222">
        <ele>1865.2</ele>
        <time>2021-02-20T07:58:26Z</time>
      </trkpt>
      <trkpt lat="45.17438" lon="5.93224">
        <ele>1865.7</ele>
        <time>2021-02-20T07:58:27Z</time>
      </trkpt>
      <trkpt lat="45.17438" lon="5.93225">
        <ele>1865.7</ele>
        <time>2021-02-20T07:58:28Z</time>
      </trkpt>
      <trkpt lat="45.17438" lon="5.93226">
        <ele>1864.8</ele>
        <time>2021-02-20T07:58:29Z</time>
      </trkpt>
      <trkpt lat="45.17439" lon="5.93228">
        <ele>1865.3</ele>
        <time>2021-02-20T07:58:30Z</time>
      </trkpt>
      <trkpt lat="45.17439" lon="5.93229">
        <ele>1865.3</ele>
        <time>2021-02-20T07:58:31Z</time>
      </trkpt>
      <trkpt lat="45.1744" lon="5.9323">
        <ele>1865.2</ele>
        <time>2021-02-20T07:58:32Z</time>
      </trkpt>
      <trkpt lat="45.1744" lon="5.9323">
        <ele>1865.2</ele>
        <time>2021-02-20T07:58:33Z</time>
      </trkpt>
      <trkpt lat="45.17441" lon="5.93231">
        <ele>1865.2</ele>
        <time>2021-02-20T07:58:34Z</time>
      </trkpt>
      <trkpt lat="45.17441" lon="5.93232">
        <ele>1865.7</ele>
        <time>2021-02-20T07:58:35Z</time>
      </trkpt>
      <trkpt lat="45.17442" lon="5.93233">
        <ele>1864.7</ele>
        <time>2021-02-20T07:58:36Z</time>
      </trkpt>
      <trkpt lat="45.17442" lon="5.93235">
        <ele>1864.7</ele>
        <time>2021-02-20T07:58:37Z</time>
      </trkpt>
      <trkpt lat="45.17443" lon="5.93237">
        <ele>1865.2</ele>
        <time>2021-02-20T07:58:38Z</time>
      </trkpt>
      <trkpt lat="45.17443" lon="5.93238">
        <ele>1865.2</ele>
        <time>2021-02-20T07:58:39Z</time>
      </trkpt>
      <trkpt lat="45.17444" lon="5.93239">
        <ele>1865.2</ele>
        <time>2021-02-20T07:58:40Z</time>
      </trkpt>
      <trkpt lat="45.17445" lon="5.93241">
        <ele>1864.7</ele>
        <time>2021-02-20T07:58:41Z</time>
      </trkpt>
      <trkpt lat="45.17446" lon="5.93243">
        <ele>1864.7</ele>
        <time>2021-02-20T07:58:42Z</time>
      </trkpt>
      <trkpt lat="45.17446" lon="5.93244">
        <ele>1864.7</ele>
        <time>2021-02-20T07:58:43Z</time>
      </trkpt>
      <trkpt lat="45.17446" lon="5.93245">
        <ele>1865.2</ele>
        <time>2021-02-20T07:58:44Z</time>
      </trkpt>
      <trkpt lat="45.17446" lon="5.93246">
        <ele>1865.2</ele>
        <time>2021-02-20T07:58:45Z</time>
      </trkpt>
      <trkpt lat="45.17446" lon="5.93247">
        <ele>1865.2</ele>
        <time>2021-02-20T07:58:46Z</time>
      </trkpt>
      <trkpt lat="45.17446" lon="5.93249">
        <ele>1865.7</ele>
        <time>2021-02-20T07:58:47Z</time>
      </trkpt>
      <trkpt lat="45.17446" lon="5.9325">
        <ele>1865.6</ele>
        <time>2021-02-20T07:58:48Z</time>
      </trkpt>
      <trkpt lat="45.17446" lon="5.93251">
        <ele>1865.6</ele>
        <time>2021-02-20T07:58:49Z</time>
      </trkpt>
      <trkpt lat="45.17446" lon="5.93252">
        <ele>1865.6</ele>
        <time>2021-02-20T07:58:50Z</time>
      </trkpt>
      <trkpt lat="45.17446" lon="5.93253">
        <ele>1866.1</ele>
        <time>2021-02-20T07:58:51Z</time>
      </trkpt>
      <trkpt lat="45.17446" lon="5.93254">
        <ele>1866.1</ele>
        <time>2021-02-20T07:58:52Z</time>
      </trkpt>
      <trkpt lat="45.17446" lon="5.93255">
        <ele>1866.1</ele>
        <time>2021-02-20T07:58:53Z</time>
      </trkpt>
      <trkpt lat="45.17446" lon="5.93256">
        <ele>1866</ele>
        <time>2021-02-20T07:58:54Z</time>
      </trkpt>
      <trkpt lat="45.17446" lon="5.93257">
        <ele>1866</ele>
        <time>2021-02-20T07:58:55Z</time>
      </trkpt>
      <trkpt lat="45.17445" lon="5.93257">
        <ele>1866</ele>
        <time>2021-02-20T07:58:56Z</time>
      </trkpt>
      <trkpt lat="45.17445" lon="5.93258">
        <ele>1866.5</ele>
        <time>2021-02-20T07:58:57Z</time>
      </trkpt>
      <trkpt lat="45.17444" lon="5.93259">
        <ele>1866.4</ele>
        <time>2021-02-20T07:58:58Z</time>
      </trkpt>
      <trkpt lat="45.17444" lon="5.9326">
        <ele>1867.4</ele>
        <time>2021-02-20T07:58:59Z</time>
      </trkpt>
      <trkpt lat="45.17444" lon="5.93261">
        <ele>1867.4</ele>
        <time>2021-02-20T07:59:00Z</time>
      </trkpt>
      <trkpt lat="45.17444" lon="5.93262">
        <ele>1868.1</ele>
        <time>2021-02-20T07:59:01Z</time>
      </trkpt>
      <trkpt lat="45.17444" lon="5.93263">
        <ele>1868.1</ele>
        <time>2021-02-20T07:59:02Z</time>
      </trkpt>
      <trkpt lat="45.17444" lon="5.93264">
        <ele>1868</ele>
        <time>2021-02-20T07:59:03Z</time>
      </trkpt>
      <trkpt lat="45.17444" lon="5.93265">
        <ele>1868</ele>
        <time>2021-02-20T07:59:04Z</time>
      </trkpt>
      <trkpt lat="45.17444" lon="5.93266">
        <ele>1868.5</ele>
        <time>2021-02-20T07:59:05Z</time>
      </trkpt>
      <trkpt lat="45.17444" lon="5.93268">
        <ele>1868.4</ele>
        <time>2021-02-20T07:59:06Z</time>
      </trkpt>
      <trkpt lat="45.17443" lon="5.93269">
        <ele>1868.4</ele>
        <time>2021-02-20T07:59:07Z</time>
      </trkpt>
      <trkpt lat="45.17443" lon="5.9327">
        <ele>1868.4</ele>
        <time>2021-02-20T07:59:08Z</time>
      </trkpt>
      <trkpt lat="45.17442" lon="5.93271">
        <ele>1868.8</ele>
        <time>2021-02-20T07:59:09Z</time>
      </trkpt>
      <trkpt lat="45.17442" lon="5.93272">
        <ele>1868.8</ele>
        <time>2021-02-20T07:59:10Z</time>
      </trkpt>
      <trkpt lat="45.17442" lon="5.93273">
        <ele>1868.8</ele>
        <time>2021-02-20T07:59:11Z</time>
      </trkpt>
      <trkpt lat="45.17441" lon="5.93275">
        <ele>1869.8</ele>
        <time>2021-02-20T07:59:12Z</time>
      </trkpt>
      <trkpt lat="45.17441" lon="5.93275">
        <ele>1870.2</ele>
        <time>2021-02-20T07:59:13Z</time>
      </trkpt>
      <trkpt lat="45.1744" lon="5.93277">
        <ele>1870.2</ele>
        <time>2021-02-20T07:59:14Z</time>
      </trkpt>
      <trkpt lat="45.1744" lon="5.93277">
        <ele>1870.2</ele>
        <time>2021-02-20T07:59:15Z</time>
      </trkpt>
      <trkpt lat="45.17439" lon="5.93279">
        <ele>1870.2</ele>
        <time>2021-02-20T07:59:16Z</time>
      </trkpt>
      <trkpt lat="45.17438" lon="5.9328">
        <ele>1870.6</ele>
        <time>2021-02-20T07:59:17Z</time>
      </trkpt>
      <trkpt lat="45.17438" lon="5.93281">
        <ele>1871.5</ele>
        <time>2021-02-20T07:59:18Z</time>
      </trkpt>
      <trkpt lat="45.17437" lon="5.93282">
        <ele>1871.5</ele>
        <time>2021-02-20T07:59:19Z</time>
      </trkpt>
      <trkpt lat="45.17436" lon="5.93283">
        <ele>1872</ele>
        <time>2021-02-20T07:59:20Z</time>
      </trkpt>
      <trkpt lat="45.17436" lon="5.93284">
        <ele>1871.9</ele>
        <time>2021-02-20T07:59:21Z</time>
      </trkpt>
      <trkpt lat="45.17435" lon="5.93285">
        <ele>1872.8</ele>
        <time>2021-02-20T07:59:22Z</time>
      </trkpt>
      <trkpt lat="45.17434" lon="5.93286">
        <ele>1872.8</ele>
        <time>2021-02-20T07:59:23Z</time>
      </trkpt>
      <trkpt lat="45.17433" lon="5.93287">
        <ele>1872.8</ele>
        <time>2021-02-20T07:59:24Z</time>
      </trkpt>
      <trkpt lat="45.17432" lon="5.93289">
        <ele>1874</ele>
        <time>2021-02-20T07:59:25Z</time>
      </trkpt>
      <trkpt lat="45.17432" lon="5.93289">
        <ele>1874</ele>
        <time>2021-02-20T07:59:26Z</time>
      </trkpt>
      <trkpt lat="45.17431" lon="5.9329">
        <ele>1873.9</ele>
        <time>2021-02-20T07:59:27Z</time>
      </trkpt>
      <trkpt lat="45.1743" lon="5.93291">
        <ele>1873.9</ele>
        <time>2021-02-20T07:59:28Z</time>
      </trkpt>
      <trkpt lat="45.17429" lon="5.93292">
        <ele>1873.9</ele>
        <time>2021-02-20T07:59:29Z</time>
      </trkpt>
      <trkpt lat="45.17429" lon="5.93292">
        <ele>1875.5</ele>
        <time>2021-02-20T07:59:30Z</time>
      </trkpt>
      <trkpt lat="45.17428" lon="5.93293">
        <ele>1875.5</ele>
        <time>2021-02-20T07:59:31Z</time>
      </trkpt>
      <trkpt lat="45.17428" lon="5.93293">
        <ele>1875.5</ele>
        <time>2021-02-20T07:59:32Z</time>
      </trkpt>
      <trkpt lat="45.17428" lon="5.93294">
        <ele>1875.4</ele>
        <time>2021-02-20T07:59:33Z</time>
      </trkpt>
      <trkpt lat="45.17427" lon="5.93295">
        <ele>1875.4</ele>
        <time>2021-02-20T07:59:34Z</time>
      </trkpt>
      <trkpt lat="45.17427" lon="5.93296">
        <ele>1875.4</ele>
        <time>2021-02-20T07:59:35Z</time>
      </trkpt>
      <trkpt lat="45.17427" lon="5.93296">
        <ele>1875.8</ele>
        <time>2021-02-20T07:59:36Z</time>
      </trkpt>
      <trkpt lat="45.17426" lon="5.93297">
        <ele>1876.6</ele>
        <time>2021-02-20T07:59:37Z</time>
      </trkpt>
      <trkpt lat="45.17426" lon="5.93298">
        <ele>1876.5</ele>
        <time>2021-02-20T07:59:38Z</time>
      </trkpt>
      <trkpt lat="45.17425" lon="5.93299">
        <ele>1876.5</ele>
        <time>2021-02-20T07:59:39Z</time>
      </trkpt>
      <trkpt lat="45.17424" lon="5.933">
        <ele>1876.5</ele>
        <time>2021-02-20T07:59:40Z</time>
      </trkpt>
      <trkpt lat="45.17424" lon="5.93301">
        <ele>1876.9</ele>
        <time>2021-02-20T07:59:41Z</time>
      </trkpt>
      <trkpt lat="45.17423" lon="5.93301">
        <ele>1877.7</ele>
        <time>2021-02-20T07:59:42Z</time>
      </trkpt>
      <trkpt lat="45.17422" lon="5.93302">
        <ele>1877.7</ele>
        <time>2021-02-20T07:59:43Z</time>
      </trkpt>
      <trkpt lat="45.17421" lon="5.93302">
        <ele>1877.7</ele>
        <time>2021-02-20T07:59:44Z</time>
      </trkpt>
      <trkpt lat="45.17421" lon="5.93302">
        <ele>1877.7</ele>
        <time>2021-02-20T07:59:45Z</time>
      </trkpt>
      <trkpt lat="45.1742" lon="5.93302">
        <ele>1878.5</ele>
        <time>2021-02-20T07:59:46Z</time>
      </trkpt>
      <trkpt lat="45.17419" lon="5.93302">
        <ele>1878.5</ele>
        <time>2021-02-20T07:59:47Z</time>
      </trkpt>
      <trkpt lat="45.17418" lon="5.93302">
        <ele>1878.5</ele>
        <time>2021-02-20T07:59:48Z</time>
      </trkpt>
      <trkpt lat="45.17418" lon="5.93303">
        <ele>1878.5</ele>
        <time>2021-02-20T07:59:49Z</time>
      </trkpt>
      <trkpt lat="45.17417" lon="5.93303">
        <ele>1878.4</ele>
        <time>2021-02-20T07:59:50Z</time>
      </trkpt>
      <trkpt lat="45.17417" lon="5.93303">
        <ele>1879.3</ele>
        <time>2021-02-20T07:59:51Z</time>
      </trkpt>
      <trkpt lat="45.17416" lon="5.93304">
        <ele>1879.3</ele>
        <time>2021-02-20T07:59:52Z</time>
      </trkpt>
      <trkpt lat="45.17415" lon="5.93304">
        <ele>1879.2</ele>
        <time>2021-02-20T07:59:53Z</time>
      </trkpt>
      <trkpt lat="45.17415" lon="5.93304">
        <ele>1879.2</ele>
        <time>2021-02-20T07:59:54Z</time>
      </trkpt>
      <trkpt lat="45.17414" lon="5.93304">
        <ele>1880</ele>
        <time>2021-02-20T07:59:55Z</time>
      </trkpt>
      <trkpt lat="45.17413" lon="5.93304">
        <ele>1880</ele>
        <time>2021-02-20T07:59:56Z</time>
      </trkpt>
      <trkpt lat="45.17412" lon="5.93304">
        <ele>1880</ele>
        <time>2021-02-20T07:59:57Z</time>
      </trkpt>
      <trkpt lat="45.17412" lon="5.93304">
        <ele>1880</ele>
        <time>2021-02-20T07:59:58Z</time>
      </trkpt>
      <trkpt lat="45.17411" lon="5.93305">
        <ele>1879.9</ele>
        <time>2021-02-20T07:59:59Z</time>
      </trkpt>
      <trkpt lat="45.17411" lon="5.93305">
        <ele>1880.9</ele>
        <time>2021-02-20T08:00:00Z</time>
      </trkpt>
      <trkpt lat="45.17411" lon="5.93306">
        <ele>1880.9</ele>
        <time>2021-02-20T08:00:01Z</time>
      </trkpt>
      <trkpt lat="45.17411" lon="5.93307">
        <ele>1880.9</ele>
        <time>2021-02-20T08:00:02Z</time>
      </trkpt>
      <trkpt lat="45.17411" lon="5.93308">
        <ele>1880.9</ele>
        <time>2021-02-20T08:00:03Z</time>
      </trkpt>
      <trkpt lat="45.17411" lon="5.93309">
        <ele>1880.2</ele>
        <time>2021-02-20T08:00:04Z</time>
      </trkpt>
      <trkpt lat="45.17412" lon="5.9331">
        <ele>1880.5</ele>
        <time>2021-02-20T08:00:05Z</time>
      </trkpt>
      <trkpt lat="45.17412" lon="5.93311">
        <ele>1880.5</ele>
        <time>2021-02-20T08:00:06Z</time>
      </trkpt>
      <trkpt lat="45.17413" lon="5.93311">
        <ele>1880.5</ele>
        <time>2021-02-20T08:00:07Z</time>
      </trkpt>
      <trkpt lat="45.17413" lon="5.93312">
        <ele>1880.5</ele>
        <time>2021-02-20T08:00:08Z</time>
      </trkpt>
      <trkpt lat="45.17414" lon="5.93312">
        <ele>1880.5</ele>
        <time>2021-02-20T08:00:09Z</time>
      </trkpt>
      <trkpt lat="45.17414" lon="5.93313">
        <ele>1879.7</ele>
        <time>2021-02-20T08:00:10Z</time>
      </trkpt>
      <trkpt lat="45.17415" lon="5.93313">
        <ele>1880</ele>
        <time>2021-02-20T08:00:11Z</time>
      </trkpt>
      <trkpt lat="45.17415" lon="5.93315">
        <ele>1880</ele>
        <time>2021-02-20T08:00:12Z</time>
      </trkpt>
      <trkpt lat="45.17416" lon="5.93316">
        <ele>1880</ele>
        <time>2021-02-20T08:00:13Z</time>
      </trkpt>
      <trkpt lat="45.17416" lon="5.93317">
        <ele>1880</ele>
        <time>2021-02-20T08:00:14Z</time>
      </trkpt>
      <trkpt lat="45.17416" lon="5.93318">
        <ele>1880.3</ele>
        <time>2021-02-20T08:00:15Z</time>
      </trkpt>
      <trkpt lat="45.17416" lon="5.93319">
        <ele>1880.3</ele>
        <time>2021-02-20T08:00:16Z</time>
      </trkpt>
      <trkpt lat="45.17416" lon="5.9332">
        <ele>1880.3</ele>
        <time>2021-02-20T08:00:17Z</time>
      </trkpt>
      <trkpt lat="45.17416" lon="5.93321">
        <ele>1880.3</ele>
        <time>2021-02-20T08:00:18Z</time>
      </trkpt>
      <trkpt lat="45.17417" lon="5.93323">
        <ele>1880.6</ele>
        <time>2021-02-20T08:00:19Z</time>
      </trkpt>
      <trkpt lat="45.17417" lon="5.93324">
        <ele>1880.6</ele>
        <time>2021-02-20T08:00:20Z</time>
      </trkpt>
      <trkpt lat="45.17417" lon="5.93325">
        <ele>1880.6</ele>
        <time>2021-02-20T08:00:21Z</time>
      </trkpt>
      <trkpt lat="45.17416" lon="5.93326">
        <ele>1880.6</ele>
        <time>2021-02-20T08:00:22Z</time>
      </trkpt>
      <trkpt lat="45.17416" lon="5.93327">
        <ele>1880.9</ele>
        <time>2021-02-20T08:00:23Z</time>
      </trkpt>
      <trkpt lat="45.17416" lon="5.93329">
        <ele>1880.9</ele>
        <time>2021-02-20T08:00:24Z</time>
      </trkpt>
      <trkpt lat="45.17416" lon="5.9333">
        <ele>1880.9</ele>
        <time>2021-02-20T08:00:25Z</time>
      </trkpt>
      <trkpt lat="45.17416" lon="5.93332">
        <ele>1881.2</ele>
        <time>2021-02-20T08:00:26Z</time>
      </trkpt>
      <trkpt lat="45.17416" lon="5.93333">
        <ele>1881.2</ele>
        <time>2021-02-20T08:00:27Z</time>
      </trkpt>
      <trkpt lat="45.17416" lon="5.93335">
        <ele>1881.2</ele>
        <time>2021-02-20T08:00:28Z</time>
      </trkpt>
      <trkpt lat="45.17415" lon="5.93335">
        <ele>1881.5</ele>
        <time>2021-02-20T08:00:29Z</time>
      </trkpt>
      <trkpt lat="45.17415" lon="5.93336">
        <ele>1881.5</ele>
        <time>2021-02-20T08:00:30Z</time>
      </trkpt>
      <trkpt lat="45.17414" lon="5.93337">
        <ele>1881.5</ele>
        <time>2021-02-20T08:00:31Z</time>
      </trkpt>
      <trkpt lat="45.17414" lon="5.93338">
        <ele>1882.3</ele>
        <time>2021-02-20T08:00:32Z</time>
      </trkpt>
      <trkpt lat="45.17413" lon="5.93339">
        <ele>1882.2</ele>
        <time>2021-02-20T08:00:33Z</time>
      </trkpt>
      <trkpt lat="45.17413" lon="5.9334">
        <ele>1882.6</ele>
        <time>2021-02-20T08:00:34Z</time>
      </trkpt>
      <trkpt lat="45.17412" lon="5.93341">
        <ele>1882.5</ele>
        <time>2021-02-20T08:00:35Z</time>
      </trkpt>
      <trkpt lat="45.17412" lon="5.93342">
        <ele>1882.5</ele>
        <time>2021-02-20T08:00:36Z</time>
      </trkpt>
      <trkpt lat="45.17412" lon="5.93343">
        <ele>1882.5</ele>
        <time>2021-02-20T08:00:37Z</time>
      </trkpt>
      <trkpt lat="45.17412" lon="5.93344">
        <ele>1882.8</ele>
        <time>2021-02-20T08:00:38Z</time>
      </trkpt>
      <trkpt lat="45.17411" lon="5.93345">
        <ele>1883.5</ele>
        <time>2021-02-20T08:00:39Z</time>
      </trkpt>
      <trkpt lat="45.17411" lon="5.93346">
        <ele>1883.4</ele>
        <time>2021-02-20T08:00:40Z</time>
      </trkpt>
      <trkpt lat="45.1741" lon="5.93348">
        <ele>1883.4</ele>
        <time>2021-02-20T08:00:41Z</time>
      </trkpt>
      <trkpt lat="45.1741" lon="5.93349">
        <ele>1883.7</ele>
        <time>2021-02-20T08:00:42Z</time>
      </trkpt>
      <trkpt lat="45.17409" lon="5.9335">
        <ele>1883.7</ele>
        <time>2021-02-20T08:00:43Z</time>
      </trkpt>
      <trkpt lat="45.17409" lon="5.93352">
        <ele>1883.7</ele>
        <time>2021-02-20T08:00:44Z</time>
      </trkpt>
      <trkpt lat="45.17408" lon="5.93353">
        <ele>1884</ele>
        <time>2021-02-20T08:00:45Z</time>
      </trkpt>
      <trkpt lat="45.17408" lon="5.93355">
        <ele>1884.6</ele>
        <time>2021-02-20T08:00:46Z</time>
      </trkpt>
      <trkpt lat="45.17408" lon="5.93356">
        <ele>1885</ele>
        <time>2021-02-20T08:00:47Z</time>
      </trkpt>
      <trkpt lat="45.17408" lon="5.93358">
        <ele>1885</ele>
        <time>2021-02-20T08:00:48Z</time>
      </trkpt>
      <trkpt lat="45.17407" lon="5.93359">
        <ele>1884.9</ele>
        <time>2021-02-20T08:00:49Z</time>
      </trkpt>
      <trkpt lat="45.17407" lon="5.93361">
        <ele>1885.3</ele>
        <time>2021-02-20T08:00:50Z</time>
      </trkpt>
      <trkpt lat="45.17407" lon="5.93363">
        <ele>1885.3</ele>
        <time>2021-02-20T08:00:51Z</time>
      </trkpt>
      <trkpt lat="45.17406" lon="5.93364">
        <ele>1885.3</ele>
        <time>2021-02-20T08:00:52Z</time>
      </trkpt>
      <trkpt lat="45.17406" lon="5.93365">
        <ele>1885.7</ele>
        <time>2021-02-20T08:00:53Z</time>
      </trkpt>
      <trkpt lat="45.17406" lon="5.93366">
        <ele>1885.7</ele>
        <time>2021-02-20T08:00:54Z</time>
      </trkpt>
      <trkpt lat="45.17405" lon="5.93367">
        <ele>1885.7</ele>
        <time>2021-02-20T08:00:55Z</time>
      </trkpt>
      <trkpt lat="45.17405" lon="5.93368">
        <ele>1885.7</ele>
        <time>2021-02-20T08:00:56Z</time>
      </trkpt>
      <trkpt lat="45.17405" lon="5.93369">
        <ele>1885.7</ele>
        <time>2021-02-20T08:00:57Z</time>
      </trkpt>
      <trkpt lat="45.17405" lon="5.9337">
        <ele>1886.1</ele>
        <time>2021-02-20T08:00:58Z</time>
      </trkpt>
      <trkpt lat="45.17405" lon="5.93372">
        <ele>1886.1</ele>
        <time>2021-02-20T08:00:59Z</time>
      </trkpt>
      <trkpt lat="45.17406" lon="5.93373">
        <ele>1886.1</ele>
        <time>2021-02-20T08:01:00Z</time>
      </trkpt>
      <trkpt lat="45.17405" lon="5.93375">
        <ele>1886.5</ele>
        <time>2021-02-20T08:01:01Z</time>
      </trkpt>
      <trkpt lat="45.17405" lon="5.93376">
        <ele>1886.5</ele>
        <time>2021-02-20T08:01:02Z</time>
      </trkpt>
      <trkpt lat="45.17405" lon="5.93377">
        <ele>1886.5</ele>
        <time>2021-02-20T08:01:03Z</time>
      </trkpt>
      <trkpt lat="45.17405" lon="5.93378">
        <ele>1887.5</ele>
        <time>2021-02-20T08:01:04Z</time>
      </trkpt>
      <trkpt lat="45.17405" lon="5.9338">
        <ele>1887.5</ele>
        <time>2021-02-20T08:01:05Z</time>
      </trkpt>
      <trkpt lat="45.17404" lon="5.93381">
        <ele>1887.5</ele>
        <time>2021-02-20T08:01:06Z</time>
      </trkpt>
      <trkpt lat="45.17404" lon="5.93382">
        <ele>1888</ele>
        <time>2021-02-20T08:01:07Z</time>
      </trkpt>
      <trkpt lat="45.17404" lon="5.93383">
        <ele>1887.9</ele>
        <time>2021-02-20T08:01:08Z</time>
      </trkpt>
      <trkpt lat="45.17404" lon="5.93385">
        <ele>1887.9</ele>
        <time>2021-02-20T08:01:09Z</time>
      </trkpt>
      <trkpt lat="45.17404" lon="5.93386">
        <ele>1888.4</ele>
        <time>2021-02-20T08:01:10Z</time>
      </trkpt>
      <trkpt lat="45.17404" lon="5.93388">
        <ele>1888.4</ele>
        <time>2021-02-20T08:01:11Z</time>
      </trkpt>
      <trkpt lat="45.17404" lon="5.93389">
        <ele>1888.4</ele>
        <time>2021-02-20T08:01:12Z</time>
      </trkpt>
      <trkpt lat="45.17404" lon="5.9339">
        <ele>1888.4</ele>
        <time>2021-02-20T08:01:13Z</time>
      </trkpt>
      <trkpt lat="45.17404" lon="5.93391">
        <ele>1888.8</ele>
        <time>2021-02-20T08:01:14Z</time>
      </trkpt>
      <trkpt lat="45.17405" lon="5.93392">
        <ele>1888.8</ele>
        <time>2021-02-20T08:01:15Z</time>
      </trkpt>
      <trkpt lat="45.17405" lon="5.93393">
        <ele>1888.2</ele>
        <time>2021-02-20T08:01:16Z</time>
      </trkpt>
      <trkpt lat="45.17406" lon="5.93394">
        <ele>1888.2</ele>
        <time>2021-02-20T08:01:17Z</time>
      </trkpt>
      <trkpt lat="45.17406" lon="5.93395">
        <ele>1888.2</ele>
        <time>2021-02-20T08:01:18Z</time>
      </trkpt>
      <trkpt lat="45.17406" lon="5.93396">
        <ele>1888.7</ele>
        <time>2021-02-20T08:01:19Z</time>
      </trkpt>
      <trkpt lat="45.17406" lon="5.93397">
        <ele>1888.6</ele>
        <time>2021-02-20T08:01:20Z</time>
      </trkpt>
      <trkpt lat="45.17406" lon="5.93398">
        <ele>1888.6</ele>
        <time>2021-02-20T08:01:21Z</time>
      </trkpt>
      <trkpt lat="45.17406" lon="5.93401">
        <ele>1889.1</ele>
        <time>2021-02-20T08:01:22Z</time>
      </trkpt>
      <trkpt lat="45.17406" lon="5.93402">
        <ele>1889.1</ele>
        <time>2021-02-20T08:01:23Z</time>
      </trkpt>
      <trkpt lat="45.17406" lon="5.93404">
        <ele>1889.6</ele>
        <time>2021-02-20T08:01:24Z</time>
      </trkpt>
      <trkpt lat="45.17406" lon="5.93405">
        <ele>1889.6</ele>
        <time>2021-02-20T08:01:25Z</time>
      </trkpt>
      <trkpt lat="45.17406" lon="5.93406">
        <ele>1889.5</ele>
        <time>2021-02-20T08:01:26Z</time>
      </trkpt>
      <trkpt lat="45.17405" lon="5.93407">
        <ele>1889.5</ele>
        <time>2021-02-20T08:01:27Z</time>
      </trkpt>
      <trkpt lat="45.17405" lon="5.93408">
        <ele>1890.7</ele>
        <time>2021-02-20T08:01:28Z</time>
      </trkpt>
      <trkpt lat="45.17404" lon="5.93408">
        <ele>1890.6</ele>
        <time>2021-02-20T08:01:29Z</time>
      </trkpt>
      <trkpt lat="45.17404" lon="5.93409">
        <ele>1890.6</ele>
        <time>2021-02-20T08:01:30Z</time>
      </trkpt>
      <trkpt lat="45.17404" lon="5.9341">
        <ele>1890.6</ele>
        <time>2021-02-20T08:01:31Z</time>
      </trkpt>
      <trkpt lat="45.17403" lon="5.93411">
        <ele>1890.6</ele>
        <time>2021-02-20T08:01:32Z</time>
      </trkpt>
      <trkpt lat="45.17403" lon="5.93412">
        <ele>1891.1</ele>
        <time>2021-02-20T08:01:33Z</time>
      </trkpt>
      <trkpt lat="45.17402" lon="5.93413">
        <ele>1891.1</ele>
        <time>2021-02-20T08:01:34Z</time>
      </trkpt>
      <trkpt lat="45.17402" lon="5.93414">
        <ele>1891.7</ele>
        <time>2021-02-20T08:01:35Z</time>
      </trkpt>
      <trkpt lat="45.17402" lon="5.93416">
        <ele>1891.7</ele>
        <time>2021-02-20T08:01:36Z</time>
      </trkpt>
      <trkpt lat="45.17402" lon="5.93417">
        <ele>1892.2</ele>
        <time>2021-02-20T08:01:37Z</time>
      </trkpt>
      <trkpt lat="45.17401" lon="5.93419">
        <ele>1892.2</ele>
        <time>2021-02-20T08:01:38Z</time>
      </trkpt>
      <trkpt lat="45.17401" lon="5.9342">
        <ele>1892.2</ele>
        <time>2021-02-20T08:01:39Z</time>
      </trkpt>
      <trkpt lat="45.174" lon="5.93422">
        <ele>1892.7</ele>
        <time>2021-02-20T08:01:40Z</time>
      </trkpt>
      <trkpt lat="45.174" lon="5.93423">
        <ele>1892.7</ele>
        <time>2021-02-20T08:01:41Z</time>
      </trkpt>
      <trkpt lat="45.17399" lon="5.93424">
        <ele>1893.4</ele>
        <time>2021-02-20T08:01:42Z</time>
      </trkpt>
      <trkpt lat="45.17398" lon="5.93424">
        <ele>1893.3</ele>
        <time>2021-02-20T08:01:43Z</time>
      </trkpt>
      <trkpt lat="45.17398" lon="5.93425">
        <ele>1893.8</ele>
        <time>2021-02-20T08:01:44Z</time>
      </trkpt>
      <trkpt lat="45.17397" lon="5.93427">
        <ele>1893.8</ele>
        <time>2021-02-20T08:01:45Z</time>
      </trkpt>
      <trkpt lat="45.17396" lon="5.93428">
        <ele>1893.8</ele>
        <time>2021-02-20T08:01:46Z</time>
      </trkpt>
      <trkpt lat="45.17395" lon="5.93429">
        <ele>1895.1</ele>
        <time>2021-02-20T08:01:47Z</time>
      </trkpt>
      <trkpt lat="45.17395" lon="5.9343">
        <ele>1895</ele>
        <time>2021-02-20T08:01:48Z</time>
      </trkpt>
      <trkpt lat="45.17394" lon="5.93432">
        <ele>1895</ele>
        <time>2021-02-20T08:01:49Z</time>
      </trkpt>
      <trkpt lat="45.17394" lon="5.93433">
        <ele>1895</ele>
        <time>2021-02-20T08:01:50Z</time>
      </trkpt>
      <trkpt lat="45.17393" lon="5.93434">
        <ele>1895.5</ele>
        <time>2021-02-20T08:01:51Z</time>
      </trkpt>
      <trkpt lat="45.17393" lon="5.93435">
        <ele>1896.3</ele>
        <time>2021-02-20T08:01:52Z</time>
      </trkpt>
      <trkpt lat="45.17392" lon="5.93436">
        <ele>1896.2</ele>
        <time>2021-02-20T08:01:53Z</time>
      </trkpt>
      <trkpt lat="45.17392" lon="5.93437">
        <ele>1896.2</ele>
        <time>2021-02-20T08:01:54Z</time>
      </trkpt>
      <trkpt lat="45.17391" lon="5.93438">
        <ele>1896.7</ele>
        <time>2021-02-20T08:01:55Z</time>
      </trkpt>
      <trkpt lat="45.17391" lon="5.9344">
        <ele>1896.7</ele>
        <time>2021-02-20T08:01:56Z</time>
      </trkpt>
      <trkpt lat="45.1739" lon="5.93441">
        <ele>1896.7</ele>
        <time>2021-02-20T08:01:57Z</time>
      </trkpt>
      <trkpt lat="45.1739" lon="5.93442">
        <ele>1897.4</ele>
        <time>2021-02-20T08:01:58Z</time>
      </trkpt>
      <trkpt lat="45.17389" lon="5.93443">
        <ele>1898</ele>
        <time>2021-02-20T08:01:59Z</time>
      </trkpt>
      <trkpt lat="45.17389" lon="5.93444">
        <ele>1898</ele>
        <time>2021-02-20T08:02:00Z</time>
      </trkpt>
      <trkpt lat="45.17388" lon="5.93446">
        <ele>1897.9</ele>
        <time>2021-02-20T08:02:01Z</time>
      </trkpt>
      <trkpt lat="45.17388" lon="5.93447">
        <ele>1898.5</ele>
        <time>2021-02-20T08:02:02Z</time>
      </trkpt>
      <trkpt lat="45.17387" lon="5.93448">
        <ele>1898.5</ele>
        <time>2021-02-20T08:02:03Z</time>
      </trkpt>
      <trkpt lat="45.17387" lon="5.93449">
        <ele>1899.2</ele>
        <time>2021-02-20T08:02:04Z</time>
      </trkpt>
      <trkpt lat="45.17387" lon="5.9345">
        <ele>1899.2</ele>
        <time>2021-02-20T08:02:05Z</time>
      </trkpt>
      <trkpt lat="45.17386" lon="5.93451">
        <ele>1899.7</ele>
        <time>2021-02-20T08:02:06Z</time>
      </trkpt>
      <trkpt lat="45.17386" lon="5.93452">
        <ele>1899.7</ele>
        <time>2021-02-20T08:02:07Z</time>
      </trkpt>
      <trkpt lat="45.17386" lon="5.93452">
        <ele>1899.7</ele>
        <time>2021-02-20T08:02:08Z</time>
      </trkpt>
      <trkpt lat="45.17386" lon="5.93453">
        <ele>1899.7</ele>
        <time>2021-02-20T08:02:09Z</time>
      </trkpt>
      <trkpt lat="45.17385" lon="5.93454">
        <ele>1899.6</ele>
        <time>2021-02-20T08:02:10Z</time>
      </trkpt>
      <trkpt lat="45.17385" lon="5.93455">
        <ele>1900.2</ele>
        <time>2021-02-20T08:02:11Z</time>
      </trkpt>
      <trkpt lat="45.17385" lon="5.93457">
        <ele>1900.2</ele>
        <time>2021-02-20T08:02:12Z</time>
      </trkpt>
      <trkpt lat="45.17384" lon="5.93458">
        <ele>1900.2</ele>
        <time>2021-02-20T08:02:13Z</time>
      </trkpt>
      <trkpt lat="45.17384" lon="5.93459">
        <ele>1900.2</ele>
        <time>2021-02-20T08:02:14Z</time>
      </trkpt>
      <trkpt lat="45.17384" lon="5.9346">
        <ele>1901.4</ele>
        <time>2021-02-20T08:02:15Z</time>
      </trkpt>
      <trkpt lat="45.17384" lon="5.93461">
        <ele>1901.4</ele>
        <time>2021-02-20T08:02:16Z</time>
      </trkpt>
      <trkpt lat="45.17383" lon="5.93462">
        <ele>1901.4</ele>
        <time>2021-02-20T08:02:17Z</time>
      </trkpt>
      <trkpt lat="45.17383" lon="5.93463">
        <ele>1901.3</ele>
        <time>2021-02-20T08:02:18Z</time>
      </trkpt>
      <trkpt lat="45.17383" lon="5.93464">
        <ele>1901.9</ele>
        <time>2021-02-20T08:02:19Z</time>
      </trkpt>
      <trkpt lat="45.17383" lon="5.93466">
        <ele>1901.9</ele>
        <time>2021-02-20T08:02:20Z</time>
      </trkpt>
      <trkpt lat="45.17383" lon="5.93467">
        <ele>1901.9</ele>
        <time>2021-02-20T08:02:21Z</time>
      </trkpt>
      <trkpt lat="45.17383" lon="5.93468">
        <ele>1901.9</ele>
        <time>2021-02-20T08:02:22Z</time>
      </trkpt>
      <trkpt lat="45.17383" lon="5.93469">
        <ele>1902.4</ele>
        <time>2021-02-20T08:02:23Z</time>
      </trkpt>
      <trkpt lat="45.17383" lon="5.9347">
        <ele>1902.4</ele>
        <time>2021-02-20T08:02:24Z</time>
      </trkpt>
      <trkpt lat="45.17383" lon="5.93471">
        <ele>1902.4</ele>
        <time>2021-02-20T08:02:25Z</time>
      </trkpt>
      <trkpt lat="45.17383" lon="5.93472">
        <ele>1902.3</ele>
        <time>2021-02-20T08:02:26Z</time>
      </trkpt>
      <trkpt lat="45.17383" lon="5.93473">
        <ele>1902.8</ele>
        <time>2021-02-20T08:02:27Z</time>
      </trkpt>
      <trkpt lat="45.17383" lon="5.93474">
        <ele>1902.8</ele>
        <time>2021-02-20T08:02:28Z</time>
      </trkpt>
      <trkpt lat="45.17382" lon="5.93475">
        <ele>1902.8</ele>
        <time>2021-02-20T08:02:29Z</time>
      </trkpt>
      <trkpt lat="45.17382" lon="5.93477">
        <ele>1903.3</ele>
        <time>2021-02-20T08:02:30Z</time>
      </trkpt>
      <trkpt lat="45.17382" lon="5.93478">
        <ele>1903.2</ele>
        <time>2021-02-20T08:02:31Z</time>
      </trkpt>
      <trkpt lat="45.17381" lon="5.9348">
        <ele>1903.2</ele>
        <time>2021-02-20T08:02:32Z</time>
      </trkpt>
      <trkpt lat="45.17381" lon="5.93481">
        <ele>1903.6</ele>
        <time>2021-02-20T08:02:33Z</time>
      </trkpt>
      <trkpt lat="45.17381" lon="5.93483">
        <ele>1904.2</ele>
        <time>2021-02-20T08:02:34Z</time>
      </trkpt>
      <trkpt lat="45.1738" lon="5.93484">
        <ele>1904.2</ele>
        <time>2021-02-20T08:02:35Z</time>
      </trkpt>
      <trkpt lat="45.1738" lon="5.93486">
        <ele>1904.6</ele>
        <time>2021-02-20T08:02:36Z</time>
      </trkpt>
      <trkpt lat="45.1738" lon="5.93487">
        <ele>1904.6</ele>
        <time>2021-02-20T08:02:37Z</time>
      </trkpt>
      <trkpt lat="45.1738" lon="5.93488">
        <ele>1904.6</ele>
        <time>2021-02-20T08:02:38Z</time>
      </trkpt>
      <trkpt lat="45.17379" lon="5.9349">
        <ele>1905</ele>
        <time>2021-02-20T08:02:39Z</time>
      </trkpt>
      <trkpt lat="45.17379" lon="5.93491">
        <ele>1905</ele>
        <time>2021-02-20T08:02:40Z</time>
      </trkpt>
      <trkpt lat="45.17378" lon="5.93492">
        <ele>1905</ele>
        <time>2021-02-20T08:02:41Z</time>
      </trkpt>
      <trkpt lat="45.17377" lon="5.93493">
        <ele>1905.6</ele>
        <time>2021-02-20T08:02:42Z</time>
      </trkpt>
      <trkpt lat="45.17376" lon="5.93494">
        <ele>1906.1</ele>
        <time>2021-02-20T08:02:43Z</time>
      </trkpt>
      <trkpt lat="45.17376" lon="5.93495">
        <ele>1906.1</ele>
        <time>2021-02-20T08:02:44Z</time>
      </trkpt>
      <trkpt lat="45.17375" lon="5.93496">
        <ele>1906</ele>
        <time>2021-02-20T08:02:45Z</time>
      </trkpt>
      <trkpt lat="45.17374" lon="5.93497">
        <ele>1906.7</ele>
        <time>2021-02-20T08:02:46Z</time>
      </trkpt>
      <trkpt lat="45.17374" lon="5.93498">
        <ele>1907.2</ele>
        <time>2021-02-20T08:02:47Z</time>
      </trkpt>
      <trkpt lat="45.17374" lon="5.93499">
        <ele>1907.2</ele>
        <time>2021-02-20T08:02:48Z</time>
      </trkpt>
      <trkpt lat="45.17373" lon="5.935">
        <ele>1907.2</ele>
        <time>2021-02-20T08:02:49Z</time>
      </trkpt>
      <trkpt lat="45.17373" lon="5.93501">
        <ele>1907.2</ele>
        <time>2021-02-20T08:02:50Z</time>
      </trkpt>
      <trkpt lat="45.17372" lon="5.93502">
        <ele>1907.2</ele>
        <time>2021-02-20T08:02:51Z</time>
      </trkpt>
      <trkpt lat="45.17372" lon="5.93503">
        <ele>1907.8</ele>
        <time>2021-02-20T08:02:52Z</time>
      </trkpt>
      <trkpt lat="45.17372" lon="5.93504">
        <ele>1907.7</ele>
        <time>2021-02-20T08:02:53Z</time>
      </trkpt>
      <trkpt lat="45.17372" lon="5.93505">
        <ele>1907.7</ele>
        <time>2021-02-20T08:02:54Z</time>
      </trkpt>
      <trkpt lat="45.17372" lon="5.93507">
        <ele>1908.3</ele>
        <time>2021-02-20T08:02:55Z</time>
      </trkpt>
      <trkpt lat="45.17372" lon="5.93508">
        <ele>1908.3</ele>
        <time>2021-02-20T08:02:56Z</time>
      </trkpt>
      <trkpt lat="45.17372" lon="5.93509">
        <ele>1908.3</ele>
        <time>2021-02-20T08:02:57Z</time>
      </trkpt>
      <trkpt lat="45.17372" lon="5.9351">
        <ele>1908.3</ele>
        <time>2021-02-20T08:02:58Z</time>
      </trkpt>
      <trkpt lat="45.17372" lon="5.9351">
        <ele>1908.3</ele>
        <time>2021-02-20T08:02:59Z</time>
      </trkpt>
      <trkpt lat="45.17372" lon="5.93511">
        <ele>1908.9</ele>
        <time>2021-02-20T08:03:00Z</time>
      </trkpt>
      <trkpt lat="45.17372" lon="5.93512">
        <ele>1909.6</ele>
        <time>2021-02-20T08:03:01Z</time>
      </trkpt>
      <trkpt lat="45.17372" lon="5.93513">
        <ele>1909.6</ele>
        <time>2021-02-20T08:03:02Z</time>
      </trkpt>
      <trkpt lat="45.17372" lon="5.93514">
        <ele>1908.8</ele>
        <time>2021-02-20T08:03:03Z</time>
      </trkpt>
      <trkpt lat="45.17372" lon="5.93516">
        <ele>1909.5</ele>
        <time>2021-02-20T08:03:04Z</time>
      </trkpt>
      <trkpt lat="45.17372" lon="5.93517">
        <ele>1909.5</ele>
        <time>2021-02-20T08:03:05Z</time>
      </trkpt>
      <trkpt lat="45.17372" lon="5.93518">
        <ele>1909.4</ele>
        <time>2021-02-20T08:03:06Z</time>
      </trkpt>
      <trkpt lat="45.17372" lon="5.93519">
        <ele>1909.4</ele>
        <time>2021-02-20T08:03:07Z</time>
      </trkpt>
      <trkpt lat="45.17372" lon="5.9352">
        <ele>1910.1</ele>
        <time>2021-02-20T08:03:08Z</time>
      </trkpt>
      <trkpt lat="45.17371" lon="5.93521">
        <ele>1910.8</ele>
        <time>2021-02-20T08:03:09Z</time>
      </trkpt>
      <trkpt lat="45.17371" lon="5.93522">
        <ele>1910.7</ele>
        <time>2021-02-20T08:03:10Z</time>
      </trkpt>
      <trkpt lat="45.17371" lon="5.93523">
        <ele>1910.7</ele>
        <time>2021-02-20T08:03:11Z</time>
      </trkpt>
      <trkpt lat="45.17371" lon="5.93523">
        <ele>1910.7</ele>
        <time>2021-02-20T08:03:12Z</time>
      </trkpt>
      <trkpt lat="45.17371" lon="5.93524">
        <ele>1911.4</ele>
        <time>2021-02-20T08:03:13Z</time>
      </trkpt>
      <trkpt lat="45.17371" lon="5.93525">
        <ele>1911.4</ele>
        <time>2021-02-20T08:03:14Z</time>
      </trkpt>
      <trkpt lat="45.17371" lon="5.93526">
        <ele>1911.3</ele>
        <time>2021-02-20T08:03:15Z</time>
      </trkpt>
      <trkpt lat="45.17371" lon="5.93527">
        <ele>1911.3</ele>
        <time>2021-02-20T08:03:16Z</time>
      </trkpt>
      <trkpt lat="45.17371" lon="5.93528">
        <ele>1912</ele>
        <time>2021-02-20T08:03:17Z</time>
      </trkpt>
      <trkpt lat="45.17371" lon="5.93529">
        <ele>1912</ele>
        <time>2021-02-20T08:03:18Z</time>
      </trkpt>
      <trkpt lat="45.17371" lon="5.9353">
        <ele>1912</ele>
        <time>2021-02-20T08:03:19Z</time>
      </trkpt>
      <trkpt lat="45.17371" lon="5.93531">
        <ele>1912</ele>
        <time>2021-02-20T08:03:20Z</time>
      </trkpt>
      <trkpt lat="45.17371" lon="5.93533">
        <ele>1912.7</ele>
        <time>2021-02-20T08:03:21Z</time>
      </trkpt>
      <trkpt lat="45.17371" lon="5.93534">
        <ele>1912.7</ele>
        <time>2021-02-20T08:03:22Z</time>
      </trkpt>
      <trkpt lat="45.17372" lon="5.93535">
        <ele>1912.7</ele>
        <time>2021-02-20T08:03:23Z</time>
      </trkpt>
      <trkpt lat="45.17371" lon="5.93536">
        <ele>1912.7</ele>
        <time>2021-02-20T08:03:24Z</time>
      </trkpt>
      <trkpt lat="45.17371" lon="5.93538">
        <ele>1913.5</ele>
        <time>2021-02-20T08:03:25Z</time>
      </trkpt>
      <trkpt lat="45.17371" lon="5.93539">
        <ele>1913.5</ele>
        <time>2021-02-20T08:03:26Z</time>
      </trkpt>
      <trkpt lat="45.1737" lon="5.9354">
        <ele>1913.4</ele>
        <time>2021-02-20T08:03:27Z</time>
      </trkpt>
      <trkpt lat="45.1737" lon="5.93541">
        <ele>1913.4</ele>
        <time>2021-02-20T08:03:28Z</time>
      </trkpt>
      <trkpt lat="45.17369" lon="5.93542">
        <ele>1914.3</ele>
        <time>2021-02-20T08:03:29Z</time>
      </trkpt>
      <trkpt lat="45.17369" lon="5.93543">
        <ele>1914.3</ele>
        <time>2021-02-20T08:03:30Z</time>
      </trkpt>
      <trkpt lat="45.17368" lon="5.93543">
        <ele>1915</ele>
        <time>2021-02-20T08:03:31Z</time>
      </trkpt>
      <trkpt lat="45.17368" lon="5.93544">
        <ele>1915</ele>
        <time>2021-02-20T08:03:32Z</time>
      </trkpt>
      <trkpt lat="45.17367" lon="5.93544">
        <ele>1915</ele>
        <time>2021-02-20T08:03:33Z</time>
      </trkpt>
      <trkpt lat="45.17367" lon="5.93544">
        <ele>1915</ele>
        <time>2021-02-20T08:03:34Z</time>
      </trkpt>
      <trkpt lat="45.17367" lon="5.93544">
        <ele>1915</ele>
        <time>2021-02-20T08:03:35Z</time>
      </trkpt>
      <trkpt lat="45.17367" lon="5.93544">
        <ele>1914.9</ele>
        <time>2021-02-20T08:03:36Z</time>
      </trkpt>
      <trkpt lat="45.17366" lon="5.93544">
        <ele>1914.9</ele>
        <time>2021-02-20T08:03:37Z</time>
      </trkpt>
      <trkpt lat="45.17366" lon="5.93545">
        <ele>1916.7</ele>
        <time>2021-02-20T08:03:38Z</time>
      </trkpt>
      <trkpt lat="45.17365" lon="5.93545">
        <ele>1916.7</ele>
        <time>2021-02-20T08:03:39Z</time>
      </trkpt>
      <trkpt lat="45.17365" lon="5.93546">
        <ele>1916.7</ele>
        <time>2021-02-20T08:03:40Z</time>
      </trkpt>
      <trkpt lat="45.17364" lon="5.93546">
        <ele>1916.7</ele>
        <time>2021-02-20T08:03:41Z</time>
      </trkpt>
      <trkpt lat="45.17364" lon="5.93547">
        <ele>1916.6</ele>
        <time>2021-02-20T08:03:42Z</time>
      </trkpt>
      <trkpt lat="45.17363" lon="5.93547">
        <ele>1916.6</ele>
        <time>2021-02-20T08:03:43Z</time>
      </trkpt>
      <trkpt lat="45.17363" lon="5.93548">
        <ele>1917.5</ele>
        <time>2021-02-20T08:03:44Z</time>
      </trkpt>
      <trkpt lat="45.17362" lon="5.93549">
        <ele>1917.4</ele>
        <time>2021-02-20T08:03:45Z</time>
      </trkpt>
      <trkpt lat="45.17362" lon="5.93549">
        <ele>1917.4</ele>
        <time>2021-02-20T08:03:46Z</time>
      </trkpt>
      <trkpt lat="45.17362" lon="5.9355">
        <ele>1918.5</ele>
        <time>2021-02-20T08:03:47Z</time>
      </trkpt>
      <trkpt lat="45.17362" lon="5.93551">
        <ele>1918.5</ele>
        <time>2021-02-20T08:03:48Z</time>
      </trkpt>
      <trkpt lat="45.17362" lon="5.93552">
        <ele>1918.5</ele>
        <time>2021-02-20T08:03:49Z</time>
      </trkpt>
      <trkpt lat="45.17362" lon="5.93553">
        <ele>1918.5</ele>
        <time>2021-02-20T08:03:50Z</time>
      </trkpt>
      <trkpt lat="45.17363" lon="5.93554">
        <ele>1919.6</ele>
        <time>2021-02-20T08:03:51Z</time>
      </trkpt>
      <trkpt lat="45.17363" lon="5.93555">
        <ele>1918.7</ele>
        <time>2021-02-20T08:03:52Z</time>
      </trkpt>
      <trkpt lat="45.17364" lon="5.93556">
        <ele>1918.7</ele>
        <time>2021-02-20T08:03:53Z</time>
      </trkpt>
      <trkpt lat="45.17364" lon="5.93557">
        <ele>1918.7</ele>
        <time>2021-02-20T08:03:54Z</time>
      </trkpt>
      <trkpt lat="45.17365" lon="5.93558">
        <ele>1919.8</ele>
        <time>2021-02-20T08:03:55Z</time>
      </trkpt>
      <trkpt lat="45.17365" lon="5.93559">
        <ele>1919.8</ele>
        <time>2021-02-20T08:03:56Z</time>
      </trkpt>
      <trkpt lat="45.17365" lon="5.9356">
        <ele>1919.8</ele>
        <time>2021-02-20T08:03:57Z</time>
      </trkpt>
      <trkpt lat="45.17365" lon="5.93561">
        <ele>1919.8</ele>
        <time>2021-02-20T08:03:58Z</time>
      </trkpt>
      <trkpt lat="45.17364" lon="5.93562">
        <ele>1919.8</ele>
        <time>2021-02-20T08:03:59Z</time>
      </trkpt>
      <trkpt lat="45.17364" lon="5.93562">
        <ele>1920.9</ele>
        <time>2021-02-20T08:04:00Z</time>
      </trkpt>
      <trkpt lat="45.17363" lon="5.93563">
        <ele>1920.9</ele>
        <time>2021-02-20T08:04:01Z</time>
      </trkpt>
      <trkpt lat="45.17363" lon="5.93563">
        <ele>1921.7</ele>
        <time>2021-02-20T08:04:02Z</time>
      </trkpt>
      <trkpt lat="45.17362" lon="5.93563">
        <ele>1921.7</ele>
        <time>2021-02-20T08:04:03Z</time>
      </trkpt>
      <trkpt lat="45.17362" lon="5.93563">
        <ele>1921.7</ele>
        <time>2021-02-20T08:04:04Z</time>
      </trkpt>
      <trkpt lat="45.17361" lon="5.93563">
        <ele>1921.7</ele>
        <time>2021-02-20T08:04:05Z</time>
      </trkpt>
      <trkpt lat="45.1736" lon="5.93563">
        <ele>1921.7</ele>
        <time>2021-02-20T08:04:06Z</time>
      </trkpt>
      <trkpt lat="45.17359" lon="5.93563">
        <ele>1922.5</ele>
        <time>2021-02-20T08:04:07Z</time>
      </trkpt>
      <trkpt lat="45.17359" lon="5.93563">
        <ele>1922.5</ele>
        <time>2021-02-20T08:04:08Z</time>
      </trkpt>
      <trkpt lat="45.17358" lon="5.93563">
        <ele>1922.5</ele>
        <time>2021-02-20T08:04:09Z</time>
      </trkpt>
      <trkpt lat="45.17357" lon="5.93563">
        <ele>1922.5</ele>
        <time>2021-02-20T08:04:10Z</time>
      </trkpt>
      <trkpt lat="45.17356" lon="5.93563">
        <ele>1923.4</ele>
        <time>2021-02-20T08:04:11Z</time>
      </trkpt>
      <trkpt lat="45.17356" lon="5.93564">
        <ele>1923.4</ele>
        <time>2021-02-20T08:04:12Z</time>
      </trkpt>
      <trkpt lat="45.17355" lon="5.93564">
        <ele>1923.3</ele>
        <time>2021-02-20T08:04:13Z</time>
      </trkpt>
      <trkpt lat="45.17354" lon="5.93564">
        <ele>1923.3</ele>
        <time>2021-02-20T08:04:14Z</time>
      </trkpt>
      <trkpt lat="45.17353" lon="5.93564">
        <ele>1924.2</ele>
        <time>2021-02-20T08:04:15Z</time>
      </trkpt>
      <trkpt lat="45.17353" lon="5.93563">
        <ele>1924.1</ele>
        <time>2021-02-20T08:04:16Z</time>
      </trkpt>
      <trkpt lat="45.17352" lon="5.93563">
        <ele>1924.1</ele>
        <time>2021-02-20T08:04:17Z</time>
      </trkpt>
      <trkpt lat="45.17351" lon="5.93562">
        <ele>1923</ele>
        <time>2021-02-20T08:04:18Z</time>
      </trkpt>
      <trkpt lat="45.1735" lon="5.93561">
        <ele>1923.8</ele>
        <time>2021-02-20T08:04:19Z</time>
      </trkpt>
      <trkpt lat="45.1735" lon="5.9356">
        <ele>1923.8</ele>
        <time>2021-02-20T08:04:20Z</time>
      </trkpt>
      <trkpt lat="45.17349" lon="5.9356">
        <ele>1923.7</ele>
        <time>2021-02-20T08:04:21Z</time>
      </trkpt>
      <trkpt lat="45.17348" lon="5.93559">
        <ele>1923.7</ele>
        <time>2021-02-20T08:04:22Z</time>
      </trkpt>
      <trkpt lat="45.17348" lon="5.93558">
        <ele>1924.5</ele>
        <time>2021-02-20T08:04:23Z</time>
      </trkpt>
      <trkpt lat="45.17347" lon="5.93557">
        <ele>1923.3</ele>
        <time>2021-02-20T08:04:24Z</time>
      </trkpt>
      <trkpt lat="45.17346" lon="5.93556">
        <ele>1923.3</ele>
        <time>2021-02-20T08:04:25Z</time>
      </trkpt>
      <trkpt lat="45.17346" lon="5.93555">
        <ele>1923.3</ele>
        <time>2021-02-20T08:04:26Z</time>
      </trkpt>
      <trkpt lat="45.17346" lon="5.93555">
        <ele>1923.2</ele>
        <time>2021-02-20T08:04:27Z</time>
      </trkpt>
      <trkpt lat="45.17345" lon="5.93554">
        <ele>1923.2</ele>
        <time>2021-02-20T08:04:28Z</time>
      </trkpt>
      <trkpt lat="45.17345" lon="5.93553">
        <ele>1922.8</ele>
        <time>2021-02-20T08:04:29Z</time>
      </trkpt>
      <trkpt lat="45.17344" lon="5.93552">
        <ele>1922.8</ele>
        <time>2021-02-20T08:04:30Z</time>
      </trkpt>
      <trkpt lat="45.17343" lon="5.93551">
        <ele>1922.8</ele>
        <time>2021-02-20T08:04:31Z</time>
      </trkpt>
      <trkpt lat="45.17343" lon="5.9355">
        <ele>1922.8</ele>
        <time>2021-02-20T08:04:32Z</time>
      </trkpt>
      <trkpt lat="45.17342" lon="5.93549">
        <ele>1921.6</ele>
        <time>2021-02-20T08:04:33Z</time>
      </trkpt>
      <trkpt lat="45.17342" lon="5.93548">
        <ele>1921.6</ele>
        <time>2021-02-20T08:04:34Z</time>
      </trkpt>
      <trkpt lat="45.17341" lon="5.93547">
        <ele>1922.4</ele>
        <time>2021-02-20T08:04:35Z</time>
      </trkpt>
      <trkpt lat="45.17341" lon="5.93546">
        <ele>1922.4</ele>
        <time>2021-02-20T08:04:36Z</time>
      </trkpt>
      <trkpt lat="45.1734" lon="5.93546">
        <ele>1922.3</ele>
        <time>2021-02-20T08:04:37Z</time>
      </trkpt>
      <trkpt lat="45.17339" lon="5.93545">
        <ele>1921.2</ele>
        <time>2021-02-20T08:04:38Z</time>
      </trkpt>
      <trkpt lat="45.17339" lon="5.93544">
        <ele>1921.2</ele>
        <time>2021-02-20T08:04:39Z</time>
      </trkpt>
      <trkpt lat="45.17338" lon="5.93544">
        <ele>1922.1</ele>
        <time>2021-02-20T08:04:40Z</time>
      </trkpt>
      <trkpt lat="45.17337" lon="5.93543">
        <ele>1922.1</ele>
        <time>2021-02-20T08:04:41Z</time>
      </trkpt>
      <trkpt lat="45.17337" lon="5.93543">
        <ele>1922.1</ele>
        <time>2021-02-20T08:04:42Z</time>
      </trkpt>
      <trkpt lat="45.17336" lon="5.93542">
        <ele>1922.1</ele>
        <time>2021-02-20T08:04:43Z</time>
      </trkpt>
      <trkpt lat="45.17335" lon="5.93542">
        <ele>1923</ele>
        <time>2021-02-20T08:04:44Z</time>
      </trkpt>
      <trkpt lat="45.17335" lon="5.93542">
        <ele>1923</ele>
        <time>2021-02-20T08:04:45Z</time>
      </trkpt>
      <trkpt lat="45.17334" lon="5.93542">
        <ele>1922.9</ele>
        <time>2021-02-20T08:04:46Z</time>
      </trkpt>
      <trkpt lat="45.17333" lon="5.93541">
        <ele>1922.9</ele>
        <time>2021-02-20T08:04:47Z</time>
      </trkpt>
      <trkpt lat="45.17333" lon="5.93541">
        <ele>1921.9</ele>
        <time>2021-02-20T08:04:48Z</time>
      </trkpt>
      <trkpt lat="45.17332" lon="5.9354">
        <ele>1922.8</ele>
        <time>2021-02-20T08:04:49Z</time>
      </trkpt>
      <trkpt lat="45.17332" lon="5.9354">
        <ele>1922.8</ele>
        <time>2021-02-20T08:04:50Z</time>
      </trkpt>
      <trkpt lat="45.17331" lon="5.93539">
        <ele>1922.8</ele>
        <time>2021-02-20T08:04:51Z</time>
      </trkpt>
      <trkpt lat="45.17331" lon="5.93539">
        <ele>1922.8</ele>
        <time>2021-02-20T08:04:52Z</time>
      </trkpt>
      <trkpt lat="45.1733" lon="5.93538">
        <ele>1922.8</ele>
        <time>2021-02-20T08:04:53Z</time>
      </trkpt>
      <trkpt lat="45.17329" lon="5.93538">
        <ele>1923.7</ele>
        <time>2021-02-20T08:04:54Z</time>
      </trkpt>
      <trkpt lat="45.17328" lon="5.93538">
        <ele>1923.6</ele>
        <time>2021-02-20T08:04:55Z</time>
      </trkpt>
      <trkpt lat="45.17328" lon="5.93538">
        <ele>1923.6</ele>
        <time>2021-02-20T08:04:56Z</time>
      </trkpt>
      <trkpt lat="45.17328" lon="5.93537">
        <ele>1923.6</ele>
        <time>2021-02-20T08:04:57Z</time>
      </trkpt>
      <trkpt lat="45.17327" lon="5.93537">
        <ele>1923.6</ele>
        <time>2021-02-20T08:04:58Z</time>
      </trkpt>
      <trkpt lat="45.17327" lon="5.93536">
        <ele>1922.6</ele>
        <time>2021-02-20T08:04:59Z</time>
      </trkpt>
      <trkpt lat="45.17326" lon="5.93536">
        <ele>1923.4</ele>
        <time>2021-02-20T08:05:00Z</time>
      </trkpt>
      <trkpt lat="45.17325" lon="5.93535">
        <ele>1923.4</ele>
        <time>2021-02-20T08:05:01Z</time>
      </trkpt>
      <trkpt lat="45.17325" lon="5.93535">
        <ele>1923.4</ele>
        <time>2021-02-20T08:05:02Z</time>
      </trkpt>
      <trkpt lat="45.17324" lon="5.93535">
        <ele>1923.3</ele>
        <time>2021-02-20T08:05:03Z</time>
      </trkpt>
      <trkpt lat="45.17324" lon="5.93534">
        <ele>1923.3</ele>
        <time>2021-02-20T08:05:04Z</time>
      </trkpt>
      <trkpt lat="45.17323" lon="5.93534">
        <ele>1924.1</ele>
        <time>2021-02-20T08:05:05Z</time>
      </trkpt>
      <trkpt lat="45.17322" lon="5.93534">
        <ele>1924.1</ele>
        <time>2021-02-20T08:05:06Z</time>
      </trkpt>
      <trkpt lat="45.17322" lon="5.93534">
        <ele>1924</ele>
        <time>2021-02-20T08:05:07Z</time>
      </trkpt>
      <trkpt lat="45.17322" lon="5.93534">
        <ele>1924</ele>
        <time>2021-02-20T08:05:08Z</time>
      </trkpt>
      <trkpt lat="45.17321" lon="5.93534">
        <ele>1924</ele>
        <time>2021-02-20T08:05:09Z</time>
      </trkpt>
      <trkpt lat="45.17321" lon="5.93534">
        <ele>1924</ele>
        <time>2021-02-20T08:05:10Z</time>
      </trkpt>
      <trkpt lat="45.1732" lon="5.93534">
        <ele>1924.7</ele>
        <time>2021-02-20T08:05:11Z</time>
      </trkpt>
      <trkpt lat="45.1732" lon="5.93533">
        <ele>1924.7</ele>
        <time>2021-02-20T08:05:12Z</time>
      </trkpt>
      <trkpt lat="45.1732" lon="5.93533">
        <ele>1924.7</ele>
        <time>2021-02-20T08:05:13Z</time>
      </trkpt>
      <trkpt lat="45.17319" lon="5.93533">
        <ele>1924.7</ele>
        <time>2021-02-20T08:05:14Z</time>
      </trkpt>
      <trkpt lat="45.17319" lon="5.93533">
        <ele>1924.7</ele>
        <time>2021-02-20T08:05:15Z</time>
      </trkpt>
      <trkpt lat="45.17318" lon="5.93533">
        <ele>1924.6</ele>
        <time>2021-02-20T08:05:16Z</time>
      </trkpt>
      <trkpt lat="45.17318" lon="5.93533">
        <ele>1924.6</ele>
        <time>2021-02-20T08:05:17Z</time>
      </trkpt>
      <trkpt lat="45.17317" lon="5.93532">
        <ele>1925.4</ele>
        <time>2021-02-20T08:05:18Z</time>
      </trkpt>
      <trkpt lat="45.17316" lon="5.93532">
        <ele>1924.4</ele>
        <time>2021-02-20T08:05:19Z</time>
      </trkpt>
      <trkpt lat="45.17316" lon="5.93532">
        <ele>1924.4</ele>
        <time>2021-02-20T08:05:20Z</time>
      </trkpt>
      <trkpt lat="45.17315" lon="5.93531">
        <ele>1924.4</ele>
        <time>2021-02-20T08:05:21Z</time>
      </trkpt>
      <trkpt lat="45.17315" lon="5.93531">
        <ele>1924.4</ele>
        <time>2021-02-20T08:05:22Z</time>
      </trkpt>
      <trkpt lat="45.17315" lon="5.93531">
        <ele>1924.3</ele>
        <time>2021-02-20T08:05:23Z</time>
      </trkpt>
      <trkpt lat="45.17314" lon="5.93531">
        <ele>1925.2</ele>
        <time>2021-02-20T08:05:24Z</time>
      </trkpt>
      <trkpt lat="45.17313" lon="5.93531">
        <ele>1925.2</ele>
        <time>2021-02-20T08:05:25Z</time>
      </trkpt>
      <trkpt lat="45.17312" lon="5.93531">
        <ele>1925.2</ele>
        <time>2021-02-20T08:05:26Z</time>
      </trkpt>
      <trkpt lat="45.17312" lon="5.9353">
        <ele>1925.2</ele>
        <time>2021-02-20T08:05:27Z</time>
      </trkpt>
      <trkpt lat="45.17311" lon="5.9353">
        <ele>1926.2</ele>
        <time>2021-02-20T08:05:28Z</time>
      </trkpt>
      <trkpt lat="45.17311" lon="5.9353">
        <ele>1926.2</ele>
        <time>2021-02-20T08:05:29Z</time>
      </trkpt>
      <trkpt lat="45.1731" lon="5.93531">
        <ele>1926.1</ele>
        <time>2021-02-20T08:05:30Z</time>
      </trkpt>
      <trkpt lat="45.1731" lon="5.93531">
        <ele>1926.1</ele>
        <time>2021-02-20T08:05:31Z</time>
      </trkpt>
      <trkpt lat="45.1731" lon="5.93531">
        <ele>1926.1</ele>
        <time>2021-02-20T08:05:32Z</time>
      </trkpt>
      <trkpt lat="45.1731" lon="5.93531">
        <ele>1926.1</ele>
        <time>2021-02-20T08:05:33Z</time>
      </trkpt>
      <trkpt lat="45.1731" lon="5.93531">
        <ele>1926.1</ele>
        <time>2021-02-20T08:05:34Z</time>
      </trkpt>
      <trkpt lat="45.17311" lon="5.93532">
        <ele>1926</ele>
        <time>2021-02-20T08:05:35Z</time>
      </trkpt>
      <trkpt lat="45.17312" lon="5.93532">
        <ele>1926</ele>
        <time>2021-02-20T08:05:36Z</time>
      </trkpt>
      <trkpt lat="45.17312" lon="5.93532">
        <ele>1926</ele>
        <time>2021-02-20T08:05:37Z</time>
      </trkpt>
      <trkpt lat="45.17313" lon="5.93533">
        <ele>1925.9</ele>
        <time>2021-02-20T08:05:38Z</time>
      </trkpt>
      <trkpt lat="45.17313" lon="5.93534">
        <ele>1925.9</ele>
        <time>2021-02-20T08:05:39Z</time>
      </trkpt>
      <trkpt lat="45.17313" lon="5.93535">
        <ele>1925.9</ele>
        <time>2021-02-20T08:05:40Z</time>
      </trkpt>
      <trkpt lat="45.17313" lon="5.93536">
        <ele>1925.9</ele>
        <time>2021-02-20T08:05:41Z</time>
      </trkpt>
      <trkpt lat="45.17313" lon="5.93536">
        <ele>1926.8</ele>
        <time>2021-02-20T08:05:42Z</time>
      </trkpt>
      <trkpt lat="45.17313" lon="5.93537">
        <ele>1926.8</ele>
        <time>2021-02-20T08:05:43Z</time>
      </trkpt>
      <trkpt lat="45.17313" lon="5.93538">
        <ele>1926.8</ele>
        <time>2021-02-20T08:05:44Z</time>
      </trkpt>
      <trkpt lat="45.17312" lon="5.93538">
        <ele>1926.8</ele>
        <time>2021-02-20T08:05:45Z</time>
      </trkpt>
      <trkpt lat="45.17312" lon="5.93539">
        <ele>1926.8</ele>
        <time>2021-02-20T08:05:46Z</time>
      </trkpt>
      <trkpt lat="45.17312" lon="5.93539">
        <ele>1926.7</ele>
        <time>2021-02-20T08:05:47Z</time>
      </trkpt>
      <trkpt lat="45.17311" lon="5.93539">
        <ele>1927.7</ele>
        <time>2021-02-20T08:05:48Z</time>
      </trkpt>
      <trkpt lat="45.1731" lon="5.93539">
        <ele>1927.7</ele>
        <time>2021-02-20T08:05:49Z</time>
      </trkpt>
      <trkpt lat="45.1731" lon="5.93539">
        <ele>1927.7</ele>
        <time>2021-02-20T08:05:50Z</time>
      </trkpt>
      <trkpt lat="45.17309" lon="5.93539">
        <ele>1927.6</ele>
        <time>2021-02-20T08:05:51Z</time>
      </trkpt>
      <trkpt lat="45.17308" lon="5.93539">
        <ele>1928.6</ele>
        <time>2021-02-20T08:05:52Z</time>
      </trkpt>
      <trkpt lat="45.17307" lon="5.93538">
        <ele>1928.6</ele>
        <time>2021-02-20T08:05:53Z</time>
      </trkpt>
      <trkpt lat="45.17307" lon="5.93538">
        <ele>1928.6</ele>
        <time>2021-02-20T08:05:54Z</time>
      </trkpt>
      <trkpt lat="45.17306" lon="5.93538">
        <ele>1928.6</ele>
        <time>2021-02-20T08:05:55Z</time>
      </trkpt>
      <trkpt lat="45.17305" lon="5.93538">
        <ele>1929.5</ele>
        <time>2021-02-20T08:05:56Z</time>
      </trkpt>
      <trkpt lat="45.17304" lon="5.93538">
        <ele>1929.5</ele>
        <time>2021-02-20T08:05:57Z</time>
      </trkpt>
      <trkpt lat="45.17303" lon="5.93538">
        <ele>1929.5</ele>
        <time>2021-02-20T08:05:58Z</time>
      </trkpt>
      <trkpt lat="45.17303" lon="5.93538">
        <ele>1929.5</ele>
        <time>2021-02-20T08:05:59Z</time>
      </trkpt>
      <trkpt lat="45.17302" lon="5.93539">
        <ele>1930.4</ele>
        <time>2021-02-20T08:06:00Z</time>
      </trkpt>
      <trkpt lat="45.17301" lon="5.93539">
        <ele>1930.4</ele>
        <time>2021-02-20T08:06:01Z</time>
      </trkpt>
      <trkpt lat="45.17301" lon="5.93539">
        <ele>1930.4</ele>
        <time>2021-02-20T08:06:02Z</time>
      </trkpt>
      <trkpt lat="45.173" lon="5.93539">
        <ele>1930.4</ele>
        <time>2021-02-20T08:06:03Z</time>
      </trkpt>
      <trkpt lat="45.17299" lon="5.93539">
        <ele>1931.3</ele>
        <time>2021-02-20T08:06:04Z</time>
      </trkpt>
      <trkpt lat="45.17298" lon="5.93539">
        <ele>1931.3</ele>
        <time>2021-02-20T08:06:05Z</time>
      </trkpt>
      <trkpt lat="45.17297" lon="5.93539">
        <ele>1931.3</ele>
        <time>2021-02-20T08:06:06Z</time>
      </trkpt>
      <trkpt lat="45.17296" lon="5.93539">
        <ele>1931.2</ele>
        <time>2021-02-20T08:06:07Z</time>
      </trkpt>
      <trkpt lat="45.17296" lon="5.93539">
        <ele>1932.1</ele>
        <time>2021-02-20T08:06:08Z</time>
      </trkpt>
      <trkpt lat="45.17295" lon="5.93538">
        <ele>1932.1</ele>
        <time>2021-02-20T08:06:09Z</time>
      </trkpt>
      <trkpt lat="45.17294" lon="5.93538">
        <ele>1932.1</ele>
        <time>2021-02-20T08:06:10Z</time>
      </trkpt>
      <trkpt lat="45.17293" lon="5.93538">
        <ele>1933</ele>
        <time>2021-02-20T08:06:11Z</time>
      </trkpt>
      <trkpt lat="45.17292" lon="5.93538">
        <ele>1933</ele>
        <time>2021-02-20T08:06:12Z</time>
      </trkpt>
      <trkpt lat="45.17292" lon="5.93538">
        <ele>1933</ele>
        <time>2021-02-20T08:06:13Z</time>
      </trkpt>
      <trkpt lat="45.17291" lon="5.93538">
        <ele>1933</ele>
        <time>2021-02-20T08:06:14Z</time>
      </trkpt>
      <trkpt lat="45.1729" lon="5.93538">
        <ele>1932.9</ele>
        <time>2021-02-20T08:06:15Z</time>
      </trkpt>
      <trkpt lat="45.1729" lon="5.93538">
        <ele>1933.9</ele>
        <time>2021-02-20T08:06:16Z</time>
      </trkpt>
      <trkpt lat="45.17289" lon="5.93538">
        <ele>1933.9</ele>
        <time>2021-02-20T08:06:17Z</time>
      </trkpt>
      <trkpt lat="45.17288" lon="5.93539">
        <ele>1933.8</ele>
        <time>2021-02-20T08:06:18Z</time>
      </trkpt>
      <trkpt lat="45.17287" lon="5.93539">
        <ele>1933.8</ele>
        <time>2021-02-20T08:06:19Z</time>
      </trkpt>
      <trkpt lat="45.17287" lon="5.93539">
        <ele>1934.8</ele>
        <time>2021-02-20T08:06:20Z</time>
      </trkpt>
      <trkpt lat="45.17286" lon="5.93539">
        <ele>1934.8</ele>
        <time>2021-02-20T08:06:21Z</time>
      </trkpt>
      <trkpt lat="45.17285" lon="5.9354">
        <ele>1934.8</ele>
        <time>2021-02-20T08:06:22Z</time>
      </trkpt>
      <trkpt lat="45.17284" lon="5.9354">
        <ele>1934.7</ele>
        <time>2021-02-20T08:06:23Z</time>
      </trkpt>
      <trkpt lat="45.17284" lon="5.9354">
        <ele>1935.7</ele>
        <time>2021-02-20T08:06:24Z</time>
      </trkpt>
      <trkpt lat="45.17283" lon="5.93541">
        <ele>1935.7</ele>
        <time>2021-02-20T08:06:25Z</time>
      </trkpt>
      <trkpt lat="45.17282" lon="5.93541">
        <ele>1936.8</ele>
        <time>2021-02-20T08:06:26Z</time>
      </trkpt>
      <trkpt lat="45.17281" lon="5.93542">
        <ele>1936.8</ele>
        <time>2021-02-20T08:06:27Z</time>
      </trkpt>
      <trkpt lat="45.17281" lon="5.93542">
        <ele>1937.9</ele>
        <time>2021-02-20T08:06:28Z</time>
      </trkpt>
      <trkpt lat="45.1728" lon="5.93543">
        <ele>1937.9</ele>
        <time>2021-02-20T08:06:29Z</time>
      </trkpt>
      <trkpt lat="45.1728" lon="5.93543">
        <ele>1937.9</ele>
        <time>2021-02-20T08:06:30Z</time>
      </trkpt>
      <trkpt lat="45.17279" lon="5.93544">
        <ele>1937.8</ele>
        <time>2021-02-20T08:06:31Z</time>
      </trkpt>
      <trkpt lat="45.17279" lon="5.93544">
        <ele>1937.8</ele>
        <time>2021-02-20T08:06:32Z</time>
      </trkpt>
      <trkpt lat="45.17278" lon="5.93545">
        <ele>1937.8</ele>
        <time>2021-02-20T08:06:33Z</time>
      </trkpt>
      <trkpt lat="45.17278" lon="5.93545">
        <ele>1940.2</ele>
        <time>2021-02-20T08:06:34Z</time>
      </trkpt>
      <trkpt lat="45.17278" lon="5.93546">
        <ele>1940.2</ele>
        <time>2021-02-20T08:06:35Z</time>
      </trkpt>
      <trkpt lat="45.17278" lon="5.93546">
        <ele>1939</ele>
        <time>2021-02-20T08:06:36Z</time>
      </trkpt>
      <trkpt lat="45.17278" lon="5.93547">
        <ele>1939</ele>
        <time>2021-02-20T08:06:37Z</time>
      </trkpt>
      <trkpt lat="45.17279" lon="5.93548">
        <ele>1939</ele>
        <time>2021-02-20T08:06:38Z</time>
      </trkpt>
      <trkpt lat="45.17279" lon="5.93549">
        <ele>1939</ele>
        <time>2021-02-20T08:06:39Z</time>
      </trkpt>
      <trkpt lat="45.17279" lon="5.9355">
        <ele>1940.3</ele>
        <time>2021-02-20T08:06:40Z</time>
      </trkpt>
      <trkpt lat="45.17279" lon="5.93551">
        <ele>1940.3</ele>
        <time>2021-02-20T08:06:41Z</time>
      </trkpt>
      <trkpt lat="45.1728" lon="5.93552">
        <ele>1940.2</ele>
        <time>2021-02-20T08:06:42Z</time>
      </trkpt>
      <trkpt lat="45.1728" lon="5.93553">
        <ele>1940.2</ele>
        <time>2021-02-20T08:06:43Z</time>
      </trkpt>
      <trkpt lat="45.17281" lon="5.93553">
        <ele>1940.2</ele>
        <time>2021-02-20T08:06:44Z</time>
      </trkpt>
      <trkpt lat="45.17281" lon="5.93554">
        <ele>1940.3</ele>
        <time>2021-02-20T08:06:45Z</time>
      </trkpt>
      <trkpt lat="45.17282" lon="5.93555">
        <ele>1940.3</ele>
        <time>2021-02-20T08:06:46Z</time>
      </trkpt>
      <trkpt lat="45.17282" lon="5.93556">
        <ele>1940.3</ele>
        <time>2021-02-20T08:06:47Z</time>
      </trkpt>
      <trkpt lat="45.17283" lon="5.93556">
        <ele>1940.3</ele>
        <time>2021-02-20T08:06:48Z</time>
      </trkpt>
      <trkpt lat="45.17283" lon="5.93557">
        <ele>1940.2</ele>
        <time>2021-02-20T08:06:49Z</time>
      </trkpt>
      <trkpt lat="45.17284" lon="5.93558">
        <ele>1940.2</ele>
        <time>2021-02-20T08:06:50Z</time>
      </trkpt>
      <trkpt lat="45.17284" lon="5.93559">
        <ele>1940.2</ele>
        <time>2021-02-20T08:06:51Z</time>
      </trkpt>
      <trkpt lat="45.17285" lon="5.93559">
        <ele>1940.2</ele>
        <time>2021-02-20T08:06:52Z</time>
      </trkpt>
      <trkpt lat="45.17285" lon="5.9356">
        <ele>1940.2</ele>
        <time>2021-02-20T08:06:53Z</time>
      </trkpt>
      <trkpt lat="45.17285" lon="5.93561">
        <ele>1940.2</ele>
        <time>2021-02-20T08:06:54Z</time>
      </trkpt>
      <trkpt lat="45.17286" lon="5.93561">
        <ele>1940.2</ele>
        <time>2021-02-20T08:06:55Z</time>
      </trkpt>
      <trkpt lat="45.17286" lon="5.93562">
        <ele>1940.2</ele>
        <time>2021-02-20T08:06:56Z</time>
      </trkpt>
      <trkpt lat="45.17287" lon="5.93563">
        <ele>1941.3</ele>
        <time>2021-02-20T08:06:57Z</time>
      </trkpt>
      <trkpt lat="45.17287" lon="5.93563">
        <ele>1941.3</ele>
        <time>2021-02-20T08:06:58Z</time>
      </trkpt>
      <trkpt lat="45.17288" lon="5.93564">
        <ele>1940.1</ele>
        <time>2021-02-20T08:06:59Z</time>
      </trkpt>
      <trkpt lat="45.17288" lon="5.93565">
        <ele>1940.1</ele>
        <time>2021-02-20T08:07:00Z</time>
      </trkpt>
      <trkpt lat="45.17289" lon="5.93565">
        <ele>1940</ele>
        <time>2021-02-20T08:07:01Z</time>
      </trkpt>
      <trkpt lat="45.17289" lon="5.93566">
        <ele>1940</ele>
        <time>2021-02-20T08:07:02Z</time>
      </trkpt>
      <trkpt lat="45.1729" lon="5.93566">
        <ele>1940</ele>
        <time>2021-02-20T08:07:03Z</time>
      </trkpt>
      <trkpt lat="45.1729" lon="5.93566">
        <ele>1938.8</ele>
        <time>2021-02-20T08:07:04Z</time>
      </trkpt>
      <trkpt lat="45.17291" lon="5.93567">
        <ele>1939.9</ele>
        <time>2021-02-20T08:07:05Z</time>
      </trkpt>
      <trkpt lat="45.17291" lon="5.93567">
        <ele>1939.9</ele>
        <time>2021-02-20T08:07:06Z</time>
      </trkpt>
      <trkpt lat="45.17292" lon="5.93568">
        <ele>1939.9</ele>
        <time>2021-02-20T08:07:07Z</time>
      </trkpt>
      <trkpt lat="45.17292" lon="5.93567">
        <ele>1939.9</ele>
        <time>2021-02-20T08:07:08Z</time>
      </trkpt>
      <trkpt lat="45.17293" lon="5.93567">
        <ele>1939.8</ele>
        <time>2021-02-20T08:07:09Z</time>
      </trkpt>
      <trkpt lat="45.17293" lon="5.93567">
        <ele>1938.7</ele>
        <time>2021-02-20T08:07:10Z</time>
      </trkpt>
      <trkpt lat="45.17294" lon="5.93568">
        <ele>1938.7</ele>
        <time>2021-02-20T08:07:11Z</time>
      </trkpt>
      <trkpt lat="45.17294" lon="5.93568">
        <ele>1938.7</ele>
        <time>2021-02-20T08:07:12Z</time>
      </trkpt>
      <trkpt lat="45.17294" lon="5.93568">
        <ele>1938.7</ele>
        <time>2021-02-20T08:07:13Z</time>
      </trkpt>
      <trkpt lat="45.17295" lon="5.93569">
        <ele>1938.6</ele>
        <time>2021-02-20T08:07:14Z</time>
      </trkpt>
      <trkpt lat="45.17295" lon="5.93569">
        <ele>1938.6</ele>
        <time>2021-02-20T08:07:15Z</time>
      </trkpt>
      <trkpt lat="45.17296" lon="5.93569">
        <ele>1938.6</ele>
        <time>2021-02-20T08:07:16Z</time>
      </trkpt>
      <trkpt lat="45.17297" lon="5.93569">
        <ele>1937.5</ele>
        <time>2021-02-20T08:07:17Z</time>
      </trkpt>
      <trkpt lat="45.17297" lon="5.9357">
        <ele>1937.5</ele>
        <time>2021-02-20T08:07:18Z</time>
      </trkpt>
      <trkpt lat="45.17298" lon="5.93571">
        <ele>1937.5</ele>
        <time>2021-02-20T08:07:19Z</time>
      </trkpt>
      <trkpt lat="45.17298" lon="5.93571">
        <ele>1938.6</ele>
        <time>2021-02-20T08:07:20Z</time>
      </trkpt>
      <trkpt lat="45.17298" lon="5.93572">
        <ele>1938.6</ele>
        <time>2021-02-20T08:07:21Z</time>
      </trkpt>
      <trkpt lat="45.17299" lon="5.93573">
        <ele>1938.6</ele>
        <time>2021-02-20T08:07:22Z</time>
      </trkpt>
      <trkpt lat="45.17299" lon="5.93574">
        <ele>1938.5</ele>
        <time>2021-02-20T08:07:23Z</time>
      </trkpt>
      <trkpt lat="45.17299" lon="5.93575">
        <ele>1938.6</ele>
        <time>2021-02-20T08:07:24Z</time>
      </trkpt>
      <trkpt lat="45.173" lon="5.93576">
        <ele>1938.6</ele>
        <time>2021-02-20T08:07:25Z</time>
      </trkpt>
      <trkpt lat="45.173" lon="5.93577">
        <ele>1938.6</ele>
        <time>2021-02-20T08:07:26Z</time>
      </trkpt>
      <trkpt lat="45.173" lon="5.93578">
        <ele>1938.6</ele>
        <time>2021-02-20T08:07:27Z</time>
      </trkpt>
      <trkpt lat="45.17301" lon="5.93579">
        <ele>1939.8</ele>
        <time>2021-02-20T08:07:28Z</time>
      </trkpt>
      <trkpt lat="45.17301" lon="5.9358">
        <ele>1939.8</ele>
        <time>2021-02-20T08:07:29Z</time>
      </trkpt>
      <trkpt lat="45.17301" lon="5.93582">
        <ele>1939.8</ele>
        <time>2021-02-20T08:07:30Z</time>
      </trkpt>
      <trkpt lat="45.17301" lon="5.93582">
        <ele>1939.7</ele>
        <time>2021-02-20T08:07:31Z</time>
      </trkpt>
      <trkpt lat="45.17302" lon="5.93583">
        <ele>1939.7</ele>
        <time>2021-02-20T08:07:32Z</time>
      </trkpt>
      <trkpt lat="45.17302" lon="5.93584">
        <ele>1941</ele>
        <time>2021-02-20T08:07:33Z</time>
      </trkpt>
      <trkpt lat="45.17302" lon="5.93585">
        <ele>1941</ele>
        <time>2021-02-20T08:07:34Z</time>
      </trkpt>
      <trkpt lat="45.17302" lon="5.93585">
        <ele>1941</ele>
        <time>2021-02-20T08:07:35Z</time>
      </trkpt>
      <trkpt lat="45.17302" lon="5.93585">
        <ele>1941</ele>
        <time>2021-02-20T08:07:36Z</time>
      </trkpt>
      <trkpt lat="45.17302" lon="5.93586">
        <ele>1940.9</ele>
        <time>2021-02-20T08:07:37Z</time>
      </trkpt>
      <trkpt lat="45.17301" lon="5.93586">
        <ele>1940.9</ele>
        <time>2021-02-20T08:07:38Z</time>
      </trkpt>
      <trkpt lat="45.17301" lon="5.93587">
        <ele>1940.9</ele>
        <time>2021-02-20T08:07:39Z</time>
      </trkpt>
      <trkpt lat="45.17301" lon="5.93588">
        <ele>1942.2</ele>
        <time>2021-02-20T08:07:40Z</time>
      </trkpt>
      <trkpt lat="45.17301" lon="5.93589">
        <ele>1942.2</ele>
        <time>2021-02-20T08:07:41Z</time>
      </trkpt>
      <trkpt lat="45.17301" lon="5.9359">
        <ele>1942.2</ele>
        <time>2021-02-20T08:07:42Z</time>
      </trkpt>
      <trkpt lat="45.17301" lon="5.93591">
        <ele>1942.2</ele>
        <time>2021-02-20T08:07:43Z</time>
      </trkpt>
      <trkpt lat="45.17301" lon="5.93592">
        <ele>1943.5</ele>
        <time>2021-02-20T08:07:44Z</time>
      </trkpt>
      <trkpt lat="45.17301" lon="5.93593">
        <ele>1943.5</ele>
        <time>2021-02-20T08:07:45Z</time>
      </trkpt>
      <trkpt lat="45.17301" lon="5.93594">
        <ele>1943.5</ele>
        <time>2021-02-20T08:07:46Z</time>
      </trkpt>
      <trkpt lat="45.17301" lon="5.93596">
        <ele>1943.5</ele>
        <time>2021-02-20T08:07:47Z</time>
      </trkpt>
      <trkpt lat="45.17301" lon="5.93597">
        <ele>1944.8</ele>
        <time>2021-02-20T08:07:48Z</time>
      </trkpt>
      <trkpt lat="45.17301" lon="5.93597">
        <ele>1944.7</ele>
        <time>2021-02-20T08:07:49Z</time>
      </trkpt>
      <trkpt lat="45.17301" lon="5.93598">
        <ele>1944.7</ele>
        <time>2021-02-20T08:07:50Z</time>
      </trkpt>
      <trkpt lat="45.17302" lon="5.93599">
        <ele>1944.7</ele>
        <time>2021-02-20T08:07:51Z</time>
      </trkpt>
      <trkpt lat="45.17302" lon="5.93599">
        <ele>1944.7</ele>
        <time>2021-02-20T08:07:52Z</time>
      </trkpt>
      <trkpt lat="45.17302" lon="5.93601">
        <ele>1944.7</ele>
        <time>2021-02-20T08:07:53Z</time>
      </trkpt>
      <trkpt lat="45.17302" lon="5.93601">
        <ele>1946</ele>
        <time>2021-02-20T08:07:54Z</time>
      </trkpt>
      <trkpt lat="45.17302" lon="5.93602">
        <ele>1945.9</ele>
        <time>2021-02-20T08:07:55Z</time>
      </trkpt>
      <trkpt lat="45.17302" lon="5.93603">
        <ele>1945.9</ele>
        <time>2021-02-20T08:07:56Z</time>
      </trkpt>
      <trkpt lat="45.17303" lon="5.93604">
        <ele>1945</ele>
        <time>2021-02-20T08:07:57Z</time>
      </trkpt>
      <trkpt lat="45.17303" lon="5.93604">
        <ele>1945</ele>
        <time>2021-02-20T08:07:58Z</time>
      </trkpt>
      <trkpt lat="45.17303" lon="5.93604">
        <ele>1944.9</ele>
        <time>2021-02-20T08:07:59Z</time>
      </trkpt>
      <trkpt lat="45.17304" lon="5.93605">
        <ele>1944.9</ele>
        <time>2021-02-20T08:08:00Z</time>
      </trkpt>
      <trkpt lat="45.17304" lon="5.93605">
        <ele>1944.9</ele>
        <time>2021-02-20T08:08:01Z</time>
      </trkpt>
      <trkpt lat="45.17304" lon="5.93606">
        <ele>1946.2</ele>
        <time>2021-02-20T08:08:02Z</time>
      </trkpt>
      <trkpt lat="45.17304" lon="5.93607">
        <ele>1946.2</ele>
        <time>2021-02-20T08:08:03Z</time>
      </trkpt>
      <trkpt lat="45.17304" lon="5.93608">
        <ele>1946.2</ele>
        <time>2021-02-20T08:08:04Z</time>
      </trkpt>
      <trkpt lat="45.17304" lon="5.93608">
        <ele>1946.2</ele>
        <time>2021-02-20T08:08:05Z</time>
      </trkpt>
      <trkpt lat="45.17303" lon="5.93608">
        <ele>1946.1</ele>
        <time>2021-02-20T08:08:06Z</time>
      </trkpt>
      <trkpt lat="45.17302" lon="5.93609">
        <ele>1946.1</ele>
        <time>2021-02-20T08:08:07Z</time>
      </trkpt>
      <trkpt lat="45.17302" lon="5.93609">
        <ele>1947</ele>
        <time>2021-02-20T08:08:08Z</time>
      </trkpt>
      <trkpt lat="45.17301" lon="5.93609">
        <ele>1948.3</ele>
        <time>2021-02-20T08:08:09Z</time>
      </trkpt>
      <trkpt lat="45.173" lon="5.9361">
        <ele>1948.3</ele>
        <time>2021-02-20T08:08:10Z</time>
      </trkpt>
      <trkpt lat="45.17299" lon="5.9361">
        <ele>1949.1</ele>
        <time>2021-02-20T08:08:11Z</time>
      </trkpt>
      <trkpt lat="45.17298" lon="5.9361">
        <ele>1949.1</ele>
        <time>2021-02-20T08:08:12Z</time>
      </trkpt>
      <trkpt lat="45.17297" lon="5.93611">
        <ele>1949.1</ele>
        <time>2021-02-20T08:08:13Z</time>
      </trkpt>
      <trkpt lat="45.17296" lon="5.93611">
        <ele>1949.1</ele>
        <time>2021-02-20T08:08:14Z</time>
      </trkpt>
      <trkpt lat="45.17295" lon="5.93612">
        <ele>1950</ele>
        <time>2021-02-20T08:08:15Z</time>
      </trkpt>
      <trkpt lat="45.17295" lon="5.93612">
        <ele>1950</ele>
        <time>2021-02-20T08:08:16Z</time>
      </trkpt>
      <trkpt lat="45.17294" lon="5.93613">
        <ele>1949.9</ele>
        <time>2021-02-20T08:08:17Z</time>
      </trkpt>
      <trkpt lat="45.17293" lon="5.93613">
        <ele>1949.9</ele>
        <time>2021-02-20T08:08:18Z</time>
      </trkpt>
      <trkpt lat="45.17292" lon="5.93613">
        <ele>1950.9</ele>
        <time>2021-02-20T08:08:19Z</time>
      </trkpt>
      <trkpt lat="45.17292" lon="5.93613">
        <ele>1950.8</ele>
        <time>2021-02-20T08:08:20Z</time>
      </trkpt>
      <trkpt lat="45.17291" lon="5.93613">
        <ele>1950.8</ele>
        <time>2021-02-20T08:08:21Z</time>
      </trkpt>
      <trkpt lat="45.1729" lon="5.93614">
        <ele>1952.1</ele>
        <time>2021-02-20T08:08:22Z</time>
      </trkpt>
      <trkpt lat="45.1729" lon="5.93614">
        <ele>1953.1</ele>
        <time>2021-02-20T08:08:23Z</time>
      </trkpt>
      <trkpt lat="45.17289" lon="5.93615">
        <ele>1953</ele>
        <time>2021-02-20T08:08:24Z</time>
      </trkpt>
      <trkpt lat="45.17288" lon="5.93615">
        <ele>1953</ele>
        <time>2021-02-20T08:08:25Z</time>
      </trkpt>
      <trkpt lat="45.17288" lon="5.93616">
        <ele>1953</ele>
        <time>2021-02-20T08:08:26Z</time>
      </trkpt>
      <trkpt lat="45.17287" lon="5.93616">
        <ele>1953</ele>
        <time>2021-02-20T08:08:27Z</time>
      </trkpt>
      <trkpt lat="45.17287" lon="5.93617">
        <ele>1954</ele>
        <time>2021-02-20T08:08:28Z</time>
      </trkpt>
      <trkpt lat="45.17286" lon="5.93618">
        <ele>1954</ele>
        <time>2021-02-20T08:08:29Z</time>
      </trkpt>
      <trkpt lat="45.17286" lon="5.93618">
        <ele>1955.2</ele>
        <time>2021-02-20T08:08:30Z</time>
      </trkpt>
      <trkpt lat="45.17285" lon="5.93619">
        <ele>1955.2</ele>
        <time>2021-02-20T08:08:31Z</time>
      </trkpt>
      <trkpt lat="45.17285" lon="5.9362">
        <ele>1955.2</ele>
        <time>2021-02-20T08:08:32Z</time>
      </trkpt>
      <trkpt lat="45.17284" lon="5.9362">
        <ele>1955.1</ele>
        <time>2021-02-20T08:08:33Z</time>
      </trkpt>
      <trkpt lat="45.17284" lon="5.93621">
        <ele>1955.1</ele>
        <time>2021-02-20T08:08:34Z</time>
      </trkpt>
      <trkpt lat="45.17284" lon="5.93622">
        <ele>1956.1</ele>
        <time>2021-02-20T08:08:35Z</time>
      </trkpt>
      <trkpt lat="45.17283" lon="5.93623">
        <ele>1957.3</ele>
        <time>2021-02-20T08:08:36Z</time>
      </trkpt>
      <trkpt lat="45.17283" lon="5.93623">
        <ele>1957.3</ele>
        <time>2021-02-20T08:08:37Z</time>
      </trkpt>
      <trkpt lat="45.17282" lon="5.93624">
        <ele>1957.3</ele>
        <time>2021-02-20T08:08:38Z</time>
      </trkpt>
      <trkpt lat="45.17281" lon="5.93625">
        <ele>1957.3</ele>
        <time>2021-02-20T08:08:39Z</time>
      </trkpt>
      <trkpt lat="45.17281" lon="5.93625">
        <ele>1958.1</ele>
        <time>2021-02-20T08:08:40Z</time>
      </trkpt>
      <trkpt lat="45.1728" lon="5.93626">
        <ele>1958.1</ele>
        <time>2021-02-20T08:08:41Z</time>
      </trkpt>
      <trkpt lat="45.1728" lon="5.93627">
        <ele>1959.3</ele>
        <time>2021-02-20T08:08:42Z</time>
      </trkpt>
      <trkpt lat="45.17279" lon="5.93628">
        <ele>1959.3</ele>
        <time>2021-02-20T08:08:43Z</time>
      </trkpt>
      <trkpt lat="45.17279" lon="5.93628">
        <ele>1959.3</ele>
        <time>2021-02-20T08:08:44Z</time>
      </trkpt>
      <trkpt lat="45.17278" lon="5.93629">
        <ele>1959.3</ele>
        <time>2021-02-20T08:08:45Z</time>
      </trkpt>
      <trkpt lat="45.17278" lon="5.9363">
        <ele>1959.9</ele>
        <time>2021-02-20T08:08:46Z</time>
      </trkpt>
      <trkpt lat="45.17277" lon="5.9363">
        <ele>1959.8</ele>
        <time>2021-02-20T08:08:47Z</time>
      </trkpt>
      <trkpt lat="45.17276" lon="5.9363">
        <ele>1959.8</ele>
        <time>2021-02-20T08:08:48Z</time>
      </trkpt>
      <trkpt lat="45.17275" lon="5.93631">
        <ele>1959.8</ele>
        <time>2021-02-20T08:08:49Z</time>
      </trkpt>
      <trkpt lat="45.17274" lon="5.93631">
        <ele>1961.5</ele>
        <time>2021-02-20T08:08:50Z</time>
      </trkpt>
      <trkpt lat="45.17273" lon="5.93631">
        <ele>1961.5</ele>
        <time>2021-02-20T08:08:51Z</time>
      </trkpt>
      <trkpt lat="45.17272" lon="5.93631">
        <ele>1961.5</ele>
        <time>2021-02-20T08:08:52Z</time>
      </trkpt>
      <trkpt lat="45.17272" lon="5.93632">
        <ele>1961.7</ele>
        <time>2021-02-20T08:08:53Z</time>
      </trkpt>
      <trkpt lat="45.17271" lon="5.93632">
        <ele>1961.7</ele>
        <time>2021-02-20T08:08:54Z</time>
      </trkpt>
      <trkpt lat="45.1727" lon="5.93632">
        <ele>1961.6</ele>
        <time>2021-02-20T08:08:55Z</time>
      </trkpt>
      <trkpt lat="45.17269" lon="5.93632">
        <ele>1961.6</ele>
        <time>2021-02-20T08:08:56Z</time>
      </trkpt>
      <trkpt lat="45.17268" lon="5.93632">
        <ele>1961.6</ele>
        <time>2021-02-20T08:08:57Z</time>
      </trkpt>
      <trkpt lat="45.17267" lon="5.93632">
        <ele>1961.6</ele>
        <time>2021-02-20T08:08:58Z</time>
      </trkpt>
      <trkpt lat="45.17266" lon="5.93633">
        <ele>1961.3</ele>
        <time>2021-02-20T08:08:59Z</time>
      </trkpt>
      <trkpt lat="45.17265" lon="5.93633">
        <ele>1961.3</ele>
        <time>2021-02-20T08:09:00Z</time>
      </trkpt>
      <trkpt lat="45.17264" lon="5.93633">
        <ele>1961.3</ele>
        <time>2021-02-20T08:09:01Z</time>
      </trkpt>
      <trkpt lat="45.17263" lon="5.93633">
        <ele>1961.3</ele>
        <time>2021-02-20T08:09:02Z</time>
      </trkpt>
      <trkpt lat="45.17262" lon="5.93634">
        <ele>1960.8</ele>
        <time>2021-02-20T08:09:03Z</time>
      </trkpt>
      <trkpt lat="45.17262" lon="5.93634">
        <ele>1960.8</ele>
        <time>2021-02-20T08:09:04Z</time>
      </trkpt>
      <trkpt lat="45.17261" lon="5.93635">
        <ele>1960.7</ele>
        <time>2021-02-20T08:09:05Z</time>
      </trkpt>
      <trkpt lat="45.1726" lon="5.93635">
        <ele>1960.1</ele>
        <time>2021-02-20T08:09:06Z</time>
      </trkpt>
      <trkpt lat="45.17259" lon="5.93635">
        <ele>1961.9</ele>
        <time>2021-02-20T08:09:07Z</time>
      </trkpt>
      <trkpt lat="45.17258" lon="5.93636">
        <ele>1961.9</ele>
        <time>2021-02-20T08:09:08Z</time>
      </trkpt>
      <trkpt lat="45.17257" lon="5.93636">
        <ele>1961.9</ele>
        <time>2021-02-20T08:09:09Z</time>
      </trkpt>
      <trkpt lat="45.17257" lon="5.93637">
        <ele>1961.3</ele>
        <time>2021-02-20T08:09:10Z</time>
      </trkpt>
      <trkpt lat="45.17256" lon="5.93637">
        <ele>1961.3</ele>
        <time>2021-02-20T08:09:11Z</time>
      </trkpt>
      <trkpt lat="45.17255" lon="5.93638">
        <ele>1961.3</ele>
        <time>2021-02-20T08:09:12Z</time>
      </trkpt>
      <trkpt lat="45.17254" lon="5.93638">
        <ele>1961.2</ele>
        <time>2021-02-20T08:09:13Z</time>
      </trkpt>
      <trkpt lat="45.17253" lon="5.93639">
        <ele>1960.5</ele>
        <time>2021-02-20T08:09:14Z</time>
      </trkpt>
      <trkpt lat="45.17253" lon="5.93639">
        <ele>1960.5</ele>
        <time>2021-02-20T08:09:15Z</time>
      </trkpt>
      <trkpt lat="45.17252" lon="5.93639">
        <ele>1960.5</ele>
        <time>2021-02-20T08:09:16Z</time>
      </trkpt>
      <trkpt lat="45.17251" lon="5.9364">
        <ele>1963</ele>
        <time>2021-02-20T08:09:17Z</time>
      </trkpt>
      <trkpt lat="45.17251" lon="5.9364">
        <ele>1962.6</ele>
        <time>2021-02-20T08:09:18Z</time>
      </trkpt>
      <trkpt lat="45.1725" lon="5.9364">
        <ele>1962.6</ele>
        <time>2021-02-20T08:09:19Z</time>
      </trkpt>
      <trkpt lat="45.17249" lon="5.93641">
        <ele>1962.5</ele>
        <time>2021-02-20T08:09:20Z</time>
      </trkpt>
      <trkpt lat="45.17248" lon="5.93641">
        <ele>1962.5</ele>
        <time>2021-02-20T08:09:21Z</time>
      </trkpt>
      <trkpt lat="45.17248" lon="5.93641">
        <ele>1962.1</ele>
        <time>2021-02-20T08:09:22Z</time>
      </trkpt>
      <trkpt lat="45.17247" lon="5.93641">
        <ele>1962.1</ele>
        <time>2021-02-20T08:09:23Z</time>
      </trkpt>
      <trkpt lat="45.17246" lon="5.93642">
        <ele>1962.1</ele>
        <time>2021-02-20T08:09:24Z</time>
      </trkpt>
      <trkpt lat="45.17245" lon="5.93642">
        <ele>1962</ele>
        <time>2021-02-20T08:09:25Z</time>
      </trkpt>
      <trkpt lat="45.17245" lon="5.93643">
        <ele>1961.6</ele>
        <time>2021-02-20T08:09:26Z</time>
      </trkpt>
      <trkpt lat="45.17244" lon="5.93643">
        <ele>1961.6</ele>
        <time>2021-02-20T08:09:27Z</time>
      </trkpt>
      <trkpt lat="45.17243" lon="5.93643">
        <ele>1961.6</ele>
        <time>2021-02-20T08:09:28Z</time>
      </trkpt>
      <trkpt lat="45.17243" lon="5.93644">
        <ele>1961.6</ele>
        <time>2021-02-20T08:09:29Z</time>
      </trkpt>
      <trkpt lat="45.17242" lon="5.93644">
        <ele>1964.9</ele>
        <time>2021-02-20T08:09:30Z</time>
      </trkpt>
      <trkpt lat="45.17241" lon="5.93644">
        <ele>1964.8</ele>
        <time>2021-02-20T08:09:31Z</time>
      </trkpt>
      <trkpt lat="45.1724" lon="5.93645">
        <ele>1964.8</ele>
        <time>2021-02-20T08:09:32Z</time>
      </trkpt>
      <trkpt lat="45.1724" lon="5.93646">
        <ele>1964.7</ele>
        <time>2021-02-20T08:09:33Z</time>
      </trkpt>
      <trkpt lat="45.17239" lon="5.93646">
        <ele>1964.7</ele>
        <time>2021-02-20T08:09:34Z</time>
      </trkpt>
      <trkpt lat="45.17238" lon="5.93647">
        <ele>1964.7</ele>
        <time>2021-02-20T08:09:35Z</time>
      </trkpt>
      <trkpt lat="45.17237" lon="5.93648">
        <ele>1964.6</ele>
        <time>2021-02-20T08:09:36Z</time>
      </trkpt>
      <trkpt lat="45.17237" lon="5.93648">
        <ele>1967.9</ele>
        <time>2021-02-20T08:09:37Z</time>
      </trkpt>
      <trkpt lat="45.17236" lon="5.93649">
        <ele>1968.1</ele>
        <time>2021-02-20T08:09:38Z</time>
      </trkpt>
      <trkpt lat="45.17235" lon="5.93649">
        <ele>1968</ele>
        <time>2021-02-20T08:09:39Z</time>
      </trkpt>
      <trkpt lat="45.17234" lon="5.9365">
        <ele>1968</ele>
        <time>2021-02-20T08:09:40Z</time>
      </trkpt>
      <trkpt lat="45.17233" lon="5.93651">
        <ele>1968</ele>
        <time>2021-02-20T08:09:41Z</time>
      </trkpt>
      <trkpt lat="45.17232" lon="5.93651">
        <ele>1968.1</ele>
        <time>2021-02-20T08:09:42Z</time>
      </trkpt>
      <trkpt lat="45.17231" lon="5.93652">
        <ele>1968.1</ele>
        <time>2021-02-20T08:09:43Z</time>
      </trkpt>
      <trkpt lat="45.1723" lon="5.93652">
        <ele>1968.1</ele>
        <time>2021-02-20T08:09:44Z</time>
      </trkpt>
      <trkpt lat="45.17229" lon="5.93653">
        <ele>1971.2</ele>
        <time>2021-02-20T08:09:45Z</time>
      </trkpt>
      <trkpt lat="45.17229" lon="5.93653">
        <ele>1971.1</ele>
        <time>2021-02-20T08:09:46Z</time>
      </trkpt>
      <trkpt lat="45.17227" lon="5.93653">
        <ele>1971.1</ele>
        <time>2021-02-20T08:09:47Z</time>
      </trkpt>
      <trkpt lat="45.17226" lon="5.93653">
        <ele>1971.3</ele>
        <time>2021-02-20T08:09:48Z</time>
      </trkpt>
      <trkpt lat="45.17225" lon="5.93653">
        <ele>1971.3</ele>
        <time>2021-02-20T08:09:49Z</time>
      </trkpt>
      <trkpt lat="45.17224" lon="5.93653">
        <ele>1971.3</ele>
        <time>2021-02-20T08:09:50Z</time>
      </trkpt>
      <trkpt lat="45.17223" lon="5.93653">
        <ele>1971.4</ele>
        <time>2021-02-20T08:09:51Z</time>
      </trkpt>
      <trkpt lat="45.17222" lon="5.93653">
        <ele>1971.4</ele>
        <time>2021-02-20T08:09:52Z</time>
      </trkpt>
      <trkpt lat="45.17221" lon="5.93653">
        <ele>1971.4</ele>
        <time>2021-02-20T08:09:53Z</time>
      </trkpt>
      <trkpt lat="45.1722" lon="5.93654">
        <ele>1971.5</ele>
        <time>2021-02-20T08:09:54Z</time>
      </trkpt>
      <trkpt lat="45.1722" lon="5.93654">
        <ele>1971.5</ele>
        <time>2021-02-20T08:09:55Z</time>
      </trkpt>
      <trkpt lat="45.17219" lon="5.93654">
        <ele>1971.5</ele>
        <time>2021-02-20T08:09:56Z</time>
      </trkpt>
      <trkpt lat="45.17218" lon="5.93655">
        <ele>1971.5</ele>
        <time>2021-02-20T08:09:57Z</time>
      </trkpt>
      <trkpt lat="45.17218" lon="5.93655">
        <ele>1971.4</ele>
        <time>2021-02-20T08:09:58Z</time>
      </trkpt>
      <trkpt lat="45.17217" lon="5.93655">
        <ele>1971.5</ele>
        <time>2021-02-20T08:09:59Z</time>
      </trkpt>
      <trkpt lat="45.17216" lon="5.93655">
        <ele>1971.5</ele>
        <time>2021-02-20T08:10:00Z</time>
      </trkpt>
      <trkpt lat="45.17215" lon="5.93656">
        <ele>1971.5</ele>
        <time>2021-02-20T08:10:01Z</time>
      </trkpt>
      <trkpt lat="45.17214" lon="5.93656">
        <ele>1971.6</ele>
        <time>2021-02-20T08:10:02Z</time>
      </trkpt>
      <trkpt lat="45.17214" lon="5.93656">
        <ele>1971.6</ele>
        <time>2021-02-20T08:10:03Z</time>
      </trkpt>
      <trkpt lat="45.17213" lon="5.93656">
        <ele>1971.5</ele>
        <time>2021-02-20T08:10:04Z</time>
      </trkpt>
      <trkpt lat="45.17212" lon="5.93657">
        <ele>1973.7</ele>
        <time>2021-02-20T08:10:05Z</time>
      </trkpt>
      <trkpt lat="45.17211" lon="5.93657">
        <ele>1973.7</ele>
        <time>2021-02-20T08:10:06Z</time>
      </trkpt>
      <trkpt lat="45.1721" lon="5.93657">
        <ele>1973.7</ele>
        <time>2021-02-20T08:10:07Z</time>
      </trkpt>
      <trkpt lat="45.1721" lon="5.93658">
        <ele>1973.7</ele>
        <time>2021-02-20T08:10:08Z</time>
      </trkpt>
      <trkpt lat="45.17209" lon="5.93658">
        <ele>1973.7</ele>
        <time>2021-02-20T08:10:09Z</time>
      </trkpt>
      <trkpt lat="45.17208" lon="5.93658">
        <ele>1973.7</ele>
        <time>2021-02-20T08:10:10Z</time>
      </trkpt>
      <trkpt lat="45.17208" lon="5.93658">
        <ele>1973.6</ele>
        <time>2021-02-20T08:10:11Z</time>
      </trkpt>
      <trkpt lat="45.17207" lon="5.93659">
        <ele>1973.6</ele>
        <time>2021-02-20T08:10:12Z</time>
      </trkpt>
      <trkpt lat="45.17206" lon="5.93659">
        <ele>1973.6</ele>
        <time>2021-02-20T08:10:13Z</time>
      </trkpt>
      <trkpt lat="45.17206" lon="5.93659">
        <ele>1973.6</ele>
        <time>2021-02-20T08:10:14Z</time>
      </trkpt>
      <trkpt lat="45.17205" lon="5.93659">
        <ele>1973.6</ele>
        <time>2021-02-20T08:10:15Z</time>
      </trkpt>
      <trkpt lat="45.17204" lon="5.9366">
        <ele>1973.5</ele>
        <time>2021-02-20T08:10:16Z</time>
      </trkpt>
      <trkpt lat="45.17203" lon="5.9366">
        <ele>1973.5</ele>
        <time>2021-02-20T08:10:17Z</time>
      </trkpt>
      <trkpt lat="45.17202" lon="5.9366">
        <ele>1973.4</ele>
        <time>2021-02-20T08:10:18Z</time>
      </trkpt>
      <trkpt lat="45.17201" lon="5.9366">
        <ele>1973.4</ele>
        <time>2021-02-20T08:10:19Z</time>
      </trkpt>
      <trkpt lat="45.17201" lon="5.9366">
        <ele>1973.4</ele>
        <time>2021-02-20T08:10:20Z</time>
      </trkpt>
      <trkpt lat="45.172" lon="5.93661">
        <ele>1973.4</ele>
        <time>2021-02-20T08:10:21Z</time>
      </trkpt>
      <trkpt lat="45.17199" lon="5.93661">
        <ele>1973.3</ele>
        <time>2021-02-20T08:10:22Z</time>
      </trkpt>
      <trkpt lat="45.17198" lon="5.93661">
        <ele>1974.8</ele>
        <time>2021-02-20T08:10:23Z</time>
      </trkpt>
      <trkpt lat="45.17197" lon="5.93662">
        <ele>1974.8</ele>
        <time>2021-02-20T08:10:24Z</time>
      </trkpt>
      <trkpt lat="45.17197" lon="5.93662">
        <ele>1974.8</ele>
        <time>2021-02-20T08:10:25Z</time>
      </trkpt>
      <trkpt lat="45.17196" lon="5.93662">
        <ele>1974.6</ele>
        <time>2021-02-20T08:10:26Z</time>
      </trkpt>
      <trkpt lat="45.17195" lon="5.93663">
        <ele>1974.6</ele>
        <time>2021-02-20T08:10:27Z</time>
      </trkpt>
      <trkpt lat="45.17194" lon="5.93663">
        <ele>1974.6</ele>
        <time>2021-02-20T08:10:28Z</time>
      </trkpt>
      <trkpt lat="45.17193" lon="5.93663">
        <ele>1974.4</ele>
        <time>2021-02-20T08:10:29Z</time>
      </trkpt>
      <trkpt lat="45.17192" lon="5.93664">
        <ele>1974.3</ele>
        <time>2021-02-20T08:10:30Z</time>
      </trkpt>
      <trkpt lat="45.17192" lon="5.93664">
        <ele>1974.3</ele>
        <time>2021-02-20T08:10:31Z</time>
      </trkpt>
      <trkpt lat="45.17191" lon="5.93665">
        <ele>1974.3</ele>
        <time>2021-02-20T08:10:32Z</time>
      </trkpt>
      <trkpt lat="45.1719" lon="5.93665">
        <ele>1975</ele>
        <time>2021-02-20T08:10:33Z</time>
      </trkpt>
      <trkpt lat="45.17189" lon="5.93666">
        <ele>1975</ele>
        <time>2021-02-20T08:10:34Z</time>
      </trkpt>
      <trkpt lat="45.17188" lon="5.93666">
        <ele>1975</ele>
        <time>2021-02-20T08:10:35Z</time>
      </trkpt>
      <trkpt lat="45.17187" lon="5.93667">
        <ele>1975</ele>
        <time>2021-02-20T08:10:36Z</time>
      </trkpt>
      <trkpt lat="45.17187" lon="5.93667">
        <ele>1974.6</ele>
        <time>2021-02-20T08:10:37Z</time>
      </trkpt>
      <trkpt lat="45.17186" lon="5.93668">
        <ele>1974.6</ele>
        <time>2021-02-20T08:10:38Z</time>
      </trkpt>
      <trkpt lat="45.17185" lon="5.93668">
        <ele>1974.6</ele>
        <time>2021-02-20T08:10:39Z</time>
      </trkpt>
      <trkpt lat="45.17184" lon="5.93669">
        <ele>1974.1</ele>
        <time>2021-02-20T08:10:40Z</time>
      </trkpt>
      <trkpt lat="45.17183" lon="5.93669">
        <ele>1974.1</ele>
        <time>2021-02-20T08:10:41Z</time>
      </trkpt>
      <trkpt lat="45.17182" lon="5.93669">
        <ele>1974.1</ele>
        <time>2021-02-20T08:10:42Z</time>
      </trkpt>
      <trkpt lat="45.17181" lon="5.93669">
        <ele>1974.1</ele>
        <time>2021-02-20T08:10:43Z</time>
      </trkpt>
      <trkpt lat="45.1718" lon="5.93669">
        <ele>1973.6</ele>
        <time>2021-02-20T08:10:44Z</time>
      </trkpt>
      <trkpt lat="45.1718" lon="5.93669">
        <ele>1973.6</ele>
        <time>2021-02-20T08:10:45Z</time>
      </trkpt>
      <trkpt lat="45.17179" lon="5.93669">
        <ele>1973.6</ele>
        <time>2021-02-20T08:10:46Z</time>
      </trkpt>
      <trkpt lat="45.17179" lon="5.93669">
        <ele>1973.6</ele>
        <time>2021-02-20T08:10:47Z</time>
      </trkpt>
      <trkpt lat="45.17178" lon="5.93669">
        <ele>1973</ele>
        <time>2021-02-20T08:10:48Z</time>
      </trkpt>
      <trkpt lat="45.17177" lon="5.9367">
        <ele>1973.7</ele>
        <time>2021-02-20T08:10:49Z</time>
      </trkpt>
      <trkpt lat="45.17176" lon="5.9367">
        <ele>1973.7</ele>
        <time>2021-02-20T08:10:50Z</time>
      </trkpt>
      <trkpt lat="45.17175" lon="5.9367">
        <ele>1973.7</ele>
        <time>2021-02-20T08:10:51Z</time>
      </trkpt>
      <trkpt lat="45.17174" lon="5.9367">
        <ele>1973.2</ele>
        <time>2021-02-20T08:10:52Z</time>
      </trkpt>
      <trkpt lat="45.17173" lon="5.93671">
        <ele>1973.2</ele>
        <time>2021-02-20T08:10:53Z</time>
      </trkpt>
      <trkpt lat="45.17173" lon="5.93671">
        <ele>1973.1</ele>
        <time>2021-02-20T08:10:54Z</time>
      </trkpt>
      <trkpt lat="45.17172" lon="5.93671">
        <ele>1972.6</ele>
        <time>2021-02-20T08:10:55Z</time>
      </trkpt>
      <trkpt lat="45.17171" lon="5.93672">
        <ele>1972.6</ele>
        <time>2021-02-20T08:10:56Z</time>
      </trkpt>
      <trkpt lat="45.1717" lon="5.93672">
        <ele>1972.5</ele>
        <time>2021-02-20T08:10:57Z</time>
      </trkpt>
      <trkpt lat="45.17169" lon="5.93673">
        <ele>1971.9</ele>
        <time>2021-02-20T08:10:58Z</time>
      </trkpt>
      <trkpt lat="45.17168" lon="5.93673">
        <ele>1971.9</ele>
        <time>2021-02-20T08:10:59Z</time>
      </trkpt>
      <trkpt lat="45.17167" lon="5.93673">
        <ele>1971.9</ele>
        <time>2021-02-20T08:11:00Z</time>
      </trkpt>
      <trkpt lat="45.17167" lon="5.93673">
        <ele>1971.9</ele>
        <time>2021-02-20T08:11:01Z</time>
      </trkpt>
      <trkpt lat="45.17166" lon="5.93674">
        <ele>1971.3</ele>
        <time>2021-02-20T08:11:02Z</time>
      </trkpt>
      <trkpt lat="45.17165" lon="5.93674">
        <ele>1972.2</ele>
        <time>2021-02-20T08:11:03Z</time>
      </trkpt>
      <trkpt lat="45.17164" lon="5.93674">
        <ele>1972.2</ele>
        <time>2021-02-20T08:11:04Z</time>
      </trkpt>
      <trkpt lat="45.17163" lon="5.93674">
        <ele>1971.6</ele>
        <time>2021-02-20T08:11:05Z</time>
      </trkpt>
      <trkpt lat="45.17162" lon="5.93674">
        <ele>1971.6</ele>
        <time>2021-02-20T08:11:06Z</time>
      </trkpt>
      <trkpt lat="45.17161" lon="5.93674">
        <ele>1970.6</ele>
        <time>2021-02-20T08:11:07Z</time>
      </trkpt>
      <trkpt lat="45.1716" lon="5.93673">
        <ele>1970.6</ele>
        <time>2021-02-20T08:11:08Z</time>
      </trkpt>
      <trkpt lat="45.1716" lon="5.93673">
        <ele>1970</ele>
        <time>2021-02-20T08:11:09Z</time>
      </trkpt>
      <trkpt lat="45.17159" lon="5.93673">
        <ele>1969.9</ele>
        <time>2021-02-20T08:11:10Z</time>
      </trkpt>
      <trkpt lat="45.17158" lon="5.93673">
        <ele>1969.9</ele>
        <time>2021-02-20T08:11:11Z</time>
      </trkpt>
      <trkpt lat="45.17157" lon="5.93673">
        <ele>1969.9</ele>
        <time>2021-02-20T08:11:12Z</time>
      </trkpt>
      <trkpt lat="45.17157" lon="5.93673">
        <ele>1969.4</ele>
        <time>2021-02-20T08:11:13Z</time>
      </trkpt>
      <trkpt lat="45.17156" lon="5.93673">
        <ele>1969.4</ele>
        <time>2021-02-20T08:11:14Z</time>
      </trkpt>
      <trkpt lat="45.17155" lon="5.93673">
        <ele>1969.3</ele>
        <time>2021-02-20T08:11:15Z</time>
      </trkpt>
      <trkpt lat="45.17154" lon="5.93673">
        <ele>1969.3</ele>
        <time>2021-02-20T08:11:16Z</time>
      </trkpt>
      <trkpt lat="45.17153" lon="5.93672">
        <ele>1968.9</ele>
        <time>2021-02-20T08:11:17Z</time>
      </trkpt>
      <trkpt lat="45.17153" lon="5.93672">
        <ele>1968.8</ele>
        <time>2021-02-20T08:11:18Z</time>
      </trkpt>
      <trkpt lat="45.17152" lon="5.93672">
        <ele>1968.8</ele>
        <time>2021-02-20T08:11:19Z</time>
      </trkpt>
      <trkpt lat="45.17151" lon="5.93673">
        <ele>1968.8</ele>
        <time>2021-02-20T08:11:20Z</time>
      </trkpt>
      <trkpt lat="45.1715" lon="5.93673">
        <ele>1968.3</ele>
        <time>2021-02-20T08:11:21Z</time>
      </trkpt>
      <trkpt lat="45.1715" lon="5.93674">
        <ele>1969.6</ele>
        <time>2021-02-20T08:11:22Z</time>
      </trkpt>
      <trkpt lat="45.17149" lon="5.93675">
        <ele>1969.5</ele>
        <time>2021-02-20T08:11:23Z</time>
      </trkpt>
      <trkpt lat="45.17148" lon="5.93675">
        <ele>1969.5</ele>
        <time>2021-02-20T08:11:24Z</time>
      </trkpt>
      <trkpt lat="45.17147" lon="5.93676">
        <ele>1969.1</ele>
        <time>2021-02-20T08:11:25Z</time>
      </trkpt>
      <trkpt lat="45.17146" lon="5.93676">
        <ele>1969.1</ele>
        <time>2021-02-20T08:11:26Z</time>
      </trkpt>
      <trkpt lat="45.17146" lon="5.93677">
        <ele>1969</ele>
        <time>2021-02-20T08:11:27Z</time>
      </trkpt>
      <trkpt lat="45.17145" lon="5.93677">
        <ele>1969</ele>
        <time>2021-02-20T08:11:28Z</time>
      </trkpt>
      <trkpt lat="45.17144" lon="5.93677">
        <ele>1968.5</ele>
        <time>2021-02-20T08:11:29Z</time>
      </trkpt>
      <trkpt lat="45.17144" lon="5.93677">
        <ele>1968.5</ele>
        <time>2021-02-20T08:11:30Z</time>
      </trkpt>
      <trkpt lat="45.17142" lon="5.93678">
        <ele>1968.5</ele>
        <time>2021-02-20T08:11:31Z</time>
      </trkpt>
      <trkpt lat="45.17142" lon="5.93678">
        <ele>1968.5</ele>
        <time>2021-02-20T08:11:32Z</time>
      </trkpt>
      <trkpt lat="45.17142" lon="5.93678">
        <ele>1969.3</ele>
        <time>2021-02-20T08:11:33Z</time>
      </trkpt>
      <trkpt lat="45.17141" lon="5.93678">
        <ele>1969.3</ele>
        <time>2021-02-20T08:11:34Z</time>
      </trkpt>
      <trkpt lat="45.17141" lon="5.93678">
        <ele>1969.2</ele>
        <time>2021-02-20T08:11:35Z</time>
      </trkpt>
      <trkpt lat="45.17141" lon="5.93678">
        <ele>1969.2</ele>
        <time>2021-02-20T08:11:36Z</time>
      </trkpt>
      <trkpt lat="45.1714" lon="5.93678">
        <ele>1969.2</ele>
        <time>2021-02-20T08:11:37Z</time>
      </trkpt>
      <trkpt lat="45.1714" lon="5.93678">
        <ele>1969.2</ele>
        <time>2021-02-20T08:11:38Z</time>
      </trkpt>
      <trkpt lat="45.1714" lon="5.93679">
        <ele>1969.2</ele>
        <time>2021-02-20T08:11:39Z</time>
      </trkpt>
      <trkpt lat="45.17139" lon="5.93679">
        <ele>1969.1</ele>
        <time>2021-02-20T08:11:40Z</time>
      </trkpt>
      <trkpt lat="45.17139" lon="5.93679">
        <ele>1968.6</ele>
        <time>2021-02-20T08:11:41Z</time>
      </trkpt>
      <trkpt lat="45.17138" lon="5.93679">
        <ele>1968.6</ele>
        <time>2021-02-20T08:11:42Z</time>
      </trkpt>
      <trkpt lat="45.17138" lon="5.93679">
        <ele>1968.5</ele>
        <time>2021-02-20T08:12:59Z</time>
      </trkpt>
      <trkpt lat="45.17138" lon="5.93679">
        <ele>1968.5</ele>
        <time>2021-02-20T08:13:00Z</time>
      </trkpt>
      <trkpt lat="45.17137" lon="5.93679">
        <ele>1968.5</ele>
        <time>2021-02-20T08:13:01Z</time>
      </trkpt>
      <trkpt lat="45.17136" lon="5.9368">
        <ele>1968.5</ele>
        <time>2021-02-20T08:13:02Z</time>
      </trkpt>
      <trkpt lat="45.17135" lon="5.9368">
        <ele>1968</ele>
        <time>2021-02-20T08:13:03Z</time>
      </trkpt>
      <trkpt lat="45.17134" lon="5.93681">
        <ele>1968</ele>
        <time>2021-02-20T08:13:04Z</time>
      </trkpt>
      <trkpt lat="45.17133" lon="5.93682">
        <ele>1967.9</ele>
        <time>2021-02-20T08:13:05Z</time>
      </trkpt>
      <trkpt lat="45.17132" lon="5.93682">
        <ele>1967.5</ele>
        <time>2021-02-20T08:13:06Z</time>
      </trkpt>
      <trkpt lat="45.17131" lon="5.93683">
        <ele>1968.9</ele>
        <time>2021-02-20T08:13:07Z</time>
      </trkpt>
      <trkpt lat="45.1713" lon="5.93683">
        <ele>1968.5</ele>
        <time>2021-02-20T08:13:08Z</time>
      </trkpt>
      <trkpt lat="45.17129" lon="5.93684">
        <ele>1968.5</ele>
        <time>2021-02-20T08:13:09Z</time>
      </trkpt>
      <trkpt lat="45.17128" lon="5.93684">
        <ele>1968.5</ele>
        <time>2021-02-20T08:13:10Z</time>
      </trkpt>
      <trkpt lat="45.17127" lon="5.93685">
        <ele>1968.5</ele>
        <time>2021-02-20T08:13:11Z</time>
      </trkpt>
      <trkpt lat="45.17126" lon="5.93686">
        <ele>1968.2</ele>
        <time>2021-02-20T08:13:12Z</time>
      </trkpt>
      <trkpt lat="45.17126" lon="5.93687">
        <ele>1968.1</ele>
        <time>2021-02-20T08:13:13Z</time>
      </trkpt>
      <trkpt lat="45.17124" lon="5.93688">
        <ele>1969.6</ele>
        <time>2021-02-20T08:13:14Z</time>
      </trkpt>
      <trkpt lat="45.17124" lon="5.93689">
        <ele>1969.6</ele>
        <time>2021-02-20T08:13:15Z</time>
      </trkpt>
      <trkpt lat="45.17123" lon="5.93689">
        <ele>1969.3</ele>
        <time>2021-02-20T08:13:16Z</time>
      </trkpt>
      <trkpt lat="45.17123" lon="5.9369">
        <ele>1969.2</ele>
        <time>2021-02-20T08:13:17Z</time>
      </trkpt>
      <trkpt lat="45.17121" lon="5.93691">
        <ele>1970.8</ele>
        <time>2021-02-20T08:13:18Z</time>
      </trkpt>
      <trkpt lat="45.1712" lon="5.93691">
        <ele>1970.4</ele>
        <time>2021-02-20T08:13:19Z</time>
      </trkpt>
      <trkpt lat="45.17119" lon="5.93692">
        <ele>1970.4</ele>
        <time>2021-02-20T08:13:20Z</time>
      </trkpt>
      <trkpt lat="45.17118" lon="5.93692">
        <ele>1970.3</ele>
        <time>2021-02-20T08:13:21Z</time>
      </trkpt>
      <trkpt lat="45.17117" lon="5.93692">
        <ele>1969.8</ele>
        <time>2021-02-20T08:13:22Z</time>
      </trkpt>
      <trkpt lat="45.17116" lon="5.93692">
        <ele>1969.8</ele>
        <time>2021-02-20T08:13:23Z</time>
      </trkpt>
      <trkpt lat="45.17115" lon="5.93692">
        <ele>1969.8</ele>
        <time>2021-02-20T08:13:24Z</time>
      </trkpt>
      <trkpt lat="45.17114" lon="5.93693">
        <ele>1969.2</ele>
        <time>2021-02-20T08:13:25Z</time>
      </trkpt>
      <trkpt lat="45.17113" lon="5.93693">
        <ele>1969.2</ele>
        <time>2021-02-20T08:13:26Z</time>
      </trkpt>
      <trkpt lat="45.17112" lon="5.93693">
        <ele>1969.2</ele>
        <time>2021-02-20T08:13:27Z</time>
      </trkpt>
      <trkpt lat="45.17111" lon="5.93693">
        <ele>1968.6</ele>
        <time>2021-02-20T08:13:28Z</time>
      </trkpt>
      <trkpt lat="45.1711" lon="5.93694">
        <ele>1968.5</ele>
        <time>2021-02-20T08:13:29Z</time>
      </trkpt>
      <trkpt lat="45.17109" lon="5.93694">
        <ele>1967.9</ele>
        <time>2021-02-20T08:13:30Z</time>
      </trkpt>
      <trkpt lat="45.17107" lon="5.93695">
        <ele>1967.8</ele>
        <time>2021-02-20T08:13:31Z</time>
      </trkpt>
      <trkpt lat="45.17107" lon="5.93696">
        <ele>1969.3</ele>
        <time>2021-02-20T08:13:32Z</time>
      </trkpt>
      <trkpt lat="45.17105" lon="5.93697">
        <ele>1968.6</ele>
        <time>2021-02-20T08:13:33Z</time>
      </trkpt>
      <trkpt lat="45.17104" lon="5.93697">
        <ele>1968.6</ele>
        <time>2021-02-20T08:13:34Z</time>
      </trkpt>
      <trkpt lat="45.17104" lon="5.93698">
        <ele>1968.6</ele>
        <time>2021-02-20T08:13:35Z</time>
      </trkpt>
      <trkpt lat="45.17103" lon="5.93698">
        <ele>1968.5</ele>
        <time>2021-02-20T08:13:36Z</time>
      </trkpt>
      <trkpt lat="45.17102" lon="5.93699">
        <ele>1967.8</ele>
        <time>2021-02-20T08:13:37Z</time>
      </trkpt>
      <trkpt lat="45.17101" lon="5.93699">
        <ele>1967.8</ele>
        <time>2021-02-20T08:13:38Z</time>
      </trkpt>
      <trkpt lat="45.171" lon="5.937">
        <ele>1969.5</ele>
        <time>2021-02-20T08:13:39Z</time>
      </trkpt>
      <trkpt lat="45.171" lon="5.937">
        <ele>1969.5</ele>
        <time>2021-02-20T08:13:40Z</time>
      </trkpt>
      <trkpt lat="45.17099" lon="5.937">
        <ele>1968.9</ele>
        <time>2021-02-20T08:13:41Z</time>
      </trkpt>
      <trkpt lat="45.17099" lon="5.93701">
        <ele>1968.8</ele>
        <time>2021-02-20T08:13:42Z</time>
      </trkpt>
      <trkpt lat="45.17099" lon="5.93701">
        <ele>1968.8</ele>
        <time>2021-02-20T08:13:43Z</time>
      </trkpt>
      <trkpt lat="45.17098" lon="5.93701">
        <ele>1968.8</ele>
        <time>2021-02-20T08:13:44Z</time>
      </trkpt>
      <trkpt lat="45.17098" lon="5.93702">
        <ele>1968.8</ele>
        <time>2021-02-20T08:13:45Z</time>
      </trkpt>
      <trkpt lat="45.17097" lon="5.93702">
        <ele>1968.8</ele>
        <time>2021-02-20T08:13:46Z</time>
      </trkpt>
      <trkpt lat="45.17097" lon="5.93702">
        <ele>1968.8</ele>
        <time>2021-02-20T08:13:47Z</time>
      </trkpt>
      <trkpt lat="45.17097" lon="5.93702">
        <ele>1968.7</ele>
        <time>2021-02-20T08:13:48Z</time>
      </trkpt>
      <trkpt lat="45.17096" lon="5.93703">
        <ele>1968.1</ele>
        <time>2021-02-20T08:13:49Z</time>
      </trkpt>
      <trkpt lat="45.17096" lon="5.93703">
        <ele>1968.1</ele>
        <time>2021-02-20T08:13:50Z</time>
      </trkpt>
      <trkpt lat="45.17095" lon="5.93703">
        <ele>1968.1</ele>
        <time>2021-02-20T08:13:51Z</time>
      </trkpt>
      <trkpt lat="45.17095" lon="5.93704">
        <ele>1968.1</ele>
        <time>2021-02-20T08:13:52Z</time>
      </trkpt>
      <trkpt lat="45.17094" lon="5.93704">
        <ele>1970.1</ele>
        <time>2021-02-20T08:13:53Z</time>
      </trkpt>
      <trkpt lat="45.17094" lon="5.93704">
        <ele>1970.1</ele>
        <time>2021-02-20T08:13:54Z</time>
      </trkpt>
      <trkpt lat="45.17093" lon="5.93704">
        <ele>1969.7</ele>
        <time>2021-02-20T08:13:55Z</time>
      </trkpt>
      <trkpt lat="45.17092" lon="5.93704">
        <ele>1969.6</ele>
        <time>2021-02-20T08:13:56Z</time>
      </trkpt>
      <trkpt lat="45.17092" lon="5.93705">
        <ele>1969.6</ele>
        <time>2021-02-20T08:13:57Z</time>
      </trkpt>
      <trkpt lat="45.17091" lon="5.93705">
        <ele>1969.6</ele>
        <time>2021-02-20T08:13:58Z</time>
      </trkpt>
      <trkpt lat="45.17091" lon="5.93705">
        <ele>1969.6</ele>
        <time>2021-02-20T08:13:59Z</time>
      </trkpt>
      <trkpt lat="45.1709" lon="5.93705">
        <ele>1969.6</ele>
        <time>2021-02-20T08:14:00Z</time>
      </trkpt>
      <trkpt lat="45.1709" lon="5.93706">
        <ele>1969.7</ele>
        <time>2021-02-20T08:14:01Z</time>
      </trkpt>
      <trkpt lat="45.17089" lon="5.93706">
        <ele>1969.7</ele>
        <time>2021-02-20T08:14:02Z</time>
      </trkpt>
      <trkpt lat="45.17089" lon="5.93706">
        <ele>1969.7</ele>
        <time>2021-02-20T08:14:03Z</time>
      </trkpt>
      <trkpt lat="45.17089" lon="5.93707">
        <ele>1969.8</ele>
        <time>2021-02-20T08:14:04Z</time>
      </trkpt>
      <trkpt lat="45.17088" lon="5.93707">
        <ele>1969.8</ele>
        <time>2021-02-20T08:14:05Z</time>
      </trkpt>
      <trkpt lat="45.17088" lon="5.93708">
        <ele>1969.9</ele>
        <time>2021-02-20T08:14:06Z</time>
      </trkpt>
      <trkpt lat="45.17088" lon="5.93708">
        <ele>1969.9</ele>
        <time>2021-02-20T08:14:07Z</time>
      </trkpt>
      <trkpt lat="45.17087" lon="5.93708">
        <ele>1969.9</ele>
        <time>2021-02-20T08:14:08Z</time>
      </trkpt>
      <trkpt lat="45.17087" lon="5.93708">
        <ele>1970</ele>
        <time>2021-02-20T08:14:09Z</time>
      </trkpt>
      <trkpt lat="45.17086" lon="5.93709">
        <ele>1970.1</ele>
        <time>2021-02-20T08:14:10Z</time>
      </trkpt>
      <trkpt lat="45.17085" lon="5.93709">
        <ele>1970.2</ele>
        <time>2021-02-20T08:14:11Z</time>
      </trkpt>
      <trkpt lat="45.17085" lon="5.9371">
        <ele>1970.3</ele>
        <time>2021-02-20T08:14:12Z</time>
      </trkpt>
      <trkpt lat="45.17084" lon="5.9371">
        <ele>1970.4</ele>
        <time>2021-02-20T08:14:13Z</time>
      </trkpt>
      <trkpt lat="45.17083" lon="5.9371">
        <ele>1970.5</ele>
        <time>2021-02-20T08:14:14Z</time>
      </trkpt>
      <trkpt lat="45.17083" lon="5.93711">
        <ele>1970.5</ele>
        <time>2021-02-20T08:14:24Z</time>
      </trkpt>
      <trkpt lat="45.17082" lon="5.93711">
        <ele>1970.6</ele>
        <time>2021-02-20T08:14:25Z</time>
      </trkpt>
      <trkpt lat="45.17082" lon="5.93712">
        <ele>1970.7</ele>
        <time>2021-02-20T08:14:26Z</time>
      </trkpt>
      <trkpt lat="45.17081" lon="5.93712">
        <ele>1970.8</ele>
        <time>2021-02-20T08:14:27Z</time>
      </trkpt>
      <trkpt lat="45.1708" lon="5.93712">
        <ele>1970.9</ele>
        <time>2021-02-20T08:14:28Z</time>
      </trkpt>
      <trkpt lat="45.1708" lon="5.93713">
        <ele>1971.1</ele>
        <time>2021-02-20T08:14:29Z</time>
      </trkpt>
      <trkpt lat="45.17079" lon="5.93713">
        <ele>1971.2</ele>
        <time>2021-02-20T08:14:30Z</time>
      </trkpt>
      <trkpt lat="45.17079" lon="5.93713">
        <ele>1971.3</ele>
        <time>2021-02-20T08:14:31Z</time>
      </trkpt>
      <trkpt lat="45.17078" lon="5.93714">
        <ele>1971.4</ele>
        <time>2021-02-20T08:14:32Z</time>
      </trkpt>
      <trkpt lat="45.17077" lon="5.93714">
        <ele>1971.5</ele>
        <time>2021-02-20T08:14:33Z</time>
      </trkpt>
      <trkpt lat="45.17077" lon="5.93715">
        <ele>1971.6</ele>
        <time>2021-02-20T08:14:34Z</time>
      </trkpt>
      <trkpt lat="45.17076" lon="5.93715">
        <ele>1971.7</ele>
        <time>2021-02-20T08:14:35Z</time>
      </trkpt>
      <trkpt lat="45.17076" lon="5.93715">
        <ele>1971.8</ele>
        <time>2021-02-20T08:14:36Z</time>
      </trkpt>
      <trkpt lat="45.17075" lon="5.93716">
        <ele>1971.8</ele>
        <time>2021-02-20T08:14:37Z</time>
      </trkpt>
      <trkpt lat="45.17075" lon="5.93716">
        <ele>1972</ele>
        <time>2021-02-20T08:14:38Z</time>
      </trkpt>
      <trkpt lat="45.17074" lon="5.93716">
        <ele>1972.1</ele>
        <time>2021-02-20T08:14:39Z</time>
      </trkpt>
      <trkpt lat="45.17073" lon="5.93717">
        <ele>1972.3</ele>
        <time>2021-02-20T08:14:40Z</time>
      </trkpt>
      <trkpt lat="45.17072" lon="5.93717">
        <ele>1972.4</ele>
        <time>2021-02-20T08:14:41Z</time>
      </trkpt>
      <trkpt lat="45.17072" lon="5.93717">
        <ele>1972.5</ele>
        <time>2021-02-20T08:14:42Z</time>
      </trkpt>
      <trkpt lat="45.17071" lon="5.93718">
        <ele>1972.6</ele>
        <time>2021-02-20T08:14:43Z</time>
      </trkpt>
      <trkpt lat="45.1707" lon="5.93718">
        <ele>1972.8</ele>
        <time>2021-02-20T08:14:44Z</time>
      </trkpt>
      <trkpt lat="45.1707" lon="5.93718">
        <ele>1972.8</ele>
        <time>2021-02-20T08:14:45Z</time>
      </trkpt>
      <trkpt lat="45.17069" lon="5.93718">
        <ele>1972.9</ele>
        <time>2021-02-20T08:14:46Z</time>
      </trkpt>
      <trkpt lat="45.17069" lon="5.93718">
        <ele>1972.9</ele>
        <time>2021-02-20T08:14:47Z</time>
      </trkpt>
      <trkpt lat="45.17069" lon="5.93719">
        <ele>1973</ele>
        <time>2021-02-20T08:14:48Z</time>
      </trkpt>
      <trkpt lat="45.17068" lon="5.93719">
        <ele>1973.1</ele>
        <time>2021-02-20T08:14:49Z</time>
      </trkpt>
      <trkpt lat="45.17068" lon="5.9372">
        <ele>1973.3</ele>
        <time>2021-02-20T08:14:50Z</time>
      </trkpt>
      <trkpt lat="45.17067" lon="5.9372">
        <ele>1973.3</ele>
        <time>2021-02-20T08:14:51Z</time>
      </trkpt>
      <trkpt lat="45.17066" lon="5.93721">
        <ele>1973.4</ele>
        <time>2021-02-20T08:14:52Z</time>
      </trkpt>
      <trkpt lat="45.17066" lon="5.93721">
        <ele>1973.5</ele>
        <time>2021-02-20T08:14:53Z</time>
      </trkpt>
      <trkpt lat="45.17065" lon="5.93722">
        <ele>1973.6</ele>
        <time>2021-02-20T08:14:54Z</time>
      </trkpt>
      <trkpt lat="45.17065" lon="5.93722">
        <ele>1973.7</ele>
        <time>2021-02-20T08:14:55Z</time>
      </trkpt>
      <trkpt lat="45.17064" lon="5.93722">
        <ele>1973.8</ele>
        <time>2021-02-20T08:14:56Z</time>
      </trkpt>
      <trkpt lat="45.17064" lon="5.93723">
        <ele>1973.8</ele>
        <time>2021-02-20T08:14:57Z</time>
      </trkpt>
      <trkpt lat="45.17063" lon="5.93723">
        <ele>1973.9</ele>
        <time>2021-02-20T08:14:58Z</time>
      </trkpt>
      <trkpt lat="45.17062" lon="5.93724">
        <ele>1974.1</ele>
        <time>2021-02-20T08:14:59Z</time>
      </trkpt>
      <trkpt lat="45.1706" lon="5.93724">
        <ele>1974.2</ele>
        <time>2021-02-20T08:15:00Z</time>
      </trkpt>
      <trkpt lat="45.17059" lon="5.93725">
        <ele>1974.4</ele>
        <time>2021-02-20T08:15:01Z</time>
      </trkpt>
      <trkpt lat="45.17055" lon="5.93726">
        <ele>1974.7</ele>
        <time>2021-02-20T08:15:02Z</time>
      </trkpt>
      <trkpt lat="45.17054" lon="5.93726">
        <ele>1974.8</ele>
        <time>2021-02-20T08:15:03Z</time>
      </trkpt>
      <trkpt lat="45.17053" lon="5.93726">
        <ele>1974.9</ele>
        <time>2021-02-20T08:15:04Z</time>
      </trkpt>
      <trkpt lat="45.17052" lon="5.93726">
        <ele>1975</ele>
        <time>2021-02-20T08:15:05Z</time>
      </trkpt>
      <trkpt lat="45.17051" lon="5.93726">
        <ele>1975.1</ele>
        <time>2021-02-20T08:15:06Z</time>
      </trkpt>
      <trkpt lat="45.1705" lon="5.93726">
        <ele>1975.1</ele>
        <time>2021-02-20T08:15:07Z</time>
      </trkpt>
      <trkpt lat="45.17049" lon="5.93725">
        <ele>1975.2</ele>
        <time>2021-02-20T08:15:08Z</time>
      </trkpt>
      <trkpt lat="45.17048" lon="5.93725">
        <ele>1975.3</ele>
        <time>2021-02-20T08:15:09Z</time>
      </trkpt>
      <trkpt lat="45.17048" lon="5.93724">
        <ele>1975.4</ele>
        <time>2021-02-20T08:15:10Z</time>
      </trkpt>
      <trkpt lat="45.17047" lon="5.93724">
        <ele>1975.5</ele>
        <time>2021-02-20T08:15:11Z</time>
      </trkpt>
      <trkpt lat="45.17046" lon="5.93723">
        <ele>1975.5</ele>
        <time>2021-02-20T08:15:12Z</time>
      </trkpt>
      <trkpt lat="45.17045" lon="5.93723">
        <ele>1975.6</ele>
        <time>2021-02-20T08:15:13Z</time>
      </trkpt>
      <trkpt lat="45.17044" lon="5.93722">
        <ele>1975.7</ele>
        <time>2021-02-20T08:15:14Z</time>
      </trkpt>
      <trkpt lat="45.17044" lon="5.93722">
        <ele>1975.7</ele>
        <time>2021-02-20T08:15:15Z</time>
      </trkpt>
      <trkpt lat="45.17043" lon="5.93722">
        <ele>1975.8</ele>
        <time>2021-02-20T08:15:16Z</time>
      </trkpt>
      <trkpt lat="45.17042" lon="5.93722">
        <ele>1975.9</ele>
        <time>2021-02-20T08:15:17Z</time>
      </trkpt>
      <trkpt lat="45.17041" lon="5.93722">
        <ele>1975.9</ele>
        <time>2021-02-20T08:15:18Z</time>
      </trkpt>
      <trkpt lat="45.17041" lon="5.93722">
        <ele>1976</ele>
        <time>2021-02-20T08:15:19Z</time>
      </trkpt>
      <trkpt lat="45.1704" lon="5.93722">
        <ele>1976.1</ele>
        <time>2021-02-20T08:15:20Z</time>
      </trkpt>
      <trkpt lat="45.17039" lon="5.93722">
        <ele>1976.1</ele>
        <time>2021-02-20T08:15:21Z</time>
      </trkpt>
      <trkpt lat="45.17039" lon="5.93722">
        <ele>1976.2</ele>
        <time>2021-02-20T08:15:22Z</time>
      </trkpt>
      <trkpt lat="45.17038" lon="5.93722">
        <ele>1976.3</ele>
        <time>2021-02-20T08:15:23Z</time>
      </trkpt>
      <trkpt lat="45.17037" lon="5.93722">
        <ele>1976.3</ele>
        <time>2021-02-20T08:15:24Z</time>
      </trkpt>
      <trkpt lat="45.17036" lon="5.93723">
        <ele>1976.4</ele>
        <time>2021-02-20T08:15:25Z</time>
      </trkpt>
      <trkpt lat="45.17035" lon="5.93723">
        <ele>1976.5</ele>
        <time>2021-02-20T08:15:26Z</time>
      </trkpt>
      <trkpt lat="45.17035" lon="5.93724">
        <ele>1976.6</ele>
        <time>2021-02-20T08:15:27Z</time>
      </trkpt>
      <trkpt lat="45.17034" lon="5.93724">
        <ele>1976.6</ele>
        <time>2021-02-20T08:15:28Z</time>
      </trkpt>
      <trkpt lat="45.17034" lon="5.93725">
        <ele>1976.7</ele>
        <time>2021-02-20T08:15:29Z</time>
      </trkpt>
      <trkpt lat="45.17034" lon="5.93725">
        <ele>1976.7</ele>
        <time>2021-02-20T08:15:30Z</time>
      </trkpt>
      <trkpt lat="45.17033" lon="5.93726">
        <ele>1976.8</ele>
        <time>2021-02-20T08:15:31Z</time>
      </trkpt>
      <trkpt lat="45.17032" lon="5.93726">
        <ele>1976.9</ele>
        <time>2021-02-20T08:15:32Z</time>
      </trkpt>
      <trkpt lat="45.17032" lon="5.93726">
        <ele>1977</ele>
        <time>2021-02-20T08:15:33Z</time>
      </trkpt>
      <trkpt lat="45.17031" lon="5.93726">
        <ele>1977</ele>
        <time>2021-02-20T08:15:34Z</time>
      </trkpt>
      <trkpt lat="45.1703" lon="5.93726">
        <ele>1977.1</ele>
        <time>2021-02-20T08:15:35Z</time>
      </trkpt>
      <trkpt lat="45.17029" lon="5.93727">
        <ele>1977.2</ele>
        <time>2021-02-20T08:15:36Z</time>
      </trkpt>
      <trkpt lat="45.17029" lon="5.93727">
        <ele>1977.3</ele>
        <time>2021-02-20T08:15:37Z</time>
      </trkpt>
      <trkpt lat="45.17028" lon="5.93727">
        <ele>1977.4</ele>
        <time>2021-02-20T08:15:38Z</time>
      </trkpt>
      <trkpt lat="45.17027" lon="5.93727">
        <ele>1977.5</ele>
        <time>2021-02-20T08:15:39Z</time>
      </trkpt>
      <trkpt lat="45.17026" lon="5.93727">
        <ele>1977.6</ele>
        <time>2021-02-20T08:15:40Z</time>
      </trkpt>
      <trkpt lat="45.17025" lon="5.93727">
        <ele>1977.7</ele>
        <time>2021-02-20T08:15:41Z</time>
      </trkpt>
      <trkpt lat="45.17025" lon="5.93728">
        <ele>1977.8</ele>
        <time>2021-02-20T08:15:42Z</time>
      </trkpt>
      <trkpt lat="45.17024" lon="5.93728">
        <ele>1977.9</ele>
        <time>2021-02-20T08:15:43Z</time>
      </trkpt>
      <trkpt lat="45.17023" lon="5.93728">
        <ele>1978</ele>
        <time>2021-02-20T08:15:44Z</time>
      </trkpt>
      <trkpt lat="45.17022" lon="5.93729">
        <ele>1978.1</ele>
        <time>2021-02-20T08:15:45Z</time>
      </trkpt>
      <trkpt lat="45.17021" lon="5.93729">
        <ele>1978.2</ele>
        <time>2021-02-20T08:15:46Z</time>
      </trkpt>
      <trkpt lat="45.1702" lon="5.93729">
        <ele>1978.3</ele>
        <time>2021-02-20T08:15:47Z</time>
      </trkpt>
      <trkpt lat="45.1702" lon="5.9373">
        <ele>1978.4</ele>
        <time>2021-02-20T08:15:48Z</time>
      </trkpt>
      <trkpt lat="45.17019" lon="5.9373">
        <ele>1978.5</ele>
        <time>2021-02-20T08:15:49Z</time>
      </trkpt>
      <trkpt lat="45.17018" lon="5.93731">
        <ele>1978.6</ele>
        <time>2021-02-20T08:15:50Z</time>
      </trkpt>
      <trkpt lat="45.17017" lon="5.93731">
        <ele>1978.7</ele>
        <time>2021-02-20T08:15:51Z</time>
      </trkpt>
      <trkpt lat="45.17016" lon="5.93731">
        <ele>1978.8</ele>
        <time>2021-02-20T08:15:52Z</time>
      </trkpt>
      <trkpt lat="45.17016" lon="5.93731">
        <ele>1979</ele>
        <time>2021-02-20T08:15:53Z</time>
      </trkpt>
      <trkpt lat="45.17015" lon="5.93731">
        <ele>1979.1</ele>
        <time>2021-02-20T08:15:54Z</time>
      </trkpt>
      <trkpt lat="45.17014" lon="5.93731">
        <ele>1979.2</ele>
        <time>2021-02-20T08:15:55Z</time>
      </trkpt>
      <trkpt lat="45.17013" lon="5.93732">
        <ele>1979.3</ele>
        <time>2021-02-20T08:15:56Z</time>
      </trkpt>
      <trkpt lat="45.17013" lon="5.93732">
        <ele>1979.4</ele>
        <time>2021-02-20T08:15:57Z</time>
      </trkpt>
      <trkpt lat="45.17012" lon="5.93732">
        <ele>1979.6</ele>
        <time>2021-02-20T08:15:58Z</time>
      </trkpt>
      <trkpt lat="45.17011" lon="5.93733">
        <ele>1979.7</ele>
        <time>2021-02-20T08:15:59Z</time>
      </trkpt>
      <trkpt lat="45.1701" lon="5.93733">
        <ele>1979.8</ele>
        <time>2021-02-20T08:16:00Z</time>
      </trkpt>
      <trkpt lat="45.17009" lon="5.93733">
        <ele>1980</ele>
        <time>2021-02-20T08:16:01Z</time>
      </trkpt>
      <trkpt lat="45.17008" lon="5.93733">
        <ele>1980.1</ele>
        <time>2021-02-20T08:16:02Z</time>
      </trkpt>
      <trkpt lat="45.17008" lon="5.93734">
        <ele>1980.2</ele>
        <time>2021-02-20T08:16:03Z</time>
      </trkpt>
      <trkpt lat="45.17007" lon="5.93734">
        <ele>1980.4</ele>
        <time>2021-02-20T08:16:04Z</time>
      </trkpt>
      <trkpt lat="45.17006" lon="5.93734">
        <ele>1980.5</ele>
        <time>2021-02-20T08:16:05Z</time>
      </trkpt>
      <trkpt lat="45.17005" lon="5.93734">
        <ele>1980.6</ele>
        <time>2021-02-20T08:16:06Z</time>
      </trkpt>
      <trkpt lat="45.17005" lon="5.93735">
        <ele>1980.8</ele>
        <time>2021-02-20T08:16:07Z</time>
      </trkpt>
      <trkpt lat="45.17004" lon="5.93735">
        <ele>1980.9</ele>
        <time>2021-02-20T08:16:08Z</time>
      </trkpt>
      <trkpt lat="45.17003" lon="5.93735">
        <ele>1981</ele>
        <time>2021-02-20T08:16:09Z</time>
      </trkpt>
      <trkpt lat="45.17003" lon="5.93735">
        <ele>1981.1</ele>
        <time>2021-02-20T08:16:10Z</time>
      </trkpt>
      <trkpt lat="45.17002" lon="5.93736">
        <ele>1981.2</ele>
        <time>2021-02-20T08:16:11Z</time>
      </trkpt>
      <trkpt lat="45.17001" lon="5.93736">
        <ele>1981.4</ele>
        <time>2021-02-20T08:16:12Z</time>
      </trkpt>
      <trkpt lat="45.17001" lon="5.93737">
        <ele>1981.6</ele>
        <time>2021-02-20T08:16:13Z</time>
      </trkpt>
      <trkpt lat="45.17" lon="5.93737">
        <ele>1981.8</ele>
        <time>2021-02-20T08:16:14Z</time>
      </trkpt>
      <trkpt lat="45.16999" lon="5.93737">
        <ele>1981.9</ele>
        <time>2021-02-20T08:16:15Z</time>
      </trkpt>
      <trkpt lat="45.16998" lon="5.93738">
        <ele>1982.1</ele>
        <time>2021-02-20T08:16:16Z</time>
      </trkpt>
      <trkpt lat="45.16997" lon="5.93738">
        <ele>1982.3</ele>
        <time>2021-02-20T08:16:17Z</time>
      </trkpt>
      <trkpt lat="45.16997" lon="5.93739">
        <ele>1982.5</ele>
        <time>2021-02-20T08:16:18Z</time>
      </trkpt>
      <trkpt lat="45.16996" lon="5.93739">
        <ele>1982.6</ele>
        <time>2021-02-20T08:16:19Z</time>
      </trkpt>
      <trkpt lat="45.16995" lon="5.9374">
        <ele>1982.9</ele>
        <time>2021-02-20T08:16:20Z</time>
      </trkpt>
      <trkpt lat="45.16994" lon="5.93741">
        <ele>1983.1</ele>
        <time>2021-02-20T08:16:21Z</time>
      </trkpt>
      <trkpt lat="45.16993" lon="5.93741">
        <ele>1983.2</ele>
        <time>2021-02-20T08:16:22Z</time>
      </trkpt>
      <trkpt lat="45.16993" lon="5.93741">
        <ele>1983.4</ele>
        <time>2021-02-20T08:16:23Z</time>
      </trkpt>
      <trkpt lat="45.16992" lon="5.93742">
        <ele>1983.5</ele>
        <time>2021-02-20T08:16:24Z</time>
      </trkpt>
      <trkpt lat="45.16991" lon="5.93742">
        <ele>1983.7</ele>
        <time>2021-02-20T08:16:25Z</time>
      </trkpt>
      <trkpt lat="45.1699" lon="5.93743">
        <ele>1983.9</ele>
        <time>2021-02-20T08:16:26Z</time>
      </trkpt>
      <trkpt lat="45.1699" lon="5.93743">
        <ele>1984.1</ele>
        <time>2021-02-20T08:16:27Z</time>
      </trkpt>
      <trkpt lat="45.16989" lon="5.93744">
        <ele>1984.2</ele>
        <time>2021-02-20T08:16:28Z</time>
      </trkpt>
      <trkpt lat="45.16988" lon="5.93744">
        <ele>1984.4</ele>
        <time>2021-02-20T08:16:29Z</time>
      </trkpt>
      <trkpt lat="45.16987" lon="5.93745">
        <ele>1984.6</ele>
        <time>2021-02-20T08:16:30Z</time>
      </trkpt>
      <trkpt lat="45.16986" lon="5.93745">
        <ele>1984.8</ele>
        <time>2021-02-20T08:16:31Z</time>
      </trkpt>
      <trkpt lat="45.16986" lon="5.93746">
        <ele>1984.9</ele>
        <time>2021-02-20T08:16:32Z</time>
      </trkpt>
      <trkpt lat="45.16985" lon="5.93746">
        <ele>1985.1</ele>
        <time>2021-02-20T08:16:33Z</time>
      </trkpt>
      <trkpt lat="45.16984" lon="5.93747">
        <ele>1985.3</ele>
        <time>2021-02-20T08:16:34Z</time>
      </trkpt>
      <trkpt lat="45.16984" lon="5.93747">
        <ele>1985.5</ele>
        <time>2021-02-20T08:16:35Z</time>
      </trkpt>
      <trkpt lat="45.16983" lon="5.93748">
        <ele>1985.6</ele>
        <time>2021-02-20T08:16:36Z</time>
      </trkpt>
      <trkpt lat="45.16982" lon="5.93749">
        <ele>1985.8</ele>
        <time>2021-02-20T08:16:37Z</time>
      </trkpt>
      <trkpt lat="45.16982" lon="5.93749">
        <ele>1986</ele>
        <time>2021-02-20T08:16:38Z</time>
      </trkpt>
      <trkpt lat="45.16981" lon="5.9375">
        <ele>1986.1</ele>
        <time>2021-02-20T08:16:39Z</time>
      </trkpt>
      <trkpt lat="45.1698" lon="5.9375">
        <ele>1986.2</ele>
        <time>2021-02-20T08:16:40Z</time>
      </trkpt>
      <trkpt lat="45.1698" lon="5.93751">
        <ele>1986.4</ele>
        <time>2021-02-20T08:16:41Z</time>
      </trkpt>
      <trkpt lat="45.16979" lon="5.93751">
        <ele>1986.5</ele>
        <time>2021-02-20T08:16:42Z</time>
      </trkpt>
      <trkpt lat="45.16979" lon="5.93752">
        <ele>1986.7</ele>
        <time>2021-02-20T08:16:43Z</time>
      </trkpt>
      <trkpt lat="45.16978" lon="5.93752">
        <ele>1986.9</ele>
        <time>2021-02-20T08:16:44Z</time>
      </trkpt>
      <trkpt lat="45.16977" lon="5.93752">
        <ele>1987</ele>
        <time>2021-02-20T08:16:45Z</time>
      </trkpt>
      <trkpt lat="45.16976" lon="5.93753">
        <ele>1987.1</ele>
        <time>2021-02-20T08:16:46Z</time>
      </trkpt>
      <trkpt lat="45.16976" lon="5.93754">
        <ele>1987.3</ele>
        <time>2021-02-20T08:16:47Z</time>
      </trkpt>
      <trkpt lat="45.16975" lon="5.93754">
        <ele>1987.4</ele>
        <time>2021-02-20T08:16:48Z</time>
      </trkpt>
      <trkpt lat="45.16974" lon="5.93755">
        <ele>1987.6</ele>
        <time>2021-02-20T08:16:49Z</time>
      </trkpt>
      <trkpt lat="45.16973" lon="5.93755">
        <ele>1987.8</ele>
        <time>2021-02-20T08:16:50Z</time>
      </trkpt>
      <trkpt lat="45.16973" lon="5.93755">
        <ele>1987.9</ele>
        <time>2021-02-20T08:16:51Z</time>
      </trkpt>
      <trkpt lat="45.16972" lon="5.93756">
        <ele>1988</ele>
        <time>2021-02-20T08:16:52Z</time>
      </trkpt>
      <trkpt lat="45.16971" lon="5.93756">
        <ele>1988.1</ele>
        <time>2021-02-20T08:16:53Z</time>
      </trkpt>
      <trkpt lat="45.16971" lon="5.93757">
        <ele>1988.3</ele>
        <time>2021-02-20T08:16:54Z</time>
      </trkpt>
      <trkpt lat="45.1697" lon="5.93757">
        <ele>1988.4</ele>
        <time>2021-02-20T08:16:55Z</time>
      </trkpt>
      <trkpt lat="45.16969" lon="5.93758">
        <ele>1988.6</ele>
        <time>2021-02-20T08:16:56Z</time>
      </trkpt>
      <trkpt lat="45.16968" lon="5.93758">
        <ele>1988.7</ele>
        <time>2021-02-20T08:16:57Z</time>
      </trkpt>
      <trkpt lat="45.16968" lon="5.93759">
        <ele>1988.8</ele>
        <time>2021-02-20T08:16:58Z</time>
      </trkpt>
      <trkpt lat="45.16967" lon="5.93759">
        <ele>1989</ele>
        <time>2021-02-20T08:16:59Z</time>
      </trkpt>
      <trkpt lat="45.16966" lon="5.9376">
        <ele>1989.2</ele>
        <time>2021-02-20T08:17:00Z</time>
      </trkpt>
      <trkpt lat="45.16965" lon="5.9376">
        <ele>1989.3</ele>
        <time>2021-02-20T08:17:01Z</time>
      </trkpt>
      <trkpt lat="45.16965" lon="5.93761">
        <ele>1989.4</ele>
        <time>2021-02-20T08:17:02Z</time>
      </trkpt>
      <trkpt lat="45.16964" lon="5.93761">
        <ele>1989.5</ele>
        <time>2021-02-20T08:17:03Z</time>
      </trkpt>
      <trkpt lat="45.16964" lon="5.93762">
        <ele>1989.6</ele>
        <time>2021-02-20T08:17:04Z</time>
      </trkpt>
      <trkpt lat="45.16963" lon="5.93763">
        <ele>1989.8</ele>
        <time>2021-02-20T08:17:05Z</time>
      </trkpt>
      <trkpt lat="45.16962" lon="5.93763">
        <ele>1989.9</ele>
        <time>2021-02-20T08:17:06Z</time>
      </trkpt>
      <trkpt lat="45.16961" lon="5.93764">
        <ele>1990.1</ele>
        <time>2021-02-20T08:17:07Z</time>
      </trkpt>
      <trkpt lat="45.1696" lon="5.93765">
        <ele>1990.3</ele>
        <time>2021-02-20T08:17:08Z</time>
      </trkpt>
      <trkpt lat="45.1696" lon="5.93765">
        <ele>1990.4</ele>
        <time>2021-02-20T08:17:09Z</time>
      </trkpt>
      <trkpt lat="45.16959" lon="5.93766">
        <ele>1990.5</ele>
        <time>2021-02-20T08:17:10Z</time>
      </trkpt>
      <trkpt lat="45.16958" lon="5.93766">
        <ele>1990.7</ele>
        <time>2021-02-20T08:17:11Z</time>
      </trkpt>
      <trkpt lat="45.16958" lon="5.93767">
        <ele>1990.8</ele>
        <time>2021-02-20T08:17:12Z</time>
      </trkpt>
      <trkpt lat="45.16957" lon="5.93768">
        <ele>1990.9</ele>
        <time>2021-02-20T08:17:13Z</time>
      </trkpt>
      <trkpt lat="45.16956" lon="5.93768">
        <ele>1991.1</ele>
        <time>2021-02-20T08:17:14Z</time>
      </trkpt>
      <trkpt lat="45.16956" lon="5.93769">
        <ele>1991.2</ele>
        <time>2021-02-20T08:17:15Z</time>
      </trkpt>
      <trkpt lat="45.16955" lon="5.93769">
        <ele>1991.4</ele>
        <time>2021-02-20T08:17:16Z</time>
      </trkpt>
      <trkpt lat="45.16954" lon="5.9377">
        <ele>1991.5</ele>
        <time>2021-02-20T08:17:17Z</time>
      </trkpt>
      <trkpt lat="45.16953" lon="5.93771">
        <ele>1991.6</ele>
        <time>2021-02-20T08:17:18Z</time>
      </trkpt>
      <trkpt lat="45.16953" lon="5.93771">
        <ele>1991.8</ele>
        <time>2021-02-20T08:17:19Z</time>
      </trkpt>
      <trkpt lat="45.16952" lon="5.93772">
        <ele>1991.9</ele>
        <time>2021-02-20T08:17:20Z</time>
      </trkpt>
      <trkpt lat="45.16951" lon="5.93772">
        <ele>1992</ele>
        <time>2021-02-20T08:17:21Z</time>
      </trkpt>
      <trkpt lat="45.16951" lon="5.93773">
        <ele>1992.1</ele>
        <time>2021-02-20T08:17:22Z</time>
      </trkpt>
      <trkpt lat="45.1695" lon="5.93773">
        <ele>1992.2</ele>
        <time>2021-02-20T08:17:23Z</time>
      </trkpt>
      <trkpt lat="45.1695" lon="5.93774">
        <ele>1992.3</ele>
        <time>2021-02-20T08:17:24Z</time>
      </trkpt>
      <trkpt lat="45.16949" lon="5.93774">
        <ele>1992.4</ele>
        <time>2021-02-20T08:17:25Z</time>
      </trkpt>
      <trkpt lat="45.16948" lon="5.93775">
        <ele>1992.5</ele>
        <time>2021-02-20T08:17:26Z</time>
      </trkpt>
      <trkpt lat="45.16948" lon="5.93776">
        <ele>1992.7</ele>
        <time>2021-02-20T08:17:27Z</time>
      </trkpt>
      <trkpt lat="45.16947" lon="5.93776">
        <ele>1992.8</ele>
        <time>2021-02-20T08:17:28Z</time>
      </trkpt>
      <trkpt lat="45.16946" lon="5.93777">
        <ele>1992.9</ele>
        <time>2021-02-20T08:17:29Z</time>
      </trkpt>
      <trkpt lat="45.16946" lon="5.93778">
        <ele>1993</ele>
        <time>2021-02-20T08:17:30Z</time>
      </trkpt>
      <trkpt lat="45.16946" lon="5.93778">
        <ele>1993.1</ele>
        <time>2021-02-20T08:17:31Z</time>
      </trkpt>
      <trkpt lat="45.16945" lon="5.93779">
        <ele>1993.2</ele>
        <time>2021-02-20T08:17:32Z</time>
      </trkpt>
      <trkpt lat="45.16945" lon="5.9378">
        <ele>1993.3</ele>
        <time>2021-02-20T08:17:33Z</time>
      </trkpt>
      <trkpt lat="45.16944" lon="5.9378">
        <ele>1993.4</ele>
        <time>2021-02-20T08:17:34Z</time>
      </trkpt>
      <trkpt lat="45.16943" lon="5.93781">
        <ele>1993.6</ele>
        <time>2021-02-20T08:17:35Z</time>
      </trkpt>
      <trkpt lat="45.16943" lon="5.93782">
        <ele>1993.7</ele>
        <time>2021-02-20T08:17:36Z</time>
      </trkpt>
      <trkpt lat="45.16942" lon="5.93783">
        <ele>1993.8</ele>
        <time>2021-02-20T08:17:37Z</time>
      </trkpt>
      <trkpt lat="45.16942" lon="5.93783">
        <ele>1993.9</ele>
        <time>2021-02-20T08:17:38Z</time>
      </trkpt>
      <trkpt lat="45.16941" lon="5.93785">
        <ele>1994.1</ele>
        <time>2021-02-20T08:17:39Z</time>
      </trkpt>
      <trkpt lat="45.16941" lon="5.93785">
        <ele>1994.2</ele>
        <time>2021-02-20T08:17:40Z</time>
      </trkpt>
      <trkpt lat="45.16941" lon="5.93786">
        <ele>1994.3</ele>
        <time>2021-02-20T08:17:41Z</time>
      </trkpt>
      <trkpt lat="45.1694" lon="5.93787">
        <ele>1994.4</ele>
        <time>2021-02-20T08:17:42Z</time>
      </trkpt>
      <trkpt lat="45.1694" lon="5.93787">
        <ele>1994.5</ele>
        <time>2021-02-20T08:17:43Z</time>
      </trkpt>
      <trkpt lat="45.16939" lon="5.93788">
        <ele>1994.6</ele>
        <time>2021-02-20T08:17:44Z</time>
      </trkpt>
      <trkpt lat="45.16939" lon="5.93789">
        <ele>1994.7</ele>
        <time>2021-02-20T08:17:45Z</time>
      </trkpt>
      <trkpt lat="45.16939" lon="5.9379">
        <ele>1994.8</ele>
        <time>2021-02-20T08:17:46Z</time>
      </trkpt>
      <trkpt lat="45.16938" lon="5.93791">
        <ele>1994.9</ele>
        <time>2021-02-20T08:17:47Z</time>
      </trkpt>
      <trkpt lat="45.16938" lon="5.93791">
        <ele>1995</ele>
        <time>2021-02-20T08:17:48Z</time>
      </trkpt>
      <trkpt lat="45.16938" lon="5.93792">
        <ele>1995.1</ele>
        <time>2021-02-20T08:17:49Z</time>
      </trkpt>
      <trkpt lat="45.16937" lon="5.93792">
        <ele>1995.2</ele>
        <time>2021-02-20T08:17:50Z</time>
      </trkpt>
      <trkpt lat="45.16937" lon="5.93793">
        <ele>1995.3</ele>
        <time>2021-02-20T08:17:51Z</time>
      </trkpt>
      <trkpt lat="45.16936" lon="5.93793">
        <ele>1995.4</ele>
        <time>2021-02-20T08:17:52Z</time>
      </trkpt>
      <trkpt lat="45.16936" lon="5.93794">
        <ele>1995.5</ele>
        <time>2021-02-20T08:17:53Z</time>
      </trkpt>
      <trkpt lat="45.16935" lon="5.93795">
        <ele>1995.7</ele>
        <time>2021-02-20T08:17:54Z</time>
      </trkpt>
      <trkpt lat="45.16935" lon="5.93795">
        <ele>1995.7</ele>
        <time>2021-02-20T08:17:55Z</time>
      </trkpt>
      <trkpt lat="45.16935" lon="5.93796">
        <ele>1995.8</ele>
        <time>2021-02-20T08:17:56Z</time>
      </trkpt>
      <trkpt lat="45.16935" lon="5.93796">
        <ele>1995.9</ele>
        <time>2021-02-20T08:17:57Z</time>
      </trkpt>
      <trkpt lat="45.16935" lon="5.93797">
        <ele>1995.9</ele>
        <time>2021-02-20T08:17:58Z</time>
      </trkpt>
      <trkpt lat="45.16935" lon="5.93797">
        <ele>1996</ele>
        <time>2021-02-20T08:17:59Z</time>
      </trkpt>
      <trkpt lat="45.16935" lon="5.93797">
        <ele>1996</ele>
        <time>2021-02-20T08:18:00Z</time>
      </trkpt>
      <trkpt lat="45.16934" lon="5.93798">
        <ele>1996.1</ele>
        <time>2021-02-20T08:18:01Z</time>
      </trkpt>
      <trkpt lat="45.16934" lon="5.93798">
        <ele>1996.2</ele>
        <time>2021-02-20T08:18:02Z</time>
      </trkpt>
      <trkpt lat="45.16933" lon="5.93799">
        <ele>1996.3</ele>
        <time>2021-02-20T08:18:03Z</time>
      </trkpt>
      <trkpt lat="45.16933" lon="5.93799">
        <ele>1996.4</ele>
        <time>2021-02-20T08:18:04Z</time>
      </trkpt>
      <trkpt lat="45.16933" lon="5.93799">
        <ele>1996.4</ele>
        <time>2021-02-20T08:18:05Z</time>
      </trkpt>
      <trkpt lat="45.16933" lon="5.93799">
        <ele>1996.4</ele>
        <time>2021-02-20T08:18:06Z</time>
      </trkpt>
      <trkpt lat="45.16933" lon="5.93799">
        <ele>1996.4</ele>
        <time>2021-02-20T08:18:07Z</time>
      </trkpt>
      <trkpt lat="45.16933" lon="5.93799">
        <ele>1996.4</ele>
        <time>2021-02-20T08:18:08Z</time>
      </trkpt>
      <trkpt lat="45.16933" lon="5.93799">
        <ele>1996.4</ele>
        <time>2021-02-20T08:18:09Z</time>
      </trkpt>
      <trkpt lat="45.16933" lon="5.93799">
        <ele>1996.4</ele>
        <time>2021-02-20T08:18:10Z</time>
      </trkpt>
      <trkpt lat="45.16931" lon="5.93799">
        <ele>1996.8</ele>
        <time>2021-02-20T08:18:11Z</time>
      </trkpt>
      <trkpt lat="45.1693" lon="5.93801">
        <ele>1997</ele>
        <time>2021-02-20T08:18:12Z</time>
      </trkpt>
      <trkpt lat="45.16929" lon="5.93801">
        <ele>1997.2</ele>
        <time>2021-02-20T08:18:13Z</time>
      </trkpt>
      <trkpt lat="45.16929" lon="5.93802">
        <ele>1997.3</ele>
        <time>2021-02-20T08:18:16Z</time>
      </trkpt>
      <trkpt lat="45.16928" lon="5.93803">
        <ele>1997.4</ele>
        <time>2021-02-20T08:18:17Z</time>
      </trkpt>
      <trkpt lat="45.16928" lon="5.93803">
        <ele>1997.5</ele>
        <time>2021-02-20T08:18:18Z</time>
      </trkpt>
      <trkpt lat="45.16927" lon="5.93804">
        <ele>1997.6</ele>
        <time>2021-02-20T08:18:19Z</time>
      </trkpt>
      <trkpt lat="45.16927" lon="5.93805">
        <ele>1997.7</ele>
        <time>2021-02-20T08:18:20Z</time>
      </trkpt>
      <trkpt lat="45.16926" lon="5.93805">
        <ele>1997.8</ele>
        <time>2021-02-20T08:18:21Z</time>
      </trkpt>
      <trkpt lat="45.16926" lon="5.93806">
        <ele>1998</ele>
        <time>2021-02-20T08:18:22Z</time>
      </trkpt>
      <trkpt lat="45.16925" lon="5.93807">
        <ele>1998.1</ele>
        <time>2021-02-20T08:18:23Z</time>
      </trkpt>
      <trkpt lat="45.16924" lon="5.93808">
        <ele>1998.2</ele>
        <time>2021-02-20T08:18:24Z</time>
      </trkpt>
      <trkpt lat="45.16924" lon="5.93809">
        <ele>1998.4</ele>
        <time>2021-02-20T08:18:25Z</time>
      </trkpt>
      <trkpt lat="45.16923" lon="5.9381">
        <ele>1998.5</ele>
        <time>2021-02-20T08:18:26Z</time>
      </trkpt>
      <trkpt lat="45.16922" lon="5.93811">
        <ele>1998.6</ele>
        <time>2021-02-20T08:18:27Z</time>
      </trkpt>
      <trkpt lat="45.16922" lon="5.93812">
        <ele>1998.8</ele>
        <time>2021-02-20T08:18:28Z</time>
      </trkpt>
      <trkpt lat="45.16921" lon="5.93813">
        <ele>1998.9</ele>
        <time>2021-02-20T08:18:29Z</time>
      </trkpt>
      <trkpt lat="45.16921" lon="5.93814">
        <ele>1998.9</ele>
        <time>2021-02-20T08:18:30Z</time>
      </trkpt>
      <trkpt lat="45.1692" lon="5.93815">
        <ele>1999</ele>
        <time>2021-02-20T08:18:31Z</time>
      </trkpt>
      <trkpt lat="45.1692" lon="5.93816">
        <ele>1999.1</ele>
        <time>2021-02-20T08:18:32Z</time>
      </trkpt>
      <trkpt lat="45.16919" lon="5.93817">
        <ele>1999.2</ele>
        <time>2021-02-20T08:18:33Z</time>
      </trkpt>
      <trkpt lat="45.16918" lon="5.93817">
        <ele>1999.3</ele>
        <time>2021-02-20T08:18:34Z</time>
      </trkpt>
      <trkpt lat="45.16918" lon="5.93818">
        <ele>1999.4</ele>
        <time>2021-02-20T08:18:35Z</time>
      </trkpt>
      <trkpt lat="45.16917" lon="5.93819">
        <ele>1999.5</ele>
        <time>2021-02-20T08:18:36Z</time>
      </trkpt>
      <trkpt lat="45.16917" lon="5.9382">
        <ele>1999.6</ele>
        <time>2021-02-20T08:18:37Z</time>
      </trkpt>
      <trkpt lat="45.16916" lon="5.93821">
        <ele>1999.7</ele>
        <time>2021-02-20T08:18:38Z</time>
      </trkpt>
      <trkpt lat="45.16916" lon="5.93821">
        <ele>1999.7</ele>
        <time>2021-02-20T08:18:39Z</time>
      </trkpt>
      <trkpt lat="45.16915" lon="5.93822">
        <ele>1999.8</ele>
        <time>2021-02-20T08:18:40Z</time>
      </trkpt>
      <trkpt lat="45.16915" lon="5.93823">
        <ele>1999.9</ele>
        <time>2021-02-20T08:18:41Z</time>
      </trkpt>
      <trkpt lat="45.16914" lon="5.93824">
        <ele>1999.9</ele>
        <time>2021-02-20T08:18:42Z</time>
      </trkpt>
      <trkpt lat="45.16914" lon="5.93825">
        <ele>2000</ele>
        <time>2021-02-20T08:18:43Z</time>
      </trkpt>
      <trkpt lat="45.16913" lon="5.93826">
        <ele>2000.1</ele>
        <time>2021-02-20T08:18:44Z</time>
      </trkpt>
      <trkpt lat="45.16912" lon="5.93827">
        <ele>2000.2</ele>
        <time>2021-02-20T08:18:45Z</time>
      </trkpt>
      <trkpt lat="45.16912" lon="5.93828">
        <ele>2000.3</ele>
        <time>2021-02-20T08:18:46Z</time>
      </trkpt>
      <trkpt lat="45.16912" lon="5.93829">
        <ele>2000.3</ele>
        <time>2021-02-20T08:18:47Z</time>
      </trkpt>
      <trkpt lat="45.16911" lon="5.9383">
        <ele>2000.4</ele>
        <time>2021-02-20T08:18:48Z</time>
      </trkpt>
      <trkpt lat="45.16911" lon="5.93831">
        <ele>2000.5</ele>
        <time>2021-02-20T08:18:49Z</time>
      </trkpt>
      <trkpt lat="45.16911" lon="5.93832">
        <ele>2000.5</ele>
        <time>2021-02-20T08:18:50Z</time>
      </trkpt>
      <trkpt lat="45.16911" lon="5.93832">
        <ele>2000.6</ele>
        <time>2021-02-20T08:18:51Z</time>
      </trkpt>
      <trkpt lat="45.16911" lon="5.93833">
        <ele>2000.6</ele>
        <time>2021-02-20T08:18:52Z</time>
      </trkpt>
      <trkpt lat="45.1691" lon="5.93834">
        <ele>2000.7</ele>
        <time>2021-02-20T08:18:53Z</time>
      </trkpt>
      <trkpt lat="45.1691" lon="5.93835">
        <ele>2000.7</ele>
        <time>2021-02-20T08:18:54Z</time>
      </trkpt>
      <trkpt lat="45.1691" lon="5.93835">
        <ele>2000.8</ele>
        <time>2021-02-20T08:18:55Z</time>
      </trkpt>
      <trkpt lat="45.16909" lon="5.93836">
        <ele>2000.8</ele>
        <time>2021-02-20T08:18:56Z</time>
      </trkpt>
      <trkpt lat="45.16909" lon="5.93836">
        <ele>2000.9</ele>
        <time>2021-02-20T08:18:57Z</time>
      </trkpt>
      <trkpt lat="45.16908" lon="5.93837">
        <ele>2001</ele>
        <time>2021-02-20T08:18:58Z</time>
      </trkpt>
      <trkpt lat="45.16908" lon="5.93838">
        <ele>2001</ele>
        <time>2021-02-20T08:18:59Z</time>
      </trkpt>
      <trkpt lat="45.16907" lon="5.93838">
        <ele>2001.1</ele>
        <time>2021-02-20T08:19:00Z</time>
      </trkpt>
      <trkpt lat="45.16907" lon="5.93839">
        <ele>2001.2</ele>
        <time>2021-02-20T08:19:01Z</time>
      </trkpt>
      <trkpt lat="45.16906" lon="5.9384">
        <ele>2001.2</ele>
        <time>2021-02-20T08:19:02Z</time>
      </trkpt>
      <trkpt lat="45.16906" lon="5.93841">
        <ele>2001.3</ele>
        <time>2021-02-20T08:19:03Z</time>
      </trkpt>
      <trkpt lat="45.16905" lon="5.93842">
        <ele>2001.4</ele>
        <time>2021-02-20T08:19:04Z</time>
      </trkpt>
      <trkpt lat="45.16904" lon="5.93843">
        <ele>2001.5</ele>
        <time>2021-02-20T08:19:05Z</time>
      </trkpt>
      <trkpt lat="45.16904" lon="5.93843">
        <ele>2001.5</ele>
        <time>2021-02-20T08:19:06Z</time>
      </trkpt>
      <trkpt lat="45.16903" lon="5.93844">
        <ele>2001.6</ele>
        <time>2021-02-20T08:19:07Z</time>
      </trkpt>
      <trkpt lat="45.16903" lon="5.93845">
        <ele>2001.7</ele>
        <time>2021-02-20T08:19:08Z</time>
      </trkpt>
      <trkpt lat="45.16902" lon="5.93846">
        <ele>2001.7</ele>
        <time>2021-02-20T08:19:09Z</time>
      </trkpt>
      <trkpt lat="45.16902" lon="5.93847">
        <ele>2001.8</ele>
        <time>2021-02-20T08:19:10Z</time>
      </trkpt>
      <trkpt lat="45.16901" lon="5.93847">
        <ele>2001.9</ele>
        <time>2021-02-20T08:19:11Z</time>
      </trkpt>
      <trkpt lat="45.16901" lon="5.93848">
        <ele>2002</ele>
        <time>2021-02-20T08:19:12Z</time>
      </trkpt>
      <trkpt lat="45.169" lon="5.93849">
        <ele>2002</ele>
        <time>2021-02-20T08:19:13Z</time>
      </trkpt>
      <trkpt lat="45.16899" lon="5.9385">
        <ele>2002.1</ele>
        <time>2021-02-20T08:19:14Z</time>
      </trkpt>
      <trkpt lat="45.16899" lon="5.9385">
        <ele>2002.1</ele>
        <time>2021-02-20T08:19:15Z</time>
      </trkpt>
      <trkpt lat="45.16898" lon="5.93851">
        <ele>2002.2</ele>
        <time>2021-02-20T08:19:16Z</time>
      </trkpt>
      <trkpt lat="45.16898" lon="5.93852">
        <ele>2002.3</ele>
        <time>2021-02-20T08:19:17Z</time>
      </trkpt>
      <trkpt lat="45.16897" lon="5.93853">
        <ele>2002.4</ele>
        <time>2021-02-20T08:19:18Z</time>
      </trkpt>
      <trkpt lat="45.16897" lon="5.93854">
        <ele>2002.4</ele>
        <time>2021-02-20T08:19:19Z</time>
      </trkpt>
      <trkpt lat="45.16897" lon="5.93854">
        <ele>2002.5</ele>
        <time>2021-02-20T08:19:20Z</time>
      </trkpt>
      <trkpt lat="45.16897" lon="5.93855">
        <ele>2002.5</ele>
        <time>2021-02-20T08:19:21Z</time>
      </trkpt>
      <trkpt lat="45.16896" lon="5.93856">
        <ele>2002.6</ele>
        <time>2021-02-20T08:19:22Z</time>
      </trkpt>
      <trkpt lat="45.16896" lon="5.93857">
        <ele>2002.7</ele>
        <time>2021-02-20T08:19:23Z</time>
      </trkpt>
      <trkpt lat="45.16895" lon="5.93857">
        <ele>2002.7</ele>
        <time>2021-02-20T08:19:24Z</time>
      </trkpt>
      <trkpt lat="45.16895" lon="5.93858">
        <ele>2002.8</ele>
        <time>2021-02-20T08:19:25Z</time>
      </trkpt>
      <trkpt lat="45.16894" lon="5.93858">
        <ele>2002.9</ele>
        <time>2021-02-20T08:19:26Z</time>
      </trkpt>
      <trkpt lat="45.16893" lon="5.93859">
        <ele>2003</ele>
        <time>2021-02-20T08:19:27Z</time>
      </trkpt>
      <trkpt lat="45.16893" lon="5.9386">
        <ele>2003</ele>
        <time>2021-02-20T08:19:28Z</time>
      </trkpt>
      <trkpt lat="45.16892" lon="5.93861">
        <ele>2003.1</ele>
        <time>2021-02-20T08:19:29Z</time>
      </trkpt>
      <trkpt lat="45.16891" lon="5.93861">
        <ele>2003.2</ele>
        <time>2021-02-20T08:19:30Z</time>
      </trkpt>
      <trkpt lat="45.16891" lon="5.93862">
        <ele>2003.3</ele>
        <time>2021-02-20T08:19:31Z</time>
      </trkpt>
      <trkpt lat="45.1689" lon="5.93863">
        <ele>2003.4</ele>
        <time>2021-02-20T08:19:32Z</time>
      </trkpt>
      <trkpt lat="45.1689" lon="5.93864">
        <ele>2003.5</ele>
        <time>2021-02-20T08:19:33Z</time>
      </trkpt>
      <trkpt lat="45.16889" lon="5.93865">
        <ele>2003.5</ele>
        <time>2021-02-20T08:19:34Z</time>
      </trkpt>
      <trkpt lat="45.16888" lon="5.93866">
        <ele>2003.6</ele>
        <time>2021-02-20T08:19:35Z</time>
      </trkpt>
      <trkpt lat="45.16888" lon="5.93866">
        <ele>2003.7</ele>
        <time>2021-02-20T08:19:36Z</time>
      </trkpt>
      <trkpt lat="45.16887" lon="5.93867">
        <ele>2003.8</ele>
        <time>2021-02-20T08:19:37Z</time>
      </trkpt>
      <trkpt lat="45.16887" lon="5.93868">
        <ele>2003.9</ele>
        <time>2021-02-20T08:19:38Z</time>
      </trkpt>
      <trkpt lat="45.16886" lon="5.93869">
        <ele>2003.9</ele>
        <time>2021-02-20T08:19:39Z</time>
      </trkpt>
      <trkpt lat="45.16886" lon="5.9387">
        <ele>2004</ele>
        <time>2021-02-20T08:19:40Z</time>
      </trkpt>
      <trkpt lat="45.16885" lon="5.93871">
        <ele>2004.1</ele>
        <time>2021-02-20T08:19:41Z</time>
      </trkpt>
      <trkpt lat="45.16884" lon="5.93872">
        <ele>2004.2</ele>
        <time>2021-02-20T08:19:42Z</time>
      </trkpt>
      <trkpt lat="45.16884" lon="5.93873">
        <ele>2004.3</ele>
        <time>2021-02-20T08:19:43Z</time>
      </trkpt>
      <trkpt lat="45.16883" lon="5.93873">
        <ele>2004.4</ele>
        <time>2021-02-20T08:19:44Z</time>
      </trkpt>
      <trkpt lat="45.16882" lon="5.93874">
        <ele>2004.5</ele>
        <time>2021-02-20T08:19:45Z</time>
      </trkpt>
      <trkpt lat="45.16882" lon="5.93875">
        <ele>2004.6</ele>
        <time>2021-02-20T08:19:46Z</time>
      </trkpt>
      <trkpt lat="45.16881" lon="5.93876">
        <ele>2004.7</ele>
        <time>2021-02-20T08:19:47Z</time>
      </trkpt>
      <trkpt lat="45.16881" lon="5.93877">
        <ele>2004.8</ele>
        <time>2021-02-20T08:19:48Z</time>
      </trkpt>
      <trkpt lat="45.1688" lon="5.93878">
        <ele>2004.9</ele>
        <time>2021-02-20T08:19:49Z</time>
      </trkpt>
      <trkpt lat="45.16879" lon="5.93878">
        <ele>2005</ele>
        <time>2021-02-20T08:19:50Z</time>
      </trkpt>
      <trkpt lat="45.16878" lon="5.9388">
        <ele>2005.2</ele>
        <time>2021-02-20T08:19:51Z</time>
      </trkpt>
      <trkpt lat="45.16877" lon="5.9388">
        <ele>2005.3</ele>
        <time>2021-02-20T08:19:52Z</time>
      </trkpt>
      <trkpt lat="45.16877" lon="5.93881">
        <ele>2005.3</ele>
        <time>2021-02-20T08:19:53Z</time>
      </trkpt>
      <trkpt lat="45.16876" lon="5.93882">
        <ele>2005.4</ele>
        <time>2021-02-20T08:19:54Z</time>
      </trkpt>
      <trkpt lat="45.16875" lon="5.93882">
        <ele>2005.5</ele>
        <time>2021-02-20T08:19:55Z</time>
      </trkpt>
      <trkpt lat="45.16875" lon="5.93883">
        <ele>2005.6</ele>
        <time>2021-02-20T08:19:56Z</time>
      </trkpt>
      <trkpt lat="45.16874" lon="5.93884">
        <ele>2005.7</ele>
        <time>2021-02-20T08:19:57Z</time>
      </trkpt>
      <trkpt lat="45.16873" lon="5.93885">
        <ele>2005.8</ele>
        <time>2021-02-20T08:19:58Z</time>
      </trkpt>
      <trkpt lat="45.16872" lon="5.93885">
        <ele>2005.8</ele>
        <time>2021-02-20T08:19:59Z</time>
      </trkpt>
      <trkpt lat="45.16872" lon="5.93886">
        <ele>2005.9</ele>
        <time>2021-02-20T08:20:00Z</time>
      </trkpt>
      <trkpt lat="45.16871" lon="5.93887">
        <ele>2006</ele>
        <time>2021-02-20T08:20:01Z</time>
      </trkpt>
      <trkpt lat="45.1687" lon="5.93887">
        <ele>2006.1</ele>
        <time>2021-02-20T08:20:02Z</time>
      </trkpt>
      <trkpt lat="45.1687" lon="5.93888">
        <ele>2006.1</ele>
        <time>2021-02-20T08:20:03Z</time>
      </trkpt>
      <trkpt lat="45.16869" lon="5.93888">
        <ele>2006.2</ele>
        <time>2021-02-20T08:20:04Z</time>
      </trkpt>
      <trkpt lat="45.16868" lon="5.93889">
        <ele>2006.2</ele>
        <time>2021-02-20T08:20:05Z</time>
      </trkpt>
      <trkpt lat="45.16868" lon="5.9389">
        <ele>2006.3</ele>
        <time>2021-02-20T08:20:06Z</time>
      </trkpt>
      <trkpt lat="45.16867" lon="5.9389">
        <ele>2006.3</ele>
        <time>2021-02-20T08:20:07Z</time>
      </trkpt>
      <trkpt lat="45.16867" lon="5.93891">
        <ele>2006.4</ele>
        <time>2021-02-20T08:20:08Z</time>
      </trkpt>
      <trkpt lat="45.16866" lon="5.93892">
        <ele>2006.4</ele>
        <time>2021-02-20T08:20:09Z</time>
      </trkpt>
      <trkpt lat="45.16866" lon="5.93893">
        <ele>2006.5</ele>
        <time>2021-02-20T08:20:10Z</time>
      </trkpt>
      <trkpt lat="45.16865" lon="5.93893">
        <ele>2006.5</ele>
        <time>2021-02-20T08:20:11Z</time>
      </trkpt>
      <trkpt lat="45.16864" lon="5.93894">
        <ele>2006.6</ele>
        <time>2021-02-20T08:20:12Z</time>
      </trkpt>
      <trkpt lat="45.16864" lon="5.93895">
        <ele>2006.7</ele>
        <time>2021-02-20T08:20:13Z</time>
      </trkpt>
      <trkpt lat="45.16863" lon="5.93896">
        <ele>2006.7</ele>
        <time>2021-02-20T08:20:14Z</time>
      </trkpt>
      <trkpt lat="45.16863" lon="5.93897">
        <ele>2006.8</ele>
        <time>2021-02-20T08:20:15Z</time>
      </trkpt>
      <trkpt lat="45.16862" lon="5.93898">
        <ele>2006.9</ele>
        <time>2021-02-20T08:20:16Z</time>
      </trkpt>
      <trkpt lat="45.16862" lon="5.93899">
        <ele>2007</ele>
        <time>2021-02-20T08:20:17Z</time>
      </trkpt>
      <trkpt lat="45.16861" lon="5.939">
        <ele>2007</ele>
        <time>2021-02-20T08:20:18Z</time>
      </trkpt>
      <trkpt lat="45.16861" lon="5.93901">
        <ele>2007.1</ele>
        <time>2021-02-20T08:20:19Z</time>
      </trkpt>
      <trkpt lat="45.1686" lon="5.93902">
        <ele>2007.2</ele>
        <time>2021-02-20T08:20:20Z</time>
      </trkpt>
      <trkpt lat="45.16859" lon="5.93902">
        <ele>2007.3</ele>
        <time>2021-02-20T08:20:21Z</time>
      </trkpt>
      <trkpt lat="45.16859" lon="5.93903">
        <ele>2007.4</ele>
        <time>2021-02-20T08:20:22Z</time>
      </trkpt>
      <trkpt lat="45.16858" lon="5.93904">
        <ele>2007.5</ele>
        <time>2021-02-20T08:20:23Z</time>
      </trkpt>
      <trkpt lat="45.16857" lon="5.93905">
        <ele>2007.5</ele>
        <time>2021-02-20T08:20:24Z</time>
      </trkpt>
      <trkpt lat="45.16857" lon="5.93905">
        <ele>2007.6</ele>
        <time>2021-02-20T08:20:25Z</time>
      </trkpt>
      <trkpt lat="45.16856" lon="5.93906">
        <ele>2007.7</ele>
        <time>2021-02-20T08:20:26Z</time>
      </trkpt>
      <trkpt lat="45.16856" lon="5.93907">
        <ele>2007.8</ele>
        <time>2021-02-20T08:20:27Z</time>
      </trkpt>
      <trkpt lat="45.16855" lon="5.93907">
        <ele>2007.9</ele>
        <time>2021-02-20T08:20:28Z</time>
      </trkpt>
      <trkpt lat="45.16854" lon="5.93908">
        <ele>2008</ele>
        <time>2021-02-20T08:20:29Z</time>
      </trkpt>
      <trkpt lat="45.16854" lon="5.93909">
        <ele>2008.2</ele>
        <time>2021-02-20T08:20:30Z</time>
      </trkpt>
      <trkpt lat="45.16853" lon="5.9391">
        <ele>2008.3</ele>
        <time>2021-02-20T08:20:31Z</time>
      </trkpt>
      <trkpt lat="45.16853" lon="5.9391">
        <ele>2008.4</ele>
        <time>2021-02-20T08:20:32Z</time>
      </trkpt>
      <trkpt lat="45.16852" lon="5.93911">
        <ele>2008.5</ele>
        <time>2021-02-20T08:20:33Z</time>
      </trkpt>
      <trkpt lat="45.16851" lon="5.93912">
        <ele>2008.6</ele>
        <time>2021-02-20T08:20:34Z</time>
      </trkpt>
      <trkpt lat="45.1685" lon="5.93912">
        <ele>2008.8</ele>
        <time>2021-02-20T08:20:35Z</time>
      </trkpt>
      <trkpt lat="45.1685" lon="5.93913">
        <ele>2008.9</ele>
        <time>2021-02-20T08:20:36Z</time>
      </trkpt>
      <trkpt lat="45.16849" lon="5.93913">
        <ele>2009</ele>
        <time>2021-02-20T08:20:37Z</time>
      </trkpt>
      <trkpt lat="45.16849" lon="5.93914">
        <ele>2009.1</ele>
        <time>2021-02-20T08:20:38Z</time>
      </trkpt>
      <trkpt lat="45.16848" lon="5.93915">
        <ele>2009.3</ele>
        <time>2021-02-20T08:20:39Z</time>
      </trkpt>
      <trkpt lat="45.16847" lon="5.93916">
        <ele>2009.5</ele>
        <time>2021-02-20T08:20:40Z</time>
      </trkpt>
      <trkpt lat="45.16846" lon="5.93916">
        <ele>2009.6</ele>
        <time>2021-02-20T08:20:41Z</time>
      </trkpt>
      <trkpt lat="45.16846" lon="5.93917">
        <ele>2009.7</ele>
        <time>2021-02-20T08:20:42Z</time>
      </trkpt>
      <trkpt lat="45.16845" lon="5.93917">
        <ele>2009.8</ele>
        <time>2021-02-20T08:20:43Z</time>
      </trkpt>
      <trkpt lat="45.16845" lon="5.93918">
        <ele>2010</ele>
        <time>2021-02-20T08:20:44Z</time>
      </trkpt>
      <trkpt lat="45.16844" lon="5.93918">
        <ele>2010.2</ele>
        <time>2021-02-20T08:20:45Z</time>
      </trkpt>
      <trkpt lat="45.16843" lon="5.93919">
        <ele>2010.4</ele>
        <time>2021-02-20T08:20:46Z</time>
      </trkpt>
      <trkpt lat="45.16842" lon="5.93919">
        <ele>2010.5</ele>
        <time>2021-02-20T08:20:47Z</time>
      </trkpt>
      <trkpt lat="45.16841" lon="5.9392">
        <ele>2010.7</ele>
        <time>2021-02-20T08:20:48Z</time>
      </trkpt>
      <trkpt lat="45.1684" lon="5.9392">
        <ele>2010.8</ele>
        <time>2021-02-20T08:20:49Z</time>
      </trkpt>
      <trkpt lat="45.16839" lon="5.93921">
        <ele>2011</ele>
        <time>2021-02-20T08:20:50Z</time>
      </trkpt>
      <trkpt lat="45.16839" lon="5.93921">
        <ele>2011.1</ele>
        <time>2021-02-20T08:20:51Z</time>
      </trkpt>
      <trkpt lat="45.16838" lon="5.93921">
        <ele>2011.3</ele>
        <time>2021-02-20T08:20:52Z</time>
      </trkpt>
      <trkpt lat="45.16837" lon="5.93921">
        <ele>2011.5</ele>
        <time>2021-02-20T08:20:53Z</time>
      </trkpt>
      <trkpt lat="45.16836" lon="5.93922">
        <ele>2011.7</ele>
        <time>2021-02-20T08:20:54Z</time>
      </trkpt>
      <trkpt lat="45.16835" lon="5.93922">
        <ele>2011.8</ele>
        <time>2021-02-20T08:20:55Z</time>
      </trkpt>
      <trkpt lat="45.16834" lon="5.93922">
        <ele>2012</ele>
        <time>2021-02-20T08:20:56Z</time>
      </trkpt>
      <trkpt lat="45.16833" lon="5.93922">
        <ele>2012.1</ele>
        <time>2021-02-20T08:20:57Z</time>
      </trkpt>
      <trkpt lat="45.16833" lon="5.93923">
        <ele>2012.3</ele>
        <time>2021-02-20T08:20:58Z</time>
      </trkpt>
      <trkpt lat="45.16832" lon="5.93923">
        <ele>2012.4</ele>
        <time>2021-02-20T08:20:59Z</time>
      </trkpt>
      <trkpt lat="45.16831" lon="5.93923">
        <ele>2012.5</ele>
        <time>2021-02-20T08:21:00Z</time>
      </trkpt>
      <trkpt lat="45.1683" lon="5.93923">
        <ele>2012.6</ele>
        <time>2021-02-20T08:21:01Z</time>
      </trkpt>
      <trkpt lat="45.1683" lon="5.93923">
        <ele>2012.8</ele>
        <time>2021-02-20T08:21:02Z</time>
      </trkpt>
      <trkpt lat="45.16829" lon="5.93924">
        <ele>2012.8</ele>
        <time>2021-02-20T08:21:03Z</time>
      </trkpt>
      <trkpt lat="45.16829" lon="5.93924">
        <ele>2012.9</ele>
        <time>2021-02-20T08:21:04Z</time>
      </trkpt>
      <trkpt lat="45.16828" lon="5.93924">
        <ele>2013</ele>
        <time>2021-02-20T08:21:05Z</time>
      </trkpt>
      <trkpt lat="45.16828" lon="5.93924">
        <ele>2013.1</ele>
        <time>2021-02-20T08:21:06Z</time>
      </trkpt>
      <trkpt lat="45.16827" lon="5.93923">
        <ele>2013.2</ele>
        <time>2021-02-20T08:21:07Z</time>
      </trkpt>
      <trkpt lat="45.16826" lon="5.93923">
        <ele>2013.3</ele>
        <time>2021-02-20T08:21:08Z</time>
      </trkpt>
      <trkpt lat="45.16825" lon="5.93923">
        <ele>2013.4</ele>
        <time>2021-02-20T08:21:09Z</time>
      </trkpt>
      <trkpt lat="45.16824" lon="5.93923">
        <ele>2013.6</ele>
        <time>2021-02-20T08:21:10Z</time>
      </trkpt>
      <trkpt lat="45.16823" lon="5.93922">
        <ele>2013.8</ele>
        <time>2021-02-20T08:21:11Z</time>
      </trkpt>
      <trkpt lat="45.16822" lon="5.93922">
        <ele>2014</ele>
        <time>2021-02-20T08:21:12Z</time>
      </trkpt>
      <trkpt lat="45.16821" lon="5.93921">
        <ele>2014.1</ele>
        <time>2021-02-20T08:21:13Z</time>
      </trkpt>
      <trkpt lat="45.1682" lon="5.93921">
        <ele>2014.3</ele>
        <time>2021-02-20T08:21:14Z</time>
      </trkpt>
      <trkpt lat="45.16819" lon="5.93921">
        <ele>2014.5</ele>
        <time>2021-02-20T08:21:15Z</time>
      </trkpt>
      <trkpt lat="45.16818" lon="5.9392">
        <ele>2014.6</ele>
        <time>2021-02-20T08:21:16Z</time>
      </trkpt>
      <trkpt lat="45.16817" lon="5.9392">
        <ele>2014.8</ele>
        <time>2021-02-20T08:21:17Z</time>
      </trkpt>
      <trkpt lat="45.16816" lon="5.9392">
        <ele>2014.9</ele>
        <time>2021-02-20T08:21:18Z</time>
      </trkpt>
      <trkpt lat="45.16816" lon="5.93919">
        <ele>2015</ele>
        <time>2021-02-20T08:21:19Z</time>
      </trkpt>
      <trkpt lat="45.16815" lon="5.93919">
        <ele>2015.2</ele>
        <time>2021-02-20T08:21:20Z</time>
      </trkpt>
      <trkpt lat="45.16814" lon="5.93918">
        <ele>2015.3</ele>
        <time>2021-02-20T08:21:21Z</time>
      </trkpt>
      <trkpt lat="45.16813" lon="5.93918">
        <ele>2015.5</ele>
        <time>2021-02-20T08:21:22Z</time>
      </trkpt>
      <trkpt lat="45.16812" lon="5.93917">
        <ele>2015.6</ele>
        <time>2021-02-20T08:21:23Z</time>
      </trkpt>
      <trkpt lat="45.16812" lon="5.93917">
        <ele>2015.8</ele>
        <time>2021-02-20T08:21:24Z</time>
      </trkpt>
      <trkpt lat="45.16811" lon="5.93917">
        <ele>2015.9</ele>
        <time>2021-02-20T08:21:25Z</time>
      </trkpt>
      <trkpt lat="45.1681" lon="5.93916">
        <ele>2016.1</ele>
        <time>2021-02-20T08:21:26Z</time>
      </trkpt>
      <trkpt lat="45.16809" lon="5.93915">
        <ele>2016.2</ele>
        <time>2021-02-20T08:21:27Z</time>
      </trkpt>
      <trkpt lat="45.16809" lon="5.93915">
        <ele>2016.4</ele>
        <time>2021-02-20T08:21:28Z</time>
      </trkpt>
      <trkpt lat="45.16808" lon="5.93914">
        <ele>2016.6</ele>
        <time>2021-02-20T08:21:29Z</time>
      </trkpt>
      <trkpt lat="45.16807" lon="5.93913">
        <ele>2016.9</ele>
        <time>2021-02-20T08:21:30Z</time>
      </trkpt>
      <trkpt lat="45.16806" lon="5.93912">
        <ele>2017.2</ele>
        <time>2021-02-20T08:21:31Z</time>
      </trkpt>
      <trkpt lat="45.16805" lon="5.93911">
        <ele>2017.4</ele>
        <time>2021-02-20T08:21:32Z</time>
      </trkpt>
      <trkpt lat="45.16804" lon="5.9391">
        <ele>2017.6</ele>
        <time>2021-02-20T08:21:33Z</time>
      </trkpt>
      <trkpt lat="45.16803" lon="5.93909">
        <ele>2017.8</ele>
        <time>2021-02-20T08:21:34Z</time>
      </trkpt>
      <trkpt lat="45.16802" lon="5.93908">
        <ele>2018.1</ele>
        <time>2021-02-20T08:21:35Z</time>
      </trkpt>
      <trkpt lat="45.16802" lon="5.93907">
        <ele>2018.3</ele>
        <time>2021-02-20T08:21:36Z</time>
      </trkpt>
      <trkpt lat="45.16801" lon="5.93906">
        <ele>2018.5</ele>
        <time>2021-02-20T08:21:37Z</time>
      </trkpt>
      <trkpt lat="45.16801" lon="5.93905">
        <ele>2018.8</ele>
        <time>2021-02-20T08:21:38Z</time>
      </trkpt>
      <trkpt lat="45.168" lon="5.93904">
        <ele>2019.1</ele>
        <time>2021-02-20T08:21:39Z</time>
      </trkpt>
      <trkpt lat="45.16799" lon="5.93902">
        <ele>2019.4</ele>
        <time>2021-02-20T08:21:40Z</time>
      </trkpt>
      <trkpt lat="45.16798" lon="5.93902">
        <ele>2019.6</ele>
        <time>2021-02-20T08:21:41Z</time>
      </trkpt>
      <trkpt lat="45.16798" lon="5.93901">
        <ele>2019.8</ele>
        <time>2021-02-20T08:21:42Z</time>
      </trkpt>
      <trkpt lat="45.16797" lon="5.939">
        <ele>2020</ele>
        <time>2021-02-20T08:21:43Z</time>
      </trkpt>
      <trkpt lat="45.16796" lon="5.939">
        <ele>2020.2</ele>
        <time>2021-02-20T08:21:44Z</time>
      </trkpt>
      <trkpt lat="45.16795" lon="5.939">
        <ele>2020.4</ele>
        <time>2021-02-20T08:21:45Z</time>
      </trkpt>
      <trkpt lat="45.16795" lon="5.93899">
        <ele>2020.6</ele>
        <time>2021-02-20T08:21:46Z</time>
      </trkpt>
      <trkpt lat="45.16794" lon="5.93899">
        <ele>2020.8</ele>
        <time>2021-02-20T08:21:47Z</time>
      </trkpt>
      <trkpt lat="45.16793" lon="5.93899">
        <ele>2021</ele>
        <time>2021-02-20T08:21:48Z</time>
      </trkpt>
      <trkpt lat="45.16792" lon="5.93899">
        <ele>2021.2</ele>
        <time>2021-02-20T08:21:49Z</time>
      </trkpt>
      <trkpt lat="45.16792" lon="5.93899">
        <ele>2021.4</ele>
        <time>2021-02-20T08:21:50Z</time>
      </trkpt>
      <trkpt lat="45.16791" lon="5.93899">
        <ele>2021.5</ele>
        <time>2021-02-20T08:21:51Z</time>
      </trkpt>
      <trkpt lat="45.16791" lon="5.93898">
        <ele>2021.6</ele>
        <time>2021-02-20T08:21:52Z</time>
      </trkpt>
      <trkpt lat="45.1679" lon="5.93898">
        <ele>2021.8</ele>
        <time>2021-02-20T08:21:53Z</time>
      </trkpt>
      <trkpt lat="45.1679" lon="5.93898">
        <ele>2021.8</ele>
        <time>2021-02-20T08:21:54Z</time>
      </trkpt>
      <trkpt lat="45.1679" lon="5.93898">
        <ele>2022</ele>
        <time>2021-02-20T08:21:55Z</time>
      </trkpt>
      <trkpt lat="45.16789" lon="5.93898">
        <ele>2022.1</ele>
        <time>2021-02-20T08:21:56Z</time>
      </trkpt>
      <trkpt lat="45.16788" lon="5.93898">
        <ele>2022.3</ele>
        <time>2021-02-20T08:21:57Z</time>
      </trkpt>
      <trkpt lat="45.16788" lon="5.93898">
        <ele>2022.4</ele>
        <time>2021-02-20T08:21:58Z</time>
      </trkpt>
      <trkpt lat="45.16788" lon="5.93898">
        <ele>2022.5</ele>
        <time>2021-02-20T08:21:59Z</time>
      </trkpt>
      <trkpt lat="45.16787" lon="5.93898">
        <ele>2022.6</ele>
        <time>2021-02-20T08:22:00Z</time>
      </trkpt>
      <trkpt lat="45.16787" lon="5.93898">
        <ele>2022.7</ele>
        <time>2021-02-20T08:22:01Z</time>
      </trkpt>
      <trkpt lat="45.16786" lon="5.93899">
        <ele>2022.9</ele>
        <time>2021-02-20T08:22:02Z</time>
      </trkpt>
      <trkpt lat="45.16786" lon="5.93899">
        <ele>2023</ele>
        <time>2021-02-20T08:22:03Z</time>
      </trkpt>
      <trkpt lat="45.16785" lon="5.93899">
        <ele>2023.1</ele>
        <time>2021-02-20T08:22:04Z</time>
      </trkpt>
      <trkpt lat="45.16785" lon="5.939">
        <ele>2023.2</ele>
        <time>2021-02-20T08:22:05Z</time>
      </trkpt>
      <trkpt lat="45.16784" lon="5.939">
        <ele>2023.3</ele>
        <time>2021-02-20T08:22:06Z</time>
      </trkpt>
      <trkpt lat="45.16784" lon="5.93899">
        <ele>2023.6</ele>
        <time>2021-02-20T08:22:07Z</time>
      </trkpt>
      <trkpt lat="45.16783" lon="5.93899">
        <ele>2023.8</ele>
        <time>2021-02-20T08:22:08Z</time>
      </trkpt>
      <trkpt lat="45.16782" lon="5.93899">
        <ele>2023.9</ele>
        <time>2021-02-20T08:22:09Z</time>
      </trkpt>
      <trkpt lat="45.16782" lon="5.93899">
        <ele>2024</ele>
        <time>2021-02-20T08:22:10Z</time>
      </trkpt>
      <trkpt lat="45.16781" lon="5.93899">
        <ele>2024.1</ele>
        <time>2021-02-20T08:22:11Z</time>
      </trkpt>
      <trkpt lat="45.16781" lon="5.93899">
        <ele>2024.3</ele>
        <time>2021-02-20T08:22:12Z</time>
      </trkpt>
      <trkpt lat="45.1678" lon="5.939">
        <ele>2024.4</ele>
        <time>2021-02-20T08:22:13Z</time>
      </trkpt>
      <trkpt lat="45.16779" lon="5.939">
        <ele>2024.7</ele>
        <time>2021-02-20T08:22:14Z</time>
      </trkpt>
      <trkpt lat="45.16778" lon="5.939">
        <ele>2024.9</ele>
        <time>2021-02-20T08:22:15Z</time>
      </trkpt>
      <trkpt lat="45.16778" lon="5.939">
        <ele>2025</ele>
        <time>2021-02-20T08:22:16Z</time>
      </trkpt>
      <trkpt lat="45.16777" lon="5.93901">
        <ele>2025.1</ele>
        <time>2021-02-20T08:22:17Z</time>
      </trkpt>
      <trkpt lat="45.16777" lon="5.93901">
        <ele>2025.3</ele>
        <time>2021-02-20T08:22:18Z</time>
      </trkpt>
      <trkpt lat="45.16776" lon="5.93901">
        <ele>2025.5</ele>
        <time>2021-02-20T08:22:19Z</time>
      </trkpt>
      <trkpt lat="45.16776" lon="5.93902">
        <ele>2025.6</ele>
        <time>2021-02-20T08:22:20Z</time>
      </trkpt>
      <trkpt lat="45.16775" lon="5.93903">
        <ele>2025.9</ele>
        <time>2021-02-20T08:22:21Z</time>
      </trkpt>
      <trkpt lat="45.16774" lon="5.93903">
        <ele>2026</ele>
        <time>2021-02-20T08:22:22Z</time>
      </trkpt>
      <trkpt lat="45.16774" lon="5.93903">
        <ele>2026.1</ele>
        <time>2021-02-20T08:22:23Z</time>
      </trkpt>
      <trkpt lat="45.16774" lon="5.93904">
        <ele>2026.2</ele>
        <time>2021-02-20T08:22:24Z</time>
      </trkpt>
      <trkpt lat="45.16774" lon="5.93904">
        <ele>2026.3</ele>
        <time>2021-02-20T08:22:25Z</time>
      </trkpt>
      <trkpt lat="45.16773" lon="5.93904">
        <ele>2026.4</ele>
        <time>2021-02-20T08:22:26Z</time>
      </trkpt>
      <trkpt lat="45.16773" lon="5.93905">
        <ele>2026.5</ele>
        <time>2021-02-20T08:22:27Z</time>
      </trkpt>
      <trkpt lat="45.16773" lon="5.93905">
        <ele>2026.6</ele>
        <time>2021-02-20T08:22:28Z</time>
      </trkpt>
      <trkpt lat="45.16772" lon="5.93906">
        <ele>2026.7</ele>
        <time>2021-02-20T08:22:29Z</time>
      </trkpt>
      <trkpt lat="45.16772" lon="5.93906">
        <ele>2026.8</ele>
        <time>2021-02-20T08:22:30Z</time>
      </trkpt>
      <trkpt lat="45.16772" lon="5.93906">
        <ele>2026.9</ele>
        <time>2021-02-20T08:22:31Z</time>
      </trkpt>
      <trkpt lat="45.16772" lon="5.93907">
        <ele>2027</ele>
        <time>2021-02-20T08:22:32Z</time>
      </trkpt>
      <trkpt lat="45.16771" lon="5.93907">
        <ele>2027.1</ele>
        <time>2021-02-20T08:22:46Z</time>
      </trkpt>
      <trkpt lat="45.16771" lon="5.93908">
        <ele>2027.2</ele>
        <time>2021-02-20T08:22:47Z</time>
      </trkpt>
      <trkpt lat="45.16771" lon="5.93908">
        <ele>2027.3</ele>
        <time>2021-02-20T08:22:48Z</time>
      </trkpt>
      <trkpt lat="45.16771" lon="5.93908">
        <ele>2027.4</ele>
        <time>2021-02-20T08:22:49Z</time>
      </trkpt>
      <trkpt lat="45.1677" lon="5.93909">
        <ele>2027.5</ele>
        <time>2021-02-20T08:22:50Z</time>
      </trkpt>
      <trkpt lat="45.1677" lon="5.9391">
        <ele>2027.8</ele>
        <time>2021-02-20T08:22:51Z</time>
      </trkpt>
      <trkpt lat="45.16769" lon="5.93911">
        <ele>2028</ele>
        <time>2021-02-20T08:22:52Z</time>
      </trkpt>
      <trkpt lat="45.16769" lon="5.93913">
        <ele>2028.3</ele>
        <time>2021-02-20T08:22:53Z</time>
      </trkpt>
      <trkpt lat="45.16769" lon="5.93914">
        <ele>2028.5</ele>
        <time>2021-02-20T08:22:54Z</time>
      </trkpt>
      <trkpt lat="45.16769" lon="5.93915">
        <ele>2028.6</ele>
        <time>2021-02-20T08:22:55Z</time>
      </trkpt>
      <trkpt lat="45.16768" lon="5.93916">
        <ele>2028.8</ele>
        <time>2021-02-20T08:22:56Z</time>
      </trkpt>
      <trkpt lat="45.16768" lon="5.93917">
        <ele>2029.1</ele>
        <time>2021-02-20T08:22:57Z</time>
      </trkpt>
      <trkpt lat="45.16768" lon="5.93918">
        <ele>2029.2</ele>
        <time>2021-02-20T08:22:58Z</time>
      </trkpt>
      <trkpt lat="45.16767" lon="5.93919">
        <ele>2029.4</ele>
        <time>2021-02-20T08:22:59Z</time>
      </trkpt>
      <trkpt lat="45.16767" lon="5.9392">
        <ele>2029.5</ele>
        <time>2021-02-20T08:23:00Z</time>
      </trkpt>
      <trkpt lat="45.16767" lon="5.9392">
        <ele>2029.7</ele>
        <time>2021-02-20T08:23:01Z</time>
      </trkpt>
      <trkpt lat="45.16766" lon="5.93921">
        <ele>2029.8</ele>
        <time>2021-02-20T08:23:02Z</time>
      </trkpt>
      <trkpt lat="45.16765" lon="5.93922">
        <ele>2030</ele>
        <time>2021-02-20T08:23:03Z</time>
      </trkpt>
      <trkpt lat="45.16765" lon="5.93923">
        <ele>2030.2</ele>
        <time>2021-02-20T08:23:04Z</time>
      </trkpt>
      <trkpt lat="45.16764" lon="5.93923">
        <ele>2030.3</ele>
        <time>2021-02-20T08:23:05Z</time>
      </trkpt>
      <trkpt lat="45.16764" lon="5.93924">
        <ele>2030.5</ele>
        <time>2021-02-20T08:23:06Z</time>
      </trkpt>
      <trkpt lat="45.16763" lon="5.93925">
        <ele>2030.6</ele>
        <time>2021-02-20T08:23:07Z</time>
      </trkpt>
      <trkpt lat="45.16762" lon="5.93926">
        <ele>2030.7</ele>
        <time>2021-02-20T08:23:08Z</time>
      </trkpt>
      <trkpt lat="45.16762" lon="5.93926">
        <ele>2030.9</ele>
        <time>2021-02-20T08:23:09Z</time>
      </trkpt>
      <trkpt lat="45.16762" lon="5.93927">
        <ele>2030.9</ele>
        <time>2021-02-20T08:23:10Z</time>
      </trkpt>
      <trkpt lat="45.16762" lon="5.93928">
        <ele>2031.1</ele>
        <time>2021-02-20T08:23:11Z</time>
      </trkpt>
      <trkpt lat="45.16761" lon="5.93929">
        <ele>2031.2</ele>
        <time>2021-02-20T08:23:12Z</time>
      </trkpt>
      <trkpt lat="45.16761" lon="5.9393">
        <ele>2031.3</ele>
        <time>2021-02-20T08:23:13Z</time>
      </trkpt>
      <trkpt lat="45.1676" lon="5.93931">
        <ele>2031.3</ele>
        <time>2021-02-20T08:23:14Z</time>
      </trkpt>
      <trkpt lat="45.1676" lon="5.93932">
        <ele>2031.4</ele>
        <time>2021-02-20T08:23:15Z</time>
      </trkpt>
      <trkpt lat="45.1676" lon="5.93933">
        <ele>2031.5</ele>
        <time>2021-02-20T08:23:16Z</time>
      </trkpt>
      <trkpt lat="45.16759" lon="5.93934">
        <ele>2031.6</ele>
        <time>2021-02-20T08:23:17Z</time>
      </trkpt>
      <trkpt lat="45.16759" lon="5.93934">
        <ele>2031.6</ele>
        <time>2021-02-20T08:23:18Z</time>
      </trkpt>
      <trkpt lat="45.16758" lon="5.93935">
        <ele>2031.7</ele>
        <time>2021-02-20T08:23:19Z</time>
      </trkpt>
      <trkpt lat="45.16758" lon="5.93936">
        <ele>2031.8</ele>
        <time>2021-02-20T08:23:20Z</time>
      </trkpt>
      <trkpt lat="45.16757" lon="5.93937">
        <ele>2031.8</ele>
        <time>2021-02-20T08:23:21Z</time>
      </trkpt>
      <trkpt lat="45.16757" lon="5.93938">
        <ele>2031.9</ele>
        <time>2021-02-20T08:23:22Z</time>
      </trkpt>
      <trkpt lat="45.16756" lon="5.9394">
        <ele>2031.9</ele>
        <time>2021-02-20T08:23:23Z</time>
      </trkpt>
      <trkpt lat="45.16756" lon="5.93941">
        <ele>2032</ele>
        <time>2021-02-20T08:23:24Z</time>
      </trkpt>
      <trkpt lat="45.16756" lon="5.93942">
        <ele>2032</ele>
        <time>2021-02-20T08:23:25Z</time>
      </trkpt>
      <trkpt lat="45.16755" lon="5.93943">
        <ele>2032</ele>
        <time>2021-02-20T08:23:26Z</time>
      </trkpt>
      <trkpt lat="45.16755" lon="5.93945">
        <ele>2032</ele>
        <time>2021-02-20T08:23:27Z</time>
      </trkpt>
      <trkpt lat="45.16755" lon="5.93946">
        <ele>2032.1</ele>
        <time>2021-02-20T08:23:28Z</time>
      </trkpt>
      <trkpt lat="45.16755" lon="5.93948">
        <ele>2032.1</ele>
        <time>2021-02-20T08:23:29Z</time>
      </trkpt>
      <trkpt lat="45.16755" lon="5.93949">
        <ele>2032.1</ele>
        <time>2021-02-20T08:23:30Z</time>
      </trkpt>
      <trkpt lat="45.16755" lon="5.93951">
        <ele>2032.1</ele>
        <time>2021-02-20T08:23:31Z</time>
      </trkpt>
      <trkpt lat="45.16755" lon="5.93952">
        <ele>2032.1</ele>
        <time>2021-02-20T08:23:32Z</time>
      </trkpt>
      <trkpt lat="45.16755" lon="5.93953">
        <ele>2032.1</ele>
        <time>2021-02-20T08:23:33Z</time>
      </trkpt>
      <trkpt lat="45.16755" lon="5.93955">
        <ele>2032.1</ele>
        <time>2021-02-20T08:23:34Z</time>
      </trkpt>
      <trkpt lat="45.16755" lon="5.93956">
        <ele>2032.1</ele>
        <time>2021-02-20T08:23:35Z</time>
      </trkpt>
      <trkpt lat="45.16755" lon="5.93957">
        <ele>2032.2</ele>
        <time>2021-02-20T08:23:36Z</time>
      </trkpt>
      <trkpt lat="45.16755" lon="5.93959">
        <ele>2032.2</ele>
        <time>2021-02-20T08:23:37Z</time>
      </trkpt>
      <trkpt lat="45.16755" lon="5.9396">
        <ele>2032.2</ele>
        <time>2021-02-20T08:23:38Z</time>
      </trkpt>
      <trkpt lat="45.16755" lon="5.93961">
        <ele>2032.2</ele>
        <time>2021-02-20T08:23:39Z</time>
      </trkpt>
      <trkpt lat="45.16755" lon="5.93963">
        <ele>2032.2</ele>
        <time>2021-02-20T08:23:40Z</time>
      </trkpt>
      <trkpt lat="45.16755" lon="5.93964">
        <ele>2032.2</ele>
        <time>2021-02-20T08:23:41Z</time>
      </trkpt>
      <trkpt lat="45.16755" lon="5.93966">
        <ele>2032.3</ele>
        <time>2021-02-20T08:23:42Z</time>
      </trkpt>
      <trkpt lat="45.16754" lon="5.93967">
        <ele>2032.3</ele>
        <time>2021-02-20T08:23:43Z</time>
      </trkpt>
      <trkpt lat="45.16754" lon="5.93968">
        <ele>2032.3</ele>
        <time>2021-02-20T08:23:44Z</time>
      </trkpt>
      <trkpt lat="45.16753" lon="5.93969">
        <ele>2032.4</ele>
        <time>2021-02-20T08:23:45Z</time>
      </trkpt>
      <trkpt lat="45.16753" lon="5.9397">
        <ele>2032.4</ele>
        <time>2021-02-20T08:23:46Z</time>
      </trkpt>
      <trkpt lat="45.16752" lon="5.93971">
        <ele>2032.4</ele>
        <time>2021-02-20T08:23:47Z</time>
      </trkpt>
      <trkpt lat="45.16752" lon="5.93973">
        <ele>2032.5</ele>
        <time>2021-02-20T08:23:48Z</time>
      </trkpt>
      <trkpt lat="45.16751" lon="5.93974">
        <ele>2032.5</ele>
        <time>2021-02-20T08:23:49Z</time>
      </trkpt>
      <trkpt lat="45.16751" lon="5.93975">
        <ele>2032.6</ele>
        <time>2021-02-20T08:23:50Z</time>
      </trkpt>
      <trkpt lat="45.1675" lon="5.93976">
        <ele>2032.6</ele>
        <time>2021-02-20T08:23:51Z</time>
      </trkpt>
      <trkpt lat="45.16749" lon="5.93977">
        <ele>2032.7</ele>
        <time>2021-02-20T08:23:52Z</time>
      </trkpt>
      <trkpt lat="45.16748" lon="5.93979">
        <ele>2032.8</ele>
        <time>2021-02-20T08:23:53Z</time>
      </trkpt>
      <trkpt lat="45.16748" lon="5.9398">
        <ele>2032.8</ele>
        <time>2021-02-20T08:23:54Z</time>
      </trkpt>
      <trkpt lat="45.16747" lon="5.93981">
        <ele>2032.9</ele>
        <time>2021-02-20T08:23:55Z</time>
      </trkpt>
      <trkpt lat="45.16747" lon="5.93982">
        <ele>2032.9</ele>
        <time>2021-02-20T08:23:56Z</time>
      </trkpt>
      <trkpt lat="45.16746" lon="5.93983">
        <ele>2033</ele>
        <time>2021-02-20T08:23:57Z</time>
      </trkpt>
      <trkpt lat="45.16746" lon="5.93984">
        <ele>2033</ele>
        <time>2021-02-20T08:23:58Z</time>
      </trkpt>
      <trkpt lat="45.16745" lon="5.93986">
        <ele>2033.1</ele>
        <time>2021-02-20T08:23:59Z</time>
      </trkpt>
      <trkpt lat="45.16744" lon="5.93988">
        <ele>2033.2</ele>
        <time>2021-02-20T08:24:00Z</time>
      </trkpt>
      <trkpt lat="45.16744" lon="5.93989">
        <ele>2033.2</ele>
        <time>2021-02-20T08:24:01Z</time>
      </trkpt>
      <trkpt lat="45.16743" lon="5.9399">
        <ele>2033.3</ele>
        <time>2021-02-20T08:24:02Z</time>
      </trkpt>
      <trkpt lat="45.16742" lon="5.93992">
        <ele>2033.4</ele>
        <time>2021-02-20T08:24:03Z</time>
      </trkpt>
      <trkpt lat="45.16742" lon="5.93993">
        <ele>2033.4</ele>
        <time>2021-02-20T08:24:04Z</time>
      </trkpt>
      <trkpt lat="45.16741" lon="5.93994">
        <ele>2033.5</ele>
        <time>2021-02-20T08:24:05Z</time>
      </trkpt>
      <trkpt lat="45.16741" lon="5.93995">
        <ele>2033.5</ele>
        <time>2021-02-20T08:24:06Z</time>
      </trkpt>
      <trkpt lat="45.1674" lon="5.93996">
        <ele>2033.5</ele>
        <time>2021-02-20T08:24:07Z</time>
      </trkpt>
      <trkpt lat="45.16739" lon="5.93997">
        <ele>2033.6</ele>
        <time>2021-02-20T08:24:08Z</time>
      </trkpt>
      <trkpt lat="45.16739" lon="5.93998">
        <ele>2033.6</ele>
        <time>2021-02-20T08:24:09Z</time>
      </trkpt>
      <trkpt lat="45.16738" lon="5.93999">
        <ele>2033.7</ele>
        <time>2021-02-20T08:24:10Z</time>
      </trkpt>
      <trkpt lat="45.16737" lon="5.94001">
        <ele>2033.8</ele>
        <time>2021-02-20T08:24:11Z</time>
      </trkpt>
      <trkpt lat="45.16736" lon="5.94002">
        <ele>2033.8</ele>
        <time>2021-02-20T08:24:12Z</time>
      </trkpt>
      <trkpt lat="45.16735" lon="5.94003">
        <ele>2033.9</ele>
        <time>2021-02-20T08:24:13Z</time>
      </trkpt>
      <trkpt lat="45.16734" lon="5.94004">
        <ele>2033.9</ele>
        <time>2021-02-20T08:24:14Z</time>
      </trkpt>
      <trkpt lat="45.16734" lon="5.94005">
        <ele>2034</ele>
        <time>2021-02-20T08:24:15Z</time>
      </trkpt>
      <trkpt lat="45.16732" lon="5.94006">
        <ele>2034</ele>
        <time>2021-02-20T08:24:16Z</time>
      </trkpt>
      <trkpt lat="45.16732" lon="5.94007">
        <ele>2034.1</ele>
        <time>2021-02-20T08:24:17Z</time>
      </trkpt>
      <trkpt lat="45.16731" lon="5.94007">
        <ele>2034.1</ele>
        <time>2021-02-20T08:24:18Z</time>
      </trkpt>
      <trkpt lat="45.1673" lon="5.94008">
        <ele>2034.1</ele>
        <time>2021-02-20T08:24:19Z</time>
      </trkpt>
      <trkpt lat="45.1673" lon="5.94009">
        <ele>2034.2</ele>
        <time>2021-02-20T08:24:20Z</time>
      </trkpt>
      <trkpt lat="45.16729" lon="5.9401">
        <ele>2034.2</ele>
        <time>2021-02-20T08:24:21Z</time>
      </trkpt>
      <trkpt lat="45.16729" lon="5.94011">
        <ele>2034.3</ele>
        <time>2021-02-20T08:24:22Z</time>
      </trkpt>
      <trkpt lat="45.16728" lon="5.94012">
        <ele>2034.3</ele>
        <time>2021-02-20T08:24:23Z</time>
      </trkpt>
      <trkpt lat="45.16728" lon="5.94013">
        <ele>2034.4</ele>
        <time>2021-02-20T08:24:24Z</time>
      </trkpt>
      <trkpt lat="45.16727" lon="5.94014">
        <ele>2034.4</ele>
        <time>2021-02-20T08:24:25Z</time>
      </trkpt>
      <trkpt lat="45.16726" lon="5.94015">
        <ele>2034.5</ele>
        <time>2021-02-20T08:24:26Z</time>
      </trkpt>
      <trkpt lat="45.16725" lon="5.94015">
        <ele>2034.5</ele>
        <time>2021-02-20T08:24:27Z</time>
      </trkpt>
      <trkpt lat="45.16725" lon="5.94016">
        <ele>2034.6</ele>
        <time>2021-02-20T08:24:28Z</time>
      </trkpt>
      <trkpt lat="45.16724" lon="5.94016">
        <ele>2034.7</ele>
        <time>2021-02-20T08:24:29Z</time>
      </trkpt>
      <trkpt lat="45.16723" lon="5.94017">
        <ele>2034.7</ele>
        <time>2021-02-20T08:24:30Z</time>
      </trkpt>
      <trkpt lat="45.16723" lon="5.94018">
        <ele>2034.8</ele>
        <time>2021-02-20T08:24:31Z</time>
      </trkpt>
      <trkpt lat="45.16722" lon="5.94018">
        <ele>2034.8</ele>
        <time>2021-02-20T08:24:32Z</time>
      </trkpt>
      <trkpt lat="45.16722" lon="5.94019">
        <ele>2034.9</ele>
        <time>2021-02-20T08:24:33Z</time>
      </trkpt>
      <trkpt lat="45.16721" lon="5.9402">
        <ele>2035</ele>
        <time>2021-02-20T08:24:34Z</time>
      </trkpt>
      <trkpt lat="45.16721" lon="5.94021">
        <ele>2035</ele>
        <time>2021-02-20T08:24:35Z</time>
      </trkpt>
      <trkpt lat="45.1672" lon="5.94022">
        <ele>2035.1</ele>
        <time>2021-02-20T08:24:36Z</time>
      </trkpt>
      <trkpt lat="45.16719" lon="5.94023">
        <ele>2035.2</ele>
        <time>2021-02-20T08:24:37Z</time>
      </trkpt>
      <trkpt lat="45.16719" lon="5.94024">
        <ele>2035.3</ele>
        <time>2021-02-20T08:24:38Z</time>
      </trkpt>
      <trkpt lat="45.16718" lon="5.94025">
        <ele>2035.5</ele>
        <time>2021-02-20T08:24:39Z</time>
      </trkpt>
      <trkpt lat="45.16717" lon="5.94025">
        <ele>2035.6</ele>
        <time>2021-02-20T08:24:40Z</time>
      </trkpt>
      <trkpt lat="45.16717" lon="5.94026">
        <ele>2035.7</ele>
        <time>2021-02-20T08:24:41Z</time>
      </trkpt>
      <trkpt lat="45.16716" lon="5.94027">
        <ele>2035.8</ele>
        <time>2021-02-20T08:24:42Z</time>
      </trkpt>
      <trkpt lat="45.16715" lon="5.94028">
        <ele>2035.9</ele>
        <time>2021-02-20T08:24:43Z</time>
      </trkpt>
      <trkpt lat="45.16714" lon="5.94028">
        <ele>2036.1</ele>
        <time>2021-02-20T08:24:44Z</time>
      </trkpt>
      <trkpt lat="45.16714" lon="5.94029">
        <ele>2036.2</ele>
        <time>2021-02-20T08:24:45Z</time>
      </trkpt>
      <trkpt lat="45.16713" lon="5.9403">
        <ele>2036.3</ele>
        <time>2021-02-20T08:24:46Z</time>
      </trkpt>
      <trkpt lat="45.16713" lon="5.94031">
        <ele>2036.4</ele>
        <time>2021-02-20T08:24:47Z</time>
      </trkpt>
      <trkpt lat="45.16712" lon="5.94031">
        <ele>2036.5</ele>
        <time>2021-02-20T08:24:48Z</time>
      </trkpt>
      <trkpt lat="45.16712" lon="5.94032">
        <ele>2036.6</ele>
        <time>2021-02-20T08:24:49Z</time>
      </trkpt>
      <trkpt lat="45.16711" lon="5.94033">
        <ele>2036.7</ele>
        <time>2021-02-20T08:24:50Z</time>
      </trkpt>
      <trkpt lat="45.16711" lon="5.94034">
        <ele>2036.8</ele>
        <time>2021-02-20T08:24:51Z</time>
      </trkpt>
      <trkpt lat="45.16711" lon="5.94034">
        <ele>2036.9</ele>
        <time>2021-02-20T08:24:52Z</time>
      </trkpt>
      <trkpt lat="45.1671" lon="5.94035">
        <ele>2037</ele>
        <time>2021-02-20T08:24:53Z</time>
      </trkpt>
      <trkpt lat="45.1671" lon="5.94036">
        <ele>2037.1</ele>
        <time>2021-02-20T08:24:54Z</time>
      </trkpt>
      <trkpt lat="45.16709" lon="5.94037">
        <ele>2037.2</ele>
        <time>2021-02-20T08:24:55Z</time>
      </trkpt>
      <trkpt lat="45.16708" lon="5.94037">
        <ele>2037.4</ele>
        <time>2021-02-20T08:24:56Z</time>
      </trkpt>
      <trkpt lat="45.16708" lon="5.94039">
        <ele>2037.6</ele>
        <time>2021-02-20T08:24:57Z</time>
      </trkpt>
      <trkpt lat="45.16707" lon="5.94039">
        <ele>2037.7</ele>
        <time>2021-02-20T08:24:58Z</time>
      </trkpt>
      <trkpt lat="45.16706" lon="5.9404">
        <ele>2037.8</ele>
        <time>2021-02-20T08:24:59Z</time>
      </trkpt>
      <trkpt lat="45.16705" lon="5.94041">
        <ele>2038</ele>
        <time>2021-02-20T08:25:00Z</time>
      </trkpt>
      <trkpt lat="45.16705" lon="5.94042">
        <ele>2038.1</ele>
        <time>2021-02-20T08:25:01Z</time>
      </trkpt>
      <trkpt lat="45.16704" lon="5.94043">
        <ele>2038.2</ele>
        <time>2021-02-20T08:25:02Z</time>
      </trkpt>
      <trkpt lat="45.16704" lon="5.94043">
        <ele>2038.3</ele>
        <time>2021-02-20T08:25:03Z</time>
      </trkpt>
      <trkpt lat="45.16703" lon="5.94043">
        <ele>2038.4</ele>
        <time>2021-02-20T08:25:04Z</time>
      </trkpt>
      <trkpt lat="45.16702" lon="5.94043">
        <ele>2038.5</ele>
        <time>2021-02-20T08:25:05Z</time>
      </trkpt>
      <trkpt lat="45.16701" lon="5.94044">
        <ele>2039.7</ele>
        <time>2021-02-20T08:25:06Z</time>
      </trkpt>
      <trkpt lat="45.16701" lon="5.94045">
        <ele>2039.8</ele>
        <time>2021-02-20T08:25:07Z</time>
      </trkpt>
      <trkpt lat="45.167" lon="5.94046">
        <ele>2040</ele>
        <time>2021-02-20T08:25:08Z</time>
      </trkpt>
      <trkpt lat="45.16699" lon="5.94046">
        <ele>2040.1</ele>
        <time>2021-02-20T08:25:09Z</time>
      </trkpt>
      <trkpt lat="45.16698" lon="5.94047">
        <ele>2040.3</ele>
        <time>2021-02-20T08:25:10Z</time>
      </trkpt>
      <trkpt lat="45.16697" lon="5.94047">
        <ele>2040.4</ele>
        <time>2021-02-20T08:25:11Z</time>
      </trkpt>
      <trkpt lat="45.16697" lon="5.94048">
        <ele>2040.6</ele>
        <time>2021-02-20T08:25:12Z</time>
      </trkpt>
      <trkpt lat="45.16696" lon="5.94048">
        <ele>2040.7</ele>
        <time>2021-02-20T08:25:13Z</time>
      </trkpt>
      <trkpt lat="45.16695" lon="5.94049">
        <ele>2040.8</ele>
        <time>2021-02-20T08:25:14Z</time>
      </trkpt>
      <trkpt lat="45.16695" lon="5.9405">
        <ele>2040.9</ele>
        <time>2021-02-20T08:25:15Z</time>
      </trkpt>
      <trkpt lat="45.16694" lon="5.9405">
        <ele>2041</ele>
        <time>2021-02-20T08:25:16Z</time>
      </trkpt>
      <trkpt lat="45.16693" lon="5.94051">
        <ele>2041.2</ele>
        <time>2021-02-20T08:25:17Z</time>
      </trkpt>
      <trkpt lat="45.16692" lon="5.94052">
        <ele>2041.3</ele>
        <time>2021-02-20T08:25:18Z</time>
      </trkpt>
      <trkpt lat="45.16691" lon="5.94053">
        <ele>2041.5</ele>
        <time>2021-02-20T08:25:19Z</time>
      </trkpt>
      <trkpt lat="45.1669" lon="5.94054">
        <ele>2041.7</ele>
        <time>2021-02-20T08:25:20Z</time>
      </trkpt>
      <trkpt lat="45.16689" lon="5.94055">
        <ele>2041.8</ele>
        <time>2021-02-20T08:25:21Z</time>
      </trkpt>
      <trkpt lat="45.16689" lon="5.94056">
        <ele>2041.9</ele>
        <time>2021-02-20T08:25:22Z</time>
      </trkpt>
      <trkpt lat="45.16688" lon="5.94057">
        <ele>2042</ele>
        <time>2021-02-20T08:25:23Z</time>
      </trkpt>
      <trkpt lat="45.16688" lon="5.94058">
        <ele>2042.2</ele>
        <time>2021-02-20T08:25:24Z</time>
      </trkpt>
      <trkpt lat="45.16687" lon="5.94059">
        <ele>2042.3</ele>
        <time>2021-02-20T08:25:25Z</time>
      </trkpt>
      <trkpt lat="45.16687" lon="5.9406">
        <ele>2042.4</ele>
        <time>2021-02-20T08:25:26Z</time>
      </trkpt>
      <trkpt lat="45.16686" lon="5.94061">
        <ele>2042.5</ele>
        <time>2021-02-20T08:25:27Z</time>
      </trkpt>
      <trkpt lat="45.16686" lon="5.94062">
        <ele>2042.6</ele>
        <time>2021-02-20T08:25:28Z</time>
      </trkpt>
      <trkpt lat="45.16685" lon="5.94064">
        <ele>2042.8</ele>
        <time>2021-02-20T08:25:29Z</time>
      </trkpt>
      <trkpt lat="45.16684" lon="5.94065">
        <ele>2043</ele>
        <time>2021-02-20T08:25:30Z</time>
      </trkpt>
      <trkpt lat="45.16684" lon="5.94066">
        <ele>2043.1</ele>
        <time>2021-02-20T08:25:31Z</time>
      </trkpt>
      <trkpt lat="45.16683" lon="5.94067">
        <ele>2043.3</ele>
        <time>2021-02-20T08:25:32Z</time>
      </trkpt>
      <trkpt lat="45.16682" lon="5.94068">
        <ele>2043.4</ele>
        <time>2021-02-20T08:25:33Z</time>
      </trkpt>
      <trkpt lat="45.16682" lon="5.94069">
        <ele>2043.6</ele>
        <time>2021-02-20T08:25:34Z</time>
      </trkpt>
      <trkpt lat="45.16681" lon="5.9407">
        <ele>2043.7</ele>
        <time>2021-02-20T08:25:35Z</time>
      </trkpt>
      <trkpt lat="45.16681" lon="5.94071">
        <ele>2043.8</ele>
        <time>2021-02-20T08:25:36Z</time>
      </trkpt>
      <trkpt lat="45.1668" lon="5.94072">
        <ele>2044</ele>
        <time>2021-02-20T08:25:37Z</time>
      </trkpt>
      <trkpt lat="45.16679" lon="5.94072">
        <ele>2044.1</ele>
        <time>2021-02-20T08:25:38Z</time>
      </trkpt>
      <trkpt lat="45.16679" lon="5.94073">
        <ele>2044.3</ele>
        <time>2021-02-20T08:25:39Z</time>
      </trkpt>
      <trkpt lat="45.16678" lon="5.94074">
        <ele>2044.4</ele>
        <time>2021-02-20T08:25:40Z</time>
      </trkpt>
      <trkpt lat="45.16677" lon="5.94075">
        <ele>2044.6</ele>
        <time>2021-02-20T08:25:41Z</time>
      </trkpt>
      <trkpt lat="45.16676" lon="5.94076">
        <ele>2044.8</ele>
        <time>2021-02-20T08:25:42Z</time>
      </trkpt>
      <trkpt lat="45.16676" lon="5.94077">
        <ele>2045</ele>
        <time>2021-02-20T08:25:43Z</time>
      </trkpt>
      <trkpt lat="45.16675" lon="5.94078">
        <ele>2045.2</ele>
        <time>2021-02-20T08:25:44Z</time>
      </trkpt>
      <trkpt lat="45.16674" lon="5.94079">
        <ele>2045.5</ele>
        <time>2021-02-20T08:25:45Z</time>
      </trkpt>
      <trkpt lat="45.16673" lon="5.9408">
        <ele>2045.7</ele>
        <time>2021-02-20T08:25:46Z</time>
      </trkpt>
      <trkpt lat="45.16673" lon="5.94081">
        <ele>2045.9</ele>
        <time>2021-02-20T08:25:47Z</time>
      </trkpt>
      <trkpt lat="45.16672" lon="5.94083">
        <ele>2046.2</ele>
        <time>2021-02-20T08:25:48Z</time>
      </trkpt>
      <trkpt lat="45.1667" lon="5.94085">
        <ele>2046.6</ele>
        <time>2021-02-20T08:25:49Z</time>
      </trkpt>
      <trkpt lat="45.1667" lon="5.94086">
        <ele>2046.8</ele>
        <time>2021-02-20T08:25:50Z</time>
      </trkpt>
      <trkpt lat="45.16669" lon="5.94087">
        <ele>2047</ele>
        <time>2021-02-20T08:25:51Z</time>
      </trkpt>
      <trkpt lat="45.16669" lon="5.94088">
        <ele>2047.3</ele>
        <time>2021-02-20T08:25:52Z</time>
      </trkpt>
      <trkpt lat="45.16668" lon="5.9409">
        <ele>2047.5</ele>
        <time>2021-02-20T08:25:53Z</time>
      </trkpt>
      <trkpt lat="45.16667" lon="5.94091">
        <ele>2047.8</ele>
        <time>2021-02-20T08:25:54Z</time>
      </trkpt>
      <trkpt lat="45.16666" lon="5.94093">
        <ele>2048.2</ele>
        <time>2021-02-20T08:25:55Z</time>
      </trkpt>
      <trkpt lat="45.16665" lon="5.94094">
        <ele>2048.4</ele>
        <time>2021-02-20T08:25:56Z</time>
      </trkpt>
      <trkpt lat="45.16665" lon="5.94095">
        <ele>2048.6</ele>
        <time>2021-02-20T08:25:57Z</time>
      </trkpt>
      <trkpt lat="45.16664" lon="5.94096">
        <ele>2048.9</ele>
        <time>2021-02-20T08:25:58Z</time>
      </trkpt>
      <trkpt lat="45.16663" lon="5.94097">
        <ele>2049.1</ele>
        <time>2021-02-20T08:25:59Z</time>
      </trkpt>
      <trkpt lat="45.16662" lon="5.94098">
        <ele>2049.3</ele>
        <time>2021-02-20T08:26:00Z</time>
      </trkpt>
      <trkpt lat="45.16661" lon="5.94099">
        <ele>2049.6</ele>
        <time>2021-02-20T08:26:01Z</time>
      </trkpt>
      <trkpt lat="45.16661" lon="5.941">
        <ele>2049.7</ele>
        <time>2021-02-20T08:26:02Z</time>
      </trkpt>
      <trkpt lat="45.1666" lon="5.94101">
        <ele>2049.9</ele>
        <time>2021-02-20T08:26:03Z</time>
      </trkpt>
      <trkpt lat="45.16659" lon="5.94102">
        <ele>2050</ele>
        <time>2021-02-20T08:26:04Z</time>
      </trkpt>
      <trkpt lat="45.16659" lon="5.94103">
        <ele>2050.2</ele>
        <time>2021-02-20T08:26:05Z</time>
      </trkpt>
      <trkpt lat="45.16658" lon="5.94104">
        <ele>2050.4</ele>
        <time>2021-02-20T08:26:06Z</time>
      </trkpt>
      <trkpt lat="45.16658" lon="5.94105">
        <ele>2050.5</ele>
        <time>2021-02-20T08:26:07Z</time>
      </trkpt>
      <trkpt lat="45.16657" lon="5.94106">
        <ele>2050.6</ele>
        <time>2021-02-20T08:26:08Z</time>
      </trkpt>
      <trkpt lat="45.16657" lon="5.94107">
        <ele>2050.8</ele>
        <time>2021-02-20T08:26:09Z</time>
      </trkpt>
      <trkpt lat="45.16657" lon="5.94107">
        <ele>2050.9</ele>
        <time>2021-02-20T08:26:10Z</time>
      </trkpt>
      <trkpt lat="45.16656" lon="5.94108">
        <ele>2051</ele>
        <time>2021-02-20T08:26:11Z</time>
      </trkpt>
      <trkpt lat="45.16656" lon="5.94109">
        <ele>2051.1</ele>
        <time>2021-02-20T08:26:12Z</time>
      </trkpt>
      <trkpt lat="45.16655" lon="5.94109">
        <ele>2051.2</ele>
        <time>2021-02-20T08:26:13Z</time>
      </trkpt>
      <trkpt lat="45.16655" lon="5.9411">
        <ele>2051.3</ele>
        <time>2021-02-20T08:26:14Z</time>
      </trkpt>
      <trkpt lat="45.16654" lon="5.94111">
        <ele>2051.5</ele>
        <time>2021-02-20T08:26:15Z</time>
      </trkpt>
      <trkpt lat="45.16654" lon="5.94111">
        <ele>2051.6</ele>
        <time>2021-02-20T08:26:16Z</time>
      </trkpt>
      <trkpt lat="45.16653" lon="5.94112">
        <ele>2051.7</ele>
        <time>2021-02-20T08:26:17Z</time>
      </trkpt>
      <trkpt lat="45.16653" lon="5.94113">
        <ele>2051.8</ele>
        <time>2021-02-20T08:26:18Z</time>
      </trkpt>
      <trkpt lat="45.16652" lon="5.94114">
        <ele>2051.9</ele>
        <time>2021-02-20T08:26:19Z</time>
      </trkpt>
      <trkpt lat="45.16652" lon="5.94114">
        <ele>2052</ele>
        <time>2021-02-20T08:26:20Z</time>
      </trkpt>
      <trkpt lat="45.16652" lon="5.94115">
        <ele>2052.1</ele>
        <time>2021-02-20T08:26:21Z</time>
      </trkpt>
      <trkpt lat="45.16651" lon="5.94116">
        <ele>2052.2</ele>
        <time>2021-02-20T08:26:22Z</time>
      </trkpt>
      <trkpt lat="45.16651" lon="5.94117">
        <ele>2052.4</ele>
        <time>2021-02-20T08:26:23Z</time>
      </trkpt>
      <trkpt lat="45.16651" lon="5.94118">
        <ele>2052.5</ele>
        <time>2021-02-20T08:26:24Z</time>
      </trkpt>
      <trkpt lat="45.1665" lon="5.94119">
        <ele>2052.6</ele>
        <time>2021-02-20T08:26:25Z</time>
      </trkpt>
      <trkpt lat="45.16649" lon="5.94119">
        <ele>2052.8</ele>
        <time>2021-02-20T08:26:26Z</time>
      </trkpt>
      <trkpt lat="45.16649" lon="5.9412">
        <ele>2052.9</ele>
        <time>2021-02-20T08:26:27Z</time>
      </trkpt>
      <trkpt lat="45.16648" lon="5.9412">
        <ele>2053</ele>
        <time>2021-02-20T08:26:28Z</time>
      </trkpt>
      <trkpt lat="45.16648" lon="5.94121">
        <ele>2053.1</ele>
        <time>2021-02-20T08:26:29Z</time>
      </trkpt>
      <trkpt lat="45.16647" lon="5.94121">
        <ele>2053.3</ele>
        <time>2021-02-20T08:26:30Z</time>
      </trkpt>
      <trkpt lat="45.16647" lon="5.94122">
        <ele>2053.3</ele>
        <time>2021-02-20T08:26:31Z</time>
      </trkpt>
      <trkpt lat="45.16647" lon="5.94122">
        <ele>2053.4</ele>
        <time>2021-02-20T08:26:32Z</time>
      </trkpt>
      <trkpt lat="45.16646" lon="5.94123">
        <ele>2053.6</ele>
        <time>2021-02-20T08:26:33Z</time>
      </trkpt>
      <trkpt lat="45.16646" lon="5.94124">
        <ele>2053.7</ele>
        <time>2021-02-20T08:26:34Z</time>
      </trkpt>
      <trkpt lat="45.16645" lon="5.94124">
        <ele>2053.8</ele>
        <time>2021-02-20T08:26:35Z</time>
      </trkpt>
      <trkpt lat="45.16645" lon="5.94125">
        <ele>2053.9</ele>
        <time>2021-02-20T08:26:36Z</time>
      </trkpt>
      <trkpt lat="45.16644" lon="5.94125">
        <ele>2054.1</ele>
        <time>2021-02-20T08:26:37Z</time>
      </trkpt>
      <trkpt lat="45.16643" lon="5.94125">
        <ele>2054.2</ele>
        <time>2021-02-20T08:26:38Z</time>
      </trkpt>
      <trkpt lat="45.16643" lon="5.94125">
        <ele>2054.3</ele>
        <time>2021-02-20T08:26:39Z</time>
      </trkpt>
      <trkpt lat="45.16642" lon="5.94126">
        <ele>2054.5</ele>
        <time>2021-02-20T08:26:40Z</time>
      </trkpt>
      <trkpt lat="45.16641" lon="5.94126">
        <ele>2054.6</ele>
        <time>2021-02-20T08:26:41Z</time>
      </trkpt>
      <trkpt lat="45.1664" lon="5.94127">
        <ele>2054.8</ele>
        <time>2021-02-20T08:26:42Z</time>
      </trkpt>
      <trkpt lat="45.1664" lon="5.94128">
        <ele>2055</ele>
        <time>2021-02-20T08:26:43Z</time>
      </trkpt>
      <trkpt lat="45.16639" lon="5.94129">
        <ele>2055.2</ele>
        <time>2021-02-20T08:26:44Z</time>
      </trkpt>
      <trkpt lat="45.16639" lon="5.9413">
        <ele>2055.4</ele>
        <time>2021-02-20T08:26:45Z</time>
      </trkpt>
      <trkpt lat="45.16639" lon="5.94131">
        <ele>2055.5</ele>
        <time>2021-02-20T08:26:46Z</time>
      </trkpt>
      <trkpt lat="45.16639" lon="5.94132">
        <ele>2055.7</ele>
        <time>2021-02-20T08:26:47Z</time>
      </trkpt>
      <trkpt lat="45.16639" lon="5.94133">
        <ele>2055.8</ele>
        <time>2021-02-20T08:26:48Z</time>
      </trkpt>
      <trkpt lat="45.16638" lon="5.94134">
        <ele>2056</ele>
        <time>2021-02-20T08:26:49Z</time>
      </trkpt>
      <trkpt lat="45.16638" lon="5.94134">
        <ele>2056.1</ele>
        <time>2021-02-20T08:26:50Z</time>
      </trkpt>
      <trkpt lat="45.16637" lon="5.94134">
        <ele>2056.3</ele>
        <time>2021-02-20T08:26:51Z</time>
      </trkpt>
      <trkpt lat="45.16636" lon="5.94135">
        <ele>2056.5</ele>
        <time>2021-02-20T08:26:52Z</time>
      </trkpt>
      <trkpt lat="45.16635" lon="5.94135">
        <ele>2056.7</ele>
        <time>2021-02-20T08:26:53Z</time>
      </trkpt>
      <trkpt lat="45.16634" lon="5.94135">
        <ele>2056.9</ele>
        <time>2021-02-20T08:26:54Z</time>
      </trkpt>
      <trkpt lat="45.16633" lon="5.94136">
        <ele>2057.1</ele>
        <time>2021-02-20T08:26:55Z</time>
      </trkpt>
      <trkpt lat="45.16632" lon="5.94137">
        <ele>2057.4</ele>
        <time>2021-02-20T08:26:56Z</time>
      </trkpt>
      <trkpt lat="45.16632" lon="5.94138">
        <ele>2057.5</ele>
        <time>2021-02-20T08:26:57Z</time>
      </trkpt>
      <trkpt lat="45.16631" lon="5.94138">
        <ele>2057.7</ele>
        <time>2021-02-20T08:26:58Z</time>
      </trkpt>
      <trkpt lat="45.16631" lon="5.94139">
        <ele>2057.9</ele>
        <time>2021-02-20T08:26:59Z</time>
      </trkpt>
      <trkpt lat="45.1663" lon="5.9414">
        <ele>2058.1</ele>
        <time>2021-02-20T08:27:00Z</time>
      </trkpt>
      <trkpt lat="45.1663" lon="5.94141">
        <ele>2058.2</ele>
        <time>2021-02-20T08:27:01Z</time>
      </trkpt>
      <trkpt lat="45.16629" lon="5.94141">
        <ele>2058.4</ele>
        <time>2021-02-20T08:27:02Z</time>
      </trkpt>
      <trkpt lat="45.16628" lon="5.94142">
        <ele>2058.6</ele>
        <time>2021-02-20T08:27:03Z</time>
      </trkpt>
      <trkpt lat="45.16628" lon="5.94142">
        <ele>2058.8</ele>
        <time>2021-02-20T08:27:04Z</time>
      </trkpt>
      <trkpt lat="45.16627" lon="5.94143">
        <ele>2059</ele>
        <time>2021-02-20T08:27:05Z</time>
      </trkpt>
      <trkpt lat="45.16626" lon="5.94143">
        <ele>2059.1</ele>
        <time>2021-02-20T08:27:06Z</time>
      </trkpt>
      <trkpt lat="45.16626" lon="5.94143">
        <ele>2059.2</ele>
        <time>2021-02-20T08:27:07Z</time>
      </trkpt>
      <trkpt lat="45.16625" lon="5.94144">
        <ele>2059.4</ele>
        <time>2021-02-20T08:27:08Z</time>
      </trkpt>
      <trkpt lat="45.16625" lon="5.94144">
        <ele>2059.5</ele>
        <time>2021-02-20T08:27:09Z</time>
      </trkpt>
      <trkpt lat="45.16624" lon="5.94145">
        <ele>2059.7</ele>
        <time>2021-02-20T08:27:10Z</time>
      </trkpt>
      <trkpt lat="45.16624" lon="5.94145">
        <ele>2059.8</ele>
        <time>2021-02-20T08:27:11Z</time>
      </trkpt>
      <trkpt lat="45.16623" lon="5.94146">
        <ele>2059.9</ele>
        <time>2021-02-20T08:27:12Z</time>
      </trkpt>
      <trkpt lat="45.16623" lon="5.94147">
        <ele>2060</ele>
        <time>2021-02-20T08:27:13Z</time>
      </trkpt>
      <trkpt lat="45.16623" lon="5.94147">
        <ele>2060.1</ele>
        <time>2021-02-20T08:27:14Z</time>
      </trkpt>
      <trkpt lat="45.16622" lon="5.94147">
        <ele>2060.3</ele>
        <time>2021-02-20T08:27:15Z</time>
      </trkpt>
      <trkpt lat="45.16622" lon="5.94148">
        <ele>2060.4</ele>
        <time>2021-02-20T08:27:16Z</time>
      </trkpt>
      <trkpt lat="45.16621" lon="5.94148">
        <ele>2060.5</ele>
        <time>2021-02-20T08:27:17Z</time>
      </trkpt>
      <trkpt lat="45.16621" lon="5.94148">
        <ele>2060.6</ele>
        <time>2021-02-20T08:27:18Z</time>
      </trkpt>
      <trkpt lat="45.1662" lon="5.94149">
        <ele>2060.7</ele>
        <time>2021-02-20T08:27:19Z</time>
      </trkpt>
      <trkpt lat="45.1662" lon="5.94149">
        <ele>2060.8</ele>
        <time>2021-02-20T08:27:20Z</time>
      </trkpt>
      <trkpt lat="45.16619" lon="5.94149">
        <ele>2061</ele>
        <time>2021-02-20T08:27:21Z</time>
      </trkpt>
      <trkpt lat="45.16619" lon="5.9415">
        <ele>2061.1</ele>
        <time>2021-02-20T08:27:22Z</time>
      </trkpt>
      <trkpt lat="45.16618" lon="5.9415">
        <ele>2061.2</ele>
        <time>2021-02-20T08:27:23Z</time>
      </trkpt>
      <trkpt lat="45.16618" lon="5.9415">
        <ele>2061.3</ele>
        <time>2021-02-20T08:27:24Z</time>
      </trkpt>
      <trkpt lat="45.16617" lon="5.94151">
        <ele>2061.4</ele>
        <time>2021-02-20T08:27:25Z</time>
      </trkpt>
      <trkpt lat="45.16616" lon="5.94151">
        <ele>2061.6</ele>
        <time>2021-02-20T08:27:26Z</time>
      </trkpt>
      <trkpt lat="45.16616" lon="5.94152">
        <ele>2061.7</ele>
        <time>2021-02-20T08:27:27Z</time>
      </trkpt>
      <trkpt lat="45.16615" lon="5.94152">
        <ele>2061.8</ele>
        <time>2021-02-20T08:27:28Z</time>
      </trkpt>
      <trkpt lat="45.16614" lon="5.94152">
        <ele>2061.9</ele>
        <time>2021-02-20T08:27:29Z</time>
      </trkpt>
      <trkpt lat="45.16614" lon="5.94152">
        <ele>2062</ele>
        <time>2021-02-20T08:27:30Z</time>
      </trkpt>
      <trkpt lat="45.16613" lon="5.94152">
        <ele>2062.1</ele>
        <time>2021-02-20T08:27:31Z</time>
      </trkpt>
      <trkpt lat="45.16612" lon="5.94152">
        <ele>2062.3</ele>
        <time>2021-02-20T08:27:32Z</time>
      </trkpt>
      <trkpt lat="45.16612" lon="5.94153">
        <ele>2062.3</ele>
        <time>2021-02-20T08:27:33Z</time>
      </trkpt>
      <trkpt lat="45.16611" lon="5.94153">
        <ele>2062.5</ele>
        <time>2021-02-20T08:27:34Z</time>
      </trkpt>
      <trkpt lat="45.1661" lon="5.94153">
        <ele>2062.5</ele>
        <time>2021-02-20T08:27:35Z</time>
      </trkpt>
      <trkpt lat="45.1661" lon="5.94154">
        <ele>2062.6</ele>
        <time>2021-02-20T08:27:36Z</time>
      </trkpt>
      <trkpt lat="45.16609" lon="5.94154">
        <ele>2062.7</ele>
        <time>2021-02-20T08:27:37Z</time>
      </trkpt>
      <trkpt lat="45.16609" lon="5.94155">
        <ele>2062.8</ele>
        <time>2021-02-20T08:27:38Z</time>
      </trkpt>
      <trkpt lat="45.16608" lon="5.94155">
        <ele>2062.8</ele>
        <time>2021-02-20T08:27:39Z</time>
      </trkpt>
      <trkpt lat="45.16607" lon="5.94156">
        <ele>2062.9</ele>
        <time>2021-02-20T08:27:40Z</time>
      </trkpt>
      <trkpt lat="45.16607" lon="5.94156">
        <ele>2063</ele>
        <time>2021-02-20T08:27:41Z</time>
      </trkpt>
      <trkpt lat="45.16606" lon="5.94157">
        <ele>2063</ele>
        <time>2021-02-20T08:27:42Z</time>
      </trkpt>
      <trkpt lat="45.16606" lon="5.94157">
        <ele>2063.1</ele>
        <time>2021-02-20T08:27:43Z</time>
      </trkpt>
      <trkpt lat="45.16605" lon="5.94157">
        <ele>2063.1</ele>
        <time>2021-02-20T08:27:44Z</time>
      </trkpt>
      <trkpt lat="45.16604" lon="5.94156">
        <ele>2063.2</ele>
        <time>2021-02-20T08:27:45Z</time>
      </trkpt>
      <trkpt lat="45.16603" lon="5.94156">
        <ele>2063.3</ele>
        <time>2021-02-20T08:27:46Z</time>
      </trkpt>
      <trkpt lat="45.16603" lon="5.94155">
        <ele>2063.3</ele>
        <time>2021-02-20T08:27:47Z</time>
      </trkpt>
      <trkpt lat="45.16602" lon="5.94155">
        <ele>2063.3</ele>
        <time>2021-02-20T08:27:48Z</time>
      </trkpt>
      <trkpt lat="45.16601" lon="5.94154">
        <ele>2063.4</ele>
        <time>2021-02-20T08:27:49Z</time>
      </trkpt>
      <trkpt lat="45.16601" lon="5.94154">
        <ele>2063.4</ele>
        <time>2021-02-20T08:27:50Z</time>
      </trkpt>
      <trkpt lat="45.16601" lon="5.94154">
        <ele>2063.4</ele>
        <time>2021-02-20T08:27:51Z</time>
      </trkpt>
      <trkpt lat="45.16601" lon="5.94153">
        <ele>2063.4</ele>
        <time>2021-02-20T08:27:52Z</time>
      </trkpt>
      <trkpt lat="45.16601" lon="5.94153">
        <ele>2063.4</ele>
        <time>2021-02-20T08:27:53Z</time>
      </trkpt>
      <trkpt lat="45.16601" lon="5.94153">
        <ele>2063.4</ele>
        <time>2021-02-20T08:27:54Z</time>
      </trkpt>
      <trkpt lat="45.16601" lon="5.94153">
        <ele>2063.4</ele>
        <time>2021-02-20T08:27:55Z</time>
      </trkpt>
      <trkpt lat="45.166" lon="5.94153">
        <ele>2063.4</ele>
        <time>2021-02-20T08:27:56Z</time>
      </trkpt>
      <trkpt lat="45.16599" lon="5.94153">
        <ele>2063.4</ele>
        <time>2021-02-20T08:27:57Z</time>
      </trkpt>
      <trkpt lat="45.16598" lon="5.94154">
        <ele>2063.4</ele>
        <time>2021-02-20T08:27:58Z</time>
      </trkpt>
      <trkpt lat="45.16597" lon="5.94154">
        <ele>2063.4</ele>
        <time>2021-02-20T08:27:59Z</time>
      </trkpt>
      <trkpt lat="45.16597" lon="5.94154">
        <ele>2063.5</ele>
        <time>2021-02-20T08:28:00Z</time>
      </trkpt>
      <trkpt lat="45.16596" lon="5.94154">
        <ele>2063.5</ele>
        <time>2021-02-20T08:28:01Z</time>
      </trkpt>
      <trkpt lat="45.16595" lon="5.94154">
        <ele>2063.5</ele>
        <time>2021-02-20T08:28:02Z</time>
      </trkpt>
      <trkpt lat="45.16594" lon="5.94154">
        <ele>2063.5</ele>
        <time>2021-02-20T08:28:03Z</time>
      </trkpt>
      <trkpt lat="45.16594" lon="5.94154">
        <ele>2063.5</ele>
        <time>2021-02-20T08:28:04Z</time>
      </trkpt>
      <trkpt lat="45.16593" lon="5.94154">
        <ele>2063.5</ele>
        <time>2021-02-20T08:28:05Z</time>
      </trkpt>
      <trkpt lat="45.16592" lon="5.94154">
        <ele>2063.5</ele>
        <time>2021-02-20T08:28:06Z</time>
      </trkpt>
      <trkpt lat="45.16591" lon="5.94155">
        <ele>2063.5</ele>
        <time>2021-02-20T08:28:07Z</time>
      </trkpt>
      <trkpt lat="45.16591" lon="5.94155">
        <ele>2063.5</ele>
        <time>2021-02-20T08:28:08Z</time>
      </trkpt>
      <trkpt lat="45.1659" lon="5.94155">
        <ele>2063.5</ele>
        <time>2021-02-20T08:28:09Z</time>
      </trkpt>
      <trkpt lat="45.16589" lon="5.94156">
        <ele>2063.5</ele>
        <time>2021-02-20T08:28:10Z</time>
      </trkpt>
      <trkpt lat="45.16589" lon="5.94156">
        <ele>2063.6</ele>
        <time>2021-02-20T08:28:11Z</time>
      </trkpt>
      <trkpt lat="45.16588" lon="5.94156">
        <ele>2063.6</ele>
        <time>2021-02-20T08:28:12Z</time>
      </trkpt>
      <trkpt lat="45.16587" lon="5.94157">
        <ele>2063.6</ele>
        <time>2021-02-20T08:28:13Z</time>
      </trkpt>
      <trkpt lat="45.16587" lon="5.94157">
        <ele>2063.6</ele>
        <time>2021-02-20T08:28:14Z</time>
      </trkpt>
      <trkpt lat="45.16586" lon="5.94157">
        <ele>2063.7</ele>
        <time>2021-02-20T08:28:15Z</time>
      </trkpt>
      <trkpt lat="45.16585" lon="5.94157">
        <ele>2063.7</ele>
        <time>2021-02-20T08:28:16Z</time>
      </trkpt>
      <trkpt lat="45.16585" lon="5.94158">
        <ele>2063.7</ele>
        <time>2021-02-20T08:28:17Z</time>
      </trkpt>
      <trkpt lat="45.16584" lon="5.94158">
        <ele>2063.7</ele>
        <time>2021-02-20T08:28:18Z</time>
      </trkpt>
      <trkpt lat="45.16584" lon="5.94158">
        <ele>2063.8</ele>
        <time>2021-02-20T08:28:19Z</time>
      </trkpt>
      <trkpt lat="45.16583" lon="5.94159">
        <ele>2063.8</ele>
        <time>2021-02-20T08:28:20Z</time>
      </trkpt>
      <trkpt lat="45.16583" lon="5.94159">
        <ele>2063.9</ele>
        <time>2021-02-20T08:28:21Z</time>
      </trkpt>
      <trkpt lat="45.16582" lon="5.94159">
        <ele>2063.9</ele>
        <time>2021-02-20T08:28:22Z</time>
      </trkpt>
      <trkpt lat="45.16581" lon="5.94159">
        <ele>2064</ele>
        <time>2021-02-20T08:28:23Z</time>
      </trkpt>
      <trkpt lat="45.1658" lon="5.94159">
        <ele>2064</ele>
        <time>2021-02-20T08:28:24Z</time>
      </trkpt>
      <trkpt lat="45.1658" lon="5.94159">
        <ele>2064.1</ele>
        <time>2021-02-20T08:28:25Z</time>
      </trkpt>
      <trkpt lat="45.16579" lon="5.94159">
        <ele>2064.1</ele>
        <time>2021-02-20T08:28:26Z</time>
      </trkpt>
      <trkpt lat="45.16578" lon="5.94159">
        <ele>2064.2</ele>
        <time>2021-02-20T08:28:27Z</time>
      </trkpt>
      <trkpt lat="45.16578" lon="5.9416">
        <ele>2064.3</ele>
        <time>2021-02-20T08:28:28Z</time>
      </trkpt>
      <trkpt lat="45.16577" lon="5.9416">
        <ele>2064.3</ele>
        <time>2021-02-20T08:28:29Z</time>
      </trkpt>
      <trkpt lat="45.16576" lon="5.9416">
        <ele>2064.4</ele>
        <time>2021-02-20T08:28:30Z</time>
      </trkpt>
      <trkpt lat="45.16576" lon="5.9416">
        <ele>2064.5</ele>
        <time>2021-02-20T08:28:31Z</time>
      </trkpt>
      <trkpt lat="45.16575" lon="5.94161">
        <ele>2064.5</ele>
        <time>2021-02-20T08:28:32Z</time>
      </trkpt>
      <trkpt lat="45.16574" lon="5.94161">
        <ele>2064.6</ele>
        <time>2021-02-20T08:28:33Z</time>
      </trkpt>
      <trkpt lat="45.16574" lon="5.94162">
        <ele>2064.7</ele>
        <time>2021-02-20T08:28:34Z</time>
      </trkpt>
      <trkpt lat="45.16573" lon="5.94162">
        <ele>2064.7</ele>
        <time>2021-02-20T08:28:35Z</time>
      </trkpt>
      <trkpt lat="45.16573" lon="5.94163">
        <ele>2064.8</ele>
        <time>2021-02-20T08:28:36Z</time>
      </trkpt>
      <trkpt lat="45.16573" lon="5.94163">
        <ele>2064.8</ele>
        <time>2021-02-20T08:28:37Z</time>
      </trkpt>
      <trkpt lat="45.16572" lon="5.94164">
        <ele>2064.9</ele>
        <time>2021-02-20T08:28:38Z</time>
      </trkpt>
      <trkpt lat="45.16572" lon="5.94165">
        <ele>2065</ele>
        <time>2021-02-20T08:28:39Z</time>
      </trkpt>
      <trkpt lat="45.16571" lon="5.94165">
        <ele>2065.1</ele>
        <time>2021-02-20T08:28:40Z</time>
      </trkpt>
      <trkpt lat="45.16571" lon="5.94165">
        <ele>2065.1</ele>
        <time>2021-02-20T08:28:41Z</time>
      </trkpt>
      <trkpt lat="45.16571" lon="5.94165">
        <ele>2065.1</ele>
        <time>2021-02-20T08:28:42Z</time>
      </trkpt>
      <trkpt lat="45.1657" lon="5.94166">
        <ele>2065.2</ele>
        <time>2021-02-20T08:28:43Z</time>
      </trkpt>
      <trkpt lat="45.1657" lon="5.94166">
        <ele>2065.2</ele>
        <time>2021-02-20T08:28:44Z</time>
      </trkpt>
      <trkpt lat="45.1657" lon="5.94166">
        <ele>2065.3</ele>
        <time>2021-02-20T08:28:45Z</time>
      </trkpt>
      <trkpt lat="45.16569" lon="5.94166">
        <ele>2065.3</ele>
        <time>2021-02-20T08:28:46Z</time>
      </trkpt>
      <trkpt lat="45.16569" lon="5.94167">
        <ele>2065.4</ele>
        <time>2021-02-20T08:28:47Z</time>
      </trkpt>
      <trkpt lat="45.16569" lon="5.94167">
        <ele>2065.4</ele>
        <time>2021-02-20T08:28:48Z</time>
      </trkpt>
      <trkpt lat="45.16569" lon="5.94168">
        <ele>2065.5</ele>
        <time>2021-02-20T08:28:49Z</time>
      </trkpt>
      <trkpt lat="45.16568" lon="5.94168">
        <ele>2065.5</ele>
        <time>2021-02-20T08:28:50Z</time>
      </trkpt>
      <trkpt lat="45.16568" lon="5.94169">
        <ele>2065.5</ele>
        <time>2021-02-20T08:28:51Z</time>
      </trkpt>
      <trkpt lat="45.16568" lon="5.94169">
        <ele>2065.6</ele>
        <time>2021-02-20T08:28:52Z</time>
      </trkpt>
      <trkpt lat="45.16568" lon="5.9417">
        <ele>2065.7</ele>
        <time>2021-02-20T08:28:53Z</time>
      </trkpt>
      <trkpt lat="45.16567" lon="5.94171">
        <ele>2065.7</ele>
        <time>2021-02-20T08:28:54Z</time>
      </trkpt>
      <trkpt lat="45.16567" lon="5.94172">
        <ele>2065.9</ele>
        <time>2021-02-20T08:28:55Z</time>
      </trkpt>
      <trkpt lat="45.16566" lon="5.94172">
        <ele>2065.9</ele>
        <time>2021-02-20T08:28:56Z</time>
      </trkpt>
      <trkpt lat="45.16566" lon="5.94173">
        <ele>2066</ele>
        <time>2021-02-20T08:28:57Z</time>
      </trkpt>
      <trkpt lat="45.16565" lon="5.94174">
        <ele>2066.1</ele>
        <time>2021-02-20T08:28:58Z</time>
      </trkpt>
      <trkpt lat="45.16565" lon="5.94175">
        <ele>2066.2</ele>
        <time>2021-02-20T08:28:59Z</time>
      </trkpt>
      <trkpt lat="45.16565" lon="5.94176">
        <ele>2066.3</ele>
        <time>2021-02-20T08:29:00Z</time>
      </trkpt>
      <trkpt lat="45.16564" lon="5.94177">
        <ele>2066.4</ele>
        <time>2021-02-20T08:29:01Z</time>
      </trkpt>
      <trkpt lat="45.16564" lon="5.94179">
        <ele>2066.5</ele>
        <time>2021-02-20T08:29:02Z</time>
      </trkpt>
      <trkpt lat="45.16564" lon="5.94181">
        <ele>2066.7</ele>
        <time>2021-02-20T08:29:03Z</time>
      </trkpt>
      <trkpt lat="45.16563" lon="5.94182">
        <ele>2066.8</ele>
        <time>2021-02-20T08:29:04Z</time>
      </trkpt>
      <trkpt lat="45.16563" lon="5.94183">
        <ele>2066.8</ele>
        <time>2021-02-20T08:29:05Z</time>
      </trkpt>
      <trkpt lat="45.16563" lon="5.94183">
        <ele>2066.9</ele>
        <time>2021-02-20T08:29:06Z</time>
      </trkpt>
      <trkpt lat="45.16563" lon="5.94185">
        <ele>2067</ele>
        <time>2021-02-20T08:29:07Z</time>
      </trkpt>
      <trkpt lat="45.16562" lon="5.94186">
        <ele>2067.1</ele>
        <time>2021-02-20T08:29:08Z</time>
      </trkpt>
      <trkpt lat="45.16562" lon="5.94187">
        <ele>2067.1</ele>
        <time>2021-02-20T08:29:09Z</time>
      </trkpt>
      <trkpt lat="45.16562" lon="5.94188">
        <ele>2067.2</ele>
        <time>2021-02-20T08:29:10Z</time>
      </trkpt>
      <trkpt lat="45.16561" lon="5.94189">
        <ele>2067.2</ele>
        <time>2021-02-20T08:29:11Z</time>
      </trkpt>
      <trkpt lat="45.16561" lon="5.9419">
        <ele>2067.3</ele>
        <time>2021-02-20T08:29:12Z</time>
      </trkpt>
      <trkpt lat="45.1656" lon="5.94192">
        <ele>2067.4</ele>
        <time>2021-02-20T08:29:13Z</time>
      </trkpt>
      <trkpt lat="45.1656" lon="5.94193">
        <ele>2067.4</ele>
        <time>2021-02-20T08:29:14Z</time>
      </trkpt>
      <trkpt lat="45.16559" lon="5.94195">
        <ele>2067.5</ele>
        <time>2021-02-20T08:29:15Z</time>
      </trkpt>
      <trkpt lat="45.16559" lon="5.94196">
        <ele>2067.5</ele>
        <time>2021-02-20T08:29:16Z</time>
      </trkpt>
      <trkpt lat="45.16559" lon="5.94197">
        <ele>2067.6</ele>
        <time>2021-02-20T08:29:17Z</time>
      </trkpt>
      <trkpt lat="45.16558" lon="5.94198">
        <ele>2067.6</ele>
        <time>2021-02-20T08:29:18Z</time>
      </trkpt>
      <trkpt lat="45.16558" lon="5.94199">
        <ele>2067.7</ele>
        <time>2021-02-20T08:29:19Z</time>
      </trkpt>
      <trkpt lat="45.16557" lon="5.94202">
        <ele>2067.8</ele>
        <time>2021-02-20T08:29:20Z</time>
      </trkpt>
      <trkpt lat="45.16557" lon="5.94202">
        <ele>2067.8</ele>
        <time>2021-02-20T08:29:21Z</time>
      </trkpt>
      <trkpt lat="45.16556" lon="5.94203">
        <ele>2067.8</ele>
        <time>2021-02-20T08:29:22Z</time>
      </trkpt>
      <trkpt lat="45.16556" lon="5.94204">
        <ele>2067.9</ele>
        <time>2021-02-20T08:29:23Z</time>
      </trkpt>
      <trkpt lat="45.16555" lon="5.94205">
        <ele>2067.9</ele>
        <time>2021-02-20T08:29:24Z</time>
      </trkpt>
      <trkpt lat="45.16555" lon="5.94206">
        <ele>2068</ele>
        <time>2021-02-20T08:29:25Z</time>
      </trkpt>
      <trkpt lat="45.16554" lon="5.94207">
        <ele>2068</ele>
        <time>2021-02-20T08:29:26Z</time>
      </trkpt>
      <trkpt lat="45.16554" lon="5.94208">
        <ele>2068.1</ele>
        <time>2021-02-20T08:29:27Z</time>
      </trkpt>
      <trkpt lat="45.16553" lon="5.94209">
        <ele>2068.2</ele>
        <time>2021-02-20T08:29:28Z</time>
      </trkpt>
      <trkpt lat="45.16553" lon="5.9421">
        <ele>2068.3</ele>
        <time>2021-02-20T08:29:29Z</time>
      </trkpt>
      <trkpt lat="45.16552" lon="5.94211">
        <ele>2068.3</ele>
        <time>2021-02-20T08:29:30Z</time>
      </trkpt>
      <trkpt lat="45.16552" lon="5.94211">
        <ele>2068.4</ele>
        <time>2021-02-20T08:29:31Z</time>
      </trkpt>
      <trkpt lat="45.16551" lon="5.94212">
        <ele>2068.5</ele>
        <time>2021-02-20T08:29:32Z</time>
      </trkpt>
      <trkpt lat="45.16551" lon="5.94213">
        <ele>2068.6</ele>
        <time>2021-02-20T08:29:33Z</time>
      </trkpt>
      <trkpt lat="45.1655" lon="5.94213">
        <ele>2068.7</ele>
        <time>2021-02-20T08:29:34Z</time>
      </trkpt>
      <trkpt lat="45.16549" lon="5.94214">
        <ele>2068.8</ele>
        <time>2021-02-20T08:29:35Z</time>
      </trkpt>
      <trkpt lat="45.16548" lon="5.94215">
        <ele>2068.9</ele>
        <time>2021-02-20T08:29:36Z</time>
      </trkpt>
      <trkpt lat="45.16548" lon="5.94216">
        <ele>2069.1</ele>
        <time>2021-02-20T08:29:37Z</time>
      </trkpt>
      <trkpt lat="45.16547" lon="5.94216">
        <ele>2069.2</ele>
        <time>2021-02-20T08:29:38Z</time>
      </trkpt>
      <trkpt lat="45.16547" lon="5.94217">
        <ele>2069.3</ele>
        <time>2021-02-20T08:29:39Z</time>
      </trkpt>
      <trkpt lat="45.16546" lon="5.94218">
        <ele>2069.3</ele>
        <time>2021-02-20T08:29:40Z</time>
      </trkpt>
      <trkpt lat="45.16546" lon="5.94218">
        <ele>2069.5</ele>
        <time>2021-02-20T08:29:41Z</time>
      </trkpt>
      <trkpt lat="45.16545" lon="5.94219">
        <ele>2069.6</ele>
        <time>2021-02-20T08:29:42Z</time>
      </trkpt>
      <trkpt lat="45.16544" lon="5.9422">
        <ele>2069.8</ele>
        <time>2021-02-20T08:29:43Z</time>
      </trkpt>
      <trkpt lat="45.16544" lon="5.94221">
        <ele>2069.9</ele>
        <time>2021-02-20T08:29:44Z</time>
      </trkpt>
      <trkpt lat="45.16543" lon="5.94221">
        <ele>2070</ele>
        <time>2021-02-20T08:29:45Z</time>
      </trkpt>
      <trkpt lat="45.16542" lon="5.94222">
        <ele>2070.1</ele>
        <time>2021-02-20T08:29:46Z</time>
      </trkpt>
      <trkpt lat="45.16542" lon="5.94223">
        <ele>2070.3</ele>
        <time>2021-02-20T08:29:47Z</time>
      </trkpt>
      <trkpt lat="45.16541" lon="5.94224">
        <ele>2070.4</ele>
        <time>2021-02-20T08:29:48Z</time>
      </trkpt>
      <trkpt lat="45.16541" lon="5.94225">
        <ele>2070.6</ele>
        <time>2021-02-20T08:29:49Z</time>
      </trkpt>
      <trkpt lat="45.1654" lon="5.94226">
        <ele>2070.7</ele>
        <time>2021-02-20T08:29:50Z</time>
      </trkpt>
      <trkpt lat="45.16539" lon="5.94228">
        <ele>2070.9</ele>
        <time>2021-02-20T08:29:51Z</time>
      </trkpt>
      <trkpt lat="45.16539" lon="5.94229">
        <ele>2071</ele>
        <time>2021-02-20T08:29:52Z</time>
      </trkpt>
      <trkpt lat="45.16538" lon="5.9423">
        <ele>2071.2</ele>
        <time>2021-02-20T08:29:53Z</time>
      </trkpt>
      <trkpt lat="45.16538" lon="5.94231">
        <ele>2071.3</ele>
        <time>2021-02-20T08:29:54Z</time>
      </trkpt>
      <trkpt lat="45.16537" lon="5.94232">
        <ele>2071.4</ele>
        <time>2021-02-20T08:29:55Z</time>
      </trkpt>
      <trkpt lat="45.16537" lon="5.94234">
        <ele>2071.6</ele>
        <time>2021-02-20T08:29:56Z</time>
      </trkpt>
      <trkpt lat="45.16536" lon="5.94235">
        <ele>2071.7</ele>
        <time>2021-02-20T08:29:57Z</time>
      </trkpt>
      <trkpt lat="45.16536" lon="5.94236">
        <ele>2071.8</ele>
        <time>2021-02-20T08:29:58Z</time>
      </trkpt>
      <trkpt lat="45.16535" lon="5.94237">
        <ele>2072</ele>
        <time>2021-02-20T08:29:59Z</time>
      </trkpt>
      <trkpt lat="45.16534" lon="5.94238">
        <ele>2072.1</ele>
        <time>2021-02-20T08:30:00Z</time>
      </trkpt>
      <trkpt lat="45.16534" lon="5.94238">
        <ele>2072.1</ele>
        <time>2021-02-20T08:30:01Z</time>
      </trkpt>
      <trkpt lat="45.16533" lon="5.94239">
        <ele>2072.2</ele>
        <time>2021-02-20T08:30:02Z</time>
      </trkpt>
      <trkpt lat="45.16533" lon="5.94239">
        <ele>2072.2</ele>
        <time>2021-02-20T08:30:03Z</time>
      </trkpt>
      <trkpt lat="45.16533" lon="5.94239">
        <ele>2072.2</ele>
        <time>2021-02-20T08:30:04Z</time>
      </trkpt>
      <trkpt lat="45.16532" lon="5.94239">
        <ele>2072.3</ele>
        <time>2021-02-20T08:30:05Z</time>
      </trkpt>
      <trkpt lat="45.16532" lon="5.94239">
        <ele>2072.3</ele>
        <time>2021-02-20T08:30:06Z</time>
      </trkpt>
      <trkpt lat="45.16532" lon="5.94239">
        <ele>2072.3</ele>
        <time>2021-02-20T08:30:07Z</time>
      </trkpt>
      <trkpt lat="45.16531" lon="5.9424">
        <ele>2072.4</ele>
        <time>2021-02-20T08:30:08Z</time>
      </trkpt>
      <trkpt lat="45.16531" lon="5.9424">
        <ele>2072.4</ele>
        <time>2021-02-20T08:30:09Z</time>
      </trkpt>
      <trkpt lat="45.1653" lon="5.9424">
        <ele>2072.4</ele>
        <time>2021-02-20T08:30:10Z</time>
      </trkpt>
      <trkpt lat="45.1653" lon="5.9424">
        <ele>2072.4</ele>
        <time>2021-02-20T08:30:11Z</time>
      </trkpt>
      <trkpt lat="45.1653" lon="5.9424">
        <ele>2072.5</ele>
        <time>2021-02-20T08:34:02Z</time>
      </trkpt>
      <trkpt lat="45.16529" lon="5.94241">
        <ele>2072.5</ele>
        <time>2021-02-20T08:34:03Z</time>
      </trkpt>
      <trkpt lat="45.16529" lon="5.94241">
        <ele>2072.5</ele>
        <time>2021-02-20T08:34:04Z</time>
      </trkpt>
      <trkpt lat="45.16528" lon="5.94241">
        <ele>2072.6</ele>
        <time>2021-02-20T08:34:05Z</time>
      </trkpt>
      <trkpt lat="45.16527" lon="5.94242">
        <ele>2072.6</ele>
        <time>2021-02-20T08:34:06Z</time>
      </trkpt>
      <trkpt lat="45.16526" lon="5.94243">
        <ele>2072.6</ele>
        <time>2021-02-20T08:34:07Z</time>
      </trkpt>
      <trkpt lat="45.16525" lon="5.94244">
        <ele>2072.6</ele>
        <time>2021-02-20T08:34:08Z</time>
      </trkpt>
      <trkpt lat="45.16525" lon="5.94246">
        <ele>2072.6</ele>
        <time>2021-02-20T08:34:09Z</time>
      </trkpt>
      <trkpt lat="45.16524" lon="5.94247">
        <ele>2072.6</ele>
        <time>2021-02-20T08:34:10Z</time>
      </trkpt>
      <trkpt lat="45.16523" lon="5.94248">
        <ele>2072.6</ele>
        <time>2021-02-20T08:34:11Z</time>
      </trkpt>
      <trkpt lat="45.16522" lon="5.94249">
        <ele>2072.6</ele>
        <time>2021-02-20T08:34:12Z</time>
      </trkpt>
      <trkpt lat="45.16522" lon="5.9425">
        <ele>2072.6</ele>
        <time>2021-02-20T08:34:13Z</time>
      </trkpt>
      <trkpt lat="45.16522" lon="5.9425">
        <ele>2072.6</ele>
        <time>2021-02-20T08:34:14Z</time>
      </trkpt>
      <trkpt lat="45.16522" lon="5.9425">
        <ele>2072.6</ele>
        <time>2021-02-20T08:34:15Z</time>
      </trkpt>
      <trkpt lat="45.16522" lon="5.9425">
        <ele>2072.6</ele>
        <time>2021-02-20T08:34:16Z</time>
      </trkpt>
      <trkpt lat="45.16522" lon="5.94253">
        <ele>2072.5</ele>
        <time>2021-02-20T08:34:17Z</time>
      </trkpt>
      <trkpt lat="45.1652" lon="5.94253">
        <ele>2072.5</ele>
        <time>2021-02-20T08:34:18Z</time>
      </trkpt>
      <trkpt lat="45.16519" lon="5.94252">
        <ele>2072.4</ele>
        <time>2021-02-20T08:34:19Z</time>
      </trkpt>
      <trkpt lat="45.16518" lon="5.94251">
        <ele>2072.4</ele>
        <time>2021-02-20T08:34:20Z</time>
      </trkpt>
      <trkpt lat="45.16516" lon="5.9425">
        <ele>2072.3</ele>
        <time>2021-02-20T08:34:21Z</time>
      </trkpt>
      <trkpt lat="45.16514" lon="5.94248">
        <ele>2072.3</ele>
        <time>2021-02-20T08:34:22Z</time>
      </trkpt>
      <trkpt lat="45.16513" lon="5.94247">
        <ele>2072.2</ele>
        <time>2021-02-20T08:34:23Z</time>
      </trkpt>
      <trkpt lat="45.16512" lon="5.94246">
        <ele>2072.2</ele>
        <time>2021-02-20T08:34:24Z</time>
      </trkpt>
      <trkpt lat="45.16511" lon="5.94246">
        <ele>2072.2</ele>
        <time>2021-02-20T08:34:25Z</time>
      </trkpt>
      <trkpt lat="45.16511" lon="5.94246">
        <ele>2072.2</ele>
        <time>2021-02-20T08:34:26Z</time>
      </trkpt>
      <trkpt lat="45.1651" lon="5.94245">
        <ele>2072.2</ele>
        <time>2021-02-20T08:34:27Z</time>
      </trkpt>
      <trkpt lat="45.1651" lon="5.94244">
        <ele>2072.1</ele>
        <time>2021-02-20T08:34:28Z</time>
      </trkpt>
      <trkpt lat="45.16509" lon="5.94243">
        <ele>2072.1</ele>
        <time>2021-02-20T08:34:29Z</time>
      </trkpt>
      <trkpt lat="45.16509" lon="5.94242">
        <ele>2072.1</ele>
        <time>2021-02-20T08:34:30Z</time>
      </trkpt>
      <trkpt lat="45.16508" lon="5.94241">
        <ele>2072.1</ele>
        <time>2021-02-20T08:34:31Z</time>
      </trkpt>
      <trkpt lat="45.16508" lon="5.9424">
        <ele>2072.1</ele>
        <time>2021-02-20T08:34:32Z</time>
      </trkpt>
      <trkpt lat="45.16507" lon="5.94239">
        <ele>2072.1</ele>
        <time>2021-02-20T08:34:33Z</time>
      </trkpt>
      <trkpt lat="45.16507" lon="5.94238">
        <ele>2072.1</ele>
        <time>2021-02-20T08:34:34Z</time>
      </trkpt>
      <trkpt lat="45.16506" lon="5.94239">
        <ele>2072.1</ele>
        <time>2021-02-20T08:34:35Z</time>
      </trkpt>
      <trkpt lat="45.16506" lon="5.94239">
        <ele>2072.1</ele>
        <time>2021-02-20T08:34:36Z</time>
      </trkpt>
      <trkpt lat="45.16505" lon="5.9424">
        <ele>2072.1</ele>
        <time>2021-02-20T08:34:37Z</time>
      </trkpt>
      <trkpt lat="45.16505" lon="5.9424">
        <ele>2072.1</ele>
        <time>2021-02-20T08:34:38Z</time>
      </trkpt>
      <trkpt lat="45.16504" lon="5.94241">
        <ele>2072.1</ele>
        <time>2021-02-20T08:34:39Z</time>
      </trkpt>
      <trkpt lat="45.16504" lon="5.94241">
        <ele>2072.1</ele>
        <time>2021-02-20T08:34:40Z</time>
      </trkpt>
      <trkpt lat="45.16503" lon="5.94242">
        <ele>2072.1</ele>
        <time>2021-02-20T08:34:41Z</time>
      </trkpt>
      <trkpt lat="45.16503" lon="5.94242">
        <ele>2072.6</ele>
        <time>2021-02-20T08:34:42Z</time>
      </trkpt>
      <trkpt lat="45.16502" lon="5.94243">
        <ele>2072.8</ele>
        <time>2021-02-20T08:34:43Z</time>
      </trkpt>
      <trkpt lat="45.16502" lon="5.94243">
        <ele>2072.9</ele>
        <time>2021-02-20T08:34:44Z</time>
      </trkpt>
      <trkpt lat="45.16501" lon="5.94244">
        <ele>2073</ele>
        <time>2021-02-20T08:36:11Z</time>
      </trkpt>
      <trkpt lat="45.165" lon="5.94244">
        <ele>2073.2</ele>
        <time>2021-02-20T08:36:12Z</time>
      </trkpt>
      <trkpt lat="45.165" lon="5.94245">
        <ele>2073.3</ele>
        <time>2021-02-20T08:36:13Z</time>
      </trkpt>
      <trkpt lat="45.16499" lon="5.94245">
        <ele>2073.5</ele>
        <time>2021-02-20T08:36:14Z</time>
      </trkpt>
      <trkpt lat="45.16499" lon="5.94246">
        <ele>2073.7</ele>
        <time>2021-02-20T08:36:15Z</time>
      </trkpt>
      <trkpt lat="45.16499" lon="5.94247">
        <ele>2073.9</ele>
        <time>2021-02-20T08:36:16Z</time>
      </trkpt>
      <trkpt lat="45.16499" lon="5.94248">
        <ele>2074</ele>
        <time>2021-02-20T08:36:17Z</time>
      </trkpt>
      <trkpt lat="45.16499" lon="5.94248">
        <ele>2074</ele>
        <time>2021-02-20T08:36:18Z</time>
      </trkpt>
      <trkpt lat="45.16498" lon="5.94249">
        <ele>2074.2</ele>
        <time>2021-02-20T08:36:19Z</time>
      </trkpt>
      <trkpt lat="45.16498" lon="5.9425">
        <ele>2074.4</ele>
        <time>2021-02-20T08:36:20Z</time>
      </trkpt>
      <trkpt lat="45.16498" lon="5.94251">
        <ele>2074.5</ele>
        <time>2021-02-20T08:36:21Z</time>
      </trkpt>
      <trkpt lat="45.16498" lon="5.94251">
        <ele>2074.6</ele>
        <time>2021-02-20T08:36:22Z</time>
      </trkpt>
      <trkpt lat="45.16498" lon="5.94252">
        <ele>2074.8</ele>
        <time>2021-02-20T08:36:23Z</time>
      </trkpt>
      <trkpt lat="45.16497" lon="5.94254">
        <ele>2075.1</ele>
        <time>2021-02-20T08:36:24Z</time>
      </trkpt>
      <trkpt lat="45.16497" lon="5.94255">
        <ele>2075.3</ele>
        <time>2021-02-20T08:36:25Z</time>
      </trkpt>
      <trkpt lat="45.16497" lon="5.94256">
        <ele>2075.5</ele>
        <time>2021-02-20T08:36:26Z</time>
      </trkpt>
      <trkpt lat="45.16496" lon="5.94257">
        <ele>2075.6</ele>
        <time>2021-02-20T08:36:27Z</time>
      </trkpt>
      <trkpt lat="45.16496" lon="5.94258">
        <ele>2075.8</ele>
        <time>2021-02-20T08:36:28Z</time>
      </trkpt>
      <trkpt lat="45.16495" lon="5.94258">
        <ele>2076</ele>
        <time>2021-02-20T08:36:29Z</time>
      </trkpt>
      <trkpt lat="45.16495" lon="5.94259">
        <ele>2076.2</ele>
        <time>2021-02-20T08:36:30Z</time>
      </trkpt>
      <trkpt lat="45.16494" lon="5.9426">
        <ele>2076.5</ele>
        <time>2021-02-20T08:36:31Z</time>
      </trkpt>
      <trkpt lat="45.16494" lon="5.94261">
        <ele>2076.7</ele>
        <time>2021-02-20T08:36:32Z</time>
      </trkpt>
      <trkpt lat="45.16493" lon="5.94262">
        <ele>2076.9</ele>
        <time>2021-02-20T08:36:33Z</time>
      </trkpt>
      <trkpt lat="45.16493" lon="5.94263">
        <ele>2077.1</ele>
        <time>2021-02-20T08:36:34Z</time>
      </trkpt>
      <trkpt lat="45.16492" lon="5.94263">
        <ele>2077.3</ele>
        <time>2021-02-20T08:36:35Z</time>
      </trkpt>
      <trkpt lat="45.16491" lon="5.94264">
        <ele>2077.5</ele>
        <time>2021-02-20T08:36:36Z</time>
      </trkpt>
      <trkpt lat="45.16491" lon="5.94265">
        <ele>2077.7</ele>
        <time>2021-02-20T08:36:37Z</time>
      </trkpt>
      <trkpt lat="45.1649" lon="5.94266">
        <ele>2080</ele>
        <time>2021-02-20T08:36:38Z</time>
      </trkpt>
      <trkpt lat="45.1649" lon="5.94267">
        <ele>2080.1</ele>
        <time>2021-02-20T08:36:39Z</time>
      </trkpt>
      <trkpt lat="45.16489" lon="5.94268">
        <ele>2080.3</ele>
        <time>2021-02-20T08:36:40Z</time>
      </trkpt>
      <trkpt lat="45.16489" lon="5.94269">
        <ele>2080.5</ele>
        <time>2021-02-20T08:36:41Z</time>
      </trkpt>
      <trkpt lat="45.16488" lon="5.9427">
        <ele>2080.7</ele>
        <time>2021-02-20T08:36:42Z</time>
      </trkpt>
      <trkpt lat="45.16487" lon="5.94271">
        <ele>2080.9</ele>
        <time>2021-02-20T08:36:43Z</time>
      </trkpt>
      <trkpt lat="45.16486" lon="5.94272">
        <ele>2081</ele>
        <time>2021-02-20T08:36:44Z</time>
      </trkpt>
      <trkpt lat="45.16486" lon="5.94272">
        <ele>2081.1</ele>
        <time>2021-02-20T08:36:45Z</time>
      </trkpt>
      <trkpt lat="45.16485" lon="5.94272">
        <ele>2081.2</ele>
        <time>2021-02-20T08:36:46Z</time>
      </trkpt>
      <trkpt lat="45.16485" lon="5.94273">
        <ele>2081.4</ele>
        <time>2021-02-20T08:36:47Z</time>
      </trkpt>
      <trkpt lat="45.16484" lon="5.94274">
        <ele>2081.6</ele>
        <time>2021-02-20T08:36:48Z</time>
      </trkpt>
      <trkpt lat="45.16483" lon="5.94275">
        <ele>2081.7</ele>
        <time>2021-02-20T08:36:49Z</time>
      </trkpt>
      <trkpt lat="45.16483" lon="5.94276">
        <ele>2081.9</ele>
        <time>2021-02-20T08:36:50Z</time>
      </trkpt>
      <trkpt lat="45.16483" lon="5.94277">
        <ele>2082.1</ele>
        <time>2021-02-20T08:36:51Z</time>
      </trkpt>
      <trkpt lat="45.16482" lon="5.94278">
        <ele>2082.2</ele>
        <time>2021-02-20T08:36:52Z</time>
      </trkpt>
      <trkpt lat="45.16482" lon="5.94279">
        <ele>2082.3</ele>
        <time>2021-02-20T08:36:53Z</time>
      </trkpt>
      <trkpt lat="45.16481" lon="5.9428">
        <ele>2082.5</ele>
        <time>2021-02-20T08:36:54Z</time>
      </trkpt>
      <trkpt lat="45.16481" lon="5.9428">
        <ele>2082.6</ele>
        <time>2021-02-20T08:36:55Z</time>
      </trkpt>
      <trkpt lat="45.16481" lon="5.94282">
        <ele>2082.8</ele>
        <time>2021-02-20T08:36:56Z</time>
      </trkpt>
      <trkpt lat="45.1648" lon="5.94283">
        <ele>2082.9</ele>
        <time>2021-02-20T08:36:57Z</time>
      </trkpt>
      <trkpt lat="45.1648" lon="5.94283">
        <ele>2083</ele>
        <time>2021-02-20T08:36:58Z</time>
      </trkpt>
      <trkpt lat="45.1648" lon="5.94284">
        <ele>2083.1</ele>
        <time>2021-02-20T08:36:59Z</time>
      </trkpt>
      <trkpt lat="45.1648" lon="5.94285">
        <ele>2083.2</ele>
        <time>2021-02-20T08:37:00Z</time>
      </trkpt>
      <trkpt lat="45.1648" lon="5.94286">
        <ele>2083.3</ele>
        <time>2021-02-20T08:37:01Z</time>
      </trkpt>
      <trkpt lat="45.1648" lon="5.94286">
        <ele>2083.4</ele>
        <time>2021-02-20T08:37:02Z</time>
      </trkpt>
      <trkpt lat="45.1648" lon="5.94287">
        <ele>2083.5</ele>
        <time>2021-02-20T08:37:03Z</time>
      </trkpt>
      <trkpt lat="45.16479" lon="5.94288">
        <ele>2083.6</ele>
        <time>2021-02-20T08:37:04Z</time>
      </trkpt>
      <trkpt lat="45.16479" lon="5.94289">
        <ele>2083.7</ele>
        <time>2021-02-20T08:37:05Z</time>
      </trkpt>
      <trkpt lat="45.16479" lon="5.94289">
        <ele>2083.8</ele>
        <time>2021-02-20T08:37:06Z</time>
      </trkpt>
      <trkpt lat="45.16479" lon="5.9429">
        <ele>2083.9</ele>
        <time>2021-02-20T08:37:07Z</time>
      </trkpt>
      <trkpt lat="45.16479" lon="5.94291">
        <ele>2084</ele>
        <time>2021-02-20T08:37:08Z</time>
      </trkpt>
      <trkpt lat="45.16479" lon="5.94292">
        <ele>2084.1</ele>
        <time>2021-02-20T08:37:21Z</time>
      </trkpt>
      <trkpt lat="45.16478" lon="5.94292">
        <ele>2084.2</ele>
        <time>2021-02-20T08:37:22Z</time>
      </trkpt>
      <trkpt lat="45.16478" lon="5.94293">
        <ele>2084.3</ele>
        <time>2021-02-20T08:37:23Z</time>
      </trkpt>
      <trkpt lat="45.16478" lon="5.94294">
        <ele>2084.4</ele>
        <time>2021-02-20T08:37:24Z</time>
      </trkpt>
      <trkpt lat="45.16478" lon="5.94295">
        <ele>2084.6</ele>
        <time>2021-02-20T08:37:25Z</time>
      </trkpt>
      <trkpt lat="45.16477" lon="5.94296">
        <ele>2084.7</ele>
        <time>2021-02-20T08:37:26Z</time>
      </trkpt>
      <trkpt lat="45.16476" lon="5.94296">
        <ele>2084.9</ele>
        <time>2021-02-20T08:37:27Z</time>
      </trkpt>
      <trkpt lat="45.16476" lon="5.94297">
        <ele>2085.1</ele>
        <time>2021-02-20T08:37:28Z</time>
      </trkpt>
      <trkpt lat="45.16475" lon="5.94298">
        <ele>2085.2</ele>
        <time>2021-02-20T08:37:29Z</time>
      </trkpt>
      <trkpt lat="45.16475" lon="5.94299">
        <ele>2085.4</ele>
        <time>2021-02-20T08:37:30Z</time>
      </trkpt>
      <trkpt lat="45.16474" lon="5.943">
        <ele>2085.6</ele>
        <time>2021-02-20T08:37:31Z</time>
      </trkpt>
      <trkpt lat="45.16474" lon="5.94302">
        <ele>2085.7</ele>
        <time>2021-02-20T08:37:32Z</time>
      </trkpt>
      <trkpt lat="45.16473" lon="5.94303">
        <ele>2085.9</ele>
        <time>2021-02-20T08:37:33Z</time>
      </trkpt>
      <trkpt lat="45.16473" lon="5.94303">
        <ele>2086</ele>
        <time>2021-02-20T08:37:34Z</time>
      </trkpt>
      <trkpt lat="45.16472" lon="5.94304">
        <ele>2086.2</ele>
        <time>2021-02-20T08:37:35Z</time>
      </trkpt>
      <trkpt lat="45.16472" lon="5.94304">
        <ele>2086.3</ele>
        <time>2021-02-20T08:37:36Z</time>
      </trkpt>
      <trkpt lat="45.16471" lon="5.94304">
        <ele>2086.4</ele>
        <time>2021-02-20T08:37:37Z</time>
      </trkpt>
      <trkpt lat="45.1647" lon="5.94305">
        <ele>2086.6</ele>
        <time>2021-02-20T08:37:38Z</time>
      </trkpt>
      <trkpt lat="45.16469" lon="5.94305">
        <ele>2086.8</ele>
        <time>2021-02-20T08:37:39Z</time>
      </trkpt>
      <trkpt lat="45.16468" lon="5.94306">
        <ele>2086.9</ele>
        <time>2021-02-20T08:37:40Z</time>
      </trkpt>
      <trkpt lat="45.16467" lon="5.94306">
        <ele>2087.1</ele>
        <time>2021-02-20T08:37:41Z</time>
      </trkpt>
      <trkpt lat="45.16467" lon="5.94306">
        <ele>2087.3</ele>
        <time>2021-02-20T08:37:42Z</time>
      </trkpt>
      <trkpt lat="45.16466" lon="5.94306">
        <ele>2087.3</ele>
        <time>2021-02-20T08:37:43Z</time>
      </trkpt>
      <trkpt lat="45.16465" lon="5.94306">
        <ele>2087.3</ele>
        <time>2021-02-20T08:37:44Z</time>
      </trkpt>
      <trkpt lat="45.16464" lon="5.94306">
        <ele>2087.5</ele>
        <time>2021-02-20T08:37:45Z</time>
      </trkpt>
      <trkpt lat="45.16463" lon="5.94306">
        <ele>2087.5</ele>
        <time>2021-02-20T08:37:46Z</time>
      </trkpt>
      <trkpt lat="45.16462" lon="5.94306">
        <ele>2087.5</ele>
        <time>2021-02-20T08:37:47Z</time>
      </trkpt>
      <trkpt lat="45.16461" lon="5.94305">
        <ele>2087.8</ele>
        <time>2021-02-20T08:37:48Z</time>
      </trkpt>
      <trkpt lat="45.1646" lon="5.94305">
        <ele>2087.1</ele>
        <time>2021-02-20T08:37:49Z</time>
      </trkpt>
      <trkpt lat="45.16459" lon="5.94304">
        <ele>2087.1</ele>
        <time>2021-02-20T08:37:50Z</time>
      </trkpt>
      <trkpt lat="45.16459" lon="5.94304">
        <ele>2087.1</ele>
        <time>2021-02-20T08:37:51Z</time>
      </trkpt>
      <trkpt lat="45.16458" lon="5.94304">
        <ele>2087.1</ele>
        <time>2021-02-20T08:37:52Z</time>
      </trkpt>
      <trkpt lat="45.16457" lon="5.94303">
        <ele>2087.5</ele>
        <time>2021-02-20T08:37:53Z</time>
      </trkpt>
      <trkpt lat="45.16457" lon="5.94302">
        <ele>2087.5</ele>
        <time>2021-02-20T08:37:54Z</time>
      </trkpt>
      <trkpt lat="45.16456" lon="5.94301">
        <ele>2087.5</ele>
        <time>2021-02-20T08:37:55Z</time>
      </trkpt>
      <trkpt lat="45.16455" lon="5.94301">
        <ele>2087.5</ele>
        <time>2021-02-20T08:37:56Z</time>
      </trkpt>
      <trkpt lat="45.16454" lon="5.943">
        <ele>2087.4</ele>
        <time>2021-02-20T08:37:57Z</time>
      </trkpt>
      <trkpt lat="45.16453" lon="5.94299">
        <ele>2087.4</ele>
        <time>2021-02-20T08:37:58Z</time>
      </trkpt>
      <trkpt lat="45.16453" lon="5.94299">
        <ele>2087.4</ele>
        <time>2021-02-20T08:37:59Z</time>
      </trkpt>
      <trkpt lat="45.16452" lon="5.94298">
        <ele>2088.2</ele>
        <time>2021-02-20T08:38:00Z</time>
      </trkpt>
      <trkpt lat="45.16452" lon="5.94298">
        <ele>2088.2</ele>
        <time>2021-02-20T08:38:01Z</time>
      </trkpt>
      <trkpt lat="45.16451" lon="5.94298">
        <ele>2088.2</ele>
        <time>2021-02-20T08:38:02Z</time>
      </trkpt>
      <trkpt lat="45.16451" lon="5.94297">
        <ele>2088.2</ele>
        <time>2021-02-20T08:38:03Z</time>
      </trkpt>
      <trkpt lat="45.1645" lon="5.94297">
        <ele>2088.2</ele>
        <time>2021-02-20T08:38:04Z</time>
      </trkpt>
      <trkpt lat="45.1645" lon="5.94296">
        <ele>2088.2</ele>
        <time>2021-02-20T08:38:05Z</time>
      </trkpt>
      <trkpt lat="45.1645" lon="5.94296">
        <ele>2088.2</ele>
        <time>2021-02-20T08:38:06Z</time>
      </trkpt>
      <trkpt lat="45.1645" lon="5.94296">
        <ele>2087.6</ele>
        <time>2021-02-20T08:38:07Z</time>
      </trkpt>
      <trkpt lat="45.16449" lon="5.94295">
        <ele>2087.6</ele>
        <time>2021-02-20T08:38:08Z</time>
      </trkpt>
      <trkpt lat="45.16449" lon="5.94295">
        <ele>2087.6</ele>
        <time>2021-02-20T08:38:09Z</time>
      </trkpt>
      <trkpt lat="45.16448" lon="5.94294">
        <ele>2088.5</ele>
        <time>2021-02-20T08:38:10Z</time>
      </trkpt>
      <trkpt lat="45.16448" lon="5.94293">
        <ele>2088.5</ele>
        <time>2021-02-20T08:38:11Z</time>
      </trkpt>
      <trkpt lat="45.16447" lon="5.94293">
        <ele>2088.5</ele>
        <time>2021-02-20T08:38:12Z</time>
      </trkpt>
      <trkpt lat="45.16446" lon="5.94292">
        <ele>2088.5</ele>
        <time>2021-02-20T08:38:13Z</time>
      </trkpt>
      <trkpt lat="45.16446" lon="5.94291">
        <ele>2089</ele>
        <time>2021-02-20T08:38:14Z</time>
      </trkpt>
      <trkpt lat="45.16446" lon="5.9429">
        <ele>2089</ele>
        <time>2021-02-20T08:38:15Z</time>
      </trkpt>
      <trkpt lat="45.16446" lon="5.9429">
        <ele>2089</ele>
        <time>2021-02-20T08:38:16Z</time>
      </trkpt>
      <trkpt lat="45.16446" lon="5.94289">
        <ele>2089</ele>
        <time>2021-02-20T08:38:17Z</time>
      </trkpt>
      <trkpt lat="45.16445" lon="5.94288">
        <ele>2089</ele>
        <time>2021-02-20T08:38:18Z</time>
      </trkpt>
      <trkpt lat="45.16445" lon="5.94288">
        <ele>2089</ele>
        <time>2021-02-20T08:38:19Z</time>
      </trkpt>
      <trkpt lat="45.16445" lon="5.94287">
        <ele>2088.5</ele>
        <time>2021-02-20T08:38:20Z</time>
      </trkpt>
      <trkpt lat="45.16446" lon="5.94287">
        <ele>2088.5</ele>
        <time>2021-02-20T08:38:21Z</time>
      </trkpt>
      <trkpt lat="45.16446" lon="5.94287">
        <ele>2088.5</ele>
        <time>2021-02-20T08:38:22Z</time>
      </trkpt>
      <trkpt lat="45.16446" lon="5.94287">
        <ele>2087.5</ele>
        <time>2021-02-20T08:38:23Z</time>
      </trkpt>
      <trkpt lat="45.16446" lon="5.94287">
        <ele>2087.5</ele>
        <time>2021-02-20T08:38:24Z</time>
      </trkpt>
      <trkpt lat="45.16446" lon="5.94287">
        <ele>2088</ele>
        <time>2021-02-20T08:38:25Z</time>
      </trkpt>
      <trkpt lat="45.16446" lon="5.94288">
        <ele>2089</ele>
        <time>2021-02-20T08:38:26Z</time>
      </trkpt>
      <trkpt lat="45.16446" lon="5.94289">
        <ele>2089</ele>
        <time>2021-02-20T08:38:27Z</time>
      </trkpt>
      <trkpt lat="45.16445" lon="5.9429">
        <ele>2089</ele>
        <time>2021-02-20T08:38:28Z</time>
      </trkpt>
      <trkpt lat="45.16445" lon="5.94291">
        <ele>2089</ele>
        <time>2021-02-20T08:38:29Z</time>
      </trkpt>
      <trkpt lat="45.16445" lon="5.94291">
        <ele>2089</ele>
        <time>2021-02-20T08:38:30Z</time>
      </trkpt>
      <trkpt lat="45.16445" lon="5.94291">
        <ele>2089</ele>
        <time>2021-02-20T08:38:31Z</time>
      </trkpt>
      <trkpt lat="45.16445" lon="5.94292">
        <ele>2089.5</ele>
        <time>2021-02-20T08:38:32Z</time>
      </trkpt>
      <trkpt lat="45.16444" lon="5.94293">
        <ele>2089.5</ele>
        <time>2021-02-20T08:38:33Z</time>
      </trkpt>
      <trkpt lat="45.16444" lon="5.94293">
        <ele>2089.5</ele>
        <time>2021-02-20T08:38:34Z</time>
      </trkpt>
      <trkpt lat="45.16443" lon="5.94294">
        <ele>2089.5</ele>
        <time>2021-02-20T08:38:35Z</time>
      </trkpt>
      <trkpt lat="45.16443" lon="5.94294">
        <ele>2090.6</ele>
        <time>2021-02-20T08:38:36Z</time>
      </trkpt>
      <trkpt lat="45.16442" lon="5.94295">
        <ele>2090.6</ele>
        <time>2021-02-20T08:38:37Z</time>
      </trkpt>
      <trkpt lat="45.16442" lon="5.94295">
        <ele>2090.6</ele>
        <time>2021-02-20T08:38:38Z</time>
      </trkpt>
      <trkpt lat="45.16442" lon="5.94296">
        <ele>2091.1</ele>
        <time>2021-02-20T08:38:39Z</time>
      </trkpt>
      <trkpt lat="45.16441" lon="5.94297">
        <ele>2091.1</ele>
        <time>2021-02-20T08:38:40Z</time>
      </trkpt>
      <trkpt lat="45.16441" lon="5.94298">
        <ele>2091.1</ele>
        <time>2021-02-20T08:38:41Z</time>
      </trkpt>
      <trkpt lat="45.16441" lon="5.94298">
        <ele>2091.1</ele>
        <time>2021-02-20T08:38:42Z</time>
      </trkpt>
      <trkpt lat="45.1644" lon="5.94299">
        <ele>2091.1</ele>
        <time>2021-02-20T08:38:43Z</time>
      </trkpt>
      <trkpt lat="45.1644" lon="5.94299">
        <ele>2091.1</ele>
        <time>2021-02-20T08:38:44Z</time>
      </trkpt>
      <trkpt lat="45.16439" lon="5.943">
        <ele>2092.3</ele>
        <time>2021-02-20T08:38:45Z</time>
      </trkpt>
      <trkpt lat="45.16439" lon="5.94301">
        <ele>2092.8</ele>
        <time>2021-02-20T08:38:46Z</time>
      </trkpt>
      <trkpt lat="45.16439" lon="5.94301">
        <ele>2092.8</ele>
        <time>2021-02-20T08:38:47Z</time>
      </trkpt>
      <trkpt lat="45.16438" lon="5.94302">
        <ele>2092.8</ele>
        <time>2021-02-20T08:38:48Z</time>
      </trkpt>
      <trkpt lat="45.16438" lon="5.94302">
        <ele>2092.8</ele>
        <time>2021-02-20T08:38:49Z</time>
      </trkpt>
      <trkpt lat="45.16437" lon="5.94303">
        <ele>2092.8</ele>
        <time>2021-02-20T08:38:50Z</time>
      </trkpt>
      <trkpt lat="45.16437" lon="5.94303">
        <ele>2094</ele>
        <time>2021-02-20T08:38:51Z</time>
      </trkpt>
      <trkpt lat="45.16436" lon="5.94304">
        <ele>2094</ele>
        <time>2021-02-20T08:38:52Z</time>
      </trkpt>
      <trkpt lat="45.16436" lon="5.94304">
        <ele>2094</ele>
        <time>2021-02-20T08:38:53Z</time>
      </trkpt>
      <trkpt lat="45.16435" lon="5.94305">
        <ele>2094.6</ele>
        <time>2021-02-20T08:38:54Z</time>
      </trkpt>
      <trkpt lat="45.16435" lon="5.94305">
        <ele>2094.6</ele>
        <time>2021-02-20T08:38:55Z</time>
      </trkpt>
      <trkpt lat="45.16434" lon="5.94306">
        <ele>2094.6</ele>
        <time>2021-02-20T08:38:56Z</time>
      </trkpt>
      <trkpt lat="45.16434" lon="5.94308">
        <ele>2094.6</ele>
        <time>2021-02-20T08:38:57Z</time>
      </trkpt>
      <trkpt lat="45.16434" lon="5.94309">
        <ele>2095.8</ele>
        <time>2021-02-20T08:38:58Z</time>
      </trkpt>
      <trkpt lat="45.16434" lon="5.9431">
        <ele>2096.4</ele>
        <time>2021-02-20T08:38:59Z</time>
      </trkpt>
      <trkpt lat="45.16434" lon="5.9431">
        <ele>2096.4</ele>
        <time>2021-02-20T08:39:00Z</time>
      </trkpt>
      <trkpt lat="45.16433" lon="5.94311">
        <ele>2096.4</ele>
        <time>2021-02-20T08:39:01Z</time>
      </trkpt>
      <trkpt lat="45.16433" lon="5.94311">
        <ele>2096.4</ele>
        <time>2021-02-20T08:39:02Z</time>
      </trkpt>
      <trkpt lat="45.16433" lon="5.94312">
        <ele>2096.4</ele>
        <time>2021-02-20T08:39:03Z</time>
      </trkpt>
      <trkpt lat="45.16432" lon="5.94312">
        <ele>2096.4</ele>
        <time>2021-02-20T08:39:04Z</time>
      </trkpt>
      <trkpt lat="45.16432" lon="5.94312">
        <ele>2096.4</ele>
        <time>2021-02-20T08:39:05Z</time>
      </trkpt>
      <trkpt lat="45.16432" lon="5.94313">
        <ele>2096.4</ele>
        <time>2021-02-20T08:39:06Z</time>
      </trkpt>
      <trkpt lat="45.16431" lon="5.94314">
        <ele>2097</ele>
        <time>2021-02-20T08:39:07Z</time>
      </trkpt>
      <trkpt lat="45.16431" lon="5.94315">
        <ele>2097</ele>
        <time>2021-02-20T08:39:08Z</time>
      </trkpt>
      <trkpt lat="45.16431" lon="5.94316">
        <ele>2097</ele>
        <time>2021-02-20T08:39:09Z</time>
      </trkpt>
      <trkpt lat="45.16431" lon="5.94317">
        <ele>2097</ele>
        <time>2021-02-20T08:39:10Z</time>
      </trkpt>
      <trkpt lat="45.16431" lon="5.94318">
        <ele>2098.6</ele>
        <time>2021-02-20T08:39:11Z</time>
      </trkpt>
      <trkpt lat="45.16431" lon="5.94319">
        <ele>2098.6</ele>
        <time>2021-02-20T08:39:12Z</time>
      </trkpt>
      <trkpt lat="45.16431" lon="5.9432">
        <ele>2098.6</ele>
        <time>2021-02-20T08:39:13Z</time>
      </trkpt>
      <trkpt lat="45.16431" lon="5.94321">
        <ele>2098.6</ele>
        <time>2021-02-20T08:39:14Z</time>
      </trkpt>
      <trkpt lat="45.16431" lon="5.94321">
        <ele>2098.6</ele>
        <time>2021-02-20T08:39:15Z</time>
      </trkpt>
      <trkpt lat="45.16431" lon="5.94323">
        <ele>2099.1</ele>
        <time>2021-02-20T08:39:16Z</time>
      </trkpt>
      <trkpt lat="45.16431" lon="5.94324">
        <ele>2098.1</ele>
        <time>2021-02-20T08:39:17Z</time>
      </trkpt>
      <trkpt lat="45.16431" lon="5.94325">
        <ele>2098.1</ele>
        <time>2021-02-20T08:39:18Z</time>
      </trkpt>
      <trkpt lat="45.16431" lon="5.94325">
        <ele>2098.1</ele>
        <time>2021-02-20T08:39:19Z</time>
      </trkpt>
      <trkpt lat="45.16431" lon="5.94326">
        <ele>2099.1</ele>
        <time>2021-02-20T08:39:20Z</time>
      </trkpt>
      <trkpt lat="45.16431" lon="5.94326">
        <ele>2099.6</ele>
        <time>2021-02-20T08:39:21Z</time>
      </trkpt>
      <trkpt lat="45.16431" lon="5.94327">
        <ele>2099.6</ele>
        <time>2021-02-20T08:39:22Z</time>
      </trkpt>
      <trkpt lat="45.16431" lon="5.94328">
        <ele>2099.6</ele>
        <time>2021-02-20T08:39:23Z</time>
      </trkpt>
      <trkpt lat="45.1643" lon="5.94329">
        <ele>2099.6</ele>
        <time>2021-02-20T08:39:24Z</time>
      </trkpt>
      <trkpt lat="45.1643" lon="5.94329">
        <ele>2099.6</ele>
        <time>2021-02-20T08:39:25Z</time>
      </trkpt>
      <trkpt lat="45.1643" lon="5.94329">
        <ele>2099.6</ele>
        <time>2021-02-20T08:39:26Z</time>
      </trkpt>
      <trkpt lat="45.1643" lon="5.94329">
        <ele>2099.6</ele>
        <time>2021-02-20T08:39:27Z</time>
      </trkpt>
      <trkpt lat="45.1643" lon="5.94328">
        <ele>2099.6</ele>
        <time>2021-02-20T08:39:28Z</time>
      </trkpt>
      <trkpt lat="45.1643" lon="5.94328">
        <ele>2099.6</ele>
        <time>2021-02-20T08:39:29Z</time>
      </trkpt>
      <trkpt lat="45.1643" lon="5.94327">
        <ele>2099.6</ele>
        <time>2021-02-20T08:39:30Z</time>
      </trkpt>
      <trkpt lat="45.16429" lon="5.94326">
        <ele>2099.6</ele>
        <time>2021-02-20T08:39:31Z</time>
      </trkpt>
      <trkpt lat="45.16429" lon="5.94326">
        <ele>2099.1</ele>
        <time>2021-02-20T08:39:32Z</time>
      </trkpt>
      <trkpt lat="45.16428" lon="5.94325">
        <ele>2099.1</ele>
        <time>2021-02-20T08:39:33Z</time>
      </trkpt>
      <trkpt lat="45.16428" lon="5.94324">
        <ele>2100.3</ele>
        <time>2021-02-20T08:39:34Z</time>
      </trkpt>
      <trkpt lat="45.16427" lon="5.94324">
        <ele>2100.3</ele>
        <time>2021-02-20T08:39:35Z</time>
      </trkpt>
      <trkpt lat="45.16426" lon="5.94323">
        <ele>2100.3</ele>
        <time>2021-02-20T08:39:36Z</time>
      </trkpt>
      <trkpt lat="45.16426" lon="5.94322">
        <ele>2100.3</ele>
        <time>2021-02-20T08:39:37Z</time>
      </trkpt>
      <trkpt lat="45.16425" lon="5.94321">
        <ele>2099.8</ele>
        <time>2021-02-20T08:39:38Z</time>
      </trkpt>
      <trkpt lat="45.16424" lon="5.94321">
        <ele>2101.1</ele>
        <time>2021-02-20T08:39:39Z</time>
      </trkpt>
      <trkpt lat="45.16424" lon="5.94321">
        <ele>2101.1</ele>
        <time>2021-02-20T08:39:40Z</time>
      </trkpt>
      <trkpt lat="45.16423" lon="5.9432">
        <ele>2101.1</ele>
        <time>2021-02-20T08:39:41Z</time>
      </trkpt>
      <trkpt lat="45.16423" lon="5.9432">
        <ele>2101.1</ele>
        <time>2021-02-20T08:39:42Z</time>
      </trkpt>
      <trkpt lat="45.16422" lon="5.94319">
        <ele>2101.1</ele>
        <time>2021-02-20T08:39:43Z</time>
      </trkpt>
      <trkpt lat="45.16421" lon="5.94319">
        <ele>2102.4</ele>
        <time>2021-02-20T08:39:44Z</time>
      </trkpt>
      <trkpt lat="45.16421" lon="5.94318">
        <ele>2102.4</ele>
        <time>2021-02-20T08:39:45Z</time>
      </trkpt>
      <trkpt lat="45.1642" lon="5.94317">
        <ele>2102</ele>
        <time>2021-02-20T08:39:46Z</time>
      </trkpt>
      <trkpt lat="45.1642" lon="5.94317">
        <ele>2102</ele>
        <time>2021-02-20T08:39:47Z</time>
      </trkpt>
      <trkpt lat="45.16419" lon="5.94316">
        <ele>2102</ele>
        <time>2021-02-20T08:39:48Z</time>
      </trkpt>
      <trkpt lat="45.16419" lon="5.94315">
        <ele>2103.5</ele>
        <time>2021-02-20T08:39:49Z</time>
      </trkpt>
      <trkpt lat="45.16418" lon="5.94314">
        <ele>2103.5</ele>
        <time>2021-02-20T08:39:50Z</time>
      </trkpt>
      <trkpt lat="45.16418" lon="5.94313">
        <ele>2103.1</ele>
        <time>2021-02-20T08:39:51Z</time>
      </trkpt>
      <trkpt lat="45.16417" lon="5.94312">
        <ele>2103.1</ele>
        <time>2021-02-20T08:39:52Z</time>
      </trkpt>
      <trkpt lat="45.16417" lon="5.94312">
        <ele>2103.1</ele>
        <time>2021-02-20T08:39:53Z</time>
      </trkpt>
      <trkpt lat="45.16417" lon="5.94311">
        <ele>2103.1</ele>
        <time>2021-02-20T08:39:54Z</time>
      </trkpt>
      <trkpt lat="45.16417" lon="5.9431">
        <ele>2103.1</ele>
        <time>2021-02-20T08:39:55Z</time>
      </trkpt>
      <trkpt lat="45.16416" lon="5.9431">
        <ele>2103.1</ele>
        <time>2021-02-20T08:39:56Z</time>
      </trkpt>
      <trkpt lat="45.16416" lon="5.94309">
        <ele>2102.7</ele>
        <time>2021-02-20T08:39:57Z</time>
      </trkpt>
      <trkpt lat="45.16415" lon="5.94308">
        <ele>2104.4</ele>
        <time>2021-02-20T08:39:58Z</time>
      </trkpt>
      <trkpt lat="45.16414" lon="5.94307">
        <ele>2104.4</ele>
        <time>2021-02-20T08:39:59Z</time>
      </trkpt>
      <trkpt lat="45.16414" lon="5.94306">
        <ele>2104.4</ele>
        <time>2021-02-20T08:40:00Z</time>
      </trkpt>
      <trkpt lat="45.16413" lon="5.94306">
        <ele>2104.4</ele>
        <time>2021-02-20T08:40:01Z</time>
      </trkpt>
      <trkpt lat="45.16413" lon="5.94305">
        <ele>2106.1</ele>
        <time>2021-02-20T08:40:02Z</time>
      </trkpt>
      <trkpt lat="45.16412" lon="5.94304">
        <ele>2105.8</ele>
        <time>2021-02-20T08:40:03Z</time>
      </trkpt>
      <trkpt lat="45.16412" lon="5.94304">
        <ele>2105.8</ele>
        <time>2021-02-20T08:40:04Z</time>
      </trkpt>
      <trkpt lat="45.16412" lon="5.94303">
        <ele>2105.8</ele>
        <time>2021-02-20T08:40:05Z</time>
      </trkpt>
      <trkpt lat="45.16412" lon="5.94303">
        <ele>2105.8</ele>
        <time>2021-02-20T08:40:06Z</time>
      </trkpt>
      <trkpt lat="45.16412" lon="5.94302">
        <ele>2105.8</ele>
        <time>2021-02-20T08:40:07Z</time>
      </trkpt>
      <trkpt lat="45.16412" lon="5.94302">
        <ele>2105.8</ele>
        <time>2021-02-20T08:40:08Z</time>
      </trkpt>
      <trkpt lat="45.16412" lon="5.94301">
        <ele>2105.8</ele>
        <time>2021-02-20T08:40:09Z</time>
      </trkpt>
      <trkpt lat="45.16411" lon="5.943">
        <ele>2105.6</ele>
        <time>2021-02-20T08:40:10Z</time>
      </trkpt>
      <trkpt lat="45.16411" lon="5.943">
        <ele>2105.6</ele>
        <time>2021-02-20T08:40:11Z</time>
      </trkpt>
      <trkpt lat="45.16412" lon="5.943">
        <ele>2105.6</ele>
        <time>2021-02-20T08:40:12Z</time>
      </trkpt>
      <trkpt lat="45.16412" lon="5.943">
        <ele>2105.6</ele>
        <time>2021-02-20T08:40:13Z</time>
      </trkpt>
      <trkpt lat="45.16412" lon="5.943">
        <ele>2105.6</ele>
        <time>2021-02-20T08:40:14Z</time>
      </trkpt>
      <trkpt lat="45.16412" lon="5.943">
        <ele>2105.6</ele>
        <time>2021-02-20T08:40:15Z</time>
      </trkpt>
      <trkpt lat="45.16412" lon="5.943">
        <ele>2105.6</ele>
        <time>2021-02-20T08:40:16Z</time>
      </trkpt>
      <trkpt lat="45.16415" lon="5.943">
        <ele>2103.8</ele>
        <time>2021-02-20T08:40:17Z</time>
      </trkpt>
      <trkpt lat="45.16415" lon="5.94302">
        <ele>2104</ele>
        <time>2021-02-20T08:40:18Z</time>
      </trkpt>
      <trkpt lat="45.16415" lon="5.94303">
        <ele>2104</ele>
        <time>2021-02-20T08:40:19Z</time>
      </trkpt>
      <trkpt lat="45.16415" lon="5.94304">
        <ele>2104</ele>
        <time>2021-02-20T08:40:20Z</time>
      </trkpt>
      <trkpt lat="45.16415" lon="5.94305">
        <ele>2104.4</ele>
        <time>2021-02-20T08:40:21Z</time>
      </trkpt>
      <trkpt lat="45.16415" lon="5.94306">
        <ele>2104.4</ele>
        <time>2021-02-20T08:40:24Z</time>
      </trkpt>
      <trkpt lat="45.16415" lon="5.94307">
        <ele>2104.4</ele>
        <time>2021-02-20T08:40:25Z</time>
      </trkpt>
      <trkpt lat="45.16415" lon="5.94308">
        <ele>2104.4</ele>
        <time>2021-02-20T08:40:26Z</time>
      </trkpt>
      <trkpt lat="45.16415" lon="5.94309">
        <ele>2104.4</ele>
        <time>2021-02-20T08:40:27Z</time>
      </trkpt>
      <trkpt lat="45.16415" lon="5.9431">
        <ele>2104.7</ele>
        <time>2021-02-20T08:40:28Z</time>
      </trkpt>
      <trkpt lat="45.16415" lon="5.94311">
        <ele>2104.7</ele>
        <time>2021-02-20T08:40:29Z</time>
      </trkpt>
      <trkpt lat="45.16415" lon="5.94311">
        <ele>2104.7</ele>
        <time>2021-02-20T08:40:30Z</time>
      </trkpt>
      <trkpt lat="45.16415" lon="5.94312">
        <ele>2104.7</ele>
        <time>2021-02-20T08:40:31Z</time>
      </trkpt>
      <trkpt lat="45.16415" lon="5.94313">
        <ele>2104.7</ele>
        <time>2021-02-20T08:40:32Z</time>
      </trkpt>
      <trkpt lat="45.16416" lon="5.94314">
        <ele>2105.1</ele>
        <time>2021-02-20T08:40:33Z</time>
      </trkpt>
      <trkpt lat="45.16416" lon="5.94315">
        <ele>2103.5</ele>
        <time>2021-02-20T08:40:34Z</time>
      </trkpt>
      <trkpt lat="45.16416" lon="5.94316">
        <ele>2103.5</ele>
        <time>2021-02-20T08:40:35Z</time>
      </trkpt>
      <trkpt lat="45.16416" lon="5.94317">
        <ele>2103.5</ele>
        <time>2021-02-20T08:40:36Z</time>
      </trkpt>
      <trkpt lat="45.16416" lon="5.94318">
        <ele>2103.9</ele>
        <time>2021-02-20T08:40:37Z</time>
      </trkpt>
      <trkpt lat="45.16415" lon="5.94319">
        <ele>2105.4</ele>
        <time>2021-02-20T08:40:38Z</time>
      </trkpt>
      <trkpt lat="45.16415" lon="5.9432">
        <ele>2105.4</ele>
        <time>2021-02-20T08:40:39Z</time>
      </trkpt>
      <trkpt lat="45.16415" lon="5.94321">
        <ele>2105.4</ele>
        <time>2021-02-20T08:40:40Z</time>
      </trkpt>
      <trkpt lat="45.16415" lon="5.94322">
        <ele>2105.4</ele>
        <time>2021-02-20T08:40:41Z</time>
      </trkpt>
      <trkpt lat="45.16415" lon="5.94322">
        <ele>2105.8</ele>
        <time>2021-02-20T08:40:42Z</time>
      </trkpt>
      <trkpt lat="45.16415" lon="5.94323">
        <ele>2105.8</ele>
        <time>2021-02-20T08:40:43Z</time>
      </trkpt>
      <trkpt lat="45.16415" lon="5.94324">
        <ele>2105.8</ele>
        <time>2021-02-20T08:40:44Z</time>
      </trkpt>
      <trkpt lat="45.16416" lon="5.94324">
        <ele>2105.8</ele>
        <time>2021-02-20T08:40:45Z</time>
      </trkpt>
      <trkpt lat="45.16416" lon="5.94325">
        <ele>2104.2</ele>
        <time>2021-02-20T08:40:46Z</time>
      </trkpt>
      <trkpt lat="45.16416" lon="5.94326">
        <ele>2104.6</ele>
        <time>2021-02-20T08:40:47Z</time>
      </trkpt>
      <trkpt lat="45.16416" lon="5.94328">
        <ele>2106.2</ele>
        <time>2021-02-20T08:40:48Z</time>
      </trkpt>
      <trkpt lat="45.16415" lon="5.94329">
        <ele>2106.2</ele>
        <time>2021-02-20T08:40:49Z</time>
      </trkpt>
      <trkpt lat="45.16415" lon="5.9433">
        <ele>2106.2</ele>
        <time>2021-02-20T08:40:50Z</time>
      </trkpt>
      <trkpt lat="45.16415" lon="5.94331">
        <ele>2106.5</ele>
        <time>2021-02-20T08:40:51Z</time>
      </trkpt>
      <trkpt lat="45.16415" lon="5.94332">
        <ele>2106.5</ele>
        <time>2021-02-20T08:40:52Z</time>
      </trkpt>
      <trkpt lat="45.16416" lon="5.94333">
        <ele>2106.5</ele>
        <time>2021-02-20T08:40:53Z</time>
      </trkpt>
      <trkpt lat="45.16416" lon="5.94334">
        <ele>2105</ele>
        <time>2021-02-20T08:40:54Z</time>
      </trkpt>
      <trkpt lat="45.16416" lon="5.94335">
        <ele>2105.4</ele>
        <time>2021-02-20T08:40:55Z</time>
      </trkpt>
      <trkpt lat="45.16416" lon="5.94335">
        <ele>2105.4</ele>
        <time>2021-02-20T08:40:56Z</time>
      </trkpt>
      <trkpt lat="45.16416" lon="5.94336">
        <ele>2105.4</ele>
        <time>2021-02-20T08:40:57Z</time>
      </trkpt>
      <trkpt lat="45.16416" lon="5.94337">
        <ele>2105.4</ele>
        <time>2021-02-20T08:40:58Z</time>
      </trkpt>
      <trkpt lat="45.16417" lon="5.94337">
        <ele>2105.4</ele>
        <time>2021-02-20T08:40:59Z</time>
      </trkpt>
      <trkpt lat="45.16417" lon="5.94337">
        <ele>2105.4</ele>
        <time>2021-02-20T08:41:00Z</time>
      </trkpt>
      <trkpt lat="45.16417" lon="5.94337">
        <ele>2105.4</ele>
        <time>2021-02-20T08:41:01Z</time>
      </trkpt>
      <trkpt lat="45.16417" lon="5.94337">
        <ele>2105.4</ele>
        <time>2021-02-20T08:41:02Z</time>
      </trkpt>
      <trkpt lat="45.16417" lon="5.94337">
        <ele>2105.4</ele>
        <time>2021-02-20T08:41:03Z</time>
      </trkpt>
      <trkpt lat="45.16417" lon="5.94337">
        <ele>2105.4</ele>
        <time>2021-02-20T08:41:04Z</time>
      </trkpt>
      <trkpt lat="45.16417" lon="5.94338">
        <ele>2105.4</ele>
        <time>2021-02-20T08:41:05Z</time>
      </trkpt>
      <trkpt lat="45.16417" lon="5.94339">
        <ele>2105.4</ele>
        <time>2021-02-20T08:41:06Z</time>
      </trkpt>
      <trkpt lat="45.16416" lon="5.9434">
        <ele>2105.8</ele>
        <time>2021-02-20T08:41:07Z</time>
      </trkpt>
      <trkpt lat="45.16416" lon="5.94341">
        <ele>2105.8</ele>
        <time>2021-02-20T08:41:08Z</time>
      </trkpt>
      <trkpt lat="45.16416" lon="5.94342">
        <ele>2105.8</ele>
        <time>2021-02-20T08:41:09Z</time>
      </trkpt>
      <trkpt lat="45.16416" lon="5.94342">
        <ele>2105.8</ele>
        <time>2021-02-20T08:41:10Z</time>
      </trkpt>
      <trkpt lat="45.16416" lon="5.94343">
        <ele>2105.8</ele>
        <time>2021-02-20T08:41:11Z</time>
      </trkpt>
      <trkpt lat="45.16416" lon="5.94343">
        <ele>2106.2</ele>
        <time>2021-02-20T08:41:12Z</time>
      </trkpt>
      <trkpt lat="45.16416" lon="5.94344">
        <ele>2106.2</ele>
        <time>2021-02-20T08:41:13Z</time>
      </trkpt>
      <trkpt lat="45.16416" lon="5.94344">
        <ele>2106.2</ele>
        <time>2021-02-20T08:41:14Z</time>
      </trkpt>
      <trkpt lat="45.16416" lon="5.94345">
        <ele>2106.2</ele>
        <time>2021-02-20T08:41:15Z</time>
      </trkpt>
      <trkpt lat="45.16416" lon="5.94346">
        <ele>2106.2</ele>
        <time>2021-02-20T08:41:16Z</time>
      </trkpt>
      <trkpt lat="45.16416" lon="5.94347">
        <ele>2106.2</ele>
        <time>2021-02-20T08:41:17Z</time>
      </trkpt>
      <trkpt lat="45.16416" lon="5.94347">
        <ele>2106.2</ele>
        <time>2021-02-20T08:41:18Z</time>
      </trkpt>
      <trkpt lat="45.16417" lon="5.94348">
        <ele>2106.7</ele>
        <time>2021-02-20T08:41:19Z</time>
      </trkpt>
      <trkpt lat="45.16417" lon="5.94348">
        <ele>2106.7</ele>
        <time>2021-02-20T08:41:20Z</time>
      </trkpt>
      <trkpt lat="45.16418" lon="5.94349">
        <ele>2106.7</ele>
        <time>2021-02-20T08:41:21Z</time>
      </trkpt>
      <trkpt lat="45.16418" lon="5.9435">
        <ele>2106.7</ele>
        <time>2021-02-20T08:41:22Z</time>
      </trkpt>
      <trkpt lat="45.16418" lon="5.94351">
        <ele>2106.7</ele>
        <time>2021-02-20T08:41:23Z</time>
      </trkpt>
      <trkpt lat="45.16418" lon="5.94352">
        <ele>2107.3</ele>
        <time>2021-02-20T08:41:24Z</time>
      </trkpt>
      <trkpt lat="45.16418" lon="5.94353">
        <ele>2107.3</ele>
        <time>2021-02-20T08:41:25Z</time>
      </trkpt>
      <trkpt lat="45.16417" lon="5.94354">
        <ele>2107.3</ele>
        <time>2021-02-20T08:41:26Z</time>
      </trkpt>
      <trkpt lat="45.16417" lon="5.94354">
        <ele>2107.3</ele>
        <time>2021-02-20T08:41:27Z</time>
      </trkpt>
      <trkpt lat="45.16417" lon="5.94355">
        <ele>2107.3</ele>
        <time>2021-02-20T08:41:28Z</time>
      </trkpt>
      <trkpt lat="45.16418" lon="5.94356">
        <ele>2107.3</ele>
        <time>2021-02-20T08:41:29Z</time>
      </trkpt>
      <trkpt lat="45.16418" lon="5.94357">
        <ele>2107.9</ele>
        <time>2021-02-20T08:41:30Z</time>
      </trkpt>
      <trkpt lat="45.16418" lon="5.94357">
        <ele>2107.9</ele>
        <time>2021-02-20T08:41:31Z</time>
      </trkpt>
      <trkpt lat="45.16418" lon="5.94358">
        <ele>2107.9</ele>
        <time>2021-02-20T08:41:32Z</time>
      </trkpt>
      <trkpt lat="45.16418" lon="5.94359">
        <ele>2107.9</ele>
        <time>2021-02-20T08:41:33Z</time>
      </trkpt>
      <trkpt lat="45.16418" lon="5.94361">
        <ele>2108.9</ele>
        <time>2021-02-20T08:41:34Z</time>
      </trkpt>
      <trkpt lat="45.16418" lon="5.94361">
        <ele>2108.9</ele>
        <time>2021-02-20T08:41:35Z</time>
      </trkpt>
      <trkpt lat="45.16419" lon="5.94362">
        <ele>2108.9</ele>
        <time>2021-02-20T08:41:36Z</time>
      </trkpt>
      <trkpt lat="45.1642" lon="5.94362">
        <ele>2107.8</ele>
        <time>2021-02-20T08:41:37Z</time>
      </trkpt>
      <trkpt lat="45.16421" lon="5.94362">
        <ele>2107.8</ele>
        <time>2021-02-20T08:41:38Z</time>
      </trkpt>
      <trkpt lat="45.16421" lon="5.94363">
        <ele>2107.8</ele>
        <time>2021-02-20T08:41:39Z</time>
      </trkpt>
      <trkpt lat="45.16421" lon="5.94363">
        <ele>2107.8</ele>
        <time>2021-02-20T08:41:40Z</time>
      </trkpt>
      <trkpt lat="45.16421" lon="5.94364">
        <ele>2107.8</ele>
        <time>2021-02-20T08:41:41Z</time>
      </trkpt>
      <trkpt lat="45.16421" lon="5.94365">
        <ele>2108.5</ele>
        <time>2021-02-20T08:41:42Z</time>
      </trkpt>
      <trkpt lat="45.16421" lon="5.94365">
        <ele>2108.5</ele>
        <time>2021-02-20T08:41:43Z</time>
      </trkpt>
      <trkpt lat="45.16421" lon="5.94365">
        <ele>2108.5</ele>
        <time>2021-02-20T08:41:44Z</time>
      </trkpt>
      <trkpt lat="45.16421" lon="5.94365">
        <ele>2108.5</ele>
        <time>2021-02-20T08:41:45Z</time>
      </trkpt>
      <trkpt lat="45.16421" lon="5.94366">
        <ele>2108.5</ele>
        <time>2021-02-20T08:41:46Z</time>
      </trkpt>
      <trkpt lat="45.16421" lon="5.94366">
        <ele>2108.5</ele>
        <time>2021-02-20T08:41:47Z</time>
      </trkpt>
      <trkpt lat="45.16422" lon="5.94366">
        <ele>2107.5</ele>
        <time>2021-02-20T08:41:48Z</time>
      </trkpt>
      <trkpt lat="45.16422" lon="5.94366">
        <ele>2107.5</ele>
        <time>2021-02-20T08:41:49Z</time>
      </trkpt>
      <trkpt lat="45.16422" lon="5.94366">
        <ele>2107.5</ele>
        <time>2021-02-20T08:41:50Z</time>
      </trkpt>
      <trkpt lat="45.16422" lon="5.94367">
        <ele>2107.5</ele>
        <time>2021-02-20T08:41:51Z</time>
      </trkpt>
      <trkpt lat="45.16423" lon="5.94368">
        <ele>2107.5</ele>
        <time>2021-02-20T08:41:52Z</time>
      </trkpt>
      <trkpt lat="45.16423" lon="5.94369">
        <ele>2107.5</ele>
        <time>2021-02-20T08:41:53Z</time>
      </trkpt>
      <trkpt lat="45.16423" lon="5.9437">
        <ele>2108.3</ele>
        <time>2021-02-20T08:41:54Z</time>
      </trkpt>
      <trkpt lat="45.16423" lon="5.94371">
        <ele>2108.3</ele>
        <time>2021-02-20T08:41:55Z</time>
      </trkpt>
      <trkpt lat="45.16422" lon="5.94372">
        <ele>2108.3</ele>
        <time>2021-02-20T08:41:56Z</time>
      </trkpt>
      <trkpt lat="45.16422" lon="5.94372">
        <ele>2108.3</ele>
        <time>2021-02-20T08:41:57Z</time>
      </trkpt>
      <trkpt lat="45.16422" lon="5.94373">
        <ele>2108.3</ele>
        <time>2021-02-20T08:41:58Z</time>
      </trkpt>
      <trkpt lat="45.16422" lon="5.94373">
        <ele>2110</ele>
        <time>2021-02-20T08:41:59Z</time>
      </trkpt>
      <trkpt lat="45.16422" lon="5.94374">
        <ele>2110</ele>
        <time>2021-02-20T08:42:00Z</time>
      </trkpt>
      <trkpt lat="45.16421" lon="5.94375">
        <ele>2110</ele>
        <time>2021-02-20T08:42:01Z</time>
      </trkpt>
      <trkpt lat="45.1642" lon="5.94376">
        <ele>2110</ele>
        <time>2021-02-20T08:42:02Z</time>
      </trkpt>
      <trkpt lat="45.1642" lon="5.94376">
        <ele>2110</ele>
        <time>2021-02-20T08:42:03Z</time>
      </trkpt>
      <trkpt lat="45.1642" lon="5.94377">
        <ele>2110</ele>
        <time>2021-02-20T08:42:04Z</time>
      </trkpt>
      <trkpt lat="45.1642" lon="5.94377">
        <ele>2110</ele>
        <time>2021-02-20T08:42:05Z</time>
      </trkpt>
      <trkpt lat="45.1642" lon="5.94377">
        <ele>2110</ele>
        <time>2021-02-20T08:42:06Z</time>
      </trkpt>
      <trkpt lat="45.1642" lon="5.94377">
        <ele>2110</ele>
        <time>2021-02-20T08:42:07Z</time>
      </trkpt>
      <trkpt lat="45.16419" lon="5.94376">
        <ele>2110</ele>
        <time>2021-02-20T08:42:08Z</time>
      </trkpt>
      <trkpt lat="45.16419" lon="5.94378">
        <ele>2110.8</ele>
        <time>2021-02-20T08:42:09Z</time>
      </trkpt>
      <trkpt lat="45.16418" lon="5.9438">
        <ele>2111.8</ele>
        <time>2021-02-20T08:42:10Z</time>
      </trkpt>
      <trkpt lat="45.16418" lon="5.94382">
        <ele>2112.5</ele>
        <time>2021-02-20T08:42:11Z</time>
      </trkpt>
      <trkpt lat="45.16419" lon="5.94383">
        <ele>2112.5</ele>
        <time>2021-02-20T08:42:12Z</time>
      </trkpt>
      <trkpt lat="45.16419" lon="5.94383">
        <ele>2111.6</ele>
        <time>2021-02-20T08:42:13Z</time>
      </trkpt>
      <trkpt lat="45.16419" lon="5.94384">
        <ele>2111.6</ele>
        <time>2021-02-20T08:42:14Z</time>
      </trkpt>
      <trkpt lat="45.1642" lon="5.94384">
        <ele>2111.6</ele>
        <time>2021-02-20T08:42:15Z</time>
      </trkpt>
      <trkpt lat="45.1642" lon="5.94385">
        <ele>2111.6</ele>
        <time>2021-02-20T08:42:16Z</time>
      </trkpt>
      <trkpt lat="45.1642" lon="5.94386">
        <ele>2111.6</ele>
        <time>2021-02-20T08:42:17Z</time>
      </trkpt>
      <trkpt lat="45.1642" lon="5.94387">
        <ele>2112.5</ele>
        <time>2021-02-20T08:42:18Z</time>
      </trkpt>
      <trkpt lat="45.16419" lon="5.94387">
        <ele>2112.5</ele>
        <time>2021-02-20T08:42:19Z</time>
      </trkpt>
      <trkpt lat="45.16419" lon="5.94387">
        <ele>2113.4</ele>
        <time>2021-02-20T08:42:20Z</time>
      </trkpt>
      <trkpt lat="45.16418" lon="5.94387">
        <ele>2113.4</ele>
        <time>2021-02-20T08:42:21Z</time>
      </trkpt>
      <trkpt lat="45.16418" lon="5.94387">
        <ele>2113.4</ele>
        <time>2021-02-20T08:42:22Z</time>
      </trkpt>
      <trkpt lat="45.16417" lon="5.94388">
        <ele>2113.4</ele>
        <time>2021-02-20T08:42:23Z</time>
      </trkpt>
      <trkpt lat="45.16417" lon="5.94388">
        <ele>2113.4</ele>
        <time>2021-02-20T08:42:24Z</time>
      </trkpt>
      <trkpt lat="45.16417" lon="5.94388">
        <ele>2113.4</ele>
        <time>2021-02-20T08:42:25Z</time>
      </trkpt>
      <trkpt lat="45.16416" lon="5.94388">
        <ele>2113.4</ele>
        <time>2021-02-20T08:42:26Z</time>
      </trkpt>
      <trkpt lat="45.16416" lon="5.94389">
        <ele>2113.4</ele>
        <time>2021-02-20T08:42:27Z</time>
      </trkpt>
      <trkpt lat="45.16416" lon="5.94389">
        <ele>2114.4</ele>
        <time>2021-02-20T08:42:28Z</time>
      </trkpt>
      <trkpt lat="45.16415" lon="5.9439">
        <ele>2114.4</ele>
        <time>2021-02-20T08:42:29Z</time>
      </trkpt>
      <trkpt lat="45.16415" lon="5.9439">
        <ele>2114.4</ele>
        <time>2021-02-20T08:42:30Z</time>
      </trkpt>
      <trkpt lat="45.16415" lon="5.94391">
        <ele>2115.2</ele>
        <time>2021-02-20T08:42:31Z</time>
      </trkpt>
      <trkpt lat="45.16414" lon="5.9439">
        <ele>2115.2</ele>
        <time>2021-02-20T08:42:32Z</time>
      </trkpt>
      <trkpt lat="45.16413" lon="5.9439">
        <ele>2114.4</ele>
        <time>2021-02-20T08:42:33Z</time>
      </trkpt>
      <trkpt lat="45.16413" lon="5.9439">
        <ele>2114.4</ele>
        <time>2021-02-20T08:42:34Z</time>
      </trkpt>
      <trkpt lat="45.16413" lon="5.9439">
        <ele>2114.4</ele>
        <time>2021-02-20T08:42:35Z</time>
      </trkpt>
      <trkpt lat="45.16412" lon="5.9439">
        <ele>2115.5</ele>
        <time>2021-02-20T08:42:36Z</time>
      </trkpt>
      <trkpt lat="45.16412" lon="5.9439">
        <ele>2115.5</ele>
        <time>2021-02-20T08:42:37Z</time>
      </trkpt>
      <trkpt lat="45.16412" lon="5.94389">
        <ele>2115.5</ele>
        <time>2021-02-20T08:42:38Z</time>
      </trkpt>
      <trkpt lat="45.16411" lon="5.94389">
        <ele>2115.5</ele>
        <time>2021-02-20T08:42:39Z</time>
      </trkpt>
      <trkpt lat="45.16411" lon="5.94389">
        <ele>2115.5</ele>
        <time>2021-02-20T08:42:40Z</time>
      </trkpt>
      <trkpt lat="45.1641" lon="5.9439">
        <ele>2115.5</ele>
        <time>2021-02-20T08:42:41Z</time>
      </trkpt>
      <trkpt lat="45.16409" lon="5.9439">
        <ele>2116.6</ele>
        <time>2021-02-20T08:42:42Z</time>
      </trkpt>
      <trkpt lat="45.16408" lon="5.94391">
        <ele>2117.4</ele>
        <time>2021-02-20T08:42:43Z</time>
      </trkpt>
      <trkpt lat="45.16408" lon="5.94391">
        <ele>2117.4</ele>
        <time>2021-02-20T08:42:44Z</time>
      </trkpt>
      <trkpt lat="45.16407" lon="5.94391">
        <ele>2117.4</ele>
        <time>2021-02-20T08:42:45Z</time>
      </trkpt>
      <trkpt lat="45.16406" lon="5.94391">
        <ele>2118.5</ele>
        <time>2021-02-20T08:42:46Z</time>
      </trkpt>
      <trkpt lat="45.16406" lon="5.94392">
        <ele>2118.5</ele>
        <time>2021-02-20T08:42:47Z</time>
      </trkpt>
      <trkpt lat="45.16405" lon="5.94391">
        <ele>2118.5</ele>
        <time>2021-02-20T08:42:48Z</time>
      </trkpt>
      <trkpt lat="45.16404" lon="5.94391">
        <ele>2118.5</ele>
        <time>2021-02-20T08:42:49Z</time>
      </trkpt>
      <trkpt lat="45.16403" lon="5.9439">
        <ele>2119.6</ele>
        <time>2021-02-20T08:42:50Z</time>
      </trkpt>
      <trkpt lat="45.16403" lon="5.9439">
        <ele>2118.9</ele>
        <time>2021-02-20T08:42:51Z</time>
      </trkpt>
      <trkpt lat="45.16402" lon="5.9439">
        <ele>2118.9</ele>
        <time>2021-02-20T08:42:52Z</time>
      </trkpt>
      <trkpt lat="45.16402" lon="5.94389">
        <ele>2118.9</ele>
        <time>2021-02-20T08:42:53Z</time>
      </trkpt>
      <trkpt lat="45.16401" lon="5.94389">
        <ele>2118.9</ele>
        <time>2021-02-20T08:42:54Z</time>
      </trkpt>
      <trkpt lat="45.164" lon="5.94388">
        <ele>2120.1</ele>
        <time>2021-02-20T08:42:55Z</time>
      </trkpt>
      <trkpt lat="45.16399" lon="5.94387">
        <ele>2120.1</ele>
        <time>2021-02-20T08:42:56Z</time>
      </trkpt>
      <trkpt lat="45.16399" lon="5.94387">
        <ele>2120.1</ele>
        <time>2021-02-20T08:42:57Z</time>
      </trkpt>
      <trkpt lat="45.16398" lon="5.94386">
        <ele>2120.1</ele>
        <time>2021-02-20T08:42:58Z</time>
      </trkpt>
      <trkpt lat="45.16398" lon="5.94386">
        <ele>2120.8</ele>
        <time>2021-02-20T08:42:59Z</time>
      </trkpt>
      <trkpt lat="45.16397" lon="5.94385">
        <ele>2120.8</ele>
        <time>2021-02-20T08:43:00Z</time>
      </trkpt>
      <trkpt lat="45.16396" lon="5.94385">
        <ele>2120.8</ele>
        <time>2021-02-20T08:43:01Z</time>
      </trkpt>
      <trkpt lat="45.16396" lon="5.94384">
        <ele>2120.8</ele>
        <time>2021-02-20T08:43:02Z</time>
      </trkpt>
      <trkpt lat="45.16395" lon="5.94384">
        <ele>2120.8</ele>
        <time>2021-02-20T08:43:03Z</time>
      </trkpt>
      <trkpt lat="45.16394" lon="5.94384">
        <ele>2122.2</ele>
        <time>2021-02-20T08:43:04Z</time>
      </trkpt>
      <trkpt lat="45.16394" lon="5.94384">
        <ele>2122.2</ele>
        <time>2021-02-20T08:43:05Z</time>
      </trkpt>
      <trkpt lat="45.16394" lon="5.94384">
        <ele>2122.2</ele>
        <time>2021-02-20T08:43:06Z</time>
      </trkpt>
      <trkpt lat="45.16394" lon="5.94385">
        <ele>2122.2</ele>
        <time>2021-02-20T08:43:07Z</time>
      </trkpt>
      <trkpt lat="45.16395" lon="5.94386">
        <ele>2120.8</ele>
        <time>2021-02-20T08:43:08Z</time>
      </trkpt>
      <trkpt lat="45.16395" lon="5.94386">
        <ele>2121.4</ele>
        <time>2021-02-20T08:43:09Z</time>
      </trkpt>
      <trkpt lat="45.16395" lon="5.94387">
        <ele>2121.4</ele>
        <time>2021-02-20T08:43:10Z</time>
      </trkpt>
      <trkpt lat="45.16396" lon="5.94387">
        <ele>2121.4</ele>
        <time>2021-02-20T08:43:11Z</time>
      </trkpt>
      <trkpt lat="45.16396" lon="5.94388">
        <ele>2121.4</ele>
        <time>2021-02-20T08:43:12Z</time>
      </trkpt>
      <trkpt lat="45.16396" lon="5.94388">
        <ele>2121.4</ele>
        <time>2021-02-20T08:43:13Z</time>
      </trkpt>
      <trkpt lat="45.16397" lon="5.94389">
        <ele>2121.4</ele>
        <time>2021-02-20T08:43:14Z</time>
      </trkpt>
      <trkpt lat="45.16397" lon="5.9439">
        <ele>2121.4</ele>
        <time>2021-02-20T08:43:15Z</time>
      </trkpt>
      <trkpt lat="45.16398" lon="5.9439">
        <ele>2122</ele>
        <time>2021-02-20T08:43:16Z</time>
      </trkpt>
      <trkpt lat="45.16398" lon="5.94392">
        <ele>2120.7</ele>
        <time>2021-02-20T08:43:17Z</time>
      </trkpt>
      <trkpt lat="45.16399" lon="5.94392">
        <ele>2120.7</ele>
        <time>2021-02-20T08:43:18Z</time>
      </trkpt>
      <trkpt lat="45.16399" lon="5.94393">
        <ele>2120.7</ele>
        <time>2021-02-20T08:43:19Z</time>
      </trkpt>
      <trkpt lat="45.16399" lon="5.94394">
        <ele>2120.7</ele>
        <time>2021-02-20T08:43:20Z</time>
      </trkpt>
      <trkpt lat="45.16399" lon="5.94395">
        <ele>2121.4</ele>
        <time>2021-02-20T08:43:21Z</time>
      </trkpt>
      <trkpt lat="45.16399" lon="5.94396">
        <ele>2121.4</ele>
        <time>2021-02-20T08:43:22Z</time>
      </trkpt>
      <trkpt lat="45.16399" lon="5.94396">
        <ele>2121.4</ele>
        <time>2021-02-20T08:43:23Z</time>
      </trkpt>
      <trkpt lat="45.164" lon="5.94397">
        <ele>2121.4</ele>
        <time>2021-02-20T08:43:24Z</time>
      </trkpt>
      <trkpt lat="45.16399" lon="5.94397">
        <ele>2121.4</ele>
        <time>2021-02-20T08:43:25Z</time>
      </trkpt>
      <trkpt lat="45.16399" lon="5.94398">
        <ele>2121.4</ele>
        <time>2021-02-20T08:43:26Z</time>
      </trkpt>
      <trkpt lat="45.16399" lon="5.94399">
        <ele>2121.4</ele>
        <time>2021-02-20T08:43:27Z</time>
      </trkpt>
      <trkpt lat="45.16399" lon="5.94399">
        <ele>2122.1</ele>
        <time>2021-02-20T08:43:28Z</time>
      </trkpt>
      <trkpt lat="45.16399" lon="5.944">
        <ele>2122.1</ele>
        <time>2021-02-20T08:43:29Z</time>
      </trkpt>
      <trkpt lat="45.16399" lon="5.94401">
        <ele>2122.1</ele>
        <time>2021-02-20T08:43:30Z</time>
      </trkpt>
      <trkpt lat="45.16399" lon="5.94402">
        <ele>2122.1</ele>
        <time>2021-02-20T08:43:31Z</time>
      </trkpt>
      <trkpt lat="45.16398" lon="5.94402">
        <ele>2122.1</ele>
        <time>2021-02-20T08:43:32Z</time>
      </trkpt>
      <trkpt lat="45.16398" lon="5.94403">
        <ele>2122.9</ele>
        <time>2021-02-20T08:43:33Z</time>
      </trkpt>
      <trkpt lat="45.16398" lon="5.94405">
        <ele>2122.9</ele>
        <time>2021-02-20T08:43:34Z</time>
      </trkpt>
      <trkpt lat="45.16398" lon="5.94406">
        <ele>2122.9</ele>
        <time>2021-02-20T08:43:35Z</time>
      </trkpt>
      <trkpt lat="45.16398" lon="5.94407">
        <ele>2122.9</ele>
        <time>2021-02-20T08:43:36Z</time>
      </trkpt>
      <trkpt lat="45.16398" lon="5.94409">
        <ele>2123.7</ele>
        <time>2021-02-20T08:43:37Z</time>
      </trkpt>
      <trkpt lat="45.16398" lon="5.9441">
        <ele>2123.7</ele>
        <time>2021-02-20T08:43:38Z</time>
      </trkpt>
      <trkpt lat="45.16398" lon="5.94411">
        <ele>2123.7</ele>
        <time>2021-02-20T08:43:39Z</time>
      </trkpt>
      <trkpt lat="45.16398" lon="5.94412">
        <ele>2123.7</ele>
        <time>2021-02-20T08:43:40Z</time>
      </trkpt>
      <trkpt lat="45.16398" lon="5.94412">
        <ele>2124.5</ele>
        <time>2021-02-20T08:43:41Z</time>
      </trkpt>
      <trkpt lat="45.16398" lon="5.94413">
        <ele>2124.5</ele>
        <time>2021-02-20T08:43:42Z</time>
      </trkpt>
      <trkpt lat="45.16398" lon="5.94413">
        <ele>2124.5</ele>
        <time>2021-02-20T08:43:43Z</time>
      </trkpt>
      <trkpt lat="45.16398" lon="5.94414">
        <ele>2124.5</ele>
        <time>2021-02-20T08:43:44Z</time>
      </trkpt>
      <trkpt lat="45.16398" lon="5.94414">
        <ele>2124.5</ele>
        <time>2021-02-20T08:43:45Z</time>
      </trkpt>
      <trkpt lat="45.16399" lon="5.94415">
        <ele>2124.5</ele>
        <time>2021-02-20T08:43:46Z</time>
      </trkpt>
      <trkpt lat="45.16399" lon="5.94415">
        <ele>2124.5</ele>
        <time>2021-02-20T08:43:47Z</time>
      </trkpt>
      <trkpt lat="45.16399" lon="5.94416">
        <ele>2124.5</ele>
        <time>2021-02-20T08:43:48Z</time>
      </trkpt>
      <trkpt lat="45.16399" lon="5.94417">
        <ele>2125.3</ele>
        <time>2021-02-20T08:43:49Z</time>
      </trkpt>
      <trkpt lat="45.16398" lon="5.94418">
        <ele>2125.3</ele>
        <time>2021-02-20T08:43:50Z</time>
      </trkpt>
      <trkpt lat="45.16398" lon="5.94419">
        <ele>2125.3</ele>
        <time>2021-02-20T08:43:51Z</time>
      </trkpt>
      <trkpt lat="45.16398" lon="5.9442">
        <ele>2125.3</ele>
        <time>2021-02-20T08:43:52Z</time>
      </trkpt>
      <trkpt lat="45.16398" lon="5.9442">
        <ele>2125.3</ele>
        <time>2021-02-20T08:43:53Z</time>
      </trkpt>
      <trkpt lat="45.16398" lon="5.94421">
        <ele>2126.1</ele>
        <time>2021-02-20T08:43:54Z</time>
      </trkpt>
      <trkpt lat="45.16398" lon="5.94422">
        <ele>2127</ele>
        <time>2021-02-20T08:43:55Z</time>
      </trkpt>
      <trkpt lat="45.16397" lon="5.94422">
        <ele>2127</ele>
        <time>2021-02-20T08:43:56Z</time>
      </trkpt>
      <trkpt lat="45.16398" lon="5.94422">
        <ele>2126.1</ele>
        <time>2021-02-20T08:43:57Z</time>
      </trkpt>
      <trkpt lat="45.16398" lon="5.94423">
        <ele>2126.1</ele>
        <time>2021-02-20T08:43:58Z</time>
      </trkpt>
      <trkpt lat="45.16398" lon="5.94424">
        <ele>2126.1</ele>
        <time>2021-02-20T08:43:59Z</time>
      </trkpt>
      <trkpt lat="45.16399" lon="5.94425">
        <ele>2126.1</ele>
        <time>2021-02-20T08:44:00Z</time>
      </trkpt>
      <trkpt lat="45.16399" lon="5.94425">
        <ele>2126.9</ele>
        <time>2021-02-20T08:44:01Z</time>
      </trkpt>
      <trkpt lat="45.16399" lon="5.94426">
        <ele>2126.9</ele>
        <time>2021-02-20T08:44:02Z</time>
      </trkpt>
      <trkpt lat="45.16399" lon="5.94427">
        <ele>2126.9</ele>
        <time>2021-02-20T08:44:03Z</time>
      </trkpt>
      <trkpt lat="45.16399" lon="5.94427">
        <ele>2126.9</ele>
        <time>2021-02-20T08:44:04Z</time>
      </trkpt>
      <trkpt lat="45.16399" lon="5.94427">
        <ele>2126.9</ele>
        <time>2021-02-20T08:44:05Z</time>
      </trkpt>
      <trkpt lat="45.16399" lon="5.94427">
        <ele>2126.9</ele>
        <time>2021-02-20T08:44:06Z</time>
      </trkpt>
      <trkpt lat="45.16399" lon="5.94427">
        <ele>2126.9</ele>
        <time>2021-02-20T08:44:07Z</time>
      </trkpt>
      <trkpt lat="45.16399" lon="5.94426">
        <ele>2126.9</ele>
        <time>2021-02-20T08:44:08Z</time>
      </trkpt>
      <trkpt lat="45.16398" lon="5.94426">
        <ele>2126.9</ele>
        <time>2021-02-20T08:44:09Z</time>
      </trkpt>
      <trkpt lat="45.16397" lon="5.94425">
        <ele>2127.8</ele>
        <time>2021-02-20T08:44:10Z</time>
      </trkpt>
      <trkpt lat="45.16397" lon="5.94425">
        <ele>2127.8</ele>
        <time>2021-02-20T08:44:11Z</time>
      </trkpt>
      <trkpt lat="45.16396" lon="5.94425">
        <ele>2127.8</ele>
        <time>2021-02-20T08:44:12Z</time>
      </trkpt>
      <trkpt lat="45.16395" lon="5.94425">
        <ele>2127.8</ele>
        <time>2021-02-20T08:44:13Z</time>
      </trkpt>
      <trkpt lat="45.16395" lon="5.94425">
        <ele>2127</ele>
        <time>2021-02-20T08:44:14Z</time>
      </trkpt>
      <trkpt lat="45.16394" lon="5.94424">
        <ele>2128</ele>
        <time>2021-02-20T08:44:15Z</time>
      </trkpt>
      <trkpt lat="45.16393" lon="5.94424">
        <ele>2128</ele>
        <time>2021-02-20T08:44:16Z</time>
      </trkpt>
      <trkpt lat="45.16392" lon="5.94423">
        <ele>2128</ele>
        <time>2021-02-20T08:44:17Z</time>
      </trkpt>
      <trkpt lat="45.16391" lon="5.94423">
        <ele>2129.1</ele>
        <time>2021-02-20T08:44:18Z</time>
      </trkpt>
      <trkpt lat="45.1639" lon="5.94423">
        <ele>2129.1</ele>
        <time>2021-02-20T08:44:19Z</time>
      </trkpt>
      <trkpt lat="45.1639" lon="5.94423">
        <ele>2129.1</ele>
        <time>2021-02-20T08:44:20Z</time>
      </trkpt>
      <trkpt lat="45.16389" lon="5.94423">
        <ele>2129.1</ele>
        <time>2021-02-20T08:44:21Z</time>
      </trkpt>
      <trkpt lat="45.16389" lon="5.94423">
        <ele>2129.1</ele>
        <time>2021-02-20T08:44:22Z</time>
      </trkpt>
      <trkpt lat="45.16389" lon="5.94423">
        <ele>2129.1</ele>
        <time>2021-02-20T08:44:23Z</time>
      </trkpt>
      <trkpt lat="45.16388" lon="5.94423">
        <ele>2130.2</ele>
        <time>2021-02-20T08:44:24Z</time>
      </trkpt>
      <trkpt lat="45.16388" lon="5.94423">
        <ele>2130.2</ele>
        <time>2021-02-20T08:44:25Z</time>
      </trkpt>
      <trkpt lat="45.16387" lon="5.94423">
        <ele>2130.2</ele>
        <time>2021-02-20T08:44:26Z</time>
      </trkpt>
      <trkpt lat="45.16386" lon="5.94422">
        <ele>2130.2</ele>
        <time>2021-02-20T08:44:27Z</time>
      </trkpt>
      <trkpt lat="45.16386" lon="5.94422">
        <ele>2130.2</ele>
        <time>2021-02-20T08:44:28Z</time>
      </trkpt>
      <trkpt lat="45.16386" lon="5.94422">
        <ele>2130.2</ele>
        <time>2021-02-20T08:44:29Z</time>
      </trkpt>
      <trkpt lat="45.16385" lon="5.94422">
        <ele>2131.3</ele>
        <time>2021-02-20T08:44:30Z</time>
      </trkpt>
      <trkpt lat="45.16385" lon="5.94421">
        <ele>2131.3</ele>
        <time>2021-02-20T08:44:31Z</time>
      </trkpt>
      <trkpt lat="45.16384" lon="5.94421">
        <ele>2131.3</ele>
        <time>2021-02-20T08:44:32Z</time>
      </trkpt>
      <trkpt lat="45.16384" lon="5.9442">
        <ele>2130.7</ele>
        <time>2021-02-20T08:44:33Z</time>
      </trkpt>
      <trkpt lat="45.16383" lon="5.9442">
        <ele>2130.7</ele>
        <time>2021-02-20T08:44:34Z</time>
      </trkpt>
      <trkpt lat="45.16383" lon="5.9442">
        <ele>2130.7</ele>
        <time>2021-02-20T08:44:35Z</time>
      </trkpt>
      <trkpt lat="45.16383" lon="5.94419">
        <ele>2130.7</ele>
        <time>2021-02-20T08:44:36Z</time>
      </trkpt>
      <trkpt lat="45.16383" lon="5.94419">
        <ele>2130.7</ele>
        <time>2021-02-20T08:44:37Z</time>
      </trkpt>
      <trkpt lat="45.16383" lon="5.9442">
        <ele>2130.7</ele>
        <time>2021-02-20T08:44:38Z</time>
      </trkpt>
      <trkpt lat="45.16383" lon="5.9442">
        <ele>2130.7</ele>
        <time>2021-02-20T08:44:39Z</time>
      </trkpt>
      <trkpt lat="45.16383" lon="5.94422">
        <ele>2131.3</ele>
        <time>2021-02-20T08:44:40Z</time>
      </trkpt>
      <trkpt lat="45.16383" lon="5.94423">
        <ele>2131.3</ele>
        <time>2021-02-20T08:44:41Z</time>
      </trkpt>
      <trkpt lat="45.16383" lon="5.94424">
        <ele>2131.3</ele>
        <time>2021-02-20T08:44:42Z</time>
      </trkpt>
      <trkpt lat="45.16383" lon="5.94426">
        <ele>2131.9</ele>
        <time>2021-02-20T08:44:43Z</time>
      </trkpt>
      <trkpt lat="45.16383" lon="5.94427">
        <ele>2131.9</ele>
        <time>2021-02-20T08:44:44Z</time>
      </trkpt>
      <trkpt lat="45.16383" lon="5.94428">
        <ele>2131.9</ele>
        <time>2021-02-20T08:44:45Z</time>
      </trkpt>
      <trkpt lat="45.16383" lon="5.94429">
        <ele>2131.9</ele>
        <time>2021-02-20T08:44:46Z</time>
      </trkpt>
      <trkpt lat="45.16383" lon="5.94429">
        <ele>2132.6</ele>
        <time>2021-02-20T08:44:47Z</time>
      </trkpt>
      <trkpt lat="45.16383" lon="5.9443">
        <ele>2132.6</ele>
        <time>2021-02-20T08:44:48Z</time>
      </trkpt>
      <trkpt lat="45.16383" lon="5.94431">
        <ele>2132.6</ele>
        <time>2021-02-20T08:44:49Z</time>
      </trkpt>
      <trkpt lat="45.16383" lon="5.94431">
        <ele>2132.6</ele>
        <time>2021-02-20T08:44:50Z</time>
      </trkpt>
      <trkpt lat="45.16383" lon="5.94432">
        <ele>2132.6</ele>
        <time>2021-02-20T08:44:51Z</time>
      </trkpt>
      <trkpt lat="45.16383" lon="5.94433">
        <ele>2132.6</ele>
        <time>2021-02-20T08:44:52Z</time>
      </trkpt>
      <trkpt lat="45.16383" lon="5.94433">
        <ele>2132.6</ele>
        <time>2021-02-20T08:44:53Z</time>
      </trkpt>
      <trkpt lat="45.16383" lon="5.94434">
        <ele>2133.3</ele>
        <time>2021-02-20T08:44:54Z</time>
      </trkpt>
      <trkpt lat="45.16383" lon="5.94435">
        <ele>2133.3</ele>
        <time>2021-02-20T08:44:55Z</time>
      </trkpt>
      <trkpt lat="45.16383" lon="5.94435">
        <ele>2133.3</ele>
        <time>2021-02-20T08:44:56Z</time>
      </trkpt>
      <trkpt lat="45.16383" lon="5.94435">
        <ele>2133.3</ele>
        <time>2021-02-20T08:44:57Z</time>
      </trkpt>
      <trkpt lat="45.16384" lon="5.94436">
        <ele>2133.3</ele>
        <time>2021-02-20T08:44:58Z</time>
      </trkpt>
      <trkpt lat="45.16384" lon="5.94437">
        <ele>2133.3</ele>
        <time>2021-02-20T08:44:59Z</time>
      </trkpt>
      <trkpt lat="45.16384" lon="5.94438">
        <ele>2134.1</ele>
        <time>2021-02-20T08:45:00Z</time>
      </trkpt>
      <trkpt lat="45.16385" lon="5.94438">
        <ele>2134.1</ele>
        <time>2021-02-20T08:45:01Z</time>
      </trkpt>
      <trkpt lat="45.16385" lon="5.94439">
        <ele>2134.1</ele>
        <time>2021-02-20T08:45:02Z</time>
      </trkpt>
      <trkpt lat="45.16386" lon="5.94439">
        <ele>2133.1</ele>
        <time>2021-02-20T08:45:03Z</time>
      </trkpt>
      <trkpt lat="45.16386" lon="5.9444">
        <ele>2133.1</ele>
        <time>2021-02-20T08:45:04Z</time>
      </trkpt>
      <trkpt lat="45.16387" lon="5.94441">
        <ele>2133.1</ele>
        <time>2021-02-20T08:45:05Z</time>
      </trkpt>
      <trkpt lat="45.16387" lon="5.94442">
        <ele>2133.1</ele>
        <time>2021-02-20T08:45:06Z</time>
      </trkpt>
      <trkpt lat="45.16387" lon="5.94442">
        <ele>2134</ele>
        <time>2021-02-20T08:45:07Z</time>
      </trkpt>
      <trkpt lat="45.16387" lon="5.94443">
        <ele>2134</ele>
        <time>2021-02-20T08:45:08Z</time>
      </trkpt>
      <trkpt lat="45.16388" lon="5.94444">
        <ele>2134</ele>
        <time>2021-02-20T08:45:09Z</time>
      </trkpt>
      <trkpt lat="45.16388" lon="5.94445">
        <ele>2134</ele>
        <time>2021-02-20T08:45:10Z</time>
      </trkpt>
      <trkpt lat="45.16388" lon="5.94446">
        <ele>2134</ele>
        <time>2021-02-20T08:45:11Z</time>
      </trkpt>
      <trkpt lat="45.16388" lon="5.94447">
        <ele>2135</ele>
        <time>2021-02-20T08:45:12Z</time>
      </trkpt>
      <trkpt lat="45.16388" lon="5.94448">
        <ele>2135</ele>
        <time>2021-02-20T08:45:13Z</time>
      </trkpt>
      <trkpt lat="45.16389" lon="5.94449">
        <ele>2134</ele>
        <time>2021-02-20T08:45:14Z</time>
      </trkpt>
      <trkpt lat="45.16389" lon="5.9445">
        <ele>2134</ele>
        <time>2021-02-20T08:45:15Z</time>
      </trkpt>
      <trkpt lat="45.1639" lon="5.9445">
        <ele>2134</ele>
        <time>2021-02-20T08:45:16Z</time>
      </trkpt>
      <trkpt lat="45.1639" lon="5.94451">
        <ele>2135</ele>
        <time>2021-02-20T08:45:17Z</time>
      </trkpt>
      <trkpt lat="45.1639" lon="5.94452">
        <ele>2135.1</ele>
        <time>2021-02-20T08:45:18Z</time>
      </trkpt>
      <trkpt lat="45.1639" lon="5.94454">
        <ele>2135.1</ele>
        <time>2021-02-20T08:45:19Z</time>
      </trkpt>
      <trkpt lat="45.16391" lon="5.94454">
        <ele>2135.2</ele>
        <time>2021-02-20T08:45:20Z</time>
      </trkpt>
      <trkpt lat="45.16391" lon="5.94455">
        <ele>2136.2</ele>
        <time>2021-02-20T08:45:21Z</time>
      </trkpt>
      <trkpt lat="45.16392" lon="5.94455">
        <ele>2135.4</ele>
        <time>2021-02-20T08:45:22Z</time>
      </trkpt>
      <trkpt lat="45.16392" lon="5.94456">
        <ele>2135.4</ele>
        <time>2021-02-20T08:45:23Z</time>
      </trkpt>
      <trkpt lat="45.16392" lon="5.94457">
        <ele>2135.4</ele>
        <time>2021-02-20T08:45:24Z</time>
      </trkpt>
      <trkpt lat="45.16393" lon="5.94458">
        <ele>2135.5</ele>
        <time>2021-02-20T08:45:25Z</time>
      </trkpt>
      <trkpt lat="45.16393" lon="5.94459">
        <ele>2135.5</ele>
        <time>2021-02-20T08:45:26Z</time>
      </trkpt>
      <trkpt lat="45.16393" lon="5.94459">
        <ele>2136.6</ele>
        <time>2021-02-20T08:45:27Z</time>
      </trkpt>
      <trkpt lat="45.16394" lon="5.9446">
        <ele>2136.6</ele>
        <time>2021-02-20T08:45:28Z</time>
      </trkpt>
      <trkpt lat="45.16394" lon="5.94461">
        <ele>2136.7</ele>
        <time>2021-02-20T08:45:29Z</time>
      </trkpt>
      <trkpt lat="45.16394" lon="5.94462">
        <ele>2136.7</ele>
        <time>2021-02-20T08:45:30Z</time>
      </trkpt>
      <trkpt lat="45.16394" lon="5.94463">
        <ele>2136.7</ele>
        <time>2021-02-20T08:45:31Z</time>
      </trkpt>
      <trkpt lat="45.16394" lon="5.94464">
        <ele>2137.8</ele>
        <time>2021-02-20T08:45:32Z</time>
      </trkpt>
      <trkpt lat="45.16394" lon="5.94465">
        <ele>2137.8</ele>
        <time>2021-02-20T08:45:33Z</time>
      </trkpt>
      <trkpt lat="45.16394" lon="5.94466">
        <ele>2137.9</ele>
        <time>2021-02-20T08:45:34Z</time>
      </trkpt>
      <trkpt lat="45.16394" lon="5.94466">
        <ele>2137.9</ele>
        <time>2021-02-20T08:45:35Z</time>
      </trkpt>
      <trkpt lat="45.16394" lon="5.94467">
        <ele>2138</ele>
        <time>2021-02-20T08:45:36Z</time>
      </trkpt>
      <trkpt lat="45.16393" lon="5.94469">
        <ele>2139</ele>
        <time>2021-02-20T08:45:37Z</time>
      </trkpt>
      <trkpt lat="45.16393" lon="5.9447">
        <ele>2139</ele>
        <time>2021-02-20T08:45:38Z</time>
      </trkpt>
      <trkpt lat="45.16392" lon="5.94472">
        <ele>2139.1</ele>
        <time>2021-02-20T08:45:39Z</time>
      </trkpt>
      <trkpt lat="45.16392" lon="5.94472">
        <ele>2140.1</ele>
        <time>2021-02-20T08:45:40Z</time>
      </trkpt>
      <trkpt lat="45.16391" lon="5.94473">
        <ele>2140.9</ele>
        <time>2021-02-20T08:45:41Z</time>
      </trkpt>
      <trkpt lat="45.16391" lon="5.94474">
        <ele>2140.9</ele>
        <time>2021-02-20T08:45:42Z</time>
      </trkpt>
      <trkpt lat="45.1639" lon="5.94475">
        <ele>2141</ele>
        <time>2021-02-20T08:45:43Z</time>
      </trkpt>
      <trkpt lat="45.16389" lon="5.94476">
        <ele>2141</ele>
        <time>2021-02-20T08:45:44Z</time>
      </trkpt>
      <trkpt lat="45.16389" lon="5.94477">
        <ele>2142</ele>
        <time>2021-02-20T08:45:45Z</time>
      </trkpt>
      <trkpt lat="45.16389" lon="5.94478">
        <ele>2142.1</ele>
        <time>2021-02-20T08:45:46Z</time>
      </trkpt>
      <trkpt lat="45.16388" lon="5.94479">
        <ele>2142.9</ele>
        <time>2021-02-20T08:45:47Z</time>
      </trkpt>
      <trkpt lat="45.16388" lon="5.9448">
        <ele>2143</ele>
        <time>2021-02-20T08:45:48Z</time>
      </trkpt>
      <trkpt lat="45.16388" lon="5.94483">
        <ele>2144</ele>
        <time>2021-02-20T08:45:49Z</time>
      </trkpt>
      <trkpt lat="45.16388" lon="5.94484">
        <ele>2144.1</ele>
        <time>2021-02-20T08:45:50Z</time>
      </trkpt>
      <trkpt lat="45.16388" lon="5.94484">
        <ele>2144.1</ele>
        <time>2021-02-20T08:45:51Z</time>
      </trkpt>
      <trkpt lat="45.16388" lon="5.94485">
        <ele>2145.1</ele>
        <time>2021-02-20T08:45:52Z</time>
      </trkpt>
      <trkpt lat="45.16388" lon="5.94487">
        <ele>2145.1</ele>
        <time>2021-02-20T08:45:53Z</time>
      </trkpt>
      <trkpt lat="45.16388" lon="5.94488">
        <ele>2145.2</ele>
        <time>2021-02-20T08:45:54Z</time>
      </trkpt>
      <trkpt lat="45.16388" lon="5.94488">
        <ele>2145.2</ele>
        <time>2021-02-20T08:45:55Z</time>
      </trkpt>
      <trkpt lat="45.16388" lon="5.94489">
        <ele>2146.3</ele>
        <time>2021-02-20T08:45:56Z</time>
      </trkpt>
      <trkpt lat="45.16387" lon="5.9449">
        <ele>2146.4</ele>
        <time>2021-02-20T08:45:57Z</time>
      </trkpt>
      <trkpt lat="45.16387" lon="5.94491">
        <ele>2146.4</ele>
        <time>2021-02-20T08:45:58Z</time>
      </trkpt>
      <trkpt lat="45.16387" lon="5.94492">
        <ele>2146.4</ele>
        <time>2021-02-20T08:45:59Z</time>
      </trkpt>
      <trkpt lat="45.16387" lon="5.94493">
        <ele>2146.5</ele>
        <time>2021-02-20T08:46:00Z</time>
      </trkpt>
      <trkpt lat="45.16387" lon="5.94494">
        <ele>2147.5</ele>
        <time>2021-02-20T08:46:01Z</time>
      </trkpt>
      <trkpt lat="45.16387" lon="5.94495">
        <ele>2147.6</ele>
        <time>2021-02-20T08:46:02Z</time>
      </trkpt>
      <trkpt lat="45.16387" lon="5.94496">
        <ele>2147.6</ele>
        <time>2021-02-20T08:46:03Z</time>
      </trkpt>
      <trkpt lat="45.16387" lon="5.94497">
        <ele>2147.7</ele>
        <time>2021-02-20T08:46:04Z</time>
      </trkpt>
      <trkpt lat="45.16387" lon="5.94498">
        <ele>2147.7</ele>
        <time>2021-02-20T08:46:05Z</time>
      </trkpt>
      <trkpt lat="45.16387" lon="5.94498">
        <ele>2148.8</ele>
        <time>2021-02-20T08:46:06Z</time>
      </trkpt>
      <trkpt lat="45.16387" lon="5.94499">
        <ele>2148.8</ele>
        <time>2021-02-20T08:46:07Z</time>
      </trkpt>
      <trkpt lat="45.16387" lon="5.94499">
        <ele>2148.8</ele>
        <time>2021-02-20T08:46:08Z</time>
      </trkpt>
      <trkpt lat="45.16387" lon="5.94499">
        <ele>2148.9</ele>
        <time>2021-02-20T08:46:09Z</time>
      </trkpt>
      <trkpt lat="45.16387" lon="5.945">
        <ele>2148.9</ele>
        <time>2021-02-20T08:46:10Z</time>
      </trkpt>
      <trkpt lat="45.16387" lon="5.945">
        <ele>2149</ele>
        <time>2021-02-20T08:46:11Z</time>
      </trkpt>
      <trkpt lat="45.16387" lon="5.945">
        <ele>2149</ele>
        <time>2021-02-20T08:46:12Z</time>
      </trkpt>
      <trkpt lat="45.16387" lon="5.94501">
        <ele>2149.1</ele>
        <time>2021-02-20T08:46:13Z</time>
      </trkpt>
      <trkpt lat="45.16388" lon="5.94501">
        <ele>2149.1</ele>
        <time>2021-02-20T08:46:14Z</time>
      </trkpt>
      <trkpt lat="45.16388" lon="5.94502">
        <ele>2150.1</ele>
        <time>2021-02-20T08:46:15Z</time>
      </trkpt>
      <trkpt lat="45.16389" lon="5.94503">
        <ele>2149.7</ele>
        <time>2021-02-20T08:46:16Z</time>
      </trkpt>
      <trkpt lat="45.16389" lon="5.94503">
        <ele>2149.7</ele>
        <time>2021-02-20T08:46:17Z</time>
      </trkpt>
      <trkpt lat="45.16389" lon="5.94504">
        <ele>2149.8</ele>
        <time>2021-02-20T08:46:18Z</time>
      </trkpt>
      <trkpt lat="45.16389" lon="5.94505">
        <ele>2149.8</ele>
        <time>2021-02-20T08:46:19Z</time>
      </trkpt>
      <trkpt lat="45.16389" lon="5.94506">
        <ele>2149.9</ele>
        <time>2021-02-20T08:46:20Z</time>
      </trkpt>
      <trkpt lat="45.16389" lon="5.94507">
        <ele>2150.9</ele>
        <time>2021-02-20T08:46:21Z</time>
      </trkpt>
      <trkpt lat="45.1639" lon="5.94508">
        <ele>2150.9</ele>
        <time>2021-02-20T08:46:22Z</time>
      </trkpt>
      <trkpt lat="45.1639" lon="5.94508">
        <ele>2151</ele>
        <time>2021-02-20T08:46:23Z</time>
      </trkpt>
      <trkpt lat="45.1639" lon="5.94508">
        <ele>2151</ele>
        <time>2021-02-20T08:46:24Z</time>
      </trkpt>
      <trkpt lat="45.1639" lon="5.94509">
        <ele>2151.1</ele>
        <time>2021-02-20T08:46:25Z</time>
      </trkpt>
      <trkpt lat="45.1639" lon="5.94509">
        <ele>2151.1</ele>
        <time>2021-02-20T08:46:26Z</time>
      </trkpt>
      <trkpt lat="45.16389" lon="5.9451">
        <ele>2151.2</ele>
        <time>2021-02-20T08:46:27Z</time>
      </trkpt>
      <trkpt lat="45.16389" lon="5.9451">
        <ele>2151.2</ele>
        <time>2021-02-20T08:46:28Z</time>
      </trkpt>
      <trkpt lat="45.16389" lon="5.9451">
        <ele>2151.2</ele>
        <time>2021-02-20T08:46:29Z</time>
      </trkpt>
      <trkpt lat="45.16389" lon="5.9451">
        <ele>2151.3</ele>
        <time>2021-02-20T08:46:30Z</time>
      </trkpt>
      <trkpt lat="45.16389" lon="5.94511">
        <ele>2152.2</ele>
        <time>2021-02-20T08:46:31Z</time>
      </trkpt>
      <trkpt lat="45.16388" lon="5.94511">
        <ele>2152.7</ele>
        <time>2021-02-20T08:46:32Z</time>
      </trkpt>
      <trkpt lat="45.16388" lon="5.94511">
        <ele>2152.8</ele>
        <time>2021-02-20T08:46:33Z</time>
      </trkpt>
      <trkpt lat="45.16388" lon="5.94512">
        <ele>2152.8</ele>
        <time>2021-02-20T08:46:34Z</time>
      </trkpt>
      <trkpt lat="45.16388" lon="5.94512">
        <ele>2152.9</ele>
        <time>2021-02-20T08:46:35Z</time>
      </trkpt>
      <trkpt lat="45.16388" lon="5.94513">
        <ele>2152.9</ele>
        <time>2021-02-20T08:46:36Z</time>
      </trkpt>
      <trkpt lat="45.16388" lon="5.94514">
        <ele>2153</ele>
        <time>2021-02-20T08:46:37Z</time>
      </trkpt>
      <trkpt lat="45.16388" lon="5.94515">
        <ele>2153</ele>
        <time>2021-02-20T08:46:38Z</time>
      </trkpt>
      <trkpt lat="45.16388" lon="5.94515">
        <ele>2153.9</ele>
        <time>2021-02-20T08:46:39Z</time>
      </trkpt>
      <trkpt lat="45.16388" lon="5.94516">
        <ele>2153.9</ele>
        <time>2021-02-20T08:46:40Z</time>
      </trkpt>
      <trkpt lat="45.16388" lon="5.94517">
        <ele>2154</ele>
        <time>2021-02-20T08:46:41Z</time>
      </trkpt>
      <trkpt lat="45.16387" lon="5.94517">
        <ele>2154</ele>
        <time>2021-02-20T08:46:42Z</time>
      </trkpt>
      <trkpt lat="45.16387" lon="5.94518">
        <ele>2154</ele>
        <time>2021-02-20T08:46:43Z</time>
      </trkpt>
      <trkpt lat="45.16387" lon="5.94518">
        <ele>2154.1</ele>
        <time>2021-02-20T08:46:44Z</time>
      </trkpt>
      <trkpt lat="45.16387" lon="5.94519">
        <ele>2154.1</ele>
        <time>2021-02-20T08:46:45Z</time>
      </trkpt>
      <trkpt lat="45.16387" lon="5.94519">
        <ele>2154.2</ele>
        <time>2021-02-20T08:46:46Z</time>
      </trkpt>
      <trkpt lat="45.16387" lon="5.9452">
        <ele>2155.1</ele>
        <time>2021-02-20T08:46:47Z</time>
      </trkpt>
      <trkpt lat="45.16387" lon="5.94521">
        <ele>2155.2</ele>
        <time>2021-02-20T08:46:48Z</time>
      </trkpt>
      <trkpt lat="45.16387" lon="5.94522">
        <ele>2155.2</ele>
        <time>2021-02-20T08:46:49Z</time>
      </trkpt>
      <trkpt lat="45.16387" lon="5.94523">
        <ele>2155.2</ele>
        <time>2021-02-20T08:46:50Z</time>
      </trkpt>
      <trkpt lat="45.16387" lon="5.94523">
        <ele>2155.3</ele>
        <time>2021-02-20T08:46:51Z</time>
      </trkpt>
      <trkpt lat="45.16387" lon="5.94524">
        <ele>2156.3</ele>
        <time>2021-02-20T08:46:52Z</time>
      </trkpt>
      <trkpt lat="45.16387" lon="5.94524">
        <ele>2156.4</ele>
        <time>2021-02-20T08:46:53Z</time>
      </trkpt>
      <trkpt lat="45.16387" lon="5.94525">
        <ele>2156.4</ele>
        <time>2021-02-20T08:46:54Z</time>
      </trkpt>
      <trkpt lat="45.16386" lon="5.94526">
        <ele>2156.5</ele>
        <time>2021-02-20T08:46:55Z</time>
      </trkpt>
      <trkpt lat="45.16386" lon="5.94527">
        <ele>2156.5</ele>
        <time>2021-02-20T08:46:56Z</time>
      </trkpt>
      <trkpt lat="45.16386" lon="5.94528">
        <ele>2157.5</ele>
        <time>2021-02-20T08:46:57Z</time>
      </trkpt>
      <trkpt lat="45.16386" lon="5.94529">
        <ele>2157.5</ele>
        <time>2021-02-20T08:46:58Z</time>
      </trkpt>
      <trkpt lat="45.16386" lon="5.9453">
        <ele>2157.5</ele>
        <time>2021-02-20T08:46:59Z</time>
      </trkpt>
      <trkpt lat="45.16386" lon="5.94531">
        <ele>2157.5</ele>
        <time>2021-02-20T08:47:00Z</time>
      </trkpt>
      <trkpt lat="45.16386" lon="5.94531">
        <ele>2157.5</ele>
        <time>2021-02-20T08:47:01Z</time>
      </trkpt>
      <trkpt lat="45.16386" lon="5.94532">
        <ele>2158.4</ele>
        <time>2021-02-20T08:47:02Z</time>
      </trkpt>
      <trkpt lat="45.16386" lon="5.94533">
        <ele>2158.4</ele>
        <time>2021-02-20T08:47:03Z</time>
      </trkpt>
      <trkpt lat="45.16386" lon="5.94533">
        <ele>2158.4</ele>
        <time>2021-02-20T08:47:04Z</time>
      </trkpt>
      <trkpt lat="45.16386" lon="5.94534">
        <ele>2158.4</ele>
        <time>2021-02-20T08:47:05Z</time>
      </trkpt>
      <trkpt lat="45.16386" lon="5.94535">
        <ele>2158.4</ele>
        <time>2021-02-20T08:47:06Z</time>
      </trkpt>
      <trkpt lat="45.16385" lon="5.94536">
        <ele>2158.7</ele>
        <time>2021-02-20T08:47:07Z</time>
      </trkpt>
      <trkpt lat="45.16385" lon="5.94537">
        <ele>2159.7</ele>
        <time>2021-02-20T08:47:08Z</time>
      </trkpt>
      <trkpt lat="45.16385" lon="5.94538">
        <ele>2159.7</ele>
        <time>2021-02-20T08:47:09Z</time>
      </trkpt>
      <trkpt lat="45.16385" lon="5.94539">
        <ele>2159.7</ele>
        <time>2021-02-20T08:47:10Z</time>
      </trkpt>
      <trkpt lat="45.16385" lon="5.94539">
        <ele>2159.7</ele>
        <time>2021-02-20T08:47:11Z</time>
      </trkpt>
      <trkpt lat="45.16385" lon="5.94539">
        <ele>2159.7</ele>
        <time>2021-02-20T08:47:12Z</time>
      </trkpt>
      <trkpt lat="45.16385" lon="5.9454">
        <ele>2159.7</ele>
        <time>2021-02-20T08:47:13Z</time>
      </trkpt>
      <trkpt lat="45.16385" lon="5.9454">
        <ele>2159.7</ele>
        <time>2021-02-20T08:47:14Z</time>
      </trkpt>
      <trkpt lat="45.16385" lon="5.9454">
        <ele>2159.7</ele>
        <time>2021-02-20T08:47:15Z</time>
      </trkpt>
      <trkpt lat="45.16385" lon="5.9454">
        <ele>2159.7</ele>
        <time>2021-02-20T08:47:16Z</time>
      </trkpt>
      <trkpt lat="45.16385" lon="5.94541">
        <ele>2160.6</ele>
        <time>2021-02-20T08:47:17Z</time>
      </trkpt>
      <trkpt lat="45.16386" lon="5.94541">
        <ele>2160.4</ele>
        <time>2021-02-20T08:47:18Z</time>
      </trkpt>
      <trkpt lat="45.16386" lon="5.94542">
        <ele>2160.4</ele>
        <time>2021-02-20T08:47:19Z</time>
      </trkpt>
      <trkpt lat="45.16386" lon="5.94543">
        <ele>2160.4</ele>
        <time>2021-02-20T08:47:20Z</time>
      </trkpt>
      <trkpt lat="45.16386" lon="5.94544">
        <ele>2160.4</ele>
        <time>2021-02-20T08:47:21Z</time>
      </trkpt>
      <trkpt lat="45.16386" lon="5.94544">
        <ele>2160.4</ele>
        <time>2021-02-20T08:47:22Z</time>
      </trkpt>
      <trkpt lat="45.16386" lon="5.94545">
        <ele>2160.4</ele>
        <time>2021-02-20T08:47:23Z</time>
      </trkpt>
      <trkpt lat="45.16386" lon="5.94546">
        <ele>2161.3</ele>
        <time>2021-02-20T08:47:24Z</time>
      </trkpt>
      <trkpt lat="45.16386" lon="5.94546">
        <ele>2161.3</ele>
        <time>2021-02-20T08:47:25Z</time>
      </trkpt>
      <trkpt lat="45.16386" lon="5.94546">
        <ele>2161.3</ele>
        <time>2021-02-20T08:47:26Z</time>
      </trkpt>
      <trkpt lat="45.16386" lon="5.94546">
        <ele>2161.3</ele>
        <time>2021-02-20T08:47:27Z</time>
      </trkpt>
      <trkpt lat="45.16386" lon="5.94546">
        <ele>2161.3</ele>
        <time>2021-02-20T08:47:28Z</time>
      </trkpt>
      <trkpt lat="45.16387" lon="5.94546">
        <ele>2161.3</ele>
        <time>2021-02-20T08:47:29Z</time>
      </trkpt>
      <trkpt lat="45.16387" lon="5.94547">
        <ele>2161.3</ele>
        <time>2021-02-20T08:47:30Z</time>
      </trkpt>
      <trkpt lat="45.16388" lon="5.94548">
        <ele>2161.3</ele>
        <time>2021-02-20T08:47:31Z</time>
      </trkpt>
      <trkpt lat="45.16388" lon="5.94549">
        <ele>2161.3</ele>
        <time>2021-02-20T08:47:32Z</time>
      </trkpt>
      <trkpt lat="45.16387" lon="5.9455">
        <ele>2162.3</ele>
        <time>2021-02-20T08:47:33Z</time>
      </trkpt>
      <trkpt lat="45.16387" lon="5.9455">
        <ele>2162.3</ele>
        <time>2021-02-20T08:47:34Z</time>
      </trkpt>
      <trkpt lat="45.16387" lon="5.94551">
        <ele>2162.3</ele>
        <time>2021-02-20T08:47:35Z</time>
      </trkpt>
      <trkpt lat="45.16386" lon="5.94552">
        <ele>2162.3</ele>
        <time>2021-02-20T08:47:36Z</time>
      </trkpt>
      <trkpt lat="45.16386" lon="5.94553">
        <ele>2162.3</ele>
        <time>2021-02-20T08:47:37Z</time>
      </trkpt>
      <trkpt lat="45.16386" lon="5.94554">
        <ele>2163.1</ele>
        <time>2021-02-20T08:47:38Z</time>
      </trkpt>
      <trkpt lat="45.16385" lon="5.94555">
        <ele>2163.2</ele>
        <time>2021-02-20T08:47:39Z</time>
      </trkpt>
      <trkpt lat="45.16385" lon="5.94556">
        <ele>2163.2</ele>
        <time>2021-02-20T08:47:40Z</time>
      </trkpt>
      <trkpt lat="45.16385" lon="5.94557">
        <ele>2163.2</ele>
        <time>2021-02-20T08:47:41Z</time>
      </trkpt>
      <trkpt lat="45.16384" lon="5.94558">
        <ele>2163.2</ele>
        <time>2021-02-20T08:47:42Z</time>
      </trkpt>
      <trkpt lat="45.16384" lon="5.94558">
        <ele>2163.9</ele>
        <time>2021-02-20T08:47:43Z</time>
      </trkpt>
      <trkpt lat="45.16383" lon="5.94559">
        <ele>2163.9</ele>
        <time>2021-02-20T08:47:44Z</time>
      </trkpt>
      <trkpt lat="45.16383" lon="5.9456">
        <ele>2163.9</ele>
        <time>2021-02-20T08:47:45Z</time>
      </trkpt>
      <trkpt lat="45.16382" lon="5.94561">
        <ele>2163.9</ele>
        <time>2021-02-20T08:47:46Z</time>
      </trkpt>
      <trkpt lat="45.16382" lon="5.94562">
        <ele>2163.9</ele>
        <time>2021-02-20T08:47:47Z</time>
      </trkpt>
      <trkpt lat="45.16381" lon="5.94562">
        <ele>2164.6</ele>
        <time>2021-02-20T08:47:48Z</time>
      </trkpt>
      <trkpt lat="45.16381" lon="5.94563">
        <ele>2164.6</ele>
        <time>2021-02-20T08:47:49Z</time>
      </trkpt>
      <trkpt lat="45.1638" lon="5.94563">
        <ele>2164.6</ele>
        <time>2021-02-20T08:47:50Z</time>
      </trkpt>
      <trkpt lat="45.16379" lon="5.94564">
        <ele>2164.6</ele>
        <time>2021-02-20T08:47:51Z</time>
      </trkpt>
      <trkpt lat="45.16379" lon="5.94564">
        <ele>2164.6</ele>
        <time>2021-02-20T08:47:52Z</time>
      </trkpt>
      <trkpt lat="45.16378" lon="5.94565">
        <ele>2164.6</ele>
        <time>2021-02-20T08:47:53Z</time>
      </trkpt>
      <trkpt lat="45.16378" lon="5.94565">
        <ele>2164.6</ele>
        <time>2021-02-20T08:47:54Z</time>
      </trkpt>
      <trkpt lat="45.16377" lon="5.94565">
        <ele>2164.6</ele>
        <time>2021-02-20T08:47:55Z</time>
      </trkpt>
      <trkpt lat="45.16376" lon="5.94566">
        <ele>2164.6</ele>
        <time>2021-02-20T08:47:56Z</time>
      </trkpt>
      <trkpt lat="45.16376" lon="5.94566">
        <ele>2164.6</ele>
        <time>2021-02-20T08:47:57Z</time>
      </trkpt>
      <trkpt lat="45.16375" lon="5.94566">
        <ele>2164.6</ele>
        <time>2021-02-20T08:47:58Z</time>
      </trkpt>
      <trkpt lat="45.16374" lon="5.94567">
        <ele>2165.2</ele>
        <time>2021-02-20T08:47:59Z</time>
      </trkpt>
      <trkpt lat="45.16374" lon="5.94568">
        <ele>2165.2</ele>
        <time>2021-02-20T08:48:00Z</time>
      </trkpt>
      <trkpt lat="45.16374" lon="5.94569">
        <ele>2165.2</ele>
        <time>2021-02-20T08:48:01Z</time>
      </trkpt>
      <trkpt lat="45.16373" lon="5.94569">
        <ele>2165.2</ele>
        <time>2021-02-20T08:48:02Z</time>
      </trkpt>
      <trkpt lat="45.16373" lon="5.9457">
        <ele>2165.2</ele>
        <time>2021-02-20T08:48:03Z</time>
      </trkpt>
      <trkpt lat="45.16373" lon="5.9457">
        <ele>2165.2</ele>
        <time>2021-02-20T08:48:04Z</time>
      </trkpt>
      <trkpt lat="45.16373" lon="5.94571">
        <ele>2165.8</ele>
        <time>2021-02-20T08:48:05Z</time>
      </trkpt>
      <trkpt lat="45.16373" lon="5.94571">
        <ele>2165.8</ele>
        <time>2021-02-20T08:48:06Z</time>
      </trkpt>
      <trkpt lat="45.16374" lon="5.94571">
        <ele>2165.8</ele>
        <time>2021-02-20T08:48:07Z</time>
      </trkpt>
      <trkpt lat="45.16374" lon="5.94571">
        <ele>2165.8</ele>
        <time>2021-02-20T08:48:08Z</time>
      </trkpt>
      <trkpt lat="45.16374" lon="5.94571">
        <ele>2165.8</ele>
        <time>2021-02-20T08:48:09Z</time>
      </trkpt>
      <trkpt lat="45.16374" lon="5.94571">
        <ele>2165.8</ele>
        <time>2021-02-20T08:48:10Z</time>
      </trkpt>
      <trkpt lat="45.16374" lon="5.94571">
        <ele>2165.8</ele>
        <time>2021-02-20T08:48:11Z</time>
      </trkpt>
      <trkpt lat="45.16375" lon="5.94571">
        <ele>2165.8</ele>
        <time>2021-02-20T08:48:12Z</time>
      </trkpt>
      <trkpt lat="45.16375" lon="5.94571">
        <ele>2165.8</ele>
        <time>2021-02-20T08:48:13Z</time>
      </trkpt>
      <trkpt lat="45.16375" lon="5.94571">
        <ele>2165.8</ele>
        <time>2021-02-20T08:48:14Z</time>
      </trkpt>
      <trkpt lat="45.16375" lon="5.94571">
        <ele>2165.8</ele>
        <time>2021-02-20T08:48:15Z</time>
      </trkpt>
      <trkpt lat="45.16375" lon="5.94571">
        <ele>2165.8</ele>
        <time>2021-02-20T08:48:16Z</time>
      </trkpt>
      <trkpt lat="45.16372" lon="5.9457">
        <ele>2165.2</ele>
        <time>2021-02-20T08:49:32Z</time>
      </trkpt>
      <trkpt lat="45.16373" lon="5.94568">
        <ele>2165.2</ele>
        <time>2021-02-20T08:49:33Z</time>
      </trkpt>
      <trkpt lat="45.16373" lon="5.94567">
        <ele>2165.2</ele>
        <time>2021-02-20T08:49:34Z</time>
      </trkpt>
      <trkpt lat="45.16373" lon="5.94567">
        <ele>2165.2</ele>
        <time>2021-02-20T08:49:35Z</time>
      </trkpt>
      <trkpt lat="45.16374" lon="5.94567">
        <ele>2165.2</ele>
        <time>2021-02-20T08:49:36Z</time>
      </trkpt>
      <trkpt lat="45.16374" lon="5.94567">
        <ele>2165.2</ele>
        <time>2021-02-20T08:49:37Z</time>
      </trkpt>
      <trkpt lat="45.16375" lon="5.94566">
        <ele>2164.6</ele>
        <time>2021-02-20T08:49:38Z</time>
      </trkpt>
      <trkpt lat="45.16375" lon="5.94566">
        <ele>2164.6</ele>
        <time>2021-02-20T08:49:39Z</time>
      </trkpt>
      <trkpt lat="45.16375" lon="5.94566">
        <ele>2164.6</ele>
        <time>2021-02-20T08:49:40Z</time>
      </trkpt>
      <trkpt lat="45.16375" lon="5.94566">
        <ele>2164.6</ele>
        <time>2021-02-20T08:49:41Z</time>
      </trkpt>
      <trkpt lat="45.16375" lon="5.94566">
        <ele>2164.6</ele>
        <time>2021-02-20T08:49:42Z</time>
      </trkpt>
      <trkpt lat="45.16376" lon="5.94563">
        <ele>2164.6</ele>
        <time>2021-02-20T08:49:56Z</time>
      </trkpt>
      <trkpt lat="45.16376" lon="5.94561">
        <ele>2164</ele>
        <time>2021-02-20T08:49:57Z</time>
      </trkpt>
      <trkpt lat="45.16376" lon="5.94561">
        <ele>2164</ele>
        <time>2021-02-20T08:49:58Z</time>
      </trkpt>
      <trkpt lat="45.16376" lon="5.94561">
        <ele>2164</ele>
        <time>2021-02-20T08:49:59Z</time>
      </trkpt>
      <trkpt lat="45.16376" lon="5.94561">
        <ele>2164</ele>
        <time>2021-02-20T08:50:00Z</time>
      </trkpt>
      <trkpt lat="45.16376" lon="5.94561">
        <ele>2164</ele>
        <time>2021-02-20T08:50:01Z</time>
      </trkpt>
      <trkpt lat="45.16376" lon="5.94561">
        <ele>2164</ele>
        <time>2021-02-20T08:50:02Z</time>
      </trkpt>
      <trkpt lat="45.16371" lon="5.94563">
        <ele>2164.7</ele>
        <time>2021-02-20T08:50:03Z</time>
      </trkpt>
      <trkpt lat="45.16373" lon="5.94564">
        <ele>2164.7</ele>
        <time>2021-02-20T08:50:04Z</time>
      </trkpt>
      <trkpt lat="45.16374" lon="5.94565">
        <ele>2164.6</ele>
        <time>2021-02-20T08:50:05Z</time>
      </trkpt>
      <trkpt lat="45.16375" lon="5.94566">
        <ele>2164.6</ele>
        <time>2021-02-20T08:50:06Z</time>
      </trkpt>
      <trkpt lat="45.16376" lon="5.94566">
        <ele>2165.2</ele>
        <time>2021-02-20T08:50:30Z</time>
      </trkpt>
      <trkpt lat="45.16378" lon="5.94567">
        <ele>2165.2</ele>
        <time>2021-02-20T08:50:31Z</time>
      </trkpt>
      <trkpt lat="45.16379" lon="5.94568">
        <ele>2165.2</ele>
        <time>2021-02-20T08:50:32Z</time>
      </trkpt>
      <trkpt lat="45.16381" lon="5.94568">
        <ele>2165.3</ele>
        <time>2021-02-20T08:50:33Z</time>
      </trkpt>
      <trkpt lat="45.16382" lon="5.94568">
        <ele>2165.3</ele>
        <time>2021-02-20T08:50:34Z</time>
      </trkpt>
      <trkpt lat="45.16383" lon="5.94569">
        <ele>2165.4</ele>
        <time>2021-02-20T08:50:35Z</time>
      </trkpt>
      <trkpt lat="45.16384" lon="5.94569">
        <ele>2165.4</ele>
        <time>2021-02-20T08:50:36Z</time>
      </trkpt>
      <trkpt lat="45.16385" lon="5.94571">
        <ele>2165.4</ele>
        <time>2021-02-20T08:50:37Z</time>
      </trkpt>
      <trkpt lat="45.16386" lon="5.94571">
        <ele>2166.2</ele>
        <time>2021-02-20T08:50:38Z</time>
      </trkpt>
      <trkpt lat="45.16386" lon="5.94572">
        <ele>2166.2</ele>
        <time>2021-02-20T08:50:39Z</time>
      </trkpt>
      <trkpt lat="45.16386" lon="5.94573">
        <ele>2166.2</ele>
        <time>2021-02-20T08:50:40Z</time>
      </trkpt>
      <trkpt lat="45.16387" lon="5.94574">
        <ele>2166.2</ele>
        <time>2021-02-20T08:50:41Z</time>
      </trkpt>
      <trkpt lat="45.16387" lon="5.94575">
        <ele>2167</ele>
        <time>2021-02-20T08:50:42Z</time>
      </trkpt>
      <trkpt lat="45.16387" lon="5.94576">
        <ele>2167</ele>
        <time>2021-02-20T08:50:43Z</time>
      </trkpt>
      <trkpt lat="45.16388" lon="5.94577">
        <ele>2167</ele>
        <time>2021-02-20T08:50:44Z</time>
      </trkpt>
      <trkpt lat="45.16389" lon="5.94577">
        <ele>2167.2</ele>
        <time>2021-02-20T08:50:45Z</time>
      </trkpt>
      <trkpt lat="45.1639" lon="5.94578">
        <ele>2167.2</ele>
        <time>2021-02-20T08:50:46Z</time>
      </trkpt>
      <trkpt lat="45.16391" lon="5.94578">
        <ele>2167.2</ele>
        <time>2021-02-20T08:50:47Z</time>
      </trkpt>
      <trkpt lat="45.16391" lon="5.94578">
        <ele>2167.2</ele>
        <time>2021-02-20T08:50:48Z</time>
      </trkpt>
      <trkpt lat="45.16391" lon="5.94578">
        <ele>2167.2</ele>
        <time>2021-02-20T08:50:49Z</time>
      </trkpt>
      <trkpt lat="45.16392" lon="5.94578">
        <ele>2167.4</ele>
        <time>2021-02-20T08:50:50Z</time>
      </trkpt>
      <trkpt lat="45.16392" lon="5.94577">
        <ele>2167.4</ele>
        <time>2021-02-20T08:50:51Z</time>
      </trkpt>
      <trkpt lat="45.16393" lon="5.94577">
        <ele>2167.4</ele>
        <time>2021-02-20T08:50:52Z</time>
      </trkpt>
      <trkpt lat="45.16393" lon="5.94576">
        <ele>2167.4</ele>
        <time>2021-02-20T08:50:53Z</time>
      </trkpt>
      <trkpt lat="45.16393" lon="5.94576">
        <ele>2167.4</ele>
        <time>2021-02-20T08:50:54Z</time>
      </trkpt>
      <trkpt lat="45.16394" lon="5.94576">
        <ele>2167.4</ele>
        <time>2021-02-20T08:50:55Z</time>
      </trkpt>
      <trkpt lat="45.16394" lon="5.94576">
        <ele>2167.4</ele>
        <time>2021-02-20T08:50:56Z</time>
      </trkpt>
      <trkpt lat="45.16394" lon="5.94578">
        <ele>2167.4</ele>
        <time>2021-02-20T08:50:57Z</time>
      </trkpt>
      <trkpt lat="45.16394" lon="5.9458">
        <ele>2168.3</ele>
        <time>2021-02-20T08:50:58Z</time>
      </trkpt>
      <trkpt lat="45.16394" lon="5.94581">
        <ele>2168.3</ele>
        <time>2021-02-20T08:50:59Z</time>
      </trkpt>
      <trkpt lat="45.16394" lon="5.94582">
        <ele>2168.3</ele>
        <time>2021-02-20T08:51:00Z</time>
      </trkpt>
      <trkpt lat="45.16393" lon="5.94584">
        <ele>2169.2</ele>
        <time>2021-02-20T08:51:01Z</time>
      </trkpt>
      <trkpt lat="45.16393" lon="5.94585">
        <ele>2169.2</ele>
        <time>2021-02-20T08:51:02Z</time>
      </trkpt>
      <trkpt lat="45.16393" lon="5.94586">
        <ele>2169.2</ele>
        <time>2021-02-20T08:51:03Z</time>
      </trkpt>
      <trkpt lat="45.16392" lon="5.94587">
        <ele>2169.2</ele>
        <time>2021-02-20T08:51:04Z</time>
      </trkpt>
      <trkpt lat="45.16392" lon="5.94588">
        <ele>2169.2</ele>
        <time>2021-02-20T08:51:05Z</time>
      </trkpt>
      <trkpt lat="45.16392" lon="5.94588">
        <ele>2170.1</ele>
        <time>2021-02-20T08:51:06Z</time>
      </trkpt>
      <trkpt lat="45.16392" lon="5.94589">
        <ele>2170.1</ele>
        <time>2021-02-20T08:51:07Z</time>
      </trkpt>
      <trkpt lat="45.16392" lon="5.9459">
        <ele>2170.1</ele>
        <time>2021-02-20T08:51:08Z</time>
      </trkpt>
      <trkpt lat="45.16393" lon="5.9459">
        <ele>2170.1</ele>
        <time>2021-02-20T08:51:09Z</time>
      </trkpt>
      <trkpt lat="45.16393" lon="5.94591">
        <ele>2170.1</ele>
        <time>2021-02-20T08:51:10Z</time>
      </trkpt>
      <trkpt lat="45.16393" lon="5.94591">
        <ele>2170.1</ele>
        <time>2021-02-20T08:51:11Z</time>
      </trkpt>
      <trkpt lat="45.16394" lon="5.94591">
        <ele>2170.1</ele>
        <time>2021-02-20T08:51:12Z</time>
      </trkpt>
      <trkpt lat="45.16395" lon="5.94591">
        <ele>2170.3</ele>
        <time>2021-02-20T08:51:13Z</time>
      </trkpt>
      <trkpt lat="45.16395" lon="5.94591">
        <ele>2170.3</ele>
        <time>2021-02-20T08:51:14Z</time>
      </trkpt>
      <trkpt lat="45.16396" lon="5.94591">
        <ele>2170.3</ele>
        <time>2021-02-20T08:51:15Z</time>
      </trkpt>
      <trkpt lat="45.16397" lon="5.9459">
        <ele>2170.3</ele>
        <time>2021-02-20T08:51:16Z</time>
      </trkpt>
      <trkpt lat="45.16398" lon="5.9459">
        <ele>2170.6</ele>
        <time>2021-02-20T08:51:17Z</time>
      </trkpt>
      <trkpt lat="45.16398" lon="5.9459">
        <ele>2170.6</ele>
        <time>2021-02-20T08:51:18Z</time>
      </trkpt>
      <trkpt lat="45.16399" lon="5.9459">
        <ele>2170.6</ele>
        <time>2021-02-20T08:51:19Z</time>
      </trkpt>
      <trkpt lat="45.164" lon="5.9459">
        <ele>2170.6</ele>
        <time>2021-02-20T08:51:20Z</time>
      </trkpt>
      <trkpt lat="45.164" lon="5.9459">
        <ele>2170.6</ele>
        <time>2021-02-20T08:51:21Z</time>
      </trkpt>
      <trkpt lat="45.164" lon="5.9459">
        <ele>2170.6</ele>
        <time>2021-02-20T08:51:22Z</time>
      </trkpt>
      <trkpt lat="45.16401" lon="5.94591">
        <ele>2170.8</ele>
        <time>2021-02-20T08:51:23Z</time>
      </trkpt>
      <trkpt lat="45.16401" lon="5.94591">
        <ele>2170.8</ele>
        <time>2021-02-20T08:51:24Z</time>
      </trkpt>
      <trkpt lat="45.16402" lon="5.94592">
        <ele>2170.8</ele>
        <time>2021-02-20T08:51:25Z</time>
      </trkpt>
      <trkpt lat="45.16402" lon="5.94592">
        <ele>2171.7</ele>
        <time>2021-02-20T08:51:26Z</time>
      </trkpt>
      <trkpt lat="45.16403" lon="5.94593">
        <ele>2171.7</ele>
        <time>2021-02-20T08:51:27Z</time>
      </trkpt>
      <trkpt lat="45.16403" lon="5.94593">
        <ele>2171.7</ele>
        <time>2021-02-20T08:51:28Z</time>
      </trkpt>
      <trkpt lat="45.16404" lon="5.94593">
        <ele>2171.9</ele>
        <time>2021-02-20T08:51:29Z</time>
      </trkpt>
      <trkpt lat="45.16404" lon="5.94594">
        <ele>2171.9</ele>
        <time>2021-02-20T08:51:30Z</time>
      </trkpt>
      <trkpt lat="45.16405" lon="5.94594">
        <ele>2171.9</ele>
        <time>2021-02-20T08:51:31Z</time>
      </trkpt>
      <trkpt lat="45.16405" lon="5.94595">
        <ele>2171.9</ele>
        <time>2021-02-20T08:51:32Z</time>
      </trkpt>
      <trkpt lat="45.16406" lon="5.94595">
        <ele>2171.9</ele>
        <time>2021-02-20T08:51:33Z</time>
      </trkpt>
      <trkpt lat="45.16406" lon="5.94596">
        <ele>2171.9</ele>
        <time>2021-02-20T08:51:34Z</time>
      </trkpt>
      <trkpt lat="45.16407" lon="5.94596">
        <ele>2172.2</ele>
        <time>2021-02-20T08:51:35Z</time>
      </trkpt>
      <trkpt lat="45.16407" lon="5.94596">
        <ele>2172.2</ele>
        <time>2021-02-20T08:51:36Z</time>
      </trkpt>
      <trkpt lat="45.16408" lon="5.94597">
        <ele>2173</ele>
        <time>2021-02-20T08:51:37Z</time>
      </trkpt>
      <trkpt lat="45.16408" lon="5.94597">
        <ele>2173</ele>
        <time>2021-02-20T08:51:38Z</time>
      </trkpt>
      <trkpt lat="45.16409" lon="5.94597">
        <ele>2173</ele>
        <time>2021-02-20T08:51:39Z</time>
      </trkpt>
      <trkpt lat="45.16409" lon="5.94597">
        <ele>2173</ele>
        <time>2021-02-20T08:51:40Z</time>
      </trkpt>
      <trkpt lat="45.16409" lon="5.94597">
        <ele>2173</ele>
        <time>2021-02-20T08:51:41Z</time>
      </trkpt>
      <trkpt lat="45.16409" lon="5.94597">
        <ele>2173</ele>
        <time>2021-02-20T08:51:42Z</time>
      </trkpt>
      <trkpt lat="45.16409" lon="5.94597">
        <ele>2173</ele>
        <time>2021-02-20T08:51:43Z</time>
      </trkpt>
      <trkpt lat="45.16409" lon="5.94596">
        <ele>2172.2</ele>
        <time>2021-02-20T08:51:44Z</time>
      </trkpt>
      <trkpt lat="45.16409" lon="5.94596">
        <ele>2172.2</ele>
        <time>2021-02-20T08:51:45Z</time>
      </trkpt>
      <trkpt lat="45.1641" lon="5.94596">
        <ele>2172.5</ele>
        <time>2021-02-20T08:51:46Z</time>
      </trkpt>
      <trkpt lat="45.16411" lon="5.94596">
        <ele>2173.3</ele>
        <time>2021-02-20T08:51:47Z</time>
      </trkpt>
      <trkpt lat="45.16412" lon="5.94597">
        <ele>2173.3</ele>
        <time>2021-02-20T08:51:48Z</time>
      </trkpt>
      <trkpt lat="45.16412" lon="5.94597">
        <ele>2173.3</ele>
        <time>2021-02-20T08:51:49Z</time>
      </trkpt>
      <trkpt lat="45.16412" lon="5.94597">
        <ele>2173.3</ele>
        <time>2021-02-20T08:51:50Z</time>
      </trkpt>
      <trkpt lat="45.16412" lon="5.94597">
        <ele>2173.3</ele>
        <time>2021-02-20T08:51:51Z</time>
      </trkpt>
      <trkpt lat="45.16413" lon="5.94597">
        <ele>2173.6</ele>
        <time>2021-02-20T08:51:52Z</time>
      </trkpt>
      <trkpt lat="45.16414" lon="5.94597">
        <ele>2173.6</ele>
        <time>2021-02-20T08:51:53Z</time>
      </trkpt>
      <trkpt lat="45.16414" lon="5.94597">
        <ele>2173.6</ele>
        <time>2021-02-20T08:51:54Z</time>
      </trkpt>
      <trkpt lat="45.16415" lon="5.94597">
        <ele>2173.6</ele>
        <time>2021-02-20T08:51:55Z</time>
      </trkpt>
      <trkpt lat="45.16415" lon="5.94597">
        <ele>2173.6</ele>
        <time>2021-02-20T08:51:56Z</time>
      </trkpt>
      <trkpt lat="45.16416" lon="5.94597">
        <ele>2173.9</ele>
        <time>2021-02-20T08:51:57Z</time>
      </trkpt>
      <trkpt lat="45.16416" lon="5.94598">
        <ele>2173.9</ele>
        <time>2021-02-20T08:51:58Z</time>
      </trkpt>
      <trkpt lat="45.16417" lon="5.94598">
        <ele>2173.9</ele>
        <time>2021-02-20T08:51:59Z</time>
      </trkpt>
      <trkpt lat="45.16417" lon="5.94599">
        <ele>2173.9</ele>
        <time>2021-02-20T08:52:00Z</time>
      </trkpt>
      <trkpt lat="45.16418" lon="5.94599">
        <ele>2173.9</ele>
        <time>2021-02-20T08:52:01Z</time>
      </trkpt>
      <trkpt lat="45.16418" lon="5.946">
        <ele>2173.9</ele>
        <time>2021-02-20T08:52:02Z</time>
      </trkpt>
      <trkpt lat="45.16419" lon="5.94601">
        <ele>2173.9</ele>
        <time>2021-02-20T08:52:03Z</time>
      </trkpt>
      <trkpt lat="45.16419" lon="5.94601">
        <ele>2175</ele>
        <time>2021-02-20T08:52:04Z</time>
      </trkpt>
      <trkpt lat="45.16419" lon="5.94602">
        <ele>2175</ele>
        <time>2021-02-20T08:52:05Z</time>
      </trkpt>
      <trkpt lat="45.1642" lon="5.94602">
        <ele>2175</ele>
        <time>2021-02-20T08:52:06Z</time>
      </trkpt>
      <trkpt lat="45.1642" lon="5.94602">
        <ele>2175</ele>
        <time>2021-02-20T08:52:07Z</time>
      </trkpt>
      <trkpt lat="45.1642" lon="5.94602">
        <ele>2175</ele>
        <time>2021-02-20T08:52:08Z</time>
      </trkpt>
      <trkpt lat="45.1642" lon="5.94603">
        <ele>2175</ele>
        <time>2021-02-20T08:52:09Z</time>
      </trkpt>
      <trkpt lat="45.16421" lon="5.94604">
        <ele>2175</ele>
        <time>2021-02-20T08:52:10Z</time>
      </trkpt>
      <trkpt lat="45.16421" lon="5.94605">
        <ele>2175</ele>
        <time>2021-02-20T08:52:11Z</time>
      </trkpt>
      <trkpt lat="45.16421" lon="5.94605">
        <ele>2175.7</ele>
        <time>2021-02-20T08:52:12Z</time>
      </trkpt>
      <trkpt lat="45.16422" lon="5.94606">
        <ele>2176</ele>
        <time>2021-02-20T08:52:13Z</time>
      </trkpt>
      <trkpt lat="45.16422" lon="5.94606">
        <ele>2176</ele>
        <time>2021-02-20T08:52:14Z</time>
      </trkpt>
      <trkpt lat="45.16422" lon="5.94606">
        <ele>2176</ele>
        <time>2021-02-20T08:52:15Z</time>
      </trkpt>
      <trkpt lat="45.16423" lon="5.94607">
        <ele>2176</ele>
        <time>2021-02-20T08:52:16Z</time>
      </trkpt>
      <trkpt lat="45.16424" lon="5.94607">
        <ele>2176</ele>
        <time>2021-02-20T08:52:17Z</time>
      </trkpt>
      <trkpt lat="45.16425" lon="5.94608">
        <ele>2176.3</ele>
        <time>2021-02-20T08:52:18Z</time>
      </trkpt>
      <trkpt lat="45.16425" lon="5.94609">
        <ele>2176.3</ele>
        <time>2021-02-20T08:52:19Z</time>
      </trkpt>
      <trkpt lat="45.16426" lon="5.94609">
        <ele>2176.3</ele>
        <time>2021-02-20T08:52:20Z</time>
      </trkpt>
      <trkpt lat="45.16426" lon="5.9461">
        <ele>2177</ele>
        <time>2021-02-20T08:52:21Z</time>
      </trkpt>
      <trkpt lat="45.16427" lon="5.9461">
        <ele>2177</ele>
        <time>2021-02-20T08:52:22Z</time>
      </trkpt>
      <trkpt lat="45.16428" lon="5.9461">
        <ele>2177</ele>
        <time>2021-02-20T08:52:23Z</time>
      </trkpt>
      <trkpt lat="45.16428" lon="5.9461">
        <ele>2177.3</ele>
        <time>2021-02-20T08:52:24Z</time>
      </trkpt>
      <trkpt lat="45.16428" lon="5.9461">
        <ele>2177.3</ele>
        <time>2021-02-20T08:52:25Z</time>
      </trkpt>
      <trkpt lat="45.16429" lon="5.9461">
        <ele>2177.3</ele>
        <time>2021-02-20T08:52:26Z</time>
      </trkpt>
      <trkpt lat="45.16429" lon="5.9461">
        <ele>2177.3</ele>
        <time>2021-02-20T08:52:27Z</time>
      </trkpt>
      <trkpt lat="45.16429" lon="5.9461">
        <ele>2177.3</ele>
        <time>2021-02-20T08:52:28Z</time>
      </trkpt>
      <trkpt lat="45.1643" lon="5.9461">
        <ele>2177.3</ele>
        <time>2021-02-20T08:52:29Z</time>
      </trkpt>
      <trkpt lat="45.1643" lon="5.9461">
        <ele>2177.3</ele>
        <time>2021-02-20T08:52:30Z</time>
      </trkpt>
      <trkpt lat="45.1643" lon="5.9461">
        <ele>2177.3</ele>
        <time>2021-02-20T08:52:31Z</time>
      </trkpt>
      <trkpt lat="45.16431" lon="5.9461">
        <ele>2177.3</ele>
        <time>2021-02-20T08:52:32Z</time>
      </trkpt>
      <trkpt lat="45.16431" lon="5.9461">
        <ele>2177.3</ele>
        <time>2021-02-20T08:52:33Z</time>
      </trkpt>
      <trkpt lat="45.16431" lon="5.94611">
        <ele>2177.6</ele>
        <time>2021-02-20T08:52:36Z</time>
      </trkpt>
      <trkpt lat="45.16432" lon="5.94611">
        <ele>2177.6</ele>
        <time>2021-02-20T08:52:37Z</time>
      </trkpt>
      <trkpt lat="45.16432" lon="5.94611">
        <ele>2177.6</ele>
        <time>2021-02-20T08:52:38Z</time>
      </trkpt>
      <trkpt lat="45.16432" lon="5.94611">
        <ele>2177.6</ele>
        <time>2021-02-20T08:52:39Z</time>
      </trkpt>
      <trkpt lat="45.16433" lon="5.94611">
        <ele>2177.6</ele>
        <time>2021-02-20T08:52:40Z</time>
      </trkpt>
      <trkpt lat="45.16433" lon="5.94611">
        <ele>2177.6</ele>
        <time>2021-02-20T08:52:41Z</time>
      </trkpt>
      <trkpt lat="45.16434" lon="5.94611">
        <ele>2177.6</ele>
        <time>2021-02-20T08:52:42Z</time>
      </trkpt>
      <trkpt lat="45.16435" lon="5.94611">
        <ele>2177.9</ele>
        <time>2021-02-20T08:52:43Z</time>
      </trkpt>
      <trkpt lat="45.16436" lon="5.94612">
        <ele>2177.9</ele>
        <time>2021-02-20T08:52:44Z</time>
      </trkpt>
      <trkpt lat="45.16437" lon="5.94612">
        <ele>2177.9</ele>
        <time>2021-02-20T08:52:45Z</time>
      </trkpt>
      <trkpt lat="45.16438" lon="5.94612">
        <ele>2178.2</ele>
        <time>2021-02-20T08:52:46Z</time>
      </trkpt>
      <trkpt lat="45.16439" lon="5.94612">
        <ele>2178.2</ele>
        <time>2021-02-20T08:52:47Z</time>
      </trkpt>
      <trkpt lat="45.1644" lon="5.94613">
        <ele>2178.6</ele>
        <time>2021-02-20T08:52:48Z</time>
      </trkpt>
      <trkpt lat="45.16441" lon="5.94613">
        <ele>2178.6</ele>
        <time>2021-02-20T08:52:49Z</time>
      </trkpt>
      <trkpt lat="45.16442" lon="5.94613">
        <ele>2178.6</ele>
        <time>2021-02-20T08:52:50Z</time>
      </trkpt>
      <trkpt lat="45.16442" lon="5.94613">
        <ele>2178.6</ele>
        <time>2021-02-20T08:52:51Z</time>
      </trkpt>
      <trkpt lat="45.16444" lon="5.94613">
        <ele>2179.1</ele>
        <time>2021-02-20T08:52:52Z</time>
      </trkpt>
      <trkpt lat="45.16445" lon="5.94613">
        <ele>2179.1</ele>
        <time>2021-02-20T08:52:53Z</time>
      </trkpt>
      <trkpt lat="45.16446" lon="5.94613">
        <ele>2179.1</ele>
        <time>2021-02-20T08:52:54Z</time>
      </trkpt>
      <trkpt lat="45.16446" lon="5.94613">
        <ele>2179.6</ele>
        <time>2021-02-20T08:52:55Z</time>
      </trkpt>
      <trkpt lat="45.16447" lon="5.94614">
        <ele>2180.3</ele>
        <time>2021-02-20T08:52:56Z</time>
      </trkpt>
      <trkpt lat="45.16447" lon="5.94615">
        <ele>2180.3</ele>
        <time>2021-02-20T08:52:57Z</time>
      </trkpt>
      <trkpt lat="45.16448" lon="5.94615">
        <ele>2180.3</ele>
        <time>2021-02-20T08:52:58Z</time>
      </trkpt>
      <trkpt lat="45.16448" lon="5.94616">
        <ele>2180.3</ele>
        <time>2021-02-20T08:52:59Z</time>
      </trkpt>
      <trkpt lat="45.16449" lon="5.94616">
        <ele>2180.8</ele>
        <time>2021-02-20T08:53:00Z</time>
      </trkpt>
      <trkpt lat="45.16449" lon="5.94617">
        <ele>2180.8</ele>
        <time>2021-02-20T08:53:01Z</time>
      </trkpt>
      <trkpt lat="45.1645" lon="5.94617">
        <ele>2180.8</ele>
        <time>2021-02-20T08:53:02Z</time>
      </trkpt>
      <trkpt lat="45.16449" lon="5.94617">
        <ele>2180.8</ele>
        <time>2021-02-20T08:53:03Z</time>
      </trkpt>
      <trkpt lat="45.1645" lon="5.94618">
        <ele>2181.5</ele>
        <time>2021-02-20T08:53:04Z</time>
      </trkpt>
      <trkpt lat="45.1645" lon="5.94619">
        <ele>2181.5</ele>
        <time>2021-02-20T08:53:05Z</time>
      </trkpt>
      <trkpt lat="45.16451" lon="5.94619">
        <ele>2181.5</ele>
        <time>2021-02-20T08:53:06Z</time>
      </trkpt>
      <trkpt lat="45.16451" lon="5.94619">
        <ele>2181.5</ele>
        <time>2021-02-20T08:53:07Z</time>
      </trkpt>
      <trkpt lat="45.16452" lon="5.9462">
        <ele>2181.5</ele>
        <time>2021-02-20T08:53:08Z</time>
      </trkpt>
      <trkpt lat="45.16452" lon="5.9462">
        <ele>2182.1</ele>
        <time>2021-02-20T08:53:09Z</time>
      </trkpt>
      <trkpt lat="45.16453" lon="5.9462">
        <ele>2182.1</ele>
        <time>2021-02-20T08:53:10Z</time>
      </trkpt>
      <trkpt lat="45.16453" lon="5.94621">
        <ele>2182.1</ele>
        <time>2021-02-20T08:53:11Z</time>
      </trkpt>
      <trkpt lat="45.16454" lon="5.94621">
        <ele>2182.1</ele>
        <time>2021-02-20T08:53:12Z</time>
      </trkpt>
      <trkpt lat="45.16454" lon="5.94622">
        <ele>2182.1</ele>
        <time>2021-02-20T08:53:13Z</time>
      </trkpt>
      <trkpt lat="45.16454" lon="5.94623">
        <ele>2182.8</ele>
        <time>2021-02-20T08:53:14Z</time>
      </trkpt>
      <trkpt lat="45.16454" lon="5.94624">
        <ele>2182.8</ele>
        <time>2021-02-20T08:53:15Z</time>
      </trkpt>
      <trkpt lat="45.16455" lon="5.94625">
        <ele>2182.8</ele>
        <time>2021-02-20T08:53:16Z</time>
      </trkpt>
      <trkpt lat="45.16455" lon="5.94625">
        <ele>2182.8</ele>
        <time>2021-02-20T08:53:17Z</time>
      </trkpt>
      <trkpt lat="45.16455" lon="5.94626">
        <ele>2183.4</ele>
        <time>2021-02-20T08:53:18Z</time>
      </trkpt>
      <trkpt lat="45.16456" lon="5.94627">
        <ele>2184.1</ele>
        <time>2021-02-20T08:53:19Z</time>
      </trkpt>
      <trkpt lat="45.16456" lon="5.94628">
        <ele>2184.1</ele>
        <time>2021-02-20T08:53:20Z</time>
      </trkpt>
      <trkpt lat="45.16456" lon="5.94629">
        <ele>2184.1</ele>
        <time>2021-02-20T08:53:21Z</time>
      </trkpt>
      <trkpt lat="45.16456" lon="5.9463">
        <ele>2184.1</ele>
        <time>2021-02-20T08:53:22Z</time>
      </trkpt>
      <trkpt lat="45.16457" lon="5.9463">
        <ele>2184.1</ele>
        <time>2021-02-20T08:53:23Z</time>
      </trkpt>
      <trkpt lat="45.16457" lon="5.94631">
        <ele>2184.9</ele>
        <time>2021-02-20T08:53:24Z</time>
      </trkpt>
      <trkpt lat="45.16457" lon="5.94632">
        <ele>2184.9</ele>
        <time>2021-02-20T08:53:25Z</time>
      </trkpt>
      <trkpt lat="45.16457" lon="5.94633">
        <ele>2184.9</ele>
        <time>2021-02-20T08:53:26Z</time>
      </trkpt>
      <trkpt lat="45.16457" lon="5.94634">
        <ele>2184.9</ele>
        <time>2021-02-20T08:53:27Z</time>
      </trkpt>
      <trkpt lat="45.16458" lon="5.94635">
        <ele>2184.9</ele>
        <time>2021-02-20T08:53:28Z</time>
      </trkpt>
      <trkpt lat="45.16458" lon="5.94635">
        <ele>2185.4</ele>
        <time>2021-02-20T08:53:29Z</time>
      </trkpt>
      <trkpt lat="45.16459" lon="5.94635">
        <ele>2185.4</ele>
        <time>2021-02-20T08:53:30Z</time>
      </trkpt>
      <trkpt lat="45.1646" lon="5.94635">
        <ele>2186.1</ele>
        <time>2021-02-20T08:53:31Z</time>
      </trkpt>
      <trkpt lat="45.1646" lon="5.94635">
        <ele>2186.1</ele>
        <time>2021-02-20T08:53:32Z</time>
      </trkpt>
      <trkpt lat="45.16461" lon="5.94635">
        <ele>2186.1</ele>
        <time>2021-02-20T08:53:33Z</time>
      </trkpt>
      <trkpt lat="45.16461" lon="5.94636">
        <ele>2186.1</ele>
        <time>2021-02-20T08:53:34Z</time>
      </trkpt>
      <trkpt lat="45.16461" lon="5.94636">
        <ele>2186.6</ele>
        <time>2021-02-20T08:53:35Z</time>
      </trkpt>
      <trkpt lat="45.16462" lon="5.94636">
        <ele>2186.6</ele>
        <time>2021-02-20T08:53:36Z</time>
      </trkpt>
      <trkpt lat="45.16462" lon="5.94636">
        <ele>2186.6</ele>
        <time>2021-02-20T08:53:37Z</time>
      </trkpt>
      <trkpt lat="45.16463" lon="5.94636">
        <ele>2186.6</ele>
        <time>2021-02-20T08:53:38Z</time>
      </trkpt>
      <trkpt lat="45.16463" lon="5.94636">
        <ele>2186.6</ele>
        <time>2021-02-20T08:53:39Z</time>
      </trkpt>
      <trkpt lat="45.16463" lon="5.94637">
        <ele>2186.6</ele>
        <time>2021-02-20T08:53:40Z</time>
      </trkpt>
      <trkpt lat="45.16464" lon="5.94637">
        <ele>2186.6</ele>
        <time>2021-02-20T08:53:41Z</time>
      </trkpt>
      <trkpt lat="45.16465" lon="5.94637">
        <ele>2187.2</ele>
        <time>2021-02-20T08:53:42Z</time>
      </trkpt>
      <trkpt lat="45.16466" lon="5.94637">
        <ele>2187.2</ele>
        <time>2021-02-20T08:53:43Z</time>
      </trkpt>
      <trkpt lat="45.16467" lon="5.94637">
        <ele>2187.2</ele>
        <time>2021-02-20T08:53:44Z</time>
      </trkpt>
      <trkpt lat="45.16467" lon="5.94638">
        <ele>2187.9</ele>
        <time>2021-02-20T08:53:45Z</time>
      </trkpt>
      <trkpt lat="45.16468" lon="5.94638">
        <ele>2187.9</ele>
        <time>2021-02-20T08:53:46Z</time>
      </trkpt>
      <trkpt lat="45.16469" lon="5.94638">
        <ele>2187.9</ele>
        <time>2021-02-20T08:53:47Z</time>
      </trkpt>
      <trkpt lat="45.1647" lon="5.94639">
        <ele>2187.9</ele>
        <time>2021-02-20T08:53:48Z</time>
      </trkpt>
      <trkpt lat="45.1647" lon="5.9464">
        <ele>2188.4</ele>
        <time>2021-02-20T08:53:49Z</time>
      </trkpt>
      <trkpt lat="45.1647" lon="5.9464">
        <ele>2189.2</ele>
        <time>2021-02-20T08:53:50Z</time>
      </trkpt>
      <trkpt lat="45.16471" lon="5.94641">
        <ele>2189.2</ele>
        <time>2021-02-20T08:53:51Z</time>
      </trkpt>
      <trkpt lat="45.16472" lon="5.94641">
        <ele>2189.2</ele>
        <time>2021-02-20T08:53:52Z</time>
      </trkpt>
      <trkpt lat="45.16472" lon="5.94642">
        <ele>2189.2</ele>
        <time>2021-02-20T08:53:53Z</time>
      </trkpt>
      <trkpt lat="45.16473" lon="5.94642">
        <ele>2189.2</ele>
        <time>2021-02-20T08:53:54Z</time>
      </trkpt>
      <trkpt lat="45.16474" lon="5.94642">
        <ele>2190</ele>
        <time>2021-02-20T08:53:55Z</time>
      </trkpt>
      <trkpt lat="45.16474" lon="5.94642">
        <ele>2190</ele>
        <time>2021-02-20T08:53:56Z</time>
      </trkpt>
      <trkpt lat="45.16475" lon="5.94643">
        <ele>2190</ele>
        <time>2021-02-20T08:53:57Z</time>
      </trkpt>
      <trkpt lat="45.16476" lon="5.94643">
        <ele>2190.8</ele>
        <time>2021-02-20T08:53:58Z</time>
      </trkpt>
      <trkpt lat="45.16477" lon="5.94643">
        <ele>2190.8</ele>
        <time>2021-02-20T08:53:59Z</time>
      </trkpt>
      <trkpt lat="45.16478" lon="5.94643">
        <ele>2190.8</ele>
        <time>2021-02-20T08:54:00Z</time>
      </trkpt>
      <trkpt lat="45.16478" lon="5.94643">
        <ele>2190.8</ele>
        <time>2021-02-20T08:54:01Z</time>
      </trkpt>
      <trkpt lat="45.16479" lon="5.94644">
        <ele>2191.3</ele>
        <time>2021-02-20T08:54:02Z</time>
      </trkpt>
      <trkpt lat="45.16479" lon="5.94644">
        <ele>2192.1</ele>
        <time>2021-02-20T08:54:03Z</time>
      </trkpt>
      <trkpt lat="45.1648" lon="5.94645">
        <ele>2192.1</ele>
        <time>2021-02-20T08:54:04Z</time>
      </trkpt>
      <trkpt lat="45.16481" lon="5.94645">
        <ele>2192.1</ele>
        <time>2021-02-20T08:54:05Z</time>
      </trkpt>
      <trkpt lat="45.16482" lon="5.94645">
        <ele>2192.1</ele>
        <time>2021-02-20T08:54:06Z</time>
      </trkpt>
      <trkpt lat="45.16482" lon="5.94645">
        <ele>2192.8</ele>
        <time>2021-02-20T08:54:07Z</time>
      </trkpt>
      <trkpt lat="45.16483" lon="5.94646">
        <ele>2192.8</ele>
        <time>2021-02-20T08:54:08Z</time>
      </trkpt>
      <trkpt lat="45.16484" lon="5.94646">
        <ele>2192.8</ele>
        <time>2021-02-20T08:54:09Z</time>
      </trkpt>
      <trkpt lat="45.16485" lon="5.94646">
        <ele>2192.8</ele>
        <time>2021-02-20T08:54:10Z</time>
      </trkpt>
      <trkpt lat="45.16485" lon="5.94647">
        <ele>2193.5</ele>
        <time>2021-02-20T08:54:11Z</time>
      </trkpt>
      <trkpt lat="45.16486" lon="5.94647">
        <ele>2193.5</ele>
        <time>2021-02-20T08:54:12Z</time>
      </trkpt>
      <trkpt lat="45.16486" lon="5.94648">
        <ele>2193.5</ele>
        <time>2021-02-20T08:54:13Z</time>
      </trkpt>
      <trkpt lat="45.16486" lon="5.94649">
        <ele>2193.9</ele>
        <time>2021-02-20T08:54:14Z</time>
      </trkpt>
      <trkpt lat="45.16487" lon="5.94649">
        <ele>2193.9</ele>
        <time>2021-02-20T08:54:15Z</time>
      </trkpt>
      <trkpt lat="45.16487" lon="5.9465">
        <ele>2193.9</ele>
        <time>2021-02-20T08:54:16Z</time>
      </trkpt>
      <trkpt lat="45.16488" lon="5.9465">
        <ele>2193.9</ele>
        <time>2021-02-20T08:54:17Z</time>
      </trkpt>
      <trkpt lat="45.16488" lon="5.94651">
        <ele>2193.9</ele>
        <time>2021-02-20T08:54:18Z</time>
      </trkpt>
      <trkpt lat="45.16489" lon="5.94652">
        <ele>2194.7</ele>
        <time>2021-02-20T08:54:19Z</time>
      </trkpt>
      <trkpt lat="45.16489" lon="5.94652">
        <ele>2195.1</ele>
        <time>2021-02-20T08:54:20Z</time>
      </trkpt>
      <trkpt lat="45.1649" lon="5.94653">
        <ele>2195.1</ele>
        <time>2021-02-20T08:54:21Z</time>
      </trkpt>
      <trkpt lat="45.1649" lon="5.94653">
        <ele>2195.1</ele>
        <time>2021-02-20T08:54:22Z</time>
      </trkpt>
      <trkpt lat="45.16491" lon="5.94653">
        <ele>2195.1</ele>
        <time>2021-02-20T08:54:23Z</time>
      </trkpt>
      <trkpt lat="45.16491" lon="5.94654">
        <ele>2195.9</ele>
        <time>2021-02-20T08:54:24Z</time>
      </trkpt>
      <trkpt lat="45.16492" lon="5.94654">
        <ele>2195.9</ele>
        <time>2021-02-20T08:54:25Z</time>
      </trkpt>
      <trkpt lat="45.16492" lon="5.94654">
        <ele>2195.9</ele>
        <time>2021-02-20T08:54:26Z</time>
      </trkpt>
      <trkpt lat="45.16493" lon="5.94655">
        <ele>2195.9</ele>
        <time>2021-02-20T08:54:27Z</time>
      </trkpt>
      <trkpt lat="45.16493" lon="5.94655">
        <ele>2195.9</ele>
        <time>2021-02-20T08:54:28Z</time>
      </trkpt>
      <trkpt lat="45.16493" lon="5.94655">
        <ele>2195.9</ele>
        <time>2021-02-20T08:54:29Z</time>
      </trkpt>
      <trkpt lat="45.16494" lon="5.94656">
        <ele>2195.9</ele>
        <time>2021-02-20T08:54:30Z</time>
      </trkpt>
      <trkpt lat="45.16494" lon="5.94656">
        <ele>2195.9</ele>
        <time>2021-02-20T08:54:31Z</time>
      </trkpt>
      <trkpt lat="45.16494" lon="5.94657">
        <ele>2196.4</ele>
        <time>2021-02-20T08:54:32Z</time>
      </trkpt>
      <trkpt lat="45.16494" lon="5.94658">
        <ele>2196.4</ele>
        <time>2021-02-20T08:54:33Z</time>
      </trkpt>
      <trkpt lat="45.16493" lon="5.9466">
        <ele>2196.4</ele>
        <time>2021-02-20T08:54:34Z</time>
      </trkpt>
      <trkpt lat="45.16493" lon="5.94661">
        <ele>2196.9</ele>
        <time>2021-02-20T08:54:35Z</time>
      </trkpt>
      <trkpt lat="45.16493" lon="5.94662">
        <ele>2196.9</ele>
        <time>2021-02-20T08:54:36Z</time>
      </trkpt>
      <trkpt lat="45.16494" lon="5.94663">
        <ele>2196.9</ele>
        <time>2021-02-20T08:54:37Z</time>
      </trkpt>
      <trkpt lat="45.16494" lon="5.94663">
        <ele>2196.9</ele>
        <time>2021-02-20T08:54:38Z</time>
      </trkpt>
      <trkpt lat="45.16495" lon="5.94664">
        <ele>2197.8</ele>
        <time>2021-02-20T08:54:39Z</time>
      </trkpt>
      <trkpt lat="45.16496" lon="5.94665">
        <ele>2197.8</ele>
        <time>2021-02-20T08:54:40Z</time>
      </trkpt>
      <trkpt lat="45.16496" lon="5.94666">
        <ele>2198.4</ele>
        <time>2021-02-20T08:54:41Z</time>
      </trkpt>
      <trkpt lat="45.16496" lon="5.94667">
        <ele>2198.4</ele>
        <time>2021-02-20T08:54:42Z</time>
      </trkpt>
      <trkpt lat="45.16497" lon="5.94667">
        <ele>2198.4</ele>
        <time>2021-02-20T08:54:43Z</time>
      </trkpt>
      <trkpt lat="45.16497" lon="5.94668">
        <ele>2198.4</ele>
        <time>2021-02-20T08:54:44Z</time>
      </trkpt>
      <trkpt lat="45.16498" lon="5.94669">
        <ele>2199.4</ele>
        <time>2021-02-20T08:54:45Z</time>
      </trkpt>
      <trkpt lat="45.16498" lon="5.9467">
        <ele>2199.9</ele>
        <time>2021-02-20T08:54:46Z</time>
      </trkpt>
      <trkpt lat="45.16499" lon="5.94671">
        <ele>2199.9</ele>
        <time>2021-02-20T08:54:47Z</time>
      </trkpt>
      <trkpt lat="45.16499" lon="5.94671">
        <ele>2199.9</ele>
        <time>2021-02-20T08:54:48Z</time>
      </trkpt>
      <trkpt lat="45.165" lon="5.94672">
        <ele>2199.9</ele>
        <time>2021-02-20T08:54:49Z</time>
      </trkpt>
      <trkpt lat="45.165" lon="5.94673">
        <ele>2199.9</ele>
        <time>2021-02-20T08:54:50Z</time>
      </trkpt>
      <trkpt lat="45.16501" lon="5.94674">
        <ele>2200.9</ele>
        <time>2021-02-20T08:54:51Z</time>
      </trkpt>
      <trkpt lat="45.16501" lon="5.94674">
        <ele>2201.4</ele>
        <time>2021-02-20T08:54:52Z</time>
      </trkpt>
      <trkpt lat="45.16501" lon="5.94675">
        <ele>2201.4</ele>
        <time>2021-02-20T08:54:53Z</time>
      </trkpt>
      <trkpt lat="45.16501" lon="5.94676">
        <ele>2201.4</ele>
        <time>2021-02-20T08:54:54Z</time>
      </trkpt>
      <trkpt lat="45.16502" lon="5.94677">
        <ele>2201.4</ele>
        <time>2021-02-20T08:54:55Z</time>
      </trkpt>
      <trkpt lat="45.16502" lon="5.94677">
        <ele>2201.4</ele>
        <time>2021-02-20T08:54:56Z</time>
      </trkpt>
      <trkpt lat="45.16503" lon="5.94678">
        <ele>2201.4</ele>
        <time>2021-02-20T08:54:57Z</time>
      </trkpt>
      <trkpt lat="45.16503" lon="5.94679">
        <ele>2201.9</ele>
        <time>2021-02-20T08:54:58Z</time>
      </trkpt>
      <trkpt lat="45.16503" lon="5.9468">
        <ele>2201.9</ele>
        <time>2021-02-20T08:54:59Z</time>
      </trkpt>
      <trkpt lat="45.16504" lon="5.9468">
        <ele>2202.9</ele>
        <time>2021-02-20T08:55:00Z</time>
      </trkpt>
      <trkpt lat="45.16504" lon="5.94681">
        <ele>2202.9</ele>
        <time>2021-02-20T08:55:01Z</time>
      </trkpt>
      <trkpt lat="45.16504" lon="5.94682">
        <ele>2202.9</ele>
        <time>2021-02-20T08:55:02Z</time>
      </trkpt>
      <trkpt lat="45.16505" lon="5.94682">
        <ele>2203.3</ele>
        <time>2021-02-20T08:55:03Z</time>
      </trkpt>
      <trkpt lat="45.16505" lon="5.94683">
        <ele>2203.3</ele>
        <time>2021-02-20T08:55:04Z</time>
      </trkpt>
      <trkpt lat="45.16505" lon="5.94683">
        <ele>2203.3</ele>
        <time>2021-02-20T08:55:05Z</time>
      </trkpt>
      <trkpt lat="45.16506" lon="5.94684">
        <ele>2203.3</ele>
        <time>2021-02-20T08:55:06Z</time>
      </trkpt>
      <trkpt lat="45.16506" lon="5.94684">
        <ele>2203.3</ele>
        <time>2021-02-20T08:55:07Z</time>
      </trkpt>
      <trkpt lat="45.16506" lon="5.94685">
        <ele>2203.3</ele>
        <time>2021-02-20T08:55:08Z</time>
      </trkpt>
      <trkpt lat="45.16507" lon="5.94685">
        <ele>2204.2</ele>
        <time>2021-02-20T08:55:09Z</time>
      </trkpt>
      <trkpt lat="45.16507" lon="5.94686">
        <ele>2204.2</ele>
        <time>2021-02-20T08:55:10Z</time>
      </trkpt>
      <trkpt lat="45.16507" lon="5.94686">
        <ele>2204.2</ele>
        <time>2021-02-20T08:55:11Z</time>
      </trkpt>
      <trkpt lat="45.16508" lon="5.94687">
        <ele>2204.6</ele>
        <time>2021-02-20T08:55:12Z</time>
      </trkpt>
      <trkpt lat="45.16508" lon="5.94688">
        <ele>2204.6</ele>
        <time>2021-02-20T08:55:13Z</time>
      </trkpt>
      <trkpt lat="45.16508" lon="5.94689">
        <ele>2204.6</ele>
        <time>2021-02-20T08:55:14Z</time>
      </trkpt>
      <trkpt lat="45.16509" lon="5.9469">
        <ele>2204.6</ele>
        <time>2021-02-20T08:55:15Z</time>
      </trkpt>
      <trkpt lat="45.16509" lon="5.94691">
        <ele>2205</ele>
        <time>2021-02-20T08:55:16Z</time>
      </trkpt>
      <trkpt lat="45.16509" lon="5.94692">
        <ele>2205</ele>
        <time>2021-02-20T08:55:17Z</time>
      </trkpt>
      <trkpt lat="45.16509" lon="5.94693">
        <ele>2205</ele>
        <time>2021-02-20T08:55:18Z</time>
      </trkpt>
      <trkpt lat="45.1651" lon="5.94694">
        <ele>2205.8</ele>
        <time>2021-02-20T08:55:19Z</time>
      </trkpt>
      <trkpt lat="45.1651" lon="5.94695">
        <ele>2205.8</ele>
        <time>2021-02-20T08:55:20Z</time>
      </trkpt>
      <trkpt lat="45.1651" lon="5.94696">
        <ele>2206.2</ele>
        <time>2021-02-20T08:55:21Z</time>
      </trkpt>
      <trkpt lat="45.16511" lon="5.94696">
        <ele>2206.2</ele>
        <time>2021-02-20T08:55:22Z</time>
      </trkpt>
      <trkpt lat="45.16511" lon="5.94697">
        <ele>2206.2</ele>
        <time>2021-02-20T08:55:23Z</time>
      </trkpt>
      <trkpt lat="45.16512" lon="5.94697">
        <ele>2206.2</ele>
        <time>2021-02-20T08:55:24Z</time>
      </trkpt>
      <trkpt lat="45.16512" lon="5.94697">
        <ele>2206.2</ele>
        <time>2021-02-20T08:55:25Z</time>
      </trkpt>
      <trkpt lat="45.16513" lon="5.94698">
        <ele>2207</ele>
        <time>2021-02-20T08:55:26Z</time>
      </trkpt>
      <trkpt lat="45.16513" lon="5.94698">
        <ele>2207</ele>
        <time>2021-02-20T08:55:27Z</time>
      </trkpt>
      <trkpt lat="45.16514" lon="5.94699">
        <ele>2207</ele>
        <time>2021-02-20T08:55:28Z</time>
      </trkpt>
      <trkpt lat="45.16515" lon="5.94699">
        <ele>2207</ele>
        <time>2021-02-20T08:55:29Z</time>
      </trkpt>
      <trkpt lat="45.16516" lon="5.94699">
        <ele>2207.9</ele>
        <time>2021-02-20T08:55:30Z</time>
      </trkpt>
      <trkpt lat="45.16516" lon="5.94699">
        <ele>2208.3</ele>
        <time>2021-02-20T08:55:31Z</time>
      </trkpt>
      <trkpt lat="45.16517" lon="5.947">
        <ele>2208.3</ele>
        <time>2021-02-20T08:55:32Z</time>
      </trkpt>
      <trkpt lat="45.16519" lon="5.947">
        <ele>2209.2</ele>
        <time>2021-02-20T08:55:33Z</time>
      </trkpt>
      <trkpt lat="45.1652" lon="5.94701">
        <ele>2209.2</ele>
        <time>2021-02-20T08:55:34Z</time>
      </trkpt>
      <trkpt lat="45.16521" lon="5.94701">
        <ele>2209.2</ele>
        <time>2021-02-20T08:55:35Z</time>
      </trkpt>
      <trkpt lat="45.16524" lon="5.94703">
        <ele>2210.2</ele>
        <time>2021-02-20T08:55:36Z</time>
      </trkpt>
      <trkpt lat="45.16525" lon="5.94703">
        <ele>2211.3</ele>
        <time>2021-02-20T08:55:37Z</time>
      </trkpt>
      <trkpt lat="45.16528" lon="5.94705">
        <ele>2211.6</ele>
        <time>2021-02-20T08:55:38Z</time>
      </trkpt>
      <trkpt lat="45.1653" lon="5.94707">
        <ele>2212.7</ele>
        <time>2021-02-20T08:55:39Z</time>
      </trkpt>
      <trkpt lat="45.16531" lon="5.94709">
        <ele>2214.2</ele>
        <time>2021-02-20T08:55:40Z</time>
      </trkpt>
      <trkpt lat="45.16533" lon="5.94709">
        <ele>2214.2</ele>
        <time>2021-02-20T08:55:41Z</time>
      </trkpt>
      <trkpt lat="45.16535" lon="5.9471">
        <ele>2215.3</ele>
        <time>2021-02-20T08:55:42Z</time>
      </trkpt>
      <trkpt lat="45.16535" lon="5.9471">
        <ele>2215.3</ele>
        <time>2021-02-20T08:55:43Z</time>
      </trkpt>
      <trkpt lat="45.16536" lon="5.9471">
        <ele>2215.3</ele>
        <time>2021-02-20T08:55:44Z</time>
      </trkpt>
      <trkpt lat="45.16537" lon="5.94711">
        <ele>2216.5</ele>
        <time>2021-02-20T08:55:45Z</time>
      </trkpt>
      <trkpt lat="45.16537" lon="5.94713">
        <ele>2216.7</ele>
        <time>2021-02-20T08:55:46Z</time>
      </trkpt>
      <trkpt lat="45.16537" lon="5.94714">
        <ele>2216.7</ele>
        <time>2021-02-20T08:55:47Z</time>
      </trkpt>
      <trkpt lat="45.16537" lon="5.94716">
        <ele>2216.7</ele>
        <time>2021-02-20T08:55:48Z</time>
      </trkpt>
      <trkpt lat="45.16537" lon="5.94717">
        <ele>2217</ele>
        <time>2021-02-20T08:55:49Z</time>
      </trkpt>
      <trkpt lat="45.16538" lon="5.94719">
        <ele>2217</ele>
        <time>2021-02-20T08:55:50Z</time>
      </trkpt>
      <trkpt lat="45.16538" lon="5.9472">
        <ele>2217</ele>
        <time>2021-02-20T08:55:51Z</time>
      </trkpt>
      <trkpt lat="45.16538" lon="5.94721">
        <ele>2217.3</ele>
        <time>2021-02-20T08:55:52Z</time>
      </trkpt>
      <trkpt lat="45.16539" lon="5.94722">
        <ele>2217.3</ele>
        <time>2021-02-20T08:55:53Z</time>
      </trkpt>
      <trkpt lat="45.16539" lon="5.94723">
        <ele>2217.3</ele>
        <time>2021-02-20T08:55:54Z</time>
      </trkpt>
      <trkpt lat="45.16539" lon="5.94724">
        <ele>2217.3</ele>
        <time>2021-02-20T08:55:55Z</time>
      </trkpt>
      <trkpt lat="45.16539" lon="5.94725">
        <ele>2217.6</ele>
        <time>2021-02-20T08:55:56Z</time>
      </trkpt>
      <trkpt lat="45.16539" lon="5.94726">
        <ele>2217.6</ele>
        <time>2021-02-20T08:55:57Z</time>
      </trkpt>
      <trkpt lat="45.1654" lon="5.94727">
        <ele>2217.6</ele>
        <time>2021-02-20T08:55:58Z</time>
      </trkpt>
      <trkpt lat="45.1654" lon="5.94728">
        <ele>2217.6</ele>
        <time>2021-02-20T08:55:59Z</time>
      </trkpt>
      <trkpt lat="45.1654" lon="5.94729">
        <ele>2218.6</ele>
        <time>2021-02-20T08:56:00Z</time>
      </trkpt>
      <trkpt lat="45.1654" lon="5.9473">
        <ele>2218.9</ele>
        <time>2021-02-20T08:56:01Z</time>
      </trkpt>
      <trkpt lat="45.1654" lon="5.94731">
        <ele>2218.9</ele>
        <time>2021-02-20T08:56:02Z</time>
      </trkpt>
      <trkpt lat="45.1654" lon="5.94733">
        <ele>2217.9</ele>
        <time>2021-02-20T08:56:03Z</time>
      </trkpt>
      <trkpt lat="45.1654" lon="5.94734">
        <ele>2217.9</ele>
        <time>2021-02-20T08:56:04Z</time>
      </trkpt>
      <trkpt lat="45.1654" lon="5.94735">
        <ele>2219.1</ele>
        <time>2021-02-20T08:56:05Z</time>
      </trkpt>
      <trkpt lat="45.1654" lon="5.94735">
        <ele>2219.1</ele>
        <time>2021-02-20T08:56:06Z</time>
      </trkpt>
      <trkpt lat="45.1654" lon="5.94736">
        <ele>2219.1</ele>
        <time>2021-02-20T08:56:07Z</time>
      </trkpt>
      <trkpt lat="45.1654" lon="5.94737">
        <ele>2219.1</ele>
        <time>2021-02-20T08:56:08Z</time>
      </trkpt>
      <trkpt lat="45.16541" lon="5.94738">
        <ele>2219.3</ele>
        <time>2021-02-20T08:56:09Z</time>
      </trkpt>
      <trkpt lat="45.16541" lon="5.94739">
        <ele>2219.3</ele>
        <time>2021-02-20T08:56:10Z</time>
      </trkpt>
      <trkpt lat="45.16541" lon="5.9474">
        <ele>2219.3</ele>
        <time>2021-02-20T08:56:11Z</time>
      </trkpt>
      <trkpt lat="45.16541" lon="5.94742">
        <ele>2219.3</ele>
        <time>2021-02-20T08:56:12Z</time>
      </trkpt>
      <trkpt lat="45.16541" lon="5.94743">
        <ele>2219.6</ele>
        <time>2021-02-20T08:56:13Z</time>
      </trkpt>
      <trkpt lat="45.16541" lon="5.94744">
        <ele>2219.6</ele>
        <time>2021-02-20T08:56:14Z</time>
      </trkpt>
      <trkpt lat="45.16541" lon="5.94745">
        <ele>2219.6</ele>
        <time>2021-02-20T08:56:15Z</time>
      </trkpt>
      <trkpt lat="45.16542" lon="5.94745">
        <ele>2219.6</ele>
        <time>2021-02-20T08:56:16Z</time>
      </trkpt>
      <trkpt lat="45.16542" lon="5.94746">
        <ele>2219.6</ele>
        <time>2021-02-20T08:56:17Z</time>
      </trkpt>
      <trkpt lat="45.16543" lon="5.94746">
        <ele>2220.5</ele>
        <time>2021-02-20T08:56:18Z</time>
      </trkpt>
      <trkpt lat="45.16543" lon="5.94747">
        <ele>2220.8</ele>
        <time>2021-02-20T08:56:19Z</time>
      </trkpt>
      <trkpt lat="45.16544" lon="5.94748">
        <ele>2220.8</ele>
        <time>2021-02-20T08:56:20Z</time>
      </trkpt>
      <trkpt lat="45.16544" lon="5.94748">
        <ele>2220.8</ele>
        <time>2021-02-20T08:56:21Z</time>
      </trkpt>
      <trkpt lat="45.16545" lon="5.94749">
        <ele>2220.8</ele>
        <time>2021-02-20T08:56:22Z</time>
      </trkpt>
      <trkpt lat="45.16545" lon="5.94749">
        <ele>2220.8</ele>
        <time>2021-02-20T08:56:23Z</time>
      </trkpt>
      <trkpt lat="45.16546" lon="5.9475">
        <ele>2220.8</ele>
        <time>2021-02-20T08:56:24Z</time>
      </trkpt>
      <trkpt lat="45.16546" lon="5.94751">
        <ele>2221.9</ele>
        <time>2021-02-20T08:56:25Z</time>
      </trkpt>
      <trkpt lat="45.16546" lon="5.94752">
        <ele>2221.9</ele>
        <time>2021-02-20T08:56:26Z</time>
      </trkpt>
      <trkpt lat="45.16546" lon="5.94753">
        <ele>2221.9</ele>
        <time>2021-02-20T08:56:27Z</time>
      </trkpt>
      <trkpt lat="45.16547" lon="5.94754">
        <ele>2221.9</ele>
        <time>2021-02-20T08:56:28Z</time>
      </trkpt>
      <trkpt lat="45.16548" lon="5.94754">
        <ele>2221.9</ele>
        <time>2021-02-20T08:56:29Z</time>
      </trkpt>
      <trkpt lat="45.16549" lon="5.94755">
        <ele>2221.9</ele>
        <time>2021-02-20T08:56:30Z</time>
      </trkpt>
      <trkpt lat="45.16549" lon="5.94755">
        <ele>2222.9</ele>
        <time>2021-02-20T08:56:31Z</time>
      </trkpt>
      <trkpt lat="45.1655" lon="5.94756">
        <ele>2223.2</ele>
        <time>2021-02-20T08:56:32Z</time>
      </trkpt>
      <trkpt lat="45.16551" lon="5.94756">
        <ele>2223.2</ele>
        <time>2021-02-20T08:56:33Z</time>
      </trkpt>
      <trkpt lat="45.16551" lon="5.94757">
        <ele>2223.2</ele>
        <time>2021-02-20T08:56:34Z</time>
      </trkpt>
      <trkpt lat="45.16552" lon="5.94757">
        <ele>2223.2</ele>
        <time>2021-02-20T08:56:35Z</time>
      </trkpt>
      <trkpt lat="45.16553" lon="5.94758">
        <ele>2224.1</ele>
        <time>2021-02-20T08:56:36Z</time>
      </trkpt>
      <trkpt lat="45.16553" lon="5.94759">
        <ele>2224.1</ele>
        <time>2021-02-20T08:56:37Z</time>
      </trkpt>
      <trkpt lat="45.16554" lon="5.9476">
        <ele>2224.5</ele>
        <time>2021-02-20T08:56:38Z</time>
      </trkpt>
      <trkpt lat="45.16555" lon="5.9476">
        <ele>2225.5</ele>
        <time>2021-02-20T08:56:39Z</time>
      </trkpt>
      <trkpt lat="45.16556" lon="5.94761">
        <ele>2225.5</ele>
        <time>2021-02-20T08:56:40Z</time>
      </trkpt>
      <trkpt lat="45.16556" lon="5.94762">
        <ele>2225.5</ele>
        <time>2021-02-20T08:56:41Z</time>
      </trkpt>
      <trkpt lat="45.16557" lon="5.94763">
        <ele>2225.5</ele>
        <time>2021-02-20T08:56:42Z</time>
      </trkpt>
      <trkpt lat="45.16557" lon="5.94764">
        <ele>2225.9</ele>
        <time>2021-02-20T08:56:43Z</time>
      </trkpt>
      <trkpt lat="45.16557" lon="5.94765">
        <ele>2225.9</ele>
        <time>2021-02-20T08:56:44Z</time>
      </trkpt>
      <trkpt lat="45.16558" lon="5.94766">
        <ele>2226.9</ele>
        <time>2021-02-20T08:56:45Z</time>
      </trkpt>
      <trkpt lat="45.16559" lon="5.94766">
        <ele>2226.9</ele>
        <time>2021-02-20T08:56:46Z</time>
      </trkpt>
      <trkpt lat="45.1656" lon="5.94766">
        <ele>2226.9</ele>
        <time>2021-02-20T08:56:47Z</time>
      </trkpt>
      <trkpt lat="45.16561" lon="5.94767">
        <ele>2226.9</ele>
        <time>2021-02-20T08:56:48Z</time>
      </trkpt>
      <trkpt lat="45.16561" lon="5.94768">
        <ele>2228.3</ele>
        <time>2021-02-20T08:56:49Z</time>
      </trkpt>
      <trkpt lat="45.16562" lon="5.94769">
        <ele>2228.3</ele>
        <time>2021-02-20T08:56:50Z</time>
      </trkpt>
      <trkpt lat="45.16562" lon="5.9477">
        <ele>2228.3</ele>
        <time>2021-02-20T08:56:51Z</time>
      </trkpt>
      <trkpt lat="45.16562" lon="5.94771">
        <ele>2228.3</ele>
        <time>2021-02-20T08:56:52Z</time>
      </trkpt>
      <trkpt lat="45.16563" lon="5.94772">
        <ele>2228.3</ele>
        <time>2021-02-20T08:56:53Z</time>
      </trkpt>
      <trkpt lat="45.16563" lon="5.94773">
        <ele>2228.6</ele>
        <time>2021-02-20T08:56:54Z</time>
      </trkpt>
      <trkpt lat="45.16564" lon="5.94774">
        <ele>2228.6</ele>
        <time>2021-02-20T08:56:55Z</time>
      </trkpt>
      <trkpt lat="45.16564" lon="5.94775">
        <ele>2229.6</ele>
        <time>2021-02-20T08:56:56Z</time>
      </trkpt>
      <trkpt lat="45.16565" lon="5.94775">
        <ele>2229.6</ele>
        <time>2021-02-20T08:56:57Z</time>
      </trkpt>
      <trkpt lat="45.16565" lon="5.94776">
        <ele>2229.6</ele>
        <time>2021-02-20T08:56:58Z</time>
      </trkpt>
      <trkpt lat="45.16566" lon="5.94777">
        <ele>2230</ele>
        <time>2021-02-20T08:56:59Z</time>
      </trkpt>
      <trkpt lat="45.16566" lon="5.94778">
        <ele>2230</ele>
        <time>2021-02-20T08:57:00Z</time>
      </trkpt>
      <trkpt lat="45.16566" lon="5.94779">
        <ele>2230</ele>
        <time>2021-02-20T08:57:01Z</time>
      </trkpt>
      <trkpt lat="45.16567" lon="5.9478">
        <ele>2230.9</ele>
        <time>2021-02-20T08:57:02Z</time>
      </trkpt>
      <trkpt lat="45.16568" lon="5.94781">
        <ele>2230.9</ele>
        <time>2021-02-20T08:57:03Z</time>
      </trkpt>
      <trkpt lat="45.16568" lon="5.94781">
        <ele>2231.2</ele>
        <time>2021-02-20T08:57:04Z</time>
      </trkpt>
      <trkpt lat="45.16568" lon="5.94782">
        <ele>2231.2</ele>
        <time>2021-02-20T08:57:05Z</time>
      </trkpt>
      <trkpt lat="45.16568" lon="5.94783">
        <ele>2231.2</ele>
        <time>2021-02-20T08:57:06Z</time>
      </trkpt>
      <trkpt lat="45.16569" lon="5.94784">
        <ele>2231.2</ele>
        <time>2021-02-20T08:57:07Z</time>
      </trkpt>
      <trkpt lat="45.16569" lon="5.94785">
        <ele>2231.2</ele>
        <time>2021-02-20T08:57:08Z</time>
      </trkpt>
      <trkpt lat="45.16569" lon="5.94785">
        <ele>2231.6</ele>
        <time>2021-02-20T08:57:09Z</time>
      </trkpt>
      <trkpt lat="45.16569" lon="5.94786">
        <ele>2231.6</ele>
        <time>2021-02-20T08:57:10Z</time>
      </trkpt>
      <trkpt lat="45.16569" lon="5.94787">
        <ele>2231.6</ele>
        <time>2021-02-20T08:57:11Z</time>
      </trkpt>
      <trkpt lat="45.1657" lon="5.94788">
        <ele>2231.6</ele>
        <time>2021-02-20T08:57:12Z</time>
      </trkpt>
      <trkpt lat="45.1657" lon="5.94789">
        <ele>2232.5</ele>
        <time>2021-02-20T08:57:13Z</time>
      </trkpt>
      <trkpt lat="45.16571" lon="5.9479">
        <ele>2232.9</ele>
        <time>2021-02-20T08:57:14Z</time>
      </trkpt>
      <trkpt lat="45.16571" lon="5.94791">
        <ele>2232.9</ele>
        <time>2021-02-20T08:57:15Z</time>
      </trkpt>
      <trkpt lat="45.16571" lon="5.94792">
        <ele>2232.9</ele>
        <time>2021-02-20T08:57:16Z</time>
      </trkpt>
      <trkpt lat="45.16571" lon="5.94793">
        <ele>2232.9</ele>
        <time>2021-02-20T08:57:17Z</time>
      </trkpt>
      <trkpt lat="45.16571" lon="5.94793">
        <ele>2232.9</ele>
        <time>2021-02-20T08:57:18Z</time>
      </trkpt>
      <trkpt lat="45.16571" lon="5.94794">
        <ele>2233.3</ele>
        <time>2021-02-20T08:57:19Z</time>
      </trkpt>
      <trkpt lat="45.16571" lon="5.94796">
        <ele>2233.3</ele>
        <time>2021-02-20T08:57:20Z</time>
      </trkpt>
      <trkpt lat="45.16571" lon="5.94796">
        <ele>2233.3</ele>
        <time>2021-02-20T08:57:21Z</time>
      </trkpt>
      <trkpt lat="45.16571" lon="5.94797">
        <ele>2233.3</ele>
        <time>2021-02-20T08:57:22Z</time>
      </trkpt>
      <trkpt lat="45.1657" lon="5.94799">
        <ele>2233.8</ele>
        <time>2021-02-20T08:57:23Z</time>
      </trkpt>
      <trkpt lat="45.1657" lon="5.948">
        <ele>2233.8</ele>
        <time>2021-02-20T08:57:24Z</time>
      </trkpt>
      <trkpt lat="45.1657" lon="5.94801">
        <ele>2233.8</ele>
        <time>2021-02-20T08:57:25Z</time>
      </trkpt>
      <trkpt lat="45.1657" lon="5.94801">
        <ele>2232.9</ele>
        <time>2021-02-20T08:57:26Z</time>
      </trkpt>
      <trkpt lat="45.16569" lon="5.94802">
        <ele>2232.9</ele>
        <time>2021-02-20T08:57:27Z</time>
      </trkpt>
      <trkpt lat="45.16569" lon="5.94803">
        <ele>2233.4</ele>
        <time>2021-02-20T08:57:28Z</time>
      </trkpt>
      <trkpt lat="45.16569" lon="5.94804">
        <ele>2233.4</ele>
        <time>2021-02-20T08:57:29Z</time>
      </trkpt>
      <trkpt lat="45.16568" lon="5.94804">
        <ele>2233.4</ele>
        <time>2021-02-20T08:57:30Z</time>
      </trkpt>
      <trkpt lat="45.16568" lon="5.94805">
        <ele>2233.4</ele>
        <time>2021-02-20T08:57:31Z</time>
      </trkpt>
      <trkpt lat="45.16568" lon="5.94805">
        <ele>2233.4</ele>
        <time>2021-02-20T08:57:32Z</time>
      </trkpt>
      <trkpt lat="45.16567" lon="5.94806">
        <ele>2233.4</ele>
        <time>2021-02-20T08:57:33Z</time>
      </trkpt>
      <trkpt lat="45.16567" lon="5.94807">
        <ele>2232.5</ele>
        <time>2021-02-20T08:57:34Z</time>
      </trkpt>
      <trkpt lat="45.16566" lon="5.94807">
        <ele>2233.1</ele>
        <time>2021-02-20T08:57:35Z</time>
      </trkpt>
      <trkpt lat="45.16566" lon="5.94807">
        <ele>2233.1</ele>
        <time>2021-02-20T08:57:36Z</time>
      </trkpt>
      <trkpt lat="45.16566" lon="5.94808">
        <ele>2233.1</ele>
        <time>2021-02-20T08:57:37Z</time>
      </trkpt>
      <trkpt lat="45.16565" lon="5.94808">
        <ele>2233.1</ele>
        <time>2021-02-20T08:57:38Z</time>
      </trkpt>
      <trkpt lat="45.16564" lon="5.94809">
        <ele>2233.1</ele>
        <time>2021-02-20T08:57:39Z</time>
      </trkpt>
      <trkpt lat="45.16564" lon="5.94809">
        <ele>2233.1</ele>
        <time>2021-02-20T08:57:40Z</time>
      </trkpt>
      <trkpt lat="45.16564" lon="5.94809">
        <ele>2233.1</ele>
        <time>2021-02-20T08:57:41Z</time>
      </trkpt>
      <trkpt lat="45.16564" lon="5.94809">
        <ele>2233.1</ele>
        <time>2021-02-20T08:57:42Z</time>
      </trkpt>
      <trkpt lat="45.16564" lon="5.9481">
        <ele>2232.2</ele>
        <time>2021-02-20T08:57:43Z</time>
      </trkpt>
      <trkpt lat="45.16564" lon="5.94811">
        <ele>2232.8</ele>
        <time>2021-02-20T08:57:44Z</time>
      </trkpt>
      <trkpt lat="45.16563" lon="5.94812">
        <ele>2232.8</ele>
        <time>2021-02-20T08:57:45Z</time>
      </trkpt>
      <trkpt lat="45.16563" lon="5.94812">
        <ele>2232.8</ele>
        <time>2021-02-20T08:57:46Z</time>
      </trkpt>
      <trkpt lat="45.16563" lon="5.94813">
        <ele>2232.8</ele>
        <time>2021-02-20T08:57:47Z</time>
      </trkpt>
      <trkpt lat="45.16562" lon="5.94814">
        <ele>2232.8</ele>
        <time>2021-02-20T08:57:48Z</time>
      </trkpt>
      <trkpt lat="45.16562" lon="5.94814">
        <ele>2232.8</ele>
        <time>2021-02-20T08:57:49Z</time>
      </trkpt>
      <trkpt lat="45.16562" lon="5.94815">
        <ele>2232.8</ele>
        <time>2021-02-20T08:57:50Z</time>
      </trkpt>
      <trkpt lat="45.16562" lon="5.94816">
        <ele>2233.3</ele>
        <time>2021-02-20T08:57:51Z</time>
      </trkpt>
      <trkpt lat="45.16562" lon="5.94817">
        <ele>2233.3</ele>
        <time>2021-02-20T08:57:52Z</time>
      </trkpt>
      <trkpt lat="45.16562" lon="5.94817">
        <ele>2233.3</ele>
        <time>2021-02-20T08:57:53Z</time>
      </trkpt>
      <trkpt lat="45.16562" lon="5.94818">
        <ele>2233.3</ele>
        <time>2021-02-20T08:57:54Z</time>
      </trkpt>
      <trkpt lat="45.16562" lon="5.94818">
        <ele>2233.3</ele>
        <time>2021-02-20T08:57:55Z</time>
      </trkpt>
      <trkpt lat="45.16563" lon="5.94819">
        <ele>2233.3</ele>
        <time>2021-02-20T08:57:56Z</time>
      </trkpt>
      <trkpt lat="45.16563" lon="5.94819">
        <ele>2233.3</ele>
        <time>2021-02-20T08:57:57Z</time>
      </trkpt>
      <trkpt lat="45.16564" lon="5.94819">
        <ele>2233.3</ele>
        <time>2021-02-20T08:57:58Z</time>
      </trkpt>
      <trkpt lat="45.16564" lon="5.94819">
        <ele>2234.2</ele>
        <time>2021-02-20T08:57:59Z</time>
      </trkpt>
      <trkpt lat="45.16564" lon="5.94819">
        <ele>2234.2</ele>
        <time>2021-02-20T08:58:00Z</time>
      </trkpt>
      <trkpt lat="45.16565" lon="5.94819">
        <ele>2234.2</ele>
        <time>2021-02-20T08:58:01Z</time>
      </trkpt>
      <trkpt lat="45.16566" lon="5.94819">
        <ele>2234.2</ele>
        <time>2021-02-20T08:58:02Z</time>
      </trkpt>
      <trkpt lat="45.16566" lon="5.94819">
        <ele>2234.2</ele>
        <time>2021-02-20T08:58:03Z</time>
      </trkpt>
      <trkpt lat="45.16567" lon="5.94819">
        <ele>2234.2</ele>
        <time>2021-02-20T08:58:04Z</time>
      </trkpt>
      <trkpt lat="45.16567" lon="5.94819">
        <ele>2235.1</ele>
        <time>2021-02-20T08:58:05Z</time>
      </trkpt>
      <trkpt lat="45.16568" lon="5.94819">
        <ele>2235.1</ele>
        <time>2021-02-20T08:58:06Z</time>
      </trkpt>
      <trkpt lat="45.16569" lon="5.94818">
        <ele>2235.1</ele>
        <time>2021-02-20T08:58:07Z</time>
      </trkpt>
      <trkpt lat="45.1657" lon="5.94818">
        <ele>2235.9</ele>
        <time>2021-02-20T08:58:08Z</time>
      </trkpt>
      <trkpt lat="45.16572" lon="5.94817">
        <ele>2235.9</ele>
        <time>2021-02-20T08:58:09Z</time>
      </trkpt>
      <trkpt lat="45.16573" lon="5.94817">
        <ele>2235.9</ele>
        <time>2021-02-20T08:58:10Z</time>
      </trkpt>
      <trkpt lat="45.16574" lon="5.94816">
        <ele>2236.9</ele>
        <time>2021-02-20T08:58:11Z</time>
      </trkpt>
      <trkpt lat="45.16575" lon="5.94816">
        <ele>2236.9</ele>
        <time>2021-02-20T08:58:12Z</time>
      </trkpt>
      <trkpt lat="45.16575" lon="5.94816">
        <ele>2236.9</ele>
        <time>2021-02-20T08:58:13Z</time>
      </trkpt>
      <trkpt lat="45.16576" lon="5.94816">
        <ele>2236.9</ele>
        <time>2021-02-20T08:58:14Z</time>
      </trkpt>
      <trkpt lat="45.16576" lon="5.94816">
        <ele>2237.9</ele>
        <time>2021-02-20T08:58:15Z</time>
      </trkpt>
      <trkpt lat="45.16577" lon="5.94815">
        <ele>2237.9</ele>
        <time>2021-02-20T08:58:16Z</time>
      </trkpt>
      <trkpt lat="45.16578" lon="5.94815">
        <ele>2237.9</ele>
        <time>2021-02-20T08:58:17Z</time>
      </trkpt>
      <trkpt lat="45.16578" lon="5.94815">
        <ele>2237.4</ele>
        <time>2021-02-20T08:58:18Z</time>
      </trkpt>
      <trkpt lat="45.16579" lon="5.94815">
        <ele>2237.4</ele>
        <time>2021-02-20T08:58:19Z</time>
      </trkpt>
      <trkpt lat="45.1658" lon="5.94814">
        <ele>2238.6</ele>
        <time>2021-02-20T08:58:20Z</time>
      </trkpt>
      <trkpt lat="45.1658" lon="5.94814">
        <ele>2238.6</ele>
        <time>2021-02-20T08:58:21Z</time>
      </trkpt>
      <trkpt lat="45.16581" lon="5.94814">
        <ele>2238.6</ele>
        <time>2021-02-20T08:58:22Z</time>
      </trkpt>
      <trkpt lat="45.16581" lon="5.94813">
        <ele>2238.6</ele>
        <time>2021-02-20T08:58:23Z</time>
      </trkpt>
      <trkpt lat="45.16582" lon="5.94813">
        <ele>2238.6</ele>
        <time>2021-02-20T08:58:24Z</time>
      </trkpt>
      <trkpt lat="45.16582" lon="5.94813">
        <ele>2239.8</ele>
        <time>2021-02-20T08:58:25Z</time>
      </trkpt>
      <trkpt lat="45.16583" lon="5.94812">
        <ele>2239.8</ele>
        <time>2021-02-20T08:58:26Z</time>
      </trkpt>
      <trkpt lat="45.16583" lon="5.94812">
        <ele>2239.8</ele>
        <time>2021-02-20T08:58:27Z</time>
      </trkpt>
      <trkpt lat="45.16584" lon="5.94812">
        <ele>2239.8</ele>
        <time>2021-02-20T08:58:28Z</time>
      </trkpt>
      <trkpt lat="45.16584" lon="5.94811">
        <ele>2239.8</ele>
        <time>2021-02-20T08:58:29Z</time>
      </trkpt>
      <trkpt lat="45.16585" lon="5.94811">
        <ele>2239.3</ele>
        <time>2021-02-20T08:58:30Z</time>
      </trkpt>
      <trkpt lat="45.16585" lon="5.9481">
        <ele>2240.6</ele>
        <time>2021-02-20T08:58:31Z</time>
      </trkpt>
      <trkpt lat="45.16586" lon="5.94809">
        <ele>2240.6</ele>
        <time>2021-02-20T08:58:32Z</time>
      </trkpt>
      <trkpt lat="45.16587" lon="5.94808">
        <ele>2240.6</ele>
        <time>2021-02-20T08:58:33Z</time>
      </trkpt>
      <trkpt lat="45.16587" lon="5.94808">
        <ele>2240.6</ele>
        <time>2021-02-20T08:58:34Z</time>
      </trkpt>
      <trkpt lat="45.16588" lon="5.94808">
        <ele>2240.6</ele>
        <time>2021-02-20T08:58:35Z</time>
      </trkpt>
      <trkpt lat="45.16589" lon="5.94808">
        <ele>2241.8</ele>
        <time>2021-02-20T08:58:36Z</time>
      </trkpt>
      <trkpt lat="45.16589" lon="5.94808">
        <ele>2241.8</ele>
        <time>2021-02-20T08:58:37Z</time>
      </trkpt>
      <trkpt lat="45.1659" lon="5.94808">
        <ele>2241.8</ele>
        <time>2021-02-20T08:58:38Z</time>
      </trkpt>
      <trkpt lat="45.1659" lon="5.94808">
        <ele>2241.8</ele>
        <time>2021-02-20T08:58:39Z</time>
      </trkpt>
      <trkpt lat="45.16591" lon="5.94808">
        <ele>2241.8</ele>
        <time>2021-02-20T08:58:40Z</time>
      </trkpt>
      <trkpt lat="45.16591" lon="5.94808">
        <ele>2241.8</ele>
        <time>2021-02-20T08:58:41Z</time>
      </trkpt>
      <trkpt lat="45.16592" lon="5.94808">
        <ele>2243</ele>
        <time>2021-02-20T08:58:42Z</time>
      </trkpt>
      <trkpt lat="45.16593" lon="5.94807">
        <ele>2243</ele>
        <time>2021-02-20T08:58:43Z</time>
      </trkpt>
      <trkpt lat="45.16593" lon="5.94807">
        <ele>2243</ele>
        <time>2021-02-20T08:58:44Z</time>
      </trkpt>
      <trkpt lat="45.16594" lon="5.94806">
        <ele>2242.4</ele>
        <time>2021-02-20T08:58:45Z</time>
      </trkpt>
      <trkpt lat="45.16595" lon="5.94806">
        <ele>2243.6</ele>
        <time>2021-02-20T08:58:46Z</time>
      </trkpt>
      <trkpt lat="45.16595" lon="5.94806">
        <ele>2243.6</ele>
        <time>2021-02-20T08:58:47Z</time>
      </trkpt>
      <trkpt lat="45.16596" lon="5.94805">
        <ele>2243.6</ele>
        <time>2021-02-20T08:58:48Z</time>
      </trkpt>
      <trkpt lat="45.16597" lon="5.94805">
        <ele>2243.6</ele>
        <time>2021-02-20T08:58:55Z</time>
      </trkpt>
      <trkpt lat="45.16597" lon="5.94804">
        <ele>2243.6</ele>
        <time>2021-02-20T08:58:56Z</time>
      </trkpt>
      <trkpt lat="45.16598" lon="5.94804">
        <ele>2244.7</ele>
        <time>2021-02-20T08:58:57Z</time>
      </trkpt>
      <trkpt lat="45.16598" lon="5.94803">
        <ele>2244.7</ele>
        <time>2021-02-20T08:58:58Z</time>
      </trkpt>
      <trkpt lat="45.16599" lon="5.94802">
        <ele>2244.2</ele>
        <time>2021-02-20T08:58:59Z</time>
      </trkpt>
      <trkpt lat="45.16599" lon="5.94802">
        <ele>2244.2</ele>
        <time>2021-02-20T08:59:00Z</time>
      </trkpt>
      <trkpt lat="45.166" lon="5.94801">
        <ele>2244.2</ele>
        <time>2021-02-20T08:59:01Z</time>
      </trkpt>
      <trkpt lat="45.166" lon="5.94801">
        <ele>2244.2</ele>
        <time>2021-02-20T08:59:02Z</time>
      </trkpt>
      <trkpt lat="45.166" lon="5.948">
        <ele>2245.4</ele>
        <time>2021-02-20T08:59:03Z</time>
      </trkpt>
      <trkpt lat="45.16601" lon="5.948">
        <ele>2245.4</ele>
        <time>2021-02-20T08:59:04Z</time>
      </trkpt>
      <trkpt lat="45.16601" lon="5.94799">
        <ele>2245.4</ele>
        <time>2021-02-20T08:59:05Z</time>
      </trkpt>
      <trkpt lat="45.16602" lon="5.94798">
        <ele>2245.4</ele>
        <time>2021-02-20T08:59:06Z</time>
      </trkpt>
      <trkpt lat="45.16602" lon="5.94798">
        <ele>2244.9</ele>
        <time>2021-02-20T08:59:07Z</time>
      </trkpt>
      <trkpt lat="45.16602" lon="5.94798">
        <ele>2244.9</ele>
        <time>2021-02-20T08:59:08Z</time>
      </trkpt>
      <trkpt lat="45.16603" lon="5.94797">
        <ele>2244.9</ele>
        <time>2021-02-20T08:59:09Z</time>
      </trkpt>
      <trkpt lat="45.16603" lon="5.94797">
        <ele>2244.9</ele>
        <time>2021-02-20T08:59:10Z</time>
      </trkpt>
      <trkpt lat="45.16603" lon="5.94796">
        <ele>2244.9</ele>
        <time>2021-02-20T08:59:11Z</time>
      </trkpt>
      <trkpt lat="45.16603" lon="5.94795">
        <ele>2244.9</ele>
        <time>2021-02-20T08:59:12Z</time>
      </trkpt>
      <trkpt lat="45.16603" lon="5.94795">
        <ele>2246.2</ele>
        <time>2021-02-20T08:59:13Z</time>
      </trkpt>
      <trkpt lat="45.16604" lon="5.94794">
        <ele>2245.8</ele>
        <time>2021-02-20T08:59:14Z</time>
      </trkpt>
      <trkpt lat="45.16604" lon="5.94793">
        <ele>2245.8</ele>
        <time>2021-02-20T08:59:15Z</time>
      </trkpt>
      <trkpt lat="45.16604" lon="5.94793">
        <ele>2245.8</ele>
        <time>2021-02-20T08:59:16Z</time>
      </trkpt>
      <trkpt lat="45.16604" lon="5.94792">
        <ele>2245.8</ele>
        <time>2021-02-20T08:59:17Z</time>
      </trkpt>
      <trkpt lat="45.16605" lon="5.94791">
        <ele>2245.8</ele>
        <time>2021-02-20T08:59:18Z</time>
      </trkpt>
      <trkpt lat="45.16605" lon="5.94791">
        <ele>2245.8</ele>
        <time>2021-02-20T08:59:19Z</time>
      </trkpt>
      <trkpt lat="45.16605" lon="5.94791">
        <ele>2245.8</ele>
        <time>2021-02-20T08:59:20Z</time>
      </trkpt>
      <trkpt lat="45.16606" lon="5.9479">
        <ele>2245.3</ele>
        <time>2021-02-20T08:59:21Z</time>
      </trkpt>
      <trkpt lat="45.16606" lon="5.94789">
        <ele>2245.3</ele>
        <time>2021-02-20T08:59:22Z</time>
      </trkpt>
      <trkpt lat="45.16606" lon="5.94789">
        <ele>2245.3</ele>
        <time>2021-02-20T08:59:23Z</time>
      </trkpt>
      <trkpt lat="45.16607" lon="5.94788">
        <ele>2246.7</ele>
        <time>2021-02-20T08:59:24Z</time>
      </trkpt>
      <trkpt lat="45.16607" lon="5.94788">
        <ele>2246.7</ele>
        <time>2021-02-20T08:59:25Z</time>
      </trkpt>
      <trkpt lat="45.16607" lon="5.94787">
        <ele>2246.7</ele>
        <time>2021-02-20T08:59:26Z</time>
      </trkpt>
      <trkpt lat="45.16607" lon="5.94787">
        <ele>2246.7</ele>
        <time>2021-02-20T08:59:27Z</time>
      </trkpt>
      <trkpt lat="45.16608" lon="5.94786">
        <ele>2246.7</ele>
        <time>2021-02-20T08:59:29Z</time>
      </trkpt>
      <trkpt lat="45.16608" lon="5.94786">
        <ele>2246.7</ele>
        <time>2021-02-20T08:59:30Z</time>
      </trkpt>
      <trkpt lat="45.16608" lon="5.94785">
        <ele>2246.3</ele>
        <time>2021-02-20T08:59:31Z</time>
      </trkpt>
      <trkpt lat="45.16608" lon="5.94785">
        <ele>2246.3</ele>
        <time>2021-02-20T08:59:32Z</time>
      </trkpt>
      <trkpt lat="45.16609" lon="5.94784">
        <ele>2246.3</ele>
        <time>2021-02-20T08:59:33Z</time>
      </trkpt>
      <trkpt lat="45.16609" lon="5.94784">
        <ele>2246.3</ele>
        <time>2021-02-20T08:59:34Z</time>
      </trkpt>
      <trkpt lat="45.16609" lon="5.94783">
        <ele>2246.3</ele>
        <time>2021-02-20T08:59:35Z</time>
      </trkpt>
      <trkpt lat="45.16609" lon="5.94783">
        <ele>2247.7</ele>
        <time>2021-02-20T08:59:36Z</time>
      </trkpt>
      <trkpt lat="45.1661" lon="5.94782">
        <ele>2247.7</ele>
        <time>2021-02-20T08:59:37Z</time>
      </trkpt>
      <trkpt lat="45.1661" lon="5.94782">
        <ele>2247.7</ele>
        <time>2021-02-20T08:59:38Z</time>
      </trkpt>
      <trkpt lat="45.16611" lon="5.94781">
        <ele>2247.7</ele>
        <time>2021-02-20T08:59:39Z</time>
      </trkpt>
      <trkpt lat="45.16611" lon="5.9478">
        <ele>2247.3</ele>
        <time>2021-02-20T08:59:40Z</time>
      </trkpt>
      <trkpt lat="45.16612" lon="5.94779">
        <ele>2247.3</ele>
        <time>2021-02-20T08:59:41Z</time>
      </trkpt>
      <trkpt lat="45.16612" lon="5.94779">
        <ele>2247.3</ele>
        <time>2021-02-20T08:59:42Z</time>
      </trkpt>
      <trkpt lat="45.16613" lon="5.94777">
        <ele>2248.6</ele>
        <time>2021-02-20T08:59:43Z</time>
      </trkpt>
      <trkpt lat="45.16613" lon="5.94776">
        <ele>2248.3</ele>
        <time>2021-02-20T08:59:44Z</time>
      </trkpt>
      <trkpt lat="45.16613" lon="5.94775">
        <ele>2248.3</ele>
        <time>2021-02-20T08:59:45Z</time>
      </trkpt>
      <trkpt lat="45.16613" lon="5.94774">
        <ele>2248.3</ele>
        <time>2021-02-20T08:59:46Z</time>
      </trkpt>
      <trkpt lat="45.16613" lon="5.94773">
        <ele>2248.3</ele>
        <time>2021-02-20T08:59:47Z</time>
      </trkpt>
      <trkpt lat="45.16613" lon="5.94772">
        <ele>2247.9</ele>
        <time>2021-02-20T08:59:48Z</time>
      </trkpt>
      <trkpt lat="45.16613" lon="5.94771">
        <ele>2247.9</ele>
        <time>2021-02-20T08:59:49Z</time>
      </trkpt>
      <trkpt lat="45.16613" lon="5.9477">
        <ele>2247.9</ele>
        <time>2021-02-20T08:59:50Z</time>
      </trkpt>
      <trkpt lat="45.16613" lon="5.9477">
        <ele>2247.9</ele>
        <time>2021-02-20T08:59:51Z</time>
      </trkpt>
      <trkpt lat="45.16613" lon="5.94768">
        <ele>2247.9</ele>
        <time>2021-02-20T08:59:52Z</time>
      </trkpt>
      <trkpt lat="45.16613" lon="5.94767">
        <ele>2247.6</ele>
        <time>2021-02-20T08:59:53Z</time>
      </trkpt>
      <trkpt lat="45.16613" lon="5.94766">
        <ele>2247.6</ele>
        <time>2021-02-20T08:59:54Z</time>
      </trkpt>
      <trkpt lat="45.16614" lon="5.94765">
        <ele>2247.6</ele>
        <time>2021-02-20T08:59:55Z</time>
      </trkpt>
      <trkpt lat="45.16614" lon="5.94765">
        <ele>2247.6</ele>
        <time>2021-02-20T08:59:56Z</time>
      </trkpt>
      <trkpt lat="45.16614" lon="5.94764">
        <ele>2247.6</ele>
        <time>2021-02-20T08:59:57Z</time>
      </trkpt>
      <trkpt lat="45.16615" lon="5.94763">
        <ele>2247.4</ele>
        <time>2021-02-20T08:59:58Z</time>
      </trkpt>
      <trkpt lat="45.16615" lon="5.94763">
        <ele>2247.4</ele>
        <time>2021-02-20T08:59:59Z</time>
      </trkpt>
      <trkpt lat="45.16615" lon="5.94762">
        <ele>2247.4</ele>
        <time>2021-02-20T09:00:00Z</time>
      </trkpt>
      <trkpt lat="45.16616" lon="5.94761">
        <ele>2248.6</ele>
        <time>2021-02-20T09:00:01Z</time>
      </trkpt>
      <trkpt lat="45.16616" lon="5.9476">
        <ele>2248.6</ele>
        <time>2021-02-20T09:00:02Z</time>
      </trkpt>
      <trkpt lat="45.16616" lon="5.94759">
        <ele>2248.4</ele>
        <time>2021-02-20T09:00:03Z</time>
      </trkpt>
      <trkpt lat="45.16616" lon="5.94758">
        <ele>2248.4</ele>
        <time>2021-02-20T09:00:04Z</time>
      </trkpt>
      <trkpt lat="45.16616" lon="5.94758">
        <ele>2248.4</ele>
        <time>2021-02-20T09:00:05Z</time>
      </trkpt>
      <trkpt lat="45.16617" lon="5.94757">
        <ele>2248.4</ele>
        <time>2021-02-20T09:00:06Z</time>
      </trkpt>
      <trkpt lat="45.16617" lon="5.94757">
        <ele>2248.4</ele>
        <time>2021-02-20T09:00:07Z</time>
      </trkpt>
      <trkpt lat="45.16617" lon="5.94756">
        <ele>2248.4</ele>
        <time>2021-02-20T09:00:08Z</time>
      </trkpt>
      <trkpt lat="45.16618" lon="5.94756">
        <ele>2248.4</ele>
        <time>2021-02-20T09:00:09Z</time>
      </trkpt>
      <trkpt lat="45.16618" lon="5.94755">
        <ele>2248.2</ele>
        <time>2021-02-20T09:00:10Z</time>
      </trkpt>
      <trkpt lat="45.16619" lon="5.94754">
        <ele>2249.4</ele>
        <time>2021-02-20T09:00:11Z</time>
      </trkpt>
      <trkpt lat="45.16619" lon="5.94754">
        <ele>2249.4</ele>
        <time>2021-02-20T09:00:12Z</time>
      </trkpt>
      <trkpt lat="45.16619" lon="5.94753">
        <ele>2249.4</ele>
        <time>2021-02-20T09:00:13Z</time>
      </trkpt>
      <trkpt lat="45.1662" lon="5.94752">
        <ele>2249.4</ele>
        <time>2021-02-20T09:00:14Z</time>
      </trkpt>
      <trkpt lat="45.1662" lon="5.94751">
        <ele>2249.4</ele>
        <time>2021-02-20T09:00:15Z</time>
      </trkpt>
      <trkpt lat="45.1662" lon="5.9475">
        <ele>2249.2</ele>
        <time>2021-02-20T09:00:16Z</time>
      </trkpt>
      <trkpt lat="45.1662" lon="5.94749">
        <ele>2249.2</ele>
        <time>2021-02-20T09:00:17Z</time>
      </trkpt>
      <trkpt lat="45.1662" lon="5.94748">
        <ele>2249.2</ele>
        <time>2021-02-20T09:00:18Z</time>
      </trkpt>
      <trkpt lat="45.1662" lon="5.94747">
        <ele>2249.2</ele>
        <time>2021-02-20T09:00:19Z</time>
      </trkpt>
      <trkpt lat="45.1662" lon="5.94747">
        <ele>2249.2</ele>
        <time>2021-02-20T09:00:20Z</time>
      </trkpt>
      <trkpt lat="45.1662" lon="5.94746">
        <ele>2249.1</ele>
        <time>2021-02-20T09:00:21Z</time>
      </trkpt>
      <trkpt lat="45.16621" lon="5.94745">
        <ele>2249.1</ele>
        <time>2021-02-20T09:00:22Z</time>
      </trkpt>
      <trkpt lat="45.16621" lon="5.94745">
        <ele>2249.1</ele>
        <time>2021-02-20T09:00:23Z</time>
      </trkpt>
      <trkpt lat="45.16621" lon="5.94744">
        <ele>2249.1</ele>
        <time>2021-02-20T09:00:24Z</time>
      </trkpt>
      <trkpt lat="45.16621" lon="5.94743">
        <ele>2249.1</ele>
        <time>2021-02-20T09:00:25Z</time>
      </trkpt>
      <trkpt lat="45.16621" lon="5.94742">
        <ele>2249.1</ele>
        <time>2021-02-20T09:00:26Z</time>
      </trkpt>
      <trkpt lat="45.16621" lon="5.94742">
        <ele>2249.1</ele>
        <time>2021-02-20T09:00:27Z</time>
      </trkpt>
      <trkpt lat="45.16621" lon="5.94741">
        <ele>2249.1</ele>
        <time>2021-02-20T09:00:28Z</time>
      </trkpt>
      <trkpt lat="45.16621" lon="5.9474">
        <ele>2249.1</ele>
        <time>2021-02-20T09:00:29Z</time>
      </trkpt>
      <trkpt lat="45.16621" lon="5.94739">
        <ele>2249.1</ele>
        <time>2021-02-20T09:00:37Z</time>
      </trkpt>
      <trkpt lat="45.16621" lon="5.94739">
        <ele>2249.1</ele>
        <time>2021-02-20T09:00:38Z</time>
      </trkpt>
      <trkpt lat="45.16621" lon="5.94738">
        <ele>2249.1</ele>
        <time>2021-02-20T09:00:39Z</time>
      </trkpt>
      <trkpt lat="45.16621" lon="5.94737">
        <ele>2249.1</ele>
        <time>2021-02-20T09:00:40Z</time>
      </trkpt>
      <trkpt lat="45.16621" lon="5.94736">
        <ele>2249.1</ele>
        <time>2021-02-20T09:00:41Z</time>
      </trkpt>
      <trkpt lat="45.16621" lon="5.94735">
        <ele>2249.1</ele>
        <time>2021-02-20T09:00:42Z</time>
      </trkpt>
      <trkpt lat="45.16621" lon="5.94735">
        <ele>2249.1</ele>
        <time>2021-02-20T09:00:43Z</time>
      </trkpt>
      <trkpt lat="45.16621" lon="5.94734">
        <ele>2249.2</ele>
        <time>2021-02-20T09:00:44Z</time>
      </trkpt>
      <trkpt lat="45.16621" lon="5.94733">
        <ele>2249.2</ele>
        <time>2021-02-20T09:00:45Z</time>
      </trkpt>
      <trkpt lat="45.16621" lon="5.94734">
        <ele>2249.1</ele>
        <time>2021-02-20T09:00:46Z</time>
      </trkpt>
      <trkpt lat="45.16621" lon="5.94735">
        <ele>2249.1</ele>
        <time>2021-02-20T09:00:47Z</time>
      </trkpt>
      <trkpt lat="45.16621" lon="5.94737">
        <ele>2249.1</ele>
        <time>2021-02-20T09:00:48Z</time>
      </trkpt>
      <trkpt lat="45.16621" lon="5.94738">
        <ele>2249.1</ele>
        <time>2021-02-20T09:00:49Z</time>
      </trkpt>
      <trkpt lat="45.16622" lon="5.94739">
        <ele>2250.2</ele>
        <time>2021-02-20T09:00:50Z</time>
      </trkpt>
      <trkpt lat="45.16622" lon="5.94741">
        <ele>2250.2</ele>
        <time>2021-02-20T09:00:51Z</time>
      </trkpt>
      <trkpt lat="45.16622" lon="5.94742">
        <ele>2250.2</ele>
        <time>2021-02-20T09:00:52Z</time>
      </trkpt>
      <trkpt lat="45.16622" lon="5.94743">
        <ele>2250.3</ele>
        <time>2021-02-20T09:00:53Z</time>
      </trkpt>
      <trkpt lat="45.16623" lon="5.94745">
        <ele>2250.3</ele>
        <time>2021-02-20T09:00:54Z</time>
      </trkpt>
      <trkpt lat="45.16623" lon="5.94746">
        <ele>2250.3</ele>
        <time>2021-02-20T09:00:55Z</time>
      </trkpt>
      <trkpt lat="45.16623" lon="5.94748">
        <ele>2250.3</ele>
        <time>2021-02-20T09:01:29Z</time>
      </trkpt>
      <trkpt lat="45.16623" lon="5.94749">
        <ele>2250.3</ele>
        <time>2021-02-20T09:01:30Z</time>
      </trkpt>
      <trkpt lat="45.16624" lon="5.9475">
        <ele>2250.3</ele>
        <time>2021-02-20T09:01:31Z</time>
      </trkpt>
      <trkpt lat="45.16624" lon="5.94752">
        <ele>2250.5</ele>
        <time>2021-02-20T09:01:32Z</time>
      </trkpt>
      <trkpt lat="45.16624" lon="5.94753">
        <ele>2250.5</ele>
        <time>2021-02-20T09:01:33Z</time>
      </trkpt>
      <trkpt lat="45.16624" lon="5.94753">
        <ele>2250.5</ele>
        <time>2021-02-20T09:01:34Z</time>
      </trkpt>
      <trkpt lat="45.16624" lon="5.94754">
        <ele>2250.5</ele>
        <time>2021-02-20T09:01:35Z</time>
      </trkpt>
      <trkpt lat="45.16624" lon="5.94755">
        <ele>2250.5</ele>
        <time>2021-02-20T09:01:36Z</time>
      </trkpt>
      <trkpt lat="45.16624" lon="5.94755">
        <ele>2250.5</ele>
        <time>2021-02-20T09:01:37Z</time>
      </trkpt>
      <trkpt lat="45.16625" lon="5.94756">
        <ele>2251.8</ele>
        <time>2021-02-20T09:01:38Z</time>
      </trkpt>
      <trkpt lat="45.16625" lon="5.94756">
        <ele>2251.8</ele>
        <time>2021-02-20T09:01:39Z</time>
      </trkpt>
      <trkpt lat="45.16625" lon="5.94756">
        <ele>2251.8</ele>
        <time>2021-02-20T09:01:40Z</time>
      </trkpt>
      <trkpt lat="45.16626" lon="5.94757">
        <ele>2251.8</ele>
        <time>2021-02-20T09:01:41Z</time>
      </trkpt>
      <trkpt lat="45.16627" lon="5.94757">
        <ele>2251.8</ele>
        <time>2021-02-20T09:01:42Z</time>
      </trkpt>
      <trkpt lat="45.16627" lon="5.94758">
        <ele>2251.8</ele>
        <time>2021-02-20T09:01:43Z</time>
      </trkpt>
      <trkpt lat="45.16627" lon="5.94758">
        <ele>2251.8</ele>
        <time>2021-02-20T09:01:44Z</time>
      </trkpt>
      <trkpt lat="45.16628" lon="5.94759">
        <ele>2253</ele>
        <time>2021-02-20T09:01:45Z</time>
      </trkpt>
      <trkpt lat="45.16628" lon="5.9476">
        <ele>2253.3</ele>
        <time>2021-02-20T09:01:46Z</time>
      </trkpt>
      <trkpt lat="45.16628" lon="5.9476">
        <ele>2253.3</ele>
        <time>2021-02-20T09:01:47Z</time>
      </trkpt>
      <trkpt lat="45.16629" lon="5.9476">
        <ele>2253.3</ele>
        <time>2021-02-20T09:01:48Z</time>
      </trkpt>
      <trkpt lat="45.16629" lon="5.94761">
        <ele>2253.3</ele>
        <time>2021-02-20T09:01:49Z</time>
      </trkpt>
      <trkpt lat="45.1663" lon="5.9476">
        <ele>2253.3</ele>
        <time>2021-02-20T09:01:50Z</time>
      </trkpt>
      <trkpt lat="45.16631" lon="5.94759">
        <ele>2254.2</ele>
        <time>2021-02-20T09:01:51Z</time>
      </trkpt>
      <trkpt lat="45.16632" lon="5.94758">
        <ele>2254.2</ele>
        <time>2021-02-20T09:01:52Z</time>
      </trkpt>
      <trkpt lat="45.16632" lon="5.94756">
        <ele>2254.2</ele>
        <time>2021-02-20T09:01:53Z</time>
      </trkpt>
      <trkpt lat="45.16633" lon="5.94755">
        <ele>2254.2</ele>
        <time>2021-02-20T09:01:54Z</time>
      </trkpt>
      <trkpt lat="45.16634" lon="5.94754">
        <ele>2255.2</ele>
        <time>2021-02-20T09:01:55Z</time>
      </trkpt>
      <trkpt lat="45.16634" lon="5.94753">
        <ele>2255.2</ele>
        <time>2021-02-20T09:01:56Z</time>
      </trkpt>
      <trkpt lat="45.16635" lon="5.94752">
        <ele>2255.2</ele>
        <time>2021-02-20T09:02:07Z</time>
      </trkpt>
      <trkpt lat="45.16636" lon="5.94751">
        <ele>2255.2</ele>
        <time>2021-02-20T09:02:08Z</time>
      </trkpt>
      <trkpt lat="45.16637" lon="5.9475">
        <ele>2256.4</ele>
        <time>2021-02-20T09:02:09Z</time>
      </trkpt>
      <trkpt lat="45.16637" lon="5.94749">
        <ele>2256.4</ele>
        <time>2021-02-20T09:02:10Z</time>
      </trkpt>
      <trkpt lat="45.16637" lon="5.94749">
        <ele>2256.4</ele>
        <time>2021-02-20T09:02:11Z</time>
      </trkpt>
      <trkpt lat="45.16638" lon="5.94749">
        <ele>2256.4</ele>
        <time>2021-02-20T09:02:12Z</time>
      </trkpt>
      <trkpt lat="45.16638" lon="5.9475">
        <ele>2256.4</ele>
        <time>2021-02-20T09:02:13Z</time>
      </trkpt>
      <trkpt lat="45.16638" lon="5.9475">
        <ele>2256.4</ele>
        <time>2021-02-20T09:02:14Z</time>
      </trkpt>
      <trkpt lat="45.16638" lon="5.94751">
        <ele>2256.4</ele>
        <time>2021-02-20T09:02:15Z</time>
      </trkpt>
      <trkpt lat="45.16638" lon="5.94751">
        <ele>2256.6</ele>
        <time>2021-02-20T09:02:16Z</time>
      </trkpt>
      <trkpt lat="45.16638" lon="5.94752">
        <ele>2256.6</ele>
        <time>2021-02-20T09:02:17Z</time>
      </trkpt>
      <trkpt lat="45.16638" lon="5.94752">
        <ele>2256.6</ele>
        <time>2021-02-20T09:02:18Z</time>
      </trkpt>
      <trkpt lat="45.16638" lon="5.94753">
        <ele>2256.6</ele>
        <time>2021-02-20T09:02:19Z</time>
      </trkpt>
      <trkpt lat="45.16639" lon="5.94753">
        <ele>2256.6</ele>
        <time>2021-02-20T09:02:20Z</time>
      </trkpt>
      <trkpt lat="45.16639" lon="5.94754">
        <ele>2256.6</ele>
        <time>2021-02-20T09:02:21Z</time>
      </trkpt>
      <trkpt lat="45.16639" lon="5.94754">
        <ele>2256.6</ele>
        <time>2021-02-20T09:02:24Z</time>
      </trkpt>
      <trkpt lat="45.16639" lon="5.94755">
        <ele>2256.6</ele>
        <time>2021-02-20T09:02:25Z</time>
      </trkpt>
      <trkpt lat="45.16639" lon="5.94755">
        <ele>2256.9</ele>
        <time>2021-02-20T09:02:26Z</time>
      </trkpt>
      <trkpt lat="45.16639" lon="5.94756">
        <ele>2256.9</ele>
        <time>2021-02-20T09:02:27Z</time>
      </trkpt>
      <trkpt lat="45.16639" lon="5.94756">
        <ele>2256.9</ele>
        <time>2021-02-20T09:02:28Z</time>
      </trkpt>
      <trkpt lat="45.16639" lon="5.94756">
        <ele>2256.9</ele>
        <time>2021-02-20T09:02:29Z</time>
      </trkpt>
      <trkpt lat="45.1664" lon="5.94757">
        <ele>2258.4</ele>
        <time>2021-02-20T09:02:30Z</time>
      </trkpt>
      <trkpt lat="45.1664" lon="5.94758">
        <ele>2258.4</ele>
        <time>2021-02-20T09:02:31Z</time>
      </trkpt>
      <trkpt lat="45.1664" lon="5.94759">
        <ele>2258.4</ele>
        <time>2021-02-20T09:02:32Z</time>
      </trkpt>
      <trkpt lat="45.1664" lon="5.9476">
        <ele>2258.7</ele>
        <time>2021-02-20T09:02:33Z</time>
      </trkpt>
      <trkpt lat="45.1664" lon="5.94761">
        <ele>2258.7</ele>
        <time>2021-02-20T09:02:34Z</time>
      </trkpt>
      <trkpt lat="45.1664" lon="5.94761">
        <ele>2258.7</ele>
        <time>2021-02-20T09:02:35Z</time>
      </trkpt>
      <trkpt lat="45.1664" lon="5.94761">
        <ele>2258.7</ele>
        <time>2021-02-20T09:02:36Z</time>
      </trkpt>
      <trkpt lat="45.1664" lon="5.94761">
        <ele>2258.7</ele>
        <time>2021-02-20T09:02:37Z</time>
      </trkpt>
      <trkpt lat="45.16642" lon="5.9476">
        <ele>2258.7</ele>
        <time>2021-02-20T09:02:38Z</time>
      </trkpt>
      <trkpt lat="45.16642" lon="5.9476">
        <ele>2258.7</ele>
        <time>2021-02-20T09:02:39Z</time>
      </trkpt>
      <trkpt lat="45.16642" lon="5.94759">
        <ele>2258.4</ele>
        <time>2021-02-20T09:02:40Z</time>
      </trkpt>
      <trkpt lat="45.16643" lon="5.9476">
        <ele>2260.3</ele>
        <time>2021-02-20T09:02:41Z</time>
      </trkpt>
      <trkpt lat="45.16644" lon="5.94759">
        <ele>2260</ele>
        <time>2021-02-20T09:02:42Z</time>
      </trkpt>
      <trkpt lat="45.16644" lon="5.94758">
        <ele>2260</ele>
        <time>2021-02-20T09:02:43Z</time>
      </trkpt>
      <trkpt lat="45.16644" lon="5.94757">
        <ele>2260</ele>
        <time>2021-02-20T09:02:44Z</time>
      </trkpt>
      <trkpt lat="45.16645" lon="5.94756">
        <ele>2260</ele>
        <time>2021-02-20T09:02:48Z</time>
      </trkpt>
      <trkpt lat="45.16645" lon="5.94754">
        <ele>2259.7</ele>
        <time>2021-02-20T09:02:49Z</time>
      </trkpt>
      <trkpt lat="45.16645" lon="5.94753">
        <ele>2259.7</ele>
        <time>2021-02-20T09:02:50Z</time>
      </trkpt>
      <trkpt lat="45.16645" lon="5.94752">
        <ele>2259.7</ele>
        <time>2021-02-20T09:02:51Z</time>
      </trkpt>
      <trkpt lat="45.16646" lon="5.94751">
        <ele>2261.3</ele>
        <time>2021-02-20T09:02:52Z</time>
      </trkpt>
      <trkpt lat="45.16646" lon="5.94751">
        <ele>2261.1</ele>
        <time>2021-02-20T09:02:53Z</time>
      </trkpt>
      <trkpt lat="45.16647" lon="5.9475">
        <ele>2261.1</ele>
        <time>2021-02-20T09:02:54Z</time>
      </trkpt>
      <trkpt lat="45.16648" lon="5.94749">
        <ele>2261.1</ele>
        <time>2021-02-20T09:02:55Z</time>
      </trkpt>
      <trkpt lat="45.16648" lon="5.94749">
        <ele>2261.1</ele>
        <time>2021-02-20T09:02:56Z</time>
      </trkpt>
      <trkpt lat="45.16649" lon="5.94748">
        <ele>2262.6</ele>
        <time>2021-02-20T09:02:57Z</time>
      </trkpt>
      <trkpt lat="45.16649" lon="5.94747">
        <ele>2262.6</ele>
        <time>2021-02-20T09:02:58Z</time>
      </trkpt>
      <trkpt lat="45.16649" lon="5.94746">
        <ele>2260.9</ele>
        <time>2021-02-20T09:02:59Z</time>
      </trkpt>
      <trkpt lat="45.16648" lon="5.94745">
        <ele>2260.9</ele>
        <time>2021-02-20T09:03:00Z</time>
      </trkpt>
      <trkpt lat="45.16648" lon="5.94744">
        <ele>2260.9</ele>
        <time>2021-02-20T09:03:01Z</time>
      </trkpt>
      <trkpt lat="45.16647" lon="5.94744">
        <ele>2260.9</ele>
        <time>2021-02-20T09:03:02Z</time>
      </trkpt>
      <trkpt lat="45.16648" lon="5.94743">
        <ele>2260.9</ele>
        <time>2021-02-20T09:03:03Z</time>
      </trkpt>
      <trkpt lat="45.16648" lon="5.94743">
        <ele>2260.9</ele>
        <time>2021-02-20T09:03:04Z</time>
      </trkpt>
      <trkpt lat="45.16648" lon="5.94743">
        <ele>2260.9</ele>
        <time>2021-02-20T09:03:05Z</time>
      </trkpt>
      <trkpt lat="45.16648" lon="5.94743">
        <ele>2260.9</ele>
        <time>2021-02-20T09:03:06Z</time>
      </trkpt>
      <trkpt lat="45.16648" lon="5.94743">
        <ele>2260.9</ele>
        <time>2021-02-20T09:03:07Z</time>
      </trkpt>
      <trkpt lat="45.16648" lon="5.94743">
        <ele>2260.9</ele>
        <time>2021-02-20T09:03:08Z</time>
      </trkpt>
      <trkpt lat="45.16647" lon="5.94743">
        <ele>2260.9</ele>
        <time>2021-02-20T09:03:09Z</time>
      </trkpt>
      <trkpt lat="45.16647" lon="5.94744">
        <ele>2260.9</ele>
        <time>2021-02-20T09:03:10Z</time>
      </trkpt>
      <trkpt lat="45.16647" lon="5.94744">
        <ele>2260.9</ele>
        <time>2021-02-20T09:03:11Z</time>
      </trkpt>
      <trkpt lat="45.16647" lon="5.94745">
        <ele>2260.9</ele>
        <time>2021-02-20T09:03:12Z</time>
      </trkpt>
      <trkpt lat="45.16647" lon="5.94745">
        <ele>2260.9</ele>
        <time>2021-02-20T09:03:13Z</time>
      </trkpt>
      <trkpt lat="45.16647" lon="5.94746">
        <ele>2260.9</ele>
        <time>2021-02-20T09:03:14Z</time>
      </trkpt>
      <trkpt lat="45.16647" lon="5.94746">
        <ele>2260.9</ele>
        <time>2021-02-20T09:03:15Z</time>
      </trkpt>
      <trkpt lat="45.16646" lon="5.94747">
        <ele>2261.1</ele>
        <time>2021-02-20T09:03:16Z</time>
      </trkpt>
      <trkpt lat="45.16646" lon="5.94748">
        <ele>2261.1</ele>
        <time>2021-02-20T09:03:17Z</time>
      </trkpt>
      <trkpt lat="45.16647" lon="5.94749">
        <ele>2261.1</ele>
        <time>2021-02-20T09:03:18Z</time>
      </trkpt>
      <trkpt lat="45.16647" lon="5.9475">
        <ele>2261.1</ele>
        <time>2021-02-20T09:03:19Z</time>
      </trkpt>
      <trkpt lat="45.16647" lon="5.94751">
        <ele>2261.3</ele>
        <time>2021-02-20T09:03:20Z</time>
      </trkpt>
      <trkpt lat="45.16647" lon="5.94752">
        <ele>2261.3</ele>
        <time>2021-02-20T09:03:21Z</time>
      </trkpt>
      <trkpt lat="45.16648" lon="5.94753">
        <ele>2261.3</ele>
        <time>2021-02-20T09:03:22Z</time>
      </trkpt>
      <trkpt lat="45.16648" lon="5.94754">
        <ele>2261.3</ele>
        <time>2021-02-20T09:03:23Z</time>
      </trkpt>
      <trkpt lat="45.16648" lon="5.94755">
        <ele>2261.3</ele>
        <time>2021-02-20T09:03:24Z</time>
      </trkpt>
      <trkpt lat="45.16649" lon="5.94755">
        <ele>2263.1</ele>
        <time>2021-02-20T09:03:25Z</time>
      </trkpt>
      <trkpt lat="45.16649" lon="5.94757">
        <ele>2263.1</ele>
        <time>2021-02-20T09:03:26Z</time>
      </trkpt>
      <trkpt lat="45.1665" lon="5.94758">
        <ele>2263.1</ele>
        <time>2021-02-20T09:03:27Z</time>
      </trkpt>
      <trkpt lat="45.1665" lon="5.94759">
        <ele>2263.1</ele>
        <time>2021-02-20T09:03:28Z</time>
      </trkpt>
      <trkpt lat="45.1665" lon="5.9476">
        <ele>2263.4</ele>
        <time>2021-02-20T09:03:29Z</time>
      </trkpt>
      <trkpt lat="45.16651" lon="5.94758">
        <ele>2263.1</ele>
        <time>2021-02-20T09:03:30Z</time>
      </trkpt>
      <trkpt lat="45.16651" lon="5.94756">
        <ele>2263.1</ele>
        <time>2021-02-20T09:03:31Z</time>
      </trkpt>
      <trkpt lat="45.16651" lon="5.94755">
        <ele>2262.8</ele>
        <time>2021-02-20T09:03:32Z</time>
      </trkpt>
      <trkpt lat="45.16652" lon="5.94753">
        <ele>2264.2</ele>
        <time>2021-02-20T09:03:33Z</time>
      </trkpt>
      <trkpt lat="45.16652" lon="5.94752">
        <ele>2264.2</ele>
        <time>2021-02-20T09:03:34Z</time>
      </trkpt>
      <trkpt lat="45.16653" lon="5.9475">
        <ele>2264</ele>
        <time>2021-02-20T09:03:35Z</time>
      </trkpt>
      <trkpt lat="45.16653" lon="5.94748">
        <ele>2264</ele>
        <time>2021-02-20T09:03:36Z</time>
      </trkpt>
      <trkpt lat="45.16654" lon="5.94747">
        <ele>2264</ele>
        <time>2021-02-20T09:03:37Z</time>
      </trkpt>
      <trkpt lat="45.16654" lon="5.94745">
        <ele>2263.7</ele>
        <time>2021-02-20T09:03:38Z</time>
      </trkpt>
      <trkpt lat="45.16655" lon="5.94743">
        <ele>2263.7</ele>
        <time>2021-02-20T09:03:57Z</time>
      </trkpt>
      <trkpt lat="45.16655" lon="5.94742">
        <ele>2265.7</ele>
        <time>2021-02-20T09:03:58Z</time>
      </trkpt>
      <trkpt lat="45.16656" lon="5.9474">
        <ele>2265.7</ele>
        <time>2021-02-20T09:03:59Z</time>
      </trkpt>
      <trkpt lat="45.16656" lon="5.94738">
        <ele>2265.7</ele>
        <time>2021-02-20T09:04:00Z</time>
      </trkpt>
      <trkpt lat="45.16657" lon="5.94737">
        <ele>2265.5</ele>
        <time>2021-02-20T09:04:01Z</time>
      </trkpt>
      <trkpt lat="45.16657" lon="5.94736">
        <ele>2265.5</ele>
        <time>2021-02-20T09:04:02Z</time>
      </trkpt>
      <trkpt lat="45.16657" lon="5.94735">
        <ele>2265.5</ele>
        <time>2021-02-20T09:04:03Z</time>
      </trkpt>
      <trkpt lat="45.16658" lon="5.94734">
        <ele>2267</ele>
        <time>2021-02-20T09:04:04Z</time>
      </trkpt>
      <trkpt lat="45.16658" lon="5.94733">
        <ele>2266.7</ele>
        <time>2021-02-20T09:04:05Z</time>
      </trkpt>
      <trkpt lat="45.16659" lon="5.94732">
        <ele>2266.7</ele>
        <time>2021-02-20T09:04:06Z</time>
      </trkpt>
      <trkpt lat="45.16659" lon="5.94731">
        <ele>2266.7</ele>
        <time>2021-02-20T09:04:07Z</time>
      </trkpt>
      <trkpt lat="45.16659" lon="5.9473">
        <ele>2266.7</ele>
        <time>2021-02-20T09:04:08Z</time>
      </trkpt>
      <trkpt lat="45.16659" lon="5.94729">
        <ele>2266.4</ele>
        <time>2021-02-20T09:04:09Z</time>
      </trkpt>
      <trkpt lat="45.16659" lon="5.94728">
        <ele>2266.4</ele>
        <time>2021-02-20T09:04:10Z</time>
      </trkpt>
      <trkpt lat="45.16658" lon="5.94727">
        <ele>2266.4</ele>
        <time>2021-02-20T09:04:11Z</time>
      </trkpt>
      <trkpt lat="45.16658" lon="5.94725">
        <ele>2266.4</ele>
        <time>2021-02-20T09:04:12Z</time>
      </trkpt>
      <trkpt lat="45.16658" lon="5.94724">
        <ele>2266</ele>
        <time>2021-02-20T09:04:13Z</time>
      </trkpt>
      <trkpt lat="45.16658" lon="5.94724">
        <ele>2266</ele>
        <time>2021-02-20T09:04:14Z</time>
      </trkpt>
      <trkpt lat="45.16658" lon="5.94724">
        <ele>2266</ele>
        <time>2021-02-20T09:04:15Z</time>
      </trkpt>
      <trkpt lat="45.16658" lon="5.94723">
        <ele>2266</ele>
        <time>2021-02-20T09:04:16Z</time>
      </trkpt>
      <trkpt lat="45.16659" lon="5.94723">
        <ele>2266</ele>
        <time>2021-02-20T09:04:17Z</time>
      </trkpt>
      <trkpt lat="45.16659" lon="5.94724">
        <ele>2266</ele>
        <time>2021-02-20T09:04:18Z</time>
      </trkpt>
      <trkpt lat="45.16659" lon="5.94724">
        <ele>2266</ele>
        <time>2021-02-20T09:04:19Z</time>
      </trkpt>
      <trkpt lat="45.1666" lon="5.94725">
        <ele>2266</ele>
        <time>2021-02-20T09:04:20Z</time>
      </trkpt>
      <trkpt lat="45.1666" lon="5.94725">
        <ele>2266</ele>
        <time>2021-02-20T09:04:21Z</time>
      </trkpt>
      <trkpt lat="45.16661" lon="5.94725">
        <ele>2266</ele>
        <time>2021-02-20T09:04:22Z</time>
      </trkpt>
      <trkpt lat="45.16661" lon="5.94725">
        <ele>2267.6</ele>
        <time>2021-02-20T09:04:23Z</time>
      </trkpt>
      <trkpt lat="45.16662" lon="5.94725">
        <ele>2267.6</ele>
        <time>2021-02-20T09:04:24Z</time>
      </trkpt>
      <trkpt lat="45.16663" lon="5.94724">
        <ele>2267.6</ele>
        <time>2021-02-20T09:04:25Z</time>
      </trkpt>
      <trkpt lat="45.16663" lon="5.94723">
        <ele>2267.6</ele>
        <time>2021-02-20T09:04:26Z</time>
      </trkpt>
      <trkpt lat="45.16664" lon="5.94722">
        <ele>2267.6</ele>
        <time>2021-02-20T09:04:27Z</time>
      </trkpt>
      <trkpt lat="45.16664" lon="5.94721">
        <ele>2267.3</ele>
        <time>2021-02-20T09:04:28Z</time>
      </trkpt>
      <trkpt lat="45.16664" lon="5.9472">
        <ele>2267.3</ele>
        <time>2021-02-20T09:04:29Z</time>
      </trkpt>
      <trkpt lat="45.16664" lon="5.94719">
        <ele>2267.3</ele>
        <time>2021-02-20T09:04:30Z</time>
      </trkpt>
      <trkpt lat="45.16664" lon="5.94719">
        <ele>2267.3</ele>
        <time>2021-02-20T09:04:31Z</time>
      </trkpt>
      <trkpt lat="45.16663" lon="5.94718">
        <ele>2267.3</ele>
        <time>2021-02-20T09:04:32Z</time>
      </trkpt>
      <trkpt lat="45.16664" lon="5.94717">
        <ele>2267.3</ele>
        <time>2021-02-20T09:04:33Z</time>
      </trkpt>
      <trkpt lat="45.16664" lon="5.94716">
        <ele>2266.9</ele>
        <time>2021-02-20T09:04:34Z</time>
      </trkpt>
      <trkpt lat="45.16664" lon="5.94715">
        <ele>2266.9</ele>
        <time>2021-02-20T09:04:35Z</time>
      </trkpt>
      <trkpt lat="45.16664" lon="5.94715">
        <ele>2266.9</ele>
        <time>2021-02-20T09:04:36Z</time>
      </trkpt>
      <trkpt lat="45.16664" lon="5.94714">
        <ele>2268.6</ele>
        <time>2021-02-20T09:04:37Z</time>
      </trkpt>
      <trkpt lat="45.16664" lon="5.94713">
        <ele>2268.6</ele>
        <time>2021-02-20T09:04:38Z</time>
      </trkpt>
      <trkpt lat="45.16664" lon="5.94713">
        <ele>2268.6</ele>
        <time>2021-02-20T09:04:39Z</time>
      </trkpt>
      <trkpt lat="45.16665" lon="5.94712">
        <ele>2268.2</ele>
        <time>2021-02-20T09:04:40Z</time>
      </trkpt>
      <trkpt lat="45.16665" lon="5.94711">
        <ele>2268.2</ele>
        <time>2021-02-20T09:04:41Z</time>
      </trkpt>
      <trkpt lat="45.16666" lon="5.9471">
        <ele>2268.2</ele>
        <time>2021-02-20T09:04:42Z</time>
      </trkpt>
      <trkpt lat="45.16667" lon="5.9471">
        <ele>2268.2</ele>
        <time>2021-02-20T09:04:43Z</time>
      </trkpt>
      <trkpt lat="45.16667" lon="5.9471">
        <ele>2270</ele>
        <time>2021-02-20T09:04:44Z</time>
      </trkpt>
      <trkpt lat="45.16668" lon="5.9471">
        <ele>2270</ele>
        <time>2021-02-20T09:04:45Z</time>
      </trkpt>
      <trkpt lat="45.16668" lon="5.9471">
        <ele>2270</ele>
        <time>2021-02-20T09:04:46Z</time>
      </trkpt>
      <trkpt lat="45.16669" lon="5.9471">
        <ele>2270</ele>
        <time>2021-02-20T09:04:47Z</time>
      </trkpt>
      <trkpt lat="45.1667" lon="5.94709">
        <ele>2270</ele>
        <time>2021-02-20T09:04:48Z</time>
      </trkpt>
      <trkpt lat="45.1667" lon="5.94709">
        <ele>2271.7</ele>
        <time>2021-02-20T09:04:49Z</time>
      </trkpt>
      <trkpt lat="45.16671" lon="5.94709">
        <ele>2271.7</ele>
        <time>2021-02-20T09:04:50Z</time>
      </trkpt>
      <trkpt lat="45.16671" lon="5.94709">
        <ele>2271.7</ele>
        <time>2021-02-20T09:04:51Z</time>
      </trkpt>
      <trkpt lat="45.16672" lon="5.94709">
        <ele>2271.7</ele>
        <time>2021-02-20T09:04:52Z</time>
      </trkpt>
      <trkpt lat="45.16673" lon="5.94709">
        <ele>2271.7</ele>
        <time>2021-02-20T09:04:53Z</time>
      </trkpt>
      <trkpt lat="45.16673" lon="5.94709">
        <ele>2273.3</ele>
        <time>2021-02-20T09:04:54Z</time>
      </trkpt>
      <trkpt lat="45.16674" lon="5.94708">
        <ele>2273.3</ele>
        <time>2021-02-20T09:11:00Z</time>
      </trkpt>
      <trkpt lat="45.16674" lon="5.94708">
        <ele>2273.3</ele>
        <time>2021-02-20T09:11:01Z</time>
      </trkpt>
      <trkpt lat="45.16675" lon="5.94708">
        <ele>2273.3</ele>
        <time>2021-02-20T09:11:02Z</time>
      </trkpt>
      <trkpt lat="45.16676" lon="5.94708">
        <ele>2272.8</ele>
        <time>2021-02-20T09:11:03Z</time>
      </trkpt>
      <trkpt lat="45.16676" lon="5.94708">
        <ele>2274.3</ele>
        <time>2021-02-20T09:11:04Z</time>
      </trkpt>
      <trkpt lat="45.16677" lon="5.94708">
        <ele>2274.3</ele>
        <time>2021-02-20T09:11:05Z</time>
      </trkpt>
      <trkpt lat="45.16677" lon="5.94707">
        <ele>2274.3</ele>
        <time>2021-02-20T09:11:06Z</time>
      </trkpt>
      <trkpt lat="45.16678" lon="5.94707">
        <ele>2274.3</ele>
        <time>2021-02-20T09:11:07Z</time>
      </trkpt>
      <trkpt lat="45.16679" lon="5.94707">
        <ele>2274.3</ele>
        <time>2021-02-20T09:11:08Z</time>
      </trkpt>
      <trkpt lat="45.16679" lon="5.94707">
        <ele>2275.8</ele>
        <time>2021-02-20T09:11:09Z</time>
      </trkpt>
      <trkpt lat="45.1668" lon="5.94707">
        <ele>2275.8</ele>
        <time>2021-02-20T09:11:23Z</time>
      </trkpt>
      <trkpt lat="45.1668" lon="5.94707">
        <ele>2275.8</ele>
        <time>2021-02-20T09:11:24Z</time>
      </trkpt>
      <trkpt lat="45.16681" lon="5.94707">
        <ele>2275.8</ele>
        <time>2021-02-20T09:11:25Z</time>
      </trkpt>
      <trkpt lat="45.16682" lon="5.94706">
        <ele>2275.8</ele>
        <time>2021-02-20T09:11:26Z</time>
      </trkpt>
      <trkpt lat="45.16682" lon="5.94706">
        <ele>2277.3</ele>
        <time>2021-02-20T09:11:27Z</time>
      </trkpt>
      <trkpt lat="45.16683" lon="5.94706">
        <ele>2277.3</ele>
        <time>2021-02-20T09:11:28Z</time>
      </trkpt>
      <trkpt lat="45.16684" lon="5.94706">
        <ele>2277.3</ele>
        <time>2021-02-20T09:11:29Z</time>
      </trkpt>
      <trkpt lat="45.16685" lon="5.94706">
        <ele>2277.3</ele>
        <time>2021-02-20T09:11:30Z</time>
      </trkpt>
      <trkpt lat="45.16685" lon="5.94706">
        <ele>2279</ele>
        <time>2021-02-20T09:11:31Z</time>
      </trkpt>
      <trkpt lat="45.16686" lon="5.94706">
        <ele>2279</ele>
        <time>2021-02-20T09:11:32Z</time>
      </trkpt>
      <trkpt lat="45.16686" lon="5.94705">
        <ele>2279</ele>
        <time>2021-02-20T09:11:33Z</time>
      </trkpt>
      <trkpt lat="45.16687" lon="5.94704">
        <ele>2279</ele>
        <time>2021-02-20T09:11:34Z</time>
      </trkpt>
      <trkpt lat="45.16688" lon="5.94704">
        <ele>2279</ele>
        <time>2021-02-20T09:11:35Z</time>
      </trkpt>
      <trkpt lat="45.16688" lon="5.94704">
        <ele>2280.3</ele>
        <time>2021-02-20T09:11:36Z</time>
      </trkpt>
      <trkpt lat="45.16689" lon="5.94703">
        <ele>2280.3</ele>
        <time>2021-02-20T09:11:37Z</time>
      </trkpt>
      <trkpt lat="45.16689" lon="5.94703">
        <ele>2280.3</ele>
        <time>2021-02-20T09:11:38Z</time>
      </trkpt>
      <trkpt lat="45.16689" lon="5.94702">
        <ele>2280.3</ele>
        <time>2021-02-20T09:11:39Z</time>
      </trkpt>
      <trkpt lat="45.1669" lon="5.94702">
        <ele>2280.3</ele>
        <time>2021-02-20T09:11:40Z</time>
      </trkpt>
      <trkpt lat="45.1669" lon="5.94701">
        <ele>2280.3</ele>
        <time>2021-02-20T09:11:41Z</time>
      </trkpt>
      <trkpt lat="45.16691" lon="5.947">
        <ele>2282.1</ele>
        <time>2021-02-20T09:11:42Z</time>
      </trkpt>
      <trkpt lat="45.16692" lon="5.94699">
        <ele>2282.1</ele>
        <time>2021-02-20T09:11:43Z</time>
      </trkpt>
      <trkpt lat="45.16692" lon="5.94699">
        <ele>2281.6</ele>
        <time>2021-02-20T09:11:44Z</time>
      </trkpt>
      <trkpt lat="45.16693" lon="5.94698">
        <ele>2281.6</ele>
        <time>2021-02-20T09:11:45Z</time>
      </trkpt>
      <trkpt lat="45.16693" lon="5.94698">
        <ele>2281.6</ele>
        <time>2021-02-20T09:11:46Z</time>
      </trkpt>
      <trkpt lat="45.16694" lon="5.94697">
        <ele>2281.6</ele>
        <time>2021-02-20T09:11:47Z</time>
      </trkpt>
      <trkpt lat="45.16694" lon="5.94697">
        <ele>2283.4</ele>
        <time>2021-02-20T09:11:48Z</time>
      </trkpt>
      <trkpt lat="45.16695" lon="5.94696">
        <ele>2283.4</ele>
        <time>2021-02-20T09:11:49Z</time>
      </trkpt>
      <trkpt lat="45.16696" lon="5.94695">
        <ele>2283.4</ele>
        <time>2021-02-20T09:11:50Z</time>
      </trkpt>
      <trkpt lat="45.16696" lon="5.94695">
        <ele>2282.9</ele>
        <time>2021-02-20T09:11:51Z</time>
      </trkpt>
      <trkpt lat="45.16697" lon="5.94694">
        <ele>2282.9</ele>
        <time>2021-02-20T09:11:52Z</time>
      </trkpt>
      <trkpt lat="45.16697" lon="5.94694">
        <ele>2284.6</ele>
        <time>2021-02-20T09:11:53Z</time>
      </trkpt>
      <trkpt lat="45.16698" lon="5.94693">
        <ele>2284.6</ele>
        <time>2021-02-20T09:11:54Z</time>
      </trkpt>
      <trkpt lat="45.16698" lon="5.94693">
        <ele>2284.6</ele>
        <time>2021-02-20T09:11:55Z</time>
      </trkpt>
      <trkpt lat="45.16698" lon="5.94692">
        <ele>2284.6</ele>
        <time>2021-02-20T09:11:56Z</time>
      </trkpt>
      <trkpt lat="45.16698" lon="5.94692">
        <ele>2284.6</ele>
        <time>2021-02-20T09:11:57Z</time>
      </trkpt>
      <trkpt lat="45.16699" lon="5.94692">
        <ele>2284.6</ele>
        <time>2021-02-20T09:11:58Z</time>
      </trkpt>
      <trkpt lat="45.16699" lon="5.94691">
        <ele>2284.6</ele>
        <time>2021-02-20T09:11:59Z</time>
      </trkpt>
      <trkpt lat="45.167" lon="5.94691">
        <ele>2284.6</ele>
        <time>2021-02-20T09:12:00Z</time>
      </trkpt>
      <trkpt lat="45.167" lon="5.9469">
        <ele>2285.8</ele>
        <time>2021-02-20T09:12:01Z</time>
      </trkpt>
      <trkpt lat="45.16701" lon="5.9469">
        <ele>2285.8</ele>
        <time>2021-02-20T09:12:02Z</time>
      </trkpt>
      <trkpt lat="45.16701" lon="5.94689">
        <ele>2285.8</ele>
        <time>2021-02-20T09:12:03Z</time>
      </trkpt>
      <trkpt lat="45.16702" lon="5.94688">
        <ele>2285.8</ele>
        <time>2021-02-20T09:12:04Z</time>
      </trkpt>
      <trkpt lat="45.16702" lon="5.94688">
        <ele>2285.8</ele>
        <time>2021-02-20T09:12:05Z</time>
      </trkpt>
      <trkpt lat="45.16703" lon="5.94687">
        <ele>2285.8</ele>
        <time>2021-02-20T09:12:06Z</time>
      </trkpt>
      <trkpt lat="45.16703" lon="5.94687">
        <ele>2286.9</ele>
        <time>2021-02-20T09:12:07Z</time>
      </trkpt>
      <trkpt lat="45.16704" lon="5.94686">
        <ele>2286.9</ele>
        <time>2021-02-20T09:12:08Z</time>
      </trkpt>
      <trkpt lat="45.16704" lon="5.94686">
        <ele>2286.9</ele>
        <time>2021-02-20T09:12:09Z</time>
      </trkpt>
      <trkpt lat="45.16705" lon="5.94685">
        <ele>2286.9</ele>
        <time>2021-02-20T09:12:10Z</time>
      </trkpt>
      <trkpt lat="45.16705" lon="5.94685">
        <ele>2286.9</ele>
        <time>2021-02-20T09:12:11Z</time>
      </trkpt>
      <trkpt lat="45.16706" lon="5.94685">
        <ele>2286.9</ele>
        <time>2021-02-20T09:12:12Z</time>
      </trkpt>
      <trkpt lat="45.16706" lon="5.94684">
        <ele>2288.6</ele>
        <time>2021-02-20T09:12:13Z</time>
      </trkpt>
      <trkpt lat="45.16707" lon="5.94684">
        <ele>2288.6</ele>
        <time>2021-02-20T09:12:14Z</time>
      </trkpt>
      <trkpt lat="45.16707" lon="5.94683">
        <ele>2288.6</ele>
        <time>2021-02-20T09:12:15Z</time>
      </trkpt>
      <trkpt lat="45.16707" lon="5.94682">
        <ele>2288.6</ele>
        <time>2021-02-20T09:12:16Z</time>
      </trkpt>
      <trkpt lat="45.16708" lon="5.94682">
        <ele>2288.1</ele>
        <time>2021-02-20T09:12:17Z</time>
      </trkpt>
      <trkpt lat="45.16708" lon="5.94681">
        <ele>2288.1</ele>
        <time>2021-02-20T09:12:18Z</time>
      </trkpt>
      <trkpt lat="45.16709" lon="5.9468">
        <ele>2289.8</ele>
        <time>2021-02-20T09:12:19Z</time>
      </trkpt>
      <trkpt lat="45.1671" lon="5.94679">
        <ele>2289.8</ele>
        <time>2021-02-20T09:12:20Z</time>
      </trkpt>
      <trkpt lat="45.16711" lon="5.94678">
        <ele>2289.8</ele>
        <time>2021-02-20T09:12:21Z</time>
      </trkpt>
      <trkpt lat="45.16712" lon="5.94678">
        <ele>2289.3</ele>
        <time>2021-02-20T09:12:22Z</time>
      </trkpt>
      <trkpt lat="45.16712" lon="5.94677">
        <ele>2289.3</ele>
        <time>2021-02-20T09:12:23Z</time>
      </trkpt>
      <trkpt lat="45.16713" lon="5.94676">
        <ele>2291.1</ele>
        <time>2021-02-20T09:12:24Z</time>
      </trkpt>
      <trkpt lat="45.16713" lon="5.94676">
        <ele>2291.1</ele>
        <time>2021-02-20T09:12:25Z</time>
      </trkpt>
      <trkpt lat="45.16714" lon="5.94675">
        <ele>2291.1</ele>
        <time>2021-02-20T09:12:26Z</time>
      </trkpt>
      <trkpt lat="45.16714" lon="5.94674">
        <ele>2291.1</ele>
        <time>2021-02-20T09:12:27Z</time>
      </trkpt>
      <trkpt lat="45.16715" lon="5.94674">
        <ele>2290.6</ele>
        <time>2021-02-20T09:12:28Z</time>
      </trkpt>
      <trkpt lat="45.16715" lon="5.94673">
        <ele>2290.6</ele>
        <time>2021-02-20T09:12:29Z</time>
      </trkpt>
      <trkpt lat="45.16716" lon="5.94672">
        <ele>2292.4</ele>
        <time>2021-02-20T09:12:30Z</time>
      </trkpt>
      <trkpt lat="45.16716" lon="5.94672">
        <ele>2292.4</ele>
        <time>2021-02-20T09:12:31Z</time>
      </trkpt>
      <trkpt lat="45.16717" lon="5.94671">
        <ele>2292.4</ele>
        <time>2021-02-20T09:12:32Z</time>
      </trkpt>
      <trkpt lat="45.16717" lon="5.9467">
        <ele>2292.4</ele>
        <time>2021-02-20T09:12:33Z</time>
      </trkpt>
      <trkpt lat="45.16718" lon="5.9467">
        <ele>2292.4</ele>
        <time>2021-02-20T09:12:34Z</time>
      </trkpt>
      <trkpt lat="45.16718" lon="5.94669">
        <ele>2291.9</ele>
        <time>2021-02-20T09:12:35Z</time>
      </trkpt>
      <trkpt lat="45.16718" lon="5.94668">
        <ele>2293.8</ele>
        <time>2021-02-20T09:12:36Z</time>
      </trkpt>
      <trkpt lat="45.16719" lon="5.94667">
        <ele>2293.8</ele>
        <time>2021-02-20T09:12:37Z</time>
      </trkpt>
      <trkpt lat="45.16719" lon="5.94666">
        <ele>2293.8</ele>
        <time>2021-02-20T09:12:38Z</time>
      </trkpt>
      <trkpt lat="45.1672" lon="5.94666">
        <ele>2293.8</ele>
        <time>2021-02-20T09:12:39Z</time>
      </trkpt>
      <trkpt lat="45.1672" lon="5.94665">
        <ele>2293.3</ele>
        <time>2021-02-20T09:12:40Z</time>
      </trkpt>
      <trkpt lat="45.1672" lon="5.94664">
        <ele>2293.3</ele>
        <time>2021-02-20T09:12:41Z</time>
      </trkpt>
      <trkpt lat="45.16721" lon="5.94664">
        <ele>2293.3</ele>
        <time>2021-02-20T09:12:42Z</time>
      </trkpt>
      <trkpt lat="45.16721" lon="5.94663">
        <ele>2293.3</ele>
        <time>2021-02-20T09:12:43Z</time>
      </trkpt>
      <trkpt lat="45.16722" lon="5.94662">
        <ele>2295.3</ele>
        <time>2021-02-20T09:12:44Z</time>
      </trkpt>
      <trkpt lat="45.16722" lon="5.94662">
        <ele>2295.3</ele>
        <time>2021-02-20T09:12:45Z</time>
      </trkpt>
      <trkpt lat="45.16722" lon="5.94662">
        <ele>2295.3</ele>
        <time>2021-02-20T09:12:46Z</time>
      </trkpt>
      <trkpt lat="45.16723" lon="5.94663">
        <ele>2295.3</ele>
        <time>2021-02-20T09:12:47Z</time>
      </trkpt>
      <trkpt lat="45.16723" lon="5.94664">
        <ele>2295.3</ele>
        <time>2021-02-20T09:12:48Z</time>
      </trkpt>
      <trkpt lat="45.16723" lon="5.94664">
        <ele>2295.3</ele>
        <time>2021-02-20T09:12:49Z</time>
      </trkpt>
      <trkpt lat="45.16723" lon="5.94665">
        <ele>2295.3</ele>
        <time>2021-02-20T09:12:50Z</time>
      </trkpt>
      <trkpt lat="45.16724" lon="5.94665">
        <ele>2295.8</ele>
        <time>2021-02-20T09:12:51Z</time>
      </trkpt>
      <trkpt lat="45.16724" lon="5.94666">
        <ele>2295.8</ele>
        <time>2021-02-20T09:12:52Z</time>
      </trkpt>
      <trkpt lat="45.16724" lon="5.94667">
        <ele>2295.8</ele>
        <time>2021-02-20T09:12:53Z</time>
      </trkpt>
      <trkpt lat="45.16725" lon="5.94667">
        <ele>2297.8</ele>
        <time>2021-02-20T09:12:54Z</time>
      </trkpt>
      <trkpt lat="45.16725" lon="5.94668">
        <ele>2297.8</ele>
        <time>2021-02-20T09:12:55Z</time>
      </trkpt>
      <trkpt lat="45.16725" lon="5.94668">
        <ele>2297.8</ele>
        <time>2021-02-20T09:12:56Z</time>
      </trkpt>
      <trkpt lat="45.16725" lon="5.94669">
        <ele>2297.8</ele>
        <time>2021-02-20T09:13:01Z</time>
      </trkpt>
      <trkpt lat="45.16726" lon="5.94669">
        <ele>2298.3</ele>
        <time>2021-02-20T09:13:02Z</time>
      </trkpt>
      <trkpt lat="45.16726" lon="5.9467">
        <ele>2298.3</ele>
        <time>2021-02-20T09:13:03Z</time>
      </trkpt>
      <trkpt lat="45.16726" lon="5.94671">
        <ele>2298.3</ele>
        <time>2021-02-20T09:13:04Z</time>
      </trkpt>
      <trkpt lat="45.16726" lon="5.94671">
        <ele>2298.3</ele>
        <time>2021-02-20T09:13:05Z</time>
      </trkpt>
      <trkpt lat="45.16726" lon="5.94672">
        <ele>2298.3</ele>
        <time>2021-02-20T09:13:06Z</time>
      </trkpt>
      <trkpt lat="45.16726" lon="5.94673">
        <ele>2298.3</ele>
        <time>2021-02-20T09:13:07Z</time>
      </trkpt>
      <trkpt lat="45.16726" lon="5.94674">
        <ele>2298.8</ele>
        <time>2021-02-20T09:13:08Z</time>
      </trkpt>
      <trkpt lat="45.16726" lon="5.94675">
        <ele>2298.8</ele>
        <time>2021-02-20T09:13:09Z</time>
      </trkpt>
      <trkpt lat="45.16725" lon="5.94676">
        <ele>2298.8</ele>
        <time>2021-02-20T09:13:10Z</time>
      </trkpt>
      <trkpt lat="45.16725" lon="5.94677">
        <ele>2298.8</ele>
        <time>2021-02-20T09:13:11Z</time>
      </trkpt>
      <trkpt lat="45.16725" lon="5.94678">
        <ele>2299.3</ele>
        <time>2021-02-20T09:13:12Z</time>
      </trkpt>
      <trkpt lat="45.16725" lon="5.94679">
        <ele>2299.3</ele>
        <time>2021-02-20T09:13:13Z</time>
      </trkpt>
      <trkpt lat="45.16725" lon="5.9468">
        <ele>2299.3</ele>
        <time>2021-02-20T09:13:14Z</time>
      </trkpt>
      <trkpt lat="45.16725" lon="5.94681">
        <ele>2299.3</ele>
        <time>2021-02-20T09:13:15Z</time>
      </trkpt>
      <trkpt lat="45.16726" lon="5.94682">
        <ele>2299.3</ele>
        <time>2021-02-20T09:13:16Z</time>
      </trkpt>
      <trkpt lat="45.16726" lon="5.94683">
        <ele>2299.8</ele>
        <time>2021-02-20T09:13:17Z</time>
      </trkpt>
      <trkpt lat="45.16726" lon="5.94683">
        <ele>2299.8</ele>
        <time>2021-02-20T09:13:18Z</time>
      </trkpt>
      <trkpt lat="45.16726" lon="5.94684">
        <ele>2299.8</ele>
        <time>2021-02-20T09:13:19Z</time>
      </trkpt>
      <trkpt lat="45.16726" lon="5.94685">
        <ele>2299.8</ele>
        <time>2021-02-20T09:13:20Z</time>
      </trkpt>
      <trkpt lat="45.16727" lon="5.94685">
        <ele>2299.8</ele>
        <time>2021-02-20T09:13:21Z</time>
      </trkpt>
      <trkpt lat="45.16727" lon="5.94686">
        <ele>2299.8</ele>
        <time>2021-02-20T09:13:22Z</time>
      </trkpt>
      <trkpt lat="45.16727" lon="5.94687">
        <ele>2300.3</ele>
        <time>2021-02-20T09:13:23Z</time>
      </trkpt>
      <trkpt lat="45.16727" lon="5.94688">
        <ele>2300.3</ele>
        <time>2021-02-20T09:13:24Z</time>
      </trkpt>
      <trkpt lat="45.16728" lon="5.94688">
        <ele>2302.4</ele>
        <time>2021-02-20T09:13:25Z</time>
      </trkpt>
      <trkpt lat="45.16728" lon="5.9469">
        <ele>2302.4</ele>
        <time>2021-02-20T09:13:26Z</time>
      </trkpt>
      <trkpt lat="45.16728" lon="5.9469">
        <ele>2302.4</ele>
        <time>2021-02-20T09:13:27Z</time>
      </trkpt>
      <trkpt lat="45.16728" lon="5.94692">
        <ele>2302.9</ele>
        <time>2021-02-20T09:13:28Z</time>
      </trkpt>
      <trkpt lat="45.16729" lon="5.94693">
        <ele>2302.9</ele>
        <time>2021-02-20T09:13:29Z</time>
      </trkpt>
      <trkpt lat="45.16729" lon="5.94694">
        <ele>2302.9</ele>
        <time>2021-02-20T09:13:30Z</time>
      </trkpt>
      <trkpt lat="45.16729" lon="5.94695">
        <ele>2302.9</ele>
        <time>2021-02-20T09:13:31Z</time>
      </trkpt>
      <trkpt lat="45.16729" lon="5.94696">
        <ele>2303.4</ele>
        <time>2021-02-20T09:13:32Z</time>
      </trkpt>
      <trkpt lat="45.16729" lon="5.94697">
        <ele>2303.4</ele>
        <time>2021-02-20T09:13:33Z</time>
      </trkpt>
      <trkpt lat="45.16729" lon="5.94698">
        <ele>2303.4</ele>
        <time>2021-02-20T09:13:34Z</time>
      </trkpt>
      <trkpt lat="45.16729" lon="5.94699">
        <ele>2303.4</ele>
        <time>2021-02-20T09:13:35Z</time>
      </trkpt>
      <trkpt lat="45.16729" lon="5.947">
        <ele>2304</ele>
        <time>2021-02-20T09:13:36Z</time>
      </trkpt>
      <trkpt lat="45.16729" lon="5.94701">
        <ele>2304</ele>
        <time>2021-02-20T09:13:37Z</time>
      </trkpt>
      <trkpt lat="45.16729" lon="5.94702">
        <ele>2304</ele>
        <time>2021-02-20T09:13:38Z</time>
      </trkpt>
      <trkpt lat="45.16729" lon="5.94704">
        <ele>2304</ele>
        <time>2021-02-20T09:13:39Z</time>
      </trkpt>
      <trkpt lat="45.16729" lon="5.94704">
        <ele>2304.6</ele>
        <time>2021-02-20T09:13:40Z</time>
      </trkpt>
      <trkpt lat="45.16729" lon="5.94704">
        <ele>2304.6</ele>
        <time>2021-02-20T09:13:41Z</time>
      </trkpt>
      <trkpt lat="45.16729" lon="5.94704">
        <ele>2304.6</ele>
        <time>2021-02-20T09:13:42Z</time>
      </trkpt>
      <trkpt lat="45.16729" lon="5.94704">
        <ele>2304.6</ele>
        <time>2021-02-20T09:13:43Z</time>
      </trkpt>
      <trkpt lat="45.16729" lon="5.94704">
        <ele>2304.6</ele>
        <time>2021-02-20T09:13:44Z</time>
      </trkpt>
      <trkpt lat="45.16729" lon="5.94703">
        <ele>2304</ele>
        <time>2021-02-20T09:13:45Z</time>
      </trkpt>
      <trkpt lat="45.16729" lon="5.94703">
        <ele>2304</ele>
        <time>2021-02-20T09:13:46Z</time>
      </trkpt>
      <trkpt lat="45.1673" lon="5.94702">
        <ele>2304</ele>
        <time>2021-02-20T09:13:47Z</time>
      </trkpt>
      <trkpt lat="45.1673" lon="5.94701">
        <ele>2304</ele>
        <time>2021-02-20T09:13:48Z</time>
      </trkpt>
      <trkpt lat="45.16731" lon="5.947">
        <ele>2306</ele>
        <time>2021-02-20T09:13:49Z</time>
      </trkpt>
      <trkpt lat="45.16732" lon="5.94699">
        <ele>2306</ele>
        <time>2021-02-20T09:13:50Z</time>
      </trkpt>
      <trkpt lat="45.16732" lon="5.94699">
        <ele>2305.4</ele>
        <time>2021-02-20T09:13:51Z</time>
      </trkpt>
      <trkpt lat="45.16733" lon="5.94698">
        <ele>2305.4</ele>
        <time>2021-02-20T09:13:52Z</time>
      </trkpt>
      <trkpt lat="45.16733" lon="5.94697">
        <ele>2305.4</ele>
        <time>2021-02-20T09:13:53Z</time>
      </trkpt>
      <trkpt lat="45.16734" lon="5.94697">
        <ele>2307.4</ele>
        <time>2021-02-20T09:13:54Z</time>
      </trkpt>
      <trkpt lat="45.16734" lon="5.94696">
        <ele>2307.4</ele>
        <time>2021-02-20T09:13:55Z</time>
      </trkpt>
      <trkpt lat="45.16735" lon="5.94695">
        <ele>2307.4</ele>
        <time>2021-02-20T09:13:56Z</time>
      </trkpt>
      <trkpt lat="45.16735" lon="5.94694">
        <ele>2306.8</ele>
        <time>2021-02-20T09:13:57Z</time>
      </trkpt>
      <trkpt lat="45.16736" lon="5.94694">
        <ele>2306.8</ele>
        <time>2021-02-20T09:13:58Z</time>
      </trkpt>
      <trkpt lat="45.16736" lon="5.94693">
        <ele>2306.8</ele>
        <time>2021-02-20T09:13:59Z</time>
      </trkpt>
      <trkpt lat="45.16736" lon="5.94693">
        <ele>2306.8</ele>
        <time>2021-02-20T09:14:00Z</time>
      </trkpt>
      <trkpt lat="45.16736" lon="5.94692">
        <ele>2306.8</ele>
        <time>2021-02-20T09:14:01Z</time>
      </trkpt>
      <trkpt lat="45.16737" lon="5.94692">
        <ele>2308.7</ele>
        <time>2021-02-20T09:14:02Z</time>
      </trkpt>
      <trkpt lat="45.16737" lon="5.94691">
        <ele>2308.7</ele>
        <time>2021-02-20T09:14:03Z</time>
      </trkpt>
      <trkpt lat="45.16737" lon="5.9469">
        <ele>2308.2</ele>
        <time>2021-02-20T09:14:04Z</time>
      </trkpt>
      <trkpt lat="45.16738" lon="5.9469">
        <ele>2308.2</ele>
        <time>2021-02-20T09:14:05Z</time>
      </trkpt>
      <trkpt lat="45.16738" lon="5.94689">
        <ele>2308.2</ele>
        <time>2021-02-20T09:14:06Z</time>
      </trkpt>
      <trkpt lat="45.16738" lon="5.94688">
        <ele>2308.2</ele>
        <time>2021-02-20T09:14:07Z</time>
      </trkpt>
      <trkpt lat="45.16738" lon="5.94688">
        <ele>2308.2</ele>
        <time>2021-02-20T09:14:08Z</time>
      </trkpt>
      <trkpt lat="45.16738" lon="5.94687">
        <ele>2308.2</ele>
        <time>2021-02-20T09:14:09Z</time>
      </trkpt>
      <trkpt lat="45.16739" lon="5.94687">
        <ele>2308.2</ele>
        <time>2021-02-20T09:14:10Z</time>
      </trkpt>
      <trkpt lat="45.1674" lon="5.94687">
        <ele>2309.6</ele>
        <time>2021-02-20T09:14:11Z</time>
      </trkpt>
      <trkpt lat="45.1674" lon="5.94686">
        <ele>2309.6</ele>
        <time>2021-02-20T09:14:12Z</time>
      </trkpt>
      <trkpt lat="45.16741" lon="5.94686">
        <ele>2309.6</ele>
        <time>2021-02-20T09:14:13Z</time>
      </trkpt>
      <trkpt lat="45.16742" lon="5.94686">
        <ele>2309.6</ele>
        <time>2021-02-20T09:14:14Z</time>
      </trkpt>
      <trkpt lat="45.16742" lon="5.94686">
        <ele>2309.6</ele>
        <time>2021-02-20T09:14:15Z</time>
      </trkpt>
      <trkpt lat="45.16743" lon="5.94686">
        <ele>2311.7</ele>
        <time>2021-02-20T09:14:42Z</time>
      </trkpt>
      <trkpt lat="45.16744" lon="5.94686">
        <ele>2311.7</ele>
        <time>2021-02-20T09:14:43Z</time>
      </trkpt>
      <trkpt lat="45.16744" lon="5.94686">
        <ele>2311.7</ele>
        <time>2021-02-20T09:14:44Z</time>
      </trkpt>
      <trkpt lat="45.16745" lon="5.94686">
        <ele>2311.7</ele>
        <time>2021-02-20T09:14:45Z</time>
      </trkpt>
      <trkpt lat="45.16746" lon="5.94685">
        <ele>2314</ele>
        <time>2021-02-20T09:14:46Z</time>
      </trkpt>
      <trkpt lat="45.16746" lon="5.94686">
        <ele>2314</ele>
        <time>2021-02-20T09:14:47Z</time>
      </trkpt>
      <trkpt lat="45.16746" lon="5.94687">
        <ele>2314.5</ele>
        <time>2021-02-20T09:14:48Z</time>
      </trkpt>
      <trkpt lat="45.16746" lon="5.94688">
        <ele>2314.5</ele>
        <time>2021-02-20T09:14:49Z</time>
      </trkpt>
      <trkpt lat="45.16746" lon="5.94689">
        <ele>2314.5</ele>
        <time>2021-02-20T09:14:50Z</time>
      </trkpt>
      <trkpt lat="45.16747" lon="5.9469">
        <ele>2314.5</ele>
        <time>2021-02-20T09:14:51Z</time>
      </trkpt>
      <trkpt lat="45.16747" lon="5.94691">
        <ele>2314.9</ele>
        <time>2021-02-20T09:14:52Z</time>
      </trkpt>
      <trkpt lat="45.16747" lon="5.94692">
        <ele>2314.9</ele>
        <time>2021-02-20T09:14:53Z</time>
      </trkpt>
      <trkpt lat="45.16747" lon="5.94693">
        <ele>2314.9</ele>
        <time>2021-02-20T09:14:54Z</time>
      </trkpt>
      <trkpt lat="45.16747" lon="5.94693">
        <ele>2314.9</ele>
        <time>2021-02-20T09:14:55Z</time>
      </trkpt>
      <trkpt lat="45.16748" lon="5.94694">
        <ele>2314.9</ele>
        <time>2021-02-20T09:14:56Z</time>
      </trkpt>
      <trkpt lat="45.16748" lon="5.94696">
        <ele>2315.4</ele>
        <time>2021-02-20T09:14:57Z</time>
      </trkpt>
      <trkpt lat="45.16748" lon="5.94697">
        <ele>2315.4</ele>
        <time>2021-02-20T09:14:58Z</time>
      </trkpt>
      <trkpt lat="45.16748" lon="5.94698">
        <ele>2315.4</ele>
        <time>2021-02-20T09:14:59Z</time>
      </trkpt>
      <trkpt lat="45.16749" lon="5.94699">
        <ele>2315.4</ele>
        <time>2021-02-20T09:15:00Z</time>
      </trkpt>
      <trkpt lat="45.16749" lon="5.947">
        <ele>2318.4</ele>
        <time>2021-02-20T09:15:01Z</time>
      </trkpt>
      <trkpt lat="45.16749" lon="5.94702">
        <ele>2318.4</ele>
        <time>2021-02-20T09:15:02Z</time>
      </trkpt>
      <trkpt lat="45.16749" lon="5.94702">
        <ele>2318.4</ele>
        <time>2021-02-20T09:15:03Z</time>
      </trkpt>
      <trkpt lat="45.16749" lon="5.94703">
        <ele>2318.4</ele>
        <time>2021-02-20T09:15:04Z</time>
      </trkpt>
      <trkpt lat="45.16749" lon="5.94704">
        <ele>2316.5</ele>
        <time>2021-02-20T09:15:05Z</time>
      </trkpt>
      <trkpt lat="45.16748" lon="5.94705">
        <ele>2316.5</ele>
        <time>2021-02-20T09:15:06Z</time>
      </trkpt>
      <trkpt lat="45.16748" lon="5.94706">
        <ele>2316.5</ele>
        <time>2021-02-20T09:15:07Z</time>
      </trkpt>
      <trkpt lat="45.16748" lon="5.94707">
        <ele>2316.5</ele>
        <time>2021-02-20T09:15:08Z</time>
      </trkpt>
      <trkpt lat="45.16748" lon="5.94708">
        <ele>2317.2</ele>
        <time>2021-02-20T09:15:09Z</time>
      </trkpt>
      <trkpt lat="45.16748" lon="5.94709">
        <ele>2317.2</ele>
        <time>2021-02-20T09:15:10Z</time>
      </trkpt>
      <trkpt lat="45.16748" lon="5.9471">
        <ele>2317.2</ele>
        <time>2021-02-20T09:15:11Z</time>
      </trkpt>
      <trkpt lat="45.16748" lon="5.9471">
        <ele>2317.2</ele>
        <time>2021-02-20T09:15:12Z</time>
      </trkpt>
      <trkpt lat="45.16748" lon="5.94711">
        <ele>2317.2</ele>
        <time>2021-02-20T09:15:13Z</time>
      </trkpt>
      <trkpt lat="45.16748" lon="5.94711">
        <ele>2317.2</ele>
        <time>2021-02-20T09:15:14Z</time>
      </trkpt>
      <trkpt lat="45.16748" lon="5.94712">
        <ele>2317.2</ele>
        <time>2021-02-20T09:15:15Z</time>
      </trkpt>
      <trkpt lat="45.16748" lon="5.94713">
        <ele>2317.9</ele>
        <time>2021-02-20T09:15:16Z</time>
      </trkpt>
      <trkpt lat="45.16748" lon="5.94712">
        <ele>2317.2</ele>
        <time>2021-02-20T09:15:17Z</time>
      </trkpt>
      <trkpt lat="45.16748" lon="5.94711">
        <ele>2317.2</ele>
        <time>2021-02-20T09:15:18Z</time>
      </trkpt>
      <trkpt lat="45.16749" lon="5.94711">
        <ele>2319.6</ele>
        <time>2021-02-20T09:15:19Z</time>
      </trkpt>
      <trkpt lat="45.16749" lon="5.9471">
        <ele>2319.6</ele>
        <time>2021-02-20T09:15:20Z</time>
      </trkpt>
      <trkpt lat="45.16749" lon="5.94709">
        <ele>2319.6</ele>
        <time>2021-02-20T09:15:21Z</time>
      </trkpt>
      <trkpt lat="45.16749" lon="5.94709">
        <ele>2319.6</ele>
        <time>2021-02-20T09:15:22Z</time>
      </trkpt>
      <trkpt lat="45.1675" lon="5.94708">
        <ele>2319.6</ele>
        <time>2021-02-20T09:15:23Z</time>
      </trkpt>
      <trkpt lat="45.1675" lon="5.94708">
        <ele>2318.9</ele>
        <time>2021-02-20T09:15:24Z</time>
      </trkpt>
      <trkpt lat="45.1675" lon="5.94707">
        <ele>2318.9</ele>
        <time>2021-02-20T09:15:25Z</time>
      </trkpt>
      <trkpt lat="45.1675" lon="5.94706">
        <ele>2318.9</ele>
        <time>2021-02-20T09:15:50Z</time>
      </trkpt>
      <trkpt lat="45.1675" lon="5.94706">
        <ele>2318.9</ele>
        <time>2021-02-20T09:15:51Z</time>
      </trkpt>
      <trkpt lat="45.16751" lon="5.94705">
        <ele>2318.9</ele>
        <time>2021-02-20T09:15:52Z</time>
      </trkpt>
      <trkpt lat="45.16751" lon="5.94704">
        <ele>2318.9</ele>
        <time>2021-02-20T09:15:53Z</time>
      </trkpt>
      <trkpt lat="45.16751" lon="5.94704">
        <ele>2318.4</ele>
        <time>2021-02-20T09:15:54Z</time>
      </trkpt>
      <trkpt lat="45.16751" lon="5.94703">
        <ele>2318.4</ele>
        <time>2021-02-20T09:15:55Z</time>
      </trkpt>
      <trkpt lat="45.16751" lon="5.94702">
        <ele>2318.4</ele>
        <time>2021-02-20T09:15:56Z</time>
      </trkpt>
      <trkpt lat="45.16752" lon="5.94702">
        <ele>2318.4</ele>
        <time>2021-02-20T09:15:57Z</time>
      </trkpt>
      <trkpt lat="45.16752" lon="5.94701">
        <ele>2320.9</ele>
        <time>2021-02-20T09:15:58Z</time>
      </trkpt>
      <trkpt lat="45.16752" lon="5.947">
        <ele>2320.9</ele>
        <time>2021-02-20T09:15:59Z</time>
      </trkpt>
      <trkpt lat="45.16752" lon="5.947">
        <ele>2320.9</ele>
        <time>2021-02-20T09:16:00Z</time>
      </trkpt>
      <trkpt lat="45.16753" lon="5.94699">
        <ele>2320.3</ele>
        <time>2021-02-20T09:16:01Z</time>
      </trkpt>
      <trkpt lat="45.16753" lon="5.94698">
        <ele>2320.3</ele>
        <time>2021-02-20T09:16:02Z</time>
      </trkpt>
      <trkpt lat="45.16753" lon="5.94697">
        <ele>2320.3</ele>
        <time>2021-02-20T09:16:03Z</time>
      </trkpt>
      <trkpt lat="45.16754" lon="5.94697">
        <ele>2320.3</ele>
        <time>2021-02-20T09:16:04Z</time>
      </trkpt>
      <trkpt lat="45.16754" lon="5.94696">
        <ele>2320.3</ele>
        <time>2021-02-20T09:16:05Z</time>
      </trkpt>
      <trkpt lat="45.16754" lon="5.94696">
        <ele>2320.3</ele>
        <time>2021-02-20T09:16:06Z</time>
      </trkpt>
      <trkpt lat="45.16754" lon="5.94695">
        <ele>2319.9</ele>
        <time>2021-02-20T09:16:07Z</time>
      </trkpt>
      <trkpt lat="45.16755" lon="5.94694">
        <ele>2319.9</ele>
        <time>2021-02-20T09:16:08Z</time>
      </trkpt>
      <trkpt lat="45.16755" lon="5.94693">
        <ele>2322.3</ele>
        <time>2021-02-20T09:16:09Z</time>
      </trkpt>
      <trkpt lat="45.16755" lon="5.94693">
        <ele>2322.3</ele>
        <time>2021-02-20T09:16:10Z</time>
      </trkpt>
      <trkpt lat="45.16755" lon="5.94693">
        <ele>2322.3</ele>
        <time>2021-02-20T09:16:11Z</time>
      </trkpt>
      <trkpt lat="45.16755" lon="5.94693">
        <ele>2322.3</ele>
        <time>2021-02-20T09:16:12Z</time>
      </trkpt>
      <trkpt lat="45.16755" lon="5.94693">
        <ele>2322.3</ele>
        <time>2021-02-20T09:16:13Z</time>
      </trkpt>
      <trkpt lat="45.16755" lon="5.94693">
        <ele>2322.3</ele>
        <time>2021-02-20T09:16:14Z</time>
      </trkpt>
      <trkpt lat="45.16755" lon="5.94693">
        <ele>2322.3</ele>
        <time>2021-02-20T09:16:15Z</time>
      </trkpt>
      <trkpt lat="45.16755" lon="5.94693">
        <ele>2322.3</ele>
        <time>2021-02-20T09:16:16Z</time>
      </trkpt>
      <trkpt lat="45.16757" lon="5.94694">
        <ele>2322.3</ele>
        <time>2021-02-20T09:16:17Z</time>
      </trkpt>
      <trkpt lat="45.16757" lon="5.94699">
        <ele>2322.8</ele>
        <time>2021-02-20T09:16:18Z</time>
      </trkpt>
      <trkpt lat="45.16757" lon="5.94704">
        <ele>2323.8</ele>
        <time>2021-02-20T09:16:19Z</time>
      </trkpt>
      <trkpt lat="45.16757" lon="5.94709">
        <ele>2324.4</ele>
        <time>2021-02-20T09:16:50Z</time>
      </trkpt>
      <trkpt lat="45.16756" lon="5.94714">
        <ele>2325.1</ele>
        <time>2021-02-20T09:16:51Z</time>
      </trkpt>
      <trkpt lat="45.16756" lon="5.94718">
        <ele>2325.9</ele>
        <time>2021-02-20T09:16:52Z</time>
      </trkpt>
      <trkpt lat="45.16756" lon="5.94723">
        <ele>2326.6</ele>
        <time>2021-02-20T09:16:53Z</time>
      </trkpt>
      <trkpt lat="45.16756" lon="5.94724">
        <ele>2326.6</ele>
        <time>2021-02-20T09:16:54Z</time>
      </trkpt>
      <trkpt lat="45.16756" lon="5.94725">
        <ele>2327.5</ele>
        <time>2021-02-20T09:16:55Z</time>
      </trkpt>
      <trkpt lat="45.16756" lon="5.94726">
        <ele>2327.5</ele>
        <time>2021-02-20T09:16:56Z</time>
      </trkpt>
      <trkpt lat="45.16756" lon="5.94727">
        <ele>2327.5</ele>
        <time>2021-02-20T09:16:57Z</time>
      </trkpt>
      <trkpt lat="45.16756" lon="5.94728">
        <ele>2327.5</ele>
        <time>2021-02-20T09:16:58Z</time>
      </trkpt>
      <trkpt lat="45.16756" lon="5.94729">
        <ele>2327.5</ele>
        <time>2021-02-20T09:16:59Z</time>
      </trkpt>
      <trkpt lat="45.16756" lon="5.9473">
        <ele>2328.2</ele>
        <time>2021-02-20T09:17:00Z</time>
      </trkpt>
      <trkpt lat="45.16756" lon="5.94732">
        <ele>2328.2</ele>
        <time>2021-02-20T09:17:01Z</time>
      </trkpt>
      <trkpt lat="45.16756" lon="5.94732">
        <ele>2328.2</ele>
        <time>2021-02-20T09:17:02Z</time>
      </trkpt>
      <trkpt lat="45.16756" lon="5.94732">
        <ele>2328.2</ele>
        <time>2021-02-20T09:17:03Z</time>
      </trkpt>
      <trkpt lat="45.16756" lon="5.94732">
        <ele>2328.2</ele>
        <time>2021-02-20T09:17:04Z</time>
      </trkpt>
      <trkpt lat="45.16756" lon="5.94732">
        <ele>2328.2</ele>
        <time>2021-02-20T09:17:05Z</time>
      </trkpt>
      <trkpt lat="45.16756" lon="5.94734">
        <ele>2329</ele>
        <time>2021-02-20T09:17:06Z</time>
      </trkpt>
      <trkpt lat="45.16756" lon="5.94735">
        <ele>2329</ele>
        <time>2021-02-20T09:17:07Z</time>
      </trkpt>
      <trkpt lat="45.16756" lon="5.94736">
        <ele>2329</ele>
        <time>2021-02-20T09:17:08Z</time>
      </trkpt>
      <trkpt lat="45.16756" lon="5.94736">
        <ele>2329</ele>
        <time>2021-02-20T09:17:09Z</time>
      </trkpt>
      <trkpt lat="45.16756" lon="5.94735">
        <ele>2329</ele>
        <time>2021-02-20T09:17:10Z</time>
      </trkpt>
      <trkpt lat="45.16756" lon="5.94735">
        <ele>2329</ele>
        <time>2021-02-20T09:17:11Z</time>
      </trkpt>
      <trkpt lat="45.16756" lon="5.94734">
        <ele>2329</ele>
        <time>2021-02-20T09:17:12Z</time>
      </trkpt>
      <trkpt lat="45.16756" lon="5.94734">
        <ele>2329</ele>
        <time>2021-02-20T09:17:13Z</time>
      </trkpt>
      <trkpt lat="45.16756" lon="5.94733">
        <ele>2328.2</ele>
        <time>2021-02-20T09:17:14Z</time>
      </trkpt>
      <trkpt lat="45.16757" lon="5.94733">
        <ele>2328.2</ele>
        <time>2021-02-20T09:17:15Z</time>
      </trkpt>
      <trkpt lat="45.16757" lon="5.94732">
        <ele>2328.2</ele>
        <time>2021-02-20T09:17:16Z</time>
      </trkpt>
      <trkpt lat="45.16757" lon="5.94732">
        <ele>2328.2</ele>
        <time>2021-02-20T09:17:17Z</time>
      </trkpt>
      <trkpt lat="45.16757" lon="5.94732">
        <ele>2328.2</ele>
        <time>2021-02-20T09:17:18Z</time>
      </trkpt>
      <trkpt lat="45.16757" lon="5.94731">
        <ele>2328.2</ele>
        <time>2021-02-20T09:17:19Z</time>
      </trkpt>
      <trkpt lat="45.16757" lon="5.94731">
        <ele>2328.2</ele>
        <time>2021-02-20T09:20:20Z</time>
      </trkpt>
      <trkpt lat="45.16758" lon="5.9473">
        <ele>2330.4</ele>
        <time>2021-02-20T09:20:21Z</time>
      </trkpt>
      <trkpt lat="45.16758" lon="5.9473">
        <ele>2330.4</ele>
        <time>2021-02-20T09:20:22Z</time>
      </trkpt>
      <trkpt lat="45.16758" lon="5.94729">
        <ele>2329.7</ele>
        <time>2021-02-20T09:20:23Z</time>
      </trkpt>
      <trkpt lat="45.16758" lon="5.94729">
        <ele>2329.7</ele>
        <time>2021-02-20T09:20:24Z</time>
      </trkpt>
      <trkpt lat="45.16758" lon="5.94728">
        <ele>2329.7</ele>
        <time>2021-02-20T09:20:25Z</time>
      </trkpt>
      <trkpt lat="45.16758" lon="5.94728">
        <ele>2329.7</ele>
        <time>2021-02-20T09:20:26Z</time>
      </trkpt>
      <trkpt lat="45.16759" lon="5.94727">
        <ele>2329.7</ele>
        <time>2021-02-20T09:20:27Z</time>
      </trkpt>
      <trkpt lat="45.16759" lon="5.94727">
        <ele>2329.7</ele>
        <time>2021-02-20T09:20:28Z</time>
      </trkpt>
      <trkpt lat="45.16759" lon="5.94727">
        <ele>2329.7</ele>
        <time>2021-02-20T09:20:29Z</time>
      </trkpt>
      <trkpt lat="45.16759" lon="5.94726">
        <ele>2329.7</ele>
        <time>2021-02-20T09:20:30Z</time>
      </trkpt>
      <trkpt lat="45.16759" lon="5.94726">
        <ele>2329.7</ele>
        <time>2021-02-20T09:22:33Z</time>
      </trkpt>
      <trkpt lat="45.16759" lon="5.94725">
        <ele>2328.9</ele>
        <time>2021-02-20T09:22:34Z</time>
      </trkpt>
      <trkpt lat="45.1676" lon="5.94725">
        <ele>2328.9</ele>
        <time>2021-02-20T09:22:35Z</time>
      </trkpt>
      <trkpt lat="45.1676" lon="5.94724">
        <ele>2328.9</ele>
        <time>2021-02-20T09:22:36Z</time>
      </trkpt>
      <trkpt lat="45.1676" lon="5.94724">
        <ele>2328.9</ele>
        <time>2021-02-20T09:22:37Z</time>
      </trkpt>
      <trkpt lat="45.16761" lon="5.94723">
        <ele>2330.9</ele>
        <time>2021-02-20T09:22:38Z</time>
      </trkpt>
      <trkpt lat="45.16761" lon="5.94723">
        <ele>2330.9</ele>
        <time>2021-02-20T09:22:39Z</time>
      </trkpt>
      <trkpt lat="45.16761" lon="5.94722">
        <ele>2330.9</ele>
        <time>2021-02-20T09:22:40Z</time>
      </trkpt>
      <trkpt lat="45.16761" lon="5.94722">
        <ele>2330.9</ele>
        <time>2021-02-20T09:22:41Z</time>
      </trkpt>
      <trkpt lat="45.16761" lon="5.94722">
        <ele>2330.9</ele>
        <time>2021-02-20T09:22:42Z</time>
      </trkpt>
      <trkpt lat="45.16761" lon="5.94721">
        <ele>2330.9</ele>
        <time>2021-02-20T09:22:43Z</time>
      </trkpt>
      <trkpt lat="45.16762" lon="5.94721">
        <ele>2330.9</ele>
        <time>2021-02-20T09:22:44Z</time>
      </trkpt>
      <trkpt lat="45.16761" lon="5.94721">
        <ele>2330.9</ele>
        <time>2021-02-20T09:22:45Z</time>
      </trkpt>
      <trkpt lat="45.1676" lon="5.94721">
        <ele>2328.1</ele>
        <time>2021-02-20T09:22:46Z</time>
      </trkpt>
      <trkpt lat="45.16759" lon="5.94722">
        <ele>2328.9</ele>
        <time>2021-02-20T09:22:47Z</time>
      </trkpt>
      <trkpt lat="45.16759" lon="5.94722">
        <ele>2328.9</ele>
        <time>2021-02-20T09:22:48Z</time>
      </trkpt>
      <trkpt lat="45.16758" lon="5.94724">
        <ele>2328.9</ele>
        <time>2021-02-20T09:22:49Z</time>
      </trkpt>
      <trkpt lat="45.16759" lon="5.94727">
        <ele>2329.7</ele>
        <time>2021-02-20T09:23:00Z</time>
      </trkpt>
      <trkpt lat="45.16759" lon="5.94729">
        <ele>2329.7</ele>
        <time>2021-02-20T09:23:01Z</time>
      </trkpt>
      <trkpt lat="45.16759" lon="5.94732">
        <ele>2330.4</ele>
        <time>2021-02-20T09:23:02Z</time>
      </trkpt>
      <trkpt lat="45.16759" lon="5.94734">
        <ele>2331.2</ele>
        <time>2021-02-20T09:23:03Z</time>
      </trkpt>
      <trkpt lat="45.16759" lon="5.94735">
        <ele>2331.2</ele>
        <time>2021-02-20T09:23:04Z</time>
      </trkpt>
      <trkpt lat="45.16759" lon="5.94736">
        <ele>2331.2</ele>
        <time>2021-02-20T09:23:05Z</time>
      </trkpt>
      <trkpt lat="45.16759" lon="5.94737">
        <ele>2331.2</ele>
        <time>2021-02-20T09:23:06Z</time>
      </trkpt>
      <trkpt lat="45.16759" lon="5.94737">
        <ele>2331.2</ele>
        <time>2021-02-20T09:23:07Z</time>
      </trkpt>
      <trkpt lat="45.16759" lon="5.94739">
        <ele>2332</ele>
        <time>2021-02-20T09:23:08Z</time>
      </trkpt>
      <trkpt lat="45.16759" lon="5.94741">
        <ele>2332</ele>
        <time>2021-02-20T09:23:09Z</time>
      </trkpt>
      <trkpt lat="45.1676" lon="5.94742">
        <ele>2332</ele>
        <time>2021-02-20T09:23:10Z</time>
      </trkpt>
      <trkpt lat="45.1676" lon="5.94743">
        <ele>2332.8</ele>
        <time>2021-02-20T09:23:11Z</time>
      </trkpt>
      <trkpt lat="45.1676" lon="5.94743">
        <ele>2332.8</ele>
        <time>2021-02-20T09:23:12Z</time>
      </trkpt>
      <trkpt lat="45.1676" lon="5.94743">
        <ele>2332.8</ele>
        <time>2021-02-20T09:23:13Z</time>
      </trkpt>
      <trkpt lat="45.1676" lon="5.94743">
        <ele>2332.8</ele>
        <time>2021-02-20T09:23:14Z</time>
      </trkpt>
      <trkpt lat="45.1676" lon="5.94743">
        <ele>2332.8</ele>
        <time>2021-02-20T09:23:15Z</time>
      </trkpt>
      <trkpt lat="45.1676" lon="5.94743">
        <ele>2332.8</ele>
        <time>2021-02-20T09:23:16Z</time>
      </trkpt>
      <trkpt lat="45.16762" lon="5.94742">
        <ele>2334</ele>
        <time>2021-02-20T09:23:17Z</time>
      </trkpt>
      <trkpt lat="45.16763" lon="5.94741">
        <ele>2334</ele>
        <time>2021-02-20T09:23:18Z</time>
      </trkpt>
      <trkpt lat="45.16764" lon="5.94741">
        <ele>2334</ele>
        <time>2021-02-20T09:23:19Z</time>
      </trkpt>
      <trkpt lat="45.16764" lon="5.9474">
        <ele>2336.1</ele>
        <time>2021-02-20T09:23:20Z</time>
      </trkpt>
      <trkpt lat="45.16765" lon="5.9474">
        <ele>2336.1</ele>
        <time>2021-02-20T09:23:24Z</time>
      </trkpt>
      <trkpt lat="45.16765" lon="5.94739">
        <ele>2336.1</ele>
        <time>2021-02-20T09:23:25Z</time>
      </trkpt>
      <trkpt lat="45.16766" lon="5.94739">
        <ele>2336.1</ele>
        <time>2021-02-20T09:23:26Z</time>
      </trkpt>
      <trkpt lat="45.16766" lon="5.94738">
        <ele>2336.1</ele>
        <time>2021-02-20T09:23:27Z</time>
      </trkpt>
      <trkpt lat="45.16767" lon="5.94738">
        <ele>2337.4</ele>
        <time>2021-02-20T09:23:28Z</time>
      </trkpt>
      <trkpt lat="45.16767" lon="5.94737">
        <ele>2337.4</ele>
        <time>2021-02-20T09:23:29Z</time>
      </trkpt>
      <trkpt lat="45.16768" lon="5.94736">
        <ele>2337.4</ele>
        <time>2021-02-20T09:23:30Z</time>
      </trkpt>
      <trkpt lat="45.16768" lon="5.94735">
        <ele>2337.4</ele>
        <time>2021-02-20T09:23:31Z</time>
      </trkpt>
      <trkpt lat="45.16769" lon="5.94734">
        <ele>2337.4</ele>
        <time>2021-02-20T09:23:32Z</time>
      </trkpt>
      <trkpt lat="45.16769" lon="5.94733">
        <ele>2336.7</ele>
        <time>2021-02-20T09:23:33Z</time>
      </trkpt>
      <trkpt lat="45.16769" lon="5.94733">
        <ele>2336.7</ele>
        <time>2021-02-20T09:23:34Z</time>
      </trkpt>
      <trkpt lat="45.16769" lon="5.94733">
        <ele>2336.7</ele>
        <time>2021-02-20T09:23:35Z</time>
      </trkpt>
      <trkpt lat="45.1677" lon="5.94732">
        <ele>2336.7</ele>
        <time>2021-02-20T09:23:36Z</time>
      </trkpt>
      <trkpt lat="45.1677" lon="5.94732">
        <ele>2339.1</ele>
        <time>2021-02-20T09:23:37Z</time>
      </trkpt>
      <trkpt lat="45.16771" lon="5.94732">
        <ele>2339.1</ele>
        <time>2021-02-20T09:23:38Z</time>
      </trkpt>
      <trkpt lat="45.16771" lon="5.94732">
        <ele>2339.1</ele>
        <time>2021-02-20T09:23:39Z</time>
      </trkpt>
      <trkpt lat="45.16771" lon="5.94732">
        <ele>2339.1</ele>
        <time>2021-02-20T09:23:40Z</time>
      </trkpt>
      <trkpt lat="45.16771" lon="5.94733">
        <ele>2339.1</ele>
        <time>2021-02-20T09:23:41Z</time>
      </trkpt>
      <trkpt lat="45.16771" lon="5.94734">
        <ele>2339.1</ele>
        <time>2021-02-20T09:23:42Z</time>
      </trkpt>
      <trkpt lat="45.16771" lon="5.94734">
        <ele>2339.8</ele>
        <time>2021-02-20T09:23:43Z</time>
      </trkpt>
      <trkpt lat="45.16771" lon="5.94735">
        <ele>2339.8</ele>
        <time>2021-02-20T09:23:44Z</time>
      </trkpt>
      <trkpt lat="45.1677" lon="5.94735">
        <ele>2339.8</ele>
        <time>2021-02-20T09:23:45Z</time>
      </trkpt>
      <trkpt lat="45.1677" lon="5.94736">
        <ele>2339.8</ele>
        <time>2021-02-20T09:23:46Z</time>
      </trkpt>
      <trkpt lat="45.1677" lon="5.94737">
        <ele>2339.8</ele>
        <time>2021-02-20T09:23:47Z</time>
      </trkpt>
      <trkpt lat="45.1677" lon="5.94737">
        <ele>2339.8</ele>
        <time>2021-02-20T09:23:48Z</time>
      </trkpt>
      <trkpt lat="45.1677" lon="5.94738">
        <ele>2339.8</ele>
        <time>2021-02-20T09:23:49Z</time>
      </trkpt>
      <trkpt lat="45.1677" lon="5.94738">
        <ele>2340.5</ele>
        <time>2021-02-20T09:23:54Z</time>
      </trkpt>
      <trkpt lat="45.1677" lon="5.94739">
        <ele>2340.5</ele>
        <time>2021-02-20T09:23:55Z</time>
      </trkpt>
      <trkpt lat="45.1677" lon="5.9474">
        <ele>2340.5</ele>
        <time>2021-02-20T09:23:56Z</time>
      </trkpt>
      <trkpt lat="45.1677" lon="5.9474">
        <ele>2340.5</ele>
        <time>2021-02-20T09:23:57Z</time>
      </trkpt>
      <trkpt lat="45.16769" lon="5.94741">
        <ele>2338.2</ele>
        <time>2021-02-20T09:23:58Z</time>
      </trkpt>
      <trkpt lat="45.16769" lon="5.94742">
        <ele>2338.2</ele>
        <time>2021-02-20T09:23:59Z</time>
      </trkpt>
      <trkpt lat="45.16769" lon="5.94743">
        <ele>2338.9</ele>
        <time>2021-02-20T09:24:00Z</time>
      </trkpt>
      <trkpt lat="45.16769" lon="5.94743">
        <ele>2338.9</ele>
        <time>2021-02-20T09:24:01Z</time>
      </trkpt>
      <trkpt lat="45.16769" lon="5.94744">
        <ele>2338.9</ele>
        <time>2021-02-20T09:24:02Z</time>
      </trkpt>
      <trkpt lat="45.16768" lon="5.94745">
        <ele>2338.9</ele>
        <time>2021-02-20T09:24:03Z</time>
      </trkpt>
      <trkpt lat="45.16768" lon="5.94746">
        <ele>2338.9</ele>
        <time>2021-02-20T09:24:04Z</time>
      </trkpt>
      <trkpt lat="45.16768" lon="5.94747">
        <ele>2339.7</ele>
        <time>2021-02-20T09:24:05Z</time>
      </trkpt>
      <trkpt lat="45.16768" lon="5.94748">
        <ele>2339.7</ele>
        <time>2021-02-20T09:24:06Z</time>
      </trkpt>
      <trkpt lat="45.16768" lon="5.9475">
        <ele>2339.7</ele>
        <time>2021-02-20T09:24:07Z</time>
      </trkpt>
      <trkpt lat="45.16768" lon="5.94751">
        <ele>2339.7</ele>
        <time>2021-02-20T09:24:08Z</time>
      </trkpt>
      <trkpt lat="45.16767" lon="5.94752">
        <ele>2340.5</ele>
        <time>2021-02-20T09:24:09Z</time>
      </trkpt>
      <trkpt lat="45.16767" lon="5.94753">
        <ele>2340.5</ele>
        <time>2021-02-20T09:24:10Z</time>
      </trkpt>
      <trkpt lat="45.16768" lon="5.94753">
        <ele>2340.5</ele>
        <time>2021-02-20T09:24:11Z</time>
      </trkpt>
      <trkpt lat="45.16768" lon="5.94752">
        <ele>2340.5</ele>
        <time>2021-02-20T09:24:12Z</time>
      </trkpt>
      <trkpt lat="45.16769" lon="5.94751">
        <ele>2340.5</ele>
        <time>2021-02-20T09:24:13Z</time>
      </trkpt>
      <trkpt lat="45.16769" lon="5.94751">
        <ele>2339.7</ele>
        <time>2021-02-20T09:24:14Z</time>
      </trkpt>
      <trkpt lat="45.1677" lon="5.9475">
        <ele>2339.7</ele>
        <time>2021-02-20T09:24:15Z</time>
      </trkpt>
      <trkpt lat="45.1677" lon="5.9475">
        <ele>2342</ele>
        <time>2021-02-20T09:24:16Z</time>
      </trkpt>
      <trkpt lat="45.16771" lon="5.94749">
        <ele>2342</ele>
        <time>2021-02-20T09:24:17Z</time>
      </trkpt>
      <trkpt lat="45.16771" lon="5.94748">
        <ele>2342</ele>
        <time>2021-02-20T09:24:18Z</time>
      </trkpt>
      <trkpt lat="45.16772" lon="5.94748">
        <ele>2342</ele>
        <time>2021-02-20T09:24:19Z</time>
      </trkpt>
      <trkpt lat="45.16772" lon="5.94747">
        <ele>2342</ele>
        <time>2021-02-20T09:24:20Z</time>
      </trkpt>
      <trkpt lat="45.16773" lon="5.94746">
        <ele>2341.2</ele>
        <time>2021-02-20T09:24:21Z</time>
      </trkpt>
      <trkpt lat="45.16773" lon="5.94746">
        <ele>2343.7</ele>
        <time>2021-02-20T09:24:29Z</time>
      </trkpt>
      <trkpt lat="45.16774" lon="5.94745">
        <ele>2343.7</ele>
        <time>2021-02-20T09:24:30Z</time>
      </trkpt>
      <trkpt lat="45.16774" lon="5.94745">
        <ele>2343.7</ele>
        <time>2021-02-20T09:24:31Z</time>
      </trkpt>
      <trkpt lat="45.16775" lon="5.94744">
        <ele>2343.7</ele>
        <time>2021-02-20T09:24:32Z</time>
      </trkpt>
      <trkpt lat="45.16775" lon="5.94744">
        <ele>2343.7</ele>
        <time>2021-02-20T09:24:33Z</time>
      </trkpt>
      <trkpt lat="45.16776" lon="5.94743">
        <ele>2346.2</ele>
        <time>2021-02-20T09:24:34Z</time>
      </trkpt>
      <trkpt lat="45.16776" lon="5.94742">
        <ele>2345.5</ele>
        <time>2021-02-20T09:24:35Z</time>
      </trkpt>
      <trkpt lat="45.16777" lon="5.94741">
        <ele>2345.5</ele>
        <time>2021-02-20T09:24:36Z</time>
      </trkpt>
      <trkpt lat="45.16778" lon="5.9474">
        <ele>2345.5</ele>
        <time>2021-02-20T09:24:37Z</time>
      </trkpt>
      <trkpt lat="45.16778" lon="5.94739">
        <ele>2345.5</ele>
        <time>2021-02-20T09:24:38Z</time>
      </trkpt>
      <trkpt lat="45.16778" lon="5.94739">
        <ele>2345.5</ele>
        <time>2021-02-20T09:24:39Z</time>
      </trkpt>
      <trkpt lat="45.16779" lon="5.94739">
        <ele>2348</ele>
        <time>2021-02-20T09:24:40Z</time>
      </trkpt>
      <trkpt lat="45.16779" lon="5.9474">
        <ele>2345.5</ele>
        <time>2021-02-20T09:24:41Z</time>
      </trkpt>
      <trkpt lat="45.16778" lon="5.9474">
        <ele>2345.5</ele>
        <time>2021-02-20T09:24:42Z</time>
      </trkpt>
      <trkpt lat="45.16778" lon="5.94741">
        <ele>2345.5</ele>
        <time>2021-02-20T09:24:43Z</time>
      </trkpt>
      <trkpt lat="45.16778" lon="5.94741">
        <ele>2345.5</ele>
        <time>2021-02-20T09:24:44Z</time>
      </trkpt>
      <trkpt lat="45.16777" lon="5.94742">
        <ele>2345.5</ele>
        <time>2021-02-20T09:24:45Z</time>
      </trkpt>
      <trkpt lat="45.16777" lon="5.94742">
        <ele>2346.2</ele>
        <time>2021-02-20T09:24:46Z</time>
      </trkpt>
      <trkpt lat="45.16777" lon="5.94743">
        <ele>2346.2</ele>
        <time>2021-02-20T09:24:47Z</time>
      </trkpt>
      <trkpt lat="45.16776" lon="5.94744">
        <ele>2346.2</ele>
        <time>2021-02-20T09:24:48Z</time>
      </trkpt>
      <trkpt lat="45.16776" lon="5.94744">
        <ele>2346.2</ele>
        <time>2021-02-20T09:24:49Z</time>
      </trkpt>
      <trkpt lat="45.16776" lon="5.94745">
        <ele>2343.7</ele>
        <time>2021-02-20T09:25:02Z</time>
      </trkpt>
      <trkpt lat="45.16775" lon="5.94745">
        <ele>2343.7</ele>
        <time>2021-02-20T09:25:03Z</time>
      </trkpt>
      <trkpt lat="45.16775" lon="5.94746">
        <ele>2343.7</ele>
        <time>2021-02-20T09:25:04Z</time>
      </trkpt>
      <trkpt lat="45.16775" lon="5.94746">
        <ele>2343.7</ele>
        <time>2021-02-20T09:25:05Z</time>
      </trkpt>
      <trkpt lat="45.16775" lon="5.94748">
        <ele>2344.4</ele>
        <time>2021-02-20T09:25:06Z</time>
      </trkpt>
      <trkpt lat="45.16775" lon="5.94749">
        <ele>2344.4</ele>
        <time>2021-02-20T09:25:07Z</time>
      </trkpt>
      <trkpt lat="45.16775" lon="5.9475">
        <ele>2344.4</ele>
        <time>2021-02-20T09:25:08Z</time>
      </trkpt>
      <trkpt lat="45.16774" lon="5.94751">
        <ele>2345.2</ele>
        <time>2021-02-20T09:25:09Z</time>
      </trkpt>
      <trkpt lat="45.16774" lon="5.94752">
        <ele>2345.2</ele>
        <time>2021-02-20T09:25:10Z</time>
      </trkpt>
      <trkpt lat="45.16774" lon="5.94753">
        <ele>2345.2</ele>
        <time>2021-02-20T09:25:11Z</time>
      </trkpt>
      <trkpt lat="45.16774" lon="5.94754">
        <ele>2345.2</ele>
        <time>2021-02-20T09:25:12Z</time>
      </trkpt>
      <trkpt lat="45.16775" lon="5.94755">
        <ele>2345.2</ele>
        <time>2021-02-20T09:25:13Z</time>
      </trkpt>
      <trkpt lat="45.16775" lon="5.94756">
        <ele>2346</ele>
        <time>2021-02-20T09:25:14Z</time>
      </trkpt>
      <trkpt lat="45.16775" lon="5.94756">
        <ele>2346</ele>
        <time>2021-02-20T09:25:15Z</time>
      </trkpt>
      <trkpt lat="45.16775" lon="5.94758">
        <ele>2346</ele>
        <time>2021-02-20T09:25:16Z</time>
      </trkpt>
      <trkpt lat="45.16776" lon="5.94759">
        <ele>2346</ele>
        <time>2021-02-20T09:25:17Z</time>
      </trkpt>
      <trkpt lat="45.16776" lon="5.9476">
        <ele>2346.8</ele>
        <time>2021-02-20T09:25:18Z</time>
      </trkpt>
      <trkpt lat="45.16776" lon="5.94761">
        <ele>2346.8</ele>
        <time>2021-02-20T09:25:19Z</time>
      </trkpt>
      <trkpt lat="45.16775" lon="5.94761">
        <ele>2346.8</ele>
        <time>2021-02-20T09:25:20Z</time>
      </trkpt>
      <trkpt lat="45.16775" lon="5.94762">
        <ele>2346.8</ele>
        <time>2021-02-20T09:25:21Z</time>
      </trkpt>
      <trkpt lat="45.16775" lon="5.94762">
        <ele>2346.8</ele>
        <time>2021-02-20T09:25:22Z</time>
      </trkpt>
      <trkpt lat="45.16775" lon="5.94763">
        <ele>2346.8</ele>
        <time>2021-02-20T09:25:23Z</time>
      </trkpt>
      <trkpt lat="45.16774" lon="5.94763">
        <ele>2346.8</ele>
        <time>2021-02-20T09:25:24Z</time>
      </trkpt>
      <trkpt lat="45.16774" lon="5.94765">
        <ele>2347.6</ele>
        <time>2021-02-20T09:25:25Z</time>
      </trkpt>
      <trkpt lat="45.16774" lon="5.94765">
        <ele>2347.6</ele>
        <time>2021-02-20T09:25:26Z</time>
      </trkpt>
      <trkpt lat="45.16773" lon="5.94766">
        <ele>2347.6</ele>
        <time>2021-02-20T09:25:27Z</time>
      </trkpt>
      <trkpt lat="45.16773" lon="5.94767">
        <ele>2347.6</ele>
        <time>2021-02-20T09:25:28Z</time>
      </trkpt>
      <trkpt lat="45.16773" lon="5.94768">
        <ele>2347.6</ele>
        <time>2021-02-20T09:25:29Z</time>
      </trkpt>
      <trkpt lat="45.16773" lon="5.94768">
        <ele>2346.1</ele>
        <time>2021-02-20T09:25:30Z</time>
      </trkpt>
      <trkpt lat="45.16773" lon="5.94769">
        <ele>2346.1</ele>
        <time>2021-02-20T09:25:31Z</time>
      </trkpt>
      <trkpt lat="45.16772" lon="5.9477">
        <ele>2346.1</ele>
        <time>2021-02-20T09:25:32Z</time>
      </trkpt>
      <trkpt lat="45.16772" lon="5.94771">
        <ele>2346.1</ele>
        <time>2021-02-20T09:25:33Z</time>
      </trkpt>
      <trkpt lat="45.16772" lon="5.94772">
        <ele>2346.1</ele>
        <time>2021-02-20T09:25:34Z</time>
      </trkpt>
      <trkpt lat="45.16773" lon="5.94772">
        <ele>2348.5</ele>
        <time>2021-02-20T09:25:35Z</time>
      </trkpt>
      <trkpt lat="45.16774" lon="5.94772">
        <ele>2348.5</ele>
        <time>2021-02-20T09:25:36Z</time>
      </trkpt>
      <trkpt lat="45.16774" lon="5.94772">
        <ele>2348.5</ele>
        <time>2021-02-20T09:25:37Z</time>
      </trkpt>
      <trkpt lat="45.16775" lon="5.94771">
        <ele>2348.5</ele>
        <time>2021-02-20T09:25:38Z</time>
      </trkpt>
      <trkpt lat="45.16775" lon="5.94771">
        <ele>2348.5</ele>
        <time>2021-02-20T09:25:39Z</time>
      </trkpt>
      <trkpt lat="45.16776" lon="5.9477">
        <ele>2350.9</ele>
        <time>2021-02-20T09:25:40Z</time>
      </trkpt>
      <trkpt lat="45.16776" lon="5.9477">
        <ele>2350.9</ele>
        <time>2021-02-20T09:25:41Z</time>
      </trkpt>
      <trkpt lat="45.16777" lon="5.9477">
        <ele>2350.9</ele>
        <time>2021-02-20T09:25:42Z</time>
      </trkpt>
      <trkpt lat="45.16778" lon="5.94769">
        <ele>2350.9</ele>
        <time>2021-02-20T09:25:43Z</time>
      </trkpt>
      <trkpt lat="45.16778" lon="5.94769">
        <ele>2350.9</ele>
        <time>2021-02-20T09:25:44Z</time>
      </trkpt>
      <trkpt lat="45.16779" lon="5.94769">
        <ele>2353.2</ele>
        <time>2021-02-20T09:25:45Z</time>
      </trkpt>
      <trkpt lat="45.16779" lon="5.94768">
        <ele>2353.2</ele>
        <time>2021-02-20T09:25:46Z</time>
      </trkpt>
      <trkpt lat="45.1678" lon="5.94768">
        <ele>2352.4</ele>
        <time>2021-02-20T09:25:47Z</time>
      </trkpt>
      <trkpt lat="45.16781" lon="5.94767">
        <ele>2352.4</ele>
        <time>2021-02-20T09:25:48Z</time>
      </trkpt>
      <trkpt lat="45.16781" lon="5.94767">
        <ele>2352.4</ele>
        <time>2021-02-20T09:25:49Z</time>
      </trkpt>
      <trkpt lat="45.16782" lon="5.94767">
        <ele>2352.4</ele>
        <time>2021-02-20T09:26:15Z</time>
      </trkpt>
      <trkpt lat="45.16782" lon="5.94766">
        <ele>2354.6</ele>
        <time>2021-02-20T09:26:16Z</time>
      </trkpt>
      <trkpt lat="45.16783" lon="5.94766">
        <ele>2354.6</ele>
        <time>2021-02-20T09:26:17Z</time>
      </trkpt>
      <trkpt lat="45.16784" lon="5.94766">
        <ele>2354.6</ele>
        <time>2021-02-20T09:26:18Z</time>
      </trkpt>
      <trkpt lat="45.16784" lon="5.94765">
        <ele>2354.6</ele>
        <time>2021-02-20T09:26:19Z</time>
      </trkpt>
      <trkpt lat="45.16784" lon="5.94764">
        <ele>2354.6</ele>
        <time>2021-02-20T09:26:20Z</time>
      </trkpt>
      <trkpt lat="45.16785" lon="5.94763">
        <ele>2353.8</ele>
        <time>2021-02-20T09:26:21Z</time>
      </trkpt>
      <trkpt lat="45.16785" lon="5.94762">
        <ele>2353.8</ele>
        <time>2021-02-20T09:26:22Z</time>
      </trkpt>
      <trkpt lat="45.16785" lon="5.94761">
        <ele>2355.9</ele>
        <time>2021-02-20T09:26:23Z</time>
      </trkpt>
      <trkpt lat="45.16786" lon="5.9476">
        <ele>2355.9</ele>
        <time>2021-02-20T09:26:24Z</time>
      </trkpt>
      <trkpt lat="45.16786" lon="5.94759">
        <ele>2355.1</ele>
        <time>2021-02-20T09:26:25Z</time>
      </trkpt>
      <trkpt lat="45.16787" lon="5.94758">
        <ele>2355.1</ele>
        <time>2021-02-20T09:26:26Z</time>
      </trkpt>
      <trkpt lat="45.16787" lon="5.94757">
        <ele>2355.1</ele>
        <time>2021-02-20T09:26:27Z</time>
      </trkpt>
      <trkpt lat="45.16788" lon="5.94757">
        <ele>2355.1</ele>
        <time>2021-02-20T09:26:28Z</time>
      </trkpt>
      <trkpt lat="45.16788" lon="5.94756">
        <ele>2357.1</ele>
        <time>2021-02-20T09:26:29Z</time>
      </trkpt>
      <trkpt lat="45.16789" lon="5.94756">
        <ele>2357.1</ele>
        <time>2021-02-20T09:26:30Z</time>
      </trkpt>
      <trkpt lat="45.16789" lon="5.94755">
        <ele>2356.4</ele>
        <time>2021-02-20T09:26:31Z</time>
      </trkpt>
      <trkpt lat="45.16789" lon="5.94754">
        <ele>2356.4</ele>
        <time>2021-02-20T09:26:32Z</time>
      </trkpt>
      <trkpt lat="45.1679" lon="5.94753">
        <ele>2356.4</ele>
        <time>2021-02-20T09:26:33Z</time>
      </trkpt>
      <trkpt lat="45.1679" lon="5.94753">
        <ele>2356.4</ele>
        <time>2021-02-20T09:26:34Z</time>
      </trkpt>
      <trkpt lat="45.16791" lon="5.94751">
        <ele>2356.4</ele>
        <time>2021-02-20T09:26:35Z</time>
      </trkpt>
      <trkpt lat="45.16791" lon="5.9475">
        <ele>2355.8</ele>
        <time>2021-02-20T09:26:36Z</time>
      </trkpt>
      <trkpt lat="45.16791" lon="5.94749">
        <ele>2357.8</ele>
        <time>2021-02-20T09:26:37Z</time>
      </trkpt>
      <trkpt lat="45.16791" lon="5.94749">
        <ele>2357.8</ele>
        <time>2021-02-20T09:26:38Z</time>
      </trkpt>
      <trkpt lat="45.16792" lon="5.94748">
        <ele>2357.8</ele>
        <time>2021-02-20T09:26:39Z</time>
      </trkpt>
      <trkpt lat="45.16792" lon="5.94748">
        <ele>2357.8</ele>
        <time>2021-02-20T09:26:40Z</time>
      </trkpt>
      <trkpt lat="45.16793" lon="5.94747">
        <ele>2357.8</ele>
        <time>2021-02-20T09:26:41Z</time>
      </trkpt>
      <trkpt lat="45.16793" lon="5.94747">
        <ele>2357.8</ele>
        <time>2021-02-20T09:26:42Z</time>
      </trkpt>
      <trkpt lat="45.16793" lon="5.94746">
        <ele>2357.2</ele>
        <time>2021-02-20T09:26:43Z</time>
      </trkpt>
      <trkpt lat="45.16793" lon="5.94745">
        <ele>2357.2</ele>
        <time>2021-02-20T09:26:44Z</time>
      </trkpt>
      <trkpt lat="45.16793" lon="5.94744">
        <ele>2357.2</ele>
        <time>2021-02-20T09:26:45Z</time>
      </trkpt>
      <trkpt lat="45.16794" lon="5.94744">
        <ele>2357.2</ele>
        <time>2021-02-20T09:26:46Z</time>
      </trkpt>
      <trkpt lat="45.16794" lon="5.94743">
        <ele>2357.2</ele>
        <time>2021-02-20T09:26:47Z</time>
      </trkpt>
      <trkpt lat="45.16794" lon="5.94742">
        <ele>2358.8</ele>
        <time>2021-02-20T09:26:48Z</time>
      </trkpt>
      <trkpt lat="45.16794" lon="5.94741">
        <ele>2358.8</ele>
        <time>2021-02-20T09:26:49Z</time>
      </trkpt>
      <trkpt lat="45.16795" lon="5.94741">
        <ele>2358.8</ele>
        <time>2021-02-20T09:26:50Z</time>
      </trkpt>
      <trkpt lat="45.16795" lon="5.9474">
        <ele>2358.8</ele>
        <time>2021-02-20T09:26:51Z</time>
      </trkpt>
      <trkpt lat="45.16796" lon="5.94739">
        <ele>2358.8</ele>
        <time>2021-02-20T09:26:52Z</time>
      </trkpt>
      <trkpt lat="45.16796" lon="5.94739">
        <ele>2358.8</ele>
        <time>2021-02-20T09:26:53Z</time>
      </trkpt>
      <trkpt lat="45.16796" lon="5.94739">
        <ele>2358.8</ele>
        <time>2021-02-20T09:26:54Z</time>
      </trkpt>
      <trkpt lat="45.16796" lon="5.94739">
        <ele>2358.8</ele>
        <time>2021-02-20T09:26:55Z</time>
      </trkpt>
      <trkpt lat="45.16797" lon="5.94739">
        <ele>2358.8</ele>
        <time>2021-02-20T09:26:56Z</time>
      </trkpt>
      <trkpt lat="45.16797" lon="5.94738">
        <ele>2358.3</ele>
        <time>2021-02-20T09:26:57Z</time>
      </trkpt>
      <trkpt lat="45.16797" lon="5.94737">
        <ele>2358.3</ele>
        <time>2021-02-20T09:26:58Z</time>
      </trkpt>
      <trkpt lat="45.16797" lon="5.94737">
        <ele>2360.5</ele>
        <time>2021-02-20T09:26:59Z</time>
      </trkpt>
      <trkpt lat="45.16797" lon="5.94737">
        <ele>2360.5</ele>
        <time>2021-02-20T09:27:00Z</time>
      </trkpt>
      <trkpt lat="45.16798" lon="5.94737">
        <ele>2360.5</ele>
        <time>2021-02-20T09:27:01Z</time>
      </trkpt>
      <trkpt lat="45.16798" lon="5.94737">
        <ele>2360.5</ele>
        <time>2021-02-20T09:27:02Z</time>
      </trkpt>
      <trkpt lat="45.16798" lon="5.94736">
        <ele>2360.5</ele>
        <time>2021-02-20T09:27:03Z</time>
      </trkpt>
      <trkpt lat="45.16798" lon="5.94735">
        <ele>2360.5</ele>
        <time>2021-02-20T09:27:04Z</time>
      </trkpt>
      <trkpt lat="45.16798" lon="5.94734">
        <ele>2360.5</ele>
        <time>2021-02-20T09:27:05Z</time>
      </trkpt>
      <trkpt lat="45.16798" lon="5.94734">
        <ele>2360</ele>
        <time>2021-02-20T09:27:06Z</time>
      </trkpt>
      <trkpt lat="45.16799" lon="5.94733">
        <ele>2360</ele>
        <time>2021-02-20T09:27:07Z</time>
      </trkpt>
      <trkpt lat="45.16799" lon="5.94732">
        <ele>2360</ele>
        <time>2021-02-20T09:27:08Z</time>
      </trkpt>
      <trkpt lat="45.16799" lon="5.94731">
        <ele>2360</ele>
        <time>2021-02-20T09:27:09Z</time>
      </trkpt>
      <trkpt lat="45.16799" lon="5.9473">
        <ele>2360</ele>
        <time>2021-02-20T09:27:10Z</time>
      </trkpt>
      <trkpt lat="45.16799" lon="5.94729">
        <ele>2359.5</ele>
        <time>2021-02-20T09:27:11Z</time>
      </trkpt>
      <trkpt lat="45.168" lon="5.94729">
        <ele>2359.5</ele>
        <time>2021-02-20T09:27:12Z</time>
      </trkpt>
      <trkpt lat="45.168" lon="5.94727">
        <ele>2361.8</ele>
        <time>2021-02-20T09:27:13Z</time>
      </trkpt>
      <trkpt lat="45.168" lon="5.94727">
        <ele>2361.8</ele>
        <time>2021-02-20T09:27:14Z</time>
      </trkpt>
      <trkpt lat="45.16801" lon="5.94726">
        <ele>2361.8</ele>
        <time>2021-02-20T09:27:15Z</time>
      </trkpt>
      <trkpt lat="45.16801" lon="5.94726">
        <ele>2361.8</ele>
        <time>2021-02-20T09:27:16Z</time>
      </trkpt>
      <trkpt lat="45.16802" lon="5.94725">
        <ele>2361.8</ele>
        <time>2021-02-20T09:27:17Z</time>
      </trkpt>
      <trkpt lat="45.16802" lon="5.94725">
        <ele>2361.8</ele>
        <time>2021-02-20T09:27:18Z</time>
      </trkpt>
      <trkpt lat="45.16803" lon="5.94725">
        <ele>2361.3</ele>
        <time>2021-02-20T09:27:19Z</time>
      </trkpt>
      <trkpt lat="45.16803" lon="5.94724">
        <ele>2361.3</ele>
        <time>2021-02-20T09:27:20Z</time>
      </trkpt>
      <trkpt lat="45.16803" lon="5.94723">
        <ele>2363.6</ele>
        <time>2021-02-20T09:27:21Z</time>
      </trkpt>
      <trkpt lat="45.16803" lon="5.94722">
        <ele>2363.6</ele>
        <time>2021-02-20T09:27:22Z</time>
      </trkpt>
      <trkpt lat="45.16803" lon="5.94721">
        <ele>2361.3</ele>
        <time>2021-02-20T09:27:23Z</time>
      </trkpt>
      <trkpt lat="45.16803" lon="5.94721">
        <ele>2360.7</ele>
        <time>2021-02-20T09:27:24Z</time>
      </trkpt>
      <trkpt lat="45.16803" lon="5.9472">
        <ele>2360.7</ele>
        <time>2021-02-20T09:27:25Z</time>
      </trkpt>
      <trkpt lat="45.16802" lon="5.94719">
        <ele>2360.7</ele>
        <time>2021-02-20T09:27:26Z</time>
      </trkpt>
      <trkpt lat="45.16802" lon="5.94719">
        <ele>2360.7</ele>
        <time>2021-02-20T09:27:27Z</time>
      </trkpt>
      <trkpt lat="45.16802" lon="5.94718">
        <ele>2360.7</ele>
        <time>2021-02-20T09:27:28Z</time>
      </trkpt>
      <trkpt lat="45.16802" lon="5.94717">
        <ele>2360.7</ele>
        <time>2021-02-20T09:27:29Z</time>
      </trkpt>
      <trkpt lat="45.16802" lon="5.94717">
        <ele>2360.2</ele>
        <time>2021-02-20T09:27:30Z</time>
      </trkpt>
      <trkpt lat="45.16802" lon="5.94716">
        <ele>2360.2</ele>
        <time>2021-02-20T09:27:31Z</time>
      </trkpt>
      <trkpt lat="45.16801" lon="5.94715">
        <ele>2360.2</ele>
        <time>2021-02-20T09:27:33Z</time>
      </trkpt>
      <trkpt lat="45.16801" lon="5.94714">
        <ele>2360.2</ele>
        <time>2021-02-20T09:27:34Z</time>
      </trkpt>
      <trkpt lat="45.16801" lon="5.94714">
        <ele>2360.2</ele>
        <time>2021-02-20T09:27:35Z</time>
      </trkpt>
      <trkpt lat="45.16799" lon="5.94712">
        <ele>2357.3</ele>
        <time>2021-02-20T09:27:36Z</time>
      </trkpt>
      <trkpt lat="45.16799" lon="5.94711">
        <ele>2357.3</ele>
        <time>2021-02-20T09:27:37Z</time>
      </trkpt>
      <trkpt lat="45.168" lon="5.94712">
        <ele>2357.3</ele>
        <time>2021-02-20T09:27:38Z</time>
      </trkpt>
      <trkpt lat="45.16801" lon="5.94713">
        <ele>2360.2</ele>
        <time>2021-02-20T09:27:39Z</time>
      </trkpt>
      <trkpt lat="45.16802" lon="5.94714">
        <ele>2360.2</ele>
        <time>2021-02-20T09:27:40Z</time>
      </trkpt>
      <trkpt lat="45.16803" lon="5.94719">
        <ele>2363</ele>
        <time>2021-02-20T09:27:41Z</time>
      </trkpt>
      <trkpt lat="45.16804" lon="5.94721">
        <ele>2363.6</ele>
        <time>2021-02-20T09:27:42Z</time>
      </trkpt>
      <trkpt lat="45.16805" lon="5.94724">
        <ele>2363.6</ele>
        <time>2021-02-20T09:27:43Z</time>
      </trkpt>
      <trkpt lat="45.16805" lon="5.94726">
        <ele>2364.1</ele>
        <time>2021-02-20T09:27:44Z</time>
      </trkpt>
      <trkpt lat="45.16806" lon="5.94726">
        <ele>2364.1</ele>
        <time>2021-02-20T09:27:45Z</time>
      </trkpt>
      <trkpt lat="45.16806" lon="5.94726">
        <ele>2364.1</ele>
        <time>2021-02-20T09:27:46Z</time>
      </trkpt>
      <trkpt lat="45.16806" lon="5.94725">
        <ele>2363.6</ele>
        <time>2021-02-20T09:27:47Z</time>
      </trkpt>
      <trkpt lat="45.16805" lon="5.94724">
        <ele>2363.6</ele>
        <time>2021-02-20T09:27:48Z</time>
      </trkpt>
      <trkpt lat="45.16805" lon="5.94723">
        <ele>2363.6</ele>
        <time>2021-02-20T09:27:49Z</time>
      </trkpt>
      <trkpt lat="45.16805" lon="5.94722">
        <ele>2363.6</ele>
        <time>2021-02-20T09:27:50Z</time>
      </trkpt>
      <trkpt lat="45.16805" lon="5.94721">
        <ele>2363.6</ele>
        <time>2021-02-20T09:27:51Z</time>
      </trkpt>
      <trkpt lat="45.16804" lon="5.94723">
        <ele>2363.6</ele>
        <time>2021-02-20T09:27:52Z</time>
      </trkpt>
      <trkpt lat="45.16804" lon="5.94724">
        <ele>2363.6</ele>
        <time>2021-02-20T09:27:53Z</time>
      </trkpt>
      <trkpt lat="45.16804" lon="5.94726">
        <ele>2364.1</ele>
        <time>2021-02-20T09:27:54Z</time>
      </trkpt>
      <trkpt lat="45.16803" lon="5.94727">
        <ele>2364.1</ele>
        <time>2021-02-20T09:27:55Z</time>
      </trkpt>
      <trkpt lat="45.16803" lon="5.94729">
        <ele>2361.8</ele>
        <time>2021-02-20T09:28:12Z</time>
      </trkpt>
      <trkpt lat="45.16803" lon="5.9473">
        <ele>2362.3</ele>
        <time>2021-02-20T09:28:13Z</time>
      </trkpt>
      <trkpt lat="45.16802" lon="5.94732">
        <ele>2362.3</ele>
        <time>2021-02-20T09:28:14Z</time>
      </trkpt>
      <trkpt lat="45.16802" lon="5.94733">
        <ele>2362.3</ele>
        <time>2021-02-20T09:28:15Z</time>
      </trkpt>
      <trkpt lat="45.16802" lon="5.94734">
        <ele>2362.9</ele>
        <time>2021-02-20T09:28:16Z</time>
      </trkpt>
      <trkpt lat="45.16803" lon="5.94735">
        <ele>2362.9</ele>
        <time>2021-02-20T09:28:17Z</time>
      </trkpt>
      <trkpt lat="45.16803" lon="5.94735">
        <ele>2365.2</ele>
        <time>2021-02-20T09:28:18Z</time>
      </trkpt>
      <trkpt lat="45.16804" lon="5.94736">
        <ele>2365.2</ele>
        <time>2021-02-20T09:28:19Z</time>
      </trkpt>
      <trkpt lat="45.16804" lon="5.94737">
        <ele>2365.2</ele>
        <time>2021-02-20T09:28:20Z</time>
      </trkpt>
      <trkpt lat="45.16804" lon="5.94737">
        <ele>2365.2</ele>
        <time>2021-02-20T09:28:21Z</time>
      </trkpt>
      <trkpt lat="45.16805" lon="5.94738">
        <ele>2365.7</ele>
        <time>2021-02-20T09:28:22Z</time>
      </trkpt>
      <trkpt lat="45.16805" lon="5.94739">
        <ele>2365.7</ele>
        <time>2021-02-20T09:28:23Z</time>
      </trkpt>
      <trkpt lat="45.16805" lon="5.9474">
        <ele>2365.7</ele>
        <time>2021-02-20T09:28:24Z</time>
      </trkpt>
      <trkpt lat="45.16805" lon="5.9474">
        <ele>2365.7</ele>
        <time>2021-02-20T09:28:25Z</time>
      </trkpt>
      <trkpt lat="45.16806" lon="5.94741">
        <ele>2365.7</ele>
        <time>2021-02-20T09:28:26Z</time>
      </trkpt>
      <trkpt lat="45.16806" lon="5.94741">
        <ele>2365.7</ele>
        <time>2021-02-20T09:28:27Z</time>
      </trkpt>
      <trkpt lat="45.16806" lon="5.94742">
        <ele>2365.7</ele>
        <time>2021-02-20T09:28:28Z</time>
      </trkpt>
      <trkpt lat="45.16806" lon="5.94743">
        <ele>2366.2</ele>
        <time>2021-02-20T09:28:29Z</time>
      </trkpt>
      <trkpt lat="45.16806" lon="5.94743">
        <ele>2366.2</ele>
        <time>2021-02-20T09:28:30Z</time>
      </trkpt>
      <trkpt lat="45.16806" lon="5.94744">
        <ele>2366.2</ele>
        <time>2021-02-20T09:28:31Z</time>
      </trkpt>
      <trkpt lat="45.16806" lon="5.94744">
        <ele>2368.5</ele>
        <time>2021-02-20T09:28:32Z</time>
      </trkpt>
      <trkpt lat="45.16807" lon="5.94744">
        <ele>2368.5</ele>
        <time>2021-02-20T09:28:33Z</time>
      </trkpt>
      <trkpt lat="45.16808" lon="5.94744">
        <ele>2368.5</ele>
        <time>2021-02-20T09:28:34Z</time>
      </trkpt>
      <trkpt lat="45.16809" lon="5.94744">
        <ele>2370.7</ele>
        <time>2021-02-20T09:29:14Z</time>
      </trkpt>
      <trkpt lat="45.1681" lon="5.94744">
        <ele>2370.7</ele>
        <time>2021-02-20T09:29:15Z</time>
      </trkpt>
      <trkpt lat="45.16811" lon="5.94744">
        <ele>2370.7</ele>
        <time>2021-02-20T09:29:16Z</time>
      </trkpt>
      <trkpt lat="45.16812" lon="5.94744">
        <ele>2372.9</ele>
        <time>2021-02-20T09:29:17Z</time>
      </trkpt>
      <trkpt lat="45.16813" lon="5.94743">
        <ele>2372.9</ele>
        <time>2021-02-20T09:29:18Z</time>
      </trkpt>
      <trkpt lat="45.16813" lon="5.94743">
        <ele>2372.9</ele>
        <time>2021-02-20T09:29:19Z</time>
      </trkpt>
      <trkpt lat="45.16814" lon="5.94742">
        <ele>2372.4</ele>
        <time>2021-02-20T09:29:20Z</time>
      </trkpt>
      <trkpt lat="45.16814" lon="5.94741">
        <ele>2372.4</ele>
        <time>2021-02-20T09:29:21Z</time>
      </trkpt>
      <trkpt lat="45.16814" lon="5.9474">
        <ele>2372.4</ele>
        <time>2021-02-20T09:29:22Z</time>
      </trkpt>
      <trkpt lat="45.16815" lon="5.94739">
        <ele>2372.4</ele>
        <time>2021-02-20T09:29:23Z</time>
      </trkpt>
      <trkpt lat="45.16815" lon="5.94738">
        <ele>2372.4</ele>
        <time>2021-02-20T09:29:24Z</time>
      </trkpt>
      <trkpt lat="45.16815" lon="5.94738">
        <ele>2374</ele>
        <time>2021-02-20T09:29:25Z</time>
      </trkpt>
      <trkpt lat="45.16815" lon="5.94737">
        <ele>2374</ele>
        <time>2021-02-20T09:29:26Z</time>
      </trkpt>
      <trkpt lat="45.16816" lon="5.94736">
        <ele>2374</ele>
        <time>2021-02-20T09:29:27Z</time>
      </trkpt>
      <trkpt lat="45.16816" lon="5.94735">
        <ele>2374</ele>
        <time>2021-02-20T09:29:28Z</time>
      </trkpt>
      <trkpt lat="45.16817" lon="5.94734">
        <ele>2374</ele>
        <time>2021-02-20T09:29:29Z</time>
      </trkpt>
      <trkpt lat="45.16817" lon="5.94734">
        <ele>2373.4</ele>
        <time>2021-02-20T09:29:30Z</time>
      </trkpt>
      <trkpt lat="45.16817" lon="5.94733">
        <ele>2373.4</ele>
        <time>2021-02-20T09:29:31Z</time>
      </trkpt>
      <trkpt lat="45.16818" lon="5.94732">
        <ele>2373.4</ele>
        <time>2021-02-20T09:29:32Z</time>
      </trkpt>
      <trkpt lat="45.16818" lon="5.9473">
        <ele>2373.4</ele>
        <time>2021-02-20T09:29:33Z</time>
      </trkpt>
      <trkpt lat="45.16818" lon="5.94729">
        <ele>2374.9</ele>
        <time>2021-02-20T09:29:34Z</time>
      </trkpt>
      <trkpt lat="45.16818" lon="5.94728">
        <ele>2374.9</ele>
        <time>2021-02-20T09:29:35Z</time>
      </trkpt>
      <trkpt lat="45.16818" lon="5.94727">
        <ele>2374.9</ele>
        <time>2021-02-20T09:29:36Z</time>
      </trkpt>
      <trkpt lat="45.16818" lon="5.94727">
        <ele>2374.9</ele>
        <time>2021-02-20T09:29:37Z</time>
      </trkpt>
      <trkpt lat="45.16819" lon="5.94726">
        <ele>2374.9</ele>
        <time>2021-02-20T09:29:38Z</time>
      </trkpt>
      <trkpt lat="45.16819" lon="5.94726">
        <ele>2374.9</ele>
        <time>2021-02-20T09:29:39Z</time>
      </trkpt>
      <trkpt lat="45.1682" lon="5.94726">
        <ele>2374.9</ele>
        <time>2021-02-20T09:29:40Z</time>
      </trkpt>
      <trkpt lat="45.1682" lon="5.94725">
        <ele>2374.9</ele>
        <time>2021-02-20T09:29:41Z</time>
      </trkpt>
      <trkpt lat="45.16821" lon="5.94725">
        <ele>2374.9</ele>
        <time>2021-02-20T09:29:42Z</time>
      </trkpt>
      <trkpt lat="45.16821" lon="5.94725">
        <ele>2376.3</ele>
        <time>2021-02-20T09:29:43Z</time>
      </trkpt>
      <trkpt lat="45.16822" lon="5.94724">
        <ele>2376.3</ele>
        <time>2021-02-20T09:29:44Z</time>
      </trkpt>
      <trkpt lat="45.16822" lon="5.94723">
        <ele>2376.3</ele>
        <time>2021-02-20T09:29:45Z</time>
      </trkpt>
      <trkpt lat="45.16823" lon="5.94723">
        <ele>2376.3</ele>
        <time>2021-02-20T09:29:46Z</time>
      </trkpt>
      <trkpt lat="45.16823" lon="5.94722">
        <ele>2376.3</ele>
        <time>2021-02-20T09:29:47Z</time>
      </trkpt>
      <trkpt lat="45.16823" lon="5.94721">
        <ele>2376.3</ele>
        <time>2021-02-20T09:29:48Z</time>
      </trkpt>
      <trkpt lat="45.16824" lon="5.9472">
        <ele>2375.7</ele>
        <time>2021-02-20T09:29:49Z</time>
      </trkpt>
      <trkpt lat="45.16824" lon="5.94719">
        <ele>2375.7</ele>
        <time>2021-02-20T09:29:50Z</time>
      </trkpt>
      <trkpt lat="45.16824" lon="5.94718">
        <ele>2377.7</ele>
        <time>2021-02-20T09:29:51Z</time>
      </trkpt>
      <trkpt lat="45.16825" lon="5.94717">
        <ele>2377.7</ele>
        <time>2021-02-20T09:29:52Z</time>
      </trkpt>
      <trkpt lat="45.16825" lon="5.94717">
        <ele>2377.7</ele>
        <time>2021-02-20T09:29:53Z</time>
      </trkpt>
      <trkpt lat="45.16826" lon="5.94716">
        <ele>2377.1</ele>
        <time>2021-02-20T09:29:54Z</time>
      </trkpt>
      <trkpt lat="45.16826" lon="5.94715">
        <ele>2377.1</ele>
        <time>2021-02-20T09:29:55Z</time>
      </trkpt>
      <trkpt lat="45.16827" lon="5.94714">
        <ele>2377.1</ele>
        <time>2021-02-20T09:29:56Z</time>
      </trkpt>
      <trkpt lat="45.16827" lon="5.94714">
        <ele>2377.1</ele>
        <time>2021-02-20T09:29:57Z</time>
      </trkpt>
      <trkpt lat="45.16827" lon="5.94713">
        <ele>2379.2</ele>
        <time>2021-02-20T09:29:58Z</time>
      </trkpt>
      <trkpt lat="45.16828" lon="5.94712">
        <ele>2379.2</ele>
        <time>2021-02-20T09:29:59Z</time>
      </trkpt>
      <trkpt lat="45.16828" lon="5.94711">
        <ele>2378.6</ele>
        <time>2021-02-20T09:30:00Z</time>
      </trkpt>
      <trkpt lat="45.16828" lon="5.9471">
        <ele>2378.6</ele>
        <time>2021-02-20T09:30:01Z</time>
      </trkpt>
      <trkpt lat="45.16829" lon="5.9471">
        <ele>2378.6</ele>
        <time>2021-02-20T09:30:02Z</time>
      </trkpt>
      <trkpt lat="45.16829" lon="5.94709">
        <ele>2378.6</ele>
        <time>2021-02-20T09:30:03Z</time>
      </trkpt>
      <trkpt lat="45.16829" lon="5.94709">
        <ele>2378.6</ele>
        <time>2021-02-20T09:30:04Z</time>
      </trkpt>
      <trkpt lat="45.16829" lon="5.94708">
        <ele>2378</ele>
        <time>2021-02-20T09:30:05Z</time>
      </trkpt>
      <trkpt lat="45.16829" lon="5.94707">
        <ele>2378</ele>
        <time>2021-02-20T09:30:06Z</time>
      </trkpt>
      <trkpt lat="45.16829" lon="5.94707">
        <ele>2378</ele>
        <time>2021-02-20T09:30:07Z</time>
      </trkpt>
      <trkpt lat="45.1683" lon="5.94706">
        <ele>2378</ele>
        <time>2021-02-20T09:30:08Z</time>
      </trkpt>
      <trkpt lat="45.1683" lon="5.94706">
        <ele>2378</ele>
        <time>2021-02-20T09:30:09Z</time>
      </trkpt>
      <trkpt lat="45.1683" lon="5.94706">
        <ele>2380.3</ele>
        <time>2021-02-20T09:30:10Z</time>
      </trkpt>
      <trkpt lat="45.16831" lon="5.94705">
        <ele>2380.3</ele>
        <time>2021-02-20T09:30:11Z</time>
      </trkpt>
      <trkpt lat="45.16831" lon="5.94705">
        <ele>2380.3</ele>
        <time>2021-02-20T09:30:12Z</time>
      </trkpt>
      <trkpt lat="45.16832" lon="5.94705">
        <ele>2380.3</ele>
        <time>2021-02-20T09:30:13Z</time>
      </trkpt>
      <trkpt lat="45.16832" lon="5.94704">
        <ele>2380.3</ele>
        <time>2021-02-20T09:30:14Z</time>
      </trkpt>
      <trkpt lat="45.16832" lon="5.94703">
        <ele>2379.7</ele>
        <time>2021-02-20T09:30:15Z</time>
      </trkpt>
      <trkpt lat="45.16833" lon="5.94702">
        <ele>2379.7</ele>
        <time>2021-02-20T09:30:16Z</time>
      </trkpt>
      <trkpt lat="45.16833" lon="5.94702">
        <ele>2379.7</ele>
        <time>2021-02-20T09:30:17Z</time>
      </trkpt>
      <trkpt lat="45.16834" lon="5.94701">
        <ele>2382</ele>
        <time>2021-02-20T09:30:18Z</time>
      </trkpt>
      <trkpt lat="45.16834" lon="5.947">
        <ele>2382</ele>
        <time>2021-02-20T09:30:19Z</time>
      </trkpt>
      <trkpt lat="45.16834" lon="5.94699">
        <ele>2382</ele>
        <time>2021-02-20T09:30:20Z</time>
      </trkpt>
      <trkpt lat="45.16834" lon="5.94698">
        <ele>2381.5</ele>
        <time>2021-02-20T09:30:21Z</time>
      </trkpt>
      <trkpt lat="45.16835" lon="5.94697">
        <ele>2381.5</ele>
        <time>2021-02-20T09:30:22Z</time>
      </trkpt>
      <trkpt lat="45.16835" lon="5.94696">
        <ele>2381.5</ele>
        <time>2021-02-20T09:30:23Z</time>
      </trkpt>
      <trkpt lat="45.16835" lon="5.94695">
        <ele>2381.5</ele>
        <time>2021-02-20T09:30:24Z</time>
      </trkpt>
      <trkpt lat="45.16835" lon="5.94695">
        <ele>2381</ele>
        <time>2021-02-20T09:30:25Z</time>
      </trkpt>
      <trkpt lat="45.16835" lon="5.94695">
        <ele>2381</ele>
        <time>2021-02-20T09:30:26Z</time>
      </trkpt>
      <trkpt lat="45.16835" lon="5.94694">
        <ele>2381</ele>
        <time>2021-02-20T09:30:27Z</time>
      </trkpt>
      <trkpt lat="45.16835" lon="5.94693">
        <ele>2381</ele>
        <time>2021-02-20T09:30:28Z</time>
      </trkpt>
      <trkpt lat="45.16835" lon="5.94693">
        <ele>2381</ele>
        <time>2021-02-20T09:30:29Z</time>
      </trkpt>
      <trkpt lat="45.16835" lon="5.94692">
        <ele>2381</ele>
        <time>2021-02-20T09:30:30Z</time>
      </trkpt>
      <trkpt lat="45.16835" lon="5.94691">
        <ele>2381</ele>
        <time>2021-02-20T09:30:31Z</time>
      </trkpt>
      <trkpt lat="45.16836" lon="5.94691">
        <ele>2381</ele>
        <time>2021-02-20T09:30:32Z</time>
      </trkpt>
      <trkpt lat="45.16836" lon="5.9469">
        <ele>2380.4</ele>
        <time>2021-02-20T09:30:33Z</time>
      </trkpt>
      <trkpt lat="45.16836" lon="5.9469">
        <ele>2382.7</ele>
        <time>2021-02-20T09:30:34Z</time>
      </trkpt>
      <trkpt lat="45.16837" lon="5.94689">
        <ele>2382.7</ele>
        <time>2021-02-20T09:30:35Z</time>
      </trkpt>
      <trkpt lat="45.16837" lon="5.94688">
        <ele>2382.7</ele>
        <time>2021-02-20T09:30:36Z</time>
      </trkpt>
      <trkpt lat="45.16837" lon="5.94687">
        <ele>2382.1</ele>
        <time>2021-02-20T09:30:37Z</time>
      </trkpt>
      <trkpt lat="45.16837" lon="5.94685">
        <ele>2382.1</ele>
        <time>2021-02-20T09:30:38Z</time>
      </trkpt>
      <trkpt lat="45.16837" lon="5.94684">
        <ele>2382.1</ele>
        <time>2021-02-20T09:30:39Z</time>
      </trkpt>
      <trkpt lat="45.16837" lon="5.94684">
        <ele>2382.1</ele>
        <time>2021-02-20T09:30:40Z</time>
      </trkpt>
      <trkpt lat="45.16837" lon="5.94683">
        <ele>2382.1</ele>
        <time>2021-02-20T09:30:41Z</time>
      </trkpt>
      <trkpt lat="45.16837" lon="5.94682">
        <ele>2382.1</ele>
        <time>2021-02-20T09:30:42Z</time>
      </trkpt>
      <trkpt lat="45.16838" lon="5.94682">
        <ele>2381.5</ele>
        <time>2021-02-20T09:30:43Z</time>
      </trkpt>
      <trkpt lat="45.16838" lon="5.94681">
        <ele>2381.5</ele>
        <time>2021-02-20T09:30:44Z</time>
      </trkpt>
      <trkpt lat="45.16838" lon="5.94681">
        <ele>2381.5</ele>
        <time>2021-02-20T09:30:45Z</time>
      </trkpt>
      <trkpt lat="45.16839" lon="5.94681">
        <ele>2381.5</ele>
        <time>2021-02-20T09:30:46Z</time>
      </trkpt>
      <trkpt lat="45.16839" lon="5.94681">
        <ele>2381.5</ele>
        <time>2021-02-20T09:30:47Z</time>
      </trkpt>
      <trkpt lat="45.1684" lon="5.94681">
        <ele>2383.6</ele>
        <time>2021-02-20T09:30:48Z</time>
      </trkpt>
      <trkpt lat="45.1684" lon="5.9468">
        <ele>2383.6</ele>
        <time>2021-02-20T09:30:49Z</time>
      </trkpt>
      <trkpt lat="45.16841" lon="5.9468">
        <ele>2383.6</ele>
        <time>2021-02-20T09:30:50Z</time>
      </trkpt>
      <trkpt lat="45.16841" lon="5.9468">
        <ele>2383.6</ele>
        <time>2021-02-20T09:30:51Z</time>
      </trkpt>
      <trkpt lat="45.16841" lon="5.94679">
        <ele>2383.6</ele>
        <time>2021-02-20T09:30:52Z</time>
      </trkpt>
      <trkpt lat="45.16842" lon="5.94678">
        <ele>2383</ele>
        <time>2021-02-20T09:30:53Z</time>
      </trkpt>
      <trkpt lat="45.16842" lon="5.94677">
        <ele>2383</ele>
        <time>2021-02-20T09:30:54Z</time>
      </trkpt>
      <trkpt lat="45.16842" lon="5.94677">
        <ele>2383</ele>
        <time>2021-02-20T09:30:55Z</time>
      </trkpt>
      <trkpt lat="45.16842" lon="5.94676">
        <ele>2384.9</ele>
        <time>2021-02-20T09:30:56Z</time>
      </trkpt>
      <trkpt lat="45.16843" lon="5.94675">
        <ele>2384.9</ele>
        <time>2021-02-20T09:30:57Z</time>
      </trkpt>
      <trkpt lat="45.16843" lon="5.94674">
        <ele>2384.9</ele>
        <time>2021-02-20T09:30:58Z</time>
      </trkpt>
      <trkpt lat="45.16843" lon="5.94673">
        <ele>2384.1</ele>
        <time>2021-02-20T09:30:59Z</time>
      </trkpt>
      <trkpt lat="45.16843" lon="5.94672">
        <ele>2384.1</ele>
        <time>2021-02-20T09:31:00Z</time>
      </trkpt>
      <trkpt lat="45.16843" lon="5.94671">
        <ele>2384.1</ele>
        <time>2021-02-20T09:31:01Z</time>
      </trkpt>
      <trkpt lat="45.16843" lon="5.9467">
        <ele>2384.1</ele>
        <time>2021-02-20T09:31:02Z</time>
      </trkpt>
      <trkpt lat="45.16843" lon="5.94669">
        <ele>2383.4</ele>
        <time>2021-02-20T09:31:03Z</time>
      </trkpt>
      <trkpt lat="45.16843" lon="5.94669">
        <ele>2383.4</ele>
        <time>2021-02-20T09:31:04Z</time>
      </trkpt>
      <trkpt lat="45.16844" lon="5.94668">
        <ele>2383.4</ele>
        <time>2021-02-20T09:31:05Z</time>
      </trkpt>
      <trkpt lat="45.16844" lon="5.94667">
        <ele>2383.4</ele>
        <time>2021-02-20T09:31:06Z</time>
      </trkpt>
      <trkpt lat="45.16844" lon="5.94666">
        <ele>2383.4</ele>
        <time>2021-02-20T09:31:07Z</time>
      </trkpt>
      <trkpt lat="45.16844" lon="5.94665">
        <ele>2383.4</ele>
        <time>2021-02-20T09:31:08Z</time>
      </trkpt>
      <trkpt lat="45.16844" lon="5.94665">
        <ele>2382.6</ele>
        <time>2021-02-20T09:31:09Z</time>
      </trkpt>
      <trkpt lat="45.16844" lon="5.94664">
        <ele>2382.6</ele>
        <time>2021-02-20T09:31:10Z</time>
      </trkpt>
      <trkpt lat="45.16844" lon="5.94663">
        <ele>2382.6</ele>
        <time>2021-02-20T09:31:11Z</time>
      </trkpt>
      <trkpt lat="45.16844" lon="5.94662">
        <ele>2382.6</ele>
        <time>2021-02-20T09:31:12Z</time>
      </trkpt>
      <trkpt lat="45.16844" lon="5.94661">
        <ele>2382.6</ele>
        <time>2021-02-20T09:31:13Z</time>
      </trkpt>
      <trkpt lat="45.16844" lon="5.9466">
        <ele>2381.9</ele>
        <time>2021-02-20T09:31:14Z</time>
      </trkpt>
      <trkpt lat="45.16844" lon="5.94659">
        <ele>2381.9</ele>
        <time>2021-02-20T09:31:15Z</time>
      </trkpt>
      <trkpt lat="45.16844" lon="5.9466">
        <ele>2381.9</ele>
        <time>2021-02-20T09:31:16Z</time>
      </trkpt>
      <trkpt lat="45.16844" lon="5.94661">
        <ele>2381.9</ele>
        <time>2021-02-20T09:31:17Z</time>
      </trkpt>
      <trkpt lat="45.16844" lon="5.94662">
        <ele>2382.6</ele>
        <time>2021-02-20T09:31:18Z</time>
      </trkpt>
      <trkpt lat="45.16845" lon="5.94663">
        <ele>2382.6</ele>
        <time>2021-02-20T09:31:19Z</time>
      </trkpt>
      <trkpt lat="45.16845" lon="5.94664">
        <ele>2382.6</ele>
        <time>2021-02-20T09:31:20Z</time>
      </trkpt>
      <trkpt lat="45.16846" lon="5.94666">
        <ele>2385.1</ele>
        <time>2021-02-20T09:31:21Z</time>
      </trkpt>
      <trkpt lat="45.16846" lon="5.94667">
        <ele>2385.1</ele>
        <time>2021-02-20T09:31:22Z</time>
      </trkpt>
      <trkpt lat="45.16846" lon="5.94668">
        <ele>2385.1</ele>
        <time>2021-02-20T09:31:36Z</time>
      </trkpt>
      <trkpt lat="45.16847" lon="5.94669">
        <ele>2385.1</ele>
        <time>2021-02-20T09:31:37Z</time>
      </trkpt>
      <trkpt lat="45.16847" lon="5.9467">
        <ele>2385.8</ele>
        <time>2021-02-20T09:31:38Z</time>
      </trkpt>
      <trkpt lat="45.16848" lon="5.94672">
        <ele>2385.8</ele>
        <time>2021-02-20T09:31:39Z</time>
      </trkpt>
      <trkpt lat="45.16848" lon="5.94673">
        <ele>2385.8</ele>
        <time>2021-02-20T09:31:40Z</time>
      </trkpt>
      <trkpt lat="45.16848" lon="5.94674">
        <ele>2386.6</ele>
        <time>2021-02-20T09:31:41Z</time>
      </trkpt>
      <trkpt lat="45.16848" lon="5.94675">
        <ele>2386.6</ele>
        <time>2021-02-20T09:31:42Z</time>
      </trkpt>
      <trkpt lat="45.16848" lon="5.94676">
        <ele>2388.3</ele>
        <time>2021-02-20T09:31:43Z</time>
      </trkpt>
      <trkpt lat="45.16849" lon="5.94677">
        <ele>2388.3</ele>
        <time>2021-02-20T09:31:44Z</time>
      </trkpt>
      <trkpt lat="45.1685" lon="5.94677">
        <ele>2388.3</ele>
        <time>2021-02-20T09:31:45Z</time>
      </trkpt>
      <trkpt lat="45.1685" lon="5.94678">
        <ele>2389</ele>
        <time>2021-02-20T09:31:46Z</time>
      </trkpt>
      <trkpt lat="45.1685" lon="5.94679">
        <ele>2389</ele>
        <time>2021-02-20T09:31:47Z</time>
      </trkpt>
      <trkpt lat="45.1685" lon="5.9468">
        <ele>2389</ele>
        <time>2021-02-20T09:31:48Z</time>
      </trkpt>
      <trkpt lat="45.16851" lon="5.94681">
        <ele>2389</ele>
        <time>2021-02-20T09:31:49Z</time>
      </trkpt>
      <trkpt lat="45.16851" lon="5.94682">
        <ele>2389</ele>
        <time>2021-02-20T09:31:50Z</time>
      </trkpt>
      <trkpt lat="45.1685" lon="5.94683">
        <ele>2389.7</ele>
        <time>2021-02-20T09:31:51Z</time>
      </trkpt>
      <trkpt lat="45.1685" lon="5.94684">
        <ele>2389.7</ele>
        <time>2021-02-20T09:31:52Z</time>
      </trkpt>
      <trkpt lat="45.1685" lon="5.94685">
        <ele>2389.7</ele>
        <time>2021-02-20T09:31:53Z</time>
      </trkpt>
      <trkpt lat="45.1685" lon="5.94686">
        <ele>2389.7</ele>
        <time>2021-02-20T09:31:54Z</time>
      </trkpt>
      <trkpt lat="45.16851" lon="5.94687">
        <ele>2390.4</ele>
        <time>2021-02-20T09:31:55Z</time>
      </trkpt>
      <trkpt lat="45.16851" lon="5.94688">
        <ele>2390.4</ele>
        <time>2021-02-20T09:31:56Z</time>
      </trkpt>
      <trkpt lat="45.16851" lon="5.94689">
        <ele>2390.4</ele>
        <time>2021-02-20T09:31:57Z</time>
      </trkpt>
      <trkpt lat="45.16851" lon="5.9469">
        <ele>2390.4</ele>
        <time>2021-02-20T09:31:58Z</time>
      </trkpt>
      <trkpt lat="45.16851" lon="5.9469">
        <ele>2390.4</ele>
        <time>2021-02-20T09:31:59Z</time>
      </trkpt>
      <trkpt lat="45.16851" lon="5.94691">
        <ele>2391</ele>
        <time>2021-02-20T09:32:00Z</time>
      </trkpt>
      <trkpt lat="45.16851" lon="5.94692">
        <ele>2391</ele>
        <time>2021-02-20T09:32:01Z</time>
      </trkpt>
      <trkpt lat="45.16851" lon="5.94693">
        <ele>2391</ele>
        <time>2021-02-20T09:32:02Z</time>
      </trkpt>
      <trkpt lat="45.16851" lon="5.94693">
        <ele>2391</ele>
        <time>2021-02-20T09:32:03Z</time>
      </trkpt>
      <trkpt lat="45.16851" lon="5.94694">
        <ele>2391</ele>
        <time>2021-02-20T09:32:04Z</time>
      </trkpt>
      <trkpt lat="45.16852" lon="5.94695">
        <ele>2392.9</ele>
        <time>2021-02-20T09:32:05Z</time>
      </trkpt>
      <trkpt lat="45.16852" lon="5.94696">
        <ele>2393.6</ele>
        <time>2021-02-20T09:32:06Z</time>
      </trkpt>
      <trkpt lat="45.16852" lon="5.94696">
        <ele>2393.6</ele>
        <time>2021-02-20T09:32:07Z</time>
      </trkpt>
      <trkpt lat="45.16852" lon="5.94696">
        <ele>2393.6</ele>
        <time>2021-02-20T09:32:08Z</time>
      </trkpt>
      <trkpt lat="45.16853" lon="5.94697">
        <ele>2393.6</ele>
        <time>2021-02-20T09:32:09Z</time>
      </trkpt>
      <trkpt lat="45.16853" lon="5.94698">
        <ele>2393.6</ele>
        <time>2021-02-20T09:32:10Z</time>
      </trkpt>
      <trkpt lat="45.16854" lon="5.94699">
        <ele>2393.6</ele>
        <time>2021-02-20T09:32:11Z</time>
      </trkpt>
      <trkpt lat="45.16854" lon="5.94699">
        <ele>2393.6</ele>
        <time>2021-02-20T09:32:12Z</time>
      </trkpt>
      <trkpt lat="45.16854" lon="5.947">
        <ele>2394.3</ele>
        <time>2021-02-20T09:32:13Z</time>
      </trkpt>
      <trkpt lat="45.16854" lon="5.94701">
        <ele>2394.3</ele>
        <time>2021-02-20T09:32:14Z</time>
      </trkpt>
      <trkpt lat="45.16855" lon="5.94702">
        <ele>2396.4</ele>
        <time>2021-02-20T09:32:15Z</time>
      </trkpt>
      <trkpt lat="45.16855" lon="5.94702">
        <ele>2396.4</ele>
        <time>2021-02-20T09:32:16Z</time>
      </trkpt>
      <trkpt lat="45.16855" lon="5.94703">
        <ele>2396.4</ele>
        <time>2021-02-20T09:32:17Z</time>
      </trkpt>
      <trkpt lat="45.16855" lon="5.94704">
        <ele>2397.1</ele>
        <time>2021-02-20T09:32:18Z</time>
      </trkpt>
      <trkpt lat="45.16856" lon="5.94705">
        <ele>2397.1</ele>
        <time>2021-02-20T09:32:19Z</time>
      </trkpt>
      <trkpt lat="45.16856" lon="5.94706">
        <ele>2397.1</ele>
        <time>2021-02-20T09:32:20Z</time>
      </trkpt>
      <trkpt lat="45.16856" lon="5.94707">
        <ele>2397.1</ele>
        <time>2021-02-20T09:32:21Z</time>
      </trkpt>
      <trkpt lat="45.16856" lon="5.94708">
        <ele>2397.1</ele>
        <time>2021-02-20T09:32:22Z</time>
      </trkpt>
      <trkpt lat="45.16857" lon="5.94708">
        <ele>2397.8</ele>
        <time>2021-02-20T09:32:23Z</time>
      </trkpt>
      <trkpt lat="45.16857" lon="5.94709">
        <ele>2397.8</ele>
        <time>2021-02-20T09:32:24Z</time>
      </trkpt>
      <trkpt lat="45.16857" lon="5.9471">
        <ele>2397.8</ele>
        <time>2021-02-20T09:32:25Z</time>
      </trkpt>
      <trkpt lat="45.16857" lon="5.94711">
        <ele>2397.8</ele>
        <time>2021-02-20T09:32:26Z</time>
      </trkpt>
      <trkpt lat="45.16857" lon="5.94712">
        <ele>2397.8</ele>
        <time>2021-02-20T09:32:27Z</time>
      </trkpt>
      <trkpt lat="45.16857" lon="5.94712">
        <ele>2398.5</ele>
        <time>2021-02-20T09:32:28Z</time>
      </trkpt>
      <trkpt lat="45.16858" lon="5.94713">
        <ele>2400.9</ele>
        <time>2021-02-20T09:32:29Z</time>
      </trkpt>
      <trkpt lat="45.16858" lon="5.94714">
        <ele>2400.9</ele>
        <time>2021-02-20T09:32:30Z</time>
      </trkpt>
      <trkpt lat="45.16858" lon="5.94715">
        <ele>2400.9</ele>
        <time>2021-02-20T09:32:31Z</time>
      </trkpt>
      <trkpt lat="45.16858" lon="5.94716">
        <ele>2400.9</ele>
        <time>2021-02-20T09:32:32Z</time>
      </trkpt>
      <trkpt lat="45.16858" lon="5.94717">
        <ele>2400.9</ele>
        <time>2021-02-20T09:32:33Z</time>
      </trkpt>
      <trkpt lat="45.16858" lon="5.94717">
        <ele>2401.6</ele>
        <time>2021-02-20T09:32:34Z</time>
      </trkpt>
      <trkpt lat="45.16858" lon="5.94718">
        <ele>2401.6</ele>
        <time>2021-02-20T09:32:35Z</time>
      </trkpt>
      <trkpt lat="45.16858" lon="5.94719">
        <ele>2401.6</ele>
        <time>2021-02-20T09:32:36Z</time>
      </trkpt>
      <trkpt lat="45.16858" lon="5.9472">
        <ele>2401.6</ele>
        <time>2021-02-20T09:32:37Z</time>
      </trkpt>
      <trkpt lat="45.16858" lon="5.9472">
        <ele>2401.6</ele>
        <time>2021-02-20T09:32:38Z</time>
      </trkpt>
      <trkpt lat="45.16858" lon="5.94721">
        <ele>2401.6</ele>
        <time>2021-02-20T09:32:39Z</time>
      </trkpt>
      <trkpt lat="45.16858" lon="5.94721">
        <ele>2402.2</ele>
        <time>2021-02-20T09:32:40Z</time>
      </trkpt>
      <trkpt lat="45.16858" lon="5.94722">
        <ele>2402.2</ele>
        <time>2021-02-20T09:32:41Z</time>
      </trkpt>
      <trkpt lat="45.16858" lon="5.94723">
        <ele>2402.2</ele>
        <time>2021-02-20T09:32:42Z</time>
      </trkpt>
      <trkpt lat="45.16858" lon="5.94724">
        <ele>2402.2</ele>
        <time>2021-02-20T09:32:43Z</time>
      </trkpt>
      <trkpt lat="45.16858" lon="5.94725">
        <ele>2402.2</ele>
        <time>2021-02-20T09:32:44Z</time>
      </trkpt>
      <trkpt lat="45.16858" lon="5.94725">
        <ele>2402.8</ele>
        <time>2021-02-20T09:32:45Z</time>
      </trkpt>
      <trkpt lat="45.16858" lon="5.94726">
        <ele>2402.8</ele>
        <time>2021-02-20T09:32:46Z</time>
      </trkpt>
      <trkpt lat="45.16859" lon="5.94727">
        <ele>2402.8</ele>
        <time>2021-02-20T09:32:47Z</time>
      </trkpt>
      <trkpt lat="45.16859" lon="5.94728">
        <ele>2402.8</ele>
        <time>2021-02-20T09:32:48Z</time>
      </trkpt>
      <trkpt lat="45.16859" lon="5.94729">
        <ele>2402.8</ele>
        <time>2021-02-20T09:32:49Z</time>
      </trkpt>
      <trkpt lat="45.16859" lon="5.9473">
        <ele>2403.4</ele>
        <time>2021-02-20T09:32:50Z</time>
      </trkpt>
      <trkpt lat="45.16859" lon="5.9473">
        <ele>2403.4</ele>
        <time>2021-02-20T09:32:51Z</time>
      </trkpt>
      <trkpt lat="45.16859" lon="5.94731">
        <ele>2403.4</ele>
        <time>2021-02-20T09:32:52Z</time>
      </trkpt>
      <trkpt lat="45.16859" lon="5.94731">
        <ele>2403.4</ele>
        <time>2021-02-20T09:32:53Z</time>
      </trkpt>
      <trkpt lat="45.16859" lon="5.9473">
        <ele>2403.4</ele>
        <time>2021-02-20T09:32:54Z</time>
      </trkpt>
      <trkpt lat="45.1686" lon="5.94729">
        <ele>2402.8</ele>
        <time>2021-02-20T09:32:55Z</time>
      </trkpt>
      <trkpt lat="45.1686" lon="5.94728">
        <ele>2402.8</ele>
        <time>2021-02-20T09:32:56Z</time>
      </trkpt>
      <trkpt lat="45.1686" lon="5.94728">
        <ele>2402.8</ele>
        <time>2021-02-20T09:32:57Z</time>
      </trkpt>
      <trkpt lat="45.16861" lon="5.94727">
        <ele>2405.3</ele>
        <time>2021-02-20T09:32:58Z</time>
      </trkpt>
      <trkpt lat="45.16861" lon="5.94726">
        <ele>2405.3</ele>
        <time>2021-02-20T09:32:59Z</time>
      </trkpt>
      <trkpt lat="45.16861" lon="5.94725">
        <ele>2404.7</ele>
        <time>2021-02-20T09:33:16Z</time>
      </trkpt>
      <trkpt lat="45.16862" lon="5.94724">
        <ele>2404.7</ele>
        <time>2021-02-20T09:33:17Z</time>
      </trkpt>
      <trkpt lat="45.16862" lon="5.94723">
        <ele>2404.7</ele>
        <time>2021-02-20T09:33:18Z</time>
      </trkpt>
      <trkpt lat="45.16863" lon="5.94722">
        <ele>2404.7</ele>
        <time>2021-02-20T09:33:19Z</time>
      </trkpt>
      <trkpt lat="45.16863" lon="5.94722">
        <ele>2404.7</ele>
        <time>2021-02-20T09:33:20Z</time>
      </trkpt>
      <trkpt lat="45.16863" lon="5.94722">
        <ele>2404.7</ele>
        <time>2021-02-20T09:33:21Z</time>
      </trkpt>
      <trkpt lat="45.16863" lon="5.94721">
        <ele>2404.7</ele>
        <time>2021-02-20T09:33:22Z</time>
      </trkpt>
      <trkpt lat="45.16863" lon="5.94721">
        <ele>2404</ele>
        <time>2021-02-20T09:33:23Z</time>
      </trkpt>
      <trkpt lat="45.16864" lon="5.9472">
        <ele>2406.5</ele>
        <time>2021-02-20T09:33:24Z</time>
      </trkpt>
      <trkpt lat="45.16864" lon="5.9472">
        <ele>2406.5</ele>
        <time>2021-02-20T09:33:25Z</time>
      </trkpt>
      <trkpt lat="45.16864" lon="5.94719">
        <ele>2406.5</ele>
        <time>2021-02-20T09:33:26Z</time>
      </trkpt>
      <trkpt lat="45.16864" lon="5.94718">
        <ele>2406.5</ele>
        <time>2021-02-20T09:33:27Z</time>
      </trkpt>
      <trkpt lat="45.16865" lon="5.94717">
        <ele>2406.5</ele>
        <time>2021-02-20T09:33:28Z</time>
      </trkpt>
      <trkpt lat="45.16865" lon="5.94717">
        <ele>2405.8</ele>
        <time>2021-02-20T09:33:29Z</time>
      </trkpt>
      <trkpt lat="45.16865" lon="5.94716">
        <ele>2405.8</ele>
        <time>2021-02-20T09:33:30Z</time>
      </trkpt>
      <trkpt lat="45.16865" lon="5.94714">
        <ele>2405.8</ele>
        <time>2021-02-20T09:33:31Z</time>
      </trkpt>
      <trkpt lat="45.16865" lon="5.94712">
        <ele>2405.1</ele>
        <time>2021-02-20T09:33:32Z</time>
      </trkpt>
      <trkpt lat="45.16866" lon="5.94711">
        <ele>2405.1</ele>
        <time>2021-02-20T09:33:33Z</time>
      </trkpt>
      <trkpt lat="45.16865" lon="5.94709">
        <ele>2405.1</ele>
        <time>2021-02-20T09:33:34Z</time>
      </trkpt>
      <trkpt lat="45.16865" lon="5.94709">
        <ele>2405.1</ele>
        <time>2021-02-20T09:33:35Z</time>
      </trkpt>
      <trkpt lat="45.16865" lon="5.94709">
        <ele>2405.1</ele>
        <time>2021-02-20T09:33:36Z</time>
      </trkpt>
      <trkpt lat="45.16865" lon="5.94709">
        <ele>2405.1</ele>
        <time>2021-02-20T09:33:37Z</time>
      </trkpt>
      <trkpt lat="45.16865" lon="5.94709">
        <ele>2405.1</ele>
        <time>2021-02-20T09:33:38Z</time>
      </trkpt>
      <trkpt lat="45.16865" lon="5.94709">
        <ele>2405.1</ele>
        <time>2021-02-20T09:33:39Z</time>
      </trkpt>
      <trkpt lat="45.16866" lon="5.94714">
        <ele>2405.8</ele>
        <time>2021-02-20T09:33:40Z</time>
      </trkpt>
      <trkpt lat="45.16866" lon="5.94716">
        <ele>2405.8</ele>
        <time>2021-02-20T09:33:41Z</time>
      </trkpt>
      <trkpt lat="45.16866" lon="5.94717">
        <ele>2406.5</ele>
        <time>2021-02-20T09:33:42Z</time>
      </trkpt>
      <trkpt lat="45.16866" lon="5.94718">
        <ele>2406.5</ele>
        <time>2021-02-20T09:33:43Z</time>
      </trkpt>
      <trkpt lat="45.16866" lon="5.94719">
        <ele>2406.5</ele>
        <time>2021-02-20T09:33:44Z</time>
      </trkpt>
      <trkpt lat="45.16866" lon="5.9472">
        <ele>2406.5</ele>
        <time>2021-02-20T09:33:45Z</time>
      </trkpt>
      <trkpt lat="45.16866" lon="5.94722">
        <ele>2407.1</ele>
        <time>2021-02-20T09:33:46Z</time>
      </trkpt>
      <trkpt lat="45.16866" lon="5.94723">
        <ele>2407.1</ele>
        <time>2021-02-20T09:33:47Z</time>
      </trkpt>
      <trkpt lat="45.16867" lon="5.94724">
        <ele>2407.1</ele>
        <time>2021-02-20T09:33:48Z</time>
      </trkpt>
      <trkpt lat="45.16867" lon="5.94725">
        <ele>2409.4</ele>
        <time>2021-02-20T09:33:49Z</time>
      </trkpt>
      <trkpt lat="45.16867" lon="5.94726">
        <ele>2410</ele>
        <time>2021-02-20T09:33:50Z</time>
      </trkpt>
      <trkpt lat="45.16868" lon="5.94726">
        <ele>2410</ele>
        <time>2021-02-20T09:33:51Z</time>
      </trkpt>
      <trkpt lat="45.16868" lon="5.94727">
        <ele>2410</ele>
        <time>2021-02-20T09:33:52Z</time>
      </trkpt>
      <trkpt lat="45.16868" lon="5.94728">
        <ele>2410</ele>
        <time>2021-02-20T09:33:53Z</time>
      </trkpt>
      <trkpt lat="45.16868" lon="5.94728">
        <ele>2410</ele>
        <time>2021-02-20T09:33:54Z</time>
      </trkpt>
      <trkpt lat="45.16868" lon="5.94729">
        <ele>2410</ele>
        <time>2021-02-20T09:33:55Z</time>
      </trkpt>
      <trkpt lat="45.16868" lon="5.9473">
        <ele>2410.5</ele>
        <time>2021-02-20T09:33:56Z</time>
      </trkpt>
      <trkpt lat="45.16868" lon="5.94731">
        <ele>2410.5</ele>
        <time>2021-02-20T09:33:57Z</time>
      </trkpt>
      <trkpt lat="45.16868" lon="5.94731">
        <ele>2410.5</ele>
        <time>2021-02-20T09:33:58Z</time>
      </trkpt>
      <trkpt lat="45.16868" lon="5.94732">
        <ele>2410.5</ele>
        <time>2021-02-20T09:33:59Z</time>
      </trkpt>
      <trkpt lat="45.16868" lon="5.94733">
        <ele>2410.5</ele>
        <time>2021-02-20T09:34:00Z</time>
      </trkpt>
      <trkpt lat="45.16868" lon="5.94735">
        <ele>2411</ele>
        <time>2021-02-20T09:34:01Z</time>
      </trkpt>
      <trkpt lat="45.16868" lon="5.94735">
        <ele>2411</ele>
        <time>2021-02-20T09:34:02Z</time>
      </trkpt>
      <trkpt lat="45.16868" lon="5.94736">
        <ele>2411</ele>
        <time>2021-02-20T09:34:03Z</time>
      </trkpt>
      <trkpt lat="45.16867" lon="5.94736">
        <ele>2411</ele>
        <time>2021-02-20T09:34:04Z</time>
      </trkpt>
      <trkpt lat="45.16867" lon="5.94737">
        <ele>2411</ele>
        <time>2021-02-20T09:34:05Z</time>
      </trkpt>
      <trkpt lat="45.16867" lon="5.94738">
        <ele>2411</ele>
        <time>2021-02-20T09:34:06Z</time>
      </trkpt>
      <trkpt lat="45.16867" lon="5.94738">
        <ele>2411</ele>
        <time>2021-02-20T09:34:07Z</time>
      </trkpt>
      <trkpt lat="45.16867" lon="5.94739">
        <ele>2411.5</ele>
        <time>2021-02-20T09:34:08Z</time>
      </trkpt>
      <trkpt lat="45.16867" lon="5.94739">
        <ele>2411.5</ele>
        <time>2021-02-20T09:34:09Z</time>
      </trkpt>
      <trkpt lat="45.16867" lon="5.94738">
        <ele>2411.5</ele>
        <time>2021-02-20T09:34:10Z</time>
      </trkpt>
      <trkpt lat="45.16868" lon="5.94738">
        <ele>2411</ele>
        <time>2021-02-20T09:34:11Z</time>
      </trkpt>
      <trkpt lat="45.16868" lon="5.94738">
        <ele>2411</ele>
        <time>2021-02-20T09:34:12Z</time>
      </trkpt>
      <trkpt lat="45.16868" lon="5.94737">
        <ele>2411</ele>
        <time>2021-02-20T09:34:13Z</time>
      </trkpt>
      <trkpt lat="45.16868" lon="5.94737">
        <ele>2411</ele>
        <time>2021-02-20T09:34:14Z</time>
      </trkpt>
      <trkpt lat="45.16869" lon="5.94737">
        <ele>2411</ele>
        <time>2021-02-20T09:34:15Z</time>
      </trkpt>
      <trkpt lat="45.16869" lon="5.94737">
        <ele>2411</ele>
        <time>2021-02-20T09:34:16Z</time>
      </trkpt>
      <trkpt lat="45.16869" lon="5.94736">
        <ele>2411</ele>
        <time>2021-02-20T09:34:17Z</time>
      </trkpt>
      <trkpt lat="45.16869" lon="5.94736">
        <ele>2411</ele>
        <time>2021-02-20T09:34:18Z</time>
      </trkpt>
      <trkpt lat="45.1687" lon="5.94736">
        <ele>2413.1</ele>
        <time>2021-02-20T09:34:19Z</time>
      </trkpt>
      <trkpt lat="45.1687" lon="5.94736">
        <ele>2413.1</ele>
        <time>2021-02-20T09:34:20Z</time>
      </trkpt>
      <trkpt lat="45.1687" lon="5.94735">
        <ele>2413.1</ele>
        <time>2021-02-20T09:34:25Z</time>
      </trkpt>
      <trkpt lat="45.16871" lon="5.94735">
        <ele>2413.1</ele>
        <time>2021-02-20T09:34:26Z</time>
      </trkpt>
      <trkpt lat="45.16871" lon="5.94735">
        <ele>2413.1</ele>
        <time>2021-02-20T09:34:27Z</time>
      </trkpt>
      <trkpt lat="45.16871" lon="5.94734">
        <ele>2413.1</ele>
        <time>2021-02-20T09:34:28Z</time>
      </trkpt>
      <trkpt lat="45.16871" lon="5.94734">
        <ele>2413.1</ele>
        <time>2021-02-20T09:34:29Z</time>
      </trkpt>
      <trkpt lat="45.16871" lon="5.94734">
        <ele>2412.6</ele>
        <time>2021-02-20T09:34:30Z</time>
      </trkpt>
      <trkpt lat="45.16872" lon="5.94733">
        <ele>2412.6</ele>
        <time>2021-02-20T09:34:31Z</time>
      </trkpt>
      <trkpt lat="45.16872" lon="5.94732">
        <ele>2412.6</ele>
        <time>2021-02-20T09:34:32Z</time>
      </trkpt>
      <trkpt lat="45.16872" lon="5.94731">
        <ele>2412.6</ele>
        <time>2021-02-20T09:34:33Z</time>
      </trkpt>
      <trkpt lat="45.16872" lon="5.9473">
        <ele>2412.6</ele>
        <time>2021-02-20T09:34:34Z</time>
      </trkpt>
      <trkpt lat="45.16872" lon="5.94729">
        <ele>2412.1</ele>
        <time>2021-02-20T09:34:35Z</time>
      </trkpt>
      <trkpt lat="45.16873" lon="5.94728">
        <ele>2414.1</ele>
        <time>2021-02-20T09:34:36Z</time>
      </trkpt>
      <trkpt lat="45.16873" lon="5.94727">
        <ele>2414.1</ele>
        <time>2021-02-20T09:34:37Z</time>
      </trkpt>
      <trkpt lat="45.16873" lon="5.94727">
        <ele>2414.1</ele>
        <time>2021-02-20T09:34:38Z</time>
      </trkpt>
      <trkpt lat="45.16874" lon="5.94726">
        <ele>2414.1</ele>
        <time>2021-02-20T09:34:39Z</time>
      </trkpt>
      <trkpt lat="45.16874" lon="5.94726">
        <ele>2414.1</ele>
        <time>2021-02-20T09:34:40Z</time>
      </trkpt>
      <trkpt lat="45.16874" lon="5.94727">
        <ele>2414.1</ele>
        <time>2021-02-20T09:34:41Z</time>
      </trkpt>
      <trkpt lat="45.16874" lon="5.94727">
        <ele>2414.1</ele>
        <time>2021-02-20T09:34:42Z</time>
      </trkpt>
      <trkpt lat="45.16874" lon="5.94728">
        <ele>2414.1</ele>
        <time>2021-02-20T09:34:43Z</time>
      </trkpt>
      <trkpt lat="45.16874" lon="5.94729">
        <ele>2414.1</ele>
        <time>2021-02-20T09:34:44Z</time>
      </trkpt>
      <trkpt lat="45.16874" lon="5.94729">
        <ele>2414.1</ele>
        <time>2021-02-20T09:34:45Z</time>
      </trkpt>
      <trkpt lat="45.16874" lon="5.9473">
        <ele>2414.6</ele>
        <time>2021-02-20T09:34:46Z</time>
      </trkpt>
      <trkpt lat="45.16874" lon="5.9473">
        <ele>2414.6</ele>
        <time>2021-02-20T09:34:47Z</time>
      </trkpt>
      <trkpt lat="45.16874" lon="5.94731">
        <ele>2414.6</ele>
        <time>2021-02-20T09:34:48Z</time>
      </trkpt>
      <trkpt lat="45.16874" lon="5.94731">
        <ele>2414.6</ele>
        <time>2021-02-20T09:34:49Z</time>
      </trkpt>
      <trkpt lat="45.16875" lon="5.94732">
        <ele>2414.6</ele>
        <time>2021-02-20T09:34:50Z</time>
      </trkpt>
      <trkpt lat="45.16875" lon="5.94733">
        <ele>2414.6</ele>
        <time>2021-02-20T09:34:51Z</time>
      </trkpt>
      <trkpt lat="45.16875" lon="5.94733">
        <ele>2414.6</ele>
        <time>2021-02-20T09:34:55Z</time>
      </trkpt>
      <trkpt lat="45.16875" lon="5.94734">
        <ele>2414.6</ele>
        <time>2021-02-20T09:34:56Z</time>
      </trkpt>
      <trkpt lat="45.16875" lon="5.94734">
        <ele>2415.1</ele>
        <time>2021-02-20T09:34:57Z</time>
      </trkpt>
      <trkpt lat="45.16875" lon="5.94735">
        <ele>2415.1</ele>
        <time>2021-02-20T09:34:58Z</time>
      </trkpt>
      <trkpt lat="45.16875" lon="5.94736">
        <ele>2415.1</ele>
        <time>2021-02-20T09:34:59Z</time>
      </trkpt>
      <trkpt lat="45.16875" lon="5.94738">
        <ele>2415.1</ele>
        <time>2021-02-20T09:35:00Z</time>
      </trkpt>
      <trkpt lat="45.16875" lon="5.94739">
        <ele>2415.5</ele>
        <time>2021-02-20T09:35:01Z</time>
      </trkpt>
      <trkpt lat="45.16875" lon="5.9474">
        <ele>2415.5</ele>
        <time>2021-02-20T09:35:02Z</time>
      </trkpt>
      <trkpt lat="45.16875" lon="5.94741">
        <ele>2415.5</ele>
        <time>2021-02-20T09:35:03Z</time>
      </trkpt>
      <trkpt lat="45.16876" lon="5.94742">
        <ele>2417.5</ele>
        <time>2021-02-20T09:35:04Z</time>
      </trkpt>
      <trkpt lat="45.16876" lon="5.94743">
        <ele>2417.8</ele>
        <time>2021-02-20T09:35:05Z</time>
      </trkpt>
      <trkpt lat="45.16876" lon="5.94744">
        <ele>2417.8</ele>
        <time>2021-02-20T09:35:06Z</time>
      </trkpt>
      <trkpt lat="45.16876" lon="5.94745">
        <ele>2417.8</ele>
        <time>2021-02-20T09:35:07Z</time>
      </trkpt>
      <trkpt lat="45.16876" lon="5.94746">
        <ele>2417.8</ele>
        <time>2021-02-20T09:35:08Z</time>
      </trkpt>
      <trkpt lat="45.16876" lon="5.94746">
        <ele>2417.8</ele>
        <time>2021-02-20T09:35:09Z</time>
      </trkpt>
      <trkpt lat="45.16876" lon="5.94747">
        <ele>2418.1</ele>
        <time>2021-02-20T09:35:10Z</time>
      </trkpt>
      <trkpt lat="45.16876" lon="5.94748">
        <ele>2418.1</ele>
        <time>2021-02-20T09:35:11Z</time>
      </trkpt>
      <trkpt lat="45.16876" lon="5.94749">
        <ele>2418.1</ele>
        <time>2021-02-20T09:35:12Z</time>
      </trkpt>
      <trkpt lat="45.16876" lon="5.9475">
        <ele>2418.1</ele>
        <time>2021-02-20T09:35:13Z</time>
      </trkpt>
      <trkpt lat="45.16876" lon="5.94751">
        <ele>2418.1</ele>
        <time>2021-02-20T09:35:14Z</time>
      </trkpt>
      <trkpt lat="45.16876" lon="5.94751">
        <ele>2418.4</ele>
        <time>2021-02-20T09:35:15Z</time>
      </trkpt>
      <trkpt lat="45.16877" lon="5.94752">
        <ele>2418.4</ele>
        <time>2021-02-20T09:35:16Z</time>
      </trkpt>
      <trkpt lat="45.16878" lon="5.94751">
        <ele>2418.4</ele>
        <time>2021-02-20T09:35:17Z</time>
      </trkpt>
      <trkpt lat="45.16879" lon="5.94751">
        <ele>2418.4</ele>
        <time>2021-02-20T09:35:18Z</time>
      </trkpt>
      <trkpt lat="45.16879" lon="5.94751">
        <ele>2420.1</ele>
        <time>2021-02-20T09:35:19Z</time>
      </trkpt>
      <trkpt lat="45.1688" lon="5.9475">
        <ele>2420.1</ele>
        <time>2021-02-20T09:35:20Z</time>
      </trkpt>
      <trkpt lat="45.16881" lon="5.9475">
        <ele>2420.1</ele>
        <time>2021-02-20T09:35:21Z</time>
      </trkpt>
      <trkpt lat="45.16882" lon="5.94749">
        <ele>2420.1</ele>
        <time>2021-02-20T09:35:22Z</time>
      </trkpt>
      <trkpt lat="45.16882" lon="5.94749">
        <ele>2422.3</ele>
        <time>2021-02-20T09:35:23Z</time>
      </trkpt>
      <trkpt lat="45.16883" lon="5.94749">
        <ele>2422.3</ele>
        <time>2021-02-20T09:35:24Z</time>
      </trkpt>
      <trkpt lat="45.16884" lon="5.94748">
        <ele>2422.3</ele>
        <time>2021-02-20T09:35:25Z</time>
      </trkpt>
      <trkpt lat="45.16884" lon="5.94748">
        <ele>2422.3</ele>
        <time>2021-02-20T09:35:26Z</time>
      </trkpt>
      <trkpt lat="45.16885" lon="5.94747">
        <ele>2424.4</ele>
        <time>2021-02-20T09:35:27Z</time>
      </trkpt>
      <trkpt lat="45.16886" lon="5.94747">
        <ele>2424.4</ele>
        <time>2021-02-20T09:35:28Z</time>
      </trkpt>
      <trkpt lat="45.16887" lon="5.94747">
        <ele>2424.4</ele>
        <time>2021-02-20T09:35:29Z</time>
      </trkpt>
      <trkpt lat="45.16887" lon="5.94746">
        <ele>2424.3</ele>
        <time>2021-02-20T09:36:16Z</time>
      </trkpt>
      <trkpt lat="45.16888" lon="5.94746">
        <ele>2426.5</ele>
        <time>2021-02-20T09:36:17Z</time>
      </trkpt>
      <trkpt lat="45.16889" lon="5.94746">
        <ele>2426.5</ele>
        <time>2021-02-20T09:36:18Z</time>
      </trkpt>
      <trkpt lat="45.1689" lon="5.94745">
        <ele>2426.5</ele>
        <time>2021-02-20T09:36:19Z</time>
      </trkpt>
      <trkpt lat="45.1689" lon="5.94747">
        <ele>2426.5</ele>
        <time>2021-02-20T09:36:20Z</time>
      </trkpt>
      <trkpt lat="45.1689" lon="5.94748">
        <ele>2426.6</ele>
        <time>2021-02-20T09:36:21Z</time>
      </trkpt>
      <trkpt lat="45.1689" lon="5.94749">
        <ele>2426.6</ele>
        <time>2021-02-20T09:36:22Z</time>
      </trkpt>
      <trkpt lat="45.16891" lon="5.9475">
        <ele>2428.6</ele>
        <time>2021-02-20T09:36:23Z</time>
      </trkpt>
      <trkpt lat="45.16891" lon="5.94751">
        <ele>2428.7</ele>
        <time>2021-02-20T09:36:24Z</time>
      </trkpt>
      <trkpt lat="45.16892" lon="5.94752">
        <ele>2428.7</ele>
        <time>2021-02-20T09:36:25Z</time>
      </trkpt>
      <trkpt lat="45.16892" lon="5.94753">
        <ele>2428.7</ele>
        <time>2021-02-20T09:36:26Z</time>
      </trkpt>
      <trkpt lat="45.16892" lon="5.94754">
        <ele>2428.7</ele>
        <time>2021-02-20T09:36:27Z</time>
      </trkpt>
      <trkpt lat="45.16892" lon="5.94755">
        <ele>2428.7</ele>
        <time>2021-02-20T09:36:28Z</time>
      </trkpt>
      <trkpt lat="45.16892" lon="5.94756">
        <ele>2428.7</ele>
        <time>2021-02-20T09:36:29Z</time>
      </trkpt>
      <trkpt lat="45.16892" lon="5.94756">
        <ele>2428.7</ele>
        <time>2021-02-20T09:36:30Z</time>
      </trkpt>
      <trkpt lat="45.16892" lon="5.94757">
        <ele>2428.7</ele>
        <time>2021-02-20T09:36:31Z</time>
      </trkpt>
      <trkpt lat="45.16892" lon="5.94758">
        <ele>2428.7</ele>
        <time>2021-02-20T09:36:32Z</time>
      </trkpt>
      <trkpt lat="45.16893" lon="5.94759">
        <ele>2428.7</ele>
        <time>2021-02-20T09:36:33Z</time>
      </trkpt>
      <trkpt lat="45.16893" lon="5.94759">
        <ele>2428.7</ele>
        <time>2021-02-20T09:36:34Z</time>
      </trkpt>
      <trkpt lat="45.16893" lon="5.9476">
        <ele>2428.7</ele>
        <time>2021-02-20T09:36:35Z</time>
      </trkpt>
      <trkpt lat="45.16893" lon="5.94761">
        <ele>2428.7</ele>
        <time>2021-02-20T09:36:36Z</time>
      </trkpt>
      <trkpt lat="45.16893" lon="5.94761">
        <ele>2428.7</ele>
        <time>2021-02-20T09:36:37Z</time>
      </trkpt>
      <trkpt lat="45.16893" lon="5.94763">
        <ele>2428.7</ele>
        <time>2021-02-20T09:36:38Z</time>
      </trkpt>
      <trkpt lat="45.16893" lon="5.94764">
        <ele>2428.7</ele>
        <time>2021-02-20T09:36:39Z</time>
      </trkpt>
      <trkpt lat="45.16894" lon="5.94764">
        <ele>2430.4</ele>
        <time>2021-02-20T09:36:40Z</time>
      </trkpt>
      <trkpt lat="45.16894" lon="5.94765">
        <ele>2430.4</ele>
        <time>2021-02-20T09:36:41Z</time>
      </trkpt>
      <trkpt lat="45.16894" lon="5.94766">
        <ele>2430.4</ele>
        <time>2021-02-20T09:36:42Z</time>
      </trkpt>
      <trkpt lat="45.16894" lon="5.94767">
        <ele>2430.4</ele>
        <time>2021-02-20T09:36:43Z</time>
      </trkpt>
      <trkpt lat="45.16894" lon="5.94768">
        <ele>2430.4</ele>
        <time>2021-02-20T09:36:44Z</time>
      </trkpt>
      <trkpt lat="45.16894" lon="5.94768">
        <ele>2430.4</ele>
        <time>2021-02-20T09:36:45Z</time>
      </trkpt>
      <trkpt lat="45.16894" lon="5.94769">
        <ele>2428.6</ele>
        <time>2021-02-20T09:36:46Z</time>
      </trkpt>
      <trkpt lat="45.16894" lon="5.9477">
        <ele>2428.6</ele>
        <time>2021-02-20T09:36:47Z</time>
      </trkpt>
      <trkpt lat="45.16894" lon="5.94771">
        <ele>2428.6</ele>
        <time>2021-02-20T09:36:48Z</time>
      </trkpt>
      <trkpt lat="45.16894" lon="5.94772">
        <ele>2428.6</ele>
        <time>2021-02-20T09:36:49Z</time>
      </trkpt>
      <trkpt lat="45.16894" lon="5.94773">
        <ele>2430.3</ele>
        <time>2021-02-20T09:36:50Z</time>
      </trkpt>
      <trkpt lat="45.16894" lon="5.94774">
        <ele>2430.3</ele>
        <time>2021-02-20T09:36:51Z</time>
      </trkpt>
      <trkpt lat="45.16894" lon="5.94774">
        <ele>2430.3</ele>
        <time>2021-02-20T09:36:52Z</time>
      </trkpt>
      <trkpt lat="45.16895" lon="5.94774">
        <ele>2430.3</ele>
        <time>2021-02-20T09:36:53Z</time>
      </trkpt>
      <trkpt lat="45.16896" lon="5.94773">
        <ele>2430.3</ele>
        <time>2021-02-20T09:36:54Z</time>
      </trkpt>
      <trkpt lat="45.16896" lon="5.94773">
        <ele>2430.3</ele>
        <time>2021-02-20T09:36:55Z</time>
      </trkpt>
      <trkpt lat="45.16896" lon="5.94773">
        <ele>2430.3</ele>
        <time>2021-02-20T09:36:56Z</time>
      </trkpt>
      <trkpt lat="45.16897" lon="5.94773">
        <ele>2430.3</ele>
        <time>2021-02-20T09:36:57Z</time>
      </trkpt>
      <trkpt lat="45.16897" lon="5.94773">
        <ele>2430.3</ele>
        <time>2021-02-20T09:36:58Z</time>
      </trkpt>
      <trkpt lat="45.16897" lon="5.94772">
        <ele>2430.3</ele>
        <time>2021-02-20T09:36:59Z</time>
      </trkpt>
      <trkpt lat="45.16897" lon="5.94772">
        <ele>2432</ele>
        <time>2021-02-20T09:37:00Z</time>
      </trkpt>
      <trkpt lat="45.16898" lon="5.94771">
        <ele>2432</ele>
        <time>2021-02-20T09:37:01Z</time>
      </trkpt>
      <trkpt lat="45.16898" lon="5.94771">
        <ele>2432</ele>
        <time>2021-02-20T09:37:02Z</time>
      </trkpt>
      <trkpt lat="45.16899" lon="5.9477">
        <ele>2432</ele>
        <time>2021-02-20T09:37:03Z</time>
      </trkpt>
      <trkpt lat="45.169" lon="5.9477">
        <ele>2432</ele>
        <time>2021-02-20T09:37:04Z</time>
      </trkpt>
      <trkpt lat="45.169" lon="5.9477">
        <ele>2433.6</ele>
        <time>2021-02-20T09:37:05Z</time>
      </trkpt>
      <trkpt lat="45.169" lon="5.94771">
        <ele>2433.6</ele>
        <time>2021-02-20T09:37:06Z</time>
      </trkpt>
      <trkpt lat="45.169" lon="5.94772">
        <ele>2433.6</ele>
        <time>2021-02-20T09:37:07Z</time>
      </trkpt>
      <trkpt lat="45.169" lon="5.94772">
        <ele>2433.4</ele>
        <time>2021-02-20T09:37:08Z</time>
      </trkpt>
      <trkpt lat="45.169" lon="5.94773">
        <ele>2433.4</ele>
        <time>2021-02-20T09:37:09Z</time>
      </trkpt>
      <trkpt lat="45.169" lon="5.94774">
        <ele>2431.9</ele>
        <time>2021-02-20T09:37:10Z</time>
      </trkpt>
      <trkpt lat="45.169" lon="5.94774">
        <ele>2433.4</ele>
        <time>2021-02-20T09:37:11Z</time>
      </trkpt>
      <trkpt lat="45.169" lon="5.94772">
        <ele>2433.6</ele>
        <time>2021-02-20T09:37:12Z</time>
      </trkpt>
      <trkpt lat="45.16901" lon="5.94771">
        <ele>2433.6</ele>
        <time>2021-02-20T09:37:13Z</time>
      </trkpt>
      <trkpt lat="45.16901" lon="5.94769">
        <ele>2433.6</ele>
        <time>2021-02-20T09:37:14Z</time>
      </trkpt>
      <trkpt lat="45.16901" lon="5.94768">
        <ele>2433.7</ele>
        <time>2021-02-20T09:37:15Z</time>
      </trkpt>
      <trkpt lat="45.16902" lon="5.94766">
        <ele>2433.7</ele>
        <time>2021-02-20T09:37:16Z</time>
      </trkpt>
      <trkpt lat="45.16902" lon="5.94765">
        <ele>2433.7</ele>
        <time>2021-02-20T09:37:17Z</time>
      </trkpt>
      <trkpt lat="45.16903" lon="5.94763">
        <ele>2433.8</ele>
        <time>2021-02-20T09:37:18Z</time>
      </trkpt>
      <trkpt lat="45.16903" lon="5.94762">
        <ele>2435.4</ele>
        <time>2021-02-20T09:37:19Z</time>
      </trkpt>
      <trkpt lat="45.16903" lon="5.9476">
        <ele>2435.4</ele>
        <time>2021-02-20T09:37:20Z</time>
      </trkpt>
      <trkpt lat="45.16904" lon="5.94759">
        <ele>2435.6</ele>
        <time>2021-02-20T09:37:21Z</time>
      </trkpt>
      <trkpt lat="45.16904" lon="5.94757">
        <ele>2435.6</ele>
        <time>2021-02-20T09:39:55Z</time>
      </trkpt>
      <trkpt lat="45.16905" lon="5.94756">
        <ele>2435.6</ele>
        <time>2021-02-20T09:39:56Z</time>
      </trkpt>
      <trkpt lat="45.16905" lon="5.94754">
        <ele>2435.7</ele>
        <time>2021-02-20T09:39:57Z</time>
      </trkpt>
      <trkpt lat="45.16905" lon="5.94753">
        <ele>2435.7</ele>
        <time>2021-02-20T09:39:58Z</time>
      </trkpt>
      <trkpt lat="45.16905" lon="5.94752">
        <ele>2435.7</ele>
        <time>2021-02-20T09:39:59Z</time>
      </trkpt>
      <trkpt lat="45.16906" lon="5.94751">
        <ele>2435.7</ele>
        <time>2021-02-20T09:40:00Z</time>
      </trkpt>
      <trkpt lat="45.16906" lon="5.94751">
        <ele>2437.4</ele>
        <time>2021-02-20T09:40:01Z</time>
      </trkpt>
      <trkpt lat="45.16906" lon="5.9475">
        <ele>2437.4</ele>
        <time>2021-02-20T09:40:02Z</time>
      </trkpt>
      <trkpt lat="45.16907" lon="5.94749">
        <ele>2437.4</ele>
        <time>2021-02-20T09:40:03Z</time>
      </trkpt>
      <trkpt lat="45.16907" lon="5.94748">
        <ele>2437.4</ele>
        <time>2021-02-20T09:40:04Z</time>
      </trkpt>
      <trkpt lat="45.16907" lon="5.94747">
        <ele>2437.4</ele>
        <time>2021-02-20T09:40:05Z</time>
      </trkpt>
      <trkpt lat="45.16907" lon="5.94746">
        <ele>2437.6</ele>
        <time>2021-02-20T09:40:06Z</time>
      </trkpt>
      <trkpt lat="45.16908" lon="5.94746">
        <ele>2437.6</ele>
        <time>2021-02-20T09:40:07Z</time>
      </trkpt>
      <trkpt lat="45.16908" lon="5.94746">
        <ele>2437.6</ele>
        <time>2021-02-20T09:40:08Z</time>
      </trkpt>
      <trkpt lat="45.16908" lon="5.94745">
        <ele>2437.6</ele>
        <time>2021-02-20T09:40:09Z</time>
      </trkpt>
      <trkpt lat="45.16908" lon="5.94745">
        <ele>2437.6</ele>
        <time>2021-02-20T09:40:10Z</time>
      </trkpt>
      <trkpt lat="45.16908" lon="5.94745">
        <ele>2437.6</ele>
        <time>2021-02-20T09:40:11Z</time>
      </trkpt>
      <trkpt lat="45.16908" lon="5.94744">
        <ele>2437.6</ele>
        <time>2021-02-20T09:40:12Z</time>
      </trkpt>
      <trkpt lat="45.16908" lon="5.94744">
        <ele>2437.6</ele>
        <time>2021-02-20T09:40:13Z</time>
      </trkpt>
      <trkpt lat="45.16909" lon="5.94744">
        <ele>2439.2</ele>
        <time>2021-02-20T09:40:14Z</time>
      </trkpt>
      <trkpt lat="45.1691" lon="5.94745">
        <ele>2439.2</ele>
        <time>2021-02-20T09:40:15Z</time>
      </trkpt>
      <trkpt lat="45.16911" lon="5.94744">
        <ele>2439.2</ele>
        <time>2021-02-20T09:40:16Z</time>
      </trkpt>
      <trkpt lat="45.16911" lon="5.94744">
        <ele>2439.2</ele>
        <time>2021-02-20T09:40:17Z</time>
      </trkpt>
      <trkpt lat="45.16912" lon="5.94744">
        <ele>2440.9</ele>
        <time>2021-02-20T09:40:18Z</time>
      </trkpt>
      <trkpt lat="45.16913" lon="5.94744">
        <ele>2440.9</ele>
        <time>2021-02-20T09:40:19Z</time>
      </trkpt>
      <trkpt lat="45.16913" lon="5.94744">
        <ele>2440.9</ele>
        <time>2021-02-20T09:40:20Z</time>
      </trkpt>
      <trkpt lat="45.16914" lon="5.94745">
        <ele>2440.9</ele>
        <time>2021-02-20T09:40:21Z</time>
      </trkpt>
      <trkpt lat="45.16915" lon="5.94746">
        <ele>2442.6</ele>
        <time>2021-02-20T09:40:22Z</time>
      </trkpt>
      <trkpt lat="45.16916" lon="5.94747">
        <ele>2442.6</ele>
        <time>2021-02-20T09:40:23Z</time>
      </trkpt>
      <trkpt lat="45.16916" lon="5.94748">
        <ele>2442.4</ele>
        <time>2021-02-20T09:40:24Z</time>
      </trkpt>
      <trkpt lat="45.16916" lon="5.94748">
        <ele>2442.4</ele>
        <time>2021-02-20T09:40:25Z</time>
      </trkpt>
      <trkpt lat="45.16917" lon="5.94749">
        <ele>2442.4</ele>
        <time>2021-02-20T09:40:26Z</time>
      </trkpt>
      <trkpt lat="45.16917" lon="5.9475">
        <ele>2442.4</ele>
        <time>2021-02-20T09:40:27Z</time>
      </trkpt>
      <trkpt lat="45.16918" lon="5.94751">
        <ele>2442.4</ele>
        <time>2021-02-20T09:40:28Z</time>
      </trkpt>
      <trkpt lat="45.16918" lon="5.94752">
        <ele>2442.2</ele>
        <time>2021-02-20T09:40:29Z</time>
      </trkpt>
      <trkpt lat="45.16918" lon="5.94752">
        <ele>2443.9</ele>
        <time>2021-02-20T09:40:30Z</time>
      </trkpt>
      <trkpt lat="45.16919" lon="5.94753">
        <ele>2443.9</ele>
        <time>2021-02-20T09:40:31Z</time>
      </trkpt>
      <trkpt lat="45.16919" lon="5.94754">
        <ele>2443.9</ele>
        <time>2021-02-20T09:40:32Z</time>
      </trkpt>
      <trkpt lat="45.16919" lon="5.94754">
        <ele>2443.9</ele>
        <time>2021-02-20T09:40:33Z</time>
      </trkpt>
      <trkpt lat="45.1692" lon="5.94755">
        <ele>2443.7</ele>
        <time>2021-02-20T09:40:34Z</time>
      </trkpt>
      <trkpt lat="45.1692" lon="5.94756">
        <ele>2443.7</ele>
        <time>2021-02-20T09:40:35Z</time>
      </trkpt>
      <trkpt lat="45.16921" lon="5.94757">
        <ele>2443.7</ele>
        <time>2021-02-20T09:40:36Z</time>
      </trkpt>
      <trkpt lat="45.16921" lon="5.94757">
        <ele>2445.4</ele>
        <time>2021-02-20T09:40:37Z</time>
      </trkpt>
      <trkpt lat="45.16921" lon="5.94758">
        <ele>2445.4</ele>
        <time>2021-02-20T09:40:38Z</time>
      </trkpt>
      <trkpt lat="45.16922" lon="5.94758">
        <ele>2445.4</ele>
        <time>2021-02-20T09:40:39Z</time>
      </trkpt>
      <trkpt lat="45.16922" lon="5.94759">
        <ele>2445.4</ele>
        <time>2021-02-20T09:40:40Z</time>
      </trkpt>
      <trkpt lat="45.16923" lon="5.94759">
        <ele>2445.4</ele>
        <time>2021-02-20T09:40:41Z</time>
      </trkpt>
      <trkpt lat="45.16923" lon="5.9476">
        <ele>2445.2</ele>
        <time>2021-02-20T09:40:42Z</time>
      </trkpt>
      <trkpt lat="45.16923" lon="5.9476">
        <ele>2445.2</ele>
        <time>2021-02-20T09:40:43Z</time>
      </trkpt>
      <trkpt lat="45.16924" lon="5.94761">
        <ele>2445.2</ele>
        <time>2021-02-20T09:40:44Z</time>
      </trkpt>
      <trkpt lat="45.16924" lon="5.94762">
        <ele>2445.2</ele>
        <time>2021-02-20T09:40:45Z</time>
      </trkpt>
      <trkpt lat="45.16924" lon="5.94762">
        <ele>2446.8</ele>
        <time>2021-02-20T09:40:46Z</time>
      </trkpt>
      <trkpt lat="45.16925" lon="5.94762">
        <ele>2446.8</ele>
        <time>2021-02-20T09:40:47Z</time>
      </trkpt>
      <trkpt lat="45.16925" lon="5.94763">
        <ele>2446.8</ele>
        <time>2021-02-20T09:40:48Z</time>
      </trkpt>
      <trkpt lat="45.16925" lon="5.94763">
        <ele>2446.8</ele>
        <time>2021-02-20T09:40:49Z</time>
      </trkpt>
      <trkpt lat="45.16925" lon="5.94764">
        <ele>2446.8</ele>
        <time>2021-02-20T09:40:50Z</time>
      </trkpt>
      <trkpt lat="45.16926" lon="5.94764">
        <ele>2446.7</ele>
        <time>2021-02-20T09:40:51Z</time>
      </trkpt>
      <trkpt lat="45.16926" lon="5.94764">
        <ele>2446.7</ele>
        <time>2021-02-20T09:40:52Z</time>
      </trkpt>
      <trkpt lat="45.16926" lon="5.94765">
        <ele>2446.7</ele>
        <time>2021-02-20T09:40:53Z</time>
      </trkpt>
      <trkpt lat="45.16926" lon="5.94765">
        <ele>2446.7</ele>
        <time>2021-02-20T09:40:54Z</time>
      </trkpt>
      <trkpt lat="45.16927" lon="5.94766">
        <ele>2446.7</ele>
        <time>2021-02-20T09:40:55Z</time>
      </trkpt>
      <trkpt lat="45.16927" lon="5.94767">
        <ele>2448.2</ele>
        <time>2021-02-20T09:40:56Z</time>
      </trkpt>
      <trkpt lat="45.16927" lon="5.94767">
        <ele>2448.2</ele>
        <time>2021-02-20T09:40:57Z</time>
      </trkpt>
      <trkpt lat="45.16928" lon="5.94768">
        <ele>2448</ele>
        <time>2021-02-20T09:40:58Z</time>
      </trkpt>
      <trkpt lat="45.16928" lon="5.94769">
        <ele>2448</ele>
        <time>2021-02-20T09:40:59Z</time>
      </trkpt>
      <trkpt lat="45.16928" lon="5.9477">
        <ele>2448</ele>
        <time>2021-02-20T09:41:00Z</time>
      </trkpt>
      <trkpt lat="45.16929" lon="5.94771">
        <ele>2448</ele>
        <time>2021-02-20T09:41:01Z</time>
      </trkpt>
      <trkpt lat="45.16929" lon="5.94771">
        <ele>2448</ele>
        <time>2021-02-20T09:41:02Z</time>
      </trkpt>
      <trkpt lat="45.1693" lon="5.94772">
        <ele>2448</ele>
        <time>2021-02-20T09:41:03Z</time>
      </trkpt>
      <trkpt lat="45.1693" lon="5.94772">
        <ele>2447.9</ele>
        <time>2021-02-20T09:41:04Z</time>
      </trkpt>
      <trkpt lat="45.1693" lon="5.94773">
        <ele>2447.9</ele>
        <time>2021-02-20T09:41:05Z</time>
      </trkpt>
      <trkpt lat="45.1693" lon="5.94774">
        <ele>2447.9</ele>
        <time>2021-02-20T09:41:06Z</time>
      </trkpt>
      <trkpt lat="45.1693" lon="5.94775">
        <ele>2449.4</ele>
        <time>2021-02-20T09:41:07Z</time>
      </trkpt>
      <trkpt lat="45.1693" lon="5.94776">
        <ele>2449.4</ele>
        <time>2021-02-20T09:41:08Z</time>
      </trkpt>
      <trkpt lat="45.1693" lon="5.94777">
        <ele>2449.3</ele>
        <time>2021-02-20T09:41:09Z</time>
      </trkpt>
      <trkpt lat="45.1693" lon="5.94778">
        <ele>2449.3</ele>
        <time>2021-02-20T09:41:10Z</time>
      </trkpt>
      <trkpt lat="45.1693" lon="5.94778">
        <ele>2449.3</ele>
        <time>2021-02-20T09:41:11Z</time>
      </trkpt>
      <trkpt lat="45.1693" lon="5.94779">
        <ele>2449.3</ele>
        <time>2021-02-20T09:41:12Z</time>
      </trkpt>
      <trkpt lat="45.1693" lon="5.9478">
        <ele>2449.3</ele>
        <time>2021-02-20T09:41:13Z</time>
      </trkpt>
      <trkpt lat="45.1693" lon="5.94781">
        <ele>2449.3</ele>
        <time>2021-02-20T09:41:14Z</time>
      </trkpt>
      <trkpt lat="45.1693" lon="5.94782">
        <ele>2449.3</ele>
        <time>2021-02-20T09:41:15Z</time>
      </trkpt>
      <trkpt lat="45.1693" lon="5.94783">
        <ele>2449.3</ele>
        <time>2021-02-20T09:41:16Z</time>
      </trkpt>
      <trkpt lat="45.1693" lon="5.94783">
        <ele>2449.3</ele>
        <time>2021-02-20T09:41:17Z</time>
      </trkpt>
      <trkpt lat="45.1693" lon="5.94784">
        <ele>2449.3</ele>
        <time>2021-02-20T09:41:18Z</time>
      </trkpt>
      <trkpt lat="45.1693" lon="5.94785">
        <ele>2449.3</ele>
        <time>2021-02-20T09:41:19Z</time>
      </trkpt>
      <trkpt lat="45.1693" lon="5.94786">
        <ele>2449.3</ele>
        <time>2021-02-20T09:41:20Z</time>
      </trkpt>
      <trkpt lat="45.16931" lon="5.94786">
        <ele>2449.3</ele>
        <time>2021-02-20T09:41:21Z</time>
      </trkpt>
      <trkpt lat="45.16931" lon="5.94787">
        <ele>2449.3</ele>
        <time>2021-02-20T09:41:22Z</time>
      </trkpt>
      <trkpt lat="45.16931" lon="5.94788">
        <ele>2449.3</ele>
        <time>2021-02-20T09:41:23Z</time>
      </trkpt>
      <trkpt lat="45.16932" lon="5.94788">
        <ele>2449.3</ele>
        <time>2021-02-20T09:41:24Z</time>
      </trkpt>
      <trkpt lat="45.16932" lon="5.94789">
        <ele>2449.3</ele>
        <time>2021-02-20T09:41:25Z</time>
      </trkpt>
      <trkpt lat="45.16932" lon="5.9479">
        <ele>2449.3</ele>
        <time>2021-02-20T09:41:26Z</time>
      </trkpt>
      <trkpt lat="45.16932" lon="5.9479">
        <ele>2449.3</ele>
        <time>2021-02-20T09:41:27Z</time>
      </trkpt>
      <trkpt lat="45.16932" lon="5.94791">
        <ele>2449.3</ele>
        <time>2021-02-20T09:41:28Z</time>
      </trkpt>
      <trkpt lat="45.16933" lon="5.94791">
        <ele>2449.3</ele>
        <time>2021-02-20T09:41:29Z</time>
      </trkpt>
      <trkpt lat="45.16933" lon="5.94792">
        <ele>2450.8</ele>
        <time>2021-02-20T09:41:30Z</time>
      </trkpt>
      <trkpt lat="45.16934" lon="5.94793">
        <ele>2450.8</ele>
        <time>2021-02-20T09:41:31Z</time>
      </trkpt>
      <trkpt lat="45.16934" lon="5.94794">
        <ele>2450.9</ele>
        <time>2021-02-20T09:41:32Z</time>
      </trkpt>
      <trkpt lat="45.16935" lon="5.94795">
        <ele>2450.9</ele>
        <time>2021-02-20T09:41:33Z</time>
      </trkpt>
      <trkpt lat="45.16935" lon="5.94796">
        <ele>2450.9</ele>
        <time>2021-02-20T09:41:34Z</time>
      </trkpt>
      <trkpt lat="45.16935" lon="5.94797">
        <ele>2450.9</ele>
        <time>2021-02-20T09:41:35Z</time>
      </trkpt>
      <trkpt lat="45.16936" lon="5.94798">
        <ele>2450.9</ele>
        <time>2021-02-20T09:41:36Z</time>
      </trkpt>
      <trkpt lat="45.16936" lon="5.94799">
        <ele>2451</ele>
        <time>2021-02-20T09:41:37Z</time>
      </trkpt>
      <trkpt lat="45.16936" lon="5.948">
        <ele>2452.6</ele>
        <time>2021-02-20T09:41:38Z</time>
      </trkpt>
      <trkpt lat="45.16937" lon="5.94801">
        <ele>2452.6</ele>
        <time>2021-02-20T09:41:39Z</time>
      </trkpt>
      <trkpt lat="45.16937" lon="5.94802">
        <ele>2452.6</ele>
        <time>2021-02-20T09:41:50Z</time>
      </trkpt>
      <trkpt lat="45.16937" lon="5.94803">
        <ele>2452.8</ele>
        <time>2021-02-20T09:41:51Z</time>
      </trkpt>
      <trkpt lat="45.16938" lon="5.94804">
        <ele>2452.8</ele>
        <time>2021-02-20T09:41:52Z</time>
      </trkpt>
      <trkpt lat="45.16938" lon="5.94805">
        <ele>2452.8</ele>
        <time>2021-02-20T09:41:53Z</time>
      </trkpt>
      <trkpt lat="45.16938" lon="5.94805">
        <ele>2452.8</ele>
        <time>2021-02-20T09:41:54Z</time>
      </trkpt>
      <trkpt lat="45.16939" lon="5.94806">
        <ele>2452.8</ele>
        <time>2021-02-20T09:41:55Z</time>
      </trkpt>
      <trkpt lat="45.16939" lon="5.94807">
        <ele>2452.9</ele>
        <time>2021-02-20T09:41:56Z</time>
      </trkpt>
      <trkpt lat="45.16939" lon="5.94807">
        <ele>2452.9</ele>
        <time>2021-02-20T09:41:57Z</time>
      </trkpt>
      <trkpt lat="45.1694" lon="5.94808">
        <ele>2454.7</ele>
        <time>2021-02-20T09:41:58Z</time>
      </trkpt>
      <trkpt lat="45.1694" lon="5.94809">
        <ele>2454.7</ele>
        <time>2021-02-20T09:41:59Z</time>
      </trkpt>
      <trkpt lat="45.1694" lon="5.94809">
        <ele>2454.7</ele>
        <time>2021-02-20T09:42:00Z</time>
      </trkpt>
      <trkpt lat="45.1694" lon="5.94809">
        <ele>2454.7</ele>
        <time>2021-02-20T09:42:01Z</time>
      </trkpt>
      <trkpt lat="45.16941" lon="5.9481">
        <ele>2454.7</ele>
        <time>2021-02-20T09:42:02Z</time>
      </trkpt>
      <trkpt lat="45.16941" lon="5.94811">
        <ele>2454.7</ele>
        <time>2021-02-20T09:42:03Z</time>
      </trkpt>
      <trkpt lat="45.16941" lon="5.94812">
        <ele>2454.8</ele>
        <time>2021-02-20T09:42:04Z</time>
      </trkpt>
      <trkpt lat="45.16941" lon="5.94812">
        <ele>2454.8</ele>
        <time>2021-02-20T09:42:05Z</time>
      </trkpt>
      <trkpt lat="45.16941" lon="5.94813">
        <ele>2454.8</ele>
        <time>2021-02-20T09:42:06Z</time>
      </trkpt>
      <trkpt lat="45.16941" lon="5.94814">
        <ele>2454.8</ele>
        <time>2021-02-20T09:42:07Z</time>
      </trkpt>
      <trkpt lat="45.16941" lon="5.94815">
        <ele>2454.8</ele>
        <time>2021-02-20T09:42:08Z</time>
      </trkpt>
      <trkpt lat="45.16941" lon="5.94815">
        <ele>2454.9</ele>
        <time>2021-02-20T09:42:09Z</time>
      </trkpt>
      <trkpt lat="45.16941" lon="5.94816">
        <ele>2454.9</ele>
        <time>2021-02-20T09:42:10Z</time>
      </trkpt>
      <trkpt lat="45.16941" lon="5.94817">
        <ele>2454.9</ele>
        <time>2021-02-20T09:42:11Z</time>
      </trkpt>
      <trkpt lat="45.16941" lon="5.94817">
        <ele>2454.9</ele>
        <time>2021-02-20T09:42:12Z</time>
      </trkpt>
      <trkpt lat="45.16942" lon="5.94818">
        <ele>2454.9</ele>
        <time>2021-02-20T09:42:13Z</time>
      </trkpt>
      <trkpt lat="45.16942" lon="5.94819">
        <ele>2454.9</ele>
        <time>2021-02-20T09:42:14Z</time>
      </trkpt>
      <trkpt lat="45.16942" lon="5.94819">
        <ele>2454.9</ele>
        <time>2021-02-20T09:42:15Z</time>
      </trkpt>
      <trkpt lat="45.16942" lon="5.9482">
        <ele>2454.9</ele>
        <time>2021-02-20T09:42:16Z</time>
      </trkpt>
      <trkpt lat="45.16942" lon="5.94821">
        <ele>2454.9</ele>
        <time>2021-02-20T09:42:17Z</time>
      </trkpt>
      <trkpt lat="45.16942" lon="5.94822">
        <ele>2456.9</ele>
        <time>2021-02-20T09:42:18Z</time>
      </trkpt>
      <trkpt lat="45.16942" lon="5.94823">
        <ele>2456.9</ele>
        <time>2021-02-20T09:42:19Z</time>
      </trkpt>
      <trkpt lat="45.16942" lon="5.94823">
        <ele>2456.9</ele>
        <time>2021-02-20T09:42:20Z</time>
      </trkpt>
      <trkpt lat="45.16942" lon="5.94824">
        <ele>2456.9</ele>
        <time>2021-02-20T09:42:21Z</time>
      </trkpt>
      <trkpt lat="45.16942" lon="5.94824">
        <ele>2454.9</ele>
        <time>2021-02-20T09:42:22Z</time>
      </trkpt>
      <trkpt lat="45.16942" lon="5.94825">
        <ele>2454.9</ele>
        <time>2021-02-20T09:42:23Z</time>
      </trkpt>
      <trkpt lat="45.16942" lon="5.94826">
        <ele>2457</ele>
        <time>2021-02-20T09:42:24Z</time>
      </trkpt>
      <trkpt lat="45.16942" lon="5.94827">
        <ele>2457</ele>
        <time>2021-02-20T09:42:25Z</time>
      </trkpt>
      <trkpt lat="45.16942" lon="5.94828">
        <ele>2457</ele>
        <time>2021-02-20T09:42:26Z</time>
      </trkpt>
      <trkpt lat="45.16942" lon="5.94828">
        <ele>2457</ele>
        <time>2021-02-20T09:42:27Z</time>
      </trkpt>
      <trkpt lat="45.16942" lon="5.94829">
        <ele>2457</ele>
        <time>2021-02-20T09:42:28Z</time>
      </trkpt>
      <trkpt lat="45.16942" lon="5.9483">
        <ele>2457</ele>
        <time>2021-02-20T09:42:29Z</time>
      </trkpt>
      <trkpt lat="45.16943" lon="5.9483">
        <ele>2457</ele>
        <time>2021-02-20T09:42:30Z</time>
      </trkpt>
      <trkpt lat="45.16943" lon="5.94831">
        <ele>2457</ele>
        <time>2021-02-20T09:42:31Z</time>
      </trkpt>
      <trkpt lat="45.16943" lon="5.94832">
        <ele>2457</ele>
        <time>2021-02-20T09:42:32Z</time>
      </trkpt>
      <trkpt lat="45.16943" lon="5.94833">
        <ele>2457</ele>
        <time>2021-02-20T09:42:33Z</time>
      </trkpt>
      <trkpt lat="45.16943" lon="5.94833">
        <ele>2457</ele>
        <time>2021-02-20T09:42:34Z</time>
      </trkpt>
      <trkpt lat="45.16943" lon="5.94834">
        <ele>2457</ele>
        <time>2021-02-20T09:42:35Z</time>
      </trkpt>
      <trkpt lat="45.16943" lon="5.94834">
        <ele>2457</ele>
        <time>2021-02-20T09:42:36Z</time>
      </trkpt>
      <trkpt lat="45.16944" lon="5.94835">
        <ele>2457</ele>
        <time>2021-02-20T09:42:37Z</time>
      </trkpt>
      <trkpt lat="45.16944" lon="5.94836">
        <ele>2457</ele>
        <time>2021-02-20T09:42:38Z</time>
      </trkpt>
      <trkpt lat="45.16944" lon="5.94836">
        <ele>2457</ele>
        <time>2021-02-20T09:42:39Z</time>
      </trkpt>
      <trkpt lat="45.16944" lon="5.94837">
        <ele>2457</ele>
        <time>2021-02-20T09:42:40Z</time>
      </trkpt>
      <trkpt lat="45.16944" lon="5.94837">
        <ele>2456.9</ele>
        <time>2021-02-20T09:42:41Z</time>
      </trkpt>
      <trkpt lat="45.16944" lon="5.94837">
        <ele>2456.9</ele>
        <time>2021-02-20T09:42:42Z</time>
      </trkpt>
      <trkpt lat="45.16944" lon="5.94838">
        <ele>2456.9</ele>
        <time>2021-02-20T09:42:43Z</time>
      </trkpt>
      <trkpt lat="45.16944" lon="5.94839">
        <ele>2456.9</ele>
        <time>2021-02-20T09:42:44Z</time>
      </trkpt>
      <trkpt lat="45.16944" lon="5.94839">
        <ele>2456.9</ele>
        <time>2021-02-20T09:42:45Z</time>
      </trkpt>
      <trkpt lat="45.16944" lon="5.94839">
        <ele>2456.9</ele>
        <time>2021-02-20T09:42:46Z</time>
      </trkpt>
      <trkpt lat="45.16945" lon="5.94839">
        <ele>2456.9</ele>
        <time>2021-02-20T09:42:47Z</time>
      </trkpt>
      <trkpt lat="45.16945" lon="5.94838">
        <ele>2456.9</ele>
        <time>2021-02-20T09:42:48Z</time>
      </trkpt>
      <trkpt lat="45.16945" lon="5.94838">
        <ele>2459.2</ele>
        <time>2021-02-20T09:42:49Z</time>
      </trkpt>
      <trkpt lat="45.16946" lon="5.94837">
        <ele>2459.2</ele>
        <time>2021-02-20T09:42:50Z</time>
      </trkpt>
      <trkpt lat="45.16946" lon="5.94836">
        <ele>2459.2</ele>
        <time>2021-02-20T09:42:51Z</time>
      </trkpt>
      <trkpt lat="45.16947" lon="5.94836">
        <ele>2459.2</ele>
        <time>2021-02-20T09:42:52Z</time>
      </trkpt>
      <trkpt lat="45.16947" lon="5.94835">
        <ele>2459.2</ele>
        <time>2021-02-20T09:42:53Z</time>
      </trkpt>
      <trkpt lat="45.16947" lon="5.94835">
        <ele>2459.2</ele>
        <time>2021-02-20T09:42:54Z</time>
      </trkpt>
      <trkpt lat="45.16948" lon="5.94834">
        <ele>2459.2</ele>
        <time>2021-02-20T09:43:09Z</time>
      </trkpt>
      <trkpt lat="45.16948" lon="5.94834">
        <ele>2459.2</ele>
        <time>2021-02-20T09:43:10Z</time>
      </trkpt>
      <trkpt lat="45.16948" lon="5.94833">
        <ele>2461.4</ele>
        <time>2021-02-20T09:43:11Z</time>
      </trkpt>
      <trkpt lat="45.16949" lon="5.94833">
        <ele>2461.4</ele>
        <time>2021-02-20T09:43:12Z</time>
      </trkpt>
      <trkpt lat="45.16949" lon="5.94832">
        <ele>2461.3</ele>
        <time>2021-02-20T09:43:13Z</time>
      </trkpt>
      <trkpt lat="45.1695" lon="5.94831">
        <ele>2461.3</ele>
        <time>2021-02-20T09:43:14Z</time>
      </trkpt>
      <trkpt lat="45.1695" lon="5.94831">
        <ele>2461.3</ele>
        <time>2021-02-20T09:43:15Z</time>
      </trkpt>
      <trkpt lat="45.16951" lon="5.94831">
        <ele>2461.3</ele>
        <time>2021-02-20T09:43:16Z</time>
      </trkpt>
      <trkpt lat="45.16951" lon="5.9483">
        <ele>2461.3</ele>
        <time>2021-02-20T09:43:17Z</time>
      </trkpt>
      <trkpt lat="45.16952" lon="5.9483">
        <ele>2463.3</ele>
        <time>2021-02-20T09:43:18Z</time>
      </trkpt>
      <trkpt lat="45.16952" lon="5.9483">
        <ele>2463.3</ele>
        <time>2021-02-20T09:43:19Z</time>
      </trkpt>
      <trkpt lat="45.16953" lon="5.9483">
        <ele>2463.3</ele>
        <time>2021-02-20T09:43:20Z</time>
      </trkpt>
      <trkpt lat="45.16953" lon="5.94829">
        <ele>2463.3</ele>
        <time>2021-02-20T09:43:21Z</time>
      </trkpt>
      <trkpt lat="45.16953" lon="5.94828">
        <ele>2463.1</ele>
        <time>2021-02-20T09:43:22Z</time>
      </trkpt>
      <trkpt lat="45.16954" lon="5.94827">
        <ele>2463.1</ele>
        <time>2021-02-20T09:43:23Z</time>
      </trkpt>
      <trkpt lat="45.16954" lon="5.94827">
        <ele>2463.1</ele>
        <time>2021-02-20T09:43:24Z</time>
      </trkpt>
      <trkpt lat="45.16955" lon="5.94826">
        <ele>2464.9</ele>
        <time>2021-02-20T09:43:25Z</time>
      </trkpt>
      <trkpt lat="45.16955" lon="5.94824">
        <ele>2464.7</ele>
        <time>2021-02-20T09:43:26Z</time>
      </trkpt>
      <trkpt lat="45.16955" lon="5.94822">
        <ele>2464.7</ele>
        <time>2021-02-20T09:43:27Z</time>
      </trkpt>
      <trkpt lat="45.16955" lon="5.9482">
        <ele>2464.7</ele>
        <time>2021-02-20T09:43:28Z</time>
      </trkpt>
      <trkpt lat="45.16955" lon="5.94819">
        <ele>2464.4</ele>
        <time>2021-02-20T09:43:29Z</time>
      </trkpt>
      <trkpt lat="45.16955" lon="5.94818">
        <ele>2464.4</ele>
        <time>2021-02-20T09:43:30Z</time>
      </trkpt>
      <trkpt lat="45.16956" lon="5.94818">
        <ele>2464.4</ele>
        <time>2021-02-20T09:43:31Z</time>
      </trkpt>
      <trkpt lat="45.16958" lon="5.94819">
        <ele>2466.1</ele>
        <time>2021-02-20T09:43:32Z</time>
      </trkpt>
      <trkpt lat="45.16959" lon="5.9482">
        <ele>2466.4</ele>
        <time>2021-02-20T09:43:33Z</time>
      </trkpt>
      <trkpt lat="45.16959" lon="5.9482">
        <ele>2466.4</ele>
        <time>2021-02-20T09:43:34Z</time>
      </trkpt>
      <trkpt lat="45.16959" lon="5.94819">
        <ele>2466.1</ele>
        <time>2021-02-20T09:43:35Z</time>
      </trkpt>
      <trkpt lat="45.1696" lon="5.94818">
        <ele>2466.1</ele>
        <time>2021-02-20T09:43:36Z</time>
      </trkpt>
      <trkpt lat="45.1696" lon="5.94817">
        <ele>2466.1</ele>
        <time>2021-02-20T09:43:37Z</time>
      </trkpt>
      <trkpt lat="45.1696" lon="5.94817">
        <ele>2466.1</ele>
        <time>2021-02-20T09:43:38Z</time>
      </trkpt>
      <trkpt lat="45.1696" lon="5.94816">
        <ele>2467.8</ele>
        <time>2021-02-20T09:43:39Z</time>
      </trkpt>
      <trkpt lat="45.16961" lon="5.94815">
        <ele>2467.5</ele>
        <time>2021-02-20T09:43:40Z</time>
      </trkpt>
      <trkpt lat="45.16961" lon="5.94814">
        <ele>2467.5</ele>
        <time>2021-02-20T09:43:41Z</time>
      </trkpt>
      <trkpt lat="45.16961" lon="5.94813">
        <ele>2467.5</ele>
        <time>2021-02-20T09:43:42Z</time>
      </trkpt>
      <trkpt lat="45.16961" lon="5.94812">
        <ele>2467.5</ele>
        <time>2021-02-20T09:43:43Z</time>
      </trkpt>
      <trkpt lat="45.16961" lon="5.94811">
        <ele>2467.5</ele>
        <time>2021-02-20T09:43:44Z</time>
      </trkpt>
      <trkpt lat="45.16962" lon="5.94811">
        <ele>2467.2</ele>
        <time>2021-02-20T09:43:45Z</time>
      </trkpt>
      <trkpt lat="45.16962" lon="5.9481">
        <ele>2467.2</ele>
        <time>2021-02-20T09:43:46Z</time>
      </trkpt>
      <trkpt lat="45.16962" lon="5.94809">
        <ele>2467.2</ele>
        <time>2021-02-20T09:43:47Z</time>
      </trkpt>
      <trkpt lat="45.16962" lon="5.94808">
        <ele>2467.2</ele>
        <time>2021-02-20T09:43:48Z</time>
      </trkpt>
      <trkpt lat="45.16962" lon="5.94807">
        <ele>2467.2</ele>
        <time>2021-02-20T09:43:49Z</time>
      </trkpt>
      <trkpt lat="45.16962" lon="5.94806">
        <ele>2466.9</ele>
        <time>2021-02-20T09:43:50Z</time>
      </trkpt>
      <trkpt lat="45.16963" lon="5.94805">
        <ele>2466.9</ele>
        <time>2021-02-20T09:43:51Z</time>
      </trkpt>
      <trkpt lat="45.16963" lon="5.94804">
        <ele>2466.9</ele>
        <time>2021-02-20T09:43:52Z</time>
      </trkpt>
      <trkpt lat="45.16963" lon="5.94803">
        <ele>2466.9</ele>
        <time>2021-02-20T09:43:53Z</time>
      </trkpt>
      <trkpt lat="45.16963" lon="5.94802">
        <ele>2466.5</ele>
        <time>2021-02-20T09:43:54Z</time>
      </trkpt>
      <trkpt lat="45.16963" lon="5.94801">
        <ele>2466.5</ele>
        <time>2021-02-20T09:43:55Z</time>
      </trkpt>
      <trkpt lat="45.16963" lon="5.948">
        <ele>2466.5</ele>
        <time>2021-02-20T09:43:56Z</time>
      </trkpt>
      <trkpt lat="45.16963" lon="5.94799">
        <ele>2466.5</ele>
        <time>2021-02-20T09:43:57Z</time>
      </trkpt>
      <trkpt lat="45.16964" lon="5.94799">
        <ele>2468.3</ele>
        <time>2021-02-20T09:43:58Z</time>
      </trkpt>
      <trkpt lat="45.16964" lon="5.94798">
        <ele>2467.9</ele>
        <time>2021-02-20T09:43:59Z</time>
      </trkpt>
      <trkpt lat="45.16964" lon="5.94797">
        <ele>2467.9</ele>
        <time>2021-02-20T09:44:00Z</time>
      </trkpt>
      <trkpt lat="45.16964" lon="5.94796">
        <ele>2467.9</ele>
        <time>2021-02-20T09:44:01Z</time>
      </trkpt>
      <trkpt lat="45.16964" lon="5.94795">
        <ele>2467.9</ele>
        <time>2021-02-20T09:44:02Z</time>
      </trkpt>
      <trkpt lat="45.16964" lon="5.94794">
        <ele>2467.9</ele>
        <time>2021-02-20T09:44:03Z</time>
      </trkpt>
      <trkpt lat="45.16965" lon="5.94793">
        <ele>2467.6</ele>
        <time>2021-02-20T09:44:04Z</time>
      </trkpt>
      <trkpt lat="45.16965" lon="5.94793">
        <ele>2467.6</ele>
        <time>2021-02-20T09:44:05Z</time>
      </trkpt>
      <trkpt lat="45.16965" lon="5.94792">
        <ele>2467.6</ele>
        <time>2021-02-20T09:44:06Z</time>
      </trkpt>
      <trkpt lat="45.16965" lon="5.94791">
        <ele>2467.6</ele>
        <time>2021-02-20T09:44:07Z</time>
      </trkpt>
      <trkpt lat="45.16965" lon="5.94791">
        <ele>2467.6</ele>
        <time>2021-02-20T09:44:08Z</time>
      </trkpt>
      <trkpt lat="45.16965" lon="5.9479">
        <ele>2467.6</ele>
        <time>2021-02-20T09:44:09Z</time>
      </trkpt>
      <trkpt lat="45.16966" lon="5.94789">
        <ele>2467.3</ele>
        <time>2021-02-20T09:44:10Z</time>
      </trkpt>
      <trkpt lat="45.16966" lon="5.94788">
        <ele>2467.3</ele>
        <time>2021-02-20T09:44:11Z</time>
      </trkpt>
      <trkpt lat="45.16966" lon="5.94788">
        <ele>2467.3</ele>
        <time>2021-02-20T09:44:12Z</time>
      </trkpt>
      <trkpt lat="45.16966" lon="5.94787">
        <ele>2469.1</ele>
        <time>2021-02-20T09:44:13Z</time>
      </trkpt>
      <trkpt lat="45.16967" lon="5.94786">
        <ele>2469.1</ele>
        <time>2021-02-20T09:44:14Z</time>
      </trkpt>
      <trkpt lat="45.16967" lon="5.94785">
        <ele>2469.1</ele>
        <time>2021-02-20T09:44:15Z</time>
      </trkpt>
      <trkpt lat="45.16967" lon="5.94785">
        <ele>2468.7</ele>
        <time>2021-02-20T09:44:16Z</time>
      </trkpt>
      <trkpt lat="45.16967" lon="5.94784">
        <ele>2468.7</ele>
        <time>2021-02-20T09:44:17Z</time>
      </trkpt>
      <trkpt lat="45.16968" lon="5.94783">
        <ele>2468.7</ele>
        <time>2021-02-20T09:44:18Z</time>
      </trkpt>
      <trkpt lat="45.16968" lon="5.94783">
        <ele>2468.7</ele>
        <time>2021-02-20T09:44:19Z</time>
      </trkpt>
      <trkpt lat="45.16968" lon="5.94782">
        <ele>2468.7</ele>
        <time>2021-02-20T09:44:20Z</time>
      </trkpt>
      <trkpt lat="45.16968" lon="5.94782">
        <ele>2468.7</ele>
        <time>2021-02-20T09:44:21Z</time>
      </trkpt>
      <trkpt lat="45.16969" lon="5.94781">
        <ele>2468.7</ele>
        <time>2021-02-20T09:44:22Z</time>
      </trkpt>
      <trkpt lat="45.16969" lon="5.9478">
        <ele>2468.4</ele>
        <time>2021-02-20T09:44:23Z</time>
      </trkpt>
      <trkpt lat="45.16969" lon="5.9478">
        <ele>2468.4</ele>
        <time>2021-02-20T09:44:24Z</time>
      </trkpt>
      <trkpt lat="45.16969" lon="5.94779">
        <ele>2468.4</ele>
        <time>2021-02-20T09:44:25Z</time>
      </trkpt>
      <trkpt lat="45.1697" lon="5.94778">
        <ele>2470.1</ele>
        <time>2021-02-20T09:44:26Z</time>
      </trkpt>
      <trkpt lat="45.1697" lon="5.94778">
        <ele>2470.1</ele>
        <time>2021-02-20T09:44:27Z</time>
      </trkpt>
      <trkpt lat="45.1697" lon="5.94777">
        <ele>2470.1</ele>
        <time>2021-02-20T09:44:28Z</time>
      </trkpt>
      <trkpt lat="45.16971" lon="5.94776">
        <ele>2469.7</ele>
        <time>2021-02-20T09:44:29Z</time>
      </trkpt>
      <trkpt lat="45.16971" lon="5.94776">
        <ele>2469.7</ele>
        <time>2021-02-20T09:44:30Z</time>
      </trkpt>
      <trkpt lat="45.16971" lon="5.94776">
        <ele>2469.7</ele>
        <time>2021-02-20T09:44:31Z</time>
      </trkpt>
      <trkpt lat="45.16972" lon="5.94776">
        <ele>2469.7</ele>
        <time>2021-02-20T09:44:32Z</time>
      </trkpt>
      <trkpt lat="45.16972" lon="5.94775">
        <ele>2469.7</ele>
        <time>2021-02-20T09:44:33Z</time>
      </trkpt>
      <trkpt lat="45.16972" lon="5.94774">
        <ele>2469.7</ele>
        <time>2021-02-20T09:44:34Z</time>
      </trkpt>
      <trkpt lat="45.16973" lon="5.94774">
        <ele>2471.3</ele>
        <time>2021-02-20T09:44:35Z</time>
      </trkpt>
      <trkpt lat="45.16973" lon="5.94773">
        <ele>2471.3</ele>
        <time>2021-02-20T09:44:36Z</time>
      </trkpt>
      <trkpt lat="45.16973" lon="5.94772">
        <ele>2470.9</ele>
        <time>2021-02-20T09:44:37Z</time>
      </trkpt>
      <trkpt lat="45.16973" lon="5.94771">
        <ele>2470.9</ele>
        <time>2021-02-20T09:44:38Z</time>
      </trkpt>
      <trkpt lat="45.16974" lon="5.94771">
        <ele>2470.9</ele>
        <time>2021-02-20T09:44:39Z</time>
      </trkpt>
      <trkpt lat="45.16974" lon="5.9477">
        <ele>2470.9</ele>
        <time>2021-02-20T09:44:40Z</time>
      </trkpt>
      <trkpt lat="45.16974" lon="5.94769">
        <ele>2470.9</ele>
        <time>2021-02-20T09:44:41Z</time>
      </trkpt>
      <trkpt lat="45.16974" lon="5.94768">
        <ele>2470.9</ele>
        <time>2021-02-20T09:44:42Z</time>
      </trkpt>
      <trkpt lat="45.16974" lon="5.94768">
        <ele>2470.4</ele>
        <time>2021-02-20T09:44:43Z</time>
      </trkpt>
      <trkpt lat="45.16975" lon="5.94767">
        <ele>2470.4</ele>
        <time>2021-02-20T09:44:44Z</time>
      </trkpt>
      <trkpt lat="45.16975" lon="5.94767">
        <ele>2470.4</ele>
        <time>2021-02-20T09:44:45Z</time>
      </trkpt>
      <trkpt lat="45.16975" lon="5.94767">
        <ele>2470.4</ele>
        <time>2021-02-20T09:44:46Z</time>
      </trkpt>
      <trkpt lat="45.16976" lon="5.94766">
        <ele>2471.8</ele>
        <time>2021-02-20T09:44:47Z</time>
      </trkpt>
      <trkpt lat="45.16976" lon="5.94765">
        <ele>2471.8</ele>
        <time>2021-02-20T09:44:48Z</time>
      </trkpt>
      <trkpt lat="45.16976" lon="5.94764">
        <ele>2471.8</ele>
        <time>2021-02-20T09:44:49Z</time>
      </trkpt>
      <trkpt lat="45.16977" lon="5.94764">
        <ele>2471.2</ele>
        <time>2021-02-20T09:44:50Z</time>
      </trkpt>
      <trkpt lat="45.16977" lon="5.94763">
        <ele>2471.2</ele>
        <time>2021-02-20T09:44:51Z</time>
      </trkpt>
      <trkpt lat="45.16977" lon="5.94762">
        <ele>2471.2</ele>
        <time>2021-02-20T09:44:52Z</time>
      </trkpt>
      <trkpt lat="45.16977" lon="5.94762">
        <ele>2471.2</ele>
        <time>2021-02-20T09:44:53Z</time>
      </trkpt>
      <trkpt lat="45.16977" lon="5.94761">
        <ele>2471.2</ele>
        <time>2021-02-20T09:44:54Z</time>
      </trkpt>
      <trkpt lat="45.16978" lon="5.94761">
        <ele>2471.2</ele>
        <time>2021-02-20T09:44:55Z</time>
      </trkpt>
      <trkpt lat="45.16978" lon="5.9476">
        <ele>2471.2</ele>
        <time>2021-02-20T09:44:56Z</time>
      </trkpt>
      <trkpt lat="45.16978" lon="5.94759">
        <ele>2470.7</ele>
        <time>2021-02-20T09:44:57Z</time>
      </trkpt>
      <trkpt lat="45.16978" lon="5.94758">
        <ele>2470.7</ele>
        <time>2021-02-20T09:44:58Z</time>
      </trkpt>
      <trkpt lat="45.16978" lon="5.94757">
        <ele>2470.7</ele>
        <time>2021-02-20T09:44:59Z</time>
      </trkpt>
      <trkpt lat="45.16978" lon="5.94756">
        <ele>2470.7</ele>
        <time>2021-02-20T09:45:00Z</time>
      </trkpt>
      <trkpt lat="45.16978" lon="5.94755">
        <ele>2470.1</ele>
        <time>2021-02-20T09:45:01Z</time>
      </trkpt>
      <trkpt lat="45.16978" lon="5.94754">
        <ele>2470.1</ele>
        <time>2021-02-20T09:45:02Z</time>
      </trkpt>
      <trkpt lat="45.16978" lon="5.94753">
        <ele>2470.1</ele>
        <time>2021-02-20T09:45:03Z</time>
      </trkpt>
      <trkpt lat="45.16978" lon="5.94752">
        <ele>2470.1</ele>
        <time>2021-02-20T09:45:04Z</time>
      </trkpt>
      <trkpt lat="45.16978" lon="5.94751">
        <ele>2470.1</ele>
        <time>2021-02-20T09:45:05Z</time>
      </trkpt>
      <trkpt lat="45.16978" lon="5.94751">
        <ele>2469.5</ele>
        <time>2021-02-20T09:45:06Z</time>
      </trkpt>
      <trkpt lat="45.16978" lon="5.9475">
        <ele>2469.5</ele>
        <time>2021-02-20T09:45:07Z</time>
      </trkpt>
      <trkpt lat="45.16979" lon="5.94749">
        <ele>2470.7</ele>
        <time>2021-02-20T09:45:08Z</time>
      </trkpt>
      <trkpt lat="45.16979" lon="5.94749">
        <ele>2470.7</ele>
        <time>2021-02-20T09:45:09Z</time>
      </trkpt>
      <trkpt lat="45.16979" lon="5.94748">
        <ele>2470.7</ele>
        <time>2021-02-20T09:45:10Z</time>
      </trkpt>
      <trkpt lat="45.16979" lon="5.94748">
        <ele>2470.7</ele>
        <time>2021-02-20T09:45:11Z</time>
      </trkpt>
      <trkpt lat="45.1698" lon="5.94747">
        <ele>2470.7</ele>
        <time>2021-02-20T09:45:12Z</time>
      </trkpt>
      <trkpt lat="45.1698" lon="5.94747">
        <ele>2470.1</ele>
        <time>2021-02-20T09:45:13Z</time>
      </trkpt>
      <trkpt lat="45.1698" lon="5.94746">
        <ele>2470.1</ele>
        <time>2021-02-20T09:45:14Z</time>
      </trkpt>
      <trkpt lat="45.1698" lon="5.94745">
        <ele>2470.1</ele>
        <time>2021-02-20T09:45:15Z</time>
      </trkpt>
      <trkpt lat="45.1698" lon="5.94744">
        <ele>2470.1</ele>
        <time>2021-02-20T09:45:16Z</time>
      </trkpt>
      <trkpt lat="45.1698" lon="5.94744">
        <ele>2470.1</ele>
        <time>2021-02-20T09:45:17Z</time>
      </trkpt>
      <trkpt lat="45.16981" lon="5.94743">
        <ele>2470.1</ele>
        <time>2021-02-20T09:45:18Z</time>
      </trkpt>
      <trkpt lat="45.16981" lon="5.94743">
        <ele>2470.1</ele>
        <time>2021-02-20T09:45:19Z</time>
      </trkpt>
      <trkpt lat="45.16981" lon="5.94742">
        <ele>2470.1</ele>
        <time>2021-02-20T09:45:20Z</time>
      </trkpt>
      <trkpt lat="45.16982" lon="5.94742">
        <ele>2470.7</ele>
        <time>2021-02-20T09:45:21Z</time>
      </trkpt>
      <trkpt lat="45.16982" lon="5.94742">
        <ele>2470.7</ele>
        <time>2021-02-20T09:45:22Z</time>
      </trkpt>
      <trkpt lat="45.16982" lon="5.94741">
        <ele>2470.7</ele>
        <time>2021-02-20T09:45:23Z</time>
      </trkpt>
      <trkpt lat="45.16982" lon="5.9474">
        <ele>2470.7</ele>
        <time>2021-02-20T09:45:24Z</time>
      </trkpt>
      <trkpt lat="45.16982" lon="5.94739">
        <ele>2470.7</ele>
        <time>2021-02-20T09:45:25Z</time>
      </trkpt>
      <trkpt lat="45.16982" lon="5.94738">
        <ele>2470.7</ele>
        <time>2021-02-20T09:45:26Z</time>
      </trkpt>
      <trkpt lat="45.16982" lon="5.94737">
        <ele>2470.2</ele>
        <time>2021-02-20T09:45:27Z</time>
      </trkpt>
      <trkpt lat="45.16982" lon="5.94736">
        <ele>2470.2</ele>
        <time>2021-02-20T09:45:28Z</time>
      </trkpt>
      <trkpt lat="45.16982" lon="5.94735">
        <ele>2470.2</ele>
        <time>2021-02-20T09:45:29Z</time>
      </trkpt>
      <trkpt lat="45.16982" lon="5.94734">
        <ele>2470.2</ele>
        <time>2021-02-20T09:45:30Z</time>
      </trkpt>
      <trkpt lat="45.16982" lon="5.94733">
        <ele>2469.7</ele>
        <time>2021-02-20T09:45:31Z</time>
      </trkpt>
      <trkpt lat="45.16983" lon="5.94732">
        <ele>2469.7</ele>
        <time>2021-02-20T09:45:32Z</time>
      </trkpt>
      <trkpt lat="45.16983" lon="5.9473">
        <ele>2469.7</ele>
        <time>2021-02-20T09:45:33Z</time>
      </trkpt>
      <trkpt lat="45.16983" lon="5.9473">
        <ele>2469.7</ele>
        <time>2021-02-20T09:45:34Z</time>
      </trkpt>
      <trkpt lat="45.16983" lon="5.94729">
        <ele>2469.1</ele>
        <time>2021-02-20T09:45:35Z</time>
      </trkpt>
      <trkpt lat="45.16983" lon="5.94728">
        <ele>2469.1</ele>
        <time>2021-02-20T09:45:36Z</time>
      </trkpt>
      <trkpt lat="45.16984" lon="5.94727">
        <ele>2469.1</ele>
        <time>2021-02-20T09:45:37Z</time>
      </trkpt>
      <trkpt lat="45.16984" lon="5.94726">
        <ele>2469.1</ele>
        <time>2021-02-20T09:45:38Z</time>
      </trkpt>
      <trkpt lat="45.16984" lon="5.94725">
        <ele>2468.5</ele>
        <time>2021-02-20T09:45:39Z</time>
      </trkpt>
      <trkpt lat="45.16984" lon="5.94723">
        <ele>2468.5</ele>
        <time>2021-02-20T09:45:40Z</time>
      </trkpt>
      <trkpt lat="45.16984" lon="5.94722">
        <ele>2468.5</ele>
        <time>2021-02-20T09:45:41Z</time>
      </trkpt>
      <trkpt lat="45.16984" lon="5.94721">
        <ele>2467.9</ele>
        <time>2021-02-20T09:45:42Z</time>
      </trkpt>
      <trkpt lat="45.16984" lon="5.9472">
        <ele>2467.9</ele>
        <time>2021-02-20T09:45:43Z</time>
      </trkpt>
      <trkpt lat="45.16984" lon="5.9472">
        <ele>2467.9</ele>
        <time>2021-02-20T09:45:44Z</time>
      </trkpt>
      <trkpt lat="45.16985" lon="5.9472">
        <ele>2467.9</ele>
        <time>2021-02-20T09:45:45Z</time>
      </trkpt>
      <trkpt lat="45.16985" lon="5.94719">
        <ele>2468.8</ele>
        <time>2021-02-20T09:45:46Z</time>
      </trkpt>
      <trkpt lat="45.16985" lon="5.94718">
        <ele>2468.8</ele>
        <time>2021-02-20T09:45:47Z</time>
      </trkpt>
      <trkpt lat="45.16985" lon="5.94717">
        <ele>2468.8</ele>
        <time>2021-02-20T09:45:48Z</time>
      </trkpt>
      <trkpt lat="45.16985" lon="5.94716">
        <ele>2468.1</ele>
        <time>2021-02-20T09:45:49Z</time>
      </trkpt>
      <trkpt lat="45.16985" lon="5.94715">
        <ele>2468.1</ele>
        <time>2021-02-20T09:45:50Z</time>
      </trkpt>
      <trkpt lat="45.16985" lon="5.94715">
        <ele>2468.1</ele>
        <time>2021-02-20T09:45:51Z</time>
      </trkpt>
      <trkpt lat="45.16985" lon="5.94715">
        <ele>2468.1</ele>
        <time>2021-02-20T09:45:52Z</time>
      </trkpt>
      <trkpt lat="45.16986" lon="5.94715">
        <ele>2468.1</ele>
        <time>2021-02-20T09:45:53Z</time>
      </trkpt>
      <trkpt lat="45.16986" lon="5.94715">
        <ele>2468.1</ele>
        <time>2021-02-20T09:45:54Z</time>
      </trkpt>
      <trkpt lat="45.16987" lon="5.94716">
        <ele>2468.1</ele>
        <time>2021-02-20T09:45:55Z</time>
      </trkpt>
      <trkpt lat="45.16987" lon="5.94716">
        <ele>2468.1</ele>
        <time>2021-02-20T09:45:56Z</time>
      </trkpt>
      <trkpt lat="45.16988" lon="5.94717">
        <ele>2468.8</ele>
        <time>2021-02-20T09:45:57Z</time>
      </trkpt>
      <trkpt lat="45.16988" lon="5.94717">
        <ele>2469.7</ele>
        <time>2021-02-20T09:45:58Z</time>
      </trkpt>
      <trkpt lat="45.16988" lon="5.94718">
        <ele>2469.7</ele>
        <time>2021-02-20T09:45:59Z</time>
      </trkpt>
      <trkpt lat="45.16989" lon="5.94718">
        <ele>2469.7</ele>
        <time>2021-02-20T09:46:00Z</time>
      </trkpt>
      <trkpt lat="45.16989" lon="5.94719">
        <ele>2469.7</ele>
        <time>2021-02-20T09:46:01Z</time>
      </trkpt>
      <trkpt lat="45.1699" lon="5.94719">
        <ele>2469.7</ele>
        <time>2021-02-20T09:46:02Z</time>
      </trkpt>
      <trkpt lat="45.1699" lon="5.9472">
        <ele>2469.7</ele>
        <time>2021-02-20T09:46:03Z</time>
      </trkpt>
      <trkpt lat="45.16991" lon="5.9472">
        <ele>2470.7</ele>
        <time>2021-02-20T09:46:04Z</time>
      </trkpt>
      <trkpt lat="45.16991" lon="5.9472">
        <ele>2470.7</ele>
        <time>2021-02-20T09:46:05Z</time>
      </trkpt>
      <trkpt lat="45.16992" lon="5.9472">
        <ele>2470.7</ele>
        <time>2021-02-20T09:46:06Z</time>
      </trkpt>
      <trkpt lat="45.16992" lon="5.94721">
        <ele>2470.7</ele>
        <time>2021-02-20T09:46:07Z</time>
      </trkpt>
      <trkpt lat="45.16992" lon="5.94721">
        <ele>2471.5</ele>
        <time>2021-02-20T09:46:08Z</time>
      </trkpt>
      <trkpt lat="45.16993" lon="5.94721">
        <ele>2471.5</ele>
        <time>2021-02-20T09:46:09Z</time>
      </trkpt>
      <trkpt lat="45.16993" lon="5.94722">
        <ele>2471.5</ele>
        <time>2021-02-20T09:46:10Z</time>
      </trkpt>
      <trkpt lat="45.16993" lon="5.94722">
        <ele>2471.5</ele>
        <time>2021-02-20T09:46:11Z</time>
      </trkpt>
      <trkpt lat="45.16993" lon="5.94723">
        <ele>2471.5</ele>
        <time>2021-02-20T09:46:12Z</time>
      </trkpt>
      <trkpt lat="45.16994" lon="5.94723">
        <ele>2472.5</ele>
        <time>2021-02-20T09:46:13Z</time>
      </trkpt>
      <trkpt lat="45.16994" lon="5.94723">
        <ele>2472.5</ele>
        <time>2021-02-20T09:46:14Z</time>
      </trkpt>
      <trkpt lat="45.16994" lon="5.94724">
        <ele>2472.5</ele>
        <time>2021-02-20T09:46:15Z</time>
      </trkpt>
      <trkpt lat="45.16994" lon="5.94724">
        <ele>2472.5</ele>
        <time>2021-02-20T09:46:16Z</time>
      </trkpt>
      <trkpt lat="45.16995" lon="5.94724">
        <ele>2472.5</ele>
        <time>2021-02-20T09:46:30Z</time>
      </trkpt>
      <trkpt lat="45.16995" lon="5.94725">
        <ele>2472.5</ele>
        <time>2021-02-20T09:46:31Z</time>
      </trkpt>
      <trkpt lat="45.16995" lon="5.94725">
        <ele>2473.3</ele>
        <time>2021-02-20T09:46:32Z</time>
      </trkpt>
      <trkpt lat="45.16995" lon="5.94726">
        <ele>2473.3</ele>
        <time>2021-02-20T09:46:33Z</time>
      </trkpt>
      <trkpt lat="45.16996" lon="5.94726">
        <ele>2473.3</ele>
        <time>2021-02-20T09:46:34Z</time>
      </trkpt>
      <trkpt lat="45.16996" lon="5.94726">
        <ele>2473.3</ele>
        <time>2021-02-20T09:46:35Z</time>
      </trkpt>
      <trkpt lat="45.16996" lon="5.94727">
        <ele>2473.3</ele>
        <time>2021-02-20T09:46:36Z</time>
      </trkpt>
      <trkpt lat="45.16996" lon="5.94727">
        <ele>2473.3</ele>
        <time>2021-02-20T09:46:37Z</time>
      </trkpt>
      <trkpt lat="45.16997" lon="5.94728">
        <ele>2473.3</ele>
        <time>2021-02-20T09:46:38Z</time>
      </trkpt>
      <trkpt lat="45.16997" lon="5.94729">
        <ele>2474.3</ele>
        <time>2021-02-20T09:46:39Z</time>
      </trkpt>
      <trkpt lat="45.16997" lon="5.9473">
        <ele>2475</ele>
        <time>2021-02-20T09:46:40Z</time>
      </trkpt>
      <trkpt lat="45.16997" lon="5.94731">
        <ele>2475</ele>
        <time>2021-02-20T09:46:41Z</time>
      </trkpt>
      <trkpt lat="45.16998" lon="5.94732">
        <ele>2475</ele>
        <time>2021-02-20T09:46:42Z</time>
      </trkpt>
      <trkpt lat="45.16998" lon="5.94733">
        <ele>2475</ele>
        <time>2021-02-20T09:46:43Z</time>
      </trkpt>
      <trkpt lat="45.16998" lon="5.94734">
        <ele>2475.7</ele>
        <time>2021-02-20T09:46:44Z</time>
      </trkpt>
      <trkpt lat="45.16998" lon="5.94735">
        <ele>2475.7</ele>
        <time>2021-02-20T09:46:45Z</time>
      </trkpt>
      <trkpt lat="45.16998" lon="5.94736">
        <ele>2475.7</ele>
        <time>2021-02-20T09:46:46Z</time>
      </trkpt>
      <trkpt lat="45.16998" lon="5.94737">
        <ele>2475.7</ele>
        <time>2021-02-20T09:46:47Z</time>
      </trkpt>
      <trkpt lat="45.16999" lon="5.94738">
        <ele>2475.7</ele>
        <time>2021-02-20T09:46:48Z</time>
      </trkpt>
      <trkpt lat="45.16999" lon="5.94739">
        <ele>2476.3</ele>
        <time>2021-02-20T09:46:49Z</time>
      </trkpt>
      <trkpt lat="45.16999" lon="5.94739">
        <ele>2476.3</ele>
        <time>2021-02-20T09:46:50Z</time>
      </trkpt>
      <trkpt lat="45.16999" lon="5.9474">
        <ele>2476.3</ele>
        <time>2021-02-20T09:46:51Z</time>
      </trkpt>
      <trkpt lat="45.16998" lon="5.9474">
        <ele>2476.3</ele>
        <time>2021-02-20T09:46:52Z</time>
      </trkpt>
      <trkpt lat="45.16999" lon="5.94741">
        <ele>2476.3</ele>
        <time>2021-02-20T09:46:53Z</time>
      </trkpt>
      <trkpt lat="45.16999" lon="5.94742">
        <ele>2476.3</ele>
        <time>2021-02-20T09:46:54Z</time>
      </trkpt>
      <trkpt lat="45.16999" lon="5.94743">
        <ele>2476.8</ele>
        <time>2021-02-20T09:46:55Z</time>
      </trkpt>
      <trkpt lat="45.17" lon="5.94744">
        <ele>2477.8</ele>
        <time>2021-02-20T09:46:56Z</time>
      </trkpt>
      <trkpt lat="45.17" lon="5.94744">
        <ele>2477.8</ele>
        <time>2021-02-20T09:46:57Z</time>
      </trkpt>
      <trkpt lat="45.17001" lon="5.94745">
        <ele>2477.8</ele>
        <time>2021-02-20T09:46:58Z</time>
      </trkpt>
      <trkpt lat="45.17001" lon="5.94746">
        <ele>2477.8</ele>
        <time>2021-02-20T09:46:59Z</time>
      </trkpt>
      <trkpt lat="45.17001" lon="5.94747">
        <ele>2478.4</ele>
        <time>2021-02-20T09:47:00Z</time>
      </trkpt>
      <trkpt lat="45.17002" lon="5.94748">
        <ele>2478.4</ele>
        <time>2021-02-20T09:47:01Z</time>
      </trkpt>
      <trkpt lat="45.17002" lon="5.94748">
        <ele>2478.4</ele>
        <time>2021-02-20T09:47:02Z</time>
      </trkpt>
      <trkpt lat="45.17003" lon="5.94749">
        <ele>2478.4</ele>
        <time>2021-02-20T09:47:03Z</time>
      </trkpt>
      <trkpt lat="45.17003" lon="5.9475">
        <ele>2479.4</ele>
        <time>2021-02-20T09:47:04Z</time>
      </trkpt>
      <trkpt lat="45.17003" lon="5.9475">
        <ele>2479.4</ele>
        <time>2021-02-20T09:47:05Z</time>
      </trkpt>
      <trkpt lat="45.17003" lon="5.94751">
        <ele>2480.1</ele>
        <time>2021-02-20T09:47:06Z</time>
      </trkpt>
      <trkpt lat="45.17004" lon="5.94752">
        <ele>2480.1</ele>
        <time>2021-02-20T09:47:07Z</time>
      </trkpt>
      <trkpt lat="45.17004" lon="5.94752">
        <ele>2480.1</ele>
        <time>2021-02-20T09:47:08Z</time>
      </trkpt>
      <trkpt lat="45.17004" lon="5.94753">
        <ele>2480.1</ele>
        <time>2021-02-20T09:47:09Z</time>
      </trkpt>
      <trkpt lat="45.17005" lon="5.94753">
        <ele>2480.1</ele>
        <time>2021-02-20T09:47:10Z</time>
      </trkpt>
      <trkpt lat="45.17005" lon="5.94754">
        <ele>2480.1</ele>
        <time>2021-02-20T09:47:11Z</time>
      </trkpt>
      <trkpt lat="45.17005" lon="5.94755">
        <ele>2480.1</ele>
        <time>2021-02-20T09:47:12Z</time>
      </trkpt>
      <trkpt lat="45.17006" lon="5.94756">
        <ele>2480.8</ele>
        <time>2021-02-20T09:47:13Z</time>
      </trkpt>
      <trkpt lat="45.17006" lon="5.94757">
        <ele>2481.8</ele>
        <time>2021-02-20T09:47:14Z</time>
      </trkpt>
      <trkpt lat="45.17006" lon="5.94758">
        <ele>2481.8</ele>
        <time>2021-02-20T09:47:15Z</time>
      </trkpt>
      <trkpt lat="45.17006" lon="5.94759">
        <ele>2481.8</ele>
        <time>2021-02-20T09:47:16Z</time>
      </trkpt>
      <trkpt lat="45.17006" lon="5.94759">
        <ele>2481.8</ele>
        <time>2021-02-20T09:47:17Z</time>
      </trkpt>
      <trkpt lat="45.17007" lon="5.9476">
        <ele>2482.5</ele>
        <time>2021-02-20T09:47:18Z</time>
      </trkpt>
      <trkpt lat="45.17007" lon="5.94761">
        <ele>2482.5</ele>
        <time>2021-02-20T09:47:19Z</time>
      </trkpt>
      <trkpt lat="45.17007" lon="5.94761">
        <ele>2482.5</ele>
        <time>2021-02-20T09:47:20Z</time>
      </trkpt>
      <trkpt lat="45.17007" lon="5.94762">
        <ele>2482.5</ele>
        <time>2021-02-20T09:47:21Z</time>
      </trkpt>
      <trkpt lat="45.17007" lon="5.94763">
        <ele>2482.5</ele>
        <time>2021-02-20T09:47:22Z</time>
      </trkpt>
      <trkpt lat="45.17008" lon="5.94764">
        <ele>2483.3</ele>
        <time>2021-02-20T09:47:23Z</time>
      </trkpt>
      <trkpt lat="45.17008" lon="5.94765">
        <ele>2483.3</ele>
        <time>2021-02-20T09:47:24Z</time>
      </trkpt>
      <trkpt lat="45.17008" lon="5.94765">
        <ele>2483.3</ele>
        <time>2021-02-20T09:47:25Z</time>
      </trkpt>
      <trkpt lat="45.17008" lon="5.94766">
        <ele>2483.3</ele>
        <time>2021-02-20T09:47:26Z</time>
      </trkpt>
      <trkpt lat="45.17008" lon="5.94766">
        <ele>2483.3</ele>
        <time>2021-02-20T09:47:27Z</time>
      </trkpt>
      <trkpt lat="45.17009" lon="5.94767">
        <ele>2483.3</ele>
        <time>2021-02-20T09:47:28Z</time>
      </trkpt>
      <trkpt lat="45.17009" lon="5.94767">
        <ele>2484.4</ele>
        <time>2021-02-20T09:47:29Z</time>
      </trkpt>
      <trkpt lat="45.17009" lon="5.94768">
        <ele>2484.4</ele>
        <time>2021-02-20T09:47:30Z</time>
      </trkpt>
      <trkpt lat="45.1701" lon="5.94769">
        <ele>2485.2</ele>
        <time>2021-02-20T09:47:31Z</time>
      </trkpt>
      <trkpt lat="45.1701" lon="5.94769">
        <ele>2485.2</ele>
        <time>2021-02-20T09:47:32Z</time>
      </trkpt>
      <trkpt lat="45.1701" lon="5.9477">
        <ele>2485.2</ele>
        <time>2021-02-20T09:47:33Z</time>
      </trkpt>
      <trkpt lat="45.1701" lon="5.94771">
        <ele>2485.2</ele>
        <time>2021-02-20T09:47:34Z</time>
      </trkpt>
      <trkpt lat="45.17011" lon="5.94772">
        <ele>2485.2</ele>
        <time>2021-02-20T09:47:35Z</time>
      </trkpt>
      <trkpt lat="45.17011" lon="5.94772">
        <ele>2485.2</ele>
        <time>2021-02-20T09:47:36Z</time>
      </trkpt>
      <trkpt lat="45.17012" lon="5.94773">
        <ele>2487.1</ele>
        <time>2021-02-20T09:47:37Z</time>
      </trkpt>
      <trkpt lat="45.17012" lon="5.94773">
        <ele>2487.1</ele>
        <time>2021-02-20T09:47:38Z</time>
      </trkpt>
      <trkpt lat="45.17013" lon="5.94774">
        <ele>2487.1</ele>
        <time>2021-02-20T09:47:39Z</time>
      </trkpt>
      <trkpt lat="45.17013" lon="5.94775">
        <ele>2487.1</ele>
        <time>2021-02-20T09:47:40Z</time>
      </trkpt>
      <trkpt lat="45.17013" lon="5.94776">
        <ele>2487.1</ele>
        <time>2021-02-20T09:47:41Z</time>
      </trkpt>
      <trkpt lat="45.17013" lon="5.94776">
        <ele>2487.1</ele>
        <time>2021-02-20T09:47:42Z</time>
      </trkpt>
      <trkpt lat="45.17014" lon="5.94777">
        <ele>2487.1</ele>
        <time>2021-02-20T09:47:43Z</time>
      </trkpt>
      <trkpt lat="45.17014" lon="5.94777">
        <ele>2487.9</ele>
        <time>2021-02-20T09:47:44Z</time>
      </trkpt>
      <trkpt lat="45.17014" lon="5.94778">
        <ele>2487.9</ele>
        <time>2021-02-20T09:47:45Z</time>
      </trkpt>
      <trkpt lat="45.17014" lon="5.94778">
        <ele>2487.9</ele>
        <time>2021-02-20T09:47:46Z</time>
      </trkpt>
      <trkpt lat="45.17014" lon="5.94779">
        <ele>2487.9</ele>
        <time>2021-02-20T09:47:47Z</time>
      </trkpt>
      <trkpt lat="45.17014" lon="5.9478">
        <ele>2487.9</ele>
        <time>2021-02-20T09:47:48Z</time>
      </trkpt>
      <trkpt lat="45.17014" lon="5.94781">
        <ele>2487.9</ele>
        <time>2021-02-20T09:47:49Z</time>
      </trkpt>
      <trkpt lat="45.17014" lon="5.94781">
        <ele>2488.5</ele>
        <time>2021-02-20T09:47:50Z</time>
      </trkpt>
      <trkpt lat="45.17014" lon="5.94782">
        <ele>2488.5</ele>
        <time>2021-02-20T09:47:51Z</time>
      </trkpt>
      <trkpt lat="45.17014" lon="5.94782">
        <ele>2488.5</ele>
        <time>2021-02-20T09:47:52Z</time>
      </trkpt>
      <trkpt lat="45.17014" lon="5.94783">
        <ele>2488.5</ele>
        <time>2021-02-20T09:47:53Z</time>
      </trkpt>
      <trkpt lat="45.17015" lon="5.94783">
        <ele>2488.5</ele>
        <time>2021-02-20T09:47:54Z</time>
      </trkpt>
      <trkpt lat="45.17015" lon="5.94784">
        <ele>2488.5</ele>
        <time>2021-02-20T09:47:55Z</time>
      </trkpt>
      <trkpt lat="45.17015" lon="5.94785">
        <ele>2489.6</ele>
        <time>2021-02-20T09:47:56Z</time>
      </trkpt>
      <trkpt lat="45.17015" lon="5.94785">
        <ele>2490.2</ele>
        <time>2021-02-20T09:47:57Z</time>
      </trkpt>
      <trkpt lat="45.17015" lon="5.94786">
        <ele>2490.2</ele>
        <time>2021-02-20T09:47:58Z</time>
      </trkpt>
      <trkpt lat="45.17016" lon="5.94787">
        <ele>2490.2</ele>
        <time>2021-02-20T09:47:59Z</time>
      </trkpt>
      <trkpt lat="45.17016" lon="5.94788">
        <ele>2490.2</ele>
        <time>2021-02-20T09:48:00Z</time>
      </trkpt>
      <trkpt lat="45.17015" lon="5.94789">
        <ele>2490.2</ele>
        <time>2021-02-20T09:48:01Z</time>
      </trkpt>
      <trkpt lat="45.17015" lon="5.9479">
        <ele>2490.9</ele>
        <time>2021-02-20T09:48:02Z</time>
      </trkpt>
      <trkpt lat="45.17015" lon="5.94791">
        <ele>2490.9</ele>
        <time>2021-02-20T09:48:03Z</time>
      </trkpt>
      <trkpt lat="45.17015" lon="5.94791">
        <ele>2490.9</ele>
        <time>2021-02-20T09:48:04Z</time>
      </trkpt>
      <trkpt lat="45.17015" lon="5.94792">
        <ele>2490.9</ele>
        <time>2021-02-20T09:48:05Z</time>
      </trkpt>
      <trkpt lat="45.17015" lon="5.94792">
        <ele>2490.9</ele>
        <time>2021-02-20T09:48:06Z</time>
      </trkpt>
      <trkpt lat="45.17015" lon="5.94794">
        <ele>2489.8</ele>
        <time>2021-02-20T09:48:07Z</time>
      </trkpt>
      <trkpt lat="45.17015" lon="5.94794">
        <ele>2490.5</ele>
        <time>2021-02-20T09:48:08Z</time>
      </trkpt>
      <trkpt lat="45.17015" lon="5.94795">
        <ele>2490.5</ele>
        <time>2021-02-20T09:48:09Z</time>
      </trkpt>
      <trkpt lat="45.17015" lon="5.94796">
        <ele>2490.5</ele>
        <time>2021-02-20T09:48:10Z</time>
      </trkpt>
      <trkpt lat="45.17015" lon="5.94797">
        <ele>2490.5</ele>
        <time>2021-02-20T09:48:11Z</time>
      </trkpt>
      <trkpt lat="45.17015" lon="5.94798">
        <ele>2490.5</ele>
        <time>2021-02-20T09:48:12Z</time>
      </trkpt>
      <trkpt lat="45.17015" lon="5.94798">
        <ele>2491.3</ele>
        <time>2021-02-20T09:48:13Z</time>
      </trkpt>
      <trkpt lat="45.17014" lon="5.94799">
        <ele>2491.3</ele>
        <time>2021-02-20T09:48:14Z</time>
      </trkpt>
      <trkpt lat="45.17014" lon="5.948">
        <ele>2491.3</ele>
        <time>2021-02-20T09:48:15Z</time>
      </trkpt>
      <trkpt lat="45.17014" lon="5.94801">
        <ele>2491.3</ele>
        <time>2021-02-20T09:48:16Z</time>
      </trkpt>
      <trkpt lat="45.17014" lon="5.94802">
        <ele>2491.3</ele>
        <time>2021-02-20T09:48:17Z</time>
      </trkpt>
      <trkpt lat="45.17014" lon="5.94802">
        <ele>2491.3</ele>
        <time>2021-02-20T09:48:18Z</time>
      </trkpt>
      <trkpt lat="45.17014" lon="5.94803">
        <ele>2492.1</ele>
        <time>2021-02-20T09:48:19Z</time>
      </trkpt>
      <trkpt lat="45.17014" lon="5.94804">
        <ele>2492.1</ele>
        <time>2021-02-20T09:48:20Z</time>
      </trkpt>
      <trkpt lat="45.17013" lon="5.94805">
        <ele>2492.1</ele>
        <time>2021-02-20T09:48:21Z</time>
      </trkpt>
      <trkpt lat="45.17013" lon="5.94806">
        <ele>2492.1</ele>
        <time>2021-02-20T09:48:22Z</time>
      </trkpt>
      <trkpt lat="45.17013" lon="5.94807">
        <ele>2492.1</ele>
        <time>2021-02-20T09:48:23Z</time>
      </trkpt>
      <trkpt lat="45.17014" lon="5.94807">
        <ele>2492.9</ele>
        <time>2021-02-20T09:48:24Z</time>
      </trkpt>
      <trkpt lat="45.17014" lon="5.94808">
        <ele>2492.9</ele>
        <time>2021-02-20T09:48:25Z</time>
      </trkpt>
      <trkpt lat="45.17013" lon="5.94808">
        <ele>2492.9</ele>
        <time>2021-02-20T09:48:26Z</time>
      </trkpt>
      <trkpt lat="45.17014" lon="5.94809">
        <ele>2492.9</ele>
        <time>2021-02-20T09:48:27Z</time>
      </trkpt>
      <trkpt lat="45.17014" lon="5.9481">
        <ele>2492.9</ele>
        <time>2021-02-20T09:48:28Z</time>
      </trkpt>
      <trkpt lat="45.17014" lon="5.9481">
        <ele>2492.9</ele>
        <time>2021-02-20T09:48:29Z</time>
      </trkpt>
      <trkpt lat="45.17014" lon="5.94811">
        <ele>2493.7</ele>
        <time>2021-02-20T09:48:30Z</time>
      </trkpt>
      <trkpt lat="45.17014" lon="5.94811">
        <ele>2493.7</ele>
        <time>2021-02-20T09:48:31Z</time>
      </trkpt>
      <trkpt lat="45.17014" lon="5.94812">
        <ele>2493.7</ele>
        <time>2021-02-20T09:48:32Z</time>
      </trkpt>
      <trkpt lat="45.17014" lon="5.94813">
        <ele>2493.7</ele>
        <time>2021-02-20T09:48:33Z</time>
      </trkpt>
      <trkpt lat="45.17014" lon="5.94813">
        <ele>2493.7</ele>
        <time>2021-02-20T09:48:34Z</time>
      </trkpt>
      <trkpt lat="45.17014" lon="5.94814">
        <ele>2493.7</ele>
        <time>2021-02-20T09:48:35Z</time>
      </trkpt>
      <trkpt lat="45.17014" lon="5.94815">
        <ele>2493.7</ele>
        <time>2021-02-20T09:48:36Z</time>
      </trkpt>
      <trkpt lat="45.17014" lon="5.94816">
        <ele>2494.5</ele>
        <time>2021-02-20T09:48:37Z</time>
      </trkpt>
      <trkpt lat="45.17014" lon="5.94817">
        <ele>2494.5</ele>
        <time>2021-02-20T09:48:38Z</time>
      </trkpt>
      <trkpt lat="45.17014" lon="5.94817">
        <ele>2494.5</ele>
        <time>2021-02-20T09:48:39Z</time>
      </trkpt>
      <trkpt lat="45.17014" lon="5.94818">
        <ele>2494.5</ele>
        <time>2021-02-20T09:48:40Z</time>
      </trkpt>
      <trkpt lat="45.17014" lon="5.94818">
        <ele>2494.5</ele>
        <time>2021-02-20T09:48:41Z</time>
      </trkpt>
      <trkpt lat="45.17014" lon="5.94819">
        <ele>2494.5</ele>
        <time>2021-02-20T09:48:42Z</time>
      </trkpt>
      <trkpt lat="45.17014" lon="5.94819">
        <ele>2494.5</ele>
        <time>2021-02-20T09:48:43Z</time>
      </trkpt>
      <trkpt lat="45.17014" lon="5.9482">
        <ele>2495.3</ele>
        <time>2021-02-20T09:48:44Z</time>
      </trkpt>
      <trkpt lat="45.17014" lon="5.94821">
        <ele>2495.3</ele>
        <time>2021-02-20T09:48:45Z</time>
      </trkpt>
      <trkpt lat="45.17014" lon="5.94821">
        <ele>2495.3</ele>
        <time>2021-02-20T09:48:46Z</time>
      </trkpt>
      <trkpt lat="45.17014" lon="5.94822">
        <ele>2495.3</ele>
        <time>2021-02-20T09:48:47Z</time>
      </trkpt>
      <trkpt lat="45.17014" lon="5.94823">
        <ele>2495.3</ele>
        <time>2021-02-20T09:48:48Z</time>
      </trkpt>
      <trkpt lat="45.17014" lon="5.94823">
        <ele>2495.3</ele>
        <time>2021-02-20T09:48:49Z</time>
      </trkpt>
      <trkpt lat="45.17014" lon="5.94825">
        <ele>2496.1</ele>
        <time>2021-02-20T09:48:50Z</time>
      </trkpt>
      <trkpt lat="45.17014" lon="5.94825">
        <ele>2496.1</ele>
        <time>2021-02-20T09:48:51Z</time>
      </trkpt>
      <trkpt lat="45.17015" lon="5.94825">
        <ele>2496.1</ele>
        <time>2021-02-20T09:48:52Z</time>
      </trkpt>
      <trkpt lat="45.17015" lon="5.94825">
        <ele>2497.4</ele>
        <time>2021-02-20T09:48:53Z</time>
      </trkpt>
      <trkpt lat="45.17015" lon="5.94826">
        <ele>2497.4</ele>
        <time>2021-02-20T09:48:54Z</time>
      </trkpt>
      <trkpt lat="45.17015" lon="5.94826">
        <ele>2497.4</ele>
        <time>2021-02-20T09:48:55Z</time>
      </trkpt>
      <trkpt lat="45.17016" lon="5.94826">
        <ele>2497.4</ele>
        <time>2021-02-20T09:48:56Z</time>
      </trkpt>
      <trkpt lat="45.17016" lon="5.94826">
        <ele>2497.4</ele>
        <time>2021-02-20T09:48:57Z</time>
      </trkpt>
      <trkpt lat="45.17016" lon="5.94827">
        <ele>2497.4</ele>
        <time>2021-02-20T09:48:58Z</time>
      </trkpt>
      <trkpt lat="45.17017" lon="5.94827">
        <ele>2497.4</ele>
        <time>2021-02-20T09:48:59Z</time>
      </trkpt>
      <trkpt lat="45.17017" lon="5.94827">
        <ele>2497.4</ele>
        <time>2021-02-20T09:49:00Z</time>
      </trkpt>
      <trkpt lat="45.17017" lon="5.94827">
        <ele>2497.4</ele>
        <time>2021-02-20T09:49:01Z</time>
      </trkpt>
      <trkpt lat="45.17017" lon="5.94828">
        <ele>2497.4</ele>
        <time>2021-02-20T09:49:02Z</time>
      </trkpt>
      <trkpt lat="45.17018" lon="5.94828">
        <ele>2497.4</ele>
        <time>2021-02-20T09:49:34Z</time>
      </trkpt>
      <trkpt lat="45.17018" lon="5.94828">
        <ele>2498.6</ele>
        <time>2021-02-20T09:49:35Z</time>
      </trkpt>
      <trkpt lat="45.17018" lon="5.94828">
        <ele>2499.5</ele>
        <time>2021-02-20T09:49:36Z</time>
      </trkpt>
      <trkpt lat="45.17019" lon="5.94828">
        <ele>2498.6</ele>
        <time>2021-02-20T09:49:37Z</time>
      </trkpt>
      <trkpt lat="45.1702" lon="5.94827">
        <ele>2498.6</ele>
        <time>2021-02-20T09:49:38Z</time>
      </trkpt>
      <trkpt lat="45.17021" lon="5.94827">
        <ele>2498.6</ele>
        <time>2021-02-20T09:49:39Z</time>
      </trkpt>
      <trkpt lat="45.17021" lon="5.94827">
        <ele>2498.6</ele>
        <time>2021-02-20T09:49:40Z</time>
      </trkpt>
      <trkpt lat="45.17021" lon="5.94826">
        <ele>2498.6</ele>
        <time>2021-02-20T09:49:41Z</time>
      </trkpt>
      <trkpt lat="45.17021" lon="5.94826">
        <ele>2499.9</ele>
        <time>2021-02-20T09:49:42Z</time>
      </trkpt>
      <trkpt lat="45.17021" lon="5.94825">
        <ele>2499.9</ele>
        <time>2021-02-20T09:49:43Z</time>
      </trkpt>
      <trkpt lat="45.17021" lon="5.94825">
        <ele>2499.9</ele>
        <time>2021-02-20T09:49:44Z</time>
      </trkpt>
      <trkpt lat="45.17022" lon="5.94825">
        <ele>2499.8</ele>
        <time>2021-02-20T09:49:45Z</time>
      </trkpt>
      <trkpt lat="45.17022" lon="5.94825">
        <ele>2499.8</ele>
        <time>2021-02-20T09:49:46Z</time>
      </trkpt>
      <trkpt lat="45.17022" lon="5.94824">
        <ele>2499.8</ele>
        <time>2021-02-20T09:49:47Z</time>
      </trkpt>
      <trkpt lat="45.17023" lon="5.94824">
        <ele>2499.7</ele>
        <time>2021-02-20T09:49:48Z</time>
      </trkpt>
      <trkpt lat="45.17023" lon="5.94824">
        <ele>2499.7</ele>
        <time>2021-02-20T09:49:49Z</time>
      </trkpt>
      <trkpt lat="45.17024" lon="5.94823">
        <ele>2498.8</ele>
        <time>2021-02-20T09:49:50Z</time>
      </trkpt>
      <trkpt lat="45.17025" lon="5.94822">
        <ele>2500</ele>
        <time>2021-02-20T09:49:51Z</time>
      </trkpt>
      <trkpt lat="45.17025" lon="5.94821">
        <ele>2500</ele>
        <time>2021-02-20T09:49:52Z</time>
      </trkpt>
      <trkpt lat="45.17025" lon="5.9482">
        <ele>2500</ele>
        <time>2021-02-20T09:49:53Z</time>
      </trkpt>
      <trkpt lat="45.17026" lon="5.94819">
        <ele>2498.9</ele>
        <time>2021-02-20T09:49:54Z</time>
      </trkpt>
      <trkpt lat="45.17026" lon="5.94819">
        <ele>2498.9</ele>
        <time>2021-02-20T09:49:55Z</time>
      </trkpt>
      <trkpt lat="45.17026" lon="5.94818">
        <ele>2498.9</ele>
        <time>2021-02-20T09:49:56Z</time>
      </trkpt>
      <trkpt lat="45.17026" lon="5.94817">
        <ele>2498.8</ele>
        <time>2021-02-20T09:49:57Z</time>
      </trkpt>
      <trkpt lat="45.17026" lon="5.94817">
        <ele>2498.8</ele>
        <time>2021-02-20T09:49:58Z</time>
      </trkpt>
      <trkpt lat="45.17026" lon="5.94816">
        <ele>2498.8</ele>
        <time>2021-02-20T09:49:59Z</time>
      </trkpt>
      <trkpt lat="45.17027" lon="5.94816">
        <ele>2498.7</ele>
        <time>2021-02-20T09:50:00Z</time>
      </trkpt>
      <trkpt lat="45.17027" lon="5.94816">
        <ele>2500</ele>
        <time>2021-02-20T09:50:01Z</time>
      </trkpt>
      <trkpt lat="45.17028" lon="5.94816">
        <ele>2500</ele>
        <time>2021-02-20T09:50:02Z</time>
      </trkpt>
      <trkpt lat="45.17028" lon="5.94815">
        <ele>2499.9</ele>
        <time>2021-02-20T09:50:03Z</time>
      </trkpt>
      <trkpt lat="45.17028" lon="5.94815">
        <ele>2498.8</ele>
        <time>2021-02-20T09:50:04Z</time>
      </trkpt>
      <trkpt lat="45.17029" lon="5.94815">
        <ele>2498.8</ele>
        <time>2021-02-20T09:50:05Z</time>
      </trkpt>
      <trkpt lat="45.17029" lon="5.94815">
        <ele>2498.7</ele>
        <time>2021-02-20T09:50:06Z</time>
      </trkpt>
      <trkpt lat="45.17029" lon="5.94814">
        <ele>2498.7</ele>
        <time>2021-02-20T09:50:07Z</time>
      </trkpt>
      <trkpt lat="45.1703" lon="5.94814">
        <ele>2498.7</ele>
        <time>2021-02-20T09:50:08Z</time>
      </trkpt>
      <trkpt lat="45.1703" lon="5.94814">
        <ele>2499.9</ele>
        <time>2021-02-20T09:50:09Z</time>
      </trkpt>
      <trkpt lat="45.1703" lon="5.94813">
        <ele>2499.9</ele>
        <time>2021-02-20T09:50:10Z</time>
      </trkpt>
      <trkpt lat="45.17031" lon="5.94812">
        <ele>2499.8</ele>
        <time>2021-02-20T09:50:11Z</time>
      </trkpt>
      <trkpt lat="45.17031" lon="5.94812">
        <ele>2499.8</ele>
        <time>2021-02-20T09:50:12Z</time>
      </trkpt>
      <trkpt lat="45.17031" lon="5.94811">
        <ele>2498.6</ele>
        <time>2021-02-20T09:50:13Z</time>
      </trkpt>
      <trkpt lat="45.17032" lon="5.9481">
        <ele>2498.6</ele>
        <time>2021-02-20T09:50:14Z</time>
      </trkpt>
      <trkpt lat="45.17032" lon="5.94809">
        <ele>2498.5</ele>
        <time>2021-02-20T09:50:15Z</time>
      </trkpt>
      <trkpt lat="45.17033" lon="5.94809">
        <ele>2498.5</ele>
        <time>2021-02-20T09:50:16Z</time>
      </trkpt>
      <trkpt lat="45.17033" lon="5.94808">
        <ele>2498.5</ele>
        <time>2021-02-20T09:50:17Z</time>
      </trkpt>
      <trkpt lat="45.17033" lon="5.94807">
        <ele>2499.5</ele>
        <time>2021-02-20T09:50:18Z</time>
      </trkpt>
      <trkpt lat="45.17034" lon="5.94807">
        <ele>2498.3</ele>
        <time>2021-02-20T09:50:19Z</time>
      </trkpt>
      <trkpt lat="45.17034" lon="5.94806">
        <ele>2498.3</ele>
        <time>2021-02-20T09:50:20Z</time>
      </trkpt>
      <trkpt lat="45.17034" lon="5.94806">
        <ele>2498.2</ele>
        <time>2021-02-20T09:50:21Z</time>
      </trkpt>
      <trkpt lat="45.17034" lon="5.94805">
        <ele>2498.2</ele>
        <time>2021-02-20T09:50:22Z</time>
      </trkpt>
      <trkpt lat="45.17035" lon="5.94804">
        <ele>2498.2</ele>
        <time>2021-02-20T09:50:23Z</time>
      </trkpt>
      <trkpt lat="45.17035" lon="5.94804">
        <ele>2498.1</ele>
        <time>2021-02-20T09:50:24Z</time>
      </trkpt>
      <trkpt lat="45.17035" lon="5.94803">
        <ele>2498.1</ele>
        <time>2021-02-20T09:50:25Z</time>
      </trkpt>
      <trkpt lat="45.17036" lon="5.94803">
        <ele>2498.1</ele>
        <time>2021-02-20T09:50:26Z</time>
      </trkpt>
      <trkpt lat="45.17036" lon="5.94802">
        <ele>2497</ele>
        <time>2021-02-20T09:50:27Z</time>
      </trkpt>
      <trkpt lat="45.17036" lon="5.94801">
        <ele>2498</ele>
        <time>2021-02-20T09:50:28Z</time>
      </trkpt>
      <trkpt lat="45.17037" lon="5.94801">
        <ele>2498</ele>
        <time>2021-02-20T09:50:29Z</time>
      </trkpt>
      <trkpt lat="45.17037" lon="5.948">
        <ele>2497.9</ele>
        <time>2021-02-20T09:50:30Z</time>
      </trkpt>
      <trkpt lat="45.17037" lon="5.948">
        <ele>2497.9</ele>
        <time>2021-02-20T09:50:31Z</time>
      </trkpt>
      <trkpt lat="45.17037" lon="5.94799">
        <ele>2497.9</ele>
        <time>2021-02-20T09:50:32Z</time>
      </trkpt>
      <trkpt lat="45.17037" lon="5.94799">
        <ele>2497.9</ele>
        <time>2021-02-20T09:50:33Z</time>
      </trkpt>
      <trkpt lat="45.17038" lon="5.94799">
        <ele>2497.8</ele>
        <time>2021-02-20T09:50:34Z</time>
      </trkpt>
      <trkpt lat="45.17038" lon="5.94799">
        <ele>2497.8</ele>
        <time>2021-02-20T09:50:35Z</time>
      </trkpt>
      <trkpt lat="45.17039" lon="5.94798">
        <ele>2497.8</ele>
        <time>2021-02-20T09:50:36Z</time>
      </trkpt>
      <trkpt lat="45.17039" lon="5.94797">
        <ele>2496.8</ele>
        <time>2021-02-20T09:50:37Z</time>
      </trkpt>
      <trkpt lat="45.17039" lon="5.94796">
        <ele>2496.8</ele>
        <time>2021-02-20T09:50:38Z</time>
      </trkpt>
      <trkpt lat="45.17039" lon="5.94796">
        <ele>2497.7</ele>
        <time>2021-02-20T09:50:39Z</time>
      </trkpt>
      <trkpt lat="45.17039" lon="5.94795">
        <ele>2497.7</ele>
        <time>2021-02-20T09:50:40Z</time>
      </trkpt>
      <trkpt lat="45.1704" lon="5.94794">
        <ele>2497.6</ele>
        <time>2021-02-20T09:50:41Z</time>
      </trkpt>
      <trkpt lat="45.1704" lon="5.94794">
        <ele>2497</ele>
        <time>2021-02-20T09:50:42Z</time>
      </trkpt>
      <trkpt lat="45.1704" lon="5.94793">
        <ele>2496.9</ele>
        <time>2021-02-20T09:50:43Z</time>
      </trkpt>
      <trkpt lat="45.1704" lon="5.94792">
        <ele>2496.9</ele>
        <time>2021-02-20T09:50:44Z</time>
      </trkpt>
      <trkpt lat="45.1704" lon="5.94792">
        <ele>2496.9</ele>
        <time>2021-02-20T09:50:45Z</time>
      </trkpt>
      <trkpt lat="45.17041" lon="5.94791">
        <ele>2496.8</ele>
        <time>2021-02-20T09:50:46Z</time>
      </trkpt>
      <trkpt lat="45.17041" lon="5.94792">
        <ele>2496.8</ele>
        <time>2021-02-20T09:50:47Z</time>
      </trkpt>
      <trkpt lat="45.17041" lon="5.94794">
        <ele>2496.8</ele>
        <time>2021-02-20T09:50:48Z</time>
      </trkpt>
      <trkpt lat="45.17041" lon="5.94795">
        <ele>2497.4</ele>
        <time>2021-02-20T09:50:49Z</time>
      </trkpt>
      <trkpt lat="45.17041" lon="5.94797">
        <ele>2497.3</ele>
        <time>2021-02-20T09:50:50Z</time>
      </trkpt>
      <trkpt lat="45.17041" lon="5.94798">
        <ele>2498.2</ele>
        <time>2021-02-20T09:50:51Z</time>
      </trkpt>
      <trkpt lat="45.17041" lon="5.948">
        <ele>2498.2</ele>
        <time>2021-02-20T09:50:52Z</time>
      </trkpt>
      <trkpt lat="45.17041" lon="5.94802">
        <ele>2498.1</ele>
        <time>2021-02-20T09:50:53Z</time>
      </trkpt>
      <trkpt lat="45.17041" lon="5.94803">
        <ele>2499.2</ele>
        <time>2021-02-20T09:50:54Z</time>
      </trkpt>
      <trkpt lat="45.17041" lon="5.94805">
        <ele>2499.2</ele>
        <time>2021-02-20T09:50:55Z</time>
      </trkpt>
      <trkpt lat="45.17041" lon="5.94806">
        <ele>2499.1</ele>
        <time>2021-02-20T09:50:56Z</time>
      </trkpt>
      <trkpt lat="45.17042" lon="5.94808">
        <ele>2500.4</ele>
        <time>2021-02-20T09:50:57Z</time>
      </trkpt>
      <trkpt lat="45.17042" lon="5.94809">
        <ele>2500.3</ele>
        <time>2021-02-20T09:51:28Z</time>
      </trkpt>
      <trkpt lat="45.17042" lon="5.94811">
        <ele>2500.3</ele>
        <time>2021-02-20T09:51:29Z</time>
      </trkpt>
      <trkpt lat="45.17042" lon="5.94813">
        <ele>2501.5</ele>
        <time>2021-02-20T09:51:30Z</time>
      </trkpt>
      <trkpt lat="45.17042" lon="5.94814">
        <ele>2501.4</ele>
        <time>2021-02-20T09:51:31Z</time>
      </trkpt>
      <trkpt lat="45.17042" lon="5.94816">
        <ele>2502.5</ele>
        <time>2021-02-20T09:51:32Z</time>
      </trkpt>
      <trkpt lat="45.17042" lon="5.94816">
        <ele>2502.5</ele>
        <time>2021-02-20T09:51:33Z</time>
      </trkpt>
      <trkpt lat="45.17042" lon="5.94817">
        <ele>2502.4</ele>
        <time>2021-02-20T09:51:34Z</time>
      </trkpt>
      <trkpt lat="45.17041" lon="5.94818">
        <ele>2502.4</ele>
        <time>2021-02-20T09:51:35Z</time>
      </trkpt>
      <trkpt lat="45.17041" lon="5.94818">
        <ele>2502.4</ele>
        <time>2021-02-20T09:51:36Z</time>
      </trkpt>
      <trkpt lat="45.17041" lon="5.94818">
        <ele>2502.3</ele>
        <time>2021-02-20T09:51:37Z</time>
      </trkpt>
      <trkpt lat="45.17041" lon="5.94819">
        <ele>2502.3</ele>
        <time>2021-02-20T09:51:38Z</time>
      </trkpt>
      <trkpt lat="45.17041" lon="5.9482">
        <ele>2502.3</ele>
        <time>2021-02-20T09:51:39Z</time>
      </trkpt>
      <trkpt lat="45.17041" lon="5.9482">
        <ele>2503.3</ele>
        <time>2021-02-20T09:51:40Z</time>
      </trkpt>
      <trkpt lat="45.17041" lon="5.94821">
        <ele>2503.3</ele>
        <time>2021-02-20T09:51:41Z</time>
      </trkpt>
      <trkpt lat="45.17041" lon="5.94822">
        <ele>2503.3</ele>
        <time>2021-02-20T09:51:42Z</time>
      </trkpt>
      <trkpt lat="45.17041" lon="5.94823">
        <ele>2503.2</ele>
        <time>2021-02-20T09:51:43Z</time>
      </trkpt>
      <trkpt lat="45.17041" lon="5.94824">
        <ele>2503.2</ele>
        <time>2021-02-20T09:51:44Z</time>
      </trkpt>
      <trkpt lat="45.17041" lon="5.94824">
        <ele>2504.2</ele>
        <time>2021-02-20T09:51:45Z</time>
      </trkpt>
      <trkpt lat="45.17041" lon="5.94825">
        <ele>2504.1</ele>
        <time>2021-02-20T09:51:46Z</time>
      </trkpt>
      <trkpt lat="45.17041" lon="5.94826">
        <ele>2504.1</ele>
        <time>2021-02-20T09:51:47Z</time>
      </trkpt>
      <trkpt lat="45.17041" lon="5.94827">
        <ele>2504.1</ele>
        <time>2021-02-20T09:51:48Z</time>
      </trkpt>
      <trkpt lat="45.17041" lon="5.94828">
        <ele>2504</ele>
        <time>2021-02-20T09:51:49Z</time>
      </trkpt>
      <trkpt lat="45.1704" lon="5.94828">
        <ele>2504.9</ele>
        <time>2021-02-20T09:51:50Z</time>
      </trkpt>
      <trkpt lat="45.1704" lon="5.94829">
        <ele>2504.9</ele>
        <time>2021-02-20T09:51:51Z</time>
      </trkpt>
      <trkpt lat="45.1704" lon="5.9483">
        <ele>2504.8</ele>
        <time>2021-02-20T09:51:52Z</time>
      </trkpt>
      <trkpt lat="45.1704" lon="5.94831">
        <ele>2504.8</ele>
        <time>2021-02-20T09:51:53Z</time>
      </trkpt>
      <trkpt lat="45.1704" lon="5.94832">
        <ele>2504.8</ele>
        <time>2021-02-20T09:51:54Z</time>
      </trkpt>
      <trkpt lat="45.1704" lon="5.94833">
        <ele>2505.8</ele>
        <time>2021-02-20T09:51:55Z</time>
      </trkpt>
      <trkpt lat="45.17041" lon="5.94833">
        <ele>2505.8</ele>
        <time>2021-02-20T09:51:56Z</time>
      </trkpt>
      <trkpt lat="45.17041" lon="5.94834">
        <ele>2505.8</ele>
        <time>2021-02-20T09:51:57Z</time>
      </trkpt>
      <trkpt lat="45.17041" lon="5.94835">
        <ele>2505.8</ele>
        <time>2021-02-20T09:51:58Z</time>
      </trkpt>
      <trkpt lat="45.17041" lon="5.94836">
        <ele>2505.8</ele>
        <time>2021-02-20T09:51:59Z</time>
      </trkpt>
      <trkpt lat="45.17041" lon="5.94837">
        <ele>2505.8</ele>
        <time>2021-02-20T09:52:00Z</time>
      </trkpt>
      <trkpt lat="45.17042" lon="5.94836">
        <ele>2505.8</ele>
        <time>2021-02-20T09:52:01Z</time>
      </trkpt>
      <trkpt lat="45.17042" lon="5.94835">
        <ele>2506.7</ele>
        <time>2021-02-20T09:52:02Z</time>
      </trkpt>
      <trkpt lat="45.17042" lon="5.94835">
        <ele>2506.7</ele>
        <time>2021-02-20T09:52:03Z</time>
      </trkpt>
      <trkpt lat="45.17043" lon="5.94834">
        <ele>2506.7</ele>
        <time>2021-02-20T09:52:04Z</time>
      </trkpt>
      <trkpt lat="45.17043" lon="5.94833">
        <ele>2506.7</ele>
        <time>2021-02-20T09:52:05Z</time>
      </trkpt>
      <trkpt lat="45.17044" lon="5.94833">
        <ele>2506.7</ele>
        <time>2021-02-20T09:52:06Z</time>
      </trkpt>
      <trkpt lat="45.17044" lon="5.94832">
        <ele>2505.7</ele>
        <time>2021-02-20T09:52:07Z</time>
      </trkpt>
      <trkpt lat="45.17044" lon="5.94831">
        <ele>2505.7</ele>
        <time>2021-02-20T09:52:08Z</time>
      </trkpt>
      <trkpt lat="45.17045" lon="5.94831">
        <ele>2505.7</ele>
        <time>2021-02-20T09:52:09Z</time>
      </trkpt>
      <trkpt lat="45.17045" lon="5.9483">
        <ele>2506.6</ele>
        <time>2021-02-20T09:52:20Z</time>
      </trkpt>
      <trkpt lat="45.17046" lon="5.94829">
        <ele>2506.6</ele>
        <time>2021-02-20T09:52:21Z</time>
      </trkpt>
      <trkpt lat="45.17046" lon="5.94829">
        <ele>2506.6</ele>
        <time>2021-02-20T09:52:22Z</time>
      </trkpt>
      <trkpt lat="45.17046" lon="5.94828">
        <ele>2505.6</ele>
        <time>2021-02-20T09:52:23Z</time>
      </trkpt>
      <trkpt lat="45.17047" lon="5.94827">
        <ele>2505.6</ele>
        <time>2021-02-20T09:52:24Z</time>
      </trkpt>
      <trkpt lat="45.17047" lon="5.94826">
        <ele>2505.6</ele>
        <time>2021-02-20T09:52:25Z</time>
      </trkpt>
      <trkpt lat="45.17048" lon="5.94825">
        <ele>2505.6</ele>
        <time>2021-02-20T09:52:26Z</time>
      </trkpt>
      <trkpt lat="45.17048" lon="5.94825">
        <ele>2505.6</ele>
        <time>2021-02-20T09:52:27Z</time>
      </trkpt>
      <trkpt lat="45.17048" lon="5.94824">
        <ele>2505.4</ele>
        <time>2021-02-20T09:52:28Z</time>
      </trkpt>
      <trkpt lat="45.17048" lon="5.94823">
        <ele>2505.4</ele>
        <time>2021-02-20T09:52:29Z</time>
      </trkpt>
      <trkpt lat="45.17049" lon="5.94823">
        <ele>2505.4</ele>
        <time>2021-02-20T09:52:30Z</time>
      </trkpt>
      <trkpt lat="45.17049" lon="5.94822">
        <ele>2505.4</ele>
        <time>2021-02-20T09:52:31Z</time>
      </trkpt>
      <trkpt lat="45.1705" lon="5.94821">
        <ele>2505.4</ele>
        <time>2021-02-20T09:52:32Z</time>
      </trkpt>
      <trkpt lat="45.1705" lon="5.94821">
        <ele>2505.4</ele>
        <time>2021-02-20T09:52:33Z</time>
      </trkpt>
      <trkpt lat="45.1705" lon="5.9482">
        <ele>2505.4</ele>
        <time>2021-02-20T09:52:34Z</time>
      </trkpt>
      <trkpt lat="45.17051" lon="5.94819">
        <ele>2504.4</ele>
        <time>2021-02-20T09:52:35Z</time>
      </trkpt>
      <trkpt lat="45.17051" lon="5.94819">
        <ele>2505.3</ele>
        <time>2021-02-20T09:52:36Z</time>
      </trkpt>
      <trkpt lat="45.17052" lon="5.94818">
        <ele>2505.3</ele>
        <time>2021-02-20T09:52:37Z</time>
      </trkpt>
      <trkpt lat="45.17052" lon="5.94817">
        <ele>2505.3</ele>
        <time>2021-02-20T09:52:38Z</time>
      </trkpt>
      <trkpt lat="45.17052" lon="5.94816">
        <ele>2505.3</ele>
        <time>2021-02-20T09:52:39Z</time>
      </trkpt>
      <trkpt lat="45.17053" lon="5.94816">
        <ele>2505.3</ele>
        <time>2021-02-20T09:52:40Z</time>
      </trkpt>
      <trkpt lat="45.17053" lon="5.94815">
        <ele>2504.2</ele>
        <time>2021-02-20T09:52:41Z</time>
      </trkpt>
      <trkpt lat="45.17054" lon="5.94815">
        <ele>2504.2</ele>
        <time>2021-02-20T09:52:42Z</time>
      </trkpt>
      <trkpt lat="45.17054" lon="5.94814">
        <ele>2504.2</ele>
        <time>2021-02-20T09:52:43Z</time>
      </trkpt>
      <trkpt lat="45.17054" lon="5.94814">
        <ele>2505</ele>
        <time>2021-02-20T09:52:44Z</time>
      </trkpt>
      <trkpt lat="45.17055" lon="5.94813">
        <ele>2505</ele>
        <time>2021-02-20T09:52:45Z</time>
      </trkpt>
      <trkpt lat="45.17055" lon="5.94812">
        <ele>2505</ele>
        <time>2021-02-20T09:52:46Z</time>
      </trkpt>
      <trkpt lat="45.17055" lon="5.94811">
        <ele>2503.9</ele>
        <time>2021-02-20T09:52:47Z</time>
      </trkpt>
      <trkpt lat="45.17056" lon="5.9481">
        <ele>2503.9</ele>
        <time>2021-02-20T09:52:48Z</time>
      </trkpt>
      <trkpt lat="45.17056" lon="5.94809">
        <ele>2503.9</ele>
        <time>2021-02-20T09:52:49Z</time>
      </trkpt>
      <trkpt lat="45.17056" lon="5.94809">
        <ele>2503.9</ele>
        <time>2021-02-20T09:52:50Z</time>
      </trkpt>
      <trkpt lat="45.17057" lon="5.94808">
        <ele>2503.9</ele>
        <time>2021-02-20T09:52:51Z</time>
      </trkpt>
      <trkpt lat="45.17057" lon="5.94807">
        <ele>2503.9</ele>
        <time>2021-02-20T09:52:52Z</time>
      </trkpt>
      <trkpt lat="45.17057" lon="5.94807">
        <ele>2504.6</ele>
        <time>2021-02-20T09:52:53Z</time>
      </trkpt>
      <trkpt lat="45.17058" lon="5.94806">
        <ele>2503.5</ele>
        <time>2021-02-20T09:52:54Z</time>
      </trkpt>
      <trkpt lat="45.17058" lon="5.94806">
        <ele>2503.5</ele>
        <time>2021-02-20T09:52:55Z</time>
      </trkpt>
      <trkpt lat="45.17059" lon="5.94805">
        <ele>2503.5</ele>
        <time>2021-02-20T09:52:56Z</time>
      </trkpt>
      <trkpt lat="45.17059" lon="5.94804">
        <ele>2503.5</ele>
        <time>2021-02-20T09:52:57Z</time>
      </trkpt>
      <trkpt lat="45.17059" lon="5.94803">
        <ele>2503.5</ele>
        <time>2021-02-20T09:52:58Z</time>
      </trkpt>
      <trkpt lat="45.1706" lon="5.94803">
        <ele>2503.5</ele>
        <time>2021-02-20T09:52:59Z</time>
      </trkpt>
      <trkpt lat="45.1706" lon="5.94802">
        <ele>2503</ele>
        <time>2021-02-20T09:53:00Z</time>
      </trkpt>
      <trkpt lat="45.17061" lon="5.94801">
        <ele>2503</ele>
        <time>2021-02-20T09:53:01Z</time>
      </trkpt>
      <trkpt lat="45.17061" lon="5.94801">
        <ele>2503</ele>
        <time>2021-02-20T09:53:02Z</time>
      </trkpt>
      <trkpt lat="45.17061" lon="5.948">
        <ele>2503</ele>
        <time>2021-02-20T09:53:03Z</time>
      </trkpt>
      <trkpt lat="45.17062" lon="5.94799">
        <ele>2503</ele>
        <time>2021-02-20T09:53:04Z</time>
      </trkpt>
      <trkpt lat="45.17062" lon="5.94799">
        <ele>2503</ele>
        <time>2021-02-20T09:53:05Z</time>
      </trkpt>
      <trkpt lat="45.17063" lon="5.94798">
        <ele>2501.9</ele>
        <time>2021-02-20T09:53:06Z</time>
      </trkpt>
      <trkpt lat="45.17063" lon="5.94797">
        <ele>2501.9</ele>
        <time>2021-02-20T09:53:07Z</time>
      </trkpt>
      <trkpt lat="45.17063" lon="5.94796">
        <ele>2502.2</ele>
        <time>2021-02-20T09:53:08Z</time>
      </trkpt>
      <trkpt lat="45.17064" lon="5.94795">
        <ele>2502.2</ele>
        <time>2021-02-20T09:53:09Z</time>
      </trkpt>
      <trkpt lat="45.17064" lon="5.94795">
        <ele>2502.2</ele>
        <time>2021-02-20T09:53:10Z</time>
      </trkpt>
      <trkpt lat="45.17065" lon="5.94794">
        <ele>2502.2</ele>
        <time>2021-02-20T09:53:11Z</time>
      </trkpt>
      <trkpt lat="45.17065" lon="5.94793">
        <ele>2500.9</ele>
        <time>2021-02-20T09:53:12Z</time>
      </trkpt>
      <trkpt lat="45.17065" lon="5.94793">
        <ele>2500.9</ele>
        <time>2021-02-20T09:53:13Z</time>
      </trkpt>
      <trkpt lat="45.17066" lon="5.94792">
        <ele>2500.9</ele>
        <time>2021-02-20T09:53:14Z</time>
      </trkpt>
      <trkpt lat="45.17066" lon="5.94791">
        <ele>2500.9</ele>
        <time>2021-02-20T09:53:15Z</time>
      </trkpt>
      <trkpt lat="45.17067" lon="5.94791">
        <ele>2500.9</ele>
        <time>2021-02-20T09:53:16Z</time>
      </trkpt>
      <trkpt lat="45.17067" lon="5.9479">
        <ele>2500.9</ele>
        <time>2021-02-20T09:53:17Z</time>
      </trkpt>
      <trkpt lat="45.17067" lon="5.94789">
        <ele>2499.3</ele>
        <time>2021-02-20T09:53:18Z</time>
      </trkpt>
      <trkpt lat="45.17068" lon="5.94789">
        <ele>2499.3</ele>
        <time>2021-02-20T09:53:19Z</time>
      </trkpt>
      <trkpt lat="45.17068" lon="5.94788">
        <ele>2499.3</ele>
        <time>2021-02-20T09:53:20Z</time>
      </trkpt>
      <trkpt lat="45.17069" lon="5.94788">
        <ele>2499.3</ele>
        <time>2021-02-20T09:53:21Z</time>
      </trkpt>
      <trkpt lat="45.17069" lon="5.94787">
        <ele>2499.3</ele>
        <time>2021-02-20T09:53:22Z</time>
      </trkpt>
      <trkpt lat="45.17069" lon="5.94787">
        <ele>2499.3</ele>
        <time>2021-02-20T09:53:23Z</time>
      </trkpt>
      <trkpt lat="45.1707" lon="5.94786">
        <ele>2498.9</ele>
        <time>2021-02-20T09:53:24Z</time>
      </trkpt>
      <trkpt lat="45.1707" lon="5.94786">
        <ele>2498.9</ele>
        <time>2021-02-20T09:53:25Z</time>
      </trkpt>
      <trkpt lat="45.17071" lon="5.94785">
        <ele>2496.6</ele>
        <time>2021-02-20T09:53:26Z</time>
      </trkpt>
      <trkpt lat="45.17071" lon="5.94784">
        <ele>2496.6</ele>
        <time>2021-02-20T09:53:27Z</time>
      </trkpt>
      <trkpt lat="45.17072" lon="5.94784">
        <ele>2496.6</ele>
        <time>2021-02-20T09:53:28Z</time>
      </trkpt>
      <trkpt lat="45.17072" lon="5.94783">
        <ele>2496.6</ele>
        <time>2021-02-20T09:53:29Z</time>
      </trkpt>
      <trkpt lat="45.17072" lon="5.94783">
        <ele>2495.8</ele>
        <time>2021-02-20T09:53:30Z</time>
      </trkpt>
      <trkpt lat="45.17073" lon="5.94782">
        <ele>2495.8</ele>
        <time>2021-02-20T09:53:31Z</time>
      </trkpt>
      <trkpt lat="45.17073" lon="5.94781">
        <ele>2495.8</ele>
        <time>2021-02-20T09:53:32Z</time>
      </trkpt>
      <trkpt lat="45.17074" lon="5.94781">
        <ele>2492.9</ele>
        <time>2021-02-20T09:53:33Z</time>
      </trkpt>
      <trkpt lat="45.17074" lon="5.9478">
        <ele>2492.9</ele>
        <time>2021-02-20T09:53:34Z</time>
      </trkpt>
      <trkpt lat="45.17074" lon="5.94779">
        <ele>2492.9</ele>
        <time>2021-02-20T09:53:35Z</time>
      </trkpt>
      <trkpt lat="45.17075" lon="5.94778">
        <ele>2492.9</ele>
        <time>2021-02-20T09:53:36Z</time>
      </trkpt>
      <trkpt lat="45.17075" lon="5.94778">
        <ele>2492.9</ele>
        <time>2021-02-20T09:53:37Z</time>
      </trkpt>
      <trkpt lat="45.17075" lon="5.94778">
        <ele>2491.6</ele>
        <time>2021-02-20T09:53:38Z</time>
      </trkpt>
      <trkpt lat="45.17075" lon="5.94779">
        <ele>2491.6</ele>
        <time>2021-02-20T09:53:39Z</time>
      </trkpt>
      <trkpt lat="45.17075" lon="5.9478">
        <ele>2491.6</ele>
        <time>2021-02-20T09:53:40Z</time>
      </trkpt>
      <trkpt lat="45.17075" lon="5.9478">
        <ele>2491.6</ele>
        <time>2021-02-20T09:53:41Z</time>
      </trkpt>
      <trkpt lat="45.17076" lon="5.94781">
        <ele>2494.7</ele>
        <time>2021-02-20T09:53:42Z</time>
      </trkpt>
      <trkpt lat="45.17076" lon="5.94782">
        <ele>2494.7</ele>
        <time>2021-02-20T09:53:43Z</time>
      </trkpt>
      <trkpt lat="45.17076" lon="5.94783">
        <ele>2494.7</ele>
        <time>2021-02-20T09:53:44Z</time>
      </trkpt>
      <trkpt lat="45.17076" lon="5.94783">
        <ele>2494.7</ele>
        <time>2021-02-20T09:53:45Z</time>
      </trkpt>
      <trkpt lat="45.17076" lon="5.94784">
        <ele>2494.7</ele>
        <time>2021-02-20T09:53:46Z</time>
      </trkpt>
      <trkpt lat="45.17076" lon="5.94785">
        <ele>2494.7</ele>
        <time>2021-02-20T09:53:47Z</time>
      </trkpt>
      <trkpt lat="45.17076" lon="5.94786">
        <ele>2497.4</ele>
        <time>2021-02-20T09:53:48Z</time>
      </trkpt>
      <trkpt lat="45.17076" lon="5.94786">
        <ele>2497.4</ele>
        <time>2021-02-20T09:53:49Z</time>
      </trkpt>
      <trkpt lat="45.17076" lon="5.94787">
        <ele>2497.4</ele>
        <time>2021-02-20T09:53:55Z</time>
      </trkpt>
      <trkpt lat="45.17076" lon="5.94788">
        <ele>2497.4</ele>
        <time>2021-02-20T09:53:56Z</time>
      </trkpt>
      <trkpt lat="45.17076" lon="5.94789">
        <ele>2497.4</ele>
        <time>2021-02-20T09:53:57Z</time>
      </trkpt>
      <trkpt lat="45.17076" lon="5.94789">
        <ele>2497.4</ele>
        <time>2021-02-20T09:53:58Z</time>
      </trkpt>
      <trkpt lat="45.17076" lon="5.9479">
        <ele>2499.7</ele>
        <time>2021-02-20T09:53:59Z</time>
      </trkpt>
      <trkpt lat="45.17076" lon="5.94792">
        <ele>2499.7</ele>
        <time>2021-02-20T09:54:00Z</time>
      </trkpt>
      <trkpt lat="45.17077" lon="5.94793">
        <ele>2499.7</ele>
        <time>2021-02-20T09:54:01Z</time>
      </trkpt>
      <trkpt lat="45.17077" lon="5.94794">
        <ele>2501.8</ele>
        <time>2021-02-20T09:54:02Z</time>
      </trkpt>
      <trkpt lat="45.17077" lon="5.94795">
        <ele>2501.8</ele>
        <time>2021-02-20T09:54:03Z</time>
      </trkpt>
      <trkpt lat="45.17077" lon="5.94796">
        <ele>2501.8</ele>
        <time>2021-02-20T09:54:04Z</time>
      </trkpt>
      <trkpt lat="45.17078" lon="5.94797">
        <ele>2501.8</ele>
        <time>2021-02-20T09:54:05Z</time>
      </trkpt>
      <trkpt lat="45.17078" lon="5.94798">
        <ele>2501.8</ele>
        <time>2021-02-20T09:54:06Z</time>
      </trkpt>
      <trkpt lat="45.17078" lon="5.94799">
        <ele>2503.6</ele>
        <time>2021-02-20T09:54:07Z</time>
      </trkpt>
      <trkpt lat="45.17078" lon="5.948">
        <ele>2503.6</ele>
        <time>2021-02-20T09:54:08Z</time>
      </trkpt>
      <trkpt lat="45.17078" lon="5.94801">
        <ele>2503.6</ele>
        <time>2021-02-20T09:54:09Z</time>
      </trkpt>
      <trkpt lat="45.17078" lon="5.94802">
        <ele>2503.6</ele>
        <time>2021-02-20T09:54:10Z</time>
      </trkpt>
      <trkpt lat="45.17078" lon="5.94803">
        <ele>2504.9</ele>
        <time>2021-02-20T09:54:11Z</time>
      </trkpt>
      <trkpt lat="45.17078" lon="5.94804">
        <ele>2504.9</ele>
        <time>2021-02-20T09:54:12Z</time>
      </trkpt>
      <trkpt lat="45.17079" lon="5.94805">
        <ele>2504.9</ele>
        <time>2021-02-20T09:54:13Z</time>
      </trkpt>
      <trkpt lat="45.17079" lon="5.94805">
        <ele>2504.9</ele>
        <time>2021-02-20T09:54:14Z</time>
      </trkpt>
      <trkpt lat="45.17079" lon="5.94806">
        <ele>2504.9</ele>
        <time>2021-02-20T09:54:15Z</time>
      </trkpt>
      <trkpt lat="45.17079" lon="5.94807">
        <ele>2504.9</ele>
        <time>2021-02-20T09:54:16Z</time>
      </trkpt>
      <trkpt lat="45.17079" lon="5.94807">
        <ele>2506.4</ele>
        <time>2021-02-20T09:54:17Z</time>
      </trkpt>
      <trkpt lat="45.17079" lon="5.94808">
        <ele>2506.4</ele>
        <time>2021-02-20T09:54:18Z</time>
      </trkpt>
      <trkpt lat="45.1708" lon="5.94809">
        <ele>2506.4</ele>
        <time>2021-02-20T09:54:19Z</time>
      </trkpt>
      <trkpt lat="45.1708" lon="5.94809">
        <ele>2506.4</ele>
        <time>2021-02-20T09:54:20Z</time>
      </trkpt>
      <trkpt lat="45.1708" lon="5.9481">
        <ele>2506.4</ele>
        <time>2021-02-20T09:54:21Z</time>
      </trkpt>
      <trkpt lat="45.1708" lon="5.94811">
        <ele>2506.4</ele>
        <time>2021-02-20T09:54:22Z</time>
      </trkpt>
      <trkpt lat="45.17079" lon="5.94811">
        <ele>2507.6</ele>
        <time>2021-02-20T09:54:23Z</time>
      </trkpt>
      <trkpt lat="45.17079" lon="5.94812">
        <ele>2507.6</ele>
        <time>2021-02-20T09:54:24Z</time>
      </trkpt>
      <trkpt lat="45.17079" lon="5.94813">
        <ele>2507.6</ele>
        <time>2021-02-20T09:54:25Z</time>
      </trkpt>
      <trkpt lat="45.17079" lon="5.94814">
        <ele>2507.6</ele>
        <time>2021-02-20T09:54:26Z</time>
      </trkpt>
      <trkpt lat="45.1708" lon="5.94815">
        <ele>2507.6</ele>
        <time>2021-02-20T09:54:27Z</time>
      </trkpt>
      <trkpt lat="45.1708" lon="5.94816">
        <ele>2508.8</ele>
        <time>2021-02-20T09:54:28Z</time>
      </trkpt>
      <trkpt lat="45.1708" lon="5.94817">
        <ele>2508.8</ele>
        <time>2021-02-20T09:54:29Z</time>
      </trkpt>
      <trkpt lat="45.1708" lon="5.94817">
        <ele>2508.8</ele>
        <time>2021-02-20T09:54:30Z</time>
      </trkpt>
      <trkpt lat="45.1708" lon="5.94817">
        <ele>2508.8</ele>
        <time>2021-02-20T09:54:31Z</time>
      </trkpt>
      <trkpt lat="45.17081" lon="5.94817">
        <ele>2508.8</ele>
        <time>2021-02-20T09:54:32Z</time>
      </trkpt>
      <trkpt lat="45.17082" lon="5.94817">
        <ele>2508.7</ele>
        <time>2021-02-20T09:54:33Z</time>
      </trkpt>
      <trkpt lat="45.17082" lon="5.94817">
        <ele>2508.7</ele>
        <time>2021-02-20T09:54:34Z</time>
      </trkpt>
      <trkpt lat="45.17083" lon="5.94816">
        <ele>2508.7</ele>
        <time>2021-02-20T09:54:35Z</time>
      </trkpt>
      <trkpt lat="45.17084" lon="5.94816">
        <ele>2508.7</ele>
        <time>2021-02-20T09:54:36Z</time>
      </trkpt>
      <trkpt lat="45.17084" lon="5.94816">
        <ele>2508.7</ele>
        <time>2021-02-20T09:55:00Z</time>
      </trkpt>
      <trkpt lat="45.17085" lon="5.94816">
        <ele>2508.5</ele>
        <time>2021-02-20T09:55:01Z</time>
      </trkpt>
      <trkpt lat="45.17085" lon="5.94816">
        <ele>2508.5</ele>
        <time>2021-02-20T09:55:02Z</time>
      </trkpt>
      <trkpt lat="45.17086" lon="5.94815">
        <ele>2508.5</ele>
        <time>2021-02-20T09:55:03Z</time>
      </trkpt>
      <trkpt lat="45.17087" lon="5.94815">
        <ele>2507.2</ele>
        <time>2021-02-20T09:55:04Z</time>
      </trkpt>
      <trkpt lat="45.17087" lon="5.94815">
        <ele>2506.8</ele>
        <time>2021-02-20T09:55:05Z</time>
      </trkpt>
      <trkpt lat="45.17088" lon="5.94815">
        <ele>2506.8</ele>
        <time>2021-02-20T09:55:06Z</time>
      </trkpt>
      <trkpt lat="45.17088" lon="5.94815">
        <ele>2508.2</ele>
        <time>2021-02-20T09:55:07Z</time>
      </trkpt>
      <trkpt lat="45.17088" lon="5.94816">
        <ele>2508.2</ele>
        <time>2021-02-20T09:55:08Z</time>
      </trkpt>
      <trkpt lat="45.17088" lon="5.94817">
        <ele>2508.2</ele>
        <time>2021-02-20T09:55:09Z</time>
      </trkpt>
      <trkpt lat="45.17088" lon="5.94818">
        <ele>2508.2</ele>
        <time>2021-02-20T09:55:10Z</time>
      </trkpt>
      <trkpt lat="45.17088" lon="5.94819">
        <ele>2508.2</ele>
        <time>2021-02-20T09:55:11Z</time>
      </trkpt>
      <trkpt lat="45.17088" lon="5.9482">
        <ele>2509.4</ele>
        <time>2021-02-20T09:55:12Z</time>
      </trkpt>
      <trkpt lat="45.17088" lon="5.94821">
        <ele>2509.4</ele>
        <time>2021-02-20T09:55:13Z</time>
      </trkpt>
      <trkpt lat="45.17088" lon="5.94821">
        <ele>2509.4</ele>
        <time>2021-02-20T09:55:14Z</time>
      </trkpt>
      <trkpt lat="45.17088" lon="5.94823">
        <ele>2509.4</ele>
        <time>2021-02-20T09:55:15Z</time>
      </trkpt>
      <trkpt lat="45.17088" lon="5.94823">
        <ele>2509.4</ele>
        <time>2021-02-20T09:55:16Z</time>
      </trkpt>
      <trkpt lat="45.17087" lon="5.94824">
        <ele>2510.7</ele>
        <time>2021-02-20T09:55:17Z</time>
      </trkpt>
      <trkpt lat="45.17087" lon="5.94825">
        <ele>2510.7</ele>
        <time>2021-02-20T09:55:18Z</time>
      </trkpt>
      <trkpt lat="45.17086" lon="5.94826">
        <ele>2510.7</ele>
        <time>2021-02-20T09:55:19Z</time>
      </trkpt>
      <trkpt lat="45.17086" lon="5.94827">
        <ele>2510.7</ele>
        <time>2021-02-20T09:55:20Z</time>
      </trkpt>
      <trkpt lat="45.17085" lon="5.94828">
        <ele>2510.7</ele>
        <time>2021-02-20T09:55:21Z</time>
      </trkpt>
      <trkpt lat="45.17085" lon="5.94828">
        <ele>2511.8</ele>
        <time>2021-02-20T09:55:22Z</time>
      </trkpt>
      <trkpt lat="45.17084" lon="5.94829">
        <ele>2511.8</ele>
        <time>2021-02-20T09:55:23Z</time>
      </trkpt>
      <trkpt lat="45.17084" lon="5.9483">
        <ele>2511.9</ele>
        <time>2021-02-20T09:55:24Z</time>
      </trkpt>
      <trkpt lat="45.17083" lon="5.9483">
        <ele>2511.9</ele>
        <time>2021-02-20T09:55:25Z</time>
      </trkpt>
      <trkpt lat="45.17083" lon="5.94831">
        <ele>2511.9</ele>
        <time>2021-02-20T09:55:26Z</time>
      </trkpt>
      <trkpt lat="45.17082" lon="5.94831">
        <ele>2511.9</ele>
        <time>2021-02-20T09:55:27Z</time>
      </trkpt>
      <trkpt lat="45.17082" lon="5.94831">
        <ele>2511.9</ele>
        <time>2021-02-20T09:55:28Z</time>
      </trkpt>
      <trkpt lat="45.17081" lon="5.94832">
        <ele>2511.8</ele>
        <time>2021-02-20T09:55:29Z</time>
      </trkpt>
      <trkpt lat="45.17081" lon="5.94832">
        <ele>2511.8</ele>
        <time>2021-02-20T09:55:30Z</time>
      </trkpt>
      <trkpt lat="45.1708" lon="5.94832">
        <ele>2511.8</ele>
        <time>2021-02-20T09:55:31Z</time>
      </trkpt>
      <trkpt lat="45.1708" lon="5.94833">
        <ele>2512.9</ele>
        <time>2021-02-20T09:55:49Z</time>
      </trkpt>
      <trkpt lat="45.1708" lon="5.94833">
        <ele>2512.9</ele>
        <time>2021-02-20T09:55:50Z</time>
      </trkpt>
      <trkpt lat="45.17079" lon="5.94833">
        <ele>2512.9</ele>
        <time>2021-02-20T09:55:51Z</time>
      </trkpt>
      <trkpt lat="45.17079" lon="5.94834">
        <ele>2512.9</ele>
        <time>2021-02-20T09:55:52Z</time>
      </trkpt>
      <trkpt lat="45.17078" lon="5.94834">
        <ele>2512.9</ele>
        <time>2021-02-20T09:55:53Z</time>
      </trkpt>
      <trkpt lat="45.17078" lon="5.94835">
        <ele>2512.8</ele>
        <time>2021-02-20T09:55:54Z</time>
      </trkpt>
      <trkpt lat="45.17078" lon="5.94835">
        <ele>2512.8</ele>
        <time>2021-02-20T09:55:55Z</time>
      </trkpt>
      <trkpt lat="45.17077" lon="5.94835">
        <ele>2512.8</ele>
        <time>2021-02-20T09:55:56Z</time>
      </trkpt>
      <trkpt lat="45.17077" lon="5.94836">
        <ele>2512.8</ele>
        <time>2021-02-20T09:55:57Z</time>
      </trkpt>
      <trkpt lat="45.17076" lon="5.94838">
        <ele>2514</ele>
        <time>2021-02-20T09:55:58Z</time>
      </trkpt>
      <trkpt lat="45.17076" lon="5.94839">
        <ele>2514</ele>
        <time>2021-02-20T09:55:59Z</time>
      </trkpt>
      <trkpt lat="45.17076" lon="5.94841">
        <ele>2514</ele>
        <time>2021-02-20T09:56:46Z</time>
      </trkpt>
      <trkpt lat="45.17076" lon="5.94843">
        <ele>2515.2</ele>
        <time>2021-02-20T09:56:47Z</time>
      </trkpt>
      <trkpt lat="45.17076" lon="5.94844">
        <ele>2515.2</ele>
        <time>2021-02-20T09:56:48Z</time>
      </trkpt>
      <trkpt lat="45.17075" lon="5.94846">
        <ele>2516.6</ele>
        <time>2021-02-20T09:56:49Z</time>
      </trkpt>
      <trkpt lat="45.17075" lon="5.94848">
        <ele>2516.4</ele>
        <time>2021-02-20T09:56:50Z</time>
      </trkpt>
      <trkpt lat="45.17075" lon="5.94849">
        <ele>2516.4</ele>
        <time>2021-02-20T09:56:51Z</time>
      </trkpt>
      <trkpt lat="45.17075" lon="5.94851">
        <ele>2517.9</ele>
        <time>2021-02-20T09:56:52Z</time>
      </trkpt>
      <trkpt lat="45.17075" lon="5.94852">
        <ele>2517.9</ele>
        <time>2021-02-20T09:56:53Z</time>
      </trkpt>
      <trkpt lat="45.17075" lon="5.94853">
        <ele>2517.9</ele>
        <time>2021-02-20T09:56:54Z</time>
      </trkpt>
      <trkpt lat="45.17075" lon="5.94854">
        <ele>2519.4</ele>
        <time>2021-02-20T09:56:55Z</time>
      </trkpt>
      <trkpt lat="45.17075" lon="5.94855">
        <ele>2519.4</ele>
        <time>2021-02-20T09:56:56Z</time>
      </trkpt>
      <trkpt lat="45.17075" lon="5.94855">
        <ele>2519.4</ele>
        <time>2021-02-20T09:56:57Z</time>
      </trkpt>
      <trkpt lat="45.17075" lon="5.94856">
        <ele>2519.4</ele>
        <time>2021-02-20T09:56:58Z</time>
      </trkpt>
      <trkpt lat="45.17075" lon="5.94857">
        <ele>2519.4</ele>
        <time>2021-02-20T09:56:59Z</time>
      </trkpt>
      <trkpt lat="45.17075" lon="5.94859">
        <ele>2521.1</ele>
        <time>2021-02-20T09:57:00Z</time>
      </trkpt>
      <trkpt lat="45.17076" lon="5.94859">
        <ele>2521.1</ele>
        <time>2021-02-20T09:57:01Z</time>
      </trkpt>
      <trkpt lat="45.17076" lon="5.94861">
        <ele>2521.1</ele>
        <time>2021-02-20T09:57:02Z</time>
      </trkpt>
      <trkpt lat="45.17076" lon="5.94861">
        <ele>2521.1</ele>
        <time>2021-02-20T09:57:03Z</time>
      </trkpt>
      <trkpt lat="45.17076" lon="5.94862">
        <ele>2521.1</ele>
        <time>2021-02-20T09:57:04Z</time>
      </trkpt>
      <trkpt lat="45.17076" lon="5.94862">
        <ele>2521.1</ele>
        <time>2021-02-20T09:57:05Z</time>
      </trkpt>
      <trkpt lat="45.17077" lon="5.94863">
        <ele>2522.6</ele>
        <time>2021-02-20T09:57:06Z</time>
      </trkpt>
      <trkpt lat="45.17077" lon="5.94864">
        <ele>2522.6</ele>
        <time>2021-02-20T09:57:07Z</time>
      </trkpt>
      <trkpt lat="45.17077" lon="5.94864">
        <ele>2522.6</ele>
        <time>2021-02-20T09:57:08Z</time>
      </trkpt>
      <trkpt lat="45.17077" lon="5.94865">
        <ele>2522.6</ele>
        <time>2021-02-20T09:57:09Z</time>
      </trkpt>
      <trkpt lat="45.17077" lon="5.94865">
        <ele>2522.6</ele>
        <time>2021-02-20T09:57:10Z</time>
      </trkpt>
      <trkpt lat="45.17077" lon="5.94866">
        <ele>2522.6</ele>
        <time>2021-02-20T09:57:58Z</time>
      </trkpt>
      <trkpt lat="45.17077" lon="5.94866">
        <ele>2522.6</ele>
        <time>2021-02-20T09:57:59Z</time>
      </trkpt>
      <trkpt lat="45.17077" lon="5.94867">
        <ele>2524.2</ele>
        <time>2021-02-20T09:58:00Z</time>
      </trkpt>
      <trkpt lat="45.17077" lon="5.94868">
        <ele>2524.2</ele>
        <time>2021-02-20T09:58:01Z</time>
      </trkpt>
      <trkpt lat="45.17077" lon="5.94868">
        <ele>2524.2</ele>
        <time>2021-02-20T09:58:02Z</time>
      </trkpt>
      <trkpt lat="45.17077" lon="5.9487">
        <ele>2524.2</ele>
        <time>2021-02-20T09:58:03Z</time>
      </trkpt>
      <trkpt lat="45.17077" lon="5.9487">
        <ele>2524.2</ele>
        <time>2021-02-20T09:58:04Z</time>
      </trkpt>
      <trkpt lat="45.17077" lon="5.9487">
        <ele>2524.2</ele>
        <time>2021-02-20T09:58:05Z</time>
      </trkpt>
      <trkpt lat="45.17076" lon="5.9487">
        <ele>2524.2</ele>
        <time>2021-02-20T09:58:06Z</time>
      </trkpt>
      <trkpt lat="45.17076" lon="5.9487">
        <ele>2524.2</ele>
        <time>2021-02-20T09:58:07Z</time>
      </trkpt>
      <trkpt lat="45.17076" lon="5.94871">
        <ele>2525.8</ele>
        <time>2021-02-20T09:58:08Z</time>
      </trkpt>
      <trkpt lat="45.17076" lon="5.94872">
        <ele>2525.8</ele>
        <time>2021-02-20T09:58:09Z</time>
      </trkpt>
      <trkpt lat="45.17076" lon="5.94871">
        <ele>2525.8</ele>
        <time>2021-02-20T09:58:10Z</time>
      </trkpt>
      <trkpt lat="45.17076" lon="5.94871">
        <ele>2525.8</ele>
        <time>2021-02-20T09:58:11Z</time>
      </trkpt>
      <trkpt lat="45.17076" lon="5.94871">
        <ele>2524.2</ele>
        <time>2021-02-20T09:58:12Z</time>
      </trkpt>
      <trkpt lat="45.17077" lon="5.94871">
        <ele>2524.2</ele>
        <time>2021-02-20T09:58:13Z</time>
      </trkpt>
      <trkpt lat="45.17077" lon="5.94871">
        <ele>2524.2</ele>
        <time>2021-02-20T09:58:14Z</time>
      </trkpt>
      <trkpt lat="45.17077" lon="5.9487">
        <ele>2524.2</ele>
        <time>2021-02-20T09:58:15Z</time>
      </trkpt>
      <trkpt lat="45.17078" lon="5.9487">
        <ele>2524.2</ele>
        <time>2021-02-20T09:58:16Z</time>
      </trkpt>
      <trkpt lat="45.17078" lon="5.9487">
        <ele>2524.2</ele>
        <time>2021-02-20T09:58:17Z</time>
      </trkpt>
      <trkpt lat="45.17078" lon="5.9487">
        <ele>2524.2</ele>
        <time>2021-02-20T09:58:18Z</time>
      </trkpt>
      <trkpt lat="45.17078" lon="5.9487">
        <ele>2524.3</ele>
        <time>2021-02-20T09:58:19Z</time>
      </trkpt>
      <trkpt lat="45.17079" lon="5.94869">
        <ele>2524.3</ele>
        <time>2021-02-20T09:58:20Z</time>
      </trkpt>
      <trkpt lat="45.17079" lon="5.94869">
        <ele>2524.3</ele>
        <time>2021-02-20T09:58:21Z</time>
      </trkpt>
      <trkpt lat="45.17079" lon="5.94869">
        <ele>2524.3</ele>
        <time>2021-02-20T09:58:22Z</time>
      </trkpt>
      <trkpt lat="45.1708" lon="5.94869">
        <ele>2524.3</ele>
        <time>2021-02-20T09:58:23Z</time>
      </trkpt>
      <trkpt lat="45.1708" lon="5.94869">
        <ele>2524.3</ele>
        <time>2021-02-20T09:58:45Z</time>
      </trkpt>
      <trkpt lat="45.1708" lon="5.94868">
        <ele>2524.3</ele>
        <time>2021-02-20T09:58:46Z</time>
      </trkpt>
      <trkpt lat="45.1708" lon="5.94868">
        <ele>2524.3</ele>
        <time>2021-02-20T09:58:47Z</time>
      </trkpt>
      <trkpt lat="45.17081" lon="5.94868">
        <ele>2524.3</ele>
        <time>2021-02-20T09:58:48Z</time>
      </trkpt>
      <trkpt lat="45.17081" lon="5.94868">
        <ele>2524.3</ele>
        <time>2021-02-20T09:58:49Z</time>
      </trkpt>
      <trkpt lat="45.17081" lon="5.94867">
        <ele>2524.4</ele>
        <time>2021-02-20T09:58:50Z</time>
      </trkpt>
      <trkpt lat="45.17082" lon="5.94867">
        <ele>2524.4</ele>
        <time>2021-02-20T09:58:51Z</time>
      </trkpt>
      <trkpt lat="45.17082" lon="5.94867">
        <ele>2522.8</ele>
        <time>2021-02-20T09:58:52Z</time>
      </trkpt>
      <trkpt lat="45.17083" lon="5.94866">
        <ele>2522.8</ele>
        <time>2021-02-20T09:58:53Z</time>
      </trkpt>
      <trkpt lat="45.17084" lon="5.94865">
        <ele>2522.8</ele>
        <time>2021-02-20T09:58:54Z</time>
      </trkpt>
      <trkpt lat="45.17084" lon="5.94866">
        <ele>2522.8</ele>
        <time>2021-02-20T09:58:55Z</time>
      </trkpt>
      <trkpt lat="45.17084" lon="5.94866">
        <ele>2522.8</ele>
        <time>2021-02-20T09:58:56Z</time>
      </trkpt>
      <trkpt lat="45.17084" lon="5.94866">
        <ele>2522.8</ele>
        <time>2021-02-20T09:58:57Z</time>
      </trkpt>
      <trkpt lat="45.17084" lon="5.94867">
        <ele>2524.4</ele>
        <time>2021-02-20T09:58:58Z</time>
      </trkpt>
      <trkpt lat="45.17084" lon="5.94867">
        <ele>2524.4</ele>
        <time>2021-02-20T09:58:59Z</time>
      </trkpt>
      <trkpt lat="45.17083" lon="5.94868">
        <ele>2524.4</ele>
        <time>2021-02-20T09:59:00Z</time>
      </trkpt>
      <trkpt lat="45.17083" lon="5.94868">
        <ele>2524.4</ele>
        <time>2021-02-20T09:59:01Z</time>
      </trkpt>
      <trkpt lat="45.17083" lon="5.94869">
        <ele>2524.4</ele>
        <time>2021-02-20T09:59:02Z</time>
      </trkpt>
      <trkpt lat="45.17083" lon="5.94869">
        <ele>2524.4</ele>
        <time>2021-02-20T09:59:03Z</time>
      </trkpt>
      <trkpt lat="45.17083" lon="5.94869">
        <ele>2524.4</ele>
        <time>2021-02-20T09:59:04Z</time>
      </trkpt>
      <trkpt lat="45.17083" lon="5.9487">
        <ele>2524.4</ele>
        <time>2021-02-20T09:59:09Z</time>
      </trkpt>
      <trkpt lat="45.17083" lon="5.9487">
        <ele>2524.4</ele>
        <time>2021-02-20T09:59:10Z</time>
      </trkpt>
      <trkpt lat="45.17083" lon="5.94871">
        <ele>2524.4</ele>
        <time>2021-02-20T09:59:11Z</time>
      </trkpt>
      <trkpt lat="45.17083" lon="5.94871">
        <ele>2526</ele>
        <time>2021-02-20T09:59:12Z</time>
      </trkpt>
      <trkpt lat="45.17083" lon="5.94872">
        <ele>2526</ele>
        <time>2021-02-20T09:59:13Z</time>
      </trkpt>
      <trkpt lat="45.17082" lon="5.94872">
        <ele>2526</ele>
        <time>2021-02-20T09:59:14Z</time>
      </trkpt>
      <trkpt lat="45.17082" lon="5.94873">
        <ele>2526</ele>
        <time>2021-02-20T09:59:15Z</time>
      </trkpt>
      <trkpt lat="45.17081" lon="5.94874">
        <ele>2525.9</ele>
        <time>2021-02-20T09:59:16Z</time>
      </trkpt>
      <trkpt lat="45.17081" lon="5.94875">
        <ele>2525.9</ele>
        <time>2021-02-20T09:59:17Z</time>
      </trkpt>
      <trkpt lat="45.1708" lon="5.94875">
        <ele>2525.9</ele>
        <time>2021-02-20T09:59:18Z</time>
      </trkpt>
      <trkpt lat="45.1708" lon="5.94876">
        <ele>2527.6</ele>
        <time>2021-02-20T09:59:19Z</time>
      </trkpt>
      <trkpt lat="45.17079" lon="5.94877">
        <ele>2527.6</ele>
        <time>2021-02-20T09:59:20Z</time>
      </trkpt>
      <trkpt lat="45.17078" lon="5.94877">
        <ele>2527.6</ele>
        <time>2021-02-20T09:59:21Z</time>
      </trkpt>
      <trkpt lat="45.17078" lon="5.94878">
        <ele>2527.4</ele>
        <time>2021-02-20T09:59:22Z</time>
      </trkpt>
      <trkpt lat="45.17078" lon="5.94879">
        <ele>2527.4</ele>
        <time>2021-02-20T09:59:23Z</time>
      </trkpt>
      <trkpt lat="45.17078" lon="5.9488">
        <ele>2527.4</ele>
        <time>2021-02-20T09:59:24Z</time>
      </trkpt>
      <trkpt lat="45.17078" lon="5.94881">
        <ele>2529.1</ele>
        <time>2021-02-20T09:59:25Z</time>
      </trkpt>
      <trkpt lat="45.17077" lon="5.94882">
        <ele>2529.1</ele>
        <time>2021-02-20T09:59:26Z</time>
      </trkpt>
      <trkpt lat="45.17077" lon="5.94883">
        <ele>2529.1</ele>
        <time>2021-02-20T09:59:27Z</time>
      </trkpt>
      <trkpt lat="45.17077" lon="5.94884">
        <ele>2529.1</ele>
        <time>2021-02-20T09:59:28Z</time>
      </trkpt>
      <trkpt lat="45.17077" lon="5.94884">
        <ele>2531</ele>
        <time>2021-02-20T09:59:29Z</time>
      </trkpt>
      <trkpt lat="45.17077" lon="5.94885">
        <ele>2531</ele>
        <time>2021-02-20T09:59:30Z</time>
      </trkpt>
      <trkpt lat="45.17077" lon="5.94885">
        <ele>2531</ele>
        <time>2021-02-20T09:59:31Z</time>
      </trkpt>
      <trkpt lat="45.17077" lon="5.94886">
        <ele>2531</ele>
        <time>2021-02-20T09:59:32Z</time>
      </trkpt>
      <trkpt lat="45.17076" lon="5.94886">
        <ele>2531</ele>
        <time>2021-02-20T09:59:33Z</time>
      </trkpt>
      <trkpt lat="45.17076" lon="5.94886">
        <ele>2531</ele>
        <time>2021-02-20T09:59:34Z</time>
      </trkpt>
      <trkpt lat="45.17076" lon="5.94887">
        <ele>2531</ele>
        <time>2021-02-20T09:59:35Z</time>
      </trkpt>
      <trkpt lat="45.17076" lon="5.94887">
        <ele>2531</ele>
        <time>2021-02-20T09:59:36Z</time>
      </trkpt>
      <trkpt lat="45.17076" lon="5.94888">
        <ele>2531</ele>
        <time>2021-02-20T09:59:37Z</time>
      </trkpt>
      <trkpt lat="45.17075" lon="5.94888">
        <ele>2532.9</ele>
        <time>2021-02-20T09:59:38Z</time>
      </trkpt>
      <trkpt lat="45.17075" lon="5.94888">
        <ele>2532.9</ele>
        <time>2021-02-20T09:59:39Z</time>
      </trkpt>
      <trkpt lat="45.17075" lon="5.94889">
        <ele>2532.6</ele>
        <time>2021-02-20T09:59:40Z</time>
      </trkpt>
      <trkpt lat="45.17075" lon="5.9489">
        <ele>2532.6</ele>
        <time>2021-02-20T09:59:41Z</time>
      </trkpt>
      <trkpt lat="45.17075" lon="5.94891">
        <ele>2532.6</ele>
        <time>2021-02-20T09:59:42Z</time>
      </trkpt>
      <trkpt lat="45.17075" lon="5.94893">
        <ele>2532.6</ele>
        <time>2021-02-20T09:59:43Z</time>
      </trkpt>
      <trkpt lat="45.17075" lon="5.94894">
        <ele>2534.6</ele>
        <time>2021-02-20T09:59:44Z</time>
      </trkpt>
      <trkpt lat="45.17074" lon="5.94895">
        <ele>2534.6</ele>
        <time>2021-02-20T09:59:45Z</time>
      </trkpt>
      <trkpt lat="45.17074" lon="5.94896">
        <ele>2534.6</ele>
        <time>2021-02-20T09:59:46Z</time>
      </trkpt>
      <trkpt lat="45.17074" lon="5.94896">
        <ele>2534.6</ele>
        <time>2021-02-20T09:59:47Z</time>
      </trkpt>
      <trkpt lat="45.17074" lon="5.94897">
        <ele>2534.6</ele>
        <time>2021-02-20T09:59:48Z</time>
      </trkpt>
      <trkpt lat="45.17074" lon="5.94897">
        <ele>2536.6</ele>
        <time>2021-02-20T09:59:49Z</time>
      </trkpt>
      <trkpt lat="45.17074" lon="5.94898">
        <ele>2536.6</ele>
        <time>2021-02-20T09:59:50Z</time>
      </trkpt>
      <trkpt lat="45.17074" lon="5.94899">
        <ele>2536.6</ele>
        <time>2021-02-20T09:59:51Z</time>
      </trkpt>
      <trkpt lat="45.17074" lon="5.949">
        <ele>2536.6</ele>
        <time>2021-02-20T09:59:52Z</time>
      </trkpt>
      <trkpt lat="45.17074" lon="5.94901">
        <ele>2538.7</ele>
        <time>2021-02-20T09:59:53Z</time>
      </trkpt>
      <trkpt lat="45.17074" lon="5.94902">
        <ele>2538.7</ele>
        <time>2021-02-20T09:59:54Z</time>
      </trkpt>
      <trkpt lat="45.17074" lon="5.94902">
        <ele>2538.7</ele>
        <time>2021-02-20T09:59:55Z</time>
      </trkpt>
      <trkpt lat="45.17075" lon="5.94902">
        <ele>2538.7</ele>
        <time>2021-02-20T09:59:56Z</time>
      </trkpt>
      <trkpt lat="45.17075" lon="5.94902">
        <ele>2538.7</ele>
        <time>2021-02-20T09:59:57Z</time>
      </trkpt>
      <trkpt lat="45.17075" lon="5.94902">
        <ele>2538.7</ele>
        <time>2021-02-20T09:59:58Z</time>
      </trkpt>
      <trkpt lat="45.17076" lon="5.94902">
        <ele>2539.2</ele>
        <time>2021-02-20T09:59:59Z</time>
      </trkpt>
      <trkpt lat="45.17076" lon="5.94903">
        <ele>2539.2</ele>
        <time>2021-02-20T10:00:00Z</time>
      </trkpt>
      <trkpt lat="45.17076" lon="5.94903">
        <ele>2539.2</ele>
        <time>2021-02-20T10:00:01Z</time>
      </trkpt>
      <trkpt lat="45.17076" lon="5.94903">
        <ele>2539.2</ele>
        <time>2021-02-20T10:00:02Z</time>
      </trkpt>
      <trkpt lat="45.17077" lon="5.94903">
        <ele>2539.2</ele>
        <time>2021-02-20T10:00:03Z</time>
      </trkpt>
      <trkpt lat="45.17077" lon="5.94903">
        <ele>2539.2</ele>
        <time>2021-02-20T10:00:04Z</time>
      </trkpt>
      <trkpt lat="45.17077" lon="5.94903">
        <ele>2539.2</ele>
        <time>2021-02-20T10:00:05Z</time>
      </trkpt>
      <trkpt lat="45.17077" lon="5.94903">
        <ele>2539.2</ele>
        <time>2021-02-20T10:00:36Z</time>
      </trkpt>
      <trkpt lat="45.17078" lon="5.94903">
        <ele>2539.2</ele>
        <time>2021-02-20T10:00:37Z</time>
      </trkpt>
      <trkpt lat="45.17078" lon="5.94903">
        <ele>2539.2</ele>
        <time>2021-02-20T10:00:38Z</time>
      </trkpt>
      <trkpt lat="45.17078" lon="5.94903">
        <ele>2539.2</ele>
        <time>2021-02-20T10:00:39Z</time>
      </trkpt>
      <trkpt lat="45.17079" lon="5.94903">
        <ele>2539.7</ele>
        <time>2021-02-20T10:00:40Z</time>
      </trkpt>
      <trkpt lat="45.17079" lon="5.94903">
        <ele>2539.7</ele>
        <time>2021-02-20T10:00:41Z</time>
      </trkpt>
      <trkpt lat="45.1708" lon="5.94903">
        <ele>2539.7</ele>
        <time>2021-02-20T10:00:42Z</time>
      </trkpt>
      <trkpt lat="45.1708" lon="5.94902">
        <ele>2539.7</ele>
        <time>2021-02-20T10:00:43Z</time>
      </trkpt>
      <trkpt lat="45.17081" lon="5.94902">
        <ele>2539.7</ele>
        <time>2021-02-20T10:00:44Z</time>
      </trkpt>
      <trkpt lat="45.17081" lon="5.94902">
        <ele>2539.7</ele>
        <time>2021-02-20T10:00:45Z</time>
      </trkpt>
      <trkpt lat="45.17082" lon="5.94902">
        <ele>2540</ele>
        <time>2021-02-20T10:00:46Z</time>
      </trkpt>
      <trkpt lat="45.17082" lon="5.94902">
        <ele>2540</ele>
        <time>2021-02-20T10:00:47Z</time>
      </trkpt>
      <trkpt lat="45.17083" lon="5.94901">
        <ele>2540</ele>
        <time>2021-02-20T10:00:48Z</time>
      </trkpt>
      <trkpt lat="45.17084" lon="5.94901">
        <ele>2537.8</ele>
        <time>2021-02-20T10:00:49Z</time>
      </trkpt>
      <trkpt lat="45.17084" lon="5.949">
        <ele>2537.8</ele>
        <time>2021-02-20T10:00:50Z</time>
      </trkpt>
      <trkpt lat="45.17084" lon="5.949">
        <ele>2537.8</ele>
        <time>2021-02-20T10:00:51Z</time>
      </trkpt>
      <trkpt lat="45.17085" lon="5.94899">
        <ele>2538</ele>
        <time>2021-02-20T10:00:52Z</time>
      </trkpt>
      <trkpt lat="45.17086" lon="5.94898">
        <ele>2538</ele>
        <time>2021-02-20T10:00:53Z</time>
      </trkpt>
      <trkpt lat="45.17087" lon="5.94898">
        <ele>2538</ele>
        <time>2021-02-20T10:00:54Z</time>
      </trkpt>
      <trkpt lat="45.17087" lon="5.94898">
        <ele>2538</ele>
        <time>2021-02-20T10:00:55Z</time>
      </trkpt>
      <trkpt lat="45.17088" lon="5.94897">
        <ele>2538</ele>
        <time>2021-02-20T10:00:56Z</time>
      </trkpt>
      <trkpt lat="45.17089" lon="5.94897">
        <ele>2538</ele>
        <time>2021-02-20T10:00:57Z</time>
      </trkpt>
      <trkpt lat="45.17089" lon="5.94898">
        <ele>2538</ele>
        <time>2021-02-20T10:00:58Z</time>
      </trkpt>
      <trkpt lat="45.17089" lon="5.94898">
        <ele>2538</ele>
        <time>2021-02-20T10:00:59Z</time>
      </trkpt>
      <trkpt lat="45.17089" lon="5.94899">
        <ele>2538</ele>
        <time>2021-02-20T10:01:00Z</time>
      </trkpt>
      <trkpt lat="45.17088" lon="5.94899">
        <ele>2538</ele>
        <time>2021-02-20T10:01:01Z</time>
      </trkpt>
      <trkpt lat="45.17088" lon="5.949">
        <ele>2538</ele>
        <time>2021-02-20T10:01:02Z</time>
      </trkpt>
      <trkpt lat="45.17088" lon="5.94901">
        <ele>2538</ele>
        <time>2021-02-20T10:01:03Z</time>
      </trkpt>
      <trkpt lat="45.17088" lon="5.94901">
        <ele>2540.4</ele>
        <time>2021-02-20T10:01:04Z</time>
      </trkpt>
      <trkpt lat="45.17088" lon="5.94902">
        <ele>2540.4</ele>
        <time>2021-02-20T10:01:05Z</time>
      </trkpt>
      <trkpt lat="45.17088" lon="5.94903">
        <ele>2540.4</ele>
        <time>2021-02-20T10:01:06Z</time>
      </trkpt>
      <trkpt lat="45.17088" lon="5.94903">
        <ele>2540.4</ele>
        <time>2021-02-20T10:01:07Z</time>
      </trkpt>
      <trkpt lat="45.17088" lon="5.94904">
        <ele>2540.4</ele>
        <time>2021-02-20T10:01:25Z</time>
      </trkpt>
      <trkpt lat="45.17087" lon="5.94904">
        <ele>2540.4</ele>
        <time>2021-02-20T10:01:26Z</time>
      </trkpt>
      <trkpt lat="45.17087" lon="5.94905">
        <ele>2540.3</ele>
        <time>2021-02-20T10:01:27Z</time>
      </trkpt>
      <trkpt lat="45.17087" lon="5.94906">
        <ele>2542.5</ele>
        <time>2021-02-20T10:01:28Z</time>
      </trkpt>
      <trkpt lat="45.17087" lon="5.94906">
        <ele>2542.5</ele>
        <time>2021-02-20T10:01:29Z</time>
      </trkpt>
      <trkpt lat="45.17087" lon="5.94908">
        <ele>2542.5</ele>
        <time>2021-02-20T10:01:30Z</time>
      </trkpt>
      <trkpt lat="45.17087" lon="5.94909">
        <ele>2542.5</ele>
        <time>2021-02-20T10:01:31Z</time>
      </trkpt>
      <trkpt lat="45.17087" lon="5.9491">
        <ele>2544.7</ele>
        <time>2021-02-20T10:01:32Z</time>
      </trkpt>
      <trkpt lat="45.17087" lon="5.94911">
        <ele>2544.7</ele>
        <time>2021-02-20T10:01:33Z</time>
      </trkpt>
      <trkpt lat="45.17087" lon="5.94912">
        <ele>2544.7</ele>
        <time>2021-02-20T10:01:34Z</time>
      </trkpt>
      <trkpt lat="45.17087" lon="5.94913">
        <ele>2544.7</ele>
        <time>2021-02-20T10:01:35Z</time>
      </trkpt>
      <trkpt lat="45.17087" lon="5.94914">
        <ele>2544.7</ele>
        <time>2021-02-20T10:01:36Z</time>
      </trkpt>
      <trkpt lat="45.17087" lon="5.94914">
        <ele>2546.8</ele>
        <time>2021-02-20T10:01:37Z</time>
      </trkpt>
      <trkpt lat="45.17087" lon="5.94915">
        <ele>2546.8</ele>
        <time>2021-02-20T10:01:38Z</time>
      </trkpt>
      <trkpt lat="45.17087" lon="5.94916">
        <ele>2546.8</ele>
        <time>2021-02-20T10:01:39Z</time>
      </trkpt>
      <trkpt lat="45.17087" lon="5.94917">
        <ele>2546.8</ele>
        <time>2021-02-20T10:01:40Z</time>
      </trkpt>
      <trkpt lat="45.17087" lon="5.94918">
        <ele>2546.8</ele>
        <time>2021-02-20T10:01:41Z</time>
      </trkpt>
      <trkpt lat="45.17087" lon="5.94919">
        <ele>2549</ele>
        <time>2021-02-20T10:01:42Z</time>
      </trkpt>
      <trkpt lat="45.17087" lon="5.9492">
        <ele>2549</ele>
        <time>2021-02-20T10:01:43Z</time>
      </trkpt>
      <trkpt lat="45.17087" lon="5.94922">
        <ele>2549</ele>
        <time>2021-02-20T10:01:44Z</time>
      </trkpt>
      <trkpt lat="45.17087" lon="5.94922">
        <ele>2549</ele>
        <time>2021-02-20T10:01:45Z</time>
      </trkpt>
      <trkpt lat="45.17087" lon="5.94922">
        <ele>2549</ele>
        <time>2021-02-20T10:01:46Z</time>
      </trkpt>
      <trkpt lat="45.17087" lon="5.94924">
        <ele>2551</ele>
        <time>2021-02-20T10:01:47Z</time>
      </trkpt>
      <trkpt lat="45.17087" lon="5.94925">
        <ele>2551.4</ele>
        <time>2021-02-20T10:01:48Z</time>
      </trkpt>
      <trkpt lat="45.17088" lon="5.94926">
        <ele>2551.4</ele>
        <time>2021-02-20T10:01:49Z</time>
      </trkpt>
      <trkpt lat="45.17088" lon="5.94926">
        <ele>2551.4</ele>
        <time>2021-02-20T10:01:50Z</time>
      </trkpt>
      <trkpt lat="45.17088" lon="5.94927">
        <ele>2551.4</ele>
        <time>2021-02-20T10:01:51Z</time>
      </trkpt>
      <trkpt lat="45.17088" lon="5.94927">
        <ele>2553.5</ele>
        <time>2021-02-20T10:01:52Z</time>
      </trkpt>
      <trkpt lat="45.17088" lon="5.94928">
        <ele>2553.5</ele>
        <time>2021-02-20T10:01:53Z</time>
      </trkpt>
      <trkpt lat="45.17088" lon="5.94929">
        <ele>2553.5</ele>
        <time>2021-02-20T10:01:54Z</time>
      </trkpt>
      <trkpt lat="45.17088" lon="5.9493">
        <ele>2553.5</ele>
        <time>2021-02-20T10:01:55Z</time>
      </trkpt>
      <trkpt lat="45.17088" lon="5.94931">
        <ele>2553.5</ele>
        <time>2021-02-20T10:01:56Z</time>
      </trkpt>
      <trkpt lat="45.17088" lon="5.94932">
        <ele>2555.6</ele>
        <time>2021-02-20T10:01:57Z</time>
      </trkpt>
      <trkpt lat="45.17088" lon="5.94932">
        <ele>2555.6</ele>
        <time>2021-02-20T10:01:58Z</time>
      </trkpt>
      <trkpt lat="45.17089" lon="5.94933">
        <ele>2555.6</ele>
        <time>2021-02-20T10:01:59Z</time>
      </trkpt>
      <trkpt lat="45.17089" lon="5.94934">
        <ele>2555.6</ele>
        <time>2021-02-20T10:02:00Z</time>
      </trkpt>
      <trkpt lat="45.17089" lon="5.94935">
        <ele>2555.6</ele>
        <time>2021-02-20T10:02:01Z</time>
      </trkpt>
      <trkpt lat="45.17089" lon="5.94935">
        <ele>2555.6</ele>
        <time>2021-02-20T10:02:02Z</time>
      </trkpt>
      <trkpt lat="45.17089" lon="5.94935">
        <ele>2555.6</ele>
        <time>2021-02-20T10:02:03Z</time>
      </trkpt>
      <trkpt lat="45.17089" lon="5.94936">
        <ele>2557.9</ele>
        <time>2021-02-20T10:02:04Z</time>
      </trkpt>
      <trkpt lat="45.17089" lon="5.94936">
        <ele>2557.9</ele>
        <time>2021-02-20T10:02:05Z</time>
      </trkpt>
      <trkpt lat="45.17088" lon="5.94937">
        <ele>2557.9</ele>
        <time>2021-02-20T10:02:06Z</time>
      </trkpt>
      <trkpt lat="45.17088" lon="5.94937">
        <ele>2557.9</ele>
        <time>2021-02-20T10:02:07Z</time>
      </trkpt>
      <trkpt lat="45.17088" lon="5.94938">
        <ele>2557.9</ele>
        <time>2021-02-20T10:02:08Z</time>
      </trkpt>
      <trkpt lat="45.17088" lon="5.94939">
        <ele>2557.9</ele>
        <time>2021-02-20T10:02:09Z</time>
      </trkpt>
      <trkpt lat="45.17088" lon="5.94939">
        <ele>2557.9</ele>
        <time>2021-02-20T10:02:10Z</time>
      </trkpt>
      <trkpt lat="45.17088" lon="5.9494">
        <ele>2560.2</ele>
        <time>2021-02-20T10:02:11Z</time>
      </trkpt>
      <trkpt lat="45.17089" lon="5.9494">
        <ele>2560.2</ele>
        <time>2021-02-20T10:02:12Z</time>
      </trkpt>
      <trkpt lat="45.17089" lon="5.9494">
        <ele>2560.2</ele>
        <time>2021-02-20T10:02:13Z</time>
      </trkpt>
      <trkpt lat="45.17089" lon="5.9494">
        <ele>2560.2</ele>
        <time>2021-02-20T10:02:14Z</time>
      </trkpt>
      <trkpt lat="45.17089" lon="5.9494">
        <ele>2560.2</ele>
        <time>2021-02-20T10:02:15Z</time>
      </trkpt>
      <trkpt lat="45.1709" lon="5.94941">
        <ele>2560.2</ele>
        <time>2021-02-20T10:02:16Z</time>
      </trkpt>
      <trkpt lat="45.1709" lon="5.94941">
        <ele>2560.2</ele>
        <time>2021-02-20T10:02:25Z</time>
      </trkpt>
      <trkpt lat="45.1709" lon="5.94941">
        <ele>2560.2</ele>
        <time>2021-02-20T10:02:26Z</time>
      </trkpt>
      <trkpt lat="45.1709" lon="5.94941">
        <ele>2560.2</ele>
        <time>2021-02-20T10:02:27Z</time>
      </trkpt>
      <trkpt lat="45.17091" lon="5.94941">
        <ele>2560.6</ele>
        <time>2021-02-20T10:02:28Z</time>
      </trkpt>
      <trkpt lat="45.17091" lon="5.94941">
        <ele>2560.6</ele>
        <time>2021-02-20T10:02:29Z</time>
      </trkpt>
      <trkpt lat="45.17091" lon="5.94942">
        <ele>2560.6</ele>
        <time>2021-02-20T10:02:30Z</time>
      </trkpt>
      <trkpt lat="45.17092" lon="5.94942">
        <ele>2560.6</ele>
        <time>2021-02-20T10:02:31Z</time>
      </trkpt>
      <trkpt lat="45.17092" lon="5.94942">
        <ele>2560.6</ele>
        <time>2021-02-20T10:02:32Z</time>
      </trkpt>
      <trkpt lat="45.17092" lon="5.94942">
        <ele>2560.6</ele>
        <time>2021-02-20T10:02:33Z</time>
      </trkpt>
      <trkpt lat="45.17092" lon="5.94942">
        <ele>2560.6</ele>
        <time>2021-02-20T10:02:34Z</time>
      </trkpt>
      <trkpt lat="45.17093" lon="5.94942">
        <ele>2560.6</ele>
        <time>2021-02-20T10:03:18Z</time>
      </trkpt>
      <trkpt lat="45.17093" lon="5.94943">
        <ele>2560.6</ele>
        <time>2021-02-20T10:03:19Z</time>
      </trkpt>
      <trkpt lat="45.17093" lon="5.94943">
        <ele>2560.6</ele>
        <time>2021-02-20T10:03:20Z</time>
      </trkpt>
      <trkpt lat="45.17093" lon="5.94943">
        <ele>2560.6</ele>
        <time>2021-02-20T10:03:21Z</time>
      </trkpt>
      <trkpt lat="45.17094" lon="5.94943">
        <ele>2560.9</ele>
        <time>2021-02-20T10:03:22Z</time>
      </trkpt>
      <trkpt lat="45.17094" lon="5.94943">
        <ele>2560.9</ele>
        <time>2021-02-20T10:03:23Z</time>
      </trkpt>
      <trkpt lat="45.17094" lon="5.94943">
        <ele>2560.9</ele>
        <time>2021-02-20T10:03:24Z</time>
      </trkpt>
      <trkpt lat="45.17094" lon="5.94944">
        <ele>2560.9</ele>
        <time>2021-02-20T10:03:25Z</time>
      </trkpt>
      <trkpt lat="45.17095" lon="5.94944">
        <ele>2560.9</ele>
        <time>2021-02-20T10:03:26Z</time>
      </trkpt>
      <trkpt lat="45.17095" lon="5.94944">
        <ele>2560.9</ele>
        <time>2021-02-20T10:03:27Z</time>
      </trkpt>
      <trkpt lat="45.17095" lon="5.94944">
        <ele>2560.9</ele>
        <time>2021-02-20T10:03:55Z</time>
      </trkpt>
      <trkpt lat="45.17095" lon="5.94944">
        <ele>2563.3</ele>
        <time>2021-02-20T10:03:56Z</time>
      </trkpt>
      <trkpt lat="45.17096" lon="5.94944">
        <ele>2563.3</ele>
        <time>2021-02-20T10:03:57Z</time>
      </trkpt>
      <trkpt lat="45.17096" lon="5.94945">
        <ele>2563.3</ele>
        <time>2021-02-20T10:03:58Z</time>
      </trkpt>
      <trkpt lat="45.17096" lon="5.94945">
        <ele>2563.3</ele>
        <time>2021-02-20T10:03:59Z</time>
      </trkpt>
      <trkpt lat="45.17096" lon="5.94945">
        <ele>2563.3</ele>
        <time>2021-02-20T10:04:00Z</time>
      </trkpt>
      <trkpt lat="45.17097" lon="5.94945">
        <ele>2563.5</ele>
        <time>2021-02-20T10:04:01Z</time>
      </trkpt>
      <trkpt lat="45.17097" lon="5.94945">
        <ele>2563.5</ele>
        <time>2021-02-20T10:04:02Z</time>
      </trkpt>
      <trkpt lat="45.17097" lon="5.94945">
        <ele>2563.5</ele>
        <time>2021-02-20T10:04:03Z</time>
      </trkpt>
      <trkpt lat="45.17098" lon="5.94944">
        <ele>2563.5</ele>
        <time>2021-02-20T10:04:04Z</time>
      </trkpt>
      <trkpt lat="45.17098" lon="5.94944">
        <ele>2561.1</ele>
        <time>2021-02-20T10:04:05Z</time>
      </trkpt>
      <trkpt lat="45.17099" lon="5.94944">
        <ele>2561.1</ele>
        <time>2021-02-20T10:04:06Z</time>
      </trkpt>
      <trkpt lat="45.17099" lon="5.94943">
        <ele>2561.1</ele>
        <time>2021-02-20T10:04:07Z</time>
      </trkpt>
      <trkpt lat="45.171" lon="5.94943">
        <ele>2561.2</ele>
        <time>2021-02-20T10:04:08Z</time>
      </trkpt>
      <trkpt lat="45.171" lon="5.94943">
        <ele>2561.2</ele>
        <time>2021-02-20T10:04:09Z</time>
      </trkpt>
      <trkpt lat="45.17101" lon="5.94944">
        <ele>2561.2</ele>
        <time>2021-02-20T10:04:10Z</time>
      </trkpt>
      <trkpt lat="45.17101" lon="5.94944">
        <ele>2563.7</ele>
        <time>2021-02-20T10:04:11Z</time>
      </trkpt>
      <trkpt lat="45.17102" lon="5.94945">
        <ele>2563.7</ele>
        <time>2021-02-20T10:04:12Z</time>
      </trkpt>
      <trkpt lat="45.17102" lon="5.94946">
        <ele>2563.7</ele>
        <time>2021-02-20T10:04:13Z</time>
      </trkpt>
      <trkpt lat="45.17102" lon="5.94947">
        <ele>2563.7</ele>
        <time>2021-02-20T10:04:14Z</time>
      </trkpt>
      <trkpt lat="45.17102" lon="5.94948">
        <ele>2563.7</ele>
        <time>2021-02-20T10:04:15Z</time>
      </trkpt>
      <trkpt lat="45.17103" lon="5.94949">
        <ele>2566.1</ele>
        <time>2021-02-20T10:04:16Z</time>
      </trkpt>
      <trkpt lat="45.17103" lon="5.94949">
        <ele>2566.1</ele>
        <time>2021-02-20T10:04:17Z</time>
      </trkpt>
      <trkpt lat="45.17103" lon="5.9495">
        <ele>2566.1</ele>
        <time>2021-02-20T10:04:18Z</time>
      </trkpt>
      <trkpt lat="45.17103" lon="5.94951">
        <ele>2566.1</ele>
        <time>2021-02-20T10:04:19Z</time>
      </trkpt>
      <trkpt lat="45.17103" lon="5.94952">
        <ele>2566.1</ele>
        <time>2021-02-20T10:04:20Z</time>
      </trkpt>
      <trkpt lat="45.17104" lon="5.94953">
        <ele>2568.4</ele>
        <time>2021-02-20T10:04:21Z</time>
      </trkpt>
      <trkpt lat="45.17104" lon="5.94954">
        <ele>2568.4</ele>
        <time>2021-02-20T10:04:22Z</time>
      </trkpt>
      <trkpt lat="45.17104" lon="5.94955">
        <ele>2568.4</ele>
        <time>2021-02-20T10:04:23Z</time>
      </trkpt>
      <trkpt lat="45.17104" lon="5.94955">
        <ele>2568.4</ele>
        <time>2021-02-20T10:04:24Z</time>
      </trkpt>
      <trkpt lat="45.17104" lon="5.94956">
        <ele>2568.4</ele>
        <time>2021-02-20T10:04:25Z</time>
      </trkpt>
      <trkpt lat="45.17104" lon="5.94957">
        <ele>2570.6</ele>
        <time>2021-02-20T10:04:26Z</time>
      </trkpt>
      <trkpt lat="45.17104" lon="5.94958">
        <ele>2570.6</ele>
        <time>2021-02-20T10:04:27Z</time>
      </trkpt>
      <trkpt lat="45.17104" lon="5.94959">
        <ele>2570.6</ele>
        <time>2021-02-20T10:04:28Z</time>
      </trkpt>
      <trkpt lat="45.17104" lon="5.9496">
        <ele>2570.6</ele>
        <time>2021-02-20T10:04:29Z</time>
      </trkpt>
      <trkpt lat="45.17105" lon="5.9496">
        <ele>2570.6</ele>
        <time>2021-02-20T10:04:30Z</time>
      </trkpt>
      <trkpt lat="45.17105" lon="5.9496">
        <ele>2570.6</ele>
        <time>2021-02-20T10:04:31Z</time>
      </trkpt>
      <trkpt lat="45.17105" lon="5.9496">
        <ele>2570.6</ele>
        <time>2021-02-20T10:04:32Z</time>
      </trkpt>
      <trkpt lat="45.17105" lon="5.9496">
        <ele>2570.6</ele>
        <time>2021-02-20T10:04:33Z</time>
      </trkpt>
      <trkpt lat="45.17104" lon="5.94959">
        <ele>2570.6</ele>
        <time>2021-02-20T10:05:50Z</time>
      </trkpt>
      <trkpt lat="45.17104" lon="5.9496">
        <ele>2570.6</ele>
        <time>2021-02-20T10:05:51Z</time>
      </trkpt>
      <trkpt lat="45.17104" lon="5.94961">
        <ele>2570.6</ele>
        <time>2021-02-20T10:05:52Z</time>
      </trkpt>
      <trkpt lat="45.17104" lon="5.94961">
        <ele>2570.6</ele>
        <time>2021-02-20T10:05:53Z</time>
      </trkpt>
      <trkpt lat="45.17104" lon="5.94961">
        <ele>2570.6</ele>
        <time>2021-02-20T10:05:54Z</time>
      </trkpt>
      <trkpt lat="45.17103" lon="5.94961">
        <ele>2570.6</ele>
        <time>2021-02-20T10:05:55Z</time>
      </trkpt>
      <trkpt lat="45.17103" lon="5.94962">
        <ele>2572.6</ele>
        <time>2021-02-20T10:05:56Z</time>
      </trkpt>
      <trkpt lat="45.17103" lon="5.94963">
        <ele>2572.6</ele>
        <time>2021-02-20T10:05:57Z</time>
      </trkpt>
      <trkpt lat="45.17104" lon="5.94963">
        <ele>2572.6</ele>
        <time>2021-02-20T10:05:58Z</time>
      </trkpt>
      <trkpt lat="45.17104" lon="5.94964">
        <ele>2572.6</ele>
        <time>2021-02-20T10:05:59Z</time>
      </trkpt>
      <trkpt lat="45.17104" lon="5.94965">
        <ele>2572.6</ele>
        <time>2021-02-20T10:06:00Z</time>
      </trkpt>
      <trkpt lat="45.17104" lon="5.94965">
        <ele>2572.6</ele>
        <time>2021-02-20T10:06:01Z</time>
      </trkpt>
      <trkpt lat="45.17104" lon="5.94966">
        <ele>2574.7</ele>
        <time>2021-02-20T10:06:02Z</time>
      </trkpt>
      <trkpt lat="45.17104" lon="5.94967">
        <ele>2574.7</ele>
        <time>2021-02-20T10:07:11Z</time>
      </trkpt>
      <trkpt lat="45.17104" lon="5.94968">
        <ele>2574.7</ele>
        <time>2021-02-20T10:07:12Z</time>
      </trkpt>
      <trkpt lat="45.17104" lon="5.94968">
        <ele>2574.7</ele>
        <time>2021-02-20T10:07:13Z</time>
      </trkpt>
      <trkpt lat="45.17104" lon="5.94969">
        <ele>2574.7</ele>
        <time>2021-02-20T10:07:14Z</time>
      </trkpt>
      <trkpt lat="45.17104" lon="5.9497">
        <ele>2574.7</ele>
        <time>2021-02-20T10:07:15Z</time>
      </trkpt>
      <trkpt lat="45.17104" lon="5.9497">
        <ele>2576.7</ele>
        <time>2021-02-20T10:07:16Z</time>
      </trkpt>
      <trkpt lat="45.17105" lon="5.94971">
        <ele>2576.7</ele>
        <time>2021-02-20T10:07:17Z</time>
      </trkpt>
      <trkpt lat="45.17105" lon="5.94972">
        <ele>2576.7</ele>
        <time>2021-02-20T10:07:18Z</time>
      </trkpt>
      <trkpt lat="45.17104" lon="5.94971">
        <ele>2576.7</ele>
        <time>2021-02-20T10:07:19Z</time>
      </trkpt>
      <trkpt lat="45.17104" lon="5.9497">
        <ele>2576.7</ele>
        <time>2021-02-20T10:07:20Z</time>
      </trkpt>
      <trkpt lat="45.17104" lon="5.9497">
        <ele>2574.7</ele>
        <time>2021-02-20T10:07:21Z</time>
      </trkpt>
      <trkpt lat="45.17104" lon="5.94969">
        <ele>2574.7</ele>
        <time>2021-02-20T10:07:22Z</time>
      </trkpt>
      <trkpt lat="45.17104" lon="5.94968">
        <ele>2574.7</ele>
        <time>2021-02-20T10:07:41Z</time>
      </trkpt>
      <trkpt lat="45.17103" lon="5.94967">
        <ele>2574.7</ele>
        <time>2021-02-20T10:07:42Z</time>
      </trkpt>
      <trkpt lat="45.17103" lon="5.94967">
        <ele>2574.7</ele>
        <time>2021-02-20T10:07:43Z</time>
      </trkpt>
      <trkpt lat="45.17103" lon="5.94966">
        <ele>2574.7</ele>
        <time>2021-02-20T10:07:44Z</time>
      </trkpt>
      <trkpt lat="45.17103" lon="5.94965">
        <ele>2572.6</ele>
        <time>2021-02-20T10:07:45Z</time>
      </trkpt>
      <trkpt lat="45.17103" lon="5.94965">
        <ele>2572.6</ele>
        <time>2021-02-20T10:07:46Z</time>
      </trkpt>
      <trkpt lat="45.17103" lon="5.94964">
        <ele>2572.5</ele>
        <time>2021-02-20T10:07:47Z</time>
      </trkpt>
      <trkpt lat="45.17102" lon="5.94963">
        <ele>2572.5</ele>
        <time>2021-02-20T10:07:48Z</time>
      </trkpt>
      <trkpt lat="45.17102" lon="5.94962">
        <ele>2572.5</ele>
        <time>2021-02-20T10:07:49Z</time>
      </trkpt>
      <trkpt lat="45.17102" lon="5.94962">
        <ele>2572.5</ele>
        <time>2021-02-20T10:07:50Z</time>
      </trkpt>
      <trkpt lat="45.17102" lon="5.94961">
        <ele>2570.5</ele>
        <time>2021-02-20T10:19:29Z</time>
      </trkpt>
      <trkpt lat="45.17102" lon="5.9496">
        <ele>2570.5</ele>
        <time>2021-02-20T10:19:30Z</time>
      </trkpt>
      <trkpt lat="45.17101" lon="5.94958">
        <ele>2570.5</ele>
        <time>2021-02-20T10:19:31Z</time>
      </trkpt>
      <trkpt lat="45.17101" lon="5.94956">
        <ele>2568.4</ele>
        <time>2021-02-20T10:19:32Z</time>
      </trkpt>
      <trkpt lat="45.17101" lon="5.94954">
        <ele>2568.4</ele>
        <time>2021-02-20T10:19:33Z</time>
      </trkpt>
      <trkpt lat="45.171" lon="5.94951">
        <ele>2566.1</ele>
        <time>2021-02-20T10:19:34Z</time>
      </trkpt>
      <trkpt lat="45.171" lon="5.94949">
        <ele>2566.1</ele>
        <time>2021-02-20T10:19:35Z</time>
      </trkpt>
      <trkpt lat="45.17098" lon="5.94948">
        <ele>2563.5</ele>
        <time>2021-02-20T10:19:36Z</time>
      </trkpt>
      <trkpt lat="45.17096" lon="5.94949">
        <ele>2565.7</ele>
        <time>2021-02-20T10:19:37Z</time>
      </trkpt>
      <trkpt lat="45.17095" lon="5.9495">
        <ele>2565.7</ele>
        <time>2021-02-20T10:19:38Z</time>
      </trkpt>
      <trkpt lat="45.17094" lon="5.9495">
        <ele>2565.7</ele>
        <time>2021-02-20T10:19:39Z</time>
      </trkpt>
      <trkpt lat="45.17094" lon="5.94951">
        <ele>2565.7</ele>
        <time>2021-02-20T10:19:40Z</time>
      </trkpt>
      <trkpt lat="45.17092" lon="5.94951">
        <ele>2565.3</ele>
        <time>2021-02-20T10:19:41Z</time>
      </trkpt>
      <trkpt lat="45.17091" lon="5.94951">
        <ele>2565.3</ele>
        <time>2021-02-20T10:19:42Z</time>
      </trkpt>
      <trkpt lat="45.1709" lon="5.94952">
        <ele>2564.8</ele>
        <time>2021-02-20T10:19:43Z</time>
      </trkpt>
      <trkpt lat="45.1709" lon="5.94952">
        <ele>2564.8</ele>
        <time>2021-02-20T10:19:44Z</time>
      </trkpt>
      <trkpt lat="45.1709" lon="5.94952">
        <ele>2564.8</ele>
        <time>2021-02-20T10:19:45Z</time>
      </trkpt>
      <trkpt lat="45.1709" lon="5.94952">
        <ele>2564.8</ele>
        <time>2021-02-20T10:19:46Z</time>
      </trkpt>
      <trkpt lat="45.17091" lon="5.94952">
        <ele>2565.3</ele>
        <time>2021-02-20T10:19:47Z</time>
      </trkpt>
      <trkpt lat="45.1709" lon="5.94952">
        <ele>2564.8</ele>
        <time>2021-02-20T10:19:48Z</time>
      </trkpt>
      <trkpt lat="45.1709" lon="5.94952">
        <ele>2564.8</ele>
        <time>2021-02-20T10:19:49Z</time>
      </trkpt>
      <trkpt lat="45.1709" lon="5.94952">
        <ele>2564.8</ele>
        <time>2021-02-20T10:19:50Z</time>
      </trkpt>
      <trkpt lat="45.1709" lon="5.94952">
        <ele>2564.8</ele>
        <time>2021-02-20T10:19:51Z</time>
      </trkpt>
      <trkpt lat="45.1709" lon="5.94952">
        <ele>2564.8</ele>
        <time>2021-02-20T10:19:52Z</time>
      </trkpt>
      <trkpt lat="45.1709" lon="5.94951">
        <ele>2564.8</ele>
        <time>2021-02-20T10:19:53Z</time>
      </trkpt>
      <trkpt lat="45.1709" lon="5.94951">
        <ele>2564.8</ele>
        <time>2021-02-20T10:19:54Z</time>
      </trkpt>
      <trkpt lat="45.17091" lon="5.94951">
        <ele>2565.3</ele>
        <time>2021-02-20T10:19:55Z</time>
      </trkpt>
      <trkpt lat="45.17091" lon="5.94951">
        <ele>2565.3</ele>
        <time>2021-02-20T10:19:56Z</time>
      </trkpt>
      <trkpt lat="45.17091" lon="5.94951">
        <ele>2565.3</ele>
        <time>2021-02-20T10:19:57Z</time>
      </trkpt>
      <trkpt lat="45.17091" lon="5.94951">
        <ele>2565.3</ele>
        <time>2021-02-20T10:19:58Z</time>
      </trkpt>
      <trkpt lat="45.17091" lon="5.94951">
        <ele>2565.3</ele>
        <time>2021-02-20T10:19:59Z</time>
      </trkpt>
      <trkpt lat="45.17091" lon="5.94951">
        <ele>2565.3</ele>
        <time>2021-02-20T10:20:00Z</time>
      </trkpt>
      <trkpt lat="45.1709" lon="5.94951">
        <ele>2564.8</ele>
        <time>2021-02-20T10:20:01Z</time>
      </trkpt>
      <trkpt lat="45.17089" lon="5.94951">
        <ele>2564.8</ele>
        <time>2021-02-20T10:20:02Z</time>
      </trkpt>
      <trkpt lat="45.17088" lon="5.94952">
        <ele>2564.8</ele>
        <time>2021-02-20T10:20:03Z</time>
      </trkpt>
      <trkpt lat="45.17088" lon="5.94953">
        <ele>2566.9</ele>
        <time>2021-02-20T10:20:04Z</time>
      </trkpt>
      <trkpt lat="45.17088" lon="5.94953">
        <ele>2566.9</ele>
        <time>2021-02-20T10:20:05Z</time>
      </trkpt>
      <trkpt lat="45.17087" lon="5.94953">
        <ele>2566.2</ele>
        <time>2021-02-20T10:20:06Z</time>
      </trkpt>
      <trkpt lat="45.17087" lon="5.94952">
        <ele>2564.1</ele>
        <time>2021-02-20T10:20:07Z</time>
      </trkpt>
      <trkpt lat="45.17086" lon="5.94952">
        <ele>2564.1</ele>
        <time>2021-02-20T10:20:08Z</time>
      </trkpt>
      <trkpt lat="45.17085" lon="5.94953">
        <ele>2566.2</ele>
        <time>2021-02-20T10:20:09Z</time>
      </trkpt>
      <trkpt lat="45.17085" lon="5.94954">
        <ele>2566.2</ele>
        <time>2021-02-20T10:20:10Z</time>
      </trkpt>
      <trkpt lat="45.17085" lon="5.94954">
        <ele>2566.2</ele>
        <time>2021-02-20T10:20:11Z</time>
      </trkpt>
      <trkpt lat="45.17084" lon="5.94955">
        <ele>2566.2</ele>
        <time>2021-02-20T10:20:12Z</time>
      </trkpt>
      <trkpt lat="45.17084" lon="5.94955">
        <ele>2565.3</ele>
        <time>2021-02-20T10:20:13Z</time>
      </trkpt>
      <trkpt lat="45.17083" lon="5.94954">
        <ele>2565.3</ele>
        <time>2021-02-20T10:20:14Z</time>
      </trkpt>
      <trkpt lat="45.17083" lon="5.94954">
        <ele>2565.3</ele>
        <time>2021-02-20T10:20:15Z</time>
      </trkpt>
      <trkpt lat="45.17083" lon="5.94955">
        <ele>2565.3</ele>
        <time>2021-02-20T10:20:16Z</time>
      </trkpt>
      <trkpt lat="45.17082" lon="5.94955">
        <ele>2565.3</ele>
        <time>2021-02-20T10:20:17Z</time>
      </trkpt>
      <trkpt lat="45.17082" lon="5.94955">
        <ele>2565.3</ele>
        <time>2021-02-20T10:20:18Z</time>
      </trkpt>
      <trkpt lat="45.17082" lon="5.94956">
        <ele>2565.3</ele>
        <time>2021-02-20T10:20:19Z</time>
      </trkpt>
      <trkpt lat="45.17081" lon="5.94957">
        <ele>2564.3</ele>
        <time>2021-02-20T10:20:20Z</time>
      </trkpt>
      <trkpt lat="45.17081" lon="5.94958">
        <ele>2566.2</ele>
        <time>2021-02-20T10:20:21Z</time>
      </trkpt>
      <trkpt lat="45.17081" lon="5.94958">
        <ele>2566.2</ele>
        <time>2021-02-20T10:20:22Z</time>
      </trkpt>
      <trkpt lat="45.17081" lon="5.94959">
        <ele>2566.2</ele>
        <time>2021-02-20T10:20:23Z</time>
      </trkpt>
      <trkpt lat="45.17081" lon="5.94959">
        <ele>2566.2</ele>
        <time>2021-02-20T10:20:24Z</time>
      </trkpt>
      <trkpt lat="45.1708" lon="5.9496">
        <ele>2566.2</ele>
        <time>2021-02-20T10:20:25Z</time>
      </trkpt>
      <trkpt lat="45.17079" lon="5.94961">
        <ele>2566.2</ele>
        <time>2021-02-20T10:20:26Z</time>
      </trkpt>
      <trkpt lat="45.17078" lon="5.9496">
        <ele>2565</ele>
        <time>2021-02-20T10:20:27Z</time>
      </trkpt>
      <trkpt lat="45.17076" lon="5.9496">
        <ele>2565</ele>
        <time>2021-02-20T10:20:28Z</time>
      </trkpt>
      <trkpt lat="45.17075" lon="5.94959">
        <ele>2565</ele>
        <time>2021-02-20T10:20:29Z</time>
      </trkpt>
      <trkpt lat="45.17074" lon="5.94957">
        <ele>2563.8</ele>
        <time>2021-02-20T10:20:30Z</time>
      </trkpt>
      <trkpt lat="45.17073" lon="5.94956">
        <ele>2562.1</ele>
        <time>2021-02-20T10:20:31Z</time>
      </trkpt>
      <trkpt lat="45.17072" lon="5.94955">
        <ele>2560.9</ele>
        <time>2021-02-20T10:20:32Z</time>
      </trkpt>
      <trkpt lat="45.17068" lon="5.94955">
        <ele>2559.7</ele>
        <time>2021-02-20T10:20:33Z</time>
      </trkpt>
      <trkpt lat="45.17067" lon="5.94955">
        <ele>2559.7</ele>
        <time>2021-02-20T10:20:34Z</time>
      </trkpt>
      <trkpt lat="45.17065" lon="5.94957">
        <ele>2560</ele>
        <time>2021-02-20T10:20:35Z</time>
      </trkpt>
      <trkpt lat="45.17064" lon="5.94958">
        <ele>2560</ele>
        <time>2021-02-20T10:20:36Z</time>
      </trkpt>
      <trkpt lat="45.17063" lon="5.9496">
        <ele>2558.5</ele>
        <time>2021-02-20T10:20:37Z</time>
      </trkpt>
      <trkpt lat="45.17061" lon="5.9496">
        <ele>2558.5</ele>
        <time>2021-02-20T10:20:38Z</time>
      </trkpt>
      <trkpt lat="45.17058" lon="5.94959">
        <ele>2556.8</ele>
        <time>2021-02-20T10:20:39Z</time>
      </trkpt>
      <trkpt lat="45.17055" lon="5.94957">
        <ele>2555</ele>
        <time>2021-02-20T10:20:40Z</time>
      </trkpt>
      <trkpt lat="45.17052" lon="5.94955">
        <ele>2551.6</ele>
        <time>2021-02-20T10:20:41Z</time>
      </trkpt>
      <trkpt lat="45.17051" lon="5.94956">
        <ele>2549.7</ele>
        <time>2021-02-20T10:20:42Z</time>
      </trkpt>
      <trkpt lat="45.1705" lon="5.94959">
        <ele>2551.1</ele>
        <time>2021-02-20T10:20:43Z</time>
      </trkpt>
      <trkpt lat="45.17049" lon="5.94961">
        <ele>2551.1</ele>
        <time>2021-02-20T10:20:44Z</time>
      </trkpt>
      <trkpt lat="45.17048" lon="5.94962">
        <ele>2552.4</ele>
        <time>2021-02-20T10:20:45Z</time>
      </trkpt>
      <trkpt lat="45.17046" lon="5.94961">
        <ele>2549.2</ele>
        <time>2021-02-20T10:20:46Z</time>
      </trkpt>
      <trkpt lat="45.17043" lon="5.94958">
        <ele>2547.3</ele>
        <time>2021-02-20T10:20:47Z</time>
      </trkpt>
      <trkpt lat="45.17041" lon="5.94955">
        <ele>2544.2</ele>
        <time>2021-02-20T10:20:48Z</time>
      </trkpt>
      <trkpt lat="45.17039" lon="5.94953">
        <ele>2542.3</ele>
        <time>2021-02-20T10:20:49Z</time>
      </trkpt>
      <trkpt lat="45.17037" lon="5.94953">
        <ele>2542.3</ele>
        <time>2021-02-20T10:20:50Z</time>
      </trkpt>
      <trkpt lat="45.17035" lon="5.94953">
        <ele>2540.1</ele>
        <time>2021-02-20T10:20:51Z</time>
      </trkpt>
      <trkpt lat="45.17031" lon="5.94952">
        <ele>2536.6</ele>
        <time>2021-02-20T10:20:52Z</time>
      </trkpt>
      <trkpt lat="45.17028" lon="5.94951">
        <ele>2534.2</ele>
        <time>2021-02-20T10:20:53Z</time>
      </trkpt>
      <trkpt lat="45.17025" lon="5.9495">
        <ele>2531.7</ele>
        <time>2021-02-20T10:20:54Z</time>
      </trkpt>
      <trkpt lat="45.17022" lon="5.94951">
        <ele>2529.4</ele>
        <time>2021-02-20T10:20:55Z</time>
      </trkpt>
      <trkpt lat="45.17018" lon="5.94951">
        <ele>2527.1</ele>
        <time>2021-02-20T10:20:56Z</time>
      </trkpt>
      <trkpt lat="45.17015" lon="5.9495">
        <ele>2522.6</ele>
        <time>2021-02-20T10:20:57Z</time>
      </trkpt>
      <trkpt lat="45.17011" lon="5.9495">
        <ele>2520.2</ele>
        <time>2021-02-20T10:20:58Z</time>
      </trkpt>
      <trkpt lat="45.17008" lon="5.94951">
        <ele>2517.7</ele>
        <time>2021-02-20T10:20:59Z</time>
      </trkpt>
      <trkpt lat="45.17007" lon="5.94954">
        <ele>2518.6</ele>
        <time>2021-02-20T10:21:00Z</time>
      </trkpt>
      <trkpt lat="45.17005" lon="5.94959">
        <ele>2516.9</ele>
        <time>2021-02-20T10:21:01Z</time>
      </trkpt>
      <trkpt lat="45.17003" lon="5.94964">
        <ele>2517.8</ele>
        <time>2021-02-20T10:21:02Z</time>
      </trkpt>
      <trkpt lat="45.17" lon="5.94969">
        <ele>2515.9</ele>
        <time>2021-02-20T10:21:03Z</time>
      </trkpt>
      <trkpt lat="45.17" lon="5.94974">
        <ele>2513.9</ele>
        <time>2021-02-20T10:21:04Z</time>
      </trkpt>
      <trkpt lat="45.17" lon="5.94978">
        <ele>2517.6</ele>
        <time>2021-02-20T10:21:05Z</time>
      </trkpt>
      <trkpt lat="45.17" lon="5.9498">
        <ele>2518.4</ele>
        <time>2021-02-20T10:21:06Z</time>
      </trkpt>
      <trkpt lat="45.16999" lon="5.94984">
        <ele>2516.1</ele>
        <time>2021-02-20T10:21:07Z</time>
      </trkpt>
      <trkpt lat="45.16998" lon="5.94985">
        <ele>2516.1</ele>
        <time>2021-02-20T10:21:08Z</time>
      </trkpt>
      <trkpt lat="45.16995" lon="5.94986">
        <ele>2513.1</ele>
        <time>2021-02-20T10:21:09Z</time>
      </trkpt>
      <trkpt lat="45.16994" lon="5.94986">
        <ele>2510</ele>
        <time>2021-02-20T10:21:10Z</time>
      </trkpt>
      <trkpt lat="45.16992" lon="5.94986">
        <ele>2510</ele>
        <time>2021-02-20T10:21:11Z</time>
      </trkpt>
      <trkpt lat="45.1699" lon="5.94985">
        <ele>2507</ele>
        <time>2021-02-20T10:21:12Z</time>
      </trkpt>
      <trkpt lat="45.16989" lon="5.94985">
        <ele>2507</ele>
        <time>2021-02-20T10:21:13Z</time>
      </trkpt>
      <trkpt lat="45.16988" lon="5.94984">
        <ele>2507</ele>
        <time>2021-02-20T10:21:14Z</time>
      </trkpt>
      <trkpt lat="45.16987" lon="5.94984">
        <ele>2504</ele>
        <time>2021-02-20T10:21:15Z</time>
      </trkpt>
      <trkpt lat="45.16986" lon="5.94983">
        <ele>2504</ele>
        <time>2021-02-20T10:21:16Z</time>
      </trkpt>
      <trkpt lat="45.16985" lon="5.94981">
        <ele>2503.3</ele>
        <time>2021-02-20T10:21:17Z</time>
      </trkpt>
      <trkpt lat="45.16983" lon="5.94977">
        <ele>2499.8</ele>
        <time>2021-02-20T10:21:18Z</time>
      </trkpt>
      <trkpt lat="45.16982" lon="5.94975">
        <ele>2499.8</ele>
        <time>2021-02-20T10:21:19Z</time>
      </trkpt>
      <trkpt lat="45.16981" lon="5.94972">
        <ele>2496.3</ele>
        <time>2021-02-20T10:21:20Z</time>
      </trkpt>
      <trkpt lat="45.16977" lon="5.94971">
        <ele>2493.2</ele>
        <time>2021-02-20T10:21:21Z</time>
      </trkpt>
      <trkpt lat="45.16976" lon="5.94972">
        <ele>2493.2</ele>
        <time>2021-02-20T10:21:22Z</time>
      </trkpt>
      <trkpt lat="45.16976" lon="5.94976">
        <ele>2493.8</ele>
        <time>2021-02-20T10:21:23Z</time>
      </trkpt>
      <trkpt lat="45.16976" lon="5.94981">
        <ele>2494.3</ele>
        <time>2021-02-20T10:21:24Z</time>
      </trkpt>
      <trkpt lat="45.16977" lon="5.94985">
        <ele>2495</ele>
        <time>2021-02-20T10:21:25Z</time>
      </trkpt>
      <trkpt lat="45.16977" lon="5.94987">
        <ele>2495</ele>
        <time>2021-02-20T10:21:26Z</time>
      </trkpt>
      <trkpt lat="45.16977" lon="5.94988">
        <ele>2495.8</ele>
        <time>2021-02-20T10:21:27Z</time>
      </trkpt>
      <trkpt lat="45.16976" lon="5.94988">
        <ele>2495.8</ele>
        <time>2021-02-20T10:21:28Z</time>
      </trkpt>
      <trkpt lat="45.16975" lon="5.94987">
        <ele>2491.8</ele>
        <time>2021-02-20T10:21:29Z</time>
      </trkpt>
      <trkpt lat="45.16974" lon="5.94986">
        <ele>2491.8</ele>
        <time>2021-02-20T10:21:30Z</time>
      </trkpt>
      <trkpt lat="45.16971" lon="5.94986">
        <ele>2488.5</ele>
        <time>2021-02-20T10:21:31Z</time>
      </trkpt>
      <trkpt lat="45.1697" lon="5.94987">
        <ele>2489.4</ele>
        <time>2021-02-20T10:21:32Z</time>
      </trkpt>
      <trkpt lat="45.16969" lon="5.94992">
        <ele>2487.4</ele>
        <time>2021-02-20T10:21:33Z</time>
      </trkpt>
      <trkpt lat="45.16969" lon="5.94993">
        <ele>2487.4</ele>
        <time>2021-02-20T10:21:34Z</time>
      </trkpt>
      <trkpt lat="45.16969" lon="5.94997">
        <ele>2488.7</ele>
        <time>2021-02-20T10:21:35Z</time>
      </trkpt>
      <trkpt lat="45.16969" lon="5.94999">
        <ele>2488.7</ele>
        <time>2021-02-20T10:21:36Z</time>
      </trkpt>
      <trkpt lat="45.16969" lon="5.95003">
        <ele>2490</ele>
        <time>2021-02-20T10:21:37Z</time>
      </trkpt>
      <trkpt lat="45.16969" lon="5.95004">
        <ele>2491.3</ele>
        <time>2021-02-20T10:21:38Z</time>
      </trkpt>
      <trkpt lat="45.16969" lon="5.95006">
        <ele>2491.3</ele>
        <time>2021-02-20T10:21:39Z</time>
      </trkpt>
      <trkpt lat="45.16968" lon="5.95006">
        <ele>2491.3</ele>
        <time>2021-02-20T10:21:40Z</time>
      </trkpt>
      <trkpt lat="45.16966" lon="5.95005">
        <ele>2488.6</ele>
        <time>2021-02-20T10:21:41Z</time>
      </trkpt>
      <trkpt lat="45.16964" lon="5.95004">
        <ele>2487.2</ele>
        <time>2021-02-20T10:21:42Z</time>
      </trkpt>
      <trkpt lat="45.16962" lon="5.95003">
        <ele>2484.4</ele>
        <time>2021-02-20T10:21:43Z</time>
      </trkpt>
      <trkpt lat="45.1696" lon="5.95004">
        <ele>2481.8</ele>
        <time>2021-02-20T10:21:44Z</time>
      </trkpt>
      <trkpt lat="45.16958" lon="5.95006">
        <ele>2483.4</ele>
        <time>2021-02-20T10:21:45Z</time>
      </trkpt>
      <trkpt lat="45.16958" lon="5.95008">
        <ele>2483.4</ele>
        <time>2021-02-20T10:21:46Z</time>
      </trkpt>
      <trkpt lat="45.16958" lon="5.9501">
        <ele>2485</ele>
        <time>2021-02-20T10:21:47Z</time>
      </trkpt>
      <trkpt lat="45.16957" lon="5.95011">
        <ele>2485</ele>
        <time>2021-02-20T10:21:48Z</time>
      </trkpt>
      <trkpt lat="45.16956" lon="5.95012">
        <ele>2482.5</ele>
        <time>2021-02-20T10:21:49Z</time>
      </trkpt>
      <trkpt lat="45.16953" lon="5.95009">
        <ele>2479.7</ele>
        <time>2021-02-20T10:21:50Z</time>
      </trkpt>
      <trkpt lat="45.16953" lon="5.95008">
        <ele>2478.1</ele>
        <time>2021-02-20T10:21:51Z</time>
      </trkpt>
      <trkpt lat="45.1695" lon="5.95005">
        <ele>2475</ele>
        <time>2021-02-20T10:21:52Z</time>
      </trkpt>
      <trkpt lat="45.16948" lon="5.95004">
        <ele>2473.5</ele>
        <time>2021-02-20T10:21:53Z</time>
      </trkpt>
      <trkpt lat="45.16944" lon="5.95001">
        <ele>2467.1</ele>
        <time>2021-02-20T10:21:54Z</time>
      </trkpt>
      <trkpt lat="45.16938" lon="5.95002">
        <ele>2461.1</ele>
        <time>2021-02-20T10:21:55Z</time>
      </trkpt>
      <trkpt lat="45.16934" lon="5.95007">
        <ele>2459.2</ele>
        <time>2021-02-20T10:21:56Z</time>
      </trkpt>
      <trkpt lat="45.16931" lon="5.95013">
        <ele>2457.9</ele>
        <time>2021-02-20T10:21:57Z</time>
      </trkpt>
      <trkpt lat="45.1693" lon="5.9502">
        <ele>2456</ele>
        <time>2021-02-20T10:21:58Z</time>
      </trkpt>
      <trkpt lat="45.16928" lon="5.95025">
        <ele>2456.7</ele>
        <time>2021-02-20T10:21:59Z</time>
      </trkpt>
      <trkpt lat="45.16926" lon="5.95027">
        <ele>2454.7</ele>
        <time>2021-02-20T10:22:00Z</time>
      </trkpt>
      <trkpt lat="45.16922" lon="5.95026">
        <ele>2452.3</ele>
        <time>2021-02-20T10:22:01Z</time>
      </trkpt>
      <trkpt lat="45.16918" lon="5.95023">
        <ele>2449.5</ele>
        <time>2021-02-20T10:22:02Z</time>
      </trkpt>
      <trkpt lat="45.16914" lon="5.95022">
        <ele>2445.8</ele>
        <time>2021-02-20T10:22:03Z</time>
      </trkpt>
      <trkpt lat="45.16913" lon="5.95022">
        <ele>2445.8</ele>
        <time>2021-02-20T10:22:04Z</time>
      </trkpt>
      <trkpt lat="45.16914" lon="5.95023">
        <ele>2445.8</ele>
        <time>2021-02-20T10:22:05Z</time>
      </trkpt>
      <trkpt lat="45.16914" lon="5.95024">
        <ele>2445.8</ele>
        <time>2021-02-20T10:22:06Z</time>
      </trkpt>
      <trkpt lat="45.16915" lon="5.95025">
        <ele>2447.6</ele>
        <time>2021-02-20T10:22:07Z</time>
      </trkpt>
      <trkpt lat="45.16916" lon="5.95026">
        <ele>2448</ele>
        <time>2021-02-20T10:22:08Z</time>
      </trkpt>
      <trkpt lat="45.16917" lon="5.95027">
        <ele>2448</ele>
        <time>2021-02-20T10:22:09Z</time>
      </trkpt>
      <trkpt lat="45.16917" lon="5.95028">
        <ele>2448</ele>
        <time>2021-02-20T10:22:10Z</time>
      </trkpt>
      <trkpt lat="45.16918" lon="5.95029">
        <ele>2450</ele>
        <time>2021-02-20T10:22:11Z</time>
      </trkpt>
      <trkpt lat="45.16919" lon="5.9503">
        <ele>2450</ele>
        <time>2021-02-20T10:22:12Z</time>
      </trkpt>
      <trkpt lat="45.16919" lon="5.95031">
        <ele>2450.5</ele>
        <time>2021-02-20T10:22:13Z</time>
      </trkpt>
      <trkpt lat="45.1692" lon="5.95032">
        <ele>2450.5</ele>
        <time>2021-02-20T10:22:14Z</time>
      </trkpt>
      <trkpt lat="45.16921" lon="5.95032">
        <ele>2450.5</ele>
        <time>2021-02-20T10:22:49Z</time>
      </trkpt>
      <trkpt lat="45.16922" lon="5.95033">
        <ele>2452.8</ele>
        <time>2021-02-20T10:22:50Z</time>
      </trkpt>
      <trkpt lat="45.16921" lon="5.95034">
        <ele>2453.4</ele>
        <time>2021-02-20T10:22:51Z</time>
      </trkpt>
      <trkpt lat="45.16921" lon="5.95035">
        <ele>2453.4</ele>
        <time>2021-02-20T10:22:52Z</time>
      </trkpt>
      <trkpt lat="45.16921" lon="5.95036">
        <ele>2453.4</ele>
        <time>2021-02-20T10:22:53Z</time>
      </trkpt>
      <trkpt lat="45.16921" lon="5.95036">
        <ele>2451</ele>
        <time>2021-02-20T10:22:54Z</time>
      </trkpt>
      <trkpt lat="45.16921" lon="5.95037">
        <ele>2451</ele>
        <time>2021-02-20T10:22:55Z</time>
      </trkpt>
      <trkpt lat="45.16921" lon="5.95038">
        <ele>2451</ele>
        <time>2021-02-20T10:22:56Z</time>
      </trkpt>
      <trkpt lat="45.1692" lon="5.95038">
        <ele>2451</ele>
        <time>2021-02-20T10:22:57Z</time>
      </trkpt>
      <trkpt lat="45.1692" lon="5.95039">
        <ele>2451.4</ele>
        <time>2021-02-20T10:22:58Z</time>
      </trkpt>
      <trkpt lat="45.16921" lon="5.95044">
        <ele>2451.7</ele>
        <time>2021-02-20T10:22:59Z</time>
      </trkpt>
      <trkpt lat="45.16921" lon="5.95046">
        <ele>2451.7</ele>
        <time>2021-02-20T10:23:00Z</time>
      </trkpt>
      <trkpt lat="45.1692" lon="5.95051">
        <ele>2451.9</ele>
        <time>2021-02-20T10:23:01Z</time>
      </trkpt>
      <trkpt lat="45.1692" lon="5.95052">
        <ele>2452.1</ele>
        <time>2021-02-20T10:23:02Z</time>
      </trkpt>
      <trkpt lat="45.16916" lon="5.95053">
        <ele>2449.9</ele>
        <time>2021-02-20T10:23:03Z</time>
      </trkpt>
      <trkpt lat="45.16915" lon="5.95053">
        <ele>2447.9</ele>
        <time>2021-02-20T10:23:04Z</time>
      </trkpt>
      <trkpt lat="45.16911" lon="5.95051">
        <ele>2446</ele>
        <time>2021-02-20T10:23:05Z</time>
      </trkpt>
      <trkpt lat="45.16907" lon="5.9505">
        <ele>2444.6</ele>
        <time>2021-02-20T10:23:06Z</time>
      </trkpt>
      <trkpt lat="45.16904" lon="5.95048">
        <ele>2443.2</ele>
        <time>2021-02-20T10:23:07Z</time>
      </trkpt>
      <trkpt lat="45.16903" lon="5.95048">
        <ele>2441.9</ele>
        <time>2021-02-20T10:23:08Z</time>
      </trkpt>
      <trkpt lat="45.16899" lon="5.95048">
        <ele>2440.6</ele>
        <time>2021-02-20T10:23:09Z</time>
      </trkpt>
      <trkpt lat="45.16897" lon="5.95052">
        <ele>2439.3</ele>
        <time>2021-02-20T10:23:10Z</time>
      </trkpt>
      <trkpt lat="45.16895" lon="5.95058">
        <ele>2439.3</ele>
        <time>2021-02-20T10:23:11Z</time>
      </trkpt>
      <trkpt lat="45.16894" lon="5.95062">
        <ele>2439.3</ele>
        <time>2021-02-20T10:23:12Z</time>
      </trkpt>
      <trkpt lat="45.16892" lon="5.95067">
        <ele>2437.8</ele>
        <time>2021-02-20T10:23:13Z</time>
      </trkpt>
      <trkpt lat="45.16891" lon="5.95069">
        <ele>2437.6</ele>
        <time>2021-02-20T10:23:14Z</time>
      </trkpt>
      <trkpt lat="45.16889" lon="5.95073">
        <ele>2436</ele>
        <time>2021-02-20T10:23:15Z</time>
      </trkpt>
      <trkpt lat="45.16888" lon="5.95074">
        <ele>2435.9</ele>
        <time>2021-02-20T10:23:16Z</time>
      </trkpt>
      <trkpt lat="45.16885" lon="5.95077">
        <ele>2434.2</ele>
        <time>2021-02-20T10:23:17Z</time>
      </trkpt>
      <trkpt lat="45.16881" lon="5.9508">
        <ele>2430.8</ele>
        <time>2021-02-20T10:23:18Z</time>
      </trkpt>
      <trkpt lat="45.16876" lon="5.95084">
        <ele>2427.8</ele>
        <time>2021-02-20T10:23:19Z</time>
      </trkpt>
      <trkpt lat="45.1687" lon="5.95088">
        <ele>2426.3</ele>
        <time>2021-02-20T10:23:20Z</time>
      </trkpt>
      <trkpt lat="45.16867" lon="5.95093">
        <ele>2424.6</ele>
        <time>2021-02-20T10:23:21Z</time>
      </trkpt>
      <trkpt lat="45.16864" lon="5.95094">
        <ele>2422.7</ele>
        <time>2021-02-20T10:23:22Z</time>
      </trkpt>
      <trkpt lat="45.16862" lon="5.95099">
        <ele>2420.4</ele>
        <time>2021-02-20T10:23:23Z</time>
      </trkpt>
      <trkpt lat="45.1686" lon="5.95101">
        <ele>2418.3</ele>
        <time>2021-02-20T10:23:24Z</time>
      </trkpt>
      <trkpt lat="45.16851" lon="5.951">
        <ele>2412.6</ele>
        <time>2021-02-20T10:23:25Z</time>
      </trkpt>
      <trkpt lat="45.16847" lon="5.95105">
        <ele>2410.5</ele>
        <time>2021-02-20T10:23:26Z</time>
      </trkpt>
      <trkpt lat="45.16843" lon="5.95107">
        <ele>2408.2</ele>
        <time>2021-02-20T10:23:27Z</time>
      </trkpt>
      <trkpt lat="45.16835" lon="5.95103">
        <ele>2402.7</ele>
        <time>2021-02-20T10:23:28Z</time>
      </trkpt>
      <trkpt lat="45.1683" lon="5.95117">
        <ele>2396.5</ele>
        <time>2021-02-20T10:23:29Z</time>
      </trkpt>
      <trkpt lat="45.16826" lon="5.95124">
        <ele>2393.8</ele>
        <time>2021-02-20T10:23:30Z</time>
      </trkpt>
      <trkpt lat="45.16821" lon="5.95126">
        <ele>2389.3</ele>
        <time>2021-02-20T10:23:31Z</time>
      </trkpt>
      <trkpt lat="45.16816" lon="5.9513">
        <ele>2386.8</ele>
        <time>2021-02-20T10:23:32Z</time>
      </trkpt>
      <trkpt lat="45.16813" lon="5.95141">
        <ele>2383.7</ele>
        <time>2021-02-20T10:23:33Z</time>
      </trkpt>
      <trkpt lat="45.1681" lon="5.95151">
        <ele>2380.2</ele>
        <time>2021-02-20T10:23:34Z</time>
      </trkpt>
      <trkpt lat="45.16813" lon="5.95163">
        <ele>2381.8</ele>
        <time>2021-02-20T10:23:35Z</time>
      </trkpt>
      <trkpt lat="45.16812" lon="5.9517">
        <ele>2379.1</ele>
        <time>2021-02-20T10:23:36Z</time>
      </trkpt>
      <trkpt lat="45.16804" lon="5.95166">
        <ele>2374.5</ele>
        <time>2021-02-20T10:23:37Z</time>
      </trkpt>
      <trkpt lat="45.16799" lon="5.9517">
        <ele>2369.2</ele>
        <time>2021-02-20T10:23:38Z</time>
      </trkpt>
      <trkpt lat="45.16794" lon="5.9517">
        <ele>2364.4</ele>
        <time>2021-02-20T10:23:39Z</time>
      </trkpt>
      <trkpt lat="45.16788" lon="5.95163">
        <ele>2362.4</ele>
        <time>2021-02-20T10:23:40Z</time>
      </trkpt>
      <trkpt lat="45.16781" lon="5.9516">
        <ele>2355.7</ele>
        <time>2021-02-20T10:23:41Z</time>
      </trkpt>
      <trkpt lat="45.16777" lon="5.95175">
        <ele>2352.5</ele>
        <time>2021-02-20T10:23:42Z</time>
      </trkpt>
      <trkpt lat="45.16773" lon="5.95188">
        <ele>2347.6</ele>
        <time>2021-02-20T10:23:43Z</time>
      </trkpt>
      <trkpt lat="45.1677" lon="5.95198">
        <ele>2346</ele>
        <time>2021-02-20T10:23:44Z</time>
      </trkpt>
      <trkpt lat="45.16767" lon="5.95209">
        <ele>2344.6</ele>
        <time>2021-02-20T10:23:45Z</time>
      </trkpt>
      <trkpt lat="45.16764" lon="5.95202">
        <ele>2344.3</ele>
        <time>2021-02-20T10:23:46Z</time>
      </trkpt>
      <trkpt lat="45.16761" lon="5.95201">
        <ele>2339.9</ele>
        <time>2021-02-20T10:23:47Z</time>
      </trkpt>
      <trkpt lat="45.16754" lon="5.95208">
        <ele>2336.1</ele>
        <time>2021-02-20T10:23:48Z</time>
      </trkpt>
      <trkpt lat="45.16752" lon="5.95211">
        <ele>2336.6</ele>
        <time>2021-02-20T10:23:49Z</time>
      </trkpt>
      <trkpt lat="45.16749" lon="5.95215">
        <ele>2334.8</ele>
        <time>2021-02-20T10:23:50Z</time>
      </trkpt>
      <trkpt lat="45.16747" lon="5.95215">
        <ele>2332.5</ele>
        <time>2021-02-20T10:23:51Z</time>
      </trkpt>
      <trkpt lat="45.16746" lon="5.95216">
        <ele>2332.5</ele>
        <time>2021-02-20T10:23:52Z</time>
      </trkpt>
      <trkpt lat="45.16746" lon="5.9522">
        <ele>2333.2</ele>
        <time>2021-02-20T10:23:53Z</time>
      </trkpt>
      <trkpt lat="45.16747" lon="5.95225">
        <ele>2333.8</ele>
        <time>2021-02-20T10:23:54Z</time>
      </trkpt>
      <trkpt lat="45.16748" lon="5.95228">
        <ele>2334.5</ele>
        <time>2021-02-20T10:23:55Z</time>
      </trkpt>
      <trkpt lat="45.16745" lon="5.95225">
        <ele>2331.7</ele>
        <time>2021-02-20T10:23:56Z</time>
      </trkpt>
      <trkpt lat="45.16745" lon="5.95228">
        <ele>2332.4</ele>
        <time>2021-02-20T10:23:57Z</time>
      </trkpt>
      <trkpt lat="45.16744" lon="5.95229">
        <ele>2332.4</ele>
        <time>2021-02-20T10:23:58Z</time>
      </trkpt>
      <trkpt lat="45.16744" lon="5.95232">
        <ele>2333.1</ele>
        <time>2021-02-20T10:23:59Z</time>
      </trkpt>
      <trkpt lat="45.16745" lon="5.95234">
        <ele>2333.1</ele>
        <time>2021-02-20T10:24:00Z</time>
      </trkpt>
      <trkpt lat="45.16747" lon="5.95235">
        <ele>2335.1</ele>
        <time>2021-02-20T10:24:01Z</time>
      </trkpt>
      <trkpt lat="45.16748" lon="5.95236">
        <ele>2335.1</ele>
        <time>2021-02-20T10:24:02Z</time>
      </trkpt>
      <trkpt lat="45.1675" lon="5.95236">
        <ele>2338</ele>
        <time>2021-02-20T10:24:03Z</time>
      </trkpt>
      <trkpt lat="45.16753" lon="5.95237">
        <ele>2340.3</ele>
        <time>2021-02-20T10:24:04Z</time>
      </trkpt>
      <trkpt lat="45.16755" lon="5.95238">
        <ele>2342.5</ele>
        <time>2021-02-20T10:24:05Z</time>
      </trkpt>
      <trkpt lat="45.16758" lon="5.9524">
        <ele>2344.6</ele>
        <time>2021-02-20T10:24:06Z</time>
      </trkpt>
      <trkpt lat="45.16761" lon="5.95242">
        <ele>2345.2</ele>
        <time>2021-02-20T10:24:07Z</time>
      </trkpt>
      <trkpt lat="45.16761" lon="5.95243">
        <ele>2347.1</ele>
        <time>2021-02-20T10:24:08Z</time>
      </trkpt>
      <trkpt lat="45.16761" lon="5.95243">
        <ele>2347.1</ele>
        <time>2021-02-20T10:24:09Z</time>
      </trkpt>
      <trkpt lat="45.1676" lon="5.95242">
        <ele>2345.2</ele>
        <time>2021-02-20T10:24:10Z</time>
      </trkpt>
      <trkpt lat="45.16759" lon="5.95242">
        <ele>2345.2</ele>
        <time>2021-02-20T10:24:11Z</time>
      </trkpt>
      <trkpt lat="45.16758" lon="5.95242">
        <ele>2345.2</ele>
        <time>2021-02-20T10:24:12Z</time>
      </trkpt>
      <trkpt lat="45.16756" lon="5.95242">
        <ele>2343.1</ele>
        <time>2021-02-20T10:24:13Z</time>
      </trkpt>
      <trkpt lat="45.16755" lon="5.95242">
        <ele>2343.1</ele>
        <time>2021-02-20T10:24:14Z</time>
      </trkpt>
      <trkpt lat="45.16752" lon="5.95241">
        <ele>2340.9</ele>
        <time>2021-02-20T10:24:15Z</time>
      </trkpt>
      <trkpt lat="45.16751" lon="5.9524">
        <ele>2338.7</ele>
        <time>2021-02-20T10:24:16Z</time>
      </trkpt>
      <trkpt lat="45.16748" lon="5.95234">
        <ele>2335.1</ele>
        <time>2021-02-20T10:24:17Z</time>
      </trkpt>
      <trkpt lat="45.16747" lon="5.9523">
        <ele>2334.5</ele>
        <time>2021-02-20T10:24:18Z</time>
      </trkpt>
      <trkpt lat="45.16746" lon="5.95225">
        <ele>2333.8</ele>
        <time>2021-02-20T10:25:49Z</time>
      </trkpt>
      <trkpt lat="45.16744" lon="5.95221">
        <ele>2331</ele>
        <time>2021-02-20T10:25:50Z</time>
      </trkpt>
      <trkpt lat="45.16742" lon="5.95218">
        <ele>2328.5</ele>
        <time>2021-02-20T10:25:51Z</time>
      </trkpt>
      <trkpt lat="45.16741" lon="5.95217">
        <ele>2328.5</ele>
        <time>2021-02-20T10:25:52Z</time>
      </trkpt>
      <trkpt lat="45.16738" lon="5.95213">
        <ele>2326.2</ele>
        <time>2021-02-20T10:25:53Z</time>
      </trkpt>
      <trkpt lat="45.16736" lon="5.95208">
        <ele>2324</ele>
        <time>2021-02-20T10:25:54Z</time>
      </trkpt>
      <trkpt lat="45.16734" lon="5.95202">
        <ele>2323.6</ele>
        <time>2021-02-20T10:25:55Z</time>
      </trkpt>
      <trkpt lat="45.16732" lon="5.95197">
        <ele>2321.3</ele>
        <time>2021-02-20T10:25:56Z</time>
      </trkpt>
      <trkpt lat="45.16729" lon="5.95194">
        <ele>2319.5</ele>
        <time>2021-02-20T10:25:57Z</time>
      </trkpt>
      <trkpt lat="45.16726" lon="5.9519">
        <ele>2317.5</ele>
        <time>2021-02-20T10:25:58Z</time>
      </trkpt>
      <trkpt lat="45.16723" lon="5.95187">
        <ele>2315.6</ele>
        <time>2021-02-20T10:25:59Z</time>
      </trkpt>
      <trkpt lat="45.16721" lon="5.95185">
        <ele>2313.9</ele>
        <time>2021-02-20T10:26:00Z</time>
      </trkpt>
      <trkpt lat="45.16718" lon="5.95183">
        <ele>2312.1</ele>
        <time>2021-02-20T10:26:01Z</time>
      </trkpt>
      <trkpt lat="45.16713" lon="5.9518">
        <ele>2310.6</ele>
        <time>2021-02-20T10:26:02Z</time>
      </trkpt>
      <trkpt lat="45.16708" lon="5.95179">
        <ele>2307.6</ele>
        <time>2021-02-20T10:26:03Z</time>
      </trkpt>
      <trkpt lat="45.16702" lon="5.9518">
        <ele>2305</ele>
        <time>2021-02-20T10:26:04Z</time>
      </trkpt>
      <trkpt lat="45.16696" lon="5.95179">
        <ele>2302.3</ele>
        <time>2021-02-20T10:26:05Z</time>
      </trkpt>
      <trkpt lat="45.16691" lon="5.95175">
        <ele>2300.6</ele>
        <time>2021-02-20T10:26:06Z</time>
      </trkpt>
      <trkpt lat="45.16687" lon="5.95168">
        <ele>2297.5</ele>
        <time>2021-02-20T10:26:07Z</time>
      </trkpt>
      <trkpt lat="45.16684" lon="5.95161">
        <ele>2295.3</ele>
        <time>2021-02-20T10:26:08Z</time>
      </trkpt>
      <trkpt lat="45.16681" lon="5.95154">
        <ele>2293.5</ele>
        <time>2021-02-20T10:26:09Z</time>
      </trkpt>
      <trkpt lat="45.16679" lon="5.95148">
        <ele>2293.2</ele>
        <time>2021-02-20T10:26:10Z</time>
      </trkpt>
      <trkpt lat="45.1668" lon="5.95146">
        <ele>2292.9</ele>
        <time>2021-02-20T10:26:11Z</time>
      </trkpt>
      <trkpt lat="45.16681" lon="5.95144">
        <ele>2292.9</ele>
        <time>2021-02-20T10:26:12Z</time>
      </trkpt>
      <trkpt lat="45.16685" lon="5.95149">
        <ele>2295.7</ele>
        <time>2021-02-20T10:26:13Z</time>
      </trkpt>
      <trkpt lat="45.16681" lon="5.95142">
        <ele>2292.9</ele>
        <time>2021-02-20T10:26:14Z</time>
      </trkpt>
      <trkpt lat="45.16677" lon="5.95137">
        <ele>2291.7</ele>
        <time>2021-02-20T10:26:15Z</time>
      </trkpt>
      <trkpt lat="45.16669" lon="5.95122">
        <ele>2288.2</ele>
        <time>2021-02-20T10:26:16Z</time>
      </trkpt>
      <trkpt lat="45.1667" lon="5.95116">
        <ele>2289.4</ele>
        <time>2021-02-20T10:26:17Z</time>
      </trkpt>
      <trkpt lat="45.1667" lon="5.95121">
        <ele>2289.4</ele>
        <time>2021-02-20T10:26:18Z</time>
      </trkpt>
      <trkpt lat="45.16665" lon="5.95118">
        <ele>2287.1</ele>
        <time>2021-02-20T10:26:19Z</time>
      </trkpt>
      <trkpt lat="45.1666" lon="5.95115">
        <ele>2285</ele>
        <time>2021-02-20T10:26:20Z</time>
      </trkpt>
      <trkpt lat="45.16655" lon="5.95115">
        <ele>2284.1</ele>
        <time>2021-02-20T10:26:21Z</time>
      </trkpt>
      <trkpt lat="45.16654" lon="5.95113">
        <ele>2282.8</ele>
        <time>2021-02-20T10:26:22Z</time>
      </trkpt>
      <trkpt lat="45.16653" lon="5.95112">
        <ele>2282.8</ele>
        <time>2021-02-20T10:26:23Z</time>
      </trkpt>
      <trkpt lat="45.16653" lon="5.95113">
        <ele>2282.8</ele>
        <time>2021-02-20T10:26:24Z</time>
      </trkpt>
      <trkpt lat="45.16653" lon="5.95113">
        <ele>2282.8</ele>
        <time>2021-02-20T10:26:25Z</time>
      </trkpt>
      <trkpt lat="45.16653" lon="5.95113">
        <ele>2282.8</ele>
        <time>2021-02-20T10:26:26Z</time>
      </trkpt>
      <trkpt lat="45.16653" lon="5.95113">
        <ele>2282.8</ele>
        <time>2021-02-20T10:26:27Z</time>
      </trkpt>
      <trkpt lat="45.16653" lon="5.95113">
        <ele>2282.8</ele>
        <time>2021-02-20T10:26:28Z</time>
      </trkpt>
      <trkpt lat="45.16653" lon="5.95113">
        <ele>2282.8</ele>
        <time>2021-02-20T10:26:29Z</time>
      </trkpt>
      <trkpt lat="45.16653" lon="5.95113">
        <ele>2282.8</ele>
        <time>2021-02-20T10:26:30Z</time>
      </trkpt>
      <trkpt lat="45.16652" lon="5.95113">
        <ele>2282.8</ele>
        <time>2021-02-20T10:26:31Z</time>
      </trkpt>
      <trkpt lat="45.16652" lon="5.95113">
        <ele>2282.8</ele>
        <time>2021-02-20T10:26:32Z</time>
      </trkpt>
      <trkpt lat="45.16652" lon="5.95113">
        <ele>2282.8</ele>
        <time>2021-02-20T10:26:33Z</time>
      </trkpt>
      <trkpt lat="45.16652" lon="5.95113">
        <ele>2282.8</ele>
        <time>2021-02-20T10:26:34Z</time>
      </trkpt>
      <trkpt lat="45.16652" lon="5.95113">
        <ele>2282.8</ele>
        <time>2021-02-20T10:26:35Z</time>
      </trkpt>
      <trkpt lat="45.16652" lon="5.95113">
        <ele>2282</ele>
        <time>2021-02-20T10:26:36Z</time>
      </trkpt>
      <trkpt lat="45.16651" lon="5.95113">
        <ele>2282</ele>
        <time>2021-02-20T10:39:02Z</time>
      </trkpt>
      <trkpt lat="45.16651" lon="5.95113">
        <ele>2282</ele>
        <time>2021-02-20T10:39:03Z</time>
      </trkpt>
      <trkpt lat="45.16651" lon="5.95113">
        <ele>2282</ele>
        <time>2021-02-20T10:39:04Z</time>
      </trkpt>
      <trkpt lat="45.16651" lon="5.95113">
        <ele>2282</ele>
        <time>2021-02-20T10:39:05Z</time>
      </trkpt>
      <trkpt lat="45.16651" lon="5.95113">
        <ele>2282</ele>
        <time>2021-02-20T10:39:06Z</time>
      </trkpt>
      <trkpt lat="45.16651" lon="5.95113">
        <ele>2282</ele>
        <time>2021-02-20T10:39:07Z</time>
      </trkpt>
      <trkpt lat="45.16651" lon="5.95113">
        <ele>2282</ele>
        <time>2021-02-20T10:39:08Z</time>
      </trkpt>
      <trkpt lat="45.1665" lon="5.95113">
        <ele>2282</ele>
        <time>2021-02-20T10:39:09Z</time>
      </trkpt>
      <trkpt lat="45.1665" lon="5.95113">
        <ele>2282</ele>
        <time>2021-02-20T10:39:10Z</time>
      </trkpt>
      <trkpt lat="45.1665" lon="5.95113">
        <ele>2282</ele>
        <time>2021-02-20T10:39:11Z</time>
      </trkpt>
      <trkpt lat="45.1665" lon="5.95113">
        <ele>2282</ele>
        <time>2021-02-20T10:39:12Z</time>
      </trkpt>
      <trkpt lat="45.1665" lon="5.95113">
        <ele>2282</ele>
        <time>2021-02-20T10:39:13Z</time>
      </trkpt>
      <trkpt lat="45.1665" lon="5.95113">
        <ele>2282</ele>
        <time>2021-02-20T10:45:40Z</time>
      </trkpt>
      <trkpt lat="45.16649" lon="5.95113">
        <ele>2282</ele>
        <time>2021-02-20T10:45:41Z</time>
      </trkpt>
      <trkpt lat="45.16649" lon="5.95113">
        <ele>2282</ele>
        <time>2021-02-20T10:45:42Z</time>
      </trkpt>
      <trkpt lat="45.16649" lon="5.95113">
        <ele>2282</ele>
        <time>2021-02-20T10:45:43Z</time>
      </trkpt>
      <trkpt lat="45.16649" lon="5.95113">
        <ele>2282</ele>
        <time>2021-02-20T10:45:44Z</time>
      </trkpt>
      <trkpt lat="45.16649" lon="5.95113">
        <ele>2282</ele>
        <time>2021-02-20T10:45:45Z</time>
      </trkpt>
      <trkpt lat="45.16649" lon="5.95113">
        <ele>2282</ele>
        <time>2021-02-20T10:45:46Z</time>
      </trkpt>
      <trkpt lat="45.16649" lon="5.95113">
        <ele>2281.1</ele>
        <time>2021-02-20T10:45:47Z</time>
      </trkpt>
      <trkpt lat="45.16648" lon="5.95113">
        <ele>2281.1</ele>
        <time>2021-02-20T10:45:48Z</time>
      </trkpt>
      <trkpt lat="45.16648" lon="5.95113">
        <ele>2281.1</ele>
        <time>2021-02-20T10:45:49Z</time>
      </trkpt>
      <trkpt lat="45.16648" lon="5.95113">
        <ele>2281.1</ele>
        <time>2021-02-20T10:45:50Z</time>
      </trkpt>
      <trkpt lat="45.16648" lon="5.95113">
        <ele>2281.1</ele>
        <time>2021-02-20T10:45:51Z</time>
      </trkpt>
      <trkpt lat="45.16648" lon="5.95113">
        <ele>2281.1</ele>
        <time>2021-02-20T10:46:49Z</time>
      </trkpt>
      <trkpt lat="45.16648" lon="5.95113">
        <ele>2281.1</ele>
        <time>2021-02-20T10:46:50Z</time>
      </trkpt>
      <trkpt lat="45.16645" lon="5.95109">
        <ele>2280.1</ele>
        <time>2021-02-20T10:46:51Z</time>
      </trkpt>
      <trkpt lat="45.16644" lon="5.95108">
        <ele>2280.1</ele>
        <time>2021-02-20T10:46:52Z</time>
      </trkpt>
      <trkpt lat="45.16642" lon="5.95105">
        <ele>2279.1</ele>
        <time>2021-02-20T10:46:53Z</time>
      </trkpt>
      <trkpt lat="45.16639" lon="5.95101">
        <ele>2278.1</ele>
        <time>2021-02-20T10:46:54Z</time>
      </trkpt>
      <trkpt lat="45.16638" lon="5.95097">
        <ele>2278.1</ele>
        <time>2021-02-20T10:46:55Z</time>
      </trkpt>
      <trkpt lat="45.16636" lon="5.95091">
        <ele>2277.2</ele>
        <time>2021-02-20T10:46:56Z</time>
      </trkpt>
      <trkpt lat="45.16633" lon="5.95084">
        <ele>2276.5</ele>
        <time>2021-02-20T10:46:57Z</time>
      </trkpt>
      <trkpt lat="45.1663" lon="5.95075">
        <ele>2275.8</ele>
        <time>2021-02-20T10:46:58Z</time>
      </trkpt>
      <trkpt lat="45.16627" lon="5.95068">
        <ele>2275</ele>
        <time>2021-02-20T10:46:59Z</time>
      </trkpt>
      <trkpt lat="45.16625" lon="5.9506">
        <ele>2274.9</ele>
        <time>2021-02-20T10:47:00Z</time>
      </trkpt>
      <trkpt lat="45.16623" lon="5.95053">
        <ele>2274</ele>
        <time>2021-02-20T10:47:01Z</time>
      </trkpt>
      <trkpt lat="45.16622" lon="5.95046">
        <ele>2274</ele>
        <time>2021-02-20T10:47:02Z</time>
      </trkpt>
      <trkpt lat="45.1662" lon="5.95037">
        <ele>2273.2</ele>
        <time>2021-02-20T10:47:03Z</time>
      </trkpt>
      <trkpt lat="45.16618" lon="5.95026">
        <ele>2272.4</ele>
        <time>2021-02-20T10:47:04Z</time>
      </trkpt>
      <trkpt lat="45.16616" lon="5.95014">
        <ele>2272.4</ele>
        <time>2021-02-20T10:47:05Z</time>
      </trkpt>
      <trkpt lat="45.16615" lon="5.95002">
        <ele>2272.2</ele>
        <time>2021-02-20T10:47:06Z</time>
      </trkpt>
      <trkpt lat="45.16615" lon="5.94991">
        <ele>2270.6</ele>
        <time>2021-02-20T10:47:07Z</time>
      </trkpt>
      <trkpt lat="45.16616" lon="5.94979">
        <ele>2270.8</ele>
        <time>2021-02-20T10:47:08Z</time>
      </trkpt>
      <trkpt lat="45.16615" lon="5.94972">
        <ele>2269</ele>
        <time>2021-02-20T10:47:09Z</time>
      </trkpt>
      <trkpt lat="45.16612" lon="5.94968">
        <ele>2267.7</ele>
        <time>2021-02-20T10:47:10Z</time>
      </trkpt>
      <trkpt lat="45.16611" lon="5.94965">
        <ele>2267.2</ele>
        <time>2021-02-20T10:47:11Z</time>
      </trkpt>
      <trkpt lat="45.1661" lon="5.94964">
        <ele>2267.2</ele>
        <time>2021-02-20T10:47:12Z</time>
      </trkpt>
      <trkpt lat="45.1661" lon="5.94963">
        <ele>2267.2</ele>
        <time>2021-02-20T10:47:13Z</time>
      </trkpt>
      <trkpt lat="45.1661" lon="5.94962">
        <ele>2267.2</ele>
        <time>2021-02-20T10:47:14Z</time>
      </trkpt>
      <trkpt lat="45.16611" lon="5.94961">
        <ele>2267.2</ele>
        <time>2021-02-20T10:47:15Z</time>
      </trkpt>
      <trkpt lat="45.1661" lon="5.94961">
        <ele>2266.7</ele>
        <time>2021-02-20T10:47:16Z</time>
      </trkpt>
      <trkpt lat="45.1661" lon="5.94959">
        <ele>2266.7</ele>
        <time>2021-02-20T10:47:17Z</time>
      </trkpt>
      <trkpt lat="45.16609" lon="5.94959">
        <ele>2265.8</ele>
        <time>2021-02-20T10:47:18Z</time>
      </trkpt>
      <trkpt lat="45.16609" lon="5.94958">
        <ele>2265.8</ele>
        <time>2021-02-20T10:47:19Z</time>
      </trkpt>
      <trkpt lat="45.16608" lon="5.94957">
        <ele>2265.8</ele>
        <time>2021-02-20T10:47:20Z</time>
      </trkpt>
      <trkpt lat="45.16608" lon="5.94956">
        <ele>2265.3</ele>
        <time>2021-02-20T10:47:21Z</time>
      </trkpt>
      <trkpt lat="45.16607" lon="5.94954">
        <ele>2265.3</ele>
        <time>2021-02-20T10:47:22Z</time>
      </trkpt>
      <trkpt lat="45.16607" lon="5.94953">
        <ele>2264.8</ele>
        <time>2021-02-20T10:47:23Z</time>
      </trkpt>
      <trkpt lat="45.16606" lon="5.94951">
        <ele>2264</ele>
        <time>2021-02-20T10:47:24Z</time>
      </trkpt>
      <trkpt lat="45.16606" lon="5.94947">
        <ele>2263.4</ele>
        <time>2021-02-20T10:47:25Z</time>
      </trkpt>
      <trkpt lat="45.16606" lon="5.94946">
        <ele>2263.4</ele>
        <time>2021-02-20T10:47:26Z</time>
      </trkpt>
      <trkpt lat="45.16605" lon="5.94943">
        <ele>2262.8</ele>
        <time>2021-02-20T10:47:27Z</time>
      </trkpt>
      <trkpt lat="45.16605" lon="5.94941">
        <ele>2262.8</ele>
        <time>2021-02-20T10:47:28Z</time>
      </trkpt>
      <trkpt lat="45.16604" lon="5.9494">
        <ele>2262.8</ele>
        <time>2021-02-20T10:47:29Z</time>
      </trkpt>
      <trkpt lat="45.16604" lon="5.94939">
        <ele>2262.2</ele>
        <time>2021-02-20T10:47:30Z</time>
      </trkpt>
      <trkpt lat="45.16604" lon="5.94937">
        <ele>2262.2</ele>
        <time>2021-02-20T10:47:31Z</time>
      </trkpt>
      <trkpt lat="45.16603" lon="5.94934">
        <ele>2260.9</ele>
        <time>2021-02-20T10:47:32Z</time>
      </trkpt>
      <trkpt lat="45.16603" lon="5.94933">
        <ele>2260.9</ele>
        <time>2021-02-20T10:47:33Z</time>
      </trkpt>
      <trkpt lat="45.16603" lon="5.94932">
        <ele>2260.9</ele>
        <time>2021-02-20T10:47:34Z</time>
      </trkpt>
      <trkpt lat="45.16602" lon="5.94929">
        <ele>2260.4</ele>
        <time>2021-02-20T10:47:35Z</time>
      </trkpt>
      <trkpt lat="45.16602" lon="5.94928">
        <ele>2260.4</ele>
        <time>2021-02-20T10:47:36Z</time>
      </trkpt>
      <trkpt lat="45.16602" lon="5.94927">
        <ele>2259.9</ele>
        <time>2021-02-20T10:47:37Z</time>
      </trkpt>
      <trkpt lat="45.16602" lon="5.94926">
        <ele>2259.9</ele>
        <time>2021-02-20T10:47:38Z</time>
      </trkpt>
      <trkpt lat="45.16602" lon="5.94924">
        <ele>2259.9</ele>
        <time>2021-02-20T10:47:39Z</time>
      </trkpt>
      <trkpt lat="45.16601" lon="5.94923">
        <ele>2259.3</ele>
        <time>2021-02-20T10:47:40Z</time>
      </trkpt>
      <trkpt lat="45.16601" lon="5.94921">
        <ele>2259.3</ele>
        <time>2021-02-20T10:47:41Z</time>
      </trkpt>
      <trkpt lat="45.16601" lon="5.94919">
        <ele>2259.3</ele>
        <time>2021-02-20T10:47:42Z</time>
      </trkpt>
      <trkpt lat="45.166" lon="5.94916">
        <ele>2258.8</ele>
        <time>2021-02-20T10:47:43Z</time>
      </trkpt>
      <trkpt lat="45.166" lon="5.94914">
        <ele>2258.2</ele>
        <time>2021-02-20T10:47:44Z</time>
      </trkpt>
      <trkpt lat="45.166" lon="5.94912">
        <ele>2257.3</ele>
        <time>2021-02-20T10:47:45Z</time>
      </trkpt>
      <trkpt lat="45.166" lon="5.94909">
        <ele>2256.7</ele>
        <time>2021-02-20T10:47:46Z</time>
      </trkpt>
      <trkpt lat="45.166" lon="5.94905">
        <ele>2256</ele>
        <time>2021-02-20T10:47:47Z</time>
      </trkpt>
      <trkpt lat="45.166" lon="5.94903">
        <ele>2256</ele>
        <time>2021-02-20T10:47:48Z</time>
      </trkpt>
      <trkpt lat="45.166" lon="5.94899">
        <ele>2255.3</ele>
        <time>2021-02-20T10:47:49Z</time>
      </trkpt>
      <trkpt lat="45.16598" lon="5.94895">
        <ele>2254.5</ele>
        <time>2021-02-20T10:47:50Z</time>
      </trkpt>
      <trkpt lat="45.16596" lon="5.94892">
        <ele>2252.7</ele>
        <time>2021-02-20T10:47:51Z</time>
      </trkpt>
      <trkpt lat="45.16593" lon="5.94889">
        <ele>2251.7</ele>
        <time>2021-02-20T10:47:52Z</time>
      </trkpt>
      <trkpt lat="45.16592" lon="5.94888">
        <ele>2251</ele>
        <time>2021-02-20T10:47:53Z</time>
      </trkpt>
      <trkpt lat="45.1659" lon="5.94886">
        <ele>2249.9</ele>
        <time>2021-02-20T10:47:54Z</time>
      </trkpt>
      <trkpt lat="45.16589" lon="5.94885">
        <ele>2249.9</ele>
        <time>2021-02-20T10:47:55Z</time>
      </trkpt>
      <trkpt lat="45.16587" lon="5.94883">
        <ele>2248.1</ele>
        <time>2021-02-20T10:47:56Z</time>
      </trkpt>
      <trkpt lat="45.16586" lon="5.94882">
        <ele>2248.1</ele>
        <time>2021-02-20T10:47:57Z</time>
      </trkpt>
      <trkpt lat="45.16585" lon="5.94881">
        <ele>2248.1</ele>
        <time>2021-02-20T10:47:58Z</time>
      </trkpt>
      <trkpt lat="45.16581" lon="5.94879">
        <ele>2245.2</ele>
        <time>2021-02-20T10:47:59Z</time>
      </trkpt>
      <trkpt lat="45.1658" lon="5.94879">
        <ele>2245.2</ele>
        <time>2021-02-20T10:48:00Z</time>
      </trkpt>
      <trkpt lat="45.16579" lon="5.94879">
        <ele>2244.3</ele>
        <time>2021-02-20T10:48:01Z</time>
      </trkpt>
      <trkpt lat="45.16579" lon="5.94878">
        <ele>2244.3</ele>
        <time>2021-02-20T10:48:02Z</time>
      </trkpt>
      <trkpt lat="45.16579" lon="5.94878">
        <ele>2244.3</ele>
        <time>2021-02-20T10:48:03Z</time>
      </trkpt>
      <trkpt lat="45.16579" lon="5.94878">
        <ele>2245.2</ele>
        <time>2021-02-20T10:48:04Z</time>
      </trkpt>
      <trkpt lat="45.16579" lon="5.94877">
        <ele>2245.2</ele>
        <time>2021-02-20T10:48:05Z</time>
      </trkpt>
      <trkpt lat="45.1658" lon="5.94877">
        <ele>2245.2</ele>
        <time>2021-02-20T10:48:06Z</time>
      </trkpt>
      <trkpt lat="45.1658" lon="5.94877">
        <ele>2245.2</ele>
        <time>2021-02-20T10:48:07Z</time>
      </trkpt>
      <trkpt lat="45.1658" lon="5.94876">
        <ele>2245.2</ele>
        <time>2021-02-20T10:48:08Z</time>
      </trkpt>
      <trkpt lat="45.1658" lon="5.94876">
        <ele>2245.2</ele>
        <time>2021-02-20T10:48:09Z</time>
      </trkpt>
      <trkpt lat="45.16581" lon="5.94876">
        <ele>2245.2</ele>
        <time>2021-02-20T10:48:10Z</time>
      </trkpt>
      <trkpt lat="45.16581" lon="5.94875">
        <ele>2244.5</ele>
        <time>2021-02-20T10:48:11Z</time>
      </trkpt>
      <trkpt lat="45.16581" lon="5.94875">
        <ele>2244.5</ele>
        <time>2021-02-20T10:48:52Z</time>
      </trkpt>
      <trkpt lat="45.16581" lon="5.94875">
        <ele>2244.5</ele>
        <time>2021-02-20T10:48:53Z</time>
      </trkpt>
      <trkpt lat="45.16582" lon="5.94874">
        <ele>2244.5</ele>
        <time>2021-02-20T10:48:54Z</time>
      </trkpt>
      <trkpt lat="45.16582" lon="5.94875">
        <ele>2245.6</ele>
        <time>2021-02-20T10:48:55Z</time>
      </trkpt>
      <trkpt lat="45.16583" lon="5.94875">
        <ele>2245.6</ele>
        <time>2021-02-20T10:48:56Z</time>
      </trkpt>
      <trkpt lat="45.16584" lon="5.94876">
        <ele>2246.3</ele>
        <time>2021-02-20T10:48:57Z</time>
      </trkpt>
      <trkpt lat="45.16588" lon="5.94876">
        <ele>2247.4</ele>
        <time>2021-02-20T10:48:58Z</time>
      </trkpt>
      <trkpt lat="45.16589" lon="5.94876">
        <ele>2248.5</ele>
        <time>2021-02-20T10:48:59Z</time>
      </trkpt>
      <trkpt lat="45.16592" lon="5.94877">
        <ele>2249.5</ele>
        <time>2021-02-20T10:49:00Z</time>
      </trkpt>
      <trkpt lat="45.16596" lon="5.94877">
        <ele>2250.6</ele>
        <time>2021-02-20T10:49:01Z</time>
      </trkpt>
      <trkpt lat="45.16601" lon="5.94875">
        <ele>2252.2</ele>
        <time>2021-02-20T10:49:02Z</time>
      </trkpt>
      <trkpt lat="45.16605" lon="5.94871">
        <ele>2252.8</ele>
        <time>2021-02-20T10:49:03Z</time>
      </trkpt>
      <trkpt lat="45.16608" lon="5.94866">
        <ele>2253.4</ele>
        <time>2021-02-20T10:49:04Z</time>
      </trkpt>
      <trkpt lat="45.1661" lon="5.94862">
        <ele>2254.1</ele>
        <time>2021-02-20T10:49:05Z</time>
      </trkpt>
      <trkpt lat="45.16611" lon="5.94859">
        <ele>2254.1</ele>
        <time>2021-02-20T10:49:06Z</time>
      </trkpt>
      <trkpt lat="45.16612" lon="5.94854">
        <ele>2252.7</ele>
        <time>2021-02-20T10:49:07Z</time>
      </trkpt>
      <trkpt lat="45.16613" lon="5.94852">
        <ele>2254.2</ele>
        <time>2021-02-20T10:49:08Z</time>
      </trkpt>
      <trkpt lat="45.16614" lon="5.94847">
        <ele>2253.5</ele>
        <time>2021-02-20T10:49:09Z</time>
      </trkpt>
      <trkpt lat="45.16615" lon="5.94842">
        <ele>2252.9</ele>
        <time>2021-02-20T10:49:10Z</time>
      </trkpt>
      <trkpt lat="45.16616" lon="5.94839">
        <ele>2253.8</ele>
        <time>2021-02-20T10:49:11Z</time>
      </trkpt>
      <trkpt lat="45.16617" lon="5.94833">
        <ele>2253.2</ele>
        <time>2021-02-20T10:49:12Z</time>
      </trkpt>
      <trkpt lat="45.16617" lon="5.94831">
        <ele>2252.7</ele>
        <time>2021-02-20T10:49:13Z</time>
      </trkpt>
      <trkpt lat="45.16617" lon="5.94829">
        <ele>2252.7</ele>
        <time>2021-02-20T10:49:14Z</time>
      </trkpt>
      <trkpt lat="45.16617" lon="5.94828">
        <ele>2252.2</ele>
        <time>2021-02-20T10:49:15Z</time>
      </trkpt>
      <trkpt lat="45.16617" lon="5.94828">
        <ele>2252.2</ele>
        <time>2021-02-20T10:49:16Z</time>
      </trkpt>
      <trkpt lat="45.16617" lon="5.94828">
        <ele>2252.2</ele>
        <time>2021-02-20T10:49:17Z</time>
      </trkpt>
      <trkpt lat="45.16616" lon="5.94828">
        <ele>2252.2</ele>
        <time>2021-02-20T10:49:18Z</time>
      </trkpt>
      <trkpt lat="45.16616" lon="5.94828">
        <ele>2252.2</ele>
        <time>2021-02-20T10:49:19Z</time>
      </trkpt>
      <trkpt lat="45.16616" lon="5.94824">
        <ele>2252.2</ele>
        <time>2021-02-20T10:49:20Z</time>
      </trkpt>
      <trkpt lat="45.16616" lon="5.94822">
        <ele>2251.7</ele>
        <time>2021-02-20T10:49:21Z</time>
      </trkpt>
      <trkpt lat="45.16616" lon="5.9482">
        <ele>2251.7</ele>
        <time>2021-02-20T10:49:22Z</time>
      </trkpt>
      <trkpt lat="45.16618" lon="5.94814">
        <ele>2250.7</ele>
        <time>2021-02-20T10:49:23Z</time>
      </trkpt>
      <trkpt lat="45.16619" lon="5.94808">
        <ele>2251.5</ele>
        <time>2021-02-20T10:49:24Z</time>
      </trkpt>
      <trkpt lat="45.1662" lon="5.948">
        <ele>2250.4</ele>
        <time>2021-02-20T10:49:25Z</time>
      </trkpt>
      <trkpt lat="45.16621" lon="5.94792">
        <ele>2249.3</ele>
        <time>2021-02-20T10:49:26Z</time>
      </trkpt>
      <trkpt lat="45.16621" lon="5.94783">
        <ele>2248.4</ele>
        <time>2021-02-20T10:49:27Z</time>
      </trkpt>
      <trkpt lat="45.16622" lon="5.94775">
        <ele>2248.7</ele>
        <time>2021-02-20T10:49:28Z</time>
      </trkpt>
      <trkpt lat="45.16622" lon="5.94766">
        <ele>2248</ele>
        <time>2021-02-20T10:49:29Z</time>
      </trkpt>
      <trkpt lat="45.16622" lon="5.94759">
        <ele>2247.4</ele>
        <time>2021-02-20T10:49:30Z</time>
      </trkpt>
      <trkpt lat="45.16621" lon="5.94754">
        <ele>2246</ele>
        <time>2021-02-20T10:49:31Z</time>
      </trkpt>
      <trkpt lat="45.16619" lon="5.94752">
        <ele>2246</ele>
        <time>2021-02-20T10:49:32Z</time>
      </trkpt>
      <trkpt lat="45.16616" lon="5.94753">
        <ele>2244.9</ele>
        <time>2021-02-20T10:49:33Z</time>
      </trkpt>
      <trkpt lat="45.16613" lon="5.94756">
        <ele>2243.8</ele>
        <time>2021-02-20T10:49:34Z</time>
      </trkpt>
      <trkpt lat="45.16611" lon="5.94762">
        <ele>2242.8</ele>
        <time>2021-02-20T10:49:35Z</time>
      </trkpt>
      <trkpt lat="45.16609" lon="5.94768">
        <ele>2242</ele>
        <time>2021-02-20T10:49:36Z</time>
      </trkpt>
      <trkpt lat="45.16607" lon="5.94773">
        <ele>2242.3</ele>
        <time>2021-02-20T10:49:37Z</time>
      </trkpt>
      <trkpt lat="45.16604" lon="5.94773">
        <ele>2241</ele>
        <time>2021-02-20T10:49:38Z</time>
      </trkpt>
      <trkpt lat="45.16601" lon="5.94769">
        <ele>2239.5</ele>
        <time>2021-02-20T10:49:39Z</time>
      </trkpt>
      <trkpt lat="45.16597" lon="5.94761">
        <ele>2238</ele>
        <time>2021-02-20T10:49:40Z</time>
      </trkpt>
      <trkpt lat="45.16594" lon="5.94751">
        <ele>2236.6</ele>
        <time>2021-02-20T10:49:41Z</time>
      </trkpt>
      <trkpt lat="45.16591" lon="5.9474">
        <ele>2234.4</ele>
        <time>2021-02-20T10:49:42Z</time>
      </trkpt>
      <trkpt lat="45.16588" lon="5.94732">
        <ele>2233.3</ele>
        <time>2021-02-20T10:49:43Z</time>
      </trkpt>
      <trkpt lat="45.16584" lon="5.94725">
        <ele>2232.1</ele>
        <time>2021-02-20T10:49:44Z</time>
      </trkpt>
      <trkpt lat="45.16578" lon="5.94715">
        <ele>2229.5</ele>
        <time>2021-02-20T10:49:45Z</time>
      </trkpt>
      <trkpt lat="45.16574" lon="5.94713">
        <ele>2228.3</ele>
        <time>2021-02-20T10:49:46Z</time>
      </trkpt>
      <trkpt lat="45.16572" lon="5.94704">
        <ele>2227.3</ele>
        <time>2021-02-20T10:49:47Z</time>
      </trkpt>
      <trkpt lat="45.16572" lon="5.94698">
        <ele>2227.4</ele>
        <time>2021-02-20T10:49:48Z</time>
      </trkpt>
      <trkpt lat="45.16562" lon="5.94694">
        <ele>2223.4</ele>
        <time>2021-02-20T10:49:49Z</time>
      </trkpt>
      <trkpt lat="45.16565" lon="5.9469">
        <ele>2224.8</ele>
        <time>2021-02-20T10:49:50Z</time>
      </trkpt>
      <trkpt lat="45.16565" lon="5.94689">
        <ele>2224.8</ele>
        <time>2021-02-20T10:49:51Z</time>
      </trkpt>
      <trkpt lat="45.16565" lon="5.94683">
        <ele>2224.7</ele>
        <time>2021-02-20T10:49:52Z</time>
      </trkpt>
      <trkpt lat="45.16562" lon="5.94679">
        <ele>2223</ele>
        <time>2021-02-20T10:49:53Z</time>
      </trkpt>
      <trkpt lat="45.16563" lon="5.94674">
        <ele>2222.8</ele>
        <time>2021-02-20T10:49:54Z</time>
      </trkpt>
      <trkpt lat="45.16558" lon="5.94674">
        <ele>2221.2</ele>
        <time>2021-02-20T10:49:55Z</time>
      </trkpt>
      <trkpt lat="45.16557" lon="5.94679">
        <ele>2219.9</ele>
        <time>2021-02-20T10:49:56Z</time>
      </trkpt>
      <trkpt lat="45.16557" lon="5.94681">
        <ele>2219.9</ele>
        <time>2021-02-20T10:49:57Z</time>
      </trkpt>
      <trkpt lat="45.16556" lon="5.94686">
        <ele>2220.1</ele>
        <time>2021-02-20T10:49:58Z</time>
      </trkpt>
      <trkpt lat="45.16555" lon="5.94691">
        <ele>2220.4</ele>
        <time>2021-02-20T10:49:59Z</time>
      </trkpt>
      <trkpt lat="45.16555" lon="5.94693">
        <ele>2218.8</ele>
        <time>2021-02-20T10:50:00Z</time>
      </trkpt>
      <trkpt lat="45.16553" lon="5.94698">
        <ele>2218.9</ele>
        <time>2021-02-20T10:50:01Z</time>
      </trkpt>
      <trkpt lat="45.16553" lon="5.947">
        <ele>2219</ele>
        <time>2021-02-20T10:50:02Z</time>
      </trkpt>
      <trkpt lat="45.16552" lon="5.94699">
        <ele>2219</ele>
        <time>2021-02-20T10:50:03Z</time>
      </trkpt>
      <trkpt lat="45.16552" lon="5.94696">
        <ele>2218.9</ele>
        <time>2021-02-20T10:50:04Z</time>
      </trkpt>
      <trkpt lat="45.16552" lon="5.94693">
        <ele>2217.4</ele>
        <time>2021-02-20T10:50:05Z</time>
      </trkpt>
      <trkpt lat="45.16551" lon="5.9469">
        <ele>2217.2</ele>
        <time>2021-02-20T10:50:06Z</time>
      </trkpt>
      <trkpt lat="45.1655" lon="5.94671">
        <ele>2216.2</ele>
        <time>2021-02-20T10:50:07Z</time>
      </trkpt>
      <trkpt lat="45.16549" lon="5.94665">
        <ele>2215.5</ele>
        <time>2021-02-20T10:50:08Z</time>
      </trkpt>
      <trkpt lat="45.16548" lon="5.94659">
        <ele>2213.7</ele>
        <time>2021-02-20T10:50:09Z</time>
      </trkpt>
      <trkpt lat="45.16548" lon="5.94653">
        <ele>2213.3</ele>
        <time>2021-02-20T10:50:10Z</time>
      </trkpt>
      <trkpt lat="45.16548" lon="5.94651">
        <ele>2212.9</ele>
        <time>2021-02-20T10:50:11Z</time>
      </trkpt>
      <trkpt lat="45.16547" lon="5.94645">
        <ele>2212.5</ele>
        <time>2021-02-20T10:50:12Z</time>
      </trkpt>
      <trkpt lat="45.16544" lon="5.9464">
        <ele>2210.6</ele>
        <time>2021-02-20T10:50:13Z</time>
      </trkpt>
      <trkpt lat="45.16543" lon="5.94635">
        <ele>2209.5</ele>
        <time>2021-02-20T10:50:14Z</time>
      </trkpt>
      <trkpt lat="45.16542" lon="5.9463">
        <ele>2207.7</ele>
        <time>2021-02-20T10:50:15Z</time>
      </trkpt>
      <trkpt lat="45.16542" lon="5.94624">
        <ele>2207.1</ele>
        <time>2021-02-20T10:50:16Z</time>
      </trkpt>
      <trkpt lat="45.16541" lon="5.9462">
        <ele>2206.6</ele>
        <time>2021-02-20T10:50:17Z</time>
      </trkpt>
      <trkpt lat="45.16541" lon="5.94618">
        <ele>2206.6</ele>
        <time>2021-02-20T10:50:18Z</time>
      </trkpt>
      <trkpt lat="45.16539" lon="5.94613">
        <ele>2204.4</ele>
        <time>2021-02-20T10:50:19Z</time>
      </trkpt>
      <trkpt lat="45.16539" lon="5.94612">
        <ele>2204.4</ele>
        <time>2021-02-20T10:50:20Z</time>
      </trkpt>
      <trkpt lat="45.16538" lon="5.94608">
        <ele>2204</ele>
        <time>2021-02-20T10:50:21Z</time>
      </trkpt>
      <trkpt lat="45.16537" lon="5.94604">
        <ele>2203.6</ele>
        <time>2021-02-20T10:50:22Z</time>
      </trkpt>
      <trkpt lat="45.16536" lon="5.946">
        <ele>2201.8</ele>
        <time>2021-02-20T10:50:23Z</time>
      </trkpt>
      <trkpt lat="45.16535" lon="5.946">
        <ele>2201.8</ele>
        <time>2021-02-20T10:50:24Z</time>
      </trkpt>
      <trkpt lat="45.16536" lon="5.94601">
        <ele>2201.8</ele>
        <time>2021-02-20T10:50:25Z</time>
      </trkpt>
      <trkpt lat="45.16535" lon="5.94602">
        <ele>2202.3</ele>
        <time>2021-02-20T10:50:26Z</time>
      </trkpt>
      <trkpt lat="45.16534" lon="5.94604">
        <ele>2202.3</ele>
        <time>2021-02-20T10:50:27Z</time>
      </trkpt>
      <trkpt lat="45.16535" lon="5.94607">
        <ele>2202.7</ele>
        <time>2021-02-20T10:50:28Z</time>
      </trkpt>
      <trkpt lat="45.16535" lon="5.94609">
        <ele>2202.7</ele>
        <time>2021-02-20T10:50:29Z</time>
      </trkpt>
      <trkpt lat="45.16536" lon="5.9461">
        <ele>2203.2</ele>
        <time>2021-02-20T10:50:30Z</time>
      </trkpt>
      <trkpt lat="45.16536" lon="5.94611">
        <ele>2203.2</ele>
        <time>2021-02-20T10:50:31Z</time>
      </trkpt>
      <trkpt lat="45.16535" lon="5.9461">
        <ele>2203.2</ele>
        <time>2021-02-20T10:50:32Z</time>
      </trkpt>
      <trkpt lat="45.16534" lon="5.94609">
        <ele>2202.7</ele>
        <time>2021-02-20T10:50:33Z</time>
      </trkpt>
      <trkpt lat="45.16533" lon="5.94607">
        <ele>2201.5</ele>
        <time>2021-02-20T10:50:34Z</time>
      </trkpt>
      <trkpt lat="45.16531" lon="5.94606">
        <ele>2201.5</ele>
        <time>2021-02-20T10:50:35Z</time>
      </trkpt>
      <trkpt lat="45.1653" lon="5.94606">
        <ele>2200.2</ele>
        <time>2021-02-20T10:50:36Z</time>
      </trkpt>
      <trkpt lat="45.16528" lon="5.94602">
        <ele>2198.6</ele>
        <time>2021-02-20T10:50:37Z</time>
      </trkpt>
      <trkpt lat="45.16527" lon="5.946">
        <ele>2198.1</ele>
        <time>2021-02-20T10:50:38Z</time>
      </trkpt>
      <trkpt lat="45.16528" lon="5.94596">
        <ele>2198.8</ele>
        <time>2021-02-20T10:50:39Z</time>
      </trkpt>
      <trkpt lat="45.16528" lon="5.94595">
        <ele>2198.8</ele>
        <time>2021-02-20T10:50:40Z</time>
      </trkpt>
      <trkpt lat="45.16529" lon="5.94593">
        <ele>2198.8</ele>
        <time>2021-02-20T10:50:41Z</time>
      </trkpt>
      <trkpt lat="45.16529" lon="5.94592">
        <ele>2198.8</ele>
        <time>2021-02-20T10:50:42Z</time>
      </trkpt>
      <trkpt lat="45.16529" lon="5.94592">
        <ele>2198.8</ele>
        <time>2021-02-20T10:50:43Z</time>
      </trkpt>
      <trkpt lat="45.16529" lon="5.94592">
        <ele>2198.8</ele>
        <time>2021-02-20T10:50:44Z</time>
      </trkpt>
      <trkpt lat="45.16529" lon="5.94593">
        <ele>2198.8</ele>
        <time>2021-02-20T10:50:45Z</time>
      </trkpt>
      <trkpt lat="45.16529" lon="5.94593">
        <ele>2198.8</ele>
        <time>2021-02-20T10:50:46Z</time>
      </trkpt>
      <trkpt lat="45.16529" lon="5.94593">
        <ele>2198.8</ele>
        <time>2021-02-20T10:50:47Z</time>
      </trkpt>
      <trkpt lat="45.16528" lon="5.94592">
        <ele>2198.8</ele>
        <time>2021-02-20T10:50:48Z</time>
      </trkpt>
      <trkpt lat="45.16527" lon="5.9459">
        <ele>2197</ele>
        <time>2021-02-20T10:50:49Z</time>
      </trkpt>
      <trkpt lat="45.16527" lon="5.94586">
        <ele>2196.2</ele>
        <time>2021-02-20T10:50:50Z</time>
      </trkpt>
      <trkpt lat="45.16526" lon="5.94585">
        <ele>2196.2</ele>
        <time>2021-02-20T10:50:51Z</time>
      </trkpt>
      <trkpt lat="45.16526" lon="5.94583">
        <ele>2195.4</ele>
        <time>2021-02-20T10:50:52Z</time>
      </trkpt>
      <trkpt lat="45.16525" lon="5.94582">
        <ele>2195.4</ele>
        <time>2021-02-20T10:50:53Z</time>
      </trkpt>
      <trkpt lat="45.16525" lon="5.94582">
        <ele>2195.4</ele>
        <time>2021-02-20T10:50:54Z</time>
      </trkpt>
      <trkpt lat="45.16525" lon="5.94581">
        <ele>2195.4</ele>
        <time>2021-02-20T10:50:55Z</time>
      </trkpt>
      <trkpt lat="45.16525" lon="5.94581">
        <ele>2195.4</ele>
        <time>2021-02-20T10:50:56Z</time>
      </trkpt>
      <trkpt lat="45.16525" lon="5.9458">
        <ele>2194.2</ele>
        <time>2021-02-20T10:50:57Z</time>
      </trkpt>
      <trkpt lat="45.16524" lon="5.94581">
        <ele>2194.2</ele>
        <time>2021-02-20T10:50:58Z</time>
      </trkpt>
      <trkpt lat="45.16524" lon="5.94581">
        <ele>2194.2</ele>
        <time>2021-02-20T10:50:59Z</time>
      </trkpt>
      <trkpt lat="45.16524" lon="5.9458">
        <ele>2194.2</ele>
        <time>2021-02-20T10:51:00Z</time>
      </trkpt>
      <trkpt lat="45.16524" lon="5.9458">
        <ele>2194.2</ele>
        <time>2021-02-20T10:51:01Z</time>
      </trkpt>
      <trkpt lat="45.16523" lon="5.94579">
        <ele>2193.3</ele>
        <time>2021-02-20T10:51:02Z</time>
      </trkpt>
      <trkpt lat="45.16515" lon="5.94578">
        <ele>2190.1</ele>
        <time>2021-02-20T10:51:03Z</time>
      </trkpt>
      <trkpt lat="45.16508" lon="5.94579">
        <ele>2188.1</ele>
        <time>2021-02-20T10:51:04Z</time>
      </trkpt>
      <trkpt lat="45.16501" lon="5.9458">
        <ele>2186.9</ele>
        <time>2021-02-20T10:51:05Z</time>
      </trkpt>
      <trkpt lat="45.16498" lon="5.94577">
        <ele>2184.8</ele>
        <time>2021-02-20T10:51:06Z</time>
      </trkpt>
      <trkpt lat="45.16497" lon="5.94576">
        <ele>2183.7</ele>
        <time>2021-02-20T10:51:07Z</time>
      </trkpt>
      <trkpt lat="45.16494" lon="5.94572">
        <ele>2181.6</ele>
        <time>2021-02-20T10:51:08Z</time>
      </trkpt>
      <trkpt lat="45.16493" lon="5.94571">
        <ele>2181.6</ele>
        <time>2021-02-20T10:51:09Z</time>
      </trkpt>
      <trkpt lat="45.16491" lon="5.94569">
        <ele>2179.5</ele>
        <time>2021-02-20T10:51:10Z</time>
      </trkpt>
      <trkpt lat="45.16489" lon="5.94567">
        <ele>2179.5</ele>
        <time>2021-02-20T10:51:11Z</time>
      </trkpt>
      <trkpt lat="45.16488" lon="5.94567">
        <ele>2178.6</ele>
        <time>2021-02-20T10:51:12Z</time>
      </trkpt>
      <trkpt lat="45.16486" lon="5.94565">
        <ele>2177.5</ele>
        <time>2021-02-20T10:51:13Z</time>
      </trkpt>
      <trkpt lat="45.16485" lon="5.94565">
        <ele>2176.6</ele>
        <time>2021-02-20T10:51:14Z</time>
      </trkpt>
      <trkpt lat="45.16484" lon="5.94565">
        <ele>2176.6</ele>
        <time>2021-02-20T10:51:15Z</time>
      </trkpt>
      <trkpt lat="45.16481" lon="5.94563">
        <ele>2175.6</ele>
        <time>2021-02-20T10:51:16Z</time>
      </trkpt>
      <trkpt lat="45.1648" lon="5.94562">
        <ele>2175.6</ele>
        <time>2021-02-20T10:51:17Z</time>
      </trkpt>
      <trkpt lat="45.16479" lon="5.94562">
        <ele>2173.5</ele>
        <time>2021-02-20T10:51:18Z</time>
      </trkpt>
      <trkpt lat="45.16478" lon="5.94561">
        <ele>2173.5</ele>
        <time>2021-02-20T10:51:19Z</time>
      </trkpt>
      <trkpt lat="45.16477" lon="5.94561">
        <ele>2173.5</ele>
        <time>2021-02-20T10:51:20Z</time>
      </trkpt>
      <trkpt lat="45.16476" lon="5.9456">
        <ele>2173.5</ele>
        <time>2021-02-20T10:51:21Z</time>
      </trkpt>
      <trkpt lat="45.16476" lon="5.9456">
        <ele>2172.4</ele>
        <time>2021-02-20T10:51:22Z</time>
      </trkpt>
      <trkpt lat="45.16475" lon="5.9456">
        <ele>2172.4</ele>
        <time>2021-02-20T10:51:23Z</time>
      </trkpt>
      <trkpt lat="45.16474" lon="5.94559">
        <ele>2172.4</ele>
        <time>2021-02-20T10:51:24Z</time>
      </trkpt>
      <trkpt lat="45.16473" lon="5.94558">
        <ele>2171.3</ele>
        <time>2021-02-20T10:51:25Z</time>
      </trkpt>
      <trkpt lat="45.16473" lon="5.94556">
        <ele>2170.2</ele>
        <time>2021-02-20T10:51:26Z</time>
      </trkpt>
      <trkpt lat="45.16474" lon="5.94555">
        <ele>2171.3</ele>
        <time>2021-02-20T10:51:27Z</time>
      </trkpt>
      <trkpt lat="45.16478" lon="5.94552">
        <ele>2171.1</ele>
        <time>2021-02-20T10:51:28Z</time>
      </trkpt>
      <trkpt lat="45.16479" lon="5.94551">
        <ele>2171.1</ele>
        <time>2021-02-20T10:51:29Z</time>
      </trkpt>
      <trkpt lat="45.16482" lon="5.94549">
        <ele>2170.8</ele>
        <time>2021-02-20T10:51:30Z</time>
      </trkpt>
      <trkpt lat="45.16486" lon="5.94546">
        <ele>2172.6</ele>
        <time>2021-02-20T10:51:31Z</time>
      </trkpt>
      <trkpt lat="45.1649" lon="5.94544">
        <ele>2172.2</ele>
        <time>2021-02-20T10:51:32Z</time>
      </trkpt>
      <trkpt lat="45.16492" lon="5.9454">
        <ele>2171.8</ele>
        <time>2021-02-20T10:51:33Z</time>
      </trkpt>
      <trkpt lat="45.16494" lon="5.94536">
        <ele>2170.2</ele>
        <time>2021-02-20T10:51:34Z</time>
      </trkpt>
      <trkpt lat="45.16495" lon="5.94532">
        <ele>2169.8</ele>
        <time>2021-02-20T10:51:35Z</time>
      </trkpt>
      <trkpt lat="45.16496" lon="5.94528">
        <ele>2169.8</ele>
        <time>2021-02-20T10:51:36Z</time>
      </trkpt>
      <trkpt lat="45.16496" lon="5.94524">
        <ele>2168.3</ele>
        <time>2021-02-20T10:51:37Z</time>
      </trkpt>
      <trkpt lat="45.16496" lon="5.94519">
        <ele>2166.8</ele>
        <time>2021-02-20T10:51:38Z</time>
      </trkpt>
      <trkpt lat="45.16496" lon="5.94514">
        <ele>2163.8</ele>
        <time>2021-02-20T10:51:39Z</time>
      </trkpt>
      <trkpt lat="45.16495" lon="5.9451">
        <ele>2162.3</ele>
        <time>2021-02-20T10:51:40Z</time>
      </trkpt>
      <trkpt lat="45.16494" lon="5.94505">
        <ele>2159.5</ele>
        <time>2021-02-20T10:51:41Z</time>
      </trkpt>
      <trkpt lat="45.16493" lon="5.94504">
        <ele>2159.5</ele>
        <time>2021-02-20T10:51:42Z</time>
      </trkpt>
      <trkpt lat="45.16491" lon="5.94501">
        <ele>2157.8</ele>
        <time>2021-02-20T10:51:43Z</time>
      </trkpt>
      <trkpt lat="45.16491" lon="5.945">
        <ele>2156.7</ele>
        <time>2021-02-20T10:51:44Z</time>
      </trkpt>
      <trkpt lat="45.16489" lon="5.94499">
        <ele>2156.7</ele>
        <time>2021-02-20T10:51:45Z</time>
      </trkpt>
      <trkpt lat="45.16487" lon="5.94498">
        <ele>2155.7</ele>
        <time>2021-02-20T10:51:46Z</time>
      </trkpt>
      <trkpt lat="45.16486" lon="5.94496">
        <ele>2153.9</ele>
        <time>2021-02-20T10:51:47Z</time>
      </trkpt>
      <trkpt lat="45.16485" lon="5.94495">
        <ele>2153</ele>
        <time>2021-02-20T10:51:48Z</time>
      </trkpt>
      <trkpt lat="45.16483" lon="5.94493">
        <ele>2151.3</ele>
        <time>2021-02-20T10:51:49Z</time>
      </trkpt>
      <trkpt lat="45.16482" lon="5.94492">
        <ele>2150.4</ele>
        <time>2021-02-20T10:51:50Z</time>
      </trkpt>
      <trkpt lat="45.16481" lon="5.94492">
        <ele>2150.4</ele>
        <time>2021-02-20T10:51:51Z</time>
      </trkpt>
      <trkpt lat="45.16479" lon="5.9449">
        <ele>2149.5</ele>
        <time>2021-02-20T10:51:52Z</time>
      </trkpt>
      <trkpt lat="45.16477" lon="5.94489">
        <ele>2147.8</ele>
        <time>2021-02-20T10:51:53Z</time>
      </trkpt>
      <trkpt lat="45.16475" lon="5.94488">
        <ele>2146.8</ele>
        <time>2021-02-20T10:51:54Z</time>
      </trkpt>
      <trkpt lat="45.16475" lon="5.94488">
        <ele>2146.8</ele>
        <time>2021-02-20T10:51:55Z</time>
      </trkpt>
      <trkpt lat="45.16474" lon="5.94487">
        <ele>2146.8</ele>
        <time>2021-02-20T10:51:56Z</time>
      </trkpt>
      <trkpt lat="45.16474" lon="5.94487">
        <ele>2146.8</ele>
        <time>2021-02-20T10:51:57Z</time>
      </trkpt>
      <trkpt lat="45.16474" lon="5.94487">
        <ele>2146.8</ele>
        <time>2021-02-20T10:51:58Z</time>
      </trkpt>
      <trkpt lat="45.16474" lon="5.94487">
        <ele>2146.8</ele>
        <time>2021-02-20T10:51:59Z</time>
      </trkpt>
      <trkpt lat="45.16474" lon="5.94486">
        <ele>2146.8</ele>
        <time>2021-02-20T10:52:00Z</time>
      </trkpt>
      <trkpt lat="45.16473" lon="5.94486">
        <ele>2146.8</ele>
        <time>2021-02-20T10:52:01Z</time>
      </trkpt>
      <trkpt lat="45.16473" lon="5.94485">
        <ele>2146.8</ele>
        <time>2021-02-20T10:52:02Z</time>
      </trkpt>
      <trkpt lat="45.16472" lon="5.94484">
        <ele>2144.3</ele>
        <time>2021-02-20T10:52:03Z</time>
      </trkpt>
      <trkpt lat="45.16471" lon="5.94483">
        <ele>2144.3</ele>
        <time>2021-02-20T10:52:04Z</time>
      </trkpt>
      <trkpt lat="45.16469" lon="5.94482">
        <ele>2143.4</ele>
        <time>2021-02-20T10:52:05Z</time>
      </trkpt>
      <trkpt lat="45.16469" lon="5.94482">
        <ele>2143.4</ele>
        <time>2021-02-20T10:52:06Z</time>
      </trkpt>
      <trkpt lat="45.16468" lon="5.94481">
        <ele>2143.4</ele>
        <time>2021-02-20T10:52:07Z</time>
      </trkpt>
      <trkpt lat="45.16464" lon="5.9448">
        <ele>2140.4</ele>
        <time>2021-02-20T10:52:08Z</time>
      </trkpt>
      <trkpt lat="45.16462" lon="5.9448">
        <ele>2140.4</ele>
        <time>2021-02-20T10:52:09Z</time>
      </trkpt>
      <trkpt lat="45.16457" lon="5.94478">
        <ele>2139.1</ele>
        <time>2021-02-20T10:52:10Z</time>
      </trkpt>
      <trkpt lat="45.16453" lon="5.94477">
        <ele>2138.6</ele>
        <time>2021-02-20T10:52:11Z</time>
      </trkpt>
      <trkpt lat="45.16449" lon="5.94476">
        <ele>2136.5</ele>
        <time>2021-02-20T10:52:12Z</time>
      </trkpt>
      <trkpt lat="45.16446" lon="5.94475">
        <ele>2135.6</ele>
        <time>2021-02-20T10:52:13Z</time>
      </trkpt>
      <trkpt lat="45.16442" lon="5.94474">
        <ele>2135.3</ele>
        <time>2021-02-20T10:52:14Z</time>
      </trkpt>
      <trkpt lat="45.16439" lon="5.94473">
        <ele>2135</ele>
        <time>2021-02-20T10:52:15Z</time>
      </trkpt>
      <trkpt lat="45.16435" lon="5.94471">
        <ele>2133.7</ele>
        <time>2021-02-20T10:52:16Z</time>
      </trkpt>
      <trkpt lat="45.16433" lon="5.94468">
        <ele>2133.6</ele>
        <time>2021-02-20T10:52:17Z</time>
      </trkpt>
      <trkpt lat="45.16431" lon="5.94467">
        <ele>2132.4</ele>
        <time>2021-02-20T10:52:18Z</time>
      </trkpt>
      <trkpt lat="45.16431" lon="5.94466">
        <ele>2132.5</ele>
        <time>2021-02-20T10:52:19Z</time>
      </trkpt>
      <trkpt lat="45.16431" lon="5.94466">
        <ele>2132.5</ele>
        <time>2021-02-20T10:52:20Z</time>
      </trkpt>
      <trkpt lat="45.16432" lon="5.94466">
        <ele>2132.4</ele>
        <time>2021-02-20T10:52:21Z</time>
      </trkpt>
      <trkpt lat="45.16432" lon="5.94467">
        <ele>2132.4</ele>
        <time>2021-02-20T10:52:22Z</time>
      </trkpt>
      <trkpt lat="45.16432" lon="5.94467">
        <ele>2132.4</ele>
        <time>2021-02-20T10:52:23Z</time>
      </trkpt>
      <trkpt lat="45.16433" lon="5.94468">
        <ele>2133.6</ele>
        <time>2021-02-20T10:52:24Z</time>
      </trkpt>
      <trkpt lat="45.16433" lon="5.94468">
        <ele>2133.6</ele>
        <time>2021-02-20T10:52:25Z</time>
      </trkpt>
      <trkpt lat="45.16434" lon="5.94469">
        <ele>2133.6</ele>
        <time>2021-02-20T10:52:26Z</time>
      </trkpt>
      <trkpt lat="45.16434" lon="5.94469">
        <ele>2133.7</ele>
        <time>2021-02-20T10:52:27Z</time>
      </trkpt>
      <trkpt lat="45.16435" lon="5.9447">
        <ele>2133.7</ele>
        <time>2021-02-20T10:52:28Z</time>
      </trkpt>
      <trkpt lat="45.16434" lon="5.9447">
        <ele>2133.6</ele>
        <time>2021-02-20T10:52:29Z</time>
      </trkpt>
      <trkpt lat="45.16434" lon="5.94469">
        <ele>2133.6</ele>
        <time>2021-02-20T10:52:30Z</time>
      </trkpt>
      <trkpt lat="45.16434" lon="5.94467">
        <ele>2132.4</ele>
        <time>2021-02-20T10:52:31Z</time>
      </trkpt>
      <trkpt lat="45.16434" lon="5.94465">
        <ele>2132.4</ele>
        <time>2021-02-20T10:52:32Z</time>
      </trkpt>
      <trkpt lat="45.16433" lon="5.9446">
        <ele>2131.3</ele>
        <time>2021-02-20T10:52:33Z</time>
      </trkpt>
      <trkpt lat="45.16432" lon="5.94455">
        <ele>2130.1</ele>
        <time>2021-02-20T10:52:34Z</time>
      </trkpt>
      <trkpt lat="45.16432" lon="5.94453">
        <ele>2128.8</ele>
        <time>2021-02-20T10:52:35Z</time>
      </trkpt>
      <trkpt lat="45.16432" lon="5.94451">
        <ele>2128.8</ele>
        <time>2021-02-20T10:52:36Z</time>
      </trkpt>
      <trkpt lat="45.16432" lon="5.94449">
        <ele>2127.5</ele>
        <time>2021-02-20T10:52:37Z</time>
      </trkpt>
      <trkpt lat="45.16432" lon="5.94447">
        <ele>2127.5</ele>
        <time>2021-02-20T10:52:38Z</time>
      </trkpt>
      <trkpt lat="45.16432" lon="5.94446">
        <ele>2126.2</ele>
        <time>2021-02-20T10:52:39Z</time>
      </trkpt>
      <trkpt lat="45.16431" lon="5.94446">
        <ele>2126.2</ele>
        <time>2021-02-20T10:52:40Z</time>
      </trkpt>
      <trkpt lat="45.16431" lon="5.94446">
        <ele>2126.2</ele>
        <time>2021-02-20T10:52:41Z</time>
      </trkpt>
      <trkpt lat="45.16431" lon="5.94446">
        <ele>2126.2</ele>
        <time>2021-02-20T10:52:42Z</time>
      </trkpt>
      <trkpt lat="45.16431" lon="5.94446">
        <ele>2127.6</ele>
        <time>2021-02-20T10:52:43Z</time>
      </trkpt>
      <trkpt lat="45.16431" lon="5.94446">
        <ele>2127.5</ele>
        <time>2021-02-20T10:52:44Z</time>
      </trkpt>
      <trkpt lat="45.16431" lon="5.94445">
        <ele>2126.2</ele>
        <time>2021-02-20T10:52:45Z</time>
      </trkpt>
      <trkpt lat="45.16431" lon="5.94444">
        <ele>2126.4</ele>
        <time>2021-02-20T10:52:46Z</time>
      </trkpt>
      <trkpt lat="45.16433" lon="5.94445">
        <ele>2126.2</ele>
        <time>2021-02-20T10:52:47Z</time>
      </trkpt>
      <trkpt lat="45.16434" lon="5.94445">
        <ele>2126.2</ele>
        <time>2021-02-20T10:52:48Z</time>
      </trkpt>
      <trkpt lat="45.16435" lon="5.94445">
        <ele>2126.2</ele>
        <time>2021-02-20T10:52:49Z</time>
      </trkpt>
      <trkpt lat="45.16435" lon="5.94444">
        <ele>2126.3</ele>
        <time>2021-02-20T10:52:50Z</time>
      </trkpt>
      <trkpt lat="45.16436" lon="5.94442">
        <ele>2125</ele>
        <time>2021-02-20T10:52:51Z</time>
      </trkpt>
      <trkpt lat="45.16437" lon="5.94439">
        <ele>2124.9</ele>
        <time>2021-02-20T10:52:52Z</time>
      </trkpt>
      <trkpt lat="45.16438" lon="5.94439">
        <ele>2125</ele>
        <time>2021-02-20T10:52:53Z</time>
      </trkpt>
      <trkpt lat="45.16439" lon="5.94438">
        <ele>2125</ele>
        <time>2021-02-20T10:52:54Z</time>
      </trkpt>
      <trkpt lat="45.1644" lon="5.94436">
        <ele>2123.8</ele>
        <time>2021-02-20T10:52:55Z</time>
      </trkpt>
      <trkpt lat="45.16441" lon="5.94435">
        <ele>2123.9</ele>
        <time>2021-02-20T10:52:56Z</time>
      </trkpt>
      <trkpt lat="45.16443" lon="5.94434">
        <ele>2123.9</ele>
        <time>2021-02-20T10:52:57Z</time>
      </trkpt>
      <trkpt lat="45.16445" lon="5.94434">
        <ele>2124.1</ele>
        <time>2021-02-20T10:52:58Z</time>
      </trkpt>
      <trkpt lat="45.16446" lon="5.94433">
        <ele>2123</ele>
        <time>2021-02-20T10:52:59Z</time>
      </trkpt>
      <trkpt lat="45.16446" lon="5.94432">
        <ele>2123.2</ele>
        <time>2021-02-20T10:53:00Z</time>
      </trkpt>
      <trkpt lat="45.16447" lon="5.9443">
        <ele>2123.2</ele>
        <time>2021-02-20T10:53:01Z</time>
      </trkpt>
      <trkpt lat="45.16448" lon="5.94428">
        <ele>2122.1</ele>
        <time>2021-02-20T10:53:02Z</time>
      </trkpt>
      <trkpt lat="45.16449" lon="5.94427">
        <ele>2122.3</ele>
        <time>2021-02-20T10:53:03Z</time>
      </trkpt>
      <trkpt lat="45.1645" lon="5.94426">
        <ele>2122.3</ele>
        <time>2021-02-20T10:53:04Z</time>
      </trkpt>
      <trkpt lat="45.16453" lon="5.94425">
        <ele>2122.7</ele>
        <time>2021-02-20T10:53:05Z</time>
      </trkpt>
      <trkpt lat="45.16456" lon="5.94423">
        <ele>2121.7</ele>
        <time>2021-02-20T10:53:06Z</time>
      </trkpt>
      <trkpt lat="45.16459" lon="5.94422">
        <ele>2122</ele>
        <time>2021-02-20T10:53:07Z</time>
      </trkpt>
      <trkpt lat="45.16462" lon="5.94419">
        <ele>2121.1</ele>
        <time>2021-02-20T10:53:08Z</time>
      </trkpt>
      <trkpt lat="45.16463" lon="5.94417">
        <ele>2121.1</ele>
        <time>2021-02-20T10:53:09Z</time>
      </trkpt>
      <trkpt lat="45.16465" lon="5.94415">
        <ele>2120.1</ele>
        <time>2021-02-20T10:53:10Z</time>
      </trkpt>
      <trkpt lat="45.16467" lon="5.94413">
        <ele>2120.6</ele>
        <time>2021-02-20T10:53:11Z</time>
      </trkpt>
      <trkpt lat="45.1647" lon="5.9441">
        <ele>2119.1</ele>
        <time>2021-02-20T10:53:12Z</time>
      </trkpt>
      <trkpt lat="45.16472" lon="5.94408">
        <ele>2119.5</ele>
        <time>2021-02-20T10:53:13Z</time>
      </trkpt>
      <trkpt lat="45.16475" lon="5.94406">
        <ele>2118.6</ele>
        <time>2021-02-20T10:53:14Z</time>
      </trkpt>
      <trkpt lat="45.16478" lon="5.94403">
        <ele>2117.5</ele>
        <time>2021-02-20T10:53:15Z</time>
      </trkpt>
      <trkpt lat="45.16479" lon="5.94401">
        <ele>2117.6</ele>
        <time>2021-02-20T10:53:16Z</time>
      </trkpt>
      <trkpt lat="45.16481" lon="5.94399">
        <ele>2116.6</ele>
        <time>2021-02-20T10:53:17Z</time>
      </trkpt>
      <trkpt lat="45.16483" lon="5.94396">
        <ele>2117.1</ele>
        <time>2021-02-20T10:53:18Z</time>
      </trkpt>
      <trkpt lat="45.16486" lon="5.94392">
        <ele>2116.1</ele>
        <time>2021-02-20T10:53:19Z</time>
      </trkpt>
      <trkpt lat="45.16487" lon="5.94391">
        <ele>2116.2</ele>
        <time>2021-02-20T10:53:20Z</time>
      </trkpt>
      <trkpt lat="45.16488" lon="5.94386">
        <ele>2114.7</ele>
        <time>2021-02-20T10:53:21Z</time>
      </trkpt>
      <trkpt lat="45.16488" lon="5.94385">
        <ele>2113.8</ele>
        <time>2021-02-20T10:53:22Z</time>
      </trkpt>
      <trkpt lat="45.16487" lon="5.9438">
        <ele>2111.9</ele>
        <time>2021-02-20T10:53:23Z</time>
      </trkpt>
      <trkpt lat="45.16483" lon="5.94377">
        <ele>2110</ele>
        <time>2021-02-20T10:53:24Z</time>
      </trkpt>
      <trkpt lat="45.16477" lon="5.94376">
        <ele>2109.2</ele>
        <time>2021-02-20T10:53:25Z</time>
      </trkpt>
      <trkpt lat="45.16473" lon="5.94376">
        <ele>2108.5</ele>
        <time>2021-02-20T10:53:26Z</time>
      </trkpt>
      <trkpt lat="45.16468" lon="5.94376">
        <ele>2108.1</ele>
        <time>2021-02-20T10:53:27Z</time>
      </trkpt>
      <trkpt lat="45.16465" lon="5.94376">
        <ele>2107.9</ele>
        <time>2021-02-20T10:53:28Z</time>
      </trkpt>
      <trkpt lat="45.16464" lon="5.94374">
        <ele>2108</ele>
        <time>2021-02-20T10:53:29Z</time>
      </trkpt>
      <trkpt lat="45.16465" lon="5.94371">
        <ele>2106.7</ele>
        <time>2021-02-20T10:53:30Z</time>
      </trkpt>
      <trkpt lat="45.16466" lon="5.94369">
        <ele>2106.7</ele>
        <time>2021-02-20T10:53:31Z</time>
      </trkpt>
      <trkpt lat="45.16467" lon="5.94367">
        <ele>2105.5</ele>
        <time>2021-02-20T10:53:32Z</time>
      </trkpt>
      <trkpt lat="45.1647" lon="5.94362">
        <ele>2104.3</ele>
        <time>2021-02-20T10:53:33Z</time>
      </trkpt>
      <trkpt lat="45.16472" lon="5.94358">
        <ele>2102.4</ele>
        <time>2021-02-20T10:53:34Z</time>
      </trkpt>
      <trkpt lat="45.16475" lon="5.94353">
        <ele>2101.4</ele>
        <time>2021-02-20T10:53:35Z</time>
      </trkpt>
      <trkpt lat="45.16479" lon="5.94349">
        <ele>2100.4</ele>
        <time>2021-02-20T10:53:36Z</time>
      </trkpt>
      <trkpt lat="45.16482" lon="5.94344">
        <ele>2099.8</ele>
        <time>2021-02-20T10:53:37Z</time>
      </trkpt>
      <trkpt lat="45.16484" lon="5.9434">
        <ele>2098.7</ele>
        <time>2021-02-20T10:53:38Z</time>
      </trkpt>
      <trkpt lat="45.16484" lon="5.94336">
        <ele>2097.5</ele>
        <time>2021-02-20T10:53:39Z</time>
      </trkpt>
      <trkpt lat="45.16481" lon="5.9433">
        <ele>2095</ele>
        <time>2021-02-20T10:53:40Z</time>
      </trkpt>
      <trkpt lat="45.16478" lon="5.94325">
        <ele>2093.8</ele>
        <time>2021-02-20T10:53:41Z</time>
      </trkpt>
      <trkpt lat="45.16475" lon="5.94319">
        <ele>2092.7</ele>
        <time>2021-02-20T10:53:42Z</time>
      </trkpt>
      <trkpt lat="45.16474" lon="5.94314">
        <ele>2091.7</ele>
        <time>2021-02-20T10:53:43Z</time>
      </trkpt>
      <trkpt lat="45.16476" lon="5.94306">
        <ele>2089.7</ele>
        <time>2021-02-20T10:53:44Z</time>
      </trkpt>
      <trkpt lat="45.16476" lon="5.94299">
        <ele>2088.1</ele>
        <time>2021-02-20T10:53:45Z</time>
      </trkpt>
      <trkpt lat="45.16477" lon="5.94292">
        <ele>2087.4</ele>
        <time>2021-02-20T10:53:46Z</time>
      </trkpt>
      <trkpt lat="45.16478" lon="5.94286">
        <ele>2086.1</ele>
        <time>2021-02-20T10:53:47Z</time>
      </trkpt>
      <trkpt lat="45.1648" lon="5.9428">
        <ele>2085.2</ele>
        <time>2021-02-20T10:53:48Z</time>
      </trkpt>
      <trkpt lat="45.1648" lon="5.94275">
        <ele>2084.4</ele>
        <time>2021-02-20T10:53:49Z</time>
      </trkpt>
      <trkpt lat="45.16481" lon="5.9427">
        <ele>2083.4</ele>
        <time>2021-02-20T10:53:50Z</time>
      </trkpt>
      <trkpt lat="45.16481" lon="5.94264">
        <ele>2082.6</ele>
        <time>2021-02-20T10:53:51Z</time>
      </trkpt>
      <trkpt lat="45.16481" lon="5.94258">
        <ele>2082.1</ele>
        <time>2021-02-20T10:53:52Z</time>
      </trkpt>
      <trkpt lat="45.16482" lon="5.94253">
        <ele>2081.6</ele>
        <time>2021-02-20T10:53:53Z</time>
      </trkpt>
      <trkpt lat="45.16482" lon="5.94247">
        <ele>2081.5</ele>
        <time>2021-02-20T10:53:54Z</time>
      </trkpt>
      <trkpt lat="45.16482" lon="5.94241">
        <ele>2081.1</ele>
        <time>2021-02-20T10:53:55Z</time>
      </trkpt>
      <trkpt lat="45.16482" lon="5.94233">
        <ele>2080.9</ele>
        <time>2021-02-20T10:53:56Z</time>
      </trkpt>
      <trkpt lat="45.16483" lon="5.94227">
        <ele>2080</ele>
        <time>2021-02-20T10:53:57Z</time>
      </trkpt>
      <trkpt lat="45.16483" lon="5.94221">
        <ele>2079.7</ele>
        <time>2021-02-20T10:53:58Z</time>
      </trkpt>
      <trkpt lat="45.16485" lon="5.94213">
        <ele>2079.3</ele>
        <time>2021-02-20T10:53:59Z</time>
      </trkpt>
      <trkpt lat="45.16485" lon="5.94204">
        <ele>2078.9</ele>
        <time>2021-02-20T10:54:00Z</time>
      </trkpt>
      <trkpt lat="45.16486" lon="5.94194">
        <ele>2078.2</ele>
        <time>2021-02-20T10:54:01Z</time>
      </trkpt>
      <trkpt lat="45.16488" lon="5.94183">
        <ele>2077.5</ele>
        <time>2021-02-20T10:54:02Z</time>
      </trkpt>
      <trkpt lat="45.16491" lon="5.94172">
        <ele>2077.1</ele>
        <time>2021-02-20T10:54:03Z</time>
      </trkpt>
      <trkpt lat="45.16493" lon="5.94162">
        <ele>2076</ele>
        <time>2021-02-20T10:54:04Z</time>
      </trkpt>
      <trkpt lat="45.16494" lon="5.94152">
        <ele>2075.5</ele>
        <time>2021-02-20T10:54:05Z</time>
      </trkpt>
      <trkpt lat="45.16496" lon="5.94143">
        <ele>2074.3</ele>
        <time>2021-02-20T10:54:06Z</time>
      </trkpt>
      <trkpt lat="45.16498" lon="5.94134">
        <ele>2073</ele>
        <time>2021-02-20T10:54:07Z</time>
      </trkpt>
      <trkpt lat="45.16499" lon="5.94126">
        <ele>2072.5</ele>
        <time>2021-02-20T10:54:08Z</time>
      </trkpt>
      <trkpt lat="45.165" lon="5.9412">
        <ele>2072.3</ele>
        <time>2021-02-20T10:54:09Z</time>
      </trkpt>
      <trkpt lat="45.16501" lon="5.94114">
        <ele>2071.3</ele>
        <time>2021-02-20T10:54:10Z</time>
      </trkpt>
      <trkpt lat="45.16502" lon="5.94108">
        <ele>2071.3</ele>
        <time>2021-02-20T10:54:11Z</time>
      </trkpt>
      <trkpt lat="45.16504" lon="5.94102">
        <ele>2070.7</ele>
        <time>2021-02-20T10:54:12Z</time>
      </trkpt>
      <trkpt lat="45.16506" lon="5.94096">
        <ele>2070.8</ele>
        <time>2021-02-20T10:54:13Z</time>
      </trkpt>
      <trkpt lat="45.16506" lon="5.94091">
        <ele>2070.8</ele>
        <time>2021-02-20T10:54:14Z</time>
      </trkpt>
      <trkpt lat="45.16507" lon="5.94086">
        <ele>2070.3</ele>
        <time>2021-02-20T10:54:15Z</time>
      </trkpt>
      <trkpt lat="45.16508" lon="5.94081">
        <ele>2070.7</ele>
        <time>2021-02-20T10:54:16Z</time>
      </trkpt>
      <trkpt lat="45.16509" lon="5.94075">
        <ele>2070.8</ele>
        <time>2021-02-20T10:54:17Z</time>
      </trkpt>
      <trkpt lat="45.1651" lon="5.94068">
        <ele>2070.5</ele>
        <time>2021-02-20T10:54:18Z</time>
      </trkpt>
      <trkpt lat="45.16511" lon="5.94064">
        <ele>2070.3</ele>
        <time>2021-02-20T10:54:19Z</time>
      </trkpt>
      <trkpt lat="45.16513" lon="5.9406">
        <ele>2069.9</ele>
        <time>2021-02-20T10:54:20Z</time>
      </trkpt>
      <trkpt lat="45.16514" lon="5.94056">
        <ele>2069.7</ele>
        <time>2021-02-20T10:54:21Z</time>
      </trkpt>
      <trkpt lat="45.16514" lon="5.94051">
        <ele>2069.6</ele>
        <time>2021-02-20T10:54:22Z</time>
      </trkpt>
      <trkpt lat="45.16515" lon="5.9405">
        <ele>2069.4</ele>
        <time>2021-02-20T10:54:23Z</time>
      </trkpt>
      <trkpt lat="45.16515" lon="5.94048">
        <ele>2069.1</ele>
        <time>2021-02-20T10:54:24Z</time>
      </trkpt>
      <trkpt lat="45.16516" lon="5.94045">
        <ele>2068.3</ele>
        <time>2021-02-20T10:54:25Z</time>
      </trkpt>
      <trkpt lat="45.16516" lon="5.94043">
        <ele>2068</ele>
        <time>2021-02-20T10:54:26Z</time>
      </trkpt>
      <trkpt lat="45.16517" lon="5.94041">
        <ele>2067.9</ele>
        <time>2021-02-20T10:54:27Z</time>
      </trkpt>
      <trkpt lat="45.16518" lon="5.94039">
        <ele>2067.6</ele>
        <time>2021-02-20T10:54:28Z</time>
      </trkpt>
      <trkpt lat="45.16519" lon="5.94037">
        <ele>2066.9</ele>
        <time>2021-02-20T10:54:29Z</time>
      </trkpt>
      <trkpt lat="45.1652" lon="5.94036">
        <ele>2066.9</ele>
        <time>2021-02-20T10:54:30Z</time>
      </trkpt>
      <trkpt lat="45.16521" lon="5.94035">
        <ele>2066.9</ele>
        <time>2021-02-20T10:54:31Z</time>
      </trkpt>
      <trkpt lat="45.16521" lon="5.94034">
        <ele>2066.9</ele>
        <time>2021-02-20T10:54:32Z</time>
      </trkpt>
      <trkpt lat="45.16522" lon="5.94034">
        <ele>2066.1</ele>
        <time>2021-02-20T10:54:33Z</time>
      </trkpt>
      <trkpt lat="45.16523" lon="5.94033">
        <ele>2066.1</ele>
        <time>2021-02-20T10:54:34Z</time>
      </trkpt>
      <trkpt lat="45.16523" lon="5.94033">
        <ele>2066.1</ele>
        <time>2021-02-20T10:54:35Z</time>
      </trkpt>
      <trkpt lat="45.16524" lon="5.94033">
        <ele>2066.1</ele>
        <time>2021-02-20T10:54:36Z</time>
      </trkpt>
      <trkpt lat="45.16524" lon="5.94032">
        <ele>2066.1</ele>
        <time>2021-02-20T10:54:37Z</time>
      </trkpt>
      <trkpt lat="45.16525" lon="5.94032">
        <ele>2065.2</ele>
        <time>2021-02-20T10:54:38Z</time>
      </trkpt>
      <trkpt lat="45.16525" lon="5.94032">
        <ele>2065.2</ele>
        <time>2021-02-20T10:54:39Z</time>
      </trkpt>
      <trkpt lat="45.16525" lon="5.94032">
        <ele>2065.2</ele>
        <time>2021-02-20T10:54:40Z</time>
      </trkpt>
      <trkpt lat="45.16526" lon="5.94031">
        <ele>2065.2</ele>
        <time>2021-02-20T10:54:41Z</time>
      </trkpt>
      <trkpt lat="45.16526" lon="5.94031">
        <ele>2065.2</ele>
        <time>2021-02-20T10:54:42Z</time>
      </trkpt>
      <trkpt lat="45.16527" lon="5.9403">
        <ele>2065.2</ele>
        <time>2021-02-20T10:54:43Z</time>
      </trkpt>
      <trkpt lat="45.16528" lon="5.94029">
        <ele>2064.4</ele>
        <time>2021-02-20T10:54:44Z</time>
      </trkpt>
      <trkpt lat="45.16528" lon="5.94029">
        <ele>2064.4</ele>
        <time>2021-02-20T10:54:45Z</time>
      </trkpt>
      <trkpt lat="45.16528" lon="5.94028">
        <ele>2064.4</ele>
        <time>2021-02-20T10:54:46Z</time>
      </trkpt>
      <trkpt lat="45.16528" lon="5.94027">
        <ele>2064.4</ele>
        <time>2021-02-20T10:54:47Z</time>
      </trkpt>
      <trkpt lat="45.16528" lon="5.94027">
        <ele>2064.4</ele>
        <time>2021-02-20T10:54:48Z</time>
      </trkpt>
      <trkpt lat="45.16528" lon="5.94026">
        <ele>2064.4</ele>
        <time>2021-02-20T10:54:49Z</time>
      </trkpt>
      <trkpt lat="45.16528" lon="5.94026">
        <ele>2064.6</ele>
        <time>2021-02-20T10:54:50Z</time>
      </trkpt>
      <trkpt lat="45.16528" lon="5.94025">
        <ele>2064.6</ele>
        <time>2021-02-20T10:54:51Z</time>
      </trkpt>
      <trkpt lat="45.16528" lon="5.94025">
        <ele>2064.6</ele>
        <time>2021-02-20T10:54:52Z</time>
      </trkpt>
      <trkpt lat="45.16528" lon="5.94024">
        <ele>2064.6</ele>
        <time>2021-02-20T10:54:53Z</time>
      </trkpt>
      <trkpt lat="45.16528" lon="5.94023">
        <ele>2064.6</ele>
        <time>2021-02-20T10:54:54Z</time>
      </trkpt>
      <trkpt lat="45.16528" lon="5.94023">
        <ele>2065.5</ele>
        <time>2021-02-20T10:56:24Z</time>
      </trkpt>
      <trkpt lat="45.16527" lon="5.94023">
        <ele>2065.5</ele>
        <time>2021-02-20T10:56:25Z</time>
      </trkpt>
      <trkpt lat="45.16527" lon="5.94023">
        <ele>2065.5</ele>
        <time>2021-02-20T10:56:26Z</time>
      </trkpt>
      <trkpt lat="45.16526" lon="5.94022">
        <ele>2065.5</ele>
        <time>2021-02-20T10:56:27Z</time>
      </trkpt>
      <trkpt lat="45.16525" lon="5.94022">
        <ele>2065.5</ele>
        <time>2021-02-20T10:56:28Z</time>
      </trkpt>
      <trkpt lat="45.16525" lon="5.94022">
        <ele>2065.5</ele>
        <time>2021-02-20T10:56:29Z</time>
      </trkpt>
      <trkpt lat="45.16524" lon="5.94021">
        <ele>2066.4</ele>
        <time>2021-02-20T10:56:30Z</time>
      </trkpt>
      <trkpt lat="45.16524" lon="5.94021">
        <ele>2066.6</ele>
        <time>2021-02-20T10:56:31Z</time>
      </trkpt>
      <trkpt lat="45.16523" lon="5.94021">
        <ele>2066.6</ele>
        <time>2021-02-20T10:56:32Z</time>
      </trkpt>
      <trkpt lat="45.16523" lon="5.94021">
        <ele>2066.6</ele>
        <time>2021-02-20T10:56:33Z</time>
      </trkpt>
      <trkpt lat="45.16522" lon="5.9402">
        <ele>2066.6</ele>
        <time>2021-02-20T10:56:34Z</time>
      </trkpt>
      <trkpt lat="45.16522" lon="5.9402">
        <ele>2066.6</ele>
        <time>2021-02-20T11:04:16Z</time>
      </trkpt>
      <trkpt lat="45.16521" lon="5.9402">
        <ele>2067.5</ele>
        <time>2021-02-20T11:04:17Z</time>
      </trkpt>
      <trkpt lat="45.16521" lon="5.94019">
        <ele>2067.5</ele>
        <time>2021-02-20T11:04:18Z</time>
      </trkpt>
      <trkpt lat="45.1652" lon="5.94019">
        <ele>2067.5</ele>
        <time>2021-02-20T11:04:19Z</time>
      </trkpt>
      <trkpt lat="45.1652" lon="5.94019">
        <ele>2067.5</ele>
        <time>2021-02-20T11:04:20Z</time>
      </trkpt>
      <trkpt lat="45.16519" lon="5.94019">
        <ele>2067.5</ele>
        <time>2021-02-20T11:04:21Z</time>
      </trkpt>
      <trkpt lat="45.16519" lon="5.94018">
        <ele>2067.5</ele>
        <time>2021-02-20T11:04:22Z</time>
      </trkpt>
      <trkpt lat="45.16518" lon="5.94018">
        <ele>2068.5</ele>
        <time>2021-02-20T11:04:23Z</time>
      </trkpt>
      <trkpt lat="45.16518" lon="5.94018">
        <ele>2068.5</ele>
        <time>2021-02-20T11:04:24Z</time>
      </trkpt>
      <trkpt lat="45.16517" lon="5.94017">
        <ele>2068.5</ele>
        <time>2021-02-20T11:04:25Z</time>
      </trkpt>
      <trkpt lat="45.16517" lon="5.94017">
        <ele>2068.5</ele>
        <time>2021-02-20T11:04:26Z</time>
      </trkpt>
      <trkpt lat="45.16516" lon="5.94017">
        <ele>2068.7</ele>
        <time>2021-02-20T11:04:36Z</time>
      </trkpt>
      <trkpt lat="45.16515" lon="5.94017">
        <ele>2069.6</ele>
        <time>2021-02-20T11:04:37Z</time>
      </trkpt>
      <trkpt lat="45.16515" lon="5.94016">
        <ele>2069.6</ele>
        <time>2021-02-20T11:04:38Z</time>
      </trkpt>
      <trkpt lat="45.16516" lon="5.94015">
        <ele>2068.7</ele>
        <time>2021-02-20T11:04:39Z</time>
      </trkpt>
      <trkpt lat="45.16516" lon="5.94014">
        <ele>2068.7</ele>
        <time>2021-02-20T11:04:40Z</time>
      </trkpt>
      <trkpt lat="45.16517" lon="5.94012">
        <ele>2069</ele>
        <time>2021-02-20T11:04:41Z</time>
      </trkpt>
      <trkpt lat="45.16517" lon="5.94011">
        <ele>2069</ele>
        <time>2021-02-20T11:04:42Z</time>
      </trkpt>
      <trkpt lat="45.16517" lon="5.94009">
        <ele>2069</ele>
        <time>2021-02-20T11:04:43Z</time>
      </trkpt>
      <trkpt lat="45.16517" lon="5.94007">
        <ele>2069.3</ele>
        <time>2021-02-20T11:04:44Z</time>
      </trkpt>
      <trkpt lat="45.16517" lon="5.94006">
        <ele>2069.3</ele>
        <time>2021-02-20T11:04:45Z</time>
      </trkpt>
      <trkpt lat="45.16516" lon="5.94004">
        <ele>2069.7</ele>
        <time>2021-02-20T11:04:46Z</time>
      </trkpt>
      <trkpt lat="45.16516" lon="5.94003">
        <ele>2069.7</ele>
        <time>2021-02-20T11:04:47Z</time>
      </trkpt>
      <trkpt lat="45.16516" lon="5.94002">
        <ele>2069.7</ele>
        <time>2021-02-20T11:04:48Z</time>
      </trkpt>
      <trkpt lat="45.16516" lon="5.94001">
        <ele>2069.7</ele>
        <time>2021-02-20T11:04:49Z</time>
      </trkpt>
      <trkpt lat="45.16516" lon="5.94">
        <ele>2069.7</ele>
        <time>2021-02-20T11:04:50Z</time>
      </trkpt>
      <trkpt lat="45.16515" lon="5.93999">
        <ele>2071.1</ele>
        <time>2021-02-20T11:04:51Z</time>
      </trkpt>
      <trkpt lat="45.16515" lon="5.93997">
        <ele>2071.1</ele>
        <time>2021-02-20T11:04:52Z</time>
      </trkpt>
      <trkpt lat="45.16514" lon="5.93996">
        <ele>2071.1</ele>
        <time>2021-02-20T11:04:53Z</time>
      </trkpt>
      <trkpt lat="45.16514" lon="5.93995">
        <ele>2071.6</ele>
        <time>2021-02-20T11:04:54Z</time>
      </trkpt>
      <trkpt lat="45.16513" lon="5.93994">
        <ele>2071.6</ele>
        <time>2021-02-20T11:04:55Z</time>
      </trkpt>
      <trkpt lat="45.16513" lon="5.93993">
        <ele>2071.6</ele>
        <time>2021-02-20T11:04:56Z</time>
      </trkpt>
      <trkpt lat="45.16513" lon="5.93992">
        <ele>2071.6</ele>
        <time>2021-02-20T11:04:57Z</time>
      </trkpt>
      <trkpt lat="45.16513" lon="5.93991">
        <ele>2072.2</ele>
        <time>2021-02-20T11:04:58Z</time>
      </trkpt>
      <trkpt lat="45.16513" lon="5.9399">
        <ele>2073.2</ele>
        <time>2021-02-20T11:04:59Z</time>
      </trkpt>
      <trkpt lat="45.16512" lon="5.93988">
        <ele>2073.2</ele>
        <time>2021-02-20T11:05:00Z</time>
      </trkpt>
      <trkpt lat="45.16513" lon="5.93987">
        <ele>2073.2</ele>
        <time>2021-02-20T11:05:01Z</time>
      </trkpt>
      <trkpt lat="45.16513" lon="5.93986">
        <ele>2073.8</ele>
        <time>2021-02-20T11:05:02Z</time>
      </trkpt>
      <trkpt lat="45.16513" lon="5.93985">
        <ele>2073.8</ele>
        <time>2021-02-20T11:05:03Z</time>
      </trkpt>
      <trkpt lat="45.16512" lon="5.93984">
        <ele>2073.8</ele>
        <time>2021-02-20T11:05:04Z</time>
      </trkpt>
      <trkpt lat="45.16512" lon="5.93982">
        <ele>2074.5</ele>
        <time>2021-02-20T11:05:05Z</time>
      </trkpt>
      <trkpt lat="45.16512" lon="5.93981">
        <ele>2074.5</ele>
        <time>2021-02-20T11:05:06Z</time>
      </trkpt>
      <trkpt lat="45.16511" lon="5.9398">
        <ele>2074.5</ele>
        <time>2021-02-20T11:05:07Z</time>
      </trkpt>
      <trkpt lat="45.16511" lon="5.93978">
        <ele>2075.1</ele>
        <time>2021-02-20T11:05:08Z</time>
      </trkpt>
      <trkpt lat="45.16511" lon="5.93977">
        <ele>2075.1</ele>
        <time>2021-02-20T11:05:09Z</time>
      </trkpt>
      <trkpt lat="45.1651" lon="5.93976">
        <ele>2075.1</ele>
        <time>2021-02-20T11:05:10Z</time>
      </trkpt>
      <trkpt lat="45.1651" lon="5.93975">
        <ele>2075.1</ele>
        <time>2021-02-20T11:05:11Z</time>
      </trkpt>
      <trkpt lat="45.1651" lon="5.93974">
        <ele>2075.9</ele>
        <time>2021-02-20T11:05:12Z</time>
      </trkpt>
      <trkpt lat="45.1651" lon="5.93973">
        <ele>2075.9</ele>
        <time>2021-02-20T11:05:13Z</time>
      </trkpt>
      <trkpt lat="45.1651" lon="5.93973">
        <ele>2075.9</ele>
        <time>2021-02-20T11:05:14Z</time>
      </trkpt>
      <trkpt lat="45.1651" lon="5.93973">
        <ele>2075.9</ele>
        <time>2021-02-20T11:05:15Z</time>
      </trkpt>
      <trkpt lat="45.1651" lon="5.93973">
        <ele>2075.9</ele>
        <time>2021-02-20T11:05:16Z</time>
      </trkpt>
      <trkpt lat="45.1651" lon="5.93973">
        <ele>2075.9</ele>
        <time>2021-02-20T11:05:17Z</time>
      </trkpt>
      <trkpt lat="45.1651" lon="5.93972">
        <ele>2075.9</ele>
        <time>2021-02-20T11:05:18Z</time>
      </trkpt>
      <trkpt lat="45.1651" lon="5.9397">
        <ele>2075.9</ele>
        <time>2021-02-20T11:05:19Z</time>
      </trkpt>
      <trkpt lat="45.16509" lon="5.93968">
        <ele>2078</ele>
        <time>2021-02-20T11:05:20Z</time>
      </trkpt>
      <trkpt lat="45.16509" lon="5.93967">
        <ele>2078</ele>
        <time>2021-02-20T11:05:21Z</time>
      </trkpt>
      <trkpt lat="45.16509" lon="5.93966">
        <ele>2078</ele>
        <time>2021-02-20T11:05:22Z</time>
      </trkpt>
      <trkpt lat="45.16509" lon="5.93965">
        <ele>2078.8</ele>
        <time>2021-02-20T11:05:23Z</time>
      </trkpt>
      <trkpt lat="45.16509" lon="5.93963">
        <ele>2078.8</ele>
        <time>2021-02-20T11:05:24Z</time>
      </trkpt>
      <trkpt lat="45.16509" lon="5.93962">
        <ele>2078.8</ele>
        <time>2021-02-20T11:05:25Z</time>
      </trkpt>
      <trkpt lat="45.16509" lon="5.93961">
        <ele>2079.7</ele>
        <time>2021-02-20T11:05:26Z</time>
      </trkpt>
      <trkpt lat="45.16508" lon="5.9396">
        <ele>2079.7</ele>
        <time>2021-02-20T11:05:27Z</time>
      </trkpt>
      <trkpt lat="45.16508" lon="5.93959">
        <ele>2079.7</ele>
        <time>2021-02-20T11:05:28Z</time>
      </trkpt>
      <trkpt lat="45.16508" lon="5.93958">
        <ele>2079.7</ele>
        <time>2021-02-20T11:05:29Z</time>
      </trkpt>
      <trkpt lat="45.16508" lon="5.93957">
        <ele>2080.7</ele>
        <time>2021-02-20T11:05:30Z</time>
      </trkpt>
      <trkpt lat="45.16508" lon="5.93955">
        <ele>2080.7</ele>
        <time>2021-02-20T11:05:31Z</time>
      </trkpt>
      <trkpt lat="45.16508" lon="5.93954">
        <ele>2080.7</ele>
        <time>2021-02-20T11:05:32Z</time>
      </trkpt>
      <trkpt lat="45.16507" lon="5.93953">
        <ele>2080.7</ele>
        <time>2021-02-20T11:05:33Z</time>
      </trkpt>
      <trkpt lat="45.16507" lon="5.93952">
        <ele>2081.6</ele>
        <time>2021-02-20T11:05:34Z</time>
      </trkpt>
      <trkpt lat="45.16506" lon="5.93951">
        <ele>2083.1</ele>
        <time>2021-02-20T11:05:35Z</time>
      </trkpt>
      <trkpt lat="45.16505" lon="5.9395">
        <ele>2083.1</ele>
        <time>2021-02-20T11:05:36Z</time>
      </trkpt>
      <trkpt lat="45.16505" lon="5.93948">
        <ele>2083.1</ele>
        <time>2021-02-20T11:05:37Z</time>
      </trkpt>
      <trkpt lat="45.16504" lon="5.93947">
        <ele>2084.1</ele>
        <time>2021-02-20T11:05:38Z</time>
      </trkpt>
      <trkpt lat="45.16504" lon="5.93946">
        <ele>2084.1</ele>
        <time>2021-02-20T11:05:39Z</time>
      </trkpt>
      <trkpt lat="45.16504" lon="5.93945">
        <ele>2084.1</ele>
        <time>2021-02-20T11:05:40Z</time>
      </trkpt>
      <trkpt lat="45.16504" lon="5.93944">
        <ele>2085.1</ele>
        <time>2021-02-20T11:05:41Z</time>
      </trkpt>
      <trkpt lat="45.16503" lon="5.93942">
        <ele>2086.8</ele>
        <time>2021-02-20T11:05:42Z</time>
      </trkpt>
      <trkpt lat="45.16504" lon="5.93941">
        <ele>2085.1</ele>
        <time>2021-02-20T11:05:43Z</time>
      </trkpt>
      <trkpt lat="45.16503" lon="5.93941">
        <ele>2086.8</ele>
        <time>2021-02-20T11:05:44Z</time>
      </trkpt>
      <trkpt lat="45.16503" lon="5.93939">
        <ele>2087.7</ele>
        <time>2021-02-20T11:05:45Z</time>
      </trkpt>
      <trkpt lat="45.16503" lon="5.93938">
        <ele>2087.7</ele>
        <time>2021-02-20T11:05:46Z</time>
      </trkpt>
      <trkpt lat="45.16503" lon="5.93937">
        <ele>2087.7</ele>
        <time>2021-02-20T11:05:47Z</time>
      </trkpt>
      <trkpt lat="45.16503" lon="5.93936">
        <ele>2087.7</ele>
        <time>2021-02-20T11:05:48Z</time>
      </trkpt>
      <trkpt lat="45.16503" lon="5.93935">
        <ele>2088.6</ele>
        <time>2021-02-20T11:05:49Z</time>
      </trkpt>
      <trkpt lat="45.16502" lon="5.93934">
        <ele>2088.6</ele>
        <time>2021-02-20T11:05:50Z</time>
      </trkpt>
      <trkpt lat="45.16502" lon="5.93933">
        <ele>2088.6</ele>
        <time>2021-02-20T11:05:51Z</time>
      </trkpt>
      <trkpt lat="45.16501" lon="5.93933">
        <ele>2088.6</ele>
        <time>2021-02-20T11:05:52Z</time>
      </trkpt>
      <trkpt lat="45.165" lon="5.93933">
        <ele>2090.5</ele>
        <time>2021-02-20T11:05:53Z</time>
      </trkpt>
      <trkpt lat="45.165" lon="5.93934">
        <ele>2090.5</ele>
        <time>2021-02-20T11:05:54Z</time>
      </trkpt>
      <trkpt lat="45.165" lon="5.93936">
        <ele>2089.6</ele>
        <time>2021-02-20T11:05:55Z</time>
      </trkpt>
      <trkpt lat="45.16499" lon="5.93938">
        <ele>2089.6</ele>
        <time>2021-02-20T11:05:56Z</time>
      </trkpt>
      <trkpt lat="45.16499" lon="5.9394">
        <ele>2089.6</ele>
        <time>2021-02-20T11:05:57Z</time>
      </trkpt>
      <trkpt lat="45.16499" lon="5.93941">
        <ele>2088.7</ele>
        <time>2021-02-20T11:05:58Z</time>
      </trkpt>
      <trkpt lat="45.16499" lon="5.93943">
        <ele>2088.7</ele>
        <time>2021-02-20T11:05:59Z</time>
      </trkpt>
      <trkpt lat="45.16499" lon="5.93944">
        <ele>2088.7</ele>
        <time>2021-02-20T11:06:00Z</time>
      </trkpt>
      <trkpt lat="45.16498" lon="5.93945">
        <ele>2087.7</ele>
        <time>2021-02-20T11:06:01Z</time>
      </trkpt>
      <trkpt lat="45.16498" lon="5.93946">
        <ele>2087.7</ele>
        <time>2021-02-20T11:06:02Z</time>
      </trkpt>
      <trkpt lat="45.16498" lon="5.93947">
        <ele>2087.7</ele>
        <time>2021-02-20T11:06:03Z</time>
      </trkpt>
      <trkpt lat="45.16497" lon="5.93948">
        <ele>2089.6</ele>
        <time>2021-02-20T11:06:04Z</time>
      </trkpt>
      <trkpt lat="45.16496" lon="5.93948">
        <ele>2089.6</ele>
        <time>2021-02-20T11:06:05Z</time>
      </trkpt>
      <trkpt lat="45.16496" lon="5.93949">
        <ele>2088.6</ele>
        <time>2021-02-20T11:06:06Z</time>
      </trkpt>
      <trkpt lat="45.16495" lon="5.9395">
        <ele>2088.6</ele>
        <time>2021-02-20T11:06:07Z</time>
      </trkpt>
      <trkpt lat="45.16494" lon="5.93951">
        <ele>2090.4</ele>
        <time>2021-02-20T11:06:08Z</time>
      </trkpt>
      <trkpt lat="45.16493" lon="5.93951">
        <ele>2090.4</ele>
        <time>2021-02-20T11:06:09Z</time>
      </trkpt>
      <trkpt lat="45.16493" lon="5.93952">
        <ele>2090.4</ele>
        <time>2021-02-20T11:06:10Z</time>
      </trkpt>
      <trkpt lat="45.16492" lon="5.93952">
        <ele>2090.4</ele>
        <time>2021-02-20T11:06:11Z</time>
      </trkpt>
      <trkpt lat="45.16491" lon="5.93953">
        <ele>2091.1</ele>
        <time>2021-02-20T11:06:12Z</time>
      </trkpt>
      <trkpt lat="45.16491" lon="5.93954">
        <ele>2091.1</ele>
        <time>2021-02-20T11:06:13Z</time>
      </trkpt>
      <trkpt lat="45.1649" lon="5.93954">
        <ele>2091.1</ele>
        <time>2021-02-20T11:06:14Z</time>
      </trkpt>
      <trkpt lat="45.16489" lon="5.93955">
        <ele>2091.1</ele>
        <time>2021-02-20T11:06:15Z</time>
      </trkpt>
      <trkpt lat="45.16488" lon="5.93956">
        <ele>2092.7</ele>
        <time>2021-02-20T11:06:16Z</time>
      </trkpt>
      <trkpt lat="45.16488" lon="5.93956">
        <ele>2092.7</ele>
        <time>2021-02-20T11:06:17Z</time>
      </trkpt>
      <trkpt lat="45.16487" lon="5.93957">
        <ele>2092.7</ele>
        <time>2021-02-20T11:06:18Z</time>
      </trkpt>
      <trkpt lat="45.16487" lon="5.93957">
        <ele>2091.6</ele>
        <time>2021-02-20T11:06:19Z</time>
      </trkpt>
      <trkpt lat="45.16486" lon="5.93958">
        <ele>2091.6</ele>
        <time>2021-02-20T11:06:20Z</time>
      </trkpt>
      <trkpt lat="45.16485" lon="5.93959">
        <ele>2093.3</ele>
        <time>2021-02-20T11:06:21Z</time>
      </trkpt>
      <trkpt lat="45.16485" lon="5.9396">
        <ele>2093.3</ele>
        <time>2021-02-20T11:06:22Z</time>
      </trkpt>
      <trkpt lat="45.16484" lon="5.9396">
        <ele>2093.3</ele>
        <time>2021-02-20T11:06:23Z</time>
      </trkpt>
      <trkpt lat="45.16484" lon="5.93961">
        <ele>2093.3</ele>
        <time>2021-02-20T11:06:24Z</time>
      </trkpt>
      <trkpt lat="45.16483" lon="5.93962">
        <ele>2092.2</ele>
        <time>2021-02-20T11:06:25Z</time>
      </trkpt>
      <trkpt lat="45.16482" lon="5.93963">
        <ele>2094</ele>
        <time>2021-02-20T11:06:26Z</time>
      </trkpt>
      <trkpt lat="45.16482" lon="5.93963">
        <ele>2094</ele>
        <time>2021-02-20T11:06:27Z</time>
      </trkpt>
      <trkpt lat="45.16481" lon="5.93964">
        <ele>2094</ele>
        <time>2021-02-20T11:06:28Z</time>
      </trkpt>
      <trkpt lat="45.1648" lon="5.93964">
        <ele>2094</ele>
        <time>2021-02-20T11:06:29Z</time>
      </trkpt>
      <trkpt lat="45.1648" lon="5.93965">
        <ele>2094</ele>
        <time>2021-02-20T11:06:30Z</time>
      </trkpt>
      <trkpt lat="45.16479" lon="5.93966">
        <ele>2094.9</ele>
        <time>2021-02-20T11:06:31Z</time>
      </trkpt>
      <trkpt lat="45.16479" lon="5.93966">
        <ele>2094.9</ele>
        <time>2021-02-20T11:06:32Z</time>
      </trkpt>
      <trkpt lat="45.16478" lon="5.93967">
        <ele>2094.9</ele>
        <time>2021-02-20T11:06:33Z</time>
      </trkpt>
      <trkpt lat="45.16478" lon="5.93966">
        <ele>2094.9</ele>
        <time>2021-02-20T11:06:34Z</time>
      </trkpt>
      <trkpt lat="45.16477" lon="5.93965">
        <ele>2096</ele>
        <time>2021-02-20T11:06:35Z</time>
      </trkpt>
      <trkpt lat="45.16477" lon="5.93964">
        <ele>2096</ele>
        <time>2021-02-20T11:06:36Z</time>
      </trkpt>
      <trkpt lat="45.16477" lon="5.93962">
        <ele>2096</ele>
        <time>2021-02-20T11:06:37Z</time>
      </trkpt>
      <trkpt lat="45.16477" lon="5.93961">
        <ele>2097</ele>
        <time>2021-02-20T11:06:38Z</time>
      </trkpt>
      <trkpt lat="45.16476" lon="5.93959">
        <ele>2097</ele>
        <time>2021-02-20T11:06:39Z</time>
      </trkpt>
      <trkpt lat="45.16476" lon="5.93958">
        <ele>2097</ele>
        <time>2021-02-20T11:06:40Z</time>
      </trkpt>
      <trkpt lat="45.16476" lon="5.93957">
        <ele>2098</ele>
        <time>2021-02-20T11:06:41Z</time>
      </trkpt>
      <trkpt lat="45.16476" lon="5.93955">
        <ele>2098</ele>
        <time>2021-02-20T11:06:42Z</time>
      </trkpt>
      <trkpt lat="45.16476" lon="5.93954">
        <ele>2100.2</ele>
        <time>2021-02-20T11:06:43Z</time>
      </trkpt>
      <trkpt lat="45.16476" lon="5.93952">
        <ele>2101.3</ele>
        <time>2021-02-20T11:06:44Z</time>
      </trkpt>
      <trkpt lat="45.16476" lon="5.93951">
        <ele>2101.3</ele>
        <time>2021-02-20T11:06:45Z</time>
      </trkpt>
      <trkpt lat="45.16475" lon="5.9395">
        <ele>2101.3</ele>
        <time>2021-02-20T11:06:46Z</time>
      </trkpt>
      <trkpt lat="45.16475" lon="5.93949">
        <ele>2101.3</ele>
        <time>2021-02-20T11:06:47Z</time>
      </trkpt>
      <trkpt lat="45.16475" lon="5.93948">
        <ele>2102.3</ele>
        <time>2021-02-20T11:06:48Z</time>
      </trkpt>
      <trkpt lat="45.16475" lon="5.93946">
        <ele>2102.3</ele>
        <time>2021-02-20T11:06:49Z</time>
      </trkpt>
      <trkpt lat="45.16475" lon="5.93945">
        <ele>2102.3</ele>
        <time>2021-02-20T11:06:50Z</time>
      </trkpt>
      <trkpt lat="45.16475" lon="5.93944">
        <ele>2103.3</ele>
        <time>2021-02-20T11:06:51Z</time>
      </trkpt>
      <trkpt lat="45.16475" lon="5.93943">
        <ele>2103.3</ele>
        <time>2021-02-20T11:06:52Z</time>
      </trkpt>
      <trkpt lat="45.16475" lon="5.93942">
        <ele>2103.3</ele>
        <time>2021-02-20T11:06:53Z</time>
      </trkpt>
      <trkpt lat="45.16474" lon="5.9394">
        <ele>2103.3</ele>
        <time>2021-02-20T11:06:54Z</time>
      </trkpt>
      <trkpt lat="45.16474" lon="5.93939">
        <ele>2104.3</ele>
        <time>2021-02-20T11:06:55Z</time>
      </trkpt>
      <trkpt lat="45.16474" lon="5.93938">
        <ele>2104.3</ele>
        <time>2021-02-20T11:06:56Z</time>
      </trkpt>
      <trkpt lat="45.16474" lon="5.93937">
        <ele>2104.3</ele>
        <time>2021-02-20T11:06:57Z</time>
      </trkpt>
      <trkpt lat="45.16475" lon="5.93936">
        <ele>2104.3</ele>
        <time>2021-02-20T11:06:58Z</time>
      </trkpt>
      <trkpt lat="45.16475" lon="5.93936">
        <ele>2104.3</ele>
        <time>2021-02-20T11:06:59Z</time>
      </trkpt>
      <trkpt lat="45.16475" lon="5.93935">
        <ele>2105.3</ele>
        <time>2021-02-20T11:07:00Z</time>
      </trkpt>
      <trkpt lat="45.16475" lon="5.93934">
        <ele>2105.3</ele>
        <time>2021-02-20T11:07:01Z</time>
      </trkpt>
      <trkpt lat="45.16475" lon="5.93933">
        <ele>2105.3</ele>
        <time>2021-02-20T11:07:02Z</time>
      </trkpt>
      <trkpt lat="45.16475" lon="5.93932">
        <ele>2105.3</ele>
        <time>2021-02-20T11:07:03Z</time>
      </trkpt>
      <trkpt lat="45.16475" lon="5.93931">
        <ele>2106.2</ele>
        <time>2021-02-20T11:07:04Z</time>
      </trkpt>
      <trkpt lat="45.16475" lon="5.9393">
        <ele>2106.2</ele>
        <time>2021-02-20T11:07:05Z</time>
      </trkpt>
      <trkpt lat="45.16475" lon="5.93929">
        <ele>2106.2</ele>
        <time>2021-02-20T11:07:06Z</time>
      </trkpt>
      <trkpt lat="45.16475" lon="5.93927">
        <ele>2106.2</ele>
        <time>2021-02-20T11:07:07Z</time>
      </trkpt>
      <trkpt lat="45.16475" lon="5.93926">
        <ele>2107.2</ele>
        <time>2021-02-20T11:07:08Z</time>
      </trkpt>
      <trkpt lat="45.16475" lon="5.93925">
        <ele>2107.2</ele>
        <time>2021-02-20T11:07:09Z</time>
      </trkpt>
      <trkpt lat="45.16475" lon="5.93924">
        <ele>2107.2</ele>
        <time>2021-02-20T11:07:10Z</time>
      </trkpt>
      <trkpt lat="45.16475" lon="5.93924">
        <ele>2107.2</ele>
        <time>2021-02-20T11:07:11Z</time>
      </trkpt>
      <trkpt lat="45.16476" lon="5.93923">
        <ele>2107.2</ele>
        <time>2021-02-20T11:07:12Z</time>
      </trkpt>
      <trkpt lat="45.16476" lon="5.93922">
        <ele>2108.3</ele>
        <time>2021-02-20T11:07:13Z</time>
      </trkpt>
      <trkpt lat="45.16476" lon="5.93921">
        <ele>2108.3</ele>
        <time>2021-02-20T11:07:14Z</time>
      </trkpt>
      <trkpt lat="45.16476" lon="5.93921">
        <ele>2106.1</ele>
        <time>2021-02-20T11:07:15Z</time>
      </trkpt>
      <trkpt lat="45.16476" lon="5.9392">
        <ele>2106.1</ele>
        <time>2021-02-20T11:07:16Z</time>
      </trkpt>
      <trkpt lat="45.16477" lon="5.93919">
        <ele>2106.1</ele>
        <time>2021-02-20T11:07:17Z</time>
      </trkpt>
      <trkpt lat="45.16477" lon="5.93918">
        <ele>2107.2</ele>
        <time>2021-02-20T11:07:18Z</time>
      </trkpt>
      <trkpt lat="45.16477" lon="5.93918">
        <ele>2107.2</ele>
        <time>2021-02-20T11:07:19Z</time>
      </trkpt>
      <trkpt lat="45.16477" lon="5.93917">
        <ele>2107.2</ele>
        <time>2021-02-20T11:07:20Z</time>
      </trkpt>
      <trkpt lat="45.16478" lon="5.93916">
        <ele>2107.2</ele>
        <time>2021-02-20T11:07:21Z</time>
      </trkpt>
      <trkpt lat="45.16478" lon="5.93916">
        <ele>2107.2</ele>
        <time>2021-02-20T11:07:22Z</time>
      </trkpt>
      <trkpt lat="45.16479" lon="5.93915">
        <ele>2107.2</ele>
        <time>2021-02-20T11:07:23Z</time>
      </trkpt>
      <trkpt lat="45.16479" lon="5.93914">
        <ele>2108.4</ele>
        <time>2021-02-20T11:07:24Z</time>
      </trkpt>
      <trkpt lat="45.16479" lon="5.93913">
        <ele>2106.4</ele>
        <time>2021-02-20T11:07:25Z</time>
      </trkpt>
      <trkpt lat="45.1648" lon="5.93912">
        <ele>2106.4</ele>
        <time>2021-02-20T11:07:26Z</time>
      </trkpt>
      <trkpt lat="45.1648" lon="5.93911">
        <ele>2106.4</ele>
        <time>2021-02-20T11:07:27Z</time>
      </trkpt>
      <trkpt lat="45.1648" lon="5.9391">
        <ele>2106.4</ele>
        <time>2021-02-20T11:07:28Z</time>
      </trkpt>
      <trkpt lat="45.1648" lon="5.93909">
        <ele>2107.5</ele>
        <time>2021-02-20T11:07:29Z</time>
      </trkpt>
      <trkpt lat="45.1648" lon="5.93908">
        <ele>2107.5</ele>
        <time>2021-02-20T11:07:30Z</time>
      </trkpt>
      <trkpt lat="45.1648" lon="5.93907">
        <ele>2107.5</ele>
        <time>2021-02-20T11:07:31Z</time>
      </trkpt>
      <trkpt lat="45.1648" lon="5.93906">
        <ele>2107.5</ele>
        <time>2021-02-20T11:07:32Z</time>
      </trkpt>
      <trkpt lat="45.1648" lon="5.93904">
        <ele>2108.7</ele>
        <time>2021-02-20T11:07:33Z</time>
      </trkpt>
      <trkpt lat="45.16481" lon="5.93904">
        <ele>2108.7</ele>
        <time>2021-02-20T11:07:34Z</time>
      </trkpt>
      <trkpt lat="45.1648" lon="5.93903">
        <ele>2108.7</ele>
        <time>2021-02-20T11:07:35Z</time>
      </trkpt>
      <trkpt lat="45.1648" lon="5.93903">
        <ele>2108.7</ele>
        <time>2021-02-20T11:07:36Z</time>
      </trkpt>
      <trkpt lat="45.16479" lon="5.93904">
        <ele>2110.7</ele>
        <time>2021-02-20T11:07:37Z</time>
      </trkpt>
      <trkpt lat="45.16479" lon="5.93904">
        <ele>2110.7</ele>
        <time>2021-02-20T11:07:38Z</time>
      </trkpt>
      <trkpt lat="45.16478" lon="5.93905">
        <ele>2110.7</ele>
        <time>2021-02-20T11:07:39Z</time>
      </trkpt>
      <trkpt lat="45.16478" lon="5.93905">
        <ele>2110.7</ele>
        <time>2021-02-20T11:07:40Z</time>
      </trkpt>
      <trkpt lat="45.16477" lon="5.93905">
        <ele>2110.7</ele>
        <time>2021-02-20T11:07:41Z</time>
      </trkpt>
      <trkpt lat="45.16476" lon="5.93906">
        <ele>2109.6</ele>
        <time>2021-02-20T11:07:42Z</time>
      </trkpt>
      <trkpt lat="45.16476" lon="5.93906">
        <ele>2111.8</ele>
        <time>2021-02-20T11:07:43Z</time>
      </trkpt>
      <trkpt lat="45.16475" lon="5.93907">
        <ele>2111.8</ele>
        <time>2021-02-20T11:07:44Z</time>
      </trkpt>
      <trkpt lat="45.16475" lon="5.93907">
        <ele>2111.8</ele>
        <time>2021-02-20T11:07:50Z</time>
      </trkpt>
      <trkpt lat="45.16474" lon="5.93907">
        <ele>2111.8</ele>
        <time>2021-02-20T11:07:51Z</time>
      </trkpt>
      <trkpt lat="45.16474" lon="5.93908">
        <ele>2111.8</ele>
        <time>2021-02-20T11:07:52Z</time>
      </trkpt>
      <trkpt lat="45.16473" lon="5.93909">
        <ele>2114</ele>
        <time>2021-02-20T11:07:53Z</time>
      </trkpt>
      <trkpt lat="45.16473" lon="5.93909">
        <ele>2114</ele>
        <time>2021-02-20T11:07:54Z</time>
      </trkpt>
      <trkpt lat="45.16472" lon="5.9391">
        <ele>2112.8</ele>
        <time>2021-02-20T11:07:55Z</time>
      </trkpt>
      <trkpt lat="45.16472" lon="5.9391">
        <ele>2112.8</ele>
        <time>2021-02-20T11:07:56Z</time>
      </trkpt>
      <trkpt lat="45.16472" lon="5.93911">
        <ele>2112.8</ele>
        <time>2021-02-20T11:07:57Z</time>
      </trkpt>
      <trkpt lat="45.16471" lon="5.93911">
        <ele>2112.8</ele>
        <time>2021-02-20T11:07:58Z</time>
      </trkpt>
      <trkpt lat="45.16471" lon="5.93912">
        <ele>2112.8</ele>
        <time>2021-02-20T11:07:59Z</time>
      </trkpt>
      <trkpt lat="45.1647" lon="5.93913">
        <ele>2115</ele>
        <time>2021-02-20T11:08:00Z</time>
      </trkpt>
      <trkpt lat="45.1647" lon="5.93913">
        <ele>2115</ele>
        <time>2021-02-20T11:08:01Z</time>
      </trkpt>
      <trkpt lat="45.16469" lon="5.93914">
        <ele>2115</ele>
        <time>2021-02-20T11:08:02Z</time>
      </trkpt>
      <trkpt lat="45.16469" lon="5.93915">
        <ele>2113.9</ele>
        <time>2021-02-20T11:08:03Z</time>
      </trkpt>
      <trkpt lat="45.16468" lon="5.93915">
        <ele>2113.9</ele>
        <time>2021-02-20T11:08:04Z</time>
      </trkpt>
      <trkpt lat="45.16468" lon="5.93916">
        <ele>2113.9</ele>
        <time>2021-02-20T11:08:05Z</time>
      </trkpt>
      <trkpt lat="45.16467" lon="5.93917">
        <ele>2115.9</ele>
        <time>2021-02-20T11:08:06Z</time>
      </trkpt>
      <trkpt lat="45.16467" lon="5.93917">
        <ele>2115.9</ele>
        <time>2021-02-20T11:08:07Z</time>
      </trkpt>
      <trkpt lat="45.16467" lon="5.93917">
        <ele>2115.9</ele>
        <time>2021-02-20T11:08:08Z</time>
      </trkpt>
      <trkpt lat="45.16466" lon="5.93918">
        <ele>2115.9</ele>
        <time>2021-02-20T11:08:09Z</time>
      </trkpt>
      <trkpt lat="45.16466" lon="5.93919">
        <ele>2114.8</ele>
        <time>2021-02-20T11:08:10Z</time>
      </trkpt>
      <trkpt lat="45.16465" lon="5.93919">
        <ele>2114.8</ele>
        <time>2021-02-20T11:08:11Z</time>
      </trkpt>
      <trkpt lat="45.16465" lon="5.9392">
        <ele>2114.8</ele>
        <time>2021-02-20T11:08:12Z</time>
      </trkpt>
      <trkpt lat="45.16465" lon="5.9392">
        <ele>2114.8</ele>
        <time>2021-02-20T11:08:13Z</time>
      </trkpt>
      <trkpt lat="45.16465" lon="5.9392">
        <ele>2114.8</ele>
        <time>2021-02-20T11:08:14Z</time>
      </trkpt>
      <trkpt lat="45.16465" lon="5.9392">
        <ele>2114.8</ele>
        <time>2021-02-20T11:08:15Z</time>
      </trkpt>
      <trkpt lat="45.16465" lon="5.9392">
        <ele>2114.8</ele>
        <time>2021-02-20T11:08:16Z</time>
      </trkpt>
      <trkpt lat="45.16466" lon="5.9392">
        <ele>2114.8</ele>
        <time>2021-02-20T11:08:17Z</time>
      </trkpt>
      <trkpt lat="45.16466" lon="5.93919">
        <ele>2114.8</ele>
        <time>2021-02-20T11:08:18Z</time>
      </trkpt>
      <trkpt lat="45.16466" lon="5.93918">
        <ele>2115.9</ele>
        <time>2021-02-20T11:08:19Z</time>
      </trkpt>
      <trkpt lat="45.16466" lon="5.93916">
        <ele>2115.9</ele>
        <time>2021-02-20T11:08:20Z</time>
      </trkpt>
      <trkpt lat="45.16466" lon="5.93915">
        <ele>2115.9</ele>
        <time>2021-02-20T11:08:21Z</time>
      </trkpt>
      <trkpt lat="45.16466" lon="5.93913">
        <ele>2117.1</ele>
        <time>2021-02-20T11:08:22Z</time>
      </trkpt>
      <trkpt lat="45.16467" lon="5.93912">
        <ele>2117.1</ele>
        <time>2021-02-20T11:08:23Z</time>
      </trkpt>
      <trkpt lat="45.16467" lon="5.93911">
        <ele>2117.1</ele>
        <time>2021-02-20T11:08:24Z</time>
      </trkpt>
      <trkpt lat="45.16467" lon="5.93909">
        <ele>2118.3</ele>
        <time>2021-02-20T11:08:25Z</time>
      </trkpt>
      <trkpt lat="45.16466" lon="5.93908">
        <ele>2118.3</ele>
        <time>2021-02-20T11:08:26Z</time>
      </trkpt>
      <trkpt lat="45.16466" lon="5.93907">
        <ele>2118.3</ele>
        <time>2021-02-20T11:08:27Z</time>
      </trkpt>
      <trkpt lat="45.16466" lon="5.93906">
        <ele>2118.3</ele>
        <time>2021-02-20T11:08:28Z</time>
      </trkpt>
      <trkpt lat="45.16466" lon="5.93904">
        <ele>2119.5</ele>
        <time>2021-02-20T11:08:29Z</time>
      </trkpt>
      <trkpt lat="45.16467" lon="5.93903">
        <ele>2119.5</ele>
        <time>2021-02-20T11:08:30Z</time>
      </trkpt>
      <trkpt lat="45.16467" lon="5.93902">
        <ele>2119.5</ele>
        <time>2021-02-20T11:08:31Z</time>
      </trkpt>
      <trkpt lat="45.16467" lon="5.939">
        <ele>2120.7</ele>
        <time>2021-02-20T11:08:32Z</time>
      </trkpt>
      <trkpt lat="45.16467" lon="5.93899">
        <ele>2120.7</ele>
        <time>2021-02-20T11:08:33Z</time>
      </trkpt>
      <trkpt lat="45.16467" lon="5.93898">
        <ele>2120.7</ele>
        <time>2021-02-20T11:08:34Z</time>
      </trkpt>
      <trkpt lat="45.16467" lon="5.93896">
        <ele>2121.9</ele>
        <time>2021-02-20T11:08:35Z</time>
      </trkpt>
      <trkpt lat="45.16467" lon="5.93895">
        <ele>2121.9</ele>
        <time>2021-02-20T11:08:36Z</time>
      </trkpt>
      <trkpt lat="45.16467" lon="5.93894">
        <ele>2119.8</ele>
        <time>2021-02-20T11:08:37Z</time>
      </trkpt>
      <trkpt lat="45.16468" lon="5.93893">
        <ele>2119.8</ele>
        <time>2021-02-20T11:08:38Z</time>
      </trkpt>
      <trkpt lat="45.16468" lon="5.93892">
        <ele>2121</ele>
        <time>2021-02-20T11:08:39Z</time>
      </trkpt>
      <trkpt lat="45.16468" lon="5.93891">
        <ele>2121</ele>
        <time>2021-02-20T11:08:40Z</time>
      </trkpt>
      <trkpt lat="45.16468" lon="5.9389">
        <ele>2121</ele>
        <time>2021-02-20T11:08:41Z</time>
      </trkpt>
      <trkpt lat="45.16468" lon="5.93889">
        <ele>2121</ele>
        <time>2021-02-20T11:08:42Z</time>
      </trkpt>
      <trkpt lat="45.16468" lon="5.93888">
        <ele>2122.1</ele>
        <time>2021-02-20T11:08:43Z</time>
      </trkpt>
      <trkpt lat="45.16468" lon="5.93887">
        <ele>2122.1</ele>
        <time>2021-02-20T11:08:44Z</time>
      </trkpt>
      <trkpt lat="45.16468" lon="5.93887">
        <ele>2122.1</ele>
        <time>2021-02-20T11:08:45Z</time>
      </trkpt>
      <trkpt lat="45.16469" lon="5.93886">
        <ele>2122.1</ele>
        <time>2021-02-20T11:08:46Z</time>
      </trkpt>
      <trkpt lat="45.16469" lon="5.93886">
        <ele>2122.1</ele>
        <time>2021-02-20T11:08:47Z</time>
      </trkpt>
      <trkpt lat="45.16469" lon="5.93887">
        <ele>2122.1</ele>
        <time>2021-02-20T11:08:48Z</time>
      </trkpt>
      <trkpt lat="45.16469" lon="5.93887">
        <ele>2122.1</ele>
        <time>2021-02-20T11:08:49Z</time>
      </trkpt>
      <trkpt lat="45.16469" lon="5.93887">
        <ele>2122.1</ele>
        <time>2021-02-20T11:08:50Z</time>
      </trkpt>
      <trkpt lat="45.16469" lon="5.93887">
        <ele>2122.1</ele>
        <time>2021-02-20T11:08:51Z</time>
      </trkpt>
      <trkpt lat="45.16468" lon="5.93887">
        <ele>2122.1</ele>
        <time>2021-02-20T11:08:52Z</time>
      </trkpt>
      <trkpt lat="45.16467" lon="5.93888">
        <ele>2122.1</ele>
        <time>2021-02-20T11:08:53Z</time>
      </trkpt>
      <trkpt lat="45.16466" lon="5.93888">
        <ele>2124.3</ele>
        <time>2021-02-20T11:08:54Z</time>
      </trkpt>
      <trkpt lat="45.16466" lon="5.93888">
        <ele>2124.3</ele>
        <time>2021-02-20T11:08:55Z</time>
      </trkpt>
      <trkpt lat="45.16465" lon="5.93888">
        <ele>2123.1</ele>
        <time>2021-02-20T11:08:56Z</time>
      </trkpt>
      <trkpt lat="45.16464" lon="5.93889">
        <ele>2123.1</ele>
        <time>2021-02-20T11:08:57Z</time>
      </trkpt>
      <trkpt lat="45.16464" lon="5.93889">
        <ele>2125.1</ele>
        <time>2021-02-20T11:08:58Z</time>
      </trkpt>
      <trkpt lat="45.16463" lon="5.93889">
        <ele>2125.1</ele>
        <time>2021-02-20T11:08:59Z</time>
      </trkpt>
      <trkpt lat="45.16462" lon="5.9389">
        <ele>2125.1</ele>
        <time>2021-02-20T11:09:00Z</time>
      </trkpt>
      <trkpt lat="45.16461" lon="5.93891">
        <ele>2125.1</ele>
        <time>2021-02-20T11:09:01Z</time>
      </trkpt>
      <trkpt lat="45.1646" lon="5.93892">
        <ele>2127</ele>
        <time>2021-02-20T11:09:02Z</time>
      </trkpt>
      <trkpt lat="45.1646" lon="5.93892">
        <ele>2127</ele>
        <time>2021-02-20T11:09:03Z</time>
      </trkpt>
      <trkpt lat="45.1646" lon="5.93893">
        <ele>2125.8</ele>
        <time>2021-02-20T11:09:04Z</time>
      </trkpt>
      <trkpt lat="45.16459" lon="5.93894">
        <ele>2125.8</ele>
        <time>2021-02-20T11:09:05Z</time>
      </trkpt>
      <trkpt lat="45.16459" lon="5.93895">
        <ele>2125.8</ele>
        <time>2021-02-20T11:09:06Z</time>
      </trkpt>
      <trkpt lat="45.16458" lon="5.93896">
        <ele>2125.8</ele>
        <time>2021-02-20T11:09:07Z</time>
      </trkpt>
      <trkpt lat="45.16458" lon="5.93897">
        <ele>2127.8</ele>
        <time>2021-02-20T11:09:08Z</time>
      </trkpt>
      <trkpt lat="45.16458" lon="5.93898">
        <ele>2126.7</ele>
        <time>2021-02-20T11:09:09Z</time>
      </trkpt>
      <trkpt lat="45.16457" lon="5.93898">
        <ele>2126.7</ele>
        <time>2021-02-20T11:09:10Z</time>
      </trkpt>
      <trkpt lat="45.16457" lon="5.93899">
        <ele>2126.7</ele>
        <time>2021-02-20T11:09:11Z</time>
      </trkpt>
      <trkpt lat="45.16457" lon="5.93899">
        <ele>2126.7</ele>
        <time>2021-02-20T11:09:12Z</time>
      </trkpt>
      <trkpt lat="45.16457" lon="5.939">
        <ele>2126.7</ele>
        <time>2021-02-20T11:09:13Z</time>
      </trkpt>
      <trkpt lat="45.16456" lon="5.93901">
        <ele>2126.7</ele>
        <time>2021-02-20T11:09:14Z</time>
      </trkpt>
      <trkpt lat="45.16456" lon="5.93901">
        <ele>2125.5</ele>
        <time>2021-02-20T11:09:15Z</time>
      </trkpt>
      <trkpt lat="45.16455" lon="5.93902">
        <ele>2127.7</ele>
        <time>2021-02-20T11:09:16Z</time>
      </trkpt>
      <trkpt lat="45.16455" lon="5.93902">
        <ele>2127.7</ele>
        <time>2021-02-20T11:09:17Z</time>
      </trkpt>
      <trkpt lat="45.16454" lon="5.93903">
        <ele>2127.7</ele>
        <time>2021-02-20T11:09:18Z</time>
      </trkpt>
      <trkpt lat="45.16454" lon="5.93903">
        <ele>2127.7</ele>
        <time>2021-02-20T11:09:19Z</time>
      </trkpt>
      <trkpt lat="45.16454" lon="5.93903">
        <ele>2127.7</ele>
        <time>2021-02-20T11:09:20Z</time>
      </trkpt>
      <trkpt lat="45.16454" lon="5.93903">
        <ele>2127.7</ele>
        <time>2021-02-20T11:09:21Z</time>
      </trkpt>
      <trkpt lat="45.16454" lon="5.93903">
        <ele>2127.7</ele>
        <time>2021-02-20T11:09:22Z</time>
      </trkpt>
      <trkpt lat="45.16453" lon="5.93902">
        <ele>2127.7</ele>
        <time>2021-02-20T11:09:23Z</time>
      </trkpt>
      <trkpt lat="45.16453" lon="5.939">
        <ele>2128.9</ele>
        <time>2021-02-20T11:09:24Z</time>
      </trkpt>
      <trkpt lat="45.16454" lon="5.93898">
        <ele>2128.9</ele>
        <time>2021-02-20T11:09:25Z</time>
      </trkpt>
      <trkpt lat="45.16454" lon="5.93895">
        <ele>2130</ele>
        <time>2021-02-20T11:09:26Z</time>
      </trkpt>
      <trkpt lat="45.16454" lon="5.93894">
        <ele>2130</ele>
        <time>2021-02-20T11:09:27Z</time>
      </trkpt>
      <trkpt lat="45.16454" lon="5.93892">
        <ele>2131.2</ele>
        <time>2021-02-20T11:09:28Z</time>
      </trkpt>
      <trkpt lat="45.16454" lon="5.93891">
        <ele>2131.2</ele>
        <time>2021-02-20T11:09:29Z</time>
      </trkpt>
      <trkpt lat="45.16454" lon="5.9389">
        <ele>2131.2</ele>
        <time>2021-02-20T11:09:30Z</time>
      </trkpt>
      <trkpt lat="45.16453" lon="5.93888">
        <ele>2132.3</ele>
        <time>2021-02-20T11:09:31Z</time>
      </trkpt>
      <trkpt lat="45.16453" lon="5.93887">
        <ele>2132.3</ele>
        <time>2021-02-20T11:09:32Z</time>
      </trkpt>
      <trkpt lat="45.16453" lon="5.93885">
        <ele>2132.3</ele>
        <time>2021-02-20T11:09:33Z</time>
      </trkpt>
      <trkpt lat="45.16454" lon="5.93884">
        <ele>2132.3</ele>
        <time>2021-02-20T11:09:34Z</time>
      </trkpt>
      <trkpt lat="45.16454" lon="5.93883">
        <ele>2133.4</ele>
        <time>2021-02-20T11:09:35Z</time>
      </trkpt>
      <trkpt lat="45.16454" lon="5.93881">
        <ele>2133.4</ele>
        <time>2021-02-20T11:09:36Z</time>
      </trkpt>
      <trkpt lat="45.16454" lon="5.9388">
        <ele>2133.4</ele>
        <time>2021-02-20T11:09:37Z</time>
      </trkpt>
      <trkpt lat="45.16454" lon="5.93879">
        <ele>2134.6</ele>
        <time>2021-02-20T11:09:38Z</time>
      </trkpt>
      <trkpt lat="45.16454" lon="5.93878">
        <ele>2134.6</ele>
        <time>2021-02-20T11:09:39Z</time>
      </trkpt>
      <trkpt lat="45.16455" lon="5.93877">
        <ele>2134.6</ele>
        <time>2021-02-20T11:09:40Z</time>
      </trkpt>
      <trkpt lat="45.16455" lon="5.93876">
        <ele>2134.6</ele>
        <time>2021-02-20T11:09:41Z</time>
      </trkpt>
      <trkpt lat="45.16455" lon="5.93874">
        <ele>2135.8</ele>
        <time>2021-02-20T11:09:42Z</time>
      </trkpt>
      <trkpt lat="45.16455" lon="5.93873">
        <ele>2133.8</ele>
        <time>2021-02-20T11:09:43Z</time>
      </trkpt>
      <trkpt lat="45.16456" lon="5.93872">
        <ele>2133.8</ele>
        <time>2021-02-20T11:09:44Z</time>
      </trkpt>
      <trkpt lat="45.16456" lon="5.93871">
        <ele>2135.1</ele>
        <time>2021-02-20T11:09:45Z</time>
      </trkpt>
      <trkpt lat="45.16456" lon="5.93869">
        <ele>2135.1</ele>
        <time>2021-02-20T11:09:46Z</time>
      </trkpt>
      <trkpt lat="45.16457" lon="5.93868">
        <ele>2135.1</ele>
        <time>2021-02-20T11:09:47Z</time>
      </trkpt>
      <trkpt lat="45.16456" lon="5.93867">
        <ele>2135.1</ele>
        <time>2021-02-20T11:09:48Z</time>
      </trkpt>
      <trkpt lat="45.16457" lon="5.93866">
        <ele>2136.4</ele>
        <time>2021-02-20T11:09:49Z</time>
      </trkpt>
      <trkpt lat="45.16457" lon="5.93865">
        <ele>2136.4</ele>
        <time>2021-02-20T11:09:50Z</time>
      </trkpt>
      <trkpt lat="45.16457" lon="5.93864">
        <ele>2136.4</ele>
        <time>2021-02-20T11:09:51Z</time>
      </trkpt>
      <trkpt lat="45.16457" lon="5.93863">
        <ele>2136.4</ele>
        <time>2021-02-20T11:09:52Z</time>
      </trkpt>
      <trkpt lat="45.16457" lon="5.93862">
        <ele>2137.7</ele>
        <time>2021-02-20T11:09:53Z</time>
      </trkpt>
      <trkpt lat="45.16457" lon="5.93861">
        <ele>2137.7</ele>
        <time>2021-02-20T11:09:54Z</time>
      </trkpt>
      <trkpt lat="45.16457" lon="5.9386">
        <ele>2137.7</ele>
        <time>2021-02-20T11:09:55Z</time>
      </trkpt>
      <trkpt lat="45.16457" lon="5.93858">
        <ele>2137.7</ele>
        <time>2021-02-20T11:09:56Z</time>
      </trkpt>
      <trkpt lat="45.16456" lon="5.93857">
        <ele>2139.1</ele>
        <time>2021-02-20T11:09:57Z</time>
      </trkpt>
      <trkpt lat="45.16456" lon="5.93856">
        <ele>2139.1</ele>
        <time>2021-02-20T11:09:58Z</time>
      </trkpt>
      <trkpt lat="45.16456" lon="5.93855">
        <ele>2139.1</ele>
        <time>2021-02-20T11:09:59Z</time>
      </trkpt>
      <trkpt lat="45.16456" lon="5.93854">
        <ele>2139.1</ele>
        <time>2021-02-20T11:10:00Z</time>
      </trkpt>
      <trkpt lat="45.16456" lon="5.93853">
        <ele>2140.3</ele>
        <time>2021-02-20T11:10:01Z</time>
      </trkpt>
      <trkpt lat="45.16456" lon="5.93852">
        <ele>2140.3</ele>
        <time>2021-02-20T11:10:02Z</time>
      </trkpt>
      <trkpt lat="45.16456" lon="5.93851">
        <ele>2140.3</ele>
        <time>2021-02-20T11:10:03Z</time>
      </trkpt>
      <trkpt lat="45.16456" lon="5.9385">
        <ele>2140.3</ele>
        <time>2021-02-20T11:10:04Z</time>
      </trkpt>
      <trkpt lat="45.16456" lon="5.93849">
        <ele>2141.5</ele>
        <time>2021-02-20T11:10:05Z</time>
      </trkpt>
      <trkpt lat="45.16456" lon="5.93848">
        <ele>2141.5</ele>
        <time>2021-02-20T11:10:06Z</time>
      </trkpt>
      <trkpt lat="45.16456" lon="5.93847">
        <ele>2141.5</ele>
        <time>2021-02-20T11:10:07Z</time>
      </trkpt>
      <trkpt lat="45.16456" lon="5.93846">
        <ele>2141.5</ele>
        <time>2021-02-20T11:10:08Z</time>
      </trkpt>
      <trkpt lat="45.16456" lon="5.93845">
        <ele>2142.7</ele>
        <time>2021-02-20T11:10:09Z</time>
      </trkpt>
      <trkpt lat="45.16456" lon="5.93845">
        <ele>2142.7</ele>
        <time>2021-02-20T11:10:10Z</time>
      </trkpt>
      <trkpt lat="45.16455" lon="5.93844">
        <ele>2142.7</ele>
        <time>2021-02-20T11:10:11Z</time>
      </trkpt>
      <trkpt lat="45.16455" lon="5.93843">
        <ele>2144.7</ele>
        <time>2021-02-20T11:10:12Z</time>
      </trkpt>
      <trkpt lat="45.16454" lon="5.93843">
        <ele>2144.7</ele>
        <time>2021-02-20T11:10:13Z</time>
      </trkpt>
      <trkpt lat="45.16454" lon="5.93841">
        <ele>2144.7</ele>
        <time>2021-02-20T11:10:14Z</time>
      </trkpt>
      <trkpt lat="45.16454" lon="5.9384">
        <ele>2145.9</ele>
        <time>2021-02-20T11:10:15Z</time>
      </trkpt>
      <trkpt lat="45.16454" lon="5.93839">
        <ele>2145.9</ele>
        <time>2021-02-20T11:10:16Z</time>
      </trkpt>
      <trkpt lat="45.16454" lon="5.93838">
        <ele>2145.9</ele>
        <time>2021-02-20T11:10:17Z</time>
      </trkpt>
      <trkpt lat="45.16454" lon="5.93837">
        <ele>2145.9</ele>
        <time>2021-02-20T11:10:18Z</time>
      </trkpt>
      <trkpt lat="45.16454" lon="5.93836">
        <ele>2147.2</ele>
        <time>2021-02-20T11:10:19Z</time>
      </trkpt>
      <trkpt lat="45.16455" lon="5.93834">
        <ele>2147.2</ele>
        <time>2021-02-20T11:10:20Z</time>
      </trkpt>
      <trkpt lat="45.16455" lon="5.93833">
        <ele>2145.2</ele>
        <time>2021-02-20T11:10:21Z</time>
      </trkpt>
      <trkpt lat="45.16456" lon="5.93832">
        <ele>2146.5</ele>
        <time>2021-02-20T11:10:22Z</time>
      </trkpt>
      <trkpt lat="45.16456" lon="5.93831">
        <ele>2146.5</ele>
        <time>2021-02-20T11:10:23Z</time>
      </trkpt>
      <trkpt lat="45.16456" lon="5.9383">
        <ele>2146.5</ele>
        <time>2021-02-20T11:10:24Z</time>
      </trkpt>
      <trkpt lat="45.16457" lon="5.93829">
        <ele>2146.5</ele>
        <time>2021-02-20T11:10:25Z</time>
      </trkpt>
      <trkpt lat="45.16457" lon="5.93827">
        <ele>2147.8</ele>
        <time>2021-02-20T11:10:26Z</time>
      </trkpt>
      <trkpt lat="45.16458" lon="5.93826">
        <ele>2147.8</ele>
        <time>2021-02-20T11:10:27Z</time>
      </trkpt>
      <trkpt lat="45.16458" lon="5.93825">
        <ele>2147.8</ele>
        <time>2021-02-20T11:10:28Z</time>
      </trkpt>
      <trkpt lat="45.16458" lon="5.93824">
        <ele>2145.8</ele>
        <time>2021-02-20T11:10:29Z</time>
      </trkpt>
      <trkpt lat="45.16459" lon="5.93823">
        <ele>2147.2</ele>
        <time>2021-02-20T11:10:30Z</time>
      </trkpt>
      <trkpt lat="45.16459" lon="5.93822">
        <ele>2147.2</ele>
        <time>2021-02-20T11:10:31Z</time>
      </trkpt>
      <trkpt lat="45.1646" lon="5.93821">
        <ele>2147.2</ele>
        <time>2021-02-20T11:10:32Z</time>
      </trkpt>
      <trkpt lat="45.1646" lon="5.9382">
        <ele>2147.2</ele>
        <time>2021-02-20T11:10:33Z</time>
      </trkpt>
      <trkpt lat="45.1646" lon="5.93819">
        <ele>2148.5</ele>
        <time>2021-02-20T11:10:34Z</time>
      </trkpt>
      <trkpt lat="45.16461" lon="5.93818">
        <ele>2148.5</ele>
        <time>2021-02-20T11:10:35Z</time>
      </trkpt>
      <trkpt lat="45.16461" lon="5.93817">
        <ele>2146.4</ele>
        <time>2021-02-20T11:10:36Z</time>
      </trkpt>
      <trkpt lat="45.16462" lon="5.93815">
        <ele>2147.7</ele>
        <time>2021-02-20T11:10:37Z</time>
      </trkpt>
      <trkpt lat="45.16463" lon="5.93814">
        <ele>2147.7</ele>
        <time>2021-02-20T11:10:38Z</time>
      </trkpt>
      <trkpt lat="45.16463" lon="5.93813">
        <ele>2147.7</ele>
        <time>2021-02-20T11:10:39Z</time>
      </trkpt>
      <trkpt lat="45.16464" lon="5.93813">
        <ele>2147.7</ele>
        <time>2021-02-20T11:10:40Z</time>
      </trkpt>
      <trkpt lat="45.16464" lon="5.93812">
        <ele>2147.7</ele>
        <time>2021-02-20T11:10:41Z</time>
      </trkpt>
      <trkpt lat="45.16465" lon="5.93811">
        <ele>2146.7</ele>
        <time>2021-02-20T11:10:42Z</time>
      </trkpt>
      <trkpt lat="45.16465" lon="5.9381">
        <ele>2146.7</ele>
        <time>2021-02-20T11:10:43Z</time>
      </trkpt>
      <trkpt lat="45.16465" lon="5.93809">
        <ele>2146.7</ele>
        <time>2021-02-20T11:10:44Z</time>
      </trkpt>
      <trkpt lat="45.16466" lon="5.93808">
        <ele>2146.7</ele>
        <time>2021-02-20T11:10:45Z</time>
      </trkpt>
      <trkpt lat="45.16466" lon="5.93807">
        <ele>2146.7</ele>
        <time>2021-02-20T11:10:46Z</time>
      </trkpt>
      <trkpt lat="45.16466" lon="5.93806">
        <ele>2147.9</ele>
        <time>2021-02-20T11:10:47Z</time>
      </trkpt>
      <trkpt lat="45.16466" lon="5.93805">
        <ele>2147.9</ele>
        <time>2021-02-20T11:10:48Z</time>
      </trkpt>
      <trkpt lat="45.16466" lon="5.93804">
        <ele>2147.9</ele>
        <time>2021-02-20T11:10:49Z</time>
      </trkpt>
      <trkpt lat="45.16467" lon="5.93803">
        <ele>2147.9</ele>
        <time>2021-02-20T11:10:50Z</time>
      </trkpt>
      <trkpt lat="45.16467" lon="5.93803">
        <ele>2147.9</ele>
        <time>2021-02-20T11:10:51Z</time>
      </trkpt>
      <trkpt lat="45.16467" lon="5.93802">
        <ele>2149</ele>
        <time>2021-02-20T11:10:52Z</time>
      </trkpt>
      <trkpt lat="45.16467" lon="5.93802">
        <ele>2149</ele>
        <time>2021-02-20T11:10:53Z</time>
      </trkpt>
      <trkpt lat="45.16467" lon="5.93803">
        <ele>2147.9</ele>
        <time>2021-02-20T11:10:54Z</time>
      </trkpt>
      <trkpt lat="45.16467" lon="5.93803">
        <ele>2147.9</ele>
        <time>2021-02-20T11:10:55Z</time>
      </trkpt>
      <trkpt lat="45.16466" lon="5.93803">
        <ele>2147.9</ele>
        <time>2021-02-20T11:10:56Z</time>
      </trkpt>
      <trkpt lat="45.16466" lon="5.93804">
        <ele>2147.9</ele>
        <time>2021-02-20T11:10:57Z</time>
      </trkpt>
      <trkpt lat="45.16466" lon="5.93804">
        <ele>2147.9</ele>
        <time>2021-02-20T11:10:58Z</time>
      </trkpt>
      <trkpt lat="45.16466" lon="5.93805">
        <ele>2147.9</ele>
        <time>2021-02-20T11:10:59Z</time>
      </trkpt>
      <trkpt lat="45.16466" lon="5.93805">
        <ele>2147.9</ele>
        <time>2021-02-20T11:11:00Z</time>
      </trkpt>
      <trkpt lat="45.16465" lon="5.93805">
        <ele>2147.9</ele>
        <time>2021-02-20T11:11:01Z</time>
      </trkpt>
      <trkpt lat="45.16465" lon="5.93806">
        <ele>2147.9</ele>
        <time>2021-02-20T11:11:21Z</time>
      </trkpt>
      <trkpt lat="45.16465" lon="5.93806">
        <ele>2147.9</ele>
        <time>2021-02-20T11:11:22Z</time>
      </trkpt>
      <trkpt lat="45.16465" lon="5.93806">
        <ele>2147.9</ele>
        <time>2021-02-20T11:11:23Z</time>
      </trkpt>
      <trkpt lat="45.16465" lon="5.93807">
        <ele>2147.9</ele>
        <time>2021-02-20T11:11:24Z</time>
      </trkpt>
      <trkpt lat="45.16464" lon="5.93807">
        <ele>2146.7</ele>
        <time>2021-02-20T11:11:25Z</time>
      </trkpt>
      <trkpt lat="45.16464" lon="5.93807">
        <ele>2146.7</ele>
        <time>2021-02-20T11:11:26Z</time>
      </trkpt>
      <trkpt lat="45.16464" lon="5.93808">
        <ele>2149</ele>
        <time>2021-02-20T11:11:27Z</time>
      </trkpt>
      <trkpt lat="45.16464" lon="5.93808">
        <ele>2149</ele>
        <time>2021-02-20T11:11:28Z</time>
      </trkpt>
      <trkpt lat="45.16464" lon="5.93808">
        <ele>2149</ele>
        <time>2021-02-20T11:11:29Z</time>
      </trkpt>
      <trkpt lat="45.16463" lon="5.93809">
        <ele>2149</ele>
        <time>2021-02-20T11:11:30Z</time>
      </trkpt>
      <trkpt lat="45.16463" lon="5.93809">
        <ele>2149</ele>
        <time>2021-02-20T11:11:31Z</time>
      </trkpt>
      <trkpt lat="45.16463" lon="5.93809">
        <ele>2149</ele>
        <time>2021-02-20T11:11:32Z</time>
      </trkpt>
      <trkpt lat="45.16462" lon="5.9381">
        <ele>2149</ele>
        <time>2021-02-20T11:11:33Z</time>
      </trkpt>
      <trkpt lat="45.16461" lon="5.9381">
        <ele>2151.3</ele>
        <time>2021-02-20T11:11:34Z</time>
      </trkpt>
      <trkpt lat="45.1646" lon="5.9381">
        <ele>2151.3</ele>
        <time>2021-02-20T11:11:35Z</time>
      </trkpt>
      <trkpt lat="45.16459" lon="5.9381">
        <ele>2151.3</ele>
        <time>2021-02-20T11:11:36Z</time>
      </trkpt>
      <trkpt lat="45.16458" lon="5.9381">
        <ele>2151.3</ele>
        <time>2021-02-20T11:11:37Z</time>
      </trkpt>
      <trkpt lat="45.16457" lon="5.93811">
        <ele>2153.5</ele>
        <time>2021-02-20T11:11:38Z</time>
      </trkpt>
      <trkpt lat="45.16457" lon="5.93811">
        <ele>2153.5</ele>
        <time>2021-02-20T11:11:39Z</time>
      </trkpt>
      <trkpt lat="45.16457" lon="5.93811">
        <ele>2152.1</ele>
        <time>2021-02-20T11:11:40Z</time>
      </trkpt>
      <trkpt lat="45.16457" lon="5.93811">
        <ele>2152.1</ele>
        <time>2021-02-20T11:11:41Z</time>
      </trkpt>
      <trkpt lat="45.16457" lon="5.93811">
        <ele>2152.1</ele>
        <time>2021-02-20T11:11:42Z</time>
      </trkpt>
      <trkpt lat="45.16458" lon="5.93811">
        <ele>2149.9</ele>
        <time>2021-02-20T11:11:43Z</time>
      </trkpt>
      <trkpt lat="45.16459" lon="5.9381">
        <ele>2151.3</ele>
        <time>2021-02-20T11:11:44Z</time>
      </trkpt>
      <trkpt lat="45.1646" lon="5.93809">
        <ele>2151.3</ele>
        <time>2021-02-20T11:11:45Z</time>
      </trkpt>
      <trkpt lat="45.16461" lon="5.93808">
        <ele>2149</ele>
        <time>2021-02-20T11:11:46Z</time>
      </trkpt>
      <trkpt lat="45.16463" lon="5.93807">
        <ele>2149</ele>
        <time>2021-02-20T11:11:47Z</time>
      </trkpt>
      <trkpt lat="45.16464" lon="5.93806">
        <ele>2150.3</ele>
        <time>2021-02-20T11:11:48Z</time>
      </trkpt>
      <trkpt lat="45.16464" lon="5.93805">
        <ele>2147.9</ele>
        <time>2021-02-20T11:11:49Z</time>
      </trkpt>
      <trkpt lat="45.16464" lon="5.93804">
        <ele>2147.9</ele>
        <time>2021-02-20T11:11:50Z</time>
      </trkpt>
      <trkpt lat="45.16464" lon="5.93803">
        <ele>2147.9</ele>
        <time>2021-02-20T11:11:51Z</time>
      </trkpt>
      <trkpt lat="45.16464" lon="5.93801">
        <ele>2149</ele>
        <time>2021-02-20T11:11:52Z</time>
      </trkpt>
      <trkpt lat="45.16464" lon="5.938">
        <ele>2149</ele>
        <time>2021-02-20T11:11:53Z</time>
      </trkpt>
      <trkpt lat="45.16464" lon="5.93799">
        <ele>2151.5</ele>
        <time>2021-02-20T11:11:54Z</time>
      </trkpt>
      <trkpt lat="45.16464" lon="5.93798">
        <ele>2150.2</ele>
        <time>2021-02-20T11:11:55Z</time>
      </trkpt>
      <trkpt lat="45.16465" lon="5.93797">
        <ele>2150.2</ele>
        <time>2021-02-20T11:11:56Z</time>
      </trkpt>
      <trkpt lat="45.16465" lon="5.93795">
        <ele>2150.2</ele>
        <time>2021-02-20T11:11:57Z</time>
      </trkpt>
      <trkpt lat="45.16465" lon="5.93794">
        <ele>2150.2</ele>
        <time>2021-02-20T11:11:58Z</time>
      </trkpt>
      <trkpt lat="45.16465" lon="5.93793">
        <ele>2151.3</ele>
        <time>2021-02-20T11:11:59Z</time>
      </trkpt>
      <trkpt lat="45.16465" lon="5.93792">
        <ele>2151.3</ele>
        <time>2021-02-20T11:12:00Z</time>
      </trkpt>
      <trkpt lat="45.16466" lon="5.93791">
        <ele>2151.3</ele>
        <time>2021-02-20T11:12:01Z</time>
      </trkpt>
      <trkpt lat="45.16466" lon="5.93789">
        <ele>2152.5</ele>
        <time>2021-02-20T11:12:02Z</time>
      </trkpt>
      <trkpt lat="45.16466" lon="5.93788">
        <ele>2152.5</ele>
        <time>2021-02-20T11:12:03Z</time>
      </trkpt>
      <trkpt lat="45.16466" lon="5.93786">
        <ele>2152.5</ele>
        <time>2021-02-20T11:12:04Z</time>
      </trkpt>
      <trkpt lat="45.16466" lon="5.93785">
        <ele>2152.5</ele>
        <time>2021-02-20T11:12:05Z</time>
      </trkpt>
      <trkpt lat="45.16466" lon="5.93784">
        <ele>2153.8</ele>
        <time>2021-02-20T11:12:06Z</time>
      </trkpt>
      <trkpt lat="45.16467" lon="5.93783">
        <ele>2153.8</ele>
        <time>2021-02-20T11:12:07Z</time>
      </trkpt>
      <trkpt lat="45.16467" lon="5.93781">
        <ele>2153.8</ele>
        <time>2021-02-20T11:12:08Z</time>
      </trkpt>
      <trkpt lat="45.16467" lon="5.9378">
        <ele>2155.2</ele>
        <time>2021-02-20T11:12:09Z</time>
      </trkpt>
      <trkpt lat="45.16467" lon="5.93778">
        <ele>2155.2</ele>
        <time>2021-02-20T11:12:10Z</time>
      </trkpt>
      <trkpt lat="45.16467" lon="5.93777">
        <ele>2152.5</ele>
        <time>2021-02-20T11:12:11Z</time>
      </trkpt>
      <trkpt lat="45.16467" lon="5.93776">
        <ele>2153.9</ele>
        <time>2021-02-20T11:12:12Z</time>
      </trkpt>
      <trkpt lat="45.16468" lon="5.93774">
        <ele>2153.9</ele>
        <time>2021-02-20T11:12:13Z</time>
      </trkpt>
      <trkpt lat="45.16468" lon="5.93773">
        <ele>2153.9</ele>
        <time>2021-02-20T11:12:14Z</time>
      </trkpt>
      <trkpt lat="45.16468" lon="5.93771">
        <ele>2155.2</ele>
        <time>2021-02-20T11:12:15Z</time>
      </trkpt>
      <trkpt lat="45.16469" lon="5.9377">
        <ele>2155.2</ele>
        <time>2021-02-20T11:12:16Z</time>
      </trkpt>
      <trkpt lat="45.16469" lon="5.93769">
        <ele>2155.2</ele>
        <time>2021-02-20T11:12:17Z</time>
      </trkpt>
      <trkpt lat="45.16469" lon="5.93768">
        <ele>2156.5</ele>
        <time>2021-02-20T11:12:18Z</time>
      </trkpt>
      <trkpt lat="45.16469" lon="5.93767">
        <ele>2156.5</ele>
        <time>2021-02-20T11:12:19Z</time>
      </trkpt>
      <trkpt lat="45.1647" lon="5.93765">
        <ele>2156.5</ele>
        <time>2021-02-20T11:12:20Z</time>
      </trkpt>
      <trkpt lat="45.1647" lon="5.93764">
        <ele>2157.7</ele>
        <time>2021-02-20T11:12:21Z</time>
      </trkpt>
      <trkpt lat="45.1647" lon="5.93763">
        <ele>2154.9</ele>
        <time>2021-02-20T11:12:22Z</time>
      </trkpt>
      <trkpt lat="45.1647" lon="5.93762">
        <ele>2154.9</ele>
        <time>2021-02-20T11:12:23Z</time>
      </trkpt>
      <trkpt lat="45.16471" lon="5.9376">
        <ele>2154.9</ele>
        <time>2021-02-20T11:12:24Z</time>
      </trkpt>
      <trkpt lat="45.16471" lon="5.9376">
        <ele>2156.1</ele>
        <time>2021-02-20T11:12:25Z</time>
      </trkpt>
      <trkpt lat="45.16471" lon="5.93759">
        <ele>2156.1</ele>
        <time>2021-02-20T11:12:26Z</time>
      </trkpt>
      <trkpt lat="45.16472" lon="5.93757">
        <ele>2156.1</ele>
        <time>2021-02-20T11:12:27Z</time>
      </trkpt>
      <trkpt lat="45.16472" lon="5.93756">
        <ele>2156.1</ele>
        <time>2021-02-20T11:12:28Z</time>
      </trkpt>
      <trkpt lat="45.16473" lon="5.93755">
        <ele>2157.1</ele>
        <time>2021-02-20T11:12:29Z</time>
      </trkpt>
      <trkpt lat="45.16473" lon="5.93754">
        <ele>2157.1</ele>
        <time>2021-02-20T11:12:30Z</time>
      </trkpt>
      <trkpt lat="45.16473" lon="5.93753">
        <ele>2154.4</ele>
        <time>2021-02-20T11:12:31Z</time>
      </trkpt>
      <trkpt lat="45.16473" lon="5.93751">
        <ele>2154.4</ele>
        <time>2021-02-20T11:12:32Z</time>
      </trkpt>
      <trkpt lat="45.16474" lon="5.9375">
        <ele>2155.5</ele>
        <time>2021-02-20T11:12:33Z</time>
      </trkpt>
      <trkpt lat="45.16474" lon="5.93749">
        <ele>2155.5</ele>
        <time>2021-02-20T11:12:34Z</time>
      </trkpt>
      <trkpt lat="45.16474" lon="5.93748">
        <ele>2155.5</ele>
        <time>2021-02-20T11:12:35Z</time>
      </trkpt>
      <trkpt lat="45.16474" lon="5.93747">
        <ele>2155.5</ele>
        <time>2021-02-20T11:12:36Z</time>
      </trkpt>
      <trkpt lat="45.16474" lon="5.93746">
        <ele>2156.6</ele>
        <time>2021-02-20T11:12:37Z</time>
      </trkpt>
      <trkpt lat="45.16474" lon="5.93745">
        <ele>2156.6</ele>
        <time>2021-02-20T11:12:38Z</time>
      </trkpt>
      <trkpt lat="45.16475" lon="5.93744">
        <ele>2156.6</ele>
        <time>2021-02-20T11:12:39Z</time>
      </trkpt>
      <trkpt lat="45.16475" lon="5.93743">
        <ele>2156.6</ele>
        <time>2021-02-20T11:12:40Z</time>
      </trkpt>
      <trkpt lat="45.16475" lon="5.93742">
        <ele>2157.7</ele>
        <time>2021-02-20T11:12:41Z</time>
      </trkpt>
      <trkpt lat="45.16475" lon="5.93741">
        <ele>2157.7</ele>
        <time>2021-02-20T11:12:42Z</time>
      </trkpt>
      <trkpt lat="45.16475" lon="5.9374">
        <ele>2157.7</ele>
        <time>2021-02-20T11:12:43Z</time>
      </trkpt>
      <trkpt lat="45.16475" lon="5.93739">
        <ele>2157.7</ele>
        <time>2021-02-20T11:12:44Z</time>
      </trkpt>
      <trkpt lat="45.16475" lon="5.93738">
        <ele>2158.8</ele>
        <time>2021-02-20T11:12:45Z</time>
      </trkpt>
      <trkpt lat="45.16476" lon="5.93736">
        <ele>2158.8</ele>
        <time>2021-02-20T11:12:46Z</time>
      </trkpt>
      <trkpt lat="45.16476" lon="5.93735">
        <ele>2158.8</ele>
        <time>2021-02-20T11:12:47Z</time>
      </trkpt>
      <trkpt lat="45.16476" lon="5.93734">
        <ele>2160</ele>
        <time>2021-02-20T11:12:48Z</time>
      </trkpt>
      <trkpt lat="45.16476" lon="5.93732">
        <ele>2160</ele>
        <time>2021-02-20T11:12:49Z</time>
      </trkpt>
      <trkpt lat="45.16476" lon="5.93731">
        <ele>2160</ele>
        <time>2021-02-20T11:12:50Z</time>
      </trkpt>
      <trkpt lat="45.16476" lon="5.9373">
        <ele>2157.5</ele>
        <time>2021-02-20T11:12:51Z</time>
      </trkpt>
      <trkpt lat="45.16477" lon="5.93729">
        <ele>2158.8</ele>
        <time>2021-02-20T11:12:52Z</time>
      </trkpt>
      <trkpt lat="45.16477" lon="5.93728">
        <ele>2158.8</ele>
        <time>2021-02-20T11:12:53Z</time>
      </trkpt>
      <trkpt lat="45.16477" lon="5.93726">
        <ele>2158.8</ele>
        <time>2021-02-20T11:12:54Z</time>
      </trkpt>
      <trkpt lat="45.16477" lon="5.93725">
        <ele>2160</ele>
        <time>2021-02-20T11:12:55Z</time>
      </trkpt>
      <trkpt lat="45.16477" lon="5.93724">
        <ele>2160</ele>
        <time>2021-02-20T11:12:56Z</time>
      </trkpt>
      <trkpt lat="45.16477" lon="5.93723">
        <ele>2160</ele>
        <time>2021-02-20T11:12:57Z</time>
      </trkpt>
      <trkpt lat="45.16477" lon="5.93721">
        <ele>2160</ele>
        <time>2021-02-20T11:12:58Z</time>
      </trkpt>
      <trkpt lat="45.16478" lon="5.9372">
        <ele>2161.2</ele>
        <time>2021-02-20T11:12:59Z</time>
      </trkpt>
      <trkpt lat="45.16478" lon="5.93719">
        <ele>2161.2</ele>
        <time>2021-02-20T11:13:00Z</time>
      </trkpt>
      <trkpt lat="45.16478" lon="5.93718">
        <ele>2161.2</ele>
        <time>2021-02-20T11:13:01Z</time>
      </trkpt>
      <trkpt lat="45.16478" lon="5.93716">
        <ele>2162.3</ele>
        <time>2021-02-20T11:13:02Z</time>
      </trkpt>
      <trkpt lat="45.16479" lon="5.93715">
        <ele>2162.3</ele>
        <time>2021-02-20T11:13:03Z</time>
      </trkpt>
      <trkpt lat="45.16479" lon="5.93713">
        <ele>2162.3</ele>
        <time>2021-02-20T11:13:04Z</time>
      </trkpt>
      <trkpt lat="45.16479" lon="5.93712">
        <ele>2163.3</ele>
        <time>2021-02-20T11:13:05Z</time>
      </trkpt>
      <trkpt lat="45.16479" lon="5.9371">
        <ele>2163.3</ele>
        <time>2021-02-20T11:13:06Z</time>
      </trkpt>
      <trkpt lat="45.16479" lon="5.93709">
        <ele>2163.3</ele>
        <time>2021-02-20T11:13:07Z</time>
      </trkpt>
      <trkpt lat="45.16479" lon="5.93708">
        <ele>2162</ele>
        <time>2021-02-20T11:13:08Z</time>
      </trkpt>
      <trkpt lat="45.1648" lon="5.93706">
        <ele>2162</ele>
        <time>2021-02-20T11:13:09Z</time>
      </trkpt>
      <trkpt lat="45.1648" lon="5.93705">
        <ele>2162</ele>
        <time>2021-02-20T11:13:10Z</time>
      </trkpt>
      <trkpt lat="45.1648" lon="5.93704">
        <ele>2162.9</ele>
        <time>2021-02-20T11:13:11Z</time>
      </trkpt>
      <trkpt lat="45.1648" lon="5.93703">
        <ele>2162.9</ele>
        <time>2021-02-20T11:13:12Z</time>
      </trkpt>
      <trkpt lat="45.1648" lon="5.93702">
        <ele>2162.9</ele>
        <time>2021-02-20T11:13:13Z</time>
      </trkpt>
      <trkpt lat="45.1648" lon="5.937">
        <ele>2162.9</ele>
        <time>2021-02-20T11:13:14Z</time>
      </trkpt>
      <trkpt lat="45.1648" lon="5.93699">
        <ele>2163.8</ele>
        <time>2021-02-20T11:13:15Z</time>
      </trkpt>
      <trkpt lat="45.1648" lon="5.93698">
        <ele>2163.8</ele>
        <time>2021-02-20T11:13:16Z</time>
      </trkpt>
      <trkpt lat="45.16481" lon="5.93697">
        <ele>2163.8</ele>
        <time>2021-02-20T11:13:17Z</time>
      </trkpt>
      <trkpt lat="45.16481" lon="5.93696">
        <ele>2163.8</ele>
        <time>2021-02-20T11:13:18Z</time>
      </trkpt>
      <trkpt lat="45.16481" lon="5.93695">
        <ele>2164.8</ele>
        <time>2021-02-20T11:13:19Z</time>
      </trkpt>
      <trkpt lat="45.16481" lon="5.93694">
        <ele>2164.8</ele>
        <time>2021-02-20T11:13:20Z</time>
      </trkpt>
      <trkpt lat="45.16481" lon="5.93693">
        <ele>2164.8</ele>
        <time>2021-02-20T11:13:21Z</time>
      </trkpt>
      <trkpt lat="45.16481" lon="5.93691">
        <ele>2164.8</ele>
        <time>2021-02-20T11:13:22Z</time>
      </trkpt>
      <trkpt lat="45.16482" lon="5.9369">
        <ele>2165.7</ele>
        <time>2021-02-20T11:13:23Z</time>
      </trkpt>
      <trkpt lat="45.16482" lon="5.93689">
        <ele>2165.7</ele>
        <time>2021-02-20T11:13:24Z</time>
      </trkpt>
      <trkpt lat="45.16482" lon="5.93688">
        <ele>2165.7</ele>
        <time>2021-02-20T11:13:25Z</time>
      </trkpt>
      <trkpt lat="45.16482" lon="5.93687">
        <ele>2165.7</ele>
        <time>2021-02-20T11:13:26Z</time>
      </trkpt>
      <trkpt lat="45.16482" lon="5.93686">
        <ele>2166.6</ele>
        <time>2021-02-20T11:13:27Z</time>
      </trkpt>
      <trkpt lat="45.16482" lon="5.93685">
        <ele>2166.6</ele>
        <time>2021-02-20T11:13:28Z</time>
      </trkpt>
      <trkpt lat="45.16482" lon="5.93684">
        <ele>2166.6</ele>
        <time>2021-02-20T11:13:29Z</time>
      </trkpt>
      <trkpt lat="45.16482" lon="5.93683">
        <ele>2166.6</ele>
        <time>2021-02-20T11:13:30Z</time>
      </trkpt>
      <trkpt lat="45.16482" lon="5.93682">
        <ele>2167.5</ele>
        <time>2021-02-20T11:13:31Z</time>
      </trkpt>
      <trkpt lat="45.16482" lon="5.93681">
        <ele>2165.7</ele>
        <time>2021-02-20T11:13:32Z</time>
      </trkpt>
      <trkpt lat="45.16483" lon="5.9368">
        <ele>2165.7</ele>
        <time>2021-02-20T11:13:33Z</time>
      </trkpt>
      <trkpt lat="45.16483" lon="5.93679">
        <ele>2165.7</ele>
        <time>2021-02-20T11:13:34Z</time>
      </trkpt>
      <trkpt lat="45.16483" lon="5.93678">
        <ele>2166.6</ele>
        <time>2021-02-20T11:13:35Z</time>
      </trkpt>
      <trkpt lat="45.16483" lon="5.93677">
        <ele>2166.6</ele>
        <time>2021-02-20T11:13:36Z</time>
      </trkpt>
      <trkpt lat="45.16483" lon="5.93676">
        <ele>2166.6</ele>
        <time>2021-02-20T11:13:37Z</time>
      </trkpt>
      <trkpt lat="45.16483" lon="5.93675">
        <ele>2166.6</ele>
        <time>2021-02-20T11:13:38Z</time>
      </trkpt>
      <trkpt lat="45.16483" lon="5.93674">
        <ele>2166.6</ele>
        <time>2021-02-20T11:13:39Z</time>
      </trkpt>
      <trkpt lat="45.16484" lon="5.93673">
        <ele>2167.5</ele>
        <time>2021-02-20T11:13:40Z</time>
      </trkpt>
      <trkpt lat="45.16484" lon="5.93672">
        <ele>2167.5</ele>
        <time>2021-02-20T11:13:41Z</time>
      </trkpt>
      <trkpt lat="45.16484" lon="5.93671">
        <ele>2167.5</ele>
        <time>2021-02-20T11:13:42Z</time>
      </trkpt>
      <trkpt lat="45.16484" lon="5.9367">
        <ele>2167.5</ele>
        <time>2021-02-20T11:13:43Z</time>
      </trkpt>
      <trkpt lat="45.16484" lon="5.93669">
        <ele>2168.4</ele>
        <time>2021-02-20T11:13:44Z</time>
      </trkpt>
      <trkpt lat="45.16485" lon="5.93668">
        <ele>2168.4</ele>
        <time>2021-02-20T11:13:45Z</time>
      </trkpt>
      <trkpt lat="45.16485" lon="5.93667">
        <ele>2168.4</ele>
        <time>2021-02-20T11:13:46Z</time>
      </trkpt>
      <trkpt lat="45.16485" lon="5.93666">
        <ele>2166.7</ele>
        <time>2021-02-20T11:13:47Z</time>
      </trkpt>
      <trkpt lat="45.16486" lon="5.93665">
        <ele>2167.7</ele>
        <time>2021-02-20T11:13:48Z</time>
      </trkpt>
      <trkpt lat="45.16486" lon="5.93663">
        <ele>2167.7</ele>
        <time>2021-02-20T11:13:49Z</time>
      </trkpt>
      <trkpt lat="45.16486" lon="5.93662">
        <ele>2167.7</ele>
        <time>2021-02-20T11:13:50Z</time>
      </trkpt>
      <trkpt lat="45.16487" lon="5.93661">
        <ele>2168.7</ele>
        <time>2021-02-20T11:13:51Z</time>
      </trkpt>
      <trkpt lat="45.16487" lon="5.9366">
        <ele>2168.7</ele>
        <time>2021-02-20T11:13:52Z</time>
      </trkpt>
      <trkpt lat="45.16488" lon="5.93659">
        <ele>2168.7</ele>
        <time>2021-02-20T11:13:53Z</time>
      </trkpt>
      <trkpt lat="45.16488" lon="5.93658">
        <ele>2168.7</ele>
        <time>2021-02-20T11:13:54Z</time>
      </trkpt>
      <trkpt lat="45.16488" lon="5.93657">
        <ele>2168.3</ele>
        <time>2021-02-20T11:13:55Z</time>
      </trkpt>
      <trkpt lat="45.16489" lon="5.93655">
        <ele>2168.3</ele>
        <time>2021-02-20T11:13:56Z</time>
      </trkpt>
      <trkpt lat="45.16489" lon="5.93654">
        <ele>2168.3</ele>
        <time>2021-02-20T11:13:57Z</time>
      </trkpt>
      <trkpt lat="45.16489" lon="5.93653">
        <ele>2168.3</ele>
        <time>2021-02-20T11:13:58Z</time>
      </trkpt>
      <trkpt lat="45.1649" lon="5.93652">
        <ele>2169.6</ele>
        <time>2021-02-20T11:13:59Z</time>
      </trkpt>
      <trkpt lat="45.1649" lon="5.9365">
        <ele>2169.6</ele>
        <time>2021-02-20T11:14:00Z</time>
      </trkpt>
      <trkpt lat="45.1649" lon="5.93649">
        <ele>2169.6</ele>
        <time>2021-02-20T11:14:01Z</time>
      </trkpt>
      <trkpt lat="45.16491" lon="5.93648">
        <ele>2169.6</ele>
        <time>2021-02-20T11:14:02Z</time>
      </trkpt>
      <trkpt lat="45.16491" lon="5.93647">
        <ele>2171</ele>
        <time>2021-02-20T11:14:03Z</time>
      </trkpt>
      <trkpt lat="45.16491" lon="5.93646">
        <ele>2171</ele>
        <time>2021-02-20T11:14:04Z</time>
      </trkpt>
      <trkpt lat="45.16491" lon="5.93645">
        <ele>2171</ele>
        <time>2021-02-20T11:14:05Z</time>
      </trkpt>
      <trkpt lat="45.16491" lon="5.93645">
        <ele>2171</ele>
        <time>2021-02-20T11:14:06Z</time>
      </trkpt>
      <trkpt lat="45.16491" lon="5.93644">
        <ele>2171</ele>
        <time>2021-02-20T11:14:07Z</time>
      </trkpt>
      <trkpt lat="45.16491" lon="5.93643">
        <ele>2172.6</ele>
        <time>2021-02-20T11:14:08Z</time>
      </trkpt>
      <trkpt lat="45.16491" lon="5.93642">
        <ele>2172.6</ele>
        <time>2021-02-20T11:14:09Z</time>
      </trkpt>
      <trkpt lat="45.16491" lon="5.9364">
        <ele>2172.6</ele>
        <time>2021-02-20T11:14:10Z</time>
      </trkpt>
      <trkpt lat="45.16491" lon="5.93639">
        <ele>2171.1</ele>
        <time>2021-02-20T11:14:11Z</time>
      </trkpt>
      <trkpt lat="45.16492" lon="5.93639">
        <ele>2172.8</ele>
        <time>2021-02-20T11:14:12Z</time>
      </trkpt>
      <trkpt lat="45.16492" lon="5.93638">
        <ele>2172.8</ele>
        <time>2021-02-20T11:14:13Z</time>
      </trkpt>
      <trkpt lat="45.16492" lon="5.93637">
        <ele>2172.8</ele>
        <time>2021-02-20T11:14:14Z</time>
      </trkpt>
      <trkpt lat="45.16493" lon="5.93636">
        <ele>2172.8</ele>
        <time>2021-02-20T11:14:15Z</time>
      </trkpt>
      <trkpt lat="45.16493" lon="5.93636">
        <ele>2172.8</ele>
        <time>2021-02-20T11:14:16Z</time>
      </trkpt>
      <trkpt lat="45.16493" lon="5.93635">
        <ele>2174.5</ele>
        <time>2021-02-20T11:14:17Z</time>
      </trkpt>
      <trkpt lat="45.16493" lon="5.93634">
        <ele>2174.5</ele>
        <time>2021-02-20T11:14:18Z</time>
      </trkpt>
      <trkpt lat="45.16494" lon="5.93633">
        <ele>2174.5</ele>
        <time>2021-02-20T11:14:19Z</time>
      </trkpt>
      <trkpt lat="45.16494" lon="5.93632">
        <ele>2174.5</ele>
        <time>2021-02-20T11:14:20Z</time>
      </trkpt>
      <trkpt lat="45.16494" lon="5.93631">
        <ele>2174.5</ele>
        <time>2021-02-20T11:14:21Z</time>
      </trkpt>
      <trkpt lat="45.16494" lon="5.9363">
        <ele>2176.1</ele>
        <time>2021-02-20T11:14:22Z</time>
      </trkpt>
      <trkpt lat="45.16494" lon="5.93629">
        <ele>2176.1</ele>
        <time>2021-02-20T11:14:23Z</time>
      </trkpt>
      <trkpt lat="45.16494" lon="5.93628">
        <ele>2176.1</ele>
        <time>2021-02-20T11:14:24Z</time>
      </trkpt>
      <trkpt lat="45.16494" lon="5.93627">
        <ele>2174.7</ele>
        <time>2021-02-20T11:14:25Z</time>
      </trkpt>
      <trkpt lat="45.16495" lon="5.93626">
        <ele>2176.3</ele>
        <time>2021-02-20T11:14:26Z</time>
      </trkpt>
      <trkpt lat="45.16495" lon="5.93626">
        <ele>2176.3</ele>
        <time>2021-02-20T11:14:27Z</time>
      </trkpt>
      <trkpt lat="45.16495" lon="5.93626">
        <ele>2176.3</ele>
        <time>2021-02-20T11:14:28Z</time>
      </trkpt>
      <trkpt lat="45.16495" lon="5.93625">
        <ele>2176.3</ele>
        <time>2021-02-20T11:14:29Z</time>
      </trkpt>
      <trkpt lat="45.16495" lon="5.93625">
        <ele>2176.3</ele>
        <time>2021-02-20T11:14:30Z</time>
      </trkpt>
      <trkpt lat="45.16496" lon="5.93625">
        <ele>2176.3</ele>
        <time>2021-02-20T11:14:31Z</time>
      </trkpt>
      <trkpt lat="45.16496" lon="5.93624">
        <ele>2176.3</ele>
        <time>2021-02-20T11:14:32Z</time>
      </trkpt>
      <trkpt lat="45.16497" lon="5.93623">
        <ele>2176.3</ele>
        <time>2021-02-20T11:14:33Z</time>
      </trkpt>
      <trkpt lat="45.16497" lon="5.93623">
        <ele>2176.3</ele>
        <time>2021-02-20T11:14:34Z</time>
      </trkpt>
      <trkpt lat="45.16498" lon="5.93622">
        <ele>2176.6</ele>
        <time>2021-02-20T11:14:35Z</time>
      </trkpt>
      <trkpt lat="45.16498" lon="5.93621">
        <ele>2176.6</ele>
        <time>2021-02-20T11:14:36Z</time>
      </trkpt>
      <trkpt lat="45.16499" lon="5.93621">
        <ele>2176.6</ele>
        <time>2021-02-20T11:14:37Z</time>
      </trkpt>
      <trkpt lat="45.16499" lon="5.9362">
        <ele>2176.6</ele>
        <time>2021-02-20T11:14:38Z</time>
      </trkpt>
      <trkpt lat="45.165" lon="5.93619">
        <ele>2176.6</ele>
        <time>2021-02-20T11:14:39Z</time>
      </trkpt>
      <trkpt lat="45.165" lon="5.93618">
        <ele>2176.6</ele>
        <time>2021-02-20T11:14:40Z</time>
      </trkpt>
      <trkpt lat="45.16501" lon="5.93617">
        <ele>2177</ele>
        <time>2021-02-20T11:14:41Z</time>
      </trkpt>
      <trkpt lat="45.16501" lon="5.93616">
        <ele>2177</ele>
        <time>2021-02-20T11:14:42Z</time>
      </trkpt>
      <trkpt lat="45.16502" lon="5.93615">
        <ele>2177</ele>
        <time>2021-02-20T11:14:43Z</time>
      </trkpt>
      <trkpt lat="45.16502" lon="5.93614">
        <ele>2177</ele>
        <time>2021-02-20T11:14:44Z</time>
      </trkpt>
      <trkpt lat="45.16502" lon="5.93613">
        <ele>2178.7</ele>
        <time>2021-02-20T11:14:45Z</time>
      </trkpt>
      <trkpt lat="45.16503" lon="5.93613">
        <ele>2178.7</ele>
        <time>2021-02-20T11:14:46Z</time>
      </trkpt>
      <trkpt lat="45.16503" lon="5.93611">
        <ele>2178.7</ele>
        <time>2021-02-20T11:14:47Z</time>
      </trkpt>
      <trkpt lat="45.16503" lon="5.9361">
        <ele>2178.7</ele>
        <time>2021-02-20T11:14:48Z</time>
      </trkpt>
      <trkpt lat="45.16503" lon="5.93609">
        <ele>2180.3</ele>
        <time>2021-02-20T11:14:49Z</time>
      </trkpt>
      <trkpt lat="45.16504" lon="5.93608">
        <ele>2179.3</ele>
        <time>2021-02-20T11:14:50Z</time>
      </trkpt>
      <trkpt lat="45.16504" lon="5.93607">
        <ele>2179.3</ele>
        <time>2021-02-20T11:14:51Z</time>
      </trkpt>
      <trkpt lat="45.16504" lon="5.93606">
        <ele>2179.3</ele>
        <time>2021-02-20T11:14:52Z</time>
      </trkpt>
      <trkpt lat="45.16505" lon="5.93605">
        <ele>2179.3</ele>
        <time>2021-02-20T11:14:53Z</time>
      </trkpt>
      <trkpt lat="45.16505" lon="5.93604">
        <ele>2181</ele>
        <time>2021-02-20T11:14:54Z</time>
      </trkpt>
      <trkpt lat="45.16506" lon="5.93603">
        <ele>2181</ele>
        <time>2021-02-20T11:14:55Z</time>
      </trkpt>
      <trkpt lat="45.16507" lon="5.93602">
        <ele>2180.2</ele>
        <time>2021-02-20T11:14:56Z</time>
      </trkpt>
      <trkpt lat="45.16507" lon="5.93602">
        <ele>2180.2</ele>
        <time>2021-02-20T11:14:57Z</time>
      </trkpt>
      <trkpt lat="45.16507" lon="5.93601">
        <ele>2180.2</ele>
        <time>2021-02-20T11:14:58Z</time>
      </trkpt>
      <trkpt lat="45.16508" lon="5.93601">
        <ele>2180.2</ele>
        <time>2021-02-20T11:14:59Z</time>
      </trkpt>
      <trkpt lat="45.16509" lon="5.936">
        <ele>2182</ele>
        <time>2021-02-20T11:15:00Z</time>
      </trkpt>
      <trkpt lat="45.16509" lon="5.936">
        <ele>2182</ele>
        <time>2021-02-20T11:15:01Z</time>
      </trkpt>
      <trkpt lat="45.1651" lon="5.936">
        <ele>2181.3</ele>
        <time>2021-02-20T11:15:02Z</time>
      </trkpt>
      <trkpt lat="45.16511" lon="5.93599">
        <ele>2181.3</ele>
        <time>2021-02-20T11:15:03Z</time>
      </trkpt>
      <trkpt lat="45.16511" lon="5.93599">
        <ele>2181.3</ele>
        <time>2021-02-20T11:15:04Z</time>
      </trkpt>
      <trkpt lat="45.16512" lon="5.93599">
        <ele>2181.3</ele>
        <time>2021-02-20T11:15:05Z</time>
      </trkpt>
      <trkpt lat="45.16512" lon="5.93598">
        <ele>2181.3</ele>
        <time>2021-02-20T11:15:06Z</time>
      </trkpt>
      <trkpt lat="45.16513" lon="5.93597">
        <ele>2180.7</ele>
        <time>2021-02-20T11:15:07Z</time>
      </trkpt>
      <trkpt lat="45.16514" lon="5.93597">
        <ele>2180.7</ele>
        <time>2021-02-20T11:15:08Z</time>
      </trkpt>
      <trkpt lat="45.16514" lon="5.93596">
        <ele>2182.5</ele>
        <time>2021-02-20T11:15:09Z</time>
      </trkpt>
      <trkpt lat="45.16515" lon="5.93596">
        <ele>2182.5</ele>
        <time>2021-02-20T11:15:10Z</time>
      </trkpt>
      <trkpt lat="45.16516" lon="5.93595">
        <ele>2182.5</ele>
        <time>2021-02-20T11:15:11Z</time>
      </trkpt>
      <trkpt lat="45.16516" lon="5.93595">
        <ele>2182</ele>
        <time>2021-02-20T11:15:12Z</time>
      </trkpt>
      <trkpt lat="45.16517" lon="5.93595">
        <ele>2182</ele>
        <time>2021-02-20T11:15:13Z</time>
      </trkpt>
      <trkpt lat="45.16517" lon="5.93594">
        <ele>2182</ele>
        <time>2021-02-20T11:15:14Z</time>
      </trkpt>
      <trkpt lat="45.16518" lon="5.93594">
        <ele>2182</ele>
        <time>2021-02-20T11:15:15Z</time>
      </trkpt>
      <trkpt lat="45.16518" lon="5.93594">
        <ele>2182</ele>
        <time>2021-02-20T11:15:16Z</time>
      </trkpt>
      <trkpt lat="45.16519" lon="5.93593">
        <ele>2181.4</ele>
        <time>2021-02-20T11:15:17Z</time>
      </trkpt>
      <trkpt lat="45.16519" lon="5.93593">
        <ele>2181.4</ele>
        <time>2021-02-20T11:15:18Z</time>
      </trkpt>
      <trkpt lat="45.1652" lon="5.93593">
        <ele>2181.4</ele>
        <time>2021-02-20T11:15:19Z</time>
      </trkpt>
      <trkpt lat="45.1652" lon="5.93594">
        <ele>2181.4</ele>
        <time>2021-02-20T11:15:20Z</time>
      </trkpt>
      <trkpt lat="45.16521" lon="5.93594">
        <ele>2181.4</ele>
        <time>2021-02-20T11:15:21Z</time>
      </trkpt>
      <trkpt lat="45.16522" lon="5.93594">
        <ele>2181.4</ele>
        <time>2021-02-20T11:15:22Z</time>
      </trkpt>
      <trkpt lat="45.16522" lon="5.93594">
        <ele>2180.9</ele>
        <time>2021-02-20T11:15:23Z</time>
      </trkpt>
      <trkpt lat="45.16523" lon="5.93594">
        <ele>2180.9</ele>
        <time>2021-02-20T11:15:24Z</time>
      </trkpt>
      <trkpt lat="45.16523" lon="5.93595">
        <ele>2180.9</ele>
        <time>2021-02-20T11:15:25Z</time>
      </trkpt>
      <trkpt lat="45.16523" lon="5.93595">
        <ele>2180.9</ele>
        <time>2021-02-20T11:15:26Z</time>
      </trkpt>
      <trkpt lat="45.16523" lon="5.93595">
        <ele>2180.9</ele>
        <time>2021-02-20T11:15:27Z</time>
      </trkpt>
      <trkpt lat="45.16523" lon="5.93595">
        <ele>2180.9</ele>
        <time>2021-02-20T11:15:28Z</time>
      </trkpt>
      <trkpt lat="45.16524" lon="5.93596">
        <ele>2180.9</ele>
        <time>2021-02-20T11:15:29Z</time>
      </trkpt>
      <trkpt lat="45.16523" lon="5.93595">
        <ele>2180.9</ele>
        <time>2021-02-20T11:15:30Z</time>
      </trkpt>
      <trkpt lat="45.16523" lon="5.93594">
        <ele>2180.9</ele>
        <time>2021-02-20T11:15:31Z</time>
      </trkpt>
      <trkpt lat="45.16522" lon="5.93593">
        <ele>2180.9</ele>
        <time>2021-02-20T11:15:32Z</time>
      </trkpt>
      <trkpt lat="45.16522" lon="5.93592">
        <ele>2180.9</ele>
        <time>2021-02-20T11:15:37Z</time>
      </trkpt>
      <trkpt lat="45.16521" lon="5.93591">
        <ele>2183.3</ele>
        <time>2021-02-20T11:15:38Z</time>
      </trkpt>
      <trkpt lat="45.16521" lon="5.9359">
        <ele>2183.3</ele>
        <time>2021-02-20T11:15:39Z</time>
      </trkpt>
      <trkpt lat="45.1652" lon="5.93589">
        <ele>2183.3</ele>
        <time>2021-02-20T11:15:40Z</time>
      </trkpt>
      <trkpt lat="45.1652" lon="5.93588">
        <ele>2183.3</ele>
        <time>2021-02-20T11:15:41Z</time>
      </trkpt>
      <trkpt lat="45.1652" lon="5.93587">
        <ele>2185.2</ele>
        <time>2021-02-20T11:15:42Z</time>
      </trkpt>
      <trkpt lat="45.1652" lon="5.93587">
        <ele>2185.2</ele>
        <time>2021-02-20T11:15:43Z</time>
      </trkpt>
      <trkpt lat="45.1652" lon="5.93586">
        <ele>2185.2</ele>
        <time>2021-02-20T11:15:44Z</time>
      </trkpt>
      <trkpt lat="45.1652" lon="5.93585">
        <ele>2185.2</ele>
        <time>2021-02-20T11:15:45Z</time>
      </trkpt>
      <trkpt lat="45.1652" lon="5.93584">
        <ele>2185.2</ele>
        <time>2021-02-20T11:15:46Z</time>
      </trkpt>
      <trkpt lat="45.1652" lon="5.93584">
        <ele>2185.2</ele>
        <time>2021-02-20T11:15:47Z</time>
      </trkpt>
      <trkpt lat="45.1652" lon="5.93583">
        <ele>2187</ele>
        <time>2021-02-20T11:15:48Z</time>
      </trkpt>
      <trkpt lat="45.16521" lon="5.93582">
        <ele>2187</ele>
        <time>2021-02-20T11:15:49Z</time>
      </trkpt>
      <trkpt lat="45.16522" lon="5.93582">
        <ele>2187</ele>
        <time>2021-02-20T11:15:50Z</time>
      </trkpt>
      <trkpt lat="45.16522" lon="5.93582">
        <ele>2186.5</ele>
        <time>2021-02-20T11:15:51Z</time>
      </trkpt>
      <trkpt lat="45.16523" lon="5.93582">
        <ele>2186.5</ele>
        <time>2021-02-20T11:15:52Z</time>
      </trkpt>
      <trkpt lat="45.16523" lon="5.93582">
        <ele>2186.5</ele>
        <time>2021-02-20T11:15:53Z</time>
      </trkpt>
      <trkpt lat="45.16524" lon="5.93582">
        <ele>2186.5</ele>
        <time>2021-02-20T11:15:54Z</time>
      </trkpt>
      <trkpt lat="45.16525" lon="5.93582">
        <ele>2186.5</ele>
        <time>2021-02-20T11:15:55Z</time>
      </trkpt>
      <trkpt lat="45.16525" lon="5.93582">
        <ele>2186</ele>
        <time>2021-02-20T11:15:56Z</time>
      </trkpt>
      <trkpt lat="45.16525" lon="5.93582">
        <ele>2186</ele>
        <time>2021-02-20T11:15:57Z</time>
      </trkpt>
      <trkpt lat="45.16525" lon="5.93581">
        <ele>2186.5</ele>
        <time>2021-02-20T11:15:58Z</time>
      </trkpt>
      <trkpt lat="45.16524" lon="5.9358">
        <ele>2186.5</ele>
        <time>2021-02-20T11:15:59Z</time>
      </trkpt>
      <trkpt lat="45.16524" lon="5.93579">
        <ele>2188.2</ele>
        <time>2021-02-20T11:16:00Z</time>
      </trkpt>
      <trkpt lat="45.16524" lon="5.93578">
        <ele>2188.2</ele>
        <time>2021-02-20T11:16:01Z</time>
      </trkpt>
      <trkpt lat="45.16523" lon="5.93577">
        <ele>2188.2</ele>
        <time>2021-02-20T11:16:02Z</time>
      </trkpt>
      <trkpt lat="45.16523" lon="5.93577">
        <ele>2188.2</ele>
        <time>2021-02-20T11:16:03Z</time>
      </trkpt>
      <trkpt lat="45.16523" lon="5.93576">
        <ele>2188.2</ele>
        <time>2021-02-20T11:16:04Z</time>
      </trkpt>
      <trkpt lat="45.16523" lon="5.93575">
        <ele>2189.9</ele>
        <time>2021-02-20T11:16:05Z</time>
      </trkpt>
      <trkpt lat="45.16522" lon="5.93574">
        <ele>2189.9</ele>
        <time>2021-02-20T11:16:06Z</time>
      </trkpt>
      <trkpt lat="45.16522" lon="5.93574">
        <ele>2189.9</ele>
        <time>2021-02-20T11:16:07Z</time>
      </trkpt>
      <trkpt lat="45.16522" lon="5.93574">
        <ele>2189.9</ele>
        <time>2021-02-20T11:16:08Z</time>
      </trkpt>
      <trkpt lat="45.16522" lon="5.93574">
        <ele>2189.9</ele>
        <time>2021-02-20T11:16:09Z</time>
      </trkpt>
      <trkpt lat="45.16522" lon="5.93574">
        <ele>2189.9</ele>
        <time>2021-02-20T11:16:10Z</time>
      </trkpt>
      <trkpt lat="45.16522" lon="5.93573">
        <ele>2189.9</ele>
        <time>2021-02-20T11:16:11Z</time>
      </trkpt>
      <trkpt lat="45.16521" lon="5.93573">
        <ele>2190.3</ele>
        <time>2021-02-20T11:16:12Z</time>
      </trkpt>
      <trkpt lat="45.16521" lon="5.93573">
        <ele>2190.3</ele>
        <time>2021-02-20T11:16:13Z</time>
      </trkpt>
      <trkpt lat="45.16522" lon="5.93572">
        <ele>2189.9</ele>
        <time>2021-02-20T11:16:14Z</time>
      </trkpt>
      <trkpt lat="45.16522" lon="5.93571">
        <ele>2189.9</ele>
        <time>2021-02-20T11:16:15Z</time>
      </trkpt>
      <trkpt lat="45.16522" lon="5.93571">
        <ele>2191.5</ele>
        <time>2021-02-20T11:16:16Z</time>
      </trkpt>
      <trkpt lat="45.16523" lon="5.93569">
        <ele>2191.5</ele>
        <time>2021-02-20T11:16:17Z</time>
      </trkpt>
      <trkpt lat="45.16523" lon="5.93568">
        <ele>2191.5</ele>
        <time>2021-02-20T11:16:29Z</time>
      </trkpt>
      <trkpt lat="45.16523" lon="5.93567">
        <ele>2191.5</ele>
        <time>2021-02-20T11:16:30Z</time>
      </trkpt>
      <trkpt lat="45.16523" lon="5.93566">
        <ele>2193.2</ele>
        <time>2021-02-20T11:16:31Z</time>
      </trkpt>
      <trkpt lat="45.16523" lon="5.93565">
        <ele>2193.2</ele>
        <time>2021-02-20T11:16:32Z</time>
      </trkpt>
      <trkpt lat="45.16523" lon="5.93564">
        <ele>2193.2</ele>
        <time>2021-02-20T11:16:33Z</time>
      </trkpt>
      <trkpt lat="45.16523" lon="5.93563">
        <ele>2193.2</ele>
        <time>2021-02-20T11:16:34Z</time>
      </trkpt>
      <trkpt lat="45.16523" lon="5.93562">
        <ele>2193.2</ele>
        <time>2021-02-20T11:16:35Z</time>
      </trkpt>
      <trkpt lat="45.16523" lon="5.93561">
        <ele>2195</ele>
        <time>2021-02-20T11:16:36Z</time>
      </trkpt>
      <trkpt lat="45.16523" lon="5.9356">
        <ele>2195</ele>
        <time>2021-02-20T11:16:37Z</time>
      </trkpt>
      <trkpt lat="45.16523" lon="5.9356">
        <ele>2195</ele>
        <time>2021-02-20T11:16:38Z</time>
      </trkpt>
      <trkpt lat="45.16523" lon="5.93559">
        <ele>2195</ele>
        <time>2021-02-20T11:16:39Z</time>
      </trkpt>
      <trkpt lat="45.16523" lon="5.93558">
        <ele>2197</ele>
        <time>2021-02-20T11:16:40Z</time>
      </trkpt>
      <trkpt lat="45.16523" lon="5.93557">
        <ele>2197</ele>
        <time>2021-02-20T11:16:41Z</time>
      </trkpt>
      <trkpt lat="45.16522" lon="5.93556">
        <ele>2197</ele>
        <time>2021-02-20T11:16:42Z</time>
      </trkpt>
      <trkpt lat="45.16522" lon="5.93555">
        <ele>2197</ele>
        <time>2021-02-20T11:16:43Z</time>
      </trkpt>
      <trkpt lat="45.16522" lon="5.93554">
        <ele>2197.1</ele>
        <time>2021-02-20T11:16:44Z</time>
      </trkpt>
      <trkpt lat="45.16521" lon="5.93553">
        <ele>2199.1</ele>
        <time>2021-02-20T11:16:45Z</time>
      </trkpt>
      <trkpt lat="45.16521" lon="5.93552">
        <ele>2199.1</ele>
        <time>2021-02-20T11:16:46Z</time>
      </trkpt>
      <trkpt lat="45.16521" lon="5.93551">
        <ele>2199.1</ele>
        <time>2021-02-20T11:16:47Z</time>
      </trkpt>
      <trkpt lat="45.16521" lon="5.93551">
        <ele>2199.1</ele>
        <time>2021-02-20T11:17:21Z</time>
      </trkpt>
      <trkpt lat="45.1652" lon="5.9355">
        <ele>2199.1</ele>
        <time>2021-02-20T11:17:22Z</time>
      </trkpt>
      <trkpt lat="45.1652" lon="5.93549">
        <ele>2201</ele>
        <time>2021-02-20T11:17:23Z</time>
      </trkpt>
      <trkpt lat="45.1652" lon="5.93548">
        <ele>2201</ele>
        <time>2021-02-20T11:17:24Z</time>
      </trkpt>
      <trkpt lat="45.1652" lon="5.93547">
        <ele>2201</ele>
        <time>2021-02-20T11:17:25Z</time>
      </trkpt>
      <trkpt lat="45.1652" lon="5.93547">
        <ele>2201</ele>
        <time>2021-02-20T11:17:26Z</time>
      </trkpt>
      <trkpt lat="45.16519" lon="5.93546">
        <ele>2201</ele>
        <time>2021-02-20T11:17:27Z</time>
      </trkpt>
      <trkpt lat="45.16519" lon="5.93545">
        <ele>2202.9</ele>
        <time>2021-02-20T11:17:28Z</time>
      </trkpt>
      <trkpt lat="45.16519" lon="5.93544">
        <ele>2202.9</ele>
        <time>2021-02-20T11:17:29Z</time>
      </trkpt>
      <trkpt lat="45.16519" lon="5.93543">
        <ele>2202.9</ele>
        <time>2021-02-20T11:17:30Z</time>
      </trkpt>
      <trkpt lat="45.16519" lon="5.93542">
        <ele>2202.9</ele>
        <time>2021-02-20T11:17:31Z</time>
      </trkpt>
      <trkpt lat="45.16518" lon="5.93542">
        <ele>2202.9</ele>
        <time>2021-02-20T11:17:38Z</time>
      </trkpt>
      <trkpt lat="45.16518" lon="5.93541">
        <ele>2202.9</ele>
        <time>2021-02-20T11:17:39Z</time>
      </trkpt>
      <trkpt lat="45.16518" lon="5.9354">
        <ele>2204.7</ele>
        <time>2021-02-20T11:17:40Z</time>
      </trkpt>
      <trkpt lat="45.16518" lon="5.93539">
        <ele>2204.7</ele>
        <time>2021-02-20T11:17:41Z</time>
      </trkpt>
      <trkpt lat="45.16517" lon="5.93537">
        <ele>2204.7</ele>
        <time>2021-02-20T11:17:42Z</time>
      </trkpt>
      <trkpt lat="45.16517" lon="5.93536">
        <ele>2206.5</ele>
        <time>2021-02-20T11:17:43Z</time>
      </trkpt>
      <trkpt lat="45.16516" lon="5.93535">
        <ele>2206.5</ele>
        <time>2021-02-20T11:17:44Z</time>
      </trkpt>
      <trkpt lat="45.16516" lon="5.93534">
        <ele>2206.5</ele>
        <time>2021-02-20T11:17:45Z</time>
      </trkpt>
      <trkpt lat="45.16515" lon="5.93532">
        <ele>2206.4</ele>
        <time>2021-02-20T11:17:46Z</time>
      </trkpt>
      <trkpt lat="45.16515" lon="5.9353">
        <ele>2208.2</ele>
        <time>2021-02-20T11:17:47Z</time>
      </trkpt>
      <trkpt lat="45.16514" lon="5.93529">
        <ele>2208.2</ele>
        <time>2021-02-20T11:17:48Z</time>
      </trkpt>
      <trkpt lat="45.16514" lon="5.93528">
        <ele>2208.2</ele>
        <time>2021-02-20T11:17:49Z</time>
      </trkpt>
      <trkpt lat="45.16514" lon="5.93527">
        <ele>2210</ele>
        <time>2021-02-20T11:17:50Z</time>
      </trkpt>
      <trkpt lat="45.16514" lon="5.93527">
        <ele>2210</ele>
        <time>2021-02-20T11:17:51Z</time>
      </trkpt>
      <trkpt lat="45.16513" lon="5.93526">
        <ele>2210</ele>
        <time>2021-02-20T11:17:52Z</time>
      </trkpt>
      <trkpt lat="45.16513" lon="5.93525">
        <ele>2210</ele>
        <time>2021-02-20T11:17:53Z</time>
      </trkpt>
      <trkpt lat="45.16513" lon="5.93524">
        <ele>2210</ele>
        <time>2021-02-20T11:17:54Z</time>
      </trkpt>
      <trkpt lat="45.16512" lon="5.93524">
        <ele>2211.8</ele>
        <time>2021-02-20T11:17:55Z</time>
      </trkpt>
      <trkpt lat="45.16512" lon="5.93523">
        <ele>2211.8</ele>
        <time>2021-02-20T11:17:56Z</time>
      </trkpt>
      <trkpt lat="45.16512" lon="5.93522">
        <ele>2211.8</ele>
        <time>2021-02-20T11:17:57Z</time>
      </trkpt>
      <trkpt lat="45.16512" lon="5.93521">
        <ele>2211.8</ele>
        <time>2021-02-20T11:18:06Z</time>
      </trkpt>
      <trkpt lat="45.16511" lon="5.9352">
        <ele>2211.8</ele>
        <time>2021-02-20T11:18:07Z</time>
      </trkpt>
      <trkpt lat="45.16511" lon="5.9352">
        <ele>2211.8</ele>
        <time>2021-02-20T11:18:08Z</time>
      </trkpt>
      <trkpt lat="45.16511" lon="5.93519">
        <ele>2213.6</ele>
        <time>2021-02-20T11:18:09Z</time>
      </trkpt>
      <trkpt lat="45.1651" lon="5.93518">
        <ele>2213.6</ele>
        <time>2021-02-20T11:18:10Z</time>
      </trkpt>
      <trkpt lat="45.1651" lon="5.93517">
        <ele>2213.6</ele>
        <time>2021-02-20T11:18:11Z</time>
      </trkpt>
      <trkpt lat="45.1651" lon="5.93516">
        <ele>2213.6</ele>
        <time>2021-02-20T11:18:12Z</time>
      </trkpt>
      <trkpt lat="45.1651" lon="5.93516">
        <ele>2213.6</ele>
        <time>2021-02-20T11:18:13Z</time>
      </trkpt>
      <trkpt lat="45.1651" lon="5.93515">
        <ele>2213.6</ele>
        <time>2021-02-20T11:18:14Z</time>
      </trkpt>
      <trkpt lat="45.1651" lon="5.93514">
        <ele>2215.5</ele>
        <time>2021-02-20T11:18:15Z</time>
      </trkpt>
      <trkpt lat="45.1651" lon="5.93514">
        <ele>2215.5</ele>
        <time>2021-02-20T11:18:16Z</time>
      </trkpt>
      <trkpt lat="45.16511" lon="5.93515">
        <ele>2215.5</ele>
        <time>2021-02-20T11:18:17Z</time>
      </trkpt>
      <trkpt lat="45.16511" lon="5.93515">
        <ele>2215.5</ele>
        <time>2021-02-20T11:18:18Z</time>
      </trkpt>
      <trkpt lat="45.16512" lon="5.93515">
        <ele>2215.5</ele>
        <time>2021-02-20T11:18:19Z</time>
      </trkpt>
      <trkpt lat="45.16512" lon="5.93515">
        <ele>2213.6</ele>
        <time>2021-02-20T11:18:20Z</time>
      </trkpt>
      <trkpt lat="45.16513" lon="5.93515">
        <ele>2213.7</ele>
        <time>2021-02-20T11:18:21Z</time>
      </trkpt>
      <trkpt lat="45.16513" lon="5.93515">
        <ele>2213.7</ele>
        <time>2021-02-20T11:18:22Z</time>
      </trkpt>
      <trkpt lat="45.16514" lon="5.93516">
        <ele>2213.7</ele>
        <time>2021-02-20T11:18:23Z</time>
      </trkpt>
      <trkpt lat="45.16514" lon="5.93516">
        <ele>2213.7</ele>
        <time>2021-02-20T11:18:24Z</time>
      </trkpt>
      <trkpt lat="45.16515" lon="5.93516">
        <ele>2213.7</ele>
        <time>2021-02-20T11:18:25Z</time>
      </trkpt>
      <trkpt lat="45.16515" lon="5.93516">
        <ele>2213.7</ele>
        <time>2021-02-20T11:18:26Z</time>
      </trkpt>
      <trkpt lat="45.16516" lon="5.93516">
        <ele>2213.8</ele>
        <time>2021-02-20T11:18:27Z</time>
      </trkpt>
      <trkpt lat="45.16516" lon="5.93516">
        <ele>2213.8</ele>
        <time>2021-02-20T11:18:50Z</time>
      </trkpt>
      <trkpt lat="45.16517" lon="5.93516">
        <ele>2213.8</ele>
        <time>2021-02-20T11:18:51Z</time>
      </trkpt>
      <trkpt lat="45.16517" lon="5.93517">
        <ele>2213.8</ele>
        <time>2021-02-20T11:18:52Z</time>
      </trkpt>
      <trkpt lat="45.16518" lon="5.93517">
        <ele>2213.8</ele>
        <time>2021-02-20T11:18:53Z</time>
      </trkpt>
      <trkpt lat="45.16519" lon="5.93517">
        <ele>2213.8</ele>
        <time>2021-02-20T11:18:54Z</time>
      </trkpt>
      <trkpt lat="45.16519" lon="5.93518">
        <ele>2213.8</ele>
        <time>2021-02-20T11:18:55Z</time>
      </trkpt>
      <trkpt lat="45.1652" lon="5.93518">
        <ele>2213.8</ele>
        <time>2021-02-20T11:18:56Z</time>
      </trkpt>
      <trkpt lat="45.16521" lon="5.93519">
        <ele>2213.8</ele>
        <time>2021-02-20T11:18:57Z</time>
      </trkpt>
      <trkpt lat="45.16521" lon="5.93519">
        <ele>2213.8</ele>
        <time>2021-02-20T11:18:58Z</time>
      </trkpt>
      <trkpt lat="45.16522" lon="5.93519">
        <ele>2212</ele>
        <time>2021-02-20T11:18:59Z</time>
      </trkpt>
      <trkpt lat="45.16523" lon="5.9352">
        <ele>2212</ele>
        <time>2021-02-20T11:19:00Z</time>
      </trkpt>
      <trkpt lat="45.16523" lon="5.9352">
        <ele>2212</ele>
        <time>2021-02-20T11:19:01Z</time>
      </trkpt>
      <trkpt lat="45.16524" lon="5.9352">
        <ele>2212</ele>
        <time>2021-02-20T11:19:02Z</time>
      </trkpt>
      <trkpt lat="45.16525" lon="5.9352">
        <ele>2212</ele>
        <time>2021-02-20T11:19:03Z</time>
      </trkpt>
      <trkpt lat="45.16525" lon="5.9352">
        <ele>2212</ele>
        <time>2021-02-20T11:19:04Z</time>
      </trkpt>
      <trkpt lat="45.16526" lon="5.93521">
        <ele>2212</ele>
        <time>2021-02-20T11:19:05Z</time>
      </trkpt>
      <trkpt lat="45.16527" lon="5.93521">
        <ele>2212</ele>
        <time>2021-02-20T11:19:06Z</time>
      </trkpt>
      <trkpt lat="45.16528" lon="5.93521">
        <ele>2212</ele>
        <time>2021-02-20T11:19:07Z</time>
      </trkpt>
      <trkpt lat="45.16528" lon="5.93522">
        <ele>2211.9</ele>
        <time>2021-02-20T11:19:08Z</time>
      </trkpt>
      <trkpt lat="45.16529" lon="5.93522">
        <ele>2211.9</ele>
        <time>2021-02-20T11:19:09Z</time>
      </trkpt>
      <trkpt lat="45.16529" lon="5.93523">
        <ele>2211.9</ele>
        <time>2021-02-20T11:19:10Z</time>
      </trkpt>
      <trkpt lat="45.1653" lon="5.93523">
        <ele>2211.9</ele>
        <time>2021-02-20T11:19:11Z</time>
      </trkpt>
      <trkpt lat="45.1653" lon="5.93524">
        <ele>2210.1</ele>
        <time>2021-02-20T11:19:12Z</time>
      </trkpt>
      <trkpt lat="45.1653" lon="5.93524">
        <ele>2210.1</ele>
        <time>2021-02-20T11:19:13Z</time>
      </trkpt>
      <trkpt lat="45.16531" lon="5.93525">
        <ele>2210.1</ele>
        <time>2021-02-20T11:19:14Z</time>
      </trkpt>
      <trkpt lat="45.16531" lon="5.93526">
        <ele>2209.8</ele>
        <time>2021-02-20T11:19:15Z</time>
      </trkpt>
      <trkpt lat="45.16531" lon="5.93526">
        <ele>2209.8</ele>
        <time>2021-02-20T11:19:16Z</time>
      </trkpt>
      <trkpt lat="45.16532" lon="5.93527">
        <ele>2209.8</ele>
        <time>2021-02-20T11:19:17Z</time>
      </trkpt>
      <trkpt lat="45.16532" lon="5.93527">
        <ele>2209.8</ele>
        <time>2021-02-20T11:19:18Z</time>
      </trkpt>
      <trkpt lat="45.16533" lon="5.93528">
        <ele>2209.8</ele>
        <time>2021-02-20T11:19:19Z</time>
      </trkpt>
      <trkpt lat="45.16533" lon="5.93527">
        <ele>2209.8</ele>
        <time>2021-02-20T11:19:20Z</time>
      </trkpt>
      <trkpt lat="45.16533" lon="5.93526">
        <ele>2209.8</ele>
        <time>2021-02-20T11:19:21Z</time>
      </trkpt>
      <trkpt lat="45.16532" lon="5.93525">
        <ele>2209.8</ele>
        <time>2021-02-20T11:19:22Z</time>
      </trkpt>
      <trkpt lat="45.16532" lon="5.93524">
        <ele>2209.8</ele>
        <time>2021-02-20T11:19:23Z</time>
      </trkpt>
      <trkpt lat="45.16532" lon="5.93523">
        <ele>2211.6</ele>
        <time>2021-02-20T11:19:24Z</time>
      </trkpt>
      <trkpt lat="45.16532" lon="5.93522">
        <ele>2211.6</ele>
        <time>2021-02-20T11:19:25Z</time>
      </trkpt>
      <trkpt lat="45.16532" lon="5.93521">
        <ele>2211.6</ele>
        <time>2021-02-20T11:19:26Z</time>
      </trkpt>
      <trkpt lat="45.16532" lon="5.9352">
        <ele>2211.6</ele>
        <time>2021-02-20T11:19:27Z</time>
      </trkpt>
      <trkpt lat="45.16532" lon="5.93519">
        <ele>2213.4</ele>
        <time>2021-02-20T11:19:35Z</time>
      </trkpt>
      <trkpt lat="45.16532" lon="5.93518">
        <ele>2213.4</ele>
        <time>2021-02-20T11:19:36Z</time>
      </trkpt>
      <trkpt lat="45.16532" lon="5.93517">
        <ele>2213.4</ele>
        <time>2021-02-20T11:19:37Z</time>
      </trkpt>
      <trkpt lat="45.16531" lon="5.93516">
        <ele>2213.4</ele>
        <time>2021-02-20T11:19:38Z</time>
      </trkpt>
      <trkpt lat="45.16531" lon="5.93515">
        <ele>2215.3</ele>
        <time>2021-02-20T11:19:39Z</time>
      </trkpt>
      <trkpt lat="45.16531" lon="5.93514">
        <ele>2215.3</ele>
        <time>2021-02-20T11:19:40Z</time>
      </trkpt>
      <trkpt lat="45.16531" lon="5.93513">
        <ele>2215.3</ele>
        <time>2021-02-20T11:19:41Z</time>
      </trkpt>
      <trkpt lat="45.1653" lon="5.93512">
        <ele>2215.5</ele>
        <time>2021-02-20T11:19:42Z</time>
      </trkpt>
      <trkpt lat="45.1653" lon="5.93511">
        <ele>2215.5</ele>
        <time>2021-02-20T11:19:43Z</time>
      </trkpt>
      <trkpt lat="45.1653" lon="5.9351">
        <ele>2217.4</ele>
        <time>2021-02-20T11:19:44Z</time>
      </trkpt>
      <trkpt lat="45.16529" lon="5.93509">
        <ele>2217.4</ele>
        <time>2021-02-20T11:19:45Z</time>
      </trkpt>
      <trkpt lat="45.16529" lon="5.93508">
        <ele>2217.4</ele>
        <time>2021-02-20T11:19:46Z</time>
      </trkpt>
      <trkpt lat="45.16529" lon="5.93507">
        <ele>2217.4</ele>
        <time>2021-02-20T11:19:47Z</time>
      </trkpt>
      <trkpt lat="45.16529" lon="5.93506">
        <ele>2219.3</ele>
        <time>2021-02-20T11:19:48Z</time>
      </trkpt>
      <trkpt lat="45.16529" lon="5.93505">
        <ele>2219.3</ele>
        <time>2021-02-20T11:19:49Z</time>
      </trkpt>
      <trkpt lat="45.16528" lon="5.93505">
        <ele>2219.3</ele>
        <time>2021-02-20T11:19:50Z</time>
      </trkpt>
      <trkpt lat="45.16528" lon="5.93504">
        <ele>2219.4</ele>
        <time>2021-02-20T11:19:51Z</time>
      </trkpt>
      <trkpt lat="45.16527" lon="5.93503">
        <ele>2219.4</ele>
        <time>2021-02-20T11:19:52Z</time>
      </trkpt>
      <trkpt lat="45.16527" lon="5.93503">
        <ele>2219.4</ele>
        <time>2021-02-20T11:19:53Z</time>
      </trkpt>
      <trkpt lat="45.16526" lon="5.93503">
        <ele>2219.4</ele>
        <time>2021-02-20T11:19:54Z</time>
      </trkpt>
      <trkpt lat="45.16526" lon="5.93503">
        <ele>2219.4</ele>
        <time>2021-02-20T11:19:55Z</time>
      </trkpt>
      <trkpt lat="45.16526" lon="5.93503">
        <ele>2219.4</ele>
        <time>2021-02-20T11:19:56Z</time>
      </trkpt>
      <trkpt lat="45.16526" lon="5.93502">
        <ele>2219.4</ele>
        <time>2021-02-20T11:19:57Z</time>
      </trkpt>
      <trkpt lat="45.16526" lon="5.93501">
        <ele>2221.2</ele>
        <time>2021-02-20T11:19:58Z</time>
      </trkpt>
      <trkpt lat="45.16526" lon="5.93501">
        <ele>2221.2</ele>
        <time>2021-02-20T11:19:59Z</time>
      </trkpt>
      <trkpt lat="45.16526" lon="5.935">
        <ele>2221.2</ele>
        <time>2021-02-20T11:20:00Z</time>
      </trkpt>
      <trkpt lat="45.16526" lon="5.93499">
        <ele>2221.2</ele>
        <time>2021-02-20T11:20:01Z</time>
      </trkpt>
      <trkpt lat="45.16527" lon="5.93498">
        <ele>2221.2</ele>
        <time>2021-02-20T11:20:02Z</time>
      </trkpt>
      <trkpt lat="45.16527" lon="5.93497">
        <ele>2222.9</ele>
        <time>2021-02-20T11:20:34Z</time>
      </trkpt>
      <trkpt lat="45.16528" lon="5.93496">
        <ele>2222.9</ele>
        <time>2021-02-20T11:20:35Z</time>
      </trkpt>
      <trkpt lat="45.16528" lon="5.93496">
        <ele>2222.7</ele>
        <time>2021-02-20T11:20:36Z</time>
      </trkpt>
      <trkpt lat="45.16528" lon="5.93495">
        <ele>2222.7</ele>
        <time>2021-02-20T11:20:37Z</time>
      </trkpt>
      <trkpt lat="45.16528" lon="5.93494">
        <ele>2222.7</ele>
        <time>2021-02-20T11:20:38Z</time>
      </trkpt>
      <trkpt lat="45.16527" lon="5.93493">
        <ele>2224.3</ele>
        <time>2021-02-20T11:20:39Z</time>
      </trkpt>
      <trkpt lat="45.16527" lon="5.93492">
        <ele>2224.3</ele>
        <time>2021-02-20T11:20:40Z</time>
      </trkpt>
      <trkpt lat="45.16527" lon="5.93492">
        <ele>2224.3</ele>
        <time>2021-02-20T11:20:41Z</time>
      </trkpt>
      <trkpt lat="45.16527" lon="5.93491">
        <ele>2224.3</ele>
        <time>2021-02-20T11:20:42Z</time>
      </trkpt>
      <trkpt lat="45.16527" lon="5.9349">
        <ele>2224.3</ele>
        <time>2021-02-20T11:20:43Z</time>
      </trkpt>
      <trkpt lat="45.16526" lon="5.93489">
        <ele>2224.3</ele>
        <time>2021-02-20T11:20:44Z</time>
      </trkpt>
      <trkpt lat="45.16526" lon="5.93488">
        <ele>2225.5</ele>
        <time>2021-02-20T11:20:45Z</time>
      </trkpt>
      <trkpt lat="45.16526" lon="5.93487">
        <ele>2225.5</ele>
        <time>2021-02-20T11:20:46Z</time>
      </trkpt>
      <trkpt lat="45.16526" lon="5.93486">
        <ele>2225.5</ele>
        <time>2021-02-20T11:20:47Z</time>
      </trkpt>
      <trkpt lat="45.16525" lon="5.93485">
        <ele>2225.5</ele>
        <time>2021-02-20T11:20:48Z</time>
      </trkpt>
      <trkpt lat="45.16524" lon="5.93484">
        <ele>2226.7</ele>
        <time>2021-02-20T11:20:49Z</time>
      </trkpt>
      <trkpt lat="45.16524" lon="5.93484">
        <ele>2226.7</ele>
        <time>2021-02-20T11:20:50Z</time>
      </trkpt>
      <trkpt lat="45.16523" lon="5.93484">
        <ele>2226.7</ele>
        <time>2021-02-20T11:20:51Z</time>
      </trkpt>
      <trkpt lat="45.16523" lon="5.93484">
        <ele>2226.7</ele>
        <time>2021-02-20T11:20:52Z</time>
      </trkpt>
      <trkpt lat="45.16522" lon="5.93484">
        <ele>2226.7</ele>
        <time>2021-02-20T11:20:53Z</time>
      </trkpt>
      <trkpt lat="45.16521" lon="5.93483">
        <ele>2226.8</ele>
        <time>2021-02-20T11:20:54Z</time>
      </trkpt>
      <trkpt lat="45.1652" lon="5.93482">
        <ele>2226.8</ele>
        <time>2021-02-20T11:20:55Z</time>
      </trkpt>
      <trkpt lat="45.1652" lon="5.93481">
        <ele>2226.8</ele>
        <time>2021-02-20T11:20:56Z</time>
      </trkpt>
      <trkpt lat="45.16519" lon="5.93481">
        <ele>2227.6</ele>
        <time>2021-02-20T11:20:57Z</time>
      </trkpt>
      <trkpt lat="45.16519" lon="5.9348">
        <ele>2227.6</ele>
        <time>2021-02-20T11:20:58Z</time>
      </trkpt>
      <trkpt lat="45.16519" lon="5.93479">
        <ele>2227.6</ele>
        <time>2021-02-20T11:20:59Z</time>
      </trkpt>
      <trkpt lat="45.16519" lon="5.93478">
        <ele>2227.6</ele>
        <time>2021-02-20T11:21:00Z</time>
      </trkpt>
      <trkpt lat="45.16518" lon="5.93478">
        <ele>2227.6</ele>
        <time>2021-02-20T11:21:01Z</time>
      </trkpt>
      <trkpt lat="45.16518" lon="5.93477">
        <ele>2227.6</ele>
        <time>2021-02-20T11:21:02Z</time>
      </trkpt>
      <trkpt lat="45.16518" lon="5.93476">
        <ele>2228.3</ele>
        <time>2021-02-20T11:21:03Z</time>
      </trkpt>
      <trkpt lat="45.16518" lon="5.93474">
        <ele>2228.3</ele>
        <time>2021-02-20T11:21:04Z</time>
      </trkpt>
      <trkpt lat="45.16518" lon="5.93473">
        <ele>2228.3</ele>
        <time>2021-02-20T11:21:05Z</time>
      </trkpt>
      <trkpt lat="45.16517" lon="5.93473">
        <ele>2228.3</ele>
        <time>2021-02-20T11:21:06Z</time>
      </trkpt>
      <trkpt lat="45.16517" lon="5.93471">
        <ele>2228.8</ele>
        <time>2021-02-20T11:21:07Z</time>
      </trkpt>
      <trkpt lat="45.16517" lon="5.9347">
        <ele>2228.8</ele>
        <time>2021-02-20T11:21:08Z</time>
      </trkpt>
      <trkpt lat="45.16516" lon="5.93469">
        <ele>2228.8</ele>
        <time>2021-02-20T11:21:09Z</time>
      </trkpt>
      <trkpt lat="45.16516" lon="5.93468">
        <ele>2228.8</ele>
        <time>2021-02-20T11:21:10Z</time>
      </trkpt>
      <trkpt lat="45.16516" lon="5.93467">
        <ele>2229.2</ele>
        <time>2021-02-20T11:21:11Z</time>
      </trkpt>
      <trkpt lat="45.16515" lon="5.93466">
        <ele>2229.2</ele>
        <time>2021-02-20T11:21:12Z</time>
      </trkpt>
      <trkpt lat="45.16515" lon="5.93465">
        <ele>2229.2</ele>
        <time>2021-02-20T11:21:13Z</time>
      </trkpt>
      <trkpt lat="45.16515" lon="5.93465">
        <ele>2229.2</ele>
        <time>2021-02-20T11:21:14Z</time>
      </trkpt>
      <trkpt lat="45.16514" lon="5.93463">
        <ele>2229.5</ele>
        <time>2021-02-20T11:21:15Z</time>
      </trkpt>
      <trkpt lat="45.16514" lon="5.93462">
        <ele>2229.5</ele>
        <time>2021-02-20T11:21:16Z</time>
      </trkpt>
      <trkpt lat="45.16514" lon="5.93461">
        <ele>2229.5</ele>
        <time>2021-02-20T11:21:17Z</time>
      </trkpt>
      <trkpt lat="45.16513" lon="5.93461">
        <ele>2229.5</ele>
        <time>2021-02-20T11:21:18Z</time>
      </trkpt>
      <trkpt lat="45.16513" lon="5.9346">
        <ele>2229.5</ele>
        <time>2021-02-20T11:21:19Z</time>
      </trkpt>
      <trkpt lat="45.16513" lon="5.93459">
        <ele>2229.7</ele>
        <time>2021-02-20T11:21:20Z</time>
      </trkpt>
      <trkpt lat="45.16512" lon="5.93459">
        <ele>2229.9</ele>
        <time>2021-02-20T11:21:21Z</time>
      </trkpt>
      <trkpt lat="45.16512" lon="5.93458">
        <ele>2229.9</ele>
        <time>2021-02-20T11:21:22Z</time>
      </trkpt>
      <trkpt lat="45.16511" lon="5.93458">
        <ele>2229.9</ele>
        <time>2021-02-20T11:21:23Z</time>
      </trkpt>
      <trkpt lat="45.16511" lon="5.93458">
        <ele>2229.9</ele>
        <time>2021-02-20T11:21:24Z</time>
      </trkpt>
      <trkpt lat="45.16511" lon="5.93458">
        <ele>2229.9</ele>
        <time>2021-02-20T11:21:25Z</time>
      </trkpt>
      <trkpt lat="45.16511" lon="5.93457">
        <ele>2229.9</ele>
        <time>2021-02-20T11:21:26Z</time>
      </trkpt>
      <trkpt lat="45.1651" lon="5.93457">
        <ele>2229.9</ele>
        <time>2021-02-20T11:21:27Z</time>
      </trkpt>
      <trkpt lat="45.16509" lon="5.93456">
        <ele>2230.1</ele>
        <time>2021-02-20T11:21:28Z</time>
      </trkpt>
      <trkpt lat="45.16509" lon="5.93456">
        <ele>2230.1</ele>
        <time>2021-02-20T11:21:29Z</time>
      </trkpt>
      <trkpt lat="45.16508" lon="5.93455">
        <ele>2230.1</ele>
        <time>2021-02-20T11:21:30Z</time>
      </trkpt>
      <trkpt lat="45.16508" lon="5.93455">
        <ele>2230.3</ele>
        <time>2021-02-20T11:21:31Z</time>
      </trkpt>
      <trkpt lat="45.16507" lon="5.93454">
        <ele>2230.3</ele>
        <time>2021-02-20T11:21:32Z</time>
      </trkpt>
      <trkpt lat="45.16507" lon="5.93453">
        <ele>2230.3</ele>
        <time>2021-02-20T11:21:33Z</time>
      </trkpt>
      <trkpt lat="45.16506" lon="5.93452">
        <ele>2230.6</ele>
        <time>2021-02-20T11:21:34Z</time>
      </trkpt>
      <trkpt lat="45.16506" lon="5.93451">
        <ele>2230.6</ele>
        <time>2021-02-20T11:21:35Z</time>
      </trkpt>
      <trkpt lat="45.16506" lon="5.9345">
        <ele>2230.8</ele>
        <time>2021-02-20T11:21:36Z</time>
      </trkpt>
      <trkpt lat="45.16505" lon="5.93449">
        <ele>2230.8</ele>
        <time>2021-02-20T11:21:37Z</time>
      </trkpt>
      <trkpt lat="45.16505" lon="5.93449">
        <ele>2230.8</ele>
        <time>2021-02-20T11:21:38Z</time>
      </trkpt>
      <trkpt lat="45.16504" lon="5.93448">
        <ele>2230.8</ele>
        <time>2021-02-20T11:21:39Z</time>
      </trkpt>
      <trkpt lat="45.16504" lon="5.93448">
        <ele>2230.8</ele>
        <time>2021-02-20T11:21:40Z</time>
      </trkpt>
      <trkpt lat="45.16504" lon="5.93447">
        <ele>2230.8</ele>
        <time>2021-02-20T11:21:41Z</time>
      </trkpt>
      <trkpt lat="45.16503" lon="5.93447">
        <ele>2231.2</ele>
        <time>2021-02-20T11:21:42Z</time>
      </trkpt>
      <trkpt lat="45.16503" lon="5.93446">
        <ele>2231.2</ele>
        <time>2021-02-20T11:21:43Z</time>
      </trkpt>
      <trkpt lat="45.16503" lon="5.93446">
        <ele>2231.3</ele>
        <time>2021-02-20T11:21:44Z</time>
      </trkpt>
      <trkpt lat="45.16502" lon="5.93445">
        <ele>2231.3</ele>
        <time>2021-02-20T11:21:45Z</time>
      </trkpt>
      <trkpt lat="45.16502" lon="5.93445">
        <ele>2231.3</ele>
        <time>2021-02-20T11:21:46Z</time>
      </trkpt>
      <trkpt lat="45.16502" lon="5.93445">
        <ele>2231.3</ele>
        <time>2021-02-20T11:21:47Z</time>
      </trkpt>
      <trkpt lat="45.16502" lon="5.93444">
        <ele>2231.3</ele>
        <time>2021-02-20T11:21:48Z</time>
      </trkpt>
      <trkpt lat="45.16501" lon="5.93443">
        <ele>2231.3</ele>
        <time>2021-02-20T11:21:49Z</time>
      </trkpt>
      <trkpt lat="45.16501" lon="5.93443">
        <ele>2231.3</ele>
        <time>2021-02-20T11:21:50Z</time>
      </trkpt>
      <trkpt lat="45.16501" lon="5.93442">
        <ele>2231.3</ele>
        <time>2021-02-20T11:21:51Z</time>
      </trkpt>
      <trkpt lat="45.165" lon="5.93442">
        <ele>2231.7</ele>
        <time>2021-02-20T11:21:52Z</time>
      </trkpt>
      <trkpt lat="45.165" lon="5.93441">
        <ele>2231.7</ele>
        <time>2021-02-20T11:21:53Z</time>
      </trkpt>
      <trkpt lat="45.16499" lon="5.93441">
        <ele>2231.7</ele>
        <time>2021-02-20T11:21:54Z</time>
      </trkpt>
      <trkpt lat="45.16499" lon="5.9344">
        <ele>2231.7</ele>
        <time>2021-02-20T11:21:55Z</time>
      </trkpt>
      <trkpt lat="45.16498" lon="5.93439">
        <ele>2231.7</ele>
        <time>2021-02-20T11:21:56Z</time>
      </trkpt>
      <trkpt lat="45.16497" lon="5.93439">
        <ele>2232.1</ele>
        <time>2021-02-20T11:21:57Z</time>
      </trkpt>
      <trkpt lat="45.16497" lon="5.93438">
        <ele>2232.1</ele>
        <time>2021-02-20T11:21:58Z</time>
      </trkpt>
      <trkpt lat="45.16496" lon="5.93437">
        <ele>2232.1</ele>
        <time>2021-02-20T11:21:59Z</time>
      </trkpt>
      <trkpt lat="45.16495" lon="5.93436">
        <ele>2232.1</ele>
        <time>2021-02-20T11:22:00Z</time>
      </trkpt>
      <trkpt lat="45.16495" lon="5.93435">
        <ele>2232.1</ele>
        <time>2021-02-20T11:22:01Z</time>
      </trkpt>
      <trkpt lat="45.16494" lon="5.93435">
        <ele>2232.5</ele>
        <time>2021-02-20T11:22:02Z</time>
      </trkpt>
      <trkpt lat="45.16494" lon="5.93434">
        <ele>2232.5</ele>
        <time>2021-02-20T11:22:03Z</time>
      </trkpt>
      <trkpt lat="45.16493" lon="5.93433">
        <ele>2232.4</ele>
        <time>2021-02-20T11:22:04Z</time>
      </trkpt>
      <trkpt lat="45.16493" lon="5.93433">
        <ele>2232.4</ele>
        <time>2021-02-20T11:22:05Z</time>
      </trkpt>
      <trkpt lat="45.16492" lon="5.93432">
        <ele>2232.4</ele>
        <time>2021-02-20T11:22:06Z</time>
      </trkpt>
      <trkpt lat="45.16492" lon="5.93431">
        <ele>2232.4</ele>
        <time>2021-02-20T11:22:07Z</time>
      </trkpt>
      <trkpt lat="45.16492" lon="5.9343">
        <ele>2232.4</ele>
        <time>2021-02-20T11:22:08Z</time>
      </trkpt>
      <trkpt lat="45.16491" lon="5.9343">
        <ele>2232.7</ele>
        <time>2021-02-20T11:22:09Z</time>
      </trkpt>
      <trkpt lat="45.16491" lon="5.93429">
        <ele>2232.7</ele>
        <time>2021-02-20T11:22:10Z</time>
      </trkpt>
      <trkpt lat="45.1649" lon="5.93428">
        <ele>2232.7</ele>
        <time>2021-02-20T11:22:11Z</time>
      </trkpt>
      <trkpt lat="45.1649" lon="5.93427">
        <ele>2232.7</ele>
        <time>2021-02-20T11:22:12Z</time>
      </trkpt>
      <trkpt lat="45.16489" lon="5.93426">
        <ele>2232.7</ele>
        <time>2021-02-20T11:22:13Z</time>
      </trkpt>
      <trkpt lat="45.16489" lon="5.93426">
        <ele>2232.7</ele>
        <time>2021-02-20T11:22:14Z</time>
      </trkpt>
      <trkpt lat="45.16488" lon="5.93425">
        <ele>2232.7</ele>
        <time>2021-02-20T11:22:15Z</time>
      </trkpt>
      <trkpt lat="45.16488" lon="5.93424">
        <ele>2232.9</ele>
        <time>2021-02-20T11:22:16Z</time>
      </trkpt>
      <trkpt lat="45.16488" lon="5.93424">
        <ele>2232.9</ele>
        <time>2021-02-20T11:22:17Z</time>
      </trkpt>
      <trkpt lat="45.16487" lon="5.93423">
        <ele>2232.9</ele>
        <time>2021-02-20T11:22:18Z</time>
      </trkpt>
      <trkpt lat="45.16487" lon="5.93423">
        <ele>2232.9</ele>
        <time>2021-02-20T11:22:19Z</time>
      </trkpt>
      <trkpt lat="45.16487" lon="5.93422">
        <ele>2232.9</ele>
        <time>2021-02-20T11:22:20Z</time>
      </trkpt>
      <trkpt lat="45.16486" lon="5.93421">
        <ele>2232.9</ele>
        <time>2021-02-20T11:22:21Z</time>
      </trkpt>
      <trkpt lat="45.16486" lon="5.9342">
        <ele>2233</ele>
        <time>2021-02-20T11:22:22Z</time>
      </trkpt>
      <trkpt lat="45.16486" lon="5.9342">
        <ele>2233</ele>
        <time>2021-02-20T11:22:23Z</time>
      </trkpt>
      <trkpt lat="45.16485" lon="5.93419">
        <ele>2233.3</ele>
        <time>2021-02-20T11:22:24Z</time>
      </trkpt>
      <trkpt lat="45.16485" lon="5.93419">
        <ele>2233.3</ele>
        <time>2021-02-20T11:22:25Z</time>
      </trkpt>
      <trkpt lat="45.16484" lon="5.93418">
        <ele>2233.3</ele>
        <time>2021-02-20T11:22:26Z</time>
      </trkpt>
      <trkpt lat="45.16484" lon="5.93417">
        <ele>2233.3</ele>
        <time>2021-02-20T11:22:27Z</time>
      </trkpt>
      <trkpt lat="45.16483" lon="5.93416">
        <ele>2233.3</ele>
        <time>2021-02-20T11:22:28Z</time>
      </trkpt>
      <trkpt lat="45.16483" lon="5.93416">
        <ele>2233.4</ele>
        <time>2021-02-20T11:22:29Z</time>
      </trkpt>
      <trkpt lat="45.16482" lon="5.93415">
        <ele>2233.7</ele>
        <time>2021-02-20T11:22:30Z</time>
      </trkpt>
      <trkpt lat="45.16481" lon="5.93414">
        <ele>2233.7</ele>
        <time>2021-02-20T11:22:31Z</time>
      </trkpt>
      <trkpt lat="45.1648" lon="5.93414">
        <ele>2233.7</ele>
        <time>2021-02-20T11:22:32Z</time>
      </trkpt>
      <trkpt lat="45.1648" lon="5.93413">
        <ele>2233.7</ele>
        <time>2021-02-20T11:22:33Z</time>
      </trkpt>
      <trkpt lat="45.16479" lon="5.93413">
        <ele>2234.1</ele>
        <time>2021-02-20T11:22:34Z</time>
      </trkpt>
      <trkpt lat="45.16478" lon="5.93412">
        <ele>2234.1</ele>
        <time>2021-02-20T11:22:35Z</time>
      </trkpt>
      <trkpt lat="45.16478" lon="5.93411">
        <ele>2234.2</ele>
        <time>2021-02-20T11:22:36Z</time>
      </trkpt>
      <trkpt lat="45.16477" lon="5.93411">
        <ele>2234.2</ele>
        <time>2021-02-20T11:22:37Z</time>
      </trkpt>
      <trkpt lat="45.16476" lon="5.9341">
        <ele>2234.2</ele>
        <time>2021-02-20T11:22:38Z</time>
      </trkpt>
      <trkpt lat="45.16476" lon="5.93409">
        <ele>2234.7</ele>
        <time>2021-02-20T11:22:39Z</time>
      </trkpt>
      <trkpt lat="45.16475" lon="5.93409">
        <ele>2234.7</ele>
        <time>2021-02-20T11:22:40Z</time>
      </trkpt>
      <trkpt lat="45.16475" lon="5.93408">
        <ele>2234.7</ele>
        <time>2021-02-20T11:22:41Z</time>
      </trkpt>
      <trkpt lat="45.16474" lon="5.93407">
        <ele>2234.8</ele>
        <time>2021-02-20T11:22:42Z</time>
      </trkpt>
      <trkpt lat="45.16473" lon="5.93405">
        <ele>2234.8</ele>
        <time>2021-02-20T11:22:43Z</time>
      </trkpt>
      <trkpt lat="45.16473" lon="5.93404">
        <ele>2235.2</ele>
        <time>2021-02-20T11:22:44Z</time>
      </trkpt>
      <trkpt lat="45.16473" lon="5.93403">
        <ele>2235.4</ele>
        <time>2021-02-20T11:22:45Z</time>
      </trkpt>
      <trkpt lat="45.16472" lon="5.93403">
        <ele>2235.4</ele>
        <time>2021-02-20T11:22:46Z</time>
      </trkpt>
      <trkpt lat="45.16472" lon="5.93401">
        <ele>2235.4</ele>
        <time>2021-02-20T11:22:47Z</time>
      </trkpt>
      <trkpt lat="45.16471" lon="5.93399">
        <ele>2235.4</ele>
        <time>2021-02-20T11:22:48Z</time>
      </trkpt>
      <trkpt lat="45.16471" lon="5.93398">
        <ele>2235.5</ele>
        <time>2021-02-20T11:22:49Z</time>
      </trkpt>
      <trkpt lat="45.16471" lon="5.93397">
        <ele>2235.5</ele>
        <time>2021-02-20T11:22:50Z</time>
      </trkpt>
      <trkpt lat="45.1647" lon="5.93396">
        <ele>2235.5</ele>
        <time>2021-02-20T11:22:51Z</time>
      </trkpt>
      <trkpt lat="45.1647" lon="5.93395">
        <ele>2235.9</ele>
        <time>2021-02-20T11:22:52Z</time>
      </trkpt>
      <trkpt lat="45.16469" lon="5.93393">
        <ele>2235.9</ele>
        <time>2021-02-20T11:22:53Z</time>
      </trkpt>
      <trkpt lat="45.16469" lon="5.93393">
        <ele>2235.9</ele>
        <time>2021-02-20T11:22:54Z</time>
      </trkpt>
      <trkpt lat="45.16468" lon="5.93392">
        <ele>2235.9</ele>
        <time>2021-02-20T11:22:55Z</time>
      </trkpt>
      <trkpt lat="45.16467" lon="5.93391">
        <ele>2235.9</ele>
        <time>2021-02-20T11:22:56Z</time>
      </trkpt>
      <trkpt lat="45.16467" lon="5.9339">
        <ele>2236.3</ele>
        <time>2021-02-20T11:22:57Z</time>
      </trkpt>
      <trkpt lat="45.16466" lon="5.93389">
        <ele>2236.3</ele>
        <time>2021-02-20T11:22:58Z</time>
      </trkpt>
      <trkpt lat="45.16465" lon="5.93388">
        <ele>2236.3</ele>
        <time>2021-02-20T11:22:59Z</time>
      </trkpt>
      <trkpt lat="45.16465" lon="5.93387">
        <ele>2236.3</ele>
        <time>2021-02-20T11:23:00Z</time>
      </trkpt>
      <trkpt lat="45.16464" lon="5.93386">
        <ele>2236.3</ele>
        <time>2021-02-20T11:23:01Z</time>
      </trkpt>
      <trkpt lat="45.16464" lon="5.93385">
        <ele>2236.5</ele>
        <time>2021-02-20T11:23:02Z</time>
      </trkpt>
      <trkpt lat="45.16463" lon="5.93384">
        <ele>2236.5</ele>
        <time>2021-02-20T11:23:03Z</time>
      </trkpt>
      <trkpt lat="45.16463" lon="5.93383">
        <ele>2236.5</ele>
        <time>2021-02-20T11:23:04Z</time>
      </trkpt>
      <trkpt lat="45.16462" lon="5.93382">
        <ele>2236.5</ele>
        <time>2021-02-20T11:23:05Z</time>
      </trkpt>
      <trkpt lat="45.16461" lon="5.93382">
        <ele>2236.6</ele>
        <time>2021-02-20T11:23:06Z</time>
      </trkpt>
      <trkpt lat="45.16461" lon="5.93381">
        <ele>2236.8</ele>
        <time>2021-02-20T11:23:07Z</time>
      </trkpt>
      <trkpt lat="45.1646" lon="5.9338">
        <ele>2236.8</ele>
        <time>2021-02-20T11:23:08Z</time>
      </trkpt>
      <trkpt lat="45.1646" lon="5.93379">
        <ele>2236.8</ele>
        <time>2021-02-20T11:23:09Z</time>
      </trkpt>
      <trkpt lat="45.16459" lon="5.93377">
        <ele>2236.9</ele>
        <time>2021-02-20T11:23:10Z</time>
      </trkpt>
      <trkpt lat="45.16458" lon="5.93376">
        <ele>2236.9</ele>
        <time>2021-02-20T11:23:11Z</time>
      </trkpt>
      <trkpt lat="45.16458" lon="5.93375">
        <ele>2237</ele>
        <time>2021-02-20T11:23:12Z</time>
      </trkpt>
      <trkpt lat="45.16457" lon="5.93374">
        <ele>2237</ele>
        <time>2021-02-20T11:23:13Z</time>
      </trkpt>
      <trkpt lat="45.16457" lon="5.93374">
        <ele>2237</ele>
        <time>2021-02-20T11:23:14Z</time>
      </trkpt>
      <trkpt lat="45.16457" lon="5.93374">
        <ele>2237</ele>
        <time>2021-02-20T11:23:15Z</time>
      </trkpt>
      <trkpt lat="45.16457" lon="5.93374">
        <ele>2237</ele>
        <time>2021-02-20T11:23:16Z</time>
      </trkpt>
      <trkpt lat="45.16457" lon="5.93374">
        <ele>2237</ele>
        <time>2021-02-20T11:23:17Z</time>
      </trkpt>
      <trkpt lat="45.16457" lon="5.93374">
        <ele>2237</ele>
        <time>2021-02-20T11:23:18Z</time>
      </trkpt>
      <trkpt lat="45.16457" lon="5.93374">
        <ele>2237</ele>
        <time>2021-02-20T11:23:19Z</time>
      </trkpt>
      <trkpt lat="45.16457" lon="5.93374">
        <ele>2237</ele>
        <time>2021-02-20T11:23:20Z</time>
      </trkpt>
      <trkpt lat="45.16457" lon="5.93374">
        <ele>2237</ele>
        <time>2021-02-20T11:23:21Z</time>
      </trkpt>
      <trkpt lat="45.16457" lon="5.93374">
        <ele>2237</ele>
        <time>2021-02-20T11:23:22Z</time>
      </trkpt>
      <trkpt lat="45.16455" lon="5.93373">
        <ele>2237.2</ele>
        <time>2021-02-20T11:23:23Z</time>
      </trkpt>
      <trkpt lat="45.16455" lon="5.93372">
        <ele>2237.5</ele>
        <time>2021-02-20T11:23:24Z</time>
      </trkpt>
      <trkpt lat="45.16454" lon="5.93371">
        <ele>2237.5</ele>
        <time>2021-02-20T11:23:25Z</time>
      </trkpt>
      <trkpt lat="45.16454" lon="5.9337">
        <ele>2237.5</ele>
        <time>2021-02-20T11:23:26Z</time>
      </trkpt>
      <trkpt lat="45.16453" lon="5.93369">
        <ele>2237.5</ele>
        <time>2021-02-20T11:23:27Z</time>
      </trkpt>
      <trkpt lat="45.16453" lon="5.93368">
        <ele>2237.7</ele>
        <time>2021-02-20T11:23:28Z</time>
      </trkpt>
      <trkpt lat="45.16452" lon="5.93367">
        <ele>2237.7</ele>
        <time>2021-02-20T11:23:29Z</time>
      </trkpt>
      <trkpt lat="45.16452" lon="5.93366">
        <ele>2238.1</ele>
        <time>2021-02-20T11:23:30Z</time>
      </trkpt>
      <trkpt lat="45.16451" lon="5.93365">
        <ele>2238.1</ele>
        <time>2021-02-20T11:23:31Z</time>
      </trkpt>
      <trkpt lat="45.16451" lon="5.93364">
        <ele>2238.3</ele>
        <time>2021-02-20T11:23:32Z</time>
      </trkpt>
      <trkpt lat="45.16451" lon="5.93363">
        <ele>2238.3</ele>
        <time>2021-02-20T11:23:33Z</time>
      </trkpt>
      <trkpt lat="45.16451" lon="5.93362">
        <ele>2238.3</ele>
        <time>2021-02-20T11:23:34Z</time>
      </trkpt>
      <trkpt lat="45.16451" lon="5.93361">
        <ele>2238.3</ele>
        <time>2021-02-20T11:23:35Z</time>
      </trkpt>
      <trkpt lat="45.1645" lon="5.9336">
        <ele>2238.7</ele>
        <time>2021-02-20T11:23:36Z</time>
      </trkpt>
      <trkpt lat="45.1645" lon="5.93358">
        <ele>2238.7</ele>
        <time>2021-02-20T11:23:37Z</time>
      </trkpt>
      <trkpt lat="45.16449" lon="5.93357">
        <ele>2238.7</ele>
        <time>2021-02-20T11:23:38Z</time>
      </trkpt>
      <trkpt lat="45.16449" lon="5.93356">
        <ele>2239.5</ele>
        <time>2021-02-20T11:23:39Z</time>
      </trkpt>
      <trkpt lat="45.16448" lon="5.93354">
        <ele>2239.5</ele>
        <time>2021-02-20T11:23:40Z</time>
      </trkpt>
      <trkpt lat="45.16448" lon="5.93353">
        <ele>2239.5</ele>
        <time>2021-02-20T11:23:41Z</time>
      </trkpt>
      <trkpt lat="45.16448" lon="5.93352">
        <ele>2240</ele>
        <time>2021-02-20T11:23:42Z</time>
      </trkpt>
      <trkpt lat="45.16447" lon="5.9335">
        <ele>2240</ele>
        <time>2021-02-20T11:23:43Z</time>
      </trkpt>
      <trkpt lat="45.16447" lon="5.93349">
        <ele>2240</ele>
        <time>2021-02-20T11:23:44Z</time>
      </trkpt>
      <trkpt lat="45.16446" lon="5.93348">
        <ele>2240</ele>
        <time>2021-02-20T11:23:45Z</time>
      </trkpt>
      <trkpt lat="45.16446" lon="5.93347">
        <ele>2241</ele>
        <time>2021-02-20T11:23:46Z</time>
      </trkpt>
      <trkpt lat="45.16445" lon="5.93346">
        <ele>2241</ele>
        <time>2021-02-20T11:23:47Z</time>
      </trkpt>
      <trkpt lat="45.16445" lon="5.93344">
        <ele>2241</ele>
        <time>2021-02-20T11:23:48Z</time>
      </trkpt>
      <trkpt lat="45.16444" lon="5.93343">
        <ele>2241</ele>
        <time>2021-02-20T11:23:49Z</time>
      </trkpt>
      <trkpt lat="45.16444" lon="5.93342">
        <ele>2241.7</ele>
        <time>2021-02-20T11:23:50Z</time>
      </trkpt>
      <trkpt lat="45.16443" lon="5.93342">
        <ele>2242.3</ele>
        <time>2021-02-20T11:23:51Z</time>
      </trkpt>
      <trkpt lat="45.16442" lon="5.93341">
        <ele>2242.3</ele>
        <time>2021-02-20T11:23:52Z</time>
      </trkpt>
      <trkpt lat="45.16441" lon="5.93341">
        <ele>2242.3</ele>
        <time>2021-02-20T11:23:53Z</time>
      </trkpt>
      <trkpt lat="45.16441" lon="5.93341">
        <ele>2242.3</ele>
        <time>2021-02-20T11:23:54Z</time>
      </trkpt>
      <trkpt lat="45.1644" lon="5.93341">
        <ele>2242.9</ele>
        <time>2021-02-20T11:23:55Z</time>
      </trkpt>
      <trkpt lat="45.16439" lon="5.93341">
        <ele>2242.9</ele>
        <time>2021-02-20T11:23:56Z</time>
      </trkpt>
      <trkpt lat="45.16438" lon="5.93342">
        <ele>2242.9</ele>
        <time>2021-02-20T11:23:57Z</time>
      </trkpt>
      <trkpt lat="45.16438" lon="5.93342">
        <ele>2242.9</ele>
        <time>2021-02-20T11:23:58Z</time>
      </trkpt>
      <trkpt lat="45.16438" lon="5.93342">
        <ele>2242.9</ele>
        <time>2021-02-20T11:23:59Z</time>
      </trkpt>
      <trkpt lat="45.16438" lon="5.93341">
        <ele>2242.9</ele>
        <time>2021-02-20T11:24:00Z</time>
      </trkpt>
      <trkpt lat="45.16437" lon="5.9334">
        <ele>2242.9</ele>
        <time>2021-02-20T11:24:01Z</time>
      </trkpt>
      <trkpt lat="45.16437" lon="5.93339">
        <ele>2243.7</ele>
        <time>2021-02-20T11:24:02Z</time>
      </trkpt>
      <trkpt lat="45.16436" lon="5.93338">
        <ele>2244.4</ele>
        <time>2021-02-20T11:24:03Z</time>
      </trkpt>
      <trkpt lat="45.16436" lon="5.93337">
        <ele>2244.4</ele>
        <time>2021-02-20T11:24:04Z</time>
      </trkpt>
      <trkpt lat="45.16436" lon="5.93336">
        <ele>2244.4</ele>
        <time>2021-02-20T11:24:05Z</time>
      </trkpt>
      <trkpt lat="45.16435" lon="5.93335">
        <ele>2244.4</ele>
        <time>2021-02-20T11:24:06Z</time>
      </trkpt>
      <trkpt lat="45.16434" lon="5.93335">
        <ele>2245.3</ele>
        <time>2021-02-20T11:24:07Z</time>
      </trkpt>
      <trkpt lat="45.16434" lon="5.93335">
        <ele>2246</ele>
        <time>2021-02-20T11:24:08Z</time>
      </trkpt>
      <trkpt lat="45.16433" lon="5.93335">
        <ele>2246</ele>
        <time>2021-02-20T11:24:09Z</time>
      </trkpt>
      <trkpt lat="45.16432" lon="5.93335">
        <ele>2245.1</ele>
        <time>2021-02-20T11:24:10Z</time>
      </trkpt>
      <trkpt lat="45.16432" lon="5.93335">
        <ele>2245.1</ele>
        <time>2021-02-20T11:24:11Z</time>
      </trkpt>
      <trkpt lat="45.16431" lon="5.93335">
        <ele>2245.1</ele>
        <time>2021-02-20T11:24:12Z</time>
      </trkpt>
      <trkpt lat="45.16431" lon="5.93335">
        <ele>2245.9</ele>
        <time>2021-02-20T11:24:13Z</time>
      </trkpt>
      <trkpt lat="45.1643" lon="5.93335">
        <ele>2245.9</ele>
        <time>2021-02-20T11:24:14Z</time>
      </trkpt>
      <trkpt lat="45.1643" lon="5.93335">
        <ele>2245.9</ele>
        <time>2021-02-20T11:24:15Z</time>
      </trkpt>
      <trkpt lat="45.1643" lon="5.93334">
        <ele>2246.8</ele>
        <time>2021-02-20T11:24:16Z</time>
      </trkpt>
      <trkpt lat="45.16429" lon="5.93333">
        <ele>2246.8</ele>
        <time>2021-02-20T11:24:17Z</time>
      </trkpt>
      <trkpt lat="45.16429" lon="5.93332">
        <ele>2246.8</ele>
        <time>2021-02-20T11:24:18Z</time>
      </trkpt>
      <trkpt lat="45.16429" lon="5.93331">
        <ele>2246.8</ele>
        <time>2021-02-20T11:24:19Z</time>
      </trkpt>
      <trkpt lat="45.16428" lon="5.93331">
        <ele>2246.8</ele>
        <time>2021-02-20T11:24:20Z</time>
      </trkpt>
      <trkpt lat="45.16428" lon="5.9333">
        <ele>2248.6</ele>
        <time>2021-02-20T11:24:21Z</time>
      </trkpt>
      <trkpt lat="45.16427" lon="5.93329">
        <ele>2248.6</ele>
        <time>2021-02-20T11:24:22Z</time>
      </trkpt>
      <trkpt lat="45.16427" lon="5.93328">
        <ele>2248.6</ele>
        <time>2021-02-20T11:24:23Z</time>
      </trkpt>
      <trkpt lat="45.16427" lon="5.93328">
        <ele>2248.6</ele>
        <time>2021-02-20T11:24:24Z</time>
      </trkpt>
      <trkpt lat="45.16427" lon="5.93328">
        <ele>2248.6</ele>
        <time>2021-02-20T11:24:25Z</time>
      </trkpt>
      <trkpt lat="45.16426" lon="5.93328">
        <ele>2248.6</ele>
        <time>2021-02-20T11:24:26Z</time>
      </trkpt>
      <trkpt lat="45.16425" lon="5.93328">
        <ele>2248.6</ele>
        <time>2021-02-20T11:24:27Z</time>
      </trkpt>
      <trkpt lat="45.16425" lon="5.93327">
        <ele>2248.6</ele>
        <time>2021-02-20T11:24:28Z</time>
      </trkpt>
      <trkpt lat="45.16425" lon="5.93327">
        <ele>2248.6</ele>
        <time>2021-02-20T11:24:29Z</time>
      </trkpt>
      <trkpt lat="45.16425" lon="5.93326">
        <ele>2248.6</ele>
        <time>2021-02-20T11:24:30Z</time>
      </trkpt>
      <trkpt lat="45.16424" lon="5.93325">
        <ele>2250.5</ele>
        <time>2021-02-20T11:24:31Z</time>
      </trkpt>
      <trkpt lat="45.16424" lon="5.93325">
        <ele>2250.5</ele>
        <time>2021-02-20T11:24:32Z</time>
      </trkpt>
      <trkpt lat="45.16424" lon="5.93324">
        <ele>2250.5</ele>
        <time>2021-02-20T11:24:33Z</time>
      </trkpt>
      <trkpt lat="45.16423" lon="5.93323">
        <ele>2250.5</ele>
        <time>2021-02-20T11:24:34Z</time>
      </trkpt>
      <trkpt lat="45.16423" lon="5.93322">
        <ele>2250.5</ele>
        <time>2021-02-20T11:24:35Z</time>
      </trkpt>
      <trkpt lat="45.16422" lon="5.93322">
        <ele>2251.7</ele>
        <time>2021-02-20T11:24:36Z</time>
      </trkpt>
      <trkpt lat="45.16422" lon="5.93321">
        <ele>2252.5</ele>
        <time>2021-02-20T11:24:37Z</time>
      </trkpt>
      <trkpt lat="45.16421" lon="5.9332">
        <ele>2252.5</ele>
        <time>2021-02-20T11:24:38Z</time>
      </trkpt>
      <trkpt lat="45.1642" lon="5.9332">
        <ele>2252.5</ele>
        <time>2021-02-20T11:24:39Z</time>
      </trkpt>
      <trkpt lat="45.1642" lon="5.93319">
        <ele>2252.5</ele>
        <time>2021-02-20T11:24:40Z</time>
      </trkpt>
      <trkpt lat="45.16419" lon="5.93319">
        <ele>2253.5</ele>
        <time>2021-02-20T11:24:41Z</time>
      </trkpt>
      <trkpt lat="45.16418" lon="5.93317">
        <ele>2254.6</ele>
        <time>2021-02-20T11:24:42Z</time>
      </trkpt>
      <trkpt lat="45.16417" lon="5.93317">
        <ele>2254.6</ele>
        <time>2021-02-20T11:24:43Z</time>
      </trkpt>
      <trkpt lat="45.16417" lon="5.93317">
        <ele>2254.6</ele>
        <time>2021-02-20T11:24:44Z</time>
      </trkpt>
      <trkpt lat="45.16417" lon="5.93316">
        <ele>2254.6</ele>
        <time>2021-02-20T11:24:45Z</time>
      </trkpt>
      <trkpt lat="45.16416" lon="5.93316">
        <ele>2254.6</ele>
        <time>2021-02-20T11:24:46Z</time>
      </trkpt>
      <trkpt lat="45.16416" lon="5.93316">
        <ele>2254.6</ele>
        <time>2021-02-20T11:24:47Z</time>
      </trkpt>
      <trkpt lat="45.16416" lon="5.93315">
        <ele>2255.5</ele>
        <time>2021-02-20T11:24:48Z</time>
      </trkpt>
      <trkpt lat="45.16415" lon="5.93315">
        <ele>2255.5</ele>
        <time>2021-02-20T11:24:49Z</time>
      </trkpt>
      <trkpt lat="45.16415" lon="5.93314">
        <ele>2255.5</ele>
        <time>2021-02-20T11:24:50Z</time>
      </trkpt>
      <trkpt lat="45.16414" lon="5.93314">
        <ele>2255.5</ele>
        <time>2021-02-20T11:24:51Z</time>
      </trkpt>
      <trkpt lat="45.16414" lon="5.93314">
        <ele>2255.5</ele>
        <time>2021-02-20T11:24:52Z</time>
      </trkpt>
      <trkpt lat="45.16414" lon="5.93313">
        <ele>2256.6</ele>
        <time>2021-02-20T11:24:53Z</time>
      </trkpt>
      <trkpt lat="45.16413" lon="5.93313">
        <ele>2256.6</ele>
        <time>2021-02-20T11:24:54Z</time>
      </trkpt>
      <trkpt lat="45.16413" lon="5.93312">
        <ele>2256.6</ele>
        <time>2021-02-20T11:24:55Z</time>
      </trkpt>
      <trkpt lat="45.16413" lon="5.93312">
        <ele>2257.6</ele>
        <time>2021-02-20T11:25:13Z</time>
      </trkpt>
      <trkpt lat="45.16412" lon="5.93312">
        <ele>2257.6</ele>
        <time>2021-02-20T11:25:14Z</time>
      </trkpt>
      <trkpt lat="45.16412" lon="5.93311">
        <ele>2257.6</ele>
        <time>2021-02-20T11:25:15Z</time>
      </trkpt>
      <trkpt lat="45.16412" lon="5.93311">
        <ele>2257.6</ele>
        <time>2021-02-20T11:25:16Z</time>
      </trkpt>
      <trkpt lat="45.16411" lon="5.9331">
        <ele>2257.6</ele>
        <time>2021-02-20T11:25:17Z</time>
      </trkpt>
      <trkpt lat="45.16411" lon="5.93309">
        <ele>2258.7</ele>
        <time>2021-02-20T11:25:18Z</time>
      </trkpt>
      <trkpt lat="45.1641" lon="5.93307">
        <ele>2258.7</ele>
        <time>2021-02-20T11:25:19Z</time>
      </trkpt>
      <trkpt lat="45.1641" lon="5.93306">
        <ele>2258.7</ele>
        <time>2021-02-20T11:25:20Z</time>
      </trkpt>
      <trkpt lat="45.16409" lon="5.93305">
        <ele>2259.6</ele>
        <time>2021-02-20T11:25:21Z</time>
      </trkpt>
      <trkpt lat="45.16409" lon="5.93304">
        <ele>2260.8</ele>
        <time>2021-02-20T11:25:22Z</time>
      </trkpt>
      <trkpt lat="45.16409" lon="5.93302">
        <ele>2260.8</ele>
        <time>2021-02-20T11:25:23Z</time>
      </trkpt>
      <trkpt lat="45.16409" lon="5.93301">
        <ele>2260.8</ele>
        <time>2021-02-20T11:25:24Z</time>
      </trkpt>
      <trkpt lat="45.16409" lon="5.933">
        <ele>2262</ele>
        <time>2021-02-20T11:25:25Z</time>
      </trkpt>
      <trkpt lat="45.16409" lon="5.93299">
        <ele>2262</ele>
        <time>2021-02-20T11:25:26Z</time>
      </trkpt>
      <trkpt lat="45.16409" lon="5.93297">
        <ele>2262</ele>
        <time>2021-02-20T11:25:27Z</time>
      </trkpt>
      <trkpt lat="45.16409" lon="5.93295">
        <ele>2263.3</ele>
        <time>2021-02-20T11:25:28Z</time>
      </trkpt>
      <trkpt lat="45.16409" lon="5.93294">
        <ele>2263.3</ele>
        <time>2021-02-20T11:25:29Z</time>
      </trkpt>
      <trkpt lat="45.16409" lon="5.93292">
        <ele>2263.3</ele>
        <time>2021-02-20T11:25:30Z</time>
      </trkpt>
      <trkpt lat="45.16408" lon="5.93291">
        <ele>2264.7</ele>
        <time>2021-02-20T11:25:31Z</time>
      </trkpt>
      <trkpt lat="45.16408" lon="5.93291">
        <ele>2264.7</ele>
        <time>2021-02-20T11:25:32Z</time>
      </trkpt>
      <trkpt lat="45.16408" lon="5.93291">
        <ele>2264.7</ele>
        <time>2021-02-20T11:25:33Z</time>
      </trkpt>
      <trkpt lat="45.16407" lon="5.9329">
        <ele>2264.7</ele>
        <time>2021-02-20T11:25:34Z</time>
      </trkpt>
      <trkpt lat="45.16407" lon="5.93289">
        <ele>2264.7</ele>
        <time>2021-02-20T11:25:35Z</time>
      </trkpt>
      <trkpt lat="45.16406" lon="5.93287">
        <ele>2266.8</ele>
        <time>2021-02-20T11:25:36Z</time>
      </trkpt>
      <trkpt lat="45.16405" lon="5.93286">
        <ele>2266.8</ele>
        <time>2021-02-20T11:25:37Z</time>
      </trkpt>
      <trkpt lat="45.16405" lon="5.93285">
        <ele>2266.7</ele>
        <time>2021-02-20T11:25:38Z</time>
      </trkpt>
      <trkpt lat="45.16404" lon="5.93284">
        <ele>2266.7</ele>
        <time>2021-02-20T11:25:39Z</time>
      </trkpt>
      <trkpt lat="45.16404" lon="5.93283">
        <ele>2268</ele>
        <time>2021-02-20T11:25:40Z</time>
      </trkpt>
      <trkpt lat="45.16404" lon="5.93282">
        <ele>2268</ele>
        <time>2021-02-20T11:25:41Z</time>
      </trkpt>
      <trkpt lat="45.16403" lon="5.93281">
        <ele>2268.6</ele>
        <time>2021-02-20T11:25:42Z</time>
      </trkpt>
      <trkpt lat="45.16403" lon="5.9328">
        <ele>2268.6</ele>
        <time>2021-02-20T11:25:43Z</time>
      </trkpt>
      <trkpt lat="45.16403" lon="5.93279">
        <ele>2269.9</ele>
        <time>2021-02-20T11:25:44Z</time>
      </trkpt>
      <trkpt lat="45.16402" lon="5.93278">
        <ele>2269.9</ele>
        <time>2021-02-20T11:25:45Z</time>
      </trkpt>
      <trkpt lat="45.16402" lon="5.93277">
        <ele>2269.8</ele>
        <time>2021-02-20T11:25:46Z</time>
      </trkpt>
      <trkpt lat="45.16402" lon="5.93276">
        <ele>2269.7</ele>
        <time>2021-02-20T11:25:47Z</time>
      </trkpt>
      <trkpt lat="45.16402" lon="5.93275">
        <ele>2269.6</ele>
        <time>2021-02-20T11:25:48Z</time>
      </trkpt>
      <trkpt lat="45.16402" lon="5.93275">
        <ele>2269.5</ele>
        <time>2021-02-20T11:25:49Z</time>
      </trkpt>
      <trkpt lat="45.16403" lon="5.93274">
        <ele>2270.8</ele>
        <time>2021-02-20T11:25:50Z</time>
      </trkpt>
      <trkpt lat="45.16404" lon="5.93274">
        <ele>2270.1</ele>
        <time>2021-02-20T11:25:51Z</time>
      </trkpt>
      <trkpt lat="45.16405" lon="5.93274">
        <ele>2270.1</ele>
        <time>2021-02-20T11:25:52Z</time>
      </trkpt>
      <trkpt lat="45.16405" lon="5.93274">
        <ele>2270</ele>
        <time>2021-02-20T11:25:53Z</time>
      </trkpt>
      <trkpt lat="45.16406" lon="5.93274">
        <ele>2269.9</ele>
        <time>2021-02-20T11:25:54Z</time>
      </trkpt>
      <trkpt lat="45.16407" lon="5.93273">
        <ele>2269.2</ele>
        <time>2021-02-20T11:25:55Z</time>
      </trkpt>
      <trkpt lat="45.16407" lon="5.93272">
        <ele>2269.2</ele>
        <time>2021-02-20T11:25:56Z</time>
      </trkpt>
      <trkpt lat="45.16408" lon="5.93271">
        <ele>2269.1</ele>
        <time>2021-02-20T11:25:57Z</time>
      </trkpt>
      <trkpt lat="45.16408" lon="5.9327">
        <ele>2270.3</ele>
        <time>2021-02-20T11:25:58Z</time>
      </trkpt>
      <trkpt lat="45.16407" lon="5.93269">
        <ele>2270.3</ele>
        <time>2021-02-20T11:25:59Z</time>
      </trkpt>
      <trkpt lat="45.16407" lon="5.93267">
        <ele>2270.2</ele>
        <time>2021-02-20T11:26:00Z</time>
      </trkpt>
      <trkpt lat="45.16406" lon="5.93267">
        <ele>2270.7</ele>
        <time>2021-02-20T11:26:01Z</time>
      </trkpt>
      <trkpt lat="45.16406" lon="5.93266">
        <ele>2271.8</ele>
        <time>2021-02-20T11:26:02Z</time>
      </trkpt>
      <trkpt lat="45.16405" lon="5.93265">
        <ele>2271.7</ele>
        <time>2021-02-20T11:26:03Z</time>
      </trkpt>
      <trkpt lat="45.16404" lon="5.93264">
        <ele>2271.6</ele>
        <time>2021-02-20T11:26:04Z</time>
      </trkpt>
      <trkpt lat="45.16404" lon="5.93264">
        <ele>2271.5</ele>
        <time>2021-02-20T11:26:05Z</time>
      </trkpt>
      <trkpt lat="45.16403" lon="5.93263">
        <ele>2271.9</ele>
        <time>2021-02-20T11:26:06Z</time>
      </trkpt>
      <trkpt lat="45.16403" lon="5.93262">
        <ele>2271.9</ele>
        <time>2021-02-20T11:26:07Z</time>
      </trkpt>
      <trkpt lat="45.16403" lon="5.93261">
        <ele>2273.4</ele>
        <time>2021-02-20T11:26:08Z</time>
      </trkpt>
      <trkpt lat="45.16403" lon="5.9326">
        <ele>2273.3</ele>
        <time>2021-02-20T11:26:09Z</time>
      </trkpt>
      <trkpt lat="45.16403" lon="5.93259">
        <ele>2273.2</ele>
        <time>2021-02-20T11:26:10Z</time>
      </trkpt>
      <trkpt lat="45.16404" lon="5.93259">
        <ele>2272.7</ele>
        <time>2021-02-20T11:26:11Z</time>
      </trkpt>
      <trkpt lat="45.16404" lon="5.93258">
        <ele>2272.6</ele>
        <time>2021-02-20T11:26:12Z</time>
      </trkpt>
      <trkpt lat="45.16405" lon="5.93259">
        <ele>2272.5</ele>
        <time>2021-02-20T11:26:13Z</time>
      </trkpt>
      <trkpt lat="45.16406" lon="5.93259">
        <ele>2272.4</ele>
        <time>2021-02-20T11:26:14Z</time>
      </trkpt>
      <trkpt lat="45.16407" lon="5.93259">
        <ele>2271.9</ele>
        <time>2021-02-20T11:26:15Z</time>
      </trkpt>
      <trkpt lat="45.16408" lon="5.9326">
        <ele>2271.9</ele>
        <time>2021-02-20T11:26:16Z</time>
      </trkpt>
      <trkpt lat="45.16409" lon="5.9326">
        <ele>2271.8</ele>
        <time>2021-02-20T11:26:17Z</time>
      </trkpt>
      <trkpt lat="45.1641" lon="5.9326">
        <ele>2271.8</ele>
        <time>2021-02-20T11:26:18Z</time>
      </trkpt>
      <trkpt lat="45.1641" lon="5.9326">
        <ele>2271.2</ele>
        <time>2021-02-20T11:26:19Z</time>
      </trkpt>
      <trkpt lat="45.16411" lon="5.93261">
        <ele>2271.2</ele>
        <time>2021-02-20T11:26:20Z</time>
      </trkpt>
      <trkpt lat="45.16412" lon="5.93261">
        <ele>2271.1</ele>
        <time>2021-02-20T11:26:21Z</time>
      </trkpt>
      <trkpt lat="45.16412" lon="5.93261">
        <ele>2271.1</ele>
        <time>2021-02-20T11:26:22Z</time>
      </trkpt>
      <trkpt lat="45.16413" lon="5.93262">
        <ele>2270.6</ele>
        <time>2021-02-20T11:26:23Z</time>
      </trkpt>
      <trkpt lat="45.16414" lon="5.93262">
        <ele>2270.6</ele>
        <time>2021-02-20T11:26:24Z</time>
      </trkpt>
      <trkpt lat="45.16415" lon="5.93262">
        <ele>2270.6</ele>
        <time>2021-02-20T11:26:25Z</time>
      </trkpt>
      <trkpt lat="45.16416" lon="5.93262">
        <ele>2270.5</ele>
        <time>2021-02-20T11:26:26Z</time>
      </trkpt>
      <trkpt lat="45.16416" lon="5.93261">
        <ele>2270</ele>
        <time>2021-02-20T11:26:27Z</time>
      </trkpt>
      <trkpt lat="45.16416" lon="5.93261">
        <ele>2270</ele>
        <time>2021-02-20T11:26:28Z</time>
      </trkpt>
      <trkpt lat="45.16416" lon="5.93261">
        <ele>2269.9</ele>
        <time>2021-02-20T11:26:29Z</time>
      </trkpt>
      <trkpt lat="45.16416" lon="5.93261">
        <ele>2269.9</ele>
        <time>2021-02-20T11:26:30Z</time>
      </trkpt>
      <trkpt lat="45.16417" lon="5.9326">
        <ele>2269.8</ele>
        <time>2021-02-20T11:26:31Z</time>
      </trkpt>
      <trkpt lat="45.16417" lon="5.9326">
        <ele>2269.8</ele>
        <time>2021-02-20T11:26:32Z</time>
      </trkpt>
      <trkpt lat="45.16417" lon="5.9326">
        <ele>2269.7</ele>
        <time>2021-02-20T11:26:33Z</time>
      </trkpt>
      <trkpt lat="45.16417" lon="5.93259">
        <ele>2269.7</ele>
        <time>2021-02-20T11:26:34Z</time>
      </trkpt>
      <trkpt lat="45.16418" lon="5.93259">
        <ele>2269.6</ele>
        <time>2021-02-20T11:26:35Z</time>
      </trkpt>
      <trkpt lat="45.16418" lon="5.93259">
        <ele>2269.5</ele>
        <time>2021-02-20T11:26:36Z</time>
      </trkpt>
      <trkpt lat="45.16418" lon="5.93259">
        <ele>2269.5</ele>
        <time>2021-02-20T11:26:56Z</time>
      </trkpt>
      <trkpt lat="45.16418" lon="5.93258">
        <ele>2269.4</ele>
        <time>2021-02-20T11:26:57Z</time>
      </trkpt>
      <trkpt lat="45.16418" lon="5.93258">
        <ele>2269.4</ele>
        <time>2021-02-20T11:26:58Z</time>
      </trkpt>
      <trkpt lat="45.16419" lon="5.93258">
        <ele>2269.3</ele>
        <time>2021-02-20T11:26:59Z</time>
      </trkpt>
      <trkpt lat="45.16419" lon="5.93258">
        <ele>2269</ele>
        <time>2021-02-20T11:27:00Z</time>
      </trkpt>
      <trkpt lat="45.16419" lon="5.93257">
        <ele>2269.5</ele>
        <time>2021-02-20T11:27:01Z</time>
      </trkpt>
      <trkpt lat="45.16419" lon="5.93257">
        <ele>2269.4</ele>
        <time>2021-02-20T11:27:02Z</time>
      </trkpt>
      <trkpt lat="45.1642" lon="5.93257">
        <ele>2269.4</ele>
        <time>2021-02-20T11:27:03Z</time>
      </trkpt>
      <trkpt lat="45.1642" lon="5.93257">
        <ele>2269.3</ele>
        <time>2021-02-20T11:27:04Z</time>
      </trkpt>
      <trkpt lat="45.1642" lon="5.93256">
        <ele>2269.3</ele>
        <time>2021-02-20T11:27:05Z</time>
      </trkpt>
      <trkpt lat="45.1642" lon="5.93257">
        <ele>2269.2</ele>
        <time>2021-02-20T11:27:06Z</time>
      </trkpt>
      <trkpt lat="45.16421" lon="5.93257">
        <ele>2269.2</ele>
        <time>2021-02-20T11:27:07Z</time>
      </trkpt>
      <trkpt lat="45.16421" lon="5.93257">
        <ele>2269.2</ele>
        <time>2021-02-20T11:27:08Z</time>
      </trkpt>
      <trkpt lat="45.16421" lon="5.93257">
        <ele>2269.1</ele>
        <time>2021-02-20T11:27:09Z</time>
      </trkpt>
      <trkpt lat="45.16421" lon="5.93257">
        <ele>2269</ele>
        <time>2021-02-20T11:27:10Z</time>
      </trkpt>
      <trkpt lat="45.16421" lon="5.93255">
        <ele>2269.1</ele>
        <time>2021-02-20T11:27:11Z</time>
      </trkpt>
      <trkpt lat="45.16421" lon="5.93255">
        <ele>2269.1</ele>
        <time>2021-02-20T11:27:12Z</time>
      </trkpt>
      <trkpt lat="45.16421" lon="5.93254">
        <ele>2269</ele>
        <time>2021-02-20T11:27:13Z</time>
      </trkpt>
      <trkpt lat="45.16421" lon="5.93253">
        <ele>2269.3</ele>
        <time>2021-02-20T11:27:14Z</time>
      </trkpt>
      <trkpt lat="45.1642" lon="5.93252">
        <ele>2269.4</ele>
        <time>2021-02-20T11:27:15Z</time>
      </trkpt>
      <trkpt lat="45.16419" lon="5.93252">
        <ele>2269.4</ele>
        <time>2021-02-20T11:27:16Z</time>
      </trkpt>
      <trkpt lat="45.16419" lon="5.93252">
        <ele>2269.5</ele>
        <time>2021-02-20T11:27:17Z</time>
      </trkpt>
      <trkpt lat="45.16418" lon="5.93252">
        <ele>2269.5</ele>
        <time>2021-02-20T11:27:18Z</time>
      </trkpt>
      <trkpt lat="45.16418" lon="5.93251">
        <ele>2269.4</ele>
        <time>2021-02-20T11:27:19Z</time>
      </trkpt>
      <trkpt lat="45.16418" lon="5.93251">
        <ele>2269.3</ele>
        <time>2021-02-20T11:27:20Z</time>
      </trkpt>
      <trkpt lat="45.16418" lon="5.93251">
        <ele>2269.3</ele>
        <time>2021-02-20T11:27:21Z</time>
      </trkpt>
      <trkpt lat="45.16417" lon="5.93251">
        <ele>2269.3</ele>
        <time>2021-02-20T11:27:22Z</time>
      </trkpt>
      <trkpt lat="45.16416" lon="5.93251">
        <ele>2269.2</ele>
        <time>2021-02-20T11:27:23Z</time>
      </trkpt>
      <trkpt lat="45.16416" lon="5.93251">
        <ele>2269.2</ele>
        <time>2021-02-20T11:27:24Z</time>
      </trkpt>
      <trkpt lat="45.16415" lon="5.93251">
        <ele>2269.3</ele>
        <time>2021-02-20T11:27:25Z</time>
      </trkpt>
      <trkpt lat="45.16414" lon="5.93251">
        <ele>2269.4</ele>
        <time>2021-02-20T11:27:26Z</time>
      </trkpt>
      <trkpt lat="45.16413" lon="5.93251">
        <ele>2269.4</ele>
        <time>2021-02-20T11:27:27Z</time>
      </trkpt>
      <trkpt lat="45.16413" lon="5.93251">
        <ele>2269.4</ele>
        <time>2021-02-20T11:27:28Z</time>
      </trkpt>
      <trkpt lat="45.16413" lon="5.93248">
        <ele>2269.7</ele>
        <time>2021-02-20T11:27:45Z</time>
      </trkpt>
      <trkpt lat="45.16413" lon="5.93249">
        <ele>2269.5</ele>
        <time>2021-02-20T11:27:46Z</time>
      </trkpt>
      <trkpt lat="45.16414" lon="5.93249">
        <ele>2269.5</ele>
        <time>2021-02-20T11:27:47Z</time>
      </trkpt>
      <trkpt lat="45.16414" lon="5.93249">
        <ele>2269.4</ele>
        <time>2021-02-20T11:27:48Z</time>
      </trkpt>
      <trkpt lat="45.16415" lon="5.93249">
        <ele>2269.4</ele>
        <time>2021-02-20T11:27:49Z</time>
      </trkpt>
      <trkpt lat="45.16415" lon="5.93248">
        <ele>2269.4</ele>
        <time>2021-02-20T11:27:50Z</time>
      </trkpt>
      <trkpt lat="45.16415" lon="5.93248">
        <ele>2269.4</ele>
        <time>2021-02-20T11:27:51Z</time>
      </trkpt>
      <trkpt lat="45.16416" lon="5.93248">
        <ele>2269.5</ele>
        <time>2021-02-20T11:27:52Z</time>
      </trkpt>
      <trkpt lat="45.16416" lon="5.93247">
        <ele>2269.6</ele>
        <time>2021-02-20T11:27:53Z</time>
      </trkpt>
      <trkpt lat="45.16417" lon="5.93244">
        <ele>2269.9</ele>
        <time>2021-02-20T11:27:54Z</time>
      </trkpt>
      <trkpt lat="45.16417" lon="5.93243">
        <ele>2270.1</ele>
        <time>2021-02-20T11:27:55Z</time>
      </trkpt>
      <trkpt lat="45.16417" lon="5.93242">
        <ele>2270.2</ele>
        <time>2021-02-20T11:27:56Z</time>
      </trkpt>
      <trkpt lat="45.16417" lon="5.9324">
        <ele>2270.3</ele>
        <time>2021-02-20T11:27:57Z</time>
      </trkpt>
      <trkpt lat="45.16417" lon="5.93239">
        <ele>2270.4</ele>
        <time>2021-02-20T11:27:58Z</time>
      </trkpt>
      <trkpt lat="45.16417" lon="5.93239">
        <ele>2270.5</ele>
        <time>2021-02-20T11:27:59Z</time>
      </trkpt>
      <trkpt lat="45.16417" lon="5.93238">
        <ele>2270.6</ele>
        <time>2021-02-20T11:28:00Z</time>
      </trkpt>
      <trkpt lat="45.16417" lon="5.93237">
        <ele>2270.6</ele>
        <time>2021-02-20T11:28:01Z</time>
      </trkpt>
      <trkpt lat="45.16417" lon="5.93237">
        <ele>2270.7</ele>
        <time>2021-02-20T11:28:02Z</time>
      </trkpt>
      <trkpt lat="45.16417" lon="5.93235">
        <ele>2270.9</ele>
        <time>2021-02-20T11:28:03Z</time>
      </trkpt>
      <trkpt lat="45.16416" lon="5.93234">
        <ele>2271</ele>
        <time>2021-02-20T11:28:04Z</time>
      </trkpt>
      <trkpt lat="45.16416" lon="5.93233">
        <ele>2271.1</ele>
        <time>2021-02-20T11:28:05Z</time>
      </trkpt>
      <trkpt lat="45.16415" lon="5.93233">
        <ele>2271.2</ele>
        <time>2021-02-20T11:28:06Z</time>
      </trkpt>
      <trkpt lat="45.16415" lon="5.93232">
        <ele>2271.3</ele>
        <time>2021-02-20T11:28:07Z</time>
      </trkpt>
      <trkpt lat="45.16415" lon="5.93231">
        <ele>2271.3</ele>
        <time>2021-02-20T11:28:08Z</time>
      </trkpt>
      <trkpt lat="45.16415" lon="5.93231">
        <ele>2271.3</ele>
        <time>2021-02-20T11:28:09Z</time>
      </trkpt>
      <trkpt lat="45.16415" lon="5.93231">
        <ele>2271.4</ele>
        <time>2021-02-20T11:28:10Z</time>
      </trkpt>
      <trkpt lat="45.16414" lon="5.93231">
        <ele>2271.5</ele>
        <time>2021-02-20T11:28:11Z</time>
      </trkpt>
      <trkpt lat="45.16414" lon="5.93231">
        <ele>2271.6</ele>
        <time>2021-02-20T11:28:12Z</time>
      </trkpt>
      <trkpt lat="45.16413" lon="5.9323">
        <ele>2271.7</ele>
        <time>2021-02-20T11:28:13Z</time>
      </trkpt>
      <trkpt lat="45.16412" lon="5.9323">
        <ele>2271.8</ele>
        <time>2021-02-20T11:28:14Z</time>
      </trkpt>
      <trkpt lat="45.16412" lon="5.93231">
        <ele>2271.8</ele>
        <time>2021-02-20T11:28:15Z</time>
      </trkpt>
      <trkpt lat="45.16412" lon="5.93231">
        <ele>2271.9</ele>
        <time>2021-02-20T11:28:16Z</time>
      </trkpt>
      <trkpt lat="45.16411" lon="5.93231">
        <ele>2272</ele>
        <time>2021-02-20T11:28:17Z</time>
      </trkpt>
      <trkpt lat="45.1641" lon="5.93231">
        <ele>2272.1</ele>
        <time>2021-02-20T11:28:18Z</time>
      </trkpt>
      <trkpt lat="45.1641" lon="5.93231">
        <ele>2272.2</ele>
        <time>2021-02-20T11:28:19Z</time>
      </trkpt>
      <trkpt lat="45.16409" lon="5.93231">
        <ele>2272.2</ele>
        <time>2021-02-20T11:28:20Z</time>
      </trkpt>
      <trkpt lat="45.16409" lon="5.9323">
        <ele>2272.3</ele>
        <time>2021-02-20T11:28:21Z</time>
      </trkpt>
      <trkpt lat="45.16409" lon="5.9323">
        <ele>2272.4</ele>
        <time>2021-02-20T11:28:22Z</time>
      </trkpt>
      <trkpt lat="45.16408" lon="5.9323">
        <ele>2272.5</ele>
        <time>2021-02-20T11:28:23Z</time>
      </trkpt>
      <trkpt lat="45.16408" lon="5.93229">
        <ele>2272.5</ele>
        <time>2021-02-20T11:28:24Z</time>
      </trkpt>
      <trkpt lat="45.16408" lon="5.93229">
        <ele>2272.6</ele>
        <time>2021-02-20T11:28:25Z</time>
      </trkpt>
      <trkpt lat="45.16408" lon="5.93228">
        <ele>2272.7</ele>
        <time>2021-02-20T11:28:26Z</time>
      </trkpt>
      <trkpt lat="45.16408" lon="5.93227">
        <ele>2272.7</ele>
        <time>2021-02-20T11:28:27Z</time>
      </trkpt>
      <trkpt lat="45.16407" lon="5.93226">
        <ele>2272.9</ele>
        <time>2021-02-20T11:28:28Z</time>
      </trkpt>
      <trkpt lat="45.16407" lon="5.93226">
        <ele>2272.9</ele>
        <time>2021-02-20T11:28:29Z</time>
      </trkpt>
      <trkpt lat="45.16407" lon="5.93225">
        <ele>2273</ele>
        <time>2021-02-20T11:28:30Z</time>
      </trkpt>
      <trkpt lat="45.16406" lon="5.93225">
        <ele>2273</ele>
        <time>2021-02-20T11:28:31Z</time>
      </trkpt>
      <trkpt lat="45.16406" lon="5.93224">
        <ele>2273.1</ele>
        <time>2021-02-20T11:28:32Z</time>
      </trkpt>
      <trkpt lat="45.16407" lon="5.93224">
        <ele>2273.3</ele>
        <time>2021-02-20T11:28:33Z</time>
      </trkpt>
      <trkpt lat="45.16409" lon="5.93224">
        <ele>2273.5</ele>
        <time>2021-02-20T11:28:34Z</time>
      </trkpt>
      <trkpt lat="45.1641" lon="5.93223">
        <ele>2273.7</ele>
        <time>2021-02-20T11:28:35Z</time>
      </trkpt>
      <trkpt lat="45.16411" lon="5.93223">
        <ele>2273.9</ele>
        <time>2021-02-20T11:28:58Z</time>
      </trkpt>
      <trkpt lat="45.16413" lon="5.93223">
        <ele>2274.1</ele>
        <time>2021-02-20T11:28:59Z</time>
      </trkpt>
      <trkpt lat="45.16414" lon="5.93222">
        <ele>2274.3</ele>
        <time>2021-02-20T11:29:00Z</time>
      </trkpt>
      <trkpt lat="45.16415" lon="5.93222">
        <ele>2274.5</ele>
        <time>2021-02-20T11:29:01Z</time>
      </trkpt>
      <trkpt lat="45.16416" lon="5.93222">
        <ele>2274.6</ele>
        <time>2021-02-20T11:29:02Z</time>
      </trkpt>
      <trkpt lat="45.16416" lon="5.93222">
        <ele>2274.7</ele>
        <time>2021-02-20T11:29:03Z</time>
      </trkpt>
      <trkpt lat="45.16417" lon="5.93222">
        <ele>2274.7</ele>
        <time>2021-02-20T11:29:04Z</time>
      </trkpt>
      <trkpt lat="45.16417" lon="5.93222">
        <ele>2274.8</ele>
        <time>2021-02-20T11:29:05Z</time>
      </trkpt>
      <trkpt lat="45.16418" lon="5.93223">
        <ele>2274.9</ele>
        <time>2021-02-20T11:29:06Z</time>
      </trkpt>
      <trkpt lat="45.16418" lon="5.93222">
        <ele>2274.9</ele>
        <time>2021-02-20T11:29:07Z</time>
      </trkpt>
      <trkpt lat="45.16418" lon="5.93222">
        <ele>2275</ele>
        <time>2021-02-20T11:29:08Z</time>
      </trkpt>
      <trkpt lat="45.16417" lon="5.93221">
        <ele>2275.1</ele>
        <time>2021-02-20T11:29:09Z</time>
      </trkpt>
      <trkpt lat="45.16417" lon="5.93221">
        <ele>2275.2</ele>
        <time>2021-02-20T11:29:10Z</time>
      </trkpt>
      <trkpt lat="45.16416" lon="5.9322">
        <ele>2275.2</ele>
        <time>2021-02-20T11:29:11Z</time>
      </trkpt>
      <trkpt lat="45.16416" lon="5.9322">
        <ele>2275.3</ele>
        <time>2021-02-20T11:29:12Z</time>
      </trkpt>
      <trkpt lat="45.16416" lon="5.93219">
        <ele>2275.4</ele>
        <time>2021-02-20T11:29:13Z</time>
      </trkpt>
      <trkpt lat="45.16415" lon="5.93219">
        <ele>2275.5</ele>
        <time>2021-02-20T11:29:14Z</time>
      </trkpt>
      <trkpt lat="45.16415" lon="5.93218">
        <ele>2275.5</ele>
        <time>2021-02-20T11:29:19Z</time>
      </trkpt>
      <trkpt lat="45.16415" lon="5.93218">
        <ele>2275.6</ele>
        <time>2021-02-20T11:29:20Z</time>
      </trkpt>
      <trkpt lat="45.16414" lon="5.93217">
        <ele>2275.7</ele>
        <time>2021-02-20T11:29:21Z</time>
      </trkpt>
      <trkpt lat="45.16414" lon="5.93217">
        <ele>2275.8</ele>
        <time>2021-02-20T11:29:22Z</time>
      </trkpt>
      <trkpt lat="45.16414" lon="5.93216">
        <ele>2275.9</ele>
        <time>2021-02-20T11:29:23Z</time>
      </trkpt>
      <trkpt lat="45.16415" lon="5.93215">
        <ele>2276</ele>
        <time>2021-02-20T11:29:24Z</time>
      </trkpt>
      <trkpt lat="45.16415" lon="5.93214">
        <ele>2276.1</ele>
        <time>2021-02-20T11:29:25Z</time>
      </trkpt>
      <trkpt lat="45.16416" lon="5.93214">
        <ele>2276.2</ele>
        <time>2021-02-20T11:29:26Z</time>
      </trkpt>
      <trkpt lat="45.16416" lon="5.93213">
        <ele>2276.3</ele>
        <time>2021-02-20T11:29:27Z</time>
      </trkpt>
      <trkpt lat="45.16417" lon="5.93212">
        <ele>2276.4</ele>
        <time>2021-02-20T11:29:28Z</time>
      </trkpt>
      <trkpt lat="45.16417" lon="5.93211">
        <ele>2276.5</ele>
        <time>2021-02-20T11:29:29Z</time>
      </trkpt>
      <trkpt lat="45.16418" lon="5.93211">
        <ele>2276.7</ele>
        <time>2021-02-20T11:29:30Z</time>
      </trkpt>
      <trkpt lat="45.16419" lon="5.9321">
        <ele>2276.8</ele>
        <time>2021-02-20T11:29:31Z</time>
      </trkpt>
      <trkpt lat="45.16419" lon="5.93209">
        <ele>2276.9</ele>
        <time>2021-02-20T11:29:32Z</time>
      </trkpt>
      <trkpt lat="45.1642" lon="5.93209">
        <ele>2277</ele>
        <time>2021-02-20T11:29:33Z</time>
      </trkpt>
      <trkpt lat="45.1642" lon="5.93208">
        <ele>2277.1</ele>
        <time>2021-02-20T11:29:52Z</time>
      </trkpt>
      <trkpt lat="45.16421" lon="5.93207">
        <ele>2277.2</ele>
        <time>2021-02-20T11:29:53Z</time>
      </trkpt>
      <trkpt lat="45.16421" lon="5.93207">
        <ele>2277.3</ele>
        <time>2021-02-20T11:29:54Z</time>
      </trkpt>
      <trkpt lat="45.16422" lon="5.93206">
        <ele>2277.4</ele>
        <time>2021-02-20T11:29:55Z</time>
      </trkpt>
      <trkpt lat="45.16423" lon="5.93205">
        <ele>2277.5</ele>
        <time>2021-02-20T11:29:56Z</time>
      </trkpt>
      <trkpt lat="45.16423" lon="5.93205">
        <ele>2277.6</ele>
        <time>2021-02-20T11:29:57Z</time>
      </trkpt>
      <trkpt lat="45.16424" lon="5.93204">
        <ele>2277.7</ele>
        <time>2021-02-20T11:29:58Z</time>
      </trkpt>
      <trkpt lat="45.16424" lon="5.93203">
        <ele>2277.8</ele>
        <time>2021-02-20T11:29:59Z</time>
      </trkpt>
      <trkpt lat="45.16424" lon="5.93202">
        <ele>2277.9</ele>
        <time>2021-02-20T11:30:00Z</time>
      </trkpt>
      <trkpt lat="45.16425" lon="5.93202">
        <ele>2278</ele>
        <time>2021-02-20T11:30:01Z</time>
      </trkpt>
      <trkpt lat="45.16425" lon="5.93201">
        <ele>2278.1</ele>
        <time>2021-02-20T11:30:02Z</time>
      </trkpt>
      <trkpt lat="45.16425" lon="5.93201">
        <ele>2278.1</ele>
        <time>2021-02-20T11:30:03Z</time>
      </trkpt>
      <trkpt lat="45.16426" lon="5.93201">
        <ele>2278.2</ele>
        <time>2021-02-20T11:30:04Z</time>
      </trkpt>
      <trkpt lat="45.16426" lon="5.93201">
        <ele>2278.3</ele>
        <time>2021-02-20T11:30:05Z</time>
      </trkpt>
      <trkpt lat="45.16427" lon="5.93201">
        <ele>2278.4</ele>
        <time>2021-02-20T11:30:06Z</time>
      </trkpt>
      <trkpt lat="45.16427" lon="5.93201">
        <ele>2278.5</ele>
        <time>2021-02-20T11:30:07Z</time>
      </trkpt>
      <trkpt lat="45.16428" lon="5.93201">
        <ele>2278.5</ele>
        <time>2021-02-20T11:30:08Z</time>
      </trkpt>
      <trkpt lat="45.16428" lon="5.93201">
        <ele>2278.6</ele>
        <time>2021-02-20T11:30:09Z</time>
      </trkpt>
      <trkpt lat="45.16429" lon="5.932">
        <ele>2278.7</ele>
        <time>2021-02-20T11:30:10Z</time>
      </trkpt>
      <trkpt lat="45.16429" lon="5.93199">
        <ele>2278.8</ele>
        <time>2021-02-20T11:30:11Z</time>
      </trkpt>
      <trkpt lat="45.1643" lon="5.93197">
        <ele>2279</ele>
        <time>2021-02-20T11:30:12Z</time>
      </trkpt>
      <trkpt lat="45.1643" lon="5.93196">
        <ele>2279.1</ele>
        <time>2021-02-20T11:30:13Z</time>
      </trkpt>
      <trkpt lat="45.16431" lon="5.93195">
        <ele>2279.3</ele>
        <time>2021-02-20T11:30:14Z</time>
      </trkpt>
      <trkpt lat="45.16431" lon="5.93194">
        <ele>2279.4</ele>
        <time>2021-02-20T11:30:15Z</time>
      </trkpt>
      <trkpt lat="45.16432" lon="5.93193">
        <ele>2279.5</ele>
        <time>2021-02-20T11:30:16Z</time>
      </trkpt>
      <trkpt lat="45.16432" lon="5.93193">
        <ele>2279.6</ele>
        <time>2021-02-20T11:30:17Z</time>
      </trkpt>
      <trkpt lat="45.16433" lon="5.93193">
        <ele>2279.7</ele>
        <time>2021-02-20T11:30:18Z</time>
      </trkpt>
      <trkpt lat="45.16433" lon="5.93192">
        <ele>2279.8</ele>
        <time>2021-02-20T11:30:19Z</time>
      </trkpt>
      <trkpt lat="45.16434" lon="5.93192">
        <ele>2279.9</ele>
        <time>2021-02-20T11:30:20Z</time>
      </trkpt>
      <trkpt lat="45.16434" lon="5.93191">
        <ele>2280</ele>
        <time>2021-02-20T11:30:21Z</time>
      </trkpt>
      <trkpt lat="45.16435" lon="5.93191">
        <ele>2280</ele>
        <time>2021-02-20T11:30:22Z</time>
      </trkpt>
      <trkpt lat="45.16435" lon="5.93191">
        <ele>2280.1</ele>
        <time>2021-02-20T11:30:23Z</time>
      </trkpt>
      <trkpt lat="45.16436" lon="5.93191">
        <ele>2280.2</ele>
        <time>2021-02-20T11:30:24Z</time>
      </trkpt>
      <trkpt lat="45.16436" lon="5.9319">
        <ele>2280.3</ele>
        <time>2021-02-20T11:30:25Z</time>
      </trkpt>
      <trkpt lat="45.16437" lon="5.9319">
        <ele>2280.3</ele>
        <time>2021-02-20T11:30:26Z</time>
      </trkpt>
      <trkpt lat="45.16437" lon="5.93189">
        <ele>2280.5</ele>
        <time>2021-02-20T11:30:27Z</time>
      </trkpt>
      <trkpt lat="45.16437" lon="5.93188">
        <ele>2280.6</ele>
        <time>2021-02-20T11:30:28Z</time>
      </trkpt>
      <trkpt lat="45.16437" lon="5.93187">
        <ele>2280.6</ele>
        <time>2021-02-20T11:30:29Z</time>
      </trkpt>
      <trkpt lat="45.16437" lon="5.93186">
        <ele>2280.7</ele>
        <time>2021-02-20T11:30:30Z</time>
      </trkpt>
      <trkpt lat="45.16437" lon="5.93185">
        <ele>2280.8</ele>
        <time>2021-02-20T11:30:31Z</time>
      </trkpt>
      <trkpt lat="45.16438" lon="5.93184">
        <ele>2280.9</ele>
        <time>2021-02-20T11:30:32Z</time>
      </trkpt>
      <trkpt lat="45.16438" lon="5.93183">
        <ele>2281</ele>
        <time>2021-02-20T11:30:33Z</time>
      </trkpt>
      <trkpt lat="45.16438" lon="5.93183">
        <ele>2281.1</ele>
        <time>2021-02-20T11:30:34Z</time>
      </trkpt>
      <trkpt lat="45.16438" lon="5.93182">
        <ele>2281.2</ele>
        <time>2021-02-20T11:31:48Z</time>
      </trkpt>
      <trkpt lat="45.16438" lon="5.93181">
        <ele>2281.3</ele>
        <time>2021-02-20T11:31:49Z</time>
      </trkpt>
      <trkpt lat="45.16438" lon="5.9318">
        <ele>2281.4</ele>
        <time>2021-02-20T11:31:50Z</time>
      </trkpt>
      <trkpt lat="45.16438" lon="5.93179">
        <ele>2281.5</ele>
        <time>2021-02-20T11:31:51Z</time>
      </trkpt>
      <trkpt lat="45.16438" lon="5.93178">
        <ele>2281.6</ele>
        <time>2021-02-20T11:31:52Z</time>
      </trkpt>
      <trkpt lat="45.16439" lon="5.93177">
        <ele>2281.7</ele>
        <time>2021-02-20T11:31:53Z</time>
      </trkpt>
      <trkpt lat="45.16439" lon="5.93176">
        <ele>2281.8</ele>
        <time>2021-02-20T11:31:54Z</time>
      </trkpt>
      <trkpt lat="45.16439" lon="5.93175">
        <ele>2281.9</ele>
        <time>2021-02-20T11:31:55Z</time>
      </trkpt>
      <trkpt lat="45.16439" lon="5.93174">
        <ele>2282</ele>
        <time>2021-02-20T11:31:56Z</time>
      </trkpt>
      <trkpt lat="45.16439" lon="5.93174">
        <ele>2282.1</ele>
        <time>2021-02-20T11:31:57Z</time>
      </trkpt>
      <trkpt lat="45.16439" lon="5.93173">
        <ele>2282.2</ele>
        <time>2021-02-20T11:32:00Z</time>
      </trkpt>
      <trkpt lat="45.16439" lon="5.93172">
        <ele>2282.3</ele>
        <time>2021-02-20T11:32:01Z</time>
      </trkpt>
      <trkpt lat="45.16439" lon="5.93171">
        <ele>2282.4</ele>
        <time>2021-02-20T11:32:02Z</time>
      </trkpt>
      <trkpt lat="45.1644" lon="5.9317">
        <ele>2282.5</ele>
        <time>2021-02-20T11:32:03Z</time>
      </trkpt>
      <trkpt lat="45.1644" lon="5.93169">
        <ele>2282.6</ele>
        <time>2021-02-20T11:32:04Z</time>
      </trkpt>
      <trkpt lat="45.1644" lon="5.93168">
        <ele>2282.6</ele>
        <time>2021-02-20T11:32:05Z</time>
      </trkpt>
      <trkpt lat="45.1644" lon="5.93167">
        <ele>2282.8</ele>
        <time>2021-02-20T11:32:06Z</time>
      </trkpt>
      <trkpt lat="45.16441" lon="5.93166">
        <ele>2282.9</ele>
        <time>2021-02-20T11:32:07Z</time>
      </trkpt>
      <trkpt lat="45.16441" lon="5.93166">
        <ele>2283</ele>
        <time>2021-02-20T11:32:08Z</time>
      </trkpt>
      <trkpt lat="45.16441" lon="5.93165">
        <ele>2283</ele>
        <time>2021-02-20T11:32:09Z</time>
      </trkpt>
      <trkpt lat="45.16441" lon="5.93164">
        <ele>2283.1</ele>
        <time>2021-02-20T11:33:36Z</time>
      </trkpt>
      <trkpt lat="45.16442" lon="5.93164">
        <ele>2283.2</ele>
        <time>2021-02-20T11:33:37Z</time>
      </trkpt>
      <trkpt lat="45.16442" lon="5.93163">
        <ele>2283.3</ele>
        <time>2021-02-20T11:33:38Z</time>
      </trkpt>
      <trkpt lat="45.16442" lon="5.93162">
        <ele>2283.4</ele>
        <time>2021-02-20T11:33:39Z</time>
      </trkpt>
      <trkpt lat="45.16442" lon="5.93162">
        <ele>2283.4</ele>
        <time>2021-02-20T11:33:40Z</time>
      </trkpt>
      <trkpt lat="45.16443" lon="5.93161">
        <ele>2283.5</ele>
        <time>2021-02-20T11:33:41Z</time>
      </trkpt>
      <trkpt lat="45.16443" lon="5.9316">
        <ele>2283.6</ele>
        <time>2021-02-20T11:33:42Z</time>
      </trkpt>
      <trkpt lat="45.16443" lon="5.93159">
        <ele>2283.7</ele>
        <time>2021-02-20T11:33:43Z</time>
      </trkpt>
      <trkpt lat="45.16443" lon="5.93158">
        <ele>2283.8</ele>
        <time>2021-02-20T11:33:44Z</time>
      </trkpt>
      <trkpt lat="45.16444" lon="5.93157">
        <ele>2284</ele>
        <time>2021-02-20T11:33:45Z</time>
      </trkpt>
      <trkpt lat="45.16444" lon="5.93156">
        <ele>2284.1</ele>
        <time>2021-02-20T11:33:50Z</time>
      </trkpt>
      <trkpt lat="45.16444" lon="5.93154">
        <ele>2284.3</ele>
        <time>2021-02-20T11:33:51Z</time>
      </trkpt>
      <trkpt lat="45.16445" lon="5.93153">
        <ele>2284.4</ele>
        <time>2021-02-20T11:33:52Z</time>
      </trkpt>
      <trkpt lat="45.16445" lon="5.93152">
        <ele>2284.6</ele>
        <time>2021-02-20T11:33:53Z</time>
      </trkpt>
      <trkpt lat="45.16445" lon="5.9315">
        <ele>2284.7</ele>
        <time>2021-02-20T11:33:54Z</time>
      </trkpt>
      <trkpt lat="45.16446" lon="5.9315">
        <ele>2284.8</ele>
        <time>2021-02-20T11:33:55Z</time>
      </trkpt>
      <trkpt lat="45.16446" lon="5.93149">
        <ele>2284.8</ele>
        <time>2021-02-20T11:33:56Z</time>
      </trkpt>
      <trkpt lat="45.16447" lon="5.93149">
        <ele>2284.9</ele>
        <time>2021-02-20T11:33:57Z</time>
      </trkpt>
      <trkpt lat="45.16447" lon="5.93148">
        <ele>2285</ele>
        <time>2021-02-20T11:33:58Z</time>
      </trkpt>
      <trkpt lat="45.16447" lon="5.93148">
        <ele>2285</ele>
        <time>2021-02-20T11:33:59Z</time>
      </trkpt>
      <trkpt lat="45.16447" lon="5.93148">
        <ele>2285.1</ele>
        <time>2021-02-20T11:34:00Z</time>
      </trkpt>
      <trkpt lat="45.16448" lon="5.93147">
        <ele>2285.2</ele>
        <time>2021-02-20T11:34:01Z</time>
      </trkpt>
      <trkpt lat="45.16448" lon="5.93147">
        <ele>2285.2</ele>
        <time>2021-02-20T11:34:02Z</time>
      </trkpt>
      <trkpt lat="45.16448" lon="5.93146">
        <ele>2285.3</ele>
        <time>2021-02-20T11:34:03Z</time>
      </trkpt>
      <trkpt lat="45.16449" lon="5.93146">
        <ele>2285.4</ele>
        <time>2021-02-20T11:34:04Z</time>
      </trkpt>
      <trkpt lat="45.1645" lon="5.93146">
        <ele>2285.5</ele>
        <time>2021-02-20T11:34:05Z</time>
      </trkpt>
      <trkpt lat="45.1645" lon="5.93145">
        <ele>2285.6</ele>
        <time>2021-02-20T11:34:06Z</time>
      </trkpt>
      <trkpt lat="45.16451" lon="5.93144">
        <ele>2285.8</ele>
        <time>2021-02-20T11:34:07Z</time>
      </trkpt>
      <trkpt lat="45.16451" lon="5.93143">
        <ele>2285.9</ele>
        <time>2021-02-20T11:34:08Z</time>
      </trkpt>
      <trkpt lat="45.16452" lon="5.93142">
        <ele>2286</ele>
        <time>2021-02-20T11:34:09Z</time>
      </trkpt>
      <trkpt lat="45.16452" lon="5.93141">
        <ele>2286.1</ele>
        <time>2021-02-20T11:34:10Z</time>
      </trkpt>
      <trkpt lat="45.16453" lon="5.9314">
        <ele>2286.3</ele>
        <time>2021-02-20T11:34:11Z</time>
      </trkpt>
      <trkpt lat="45.16454" lon="5.93139">
        <ele>2286.4</ele>
        <time>2021-02-20T11:34:12Z</time>
      </trkpt>
      <trkpt lat="45.16454" lon="5.93138">
        <ele>2286.5</ele>
        <time>2021-02-20T11:34:13Z</time>
      </trkpt>
      <trkpt lat="45.16455" lon="5.93137">
        <ele>2286.6</ele>
        <time>2021-02-20T11:34:14Z</time>
      </trkpt>
      <trkpt lat="45.16455" lon="5.93136">
        <ele>2286.8</ele>
        <time>2021-02-20T11:34:35Z</time>
      </trkpt>
      <trkpt lat="45.16456" lon="5.93136">
        <ele>2286.9</ele>
        <time>2021-02-20T11:34:36Z</time>
      </trkpt>
      <trkpt lat="45.16456" lon="5.93135">
        <ele>2287</ele>
        <time>2021-02-20T11:34:37Z</time>
      </trkpt>
      <trkpt lat="45.16457" lon="5.93134">
        <ele>2287.1</ele>
        <time>2021-02-20T11:34:38Z</time>
      </trkpt>
      <trkpt lat="45.16457" lon="5.93133">
        <ele>2287.2</ele>
        <time>2021-02-20T11:34:39Z</time>
      </trkpt>
      <trkpt lat="45.16458" lon="5.93132">
        <ele>2287.3</ele>
        <time>2021-02-20T11:34:40Z</time>
      </trkpt>
      <trkpt lat="45.16458" lon="5.93131">
        <ele>2287.5</ele>
        <time>2021-02-20T11:34:41Z</time>
      </trkpt>
      <trkpt lat="45.16459" lon="5.9313">
        <ele>2287.6</ele>
        <time>2021-02-20T11:34:42Z</time>
      </trkpt>
      <trkpt lat="45.16459" lon="5.93129">
        <ele>2287.7</ele>
        <time>2021-02-20T11:34:43Z</time>
      </trkpt>
      <trkpt lat="45.16459" lon="5.93128">
        <ele>2287.8</ele>
        <time>2021-02-20T11:34:44Z</time>
      </trkpt>
      <trkpt lat="45.16459" lon="5.93128">
        <ele>2287.9</ele>
        <time>2021-02-20T11:34:45Z</time>
      </trkpt>
      <trkpt lat="45.1646" lon="5.93127">
        <ele>2288</ele>
        <time>2021-02-20T11:34:46Z</time>
      </trkpt>
      <trkpt lat="45.1646" lon="5.93127">
        <ele>2288</ele>
        <time>2021-02-20T11:34:47Z</time>
      </trkpt>
      <trkpt lat="45.16461" lon="5.93126">
        <ele>2288.1</ele>
        <time>2021-02-20T11:34:48Z</time>
      </trkpt>
      <trkpt lat="45.16461" lon="5.93126">
        <ele>2288.2</ele>
        <time>2021-02-20T11:34:49Z</time>
      </trkpt>
      <trkpt lat="45.16462" lon="5.93126">
        <ele>2288.3</ele>
        <time>2021-02-20T11:34:50Z</time>
      </trkpt>
      <trkpt lat="45.16462" lon="5.93126">
        <ele>2288.3</ele>
        <time>2021-02-20T11:34:51Z</time>
      </trkpt>
      <trkpt lat="45.16462" lon="5.93126">
        <ele>2288.4</ele>
        <time>2021-02-20T11:34:52Z</time>
      </trkpt>
      <trkpt lat="45.16462" lon="5.93126">
        <ele>2288.4</ele>
        <time>2021-02-20T11:34:53Z</time>
      </trkpt>
      <trkpt lat="45.16463" lon="5.93125">
        <ele>2288.5</ele>
        <time>2021-02-20T11:34:54Z</time>
      </trkpt>
      <trkpt lat="45.16464" lon="5.93124">
        <ele>2288.8</ele>
        <time>2021-02-20T11:34:55Z</time>
      </trkpt>
      <trkpt lat="45.16465" lon="5.93123">
        <ele>2288.9</ele>
        <time>2021-02-20T11:34:56Z</time>
      </trkpt>
      <trkpt lat="45.16466" lon="5.93122">
        <ele>2289.1</ele>
        <time>2021-02-20T11:34:57Z</time>
      </trkpt>
      <trkpt lat="45.16467" lon="5.93121">
        <ele>2289.3</ele>
        <time>2021-02-20T11:34:58Z</time>
      </trkpt>
      <trkpt lat="45.16468" lon="5.9312">
        <ele>2289.4</ele>
        <time>2021-02-20T11:35:24Z</time>
      </trkpt>
      <trkpt lat="45.16468" lon="5.93119">
        <ele>2289.6</ele>
        <time>2021-02-20T11:35:25Z</time>
      </trkpt>
      <trkpt lat="45.16469" lon="5.93118">
        <ele>2289.7</ele>
        <time>2021-02-20T11:35:26Z</time>
      </trkpt>
      <trkpt lat="45.1647" lon="5.93117">
        <ele>2289.9</ele>
        <time>2021-02-20T11:35:27Z</time>
      </trkpt>
      <trkpt lat="45.16471" lon="5.93116">
        <ele>2290.1</ele>
        <time>2021-02-20T11:35:28Z</time>
      </trkpt>
      <trkpt lat="45.16472" lon="5.93115">
        <ele>2290.2</ele>
        <time>2021-02-20T11:35:29Z</time>
      </trkpt>
      <trkpt lat="45.16472" lon="5.93115">
        <ele>2290.2</ele>
        <time>2021-02-20T11:35:30Z</time>
      </trkpt>
      <trkpt lat="45.16471" lon="5.93115">
        <ele>2290.3</ele>
        <time>2021-02-20T11:35:31Z</time>
      </trkpt>
      <trkpt lat="45.16471" lon="5.93115">
        <ele>2290.4</ele>
        <time>2021-02-20T11:35:32Z</time>
      </trkpt>
      <trkpt lat="45.1647" lon="5.93115">
        <ele>2290.5</ele>
        <time>2021-02-20T11:35:33Z</time>
      </trkpt>
      <trkpt lat="45.1647" lon="5.93115">
        <ele>2290.5</ele>
        <time>2021-02-20T11:35:34Z</time>
      </trkpt>
      <trkpt lat="45.16469" lon="5.93115">
        <ele>2290.6</ele>
        <time>2021-02-20T11:35:35Z</time>
      </trkpt>
      <trkpt lat="45.16469" lon="5.93115">
        <ele>2290.7</ele>
        <time>2021-02-20T11:35:36Z</time>
      </trkpt>
      <trkpt lat="45.16468" lon="5.93115">
        <ele>2290.8</ele>
        <time>2021-02-20T11:35:37Z</time>
      </trkpt>
      <trkpt lat="45.16468" lon="5.93115">
        <ele>2290.8</ele>
        <time>2021-02-20T11:35:38Z</time>
      </trkpt>
      <trkpt lat="45.16467" lon="5.93116">
        <ele>2290.9</ele>
        <time>2021-02-20T11:35:50Z</time>
      </trkpt>
      <trkpt lat="45.16467" lon="5.93116">
        <ele>2291</ele>
        <time>2021-02-20T11:35:51Z</time>
      </trkpt>
      <trkpt lat="45.16466" lon="5.93116">
        <ele>2291</ele>
        <time>2021-02-20T11:35:52Z</time>
      </trkpt>
      <trkpt lat="45.16466" lon="5.93116">
        <ele>2291.1</ele>
        <time>2021-02-20T11:35:53Z</time>
      </trkpt>
      <trkpt lat="45.16465" lon="5.93116">
        <ele>2291.2</ele>
        <time>2021-02-20T11:35:54Z</time>
      </trkpt>
      <trkpt lat="45.16465" lon="5.93116">
        <ele>2291.3</ele>
        <time>2021-02-20T11:35:55Z</time>
      </trkpt>
      <trkpt lat="45.16464" lon="5.93115">
        <ele>2291.4</ele>
        <time>2021-02-20T11:35:56Z</time>
      </trkpt>
      <trkpt lat="45.16464" lon="5.93115">
        <ele>2291.5</ele>
        <time>2021-02-20T11:35:57Z</time>
      </trkpt>
      <trkpt lat="45.16463" lon="5.93115">
        <ele>2291.6</ele>
        <time>2021-02-20T11:35:58Z</time>
      </trkpt>
      <trkpt lat="45.16462" lon="5.93114">
        <ele>2291.7</ele>
        <time>2021-02-20T11:35:59Z</time>
      </trkpt>
      <trkpt lat="45.16462" lon="5.93114">
        <ele>2291.7</ele>
        <time>2021-02-20T11:36:00Z</time>
      </trkpt>
      <trkpt lat="45.16461" lon="5.93113">
        <ele>2291.8</ele>
        <time>2021-02-20T11:36:01Z</time>
      </trkpt>
      <trkpt lat="45.16461" lon="5.93113">
        <ele>2291.9</ele>
        <time>2021-02-20T11:36:02Z</time>
      </trkpt>
      <trkpt lat="45.1646" lon="5.93113">
        <ele>2292</ele>
        <time>2021-02-20T11:36:03Z</time>
      </trkpt>
      <trkpt lat="45.1646" lon="5.93112">
        <ele>2292.1</ele>
        <time>2021-02-20T11:36:04Z</time>
      </trkpt>
      <trkpt lat="45.1646" lon="5.93112">
        <ele>2292.2</ele>
        <time>2021-02-20T11:36:05Z</time>
      </trkpt>
      <trkpt lat="45.16459" lon="5.93111">
        <ele>2292.3</ele>
        <time>2021-02-20T11:36:06Z</time>
      </trkpt>
      <trkpt lat="45.16459" lon="5.9311">
        <ele>2292.3</ele>
        <time>2021-02-20T11:36:07Z</time>
      </trkpt>
      <trkpt lat="45.16458" lon="5.93109">
        <ele>2292.5</ele>
        <time>2021-02-20T11:36:08Z</time>
      </trkpt>
      <trkpt lat="45.16457" lon="5.93109">
        <ele>2292.6</ele>
        <time>2021-02-20T11:36:09Z</time>
      </trkpt>
      <trkpt lat="45.16457" lon="5.93108">
        <ele>2292.7</ele>
        <time>2021-02-20T11:36:10Z</time>
      </trkpt>
      <trkpt lat="45.16456" lon="5.93108">
        <ele>2292.8</ele>
        <time>2021-02-20T11:36:11Z</time>
      </trkpt>
      <trkpt lat="45.16455" lon="5.93107">
        <ele>2293</ele>
        <time>2021-02-20T11:36:12Z</time>
      </trkpt>
      <trkpt lat="45.16454" lon="5.93106">
        <ele>2293.1</ele>
        <time>2021-02-20T11:36:13Z</time>
      </trkpt>
      <trkpt lat="45.16454" lon="5.93106">
        <ele>2293.3</ele>
        <time>2021-02-20T11:36:14Z</time>
      </trkpt>
      <trkpt lat="45.16453" lon="5.93105">
        <ele>2293.4</ele>
        <time>2021-02-20T11:36:15Z</time>
      </trkpt>
      <trkpt lat="45.16452" lon="5.93105">
        <ele>2293.5</ele>
        <time>2021-02-20T11:36:16Z</time>
      </trkpt>
      <trkpt lat="45.16452" lon="5.93104">
        <ele>2293.6</ele>
        <time>2021-02-20T11:36:17Z</time>
      </trkpt>
      <trkpt lat="45.16451" lon="5.93103">
        <ele>2293.7</ele>
        <time>2021-02-20T11:36:18Z</time>
      </trkpt>
      <trkpt lat="45.1645" lon="5.93103">
        <ele>2293.9</ele>
        <time>2021-02-20T11:36:19Z</time>
      </trkpt>
      <trkpt lat="45.16449" lon="5.93102">
        <ele>2294</ele>
        <time>2021-02-20T11:36:20Z</time>
      </trkpt>
      <trkpt lat="45.16448" lon="5.93102">
        <ele>2294.1</ele>
        <time>2021-02-20T11:36:21Z</time>
      </trkpt>
      <trkpt lat="45.16448" lon="5.93101">
        <ele>2294.3</ele>
        <time>2021-02-20T11:36:22Z</time>
      </trkpt>
      <trkpt lat="45.16447" lon="5.93101">
        <ele>2294.4</ele>
        <time>2021-02-20T11:36:23Z</time>
      </trkpt>
      <trkpt lat="45.16446" lon="5.931">
        <ele>2294.5</ele>
        <time>2021-02-20T11:36:24Z</time>
      </trkpt>
      <trkpt lat="45.16446" lon="5.931">
        <ele>2294.6</ele>
        <time>2021-02-20T11:36:25Z</time>
      </trkpt>
      <trkpt lat="45.16445" lon="5.931">
        <ele>2294.7</ele>
        <time>2021-02-20T11:36:26Z</time>
      </trkpt>
      <trkpt lat="45.16444" lon="5.93099">
        <ele>2294.8</ele>
        <time>2021-02-20T11:36:27Z</time>
      </trkpt>
      <trkpt lat="45.16444" lon="5.93099">
        <ele>2294.9</ele>
        <time>2021-02-20T11:36:28Z</time>
      </trkpt>
      <trkpt lat="45.16444" lon="5.93098">
        <ele>2295</ele>
        <time>2021-02-20T11:36:29Z</time>
      </trkpt>
      <trkpt lat="45.16444" lon="5.93097">
        <ele>2295.1</ele>
        <time>2021-02-20T11:36:30Z</time>
      </trkpt>
      <trkpt lat="45.16444" lon="5.93096">
        <ele>2295.2</ele>
        <time>2021-02-20T11:36:31Z</time>
      </trkpt>
      <trkpt lat="45.16445" lon="5.93095">
        <ele>2295.3</ele>
        <time>2021-02-20T11:36:32Z</time>
      </trkpt>
      <trkpt lat="45.16445" lon="5.93095">
        <ele>2295.4</ele>
        <time>2021-02-20T11:36:33Z</time>
      </trkpt>
      <trkpt lat="45.16446" lon="5.93094">
        <ele>2295.5</ele>
        <time>2021-02-20T11:36:34Z</time>
      </trkpt>
      <trkpt lat="45.16446" lon="5.93094">
        <ele>2295.6</ele>
        <time>2021-02-20T11:36:35Z</time>
      </trkpt>
      <trkpt lat="45.16447" lon="5.93093">
        <ele>2295.7</ele>
        <time>2021-02-20T11:36:36Z</time>
      </trkpt>
      <trkpt lat="45.16447" lon="5.93092">
        <ele>2295.8</ele>
        <time>2021-02-20T11:36:37Z</time>
      </trkpt>
      <trkpt lat="45.16448" lon="5.93092">
        <ele>2295.9</ele>
        <time>2021-02-20T11:36:38Z</time>
      </trkpt>
      <trkpt lat="45.16448" lon="5.93091">
        <ele>2296</ele>
        <time>2021-02-20T11:36:39Z</time>
      </trkpt>
      <trkpt lat="45.16449" lon="5.93091">
        <ele>2296.1</ele>
        <time>2021-02-20T11:36:40Z</time>
      </trkpt>
      <trkpt lat="45.16449" lon="5.9309">
        <ele>2296.2</ele>
        <time>2021-02-20T11:36:41Z</time>
      </trkpt>
      <trkpt lat="45.1645" lon="5.93089">
        <ele>2296.3</ele>
        <time>2021-02-20T11:36:42Z</time>
      </trkpt>
      <trkpt lat="45.16451" lon="5.93089">
        <ele>2296.4</ele>
        <time>2021-02-20T11:36:43Z</time>
      </trkpt>
      <trkpt lat="45.16451" lon="5.93089">
        <ele>2296.5</ele>
        <time>2021-02-20T11:36:44Z</time>
      </trkpt>
      <trkpt lat="45.16452" lon="5.93088">
        <ele>2296.6</ele>
        <time>2021-02-20T11:36:45Z</time>
      </trkpt>
      <trkpt lat="45.16453" lon="5.93088">
        <ele>2296.7</ele>
        <time>2021-02-20T11:36:46Z</time>
      </trkpt>
      <trkpt lat="45.16453" lon="5.93088">
        <ele>2296.8</ele>
        <time>2021-02-20T11:36:47Z</time>
      </trkpt>
      <trkpt lat="45.16454" lon="5.93088">
        <ele>2296.9</ele>
        <time>2021-02-20T11:36:48Z</time>
      </trkpt>
      <trkpt lat="45.16455" lon="5.93088">
        <ele>2297</ele>
        <time>2021-02-20T11:36:49Z</time>
      </trkpt>
      <trkpt lat="45.16455" lon="5.93088">
        <ele>2297.1</ele>
        <time>2021-02-20T11:36:50Z</time>
      </trkpt>
      <trkpt lat="45.16456" lon="5.93087">
        <ele>2297.2</ele>
        <time>2021-02-20T11:36:51Z</time>
      </trkpt>
      <trkpt lat="45.16456" lon="5.93087">
        <ele>2297.3</ele>
        <time>2021-02-20T11:36:52Z</time>
      </trkpt>
      <trkpt lat="45.16457" lon="5.93087">
        <ele>2297.4</ele>
        <time>2021-02-20T11:36:53Z</time>
      </trkpt>
      <trkpt lat="45.16458" lon="5.93087">
        <ele>2297.5</ele>
        <time>2021-02-20T11:36:54Z</time>
      </trkpt>
      <trkpt lat="45.16458" lon="5.93087">
        <ele>2297.6</ele>
        <time>2021-02-20T11:36:55Z</time>
      </trkpt>
      <trkpt lat="45.16459" lon="5.93087">
        <ele>2297.7</ele>
        <time>2021-02-20T11:36:56Z</time>
      </trkpt>
      <trkpt lat="45.1646" lon="5.93086">
        <ele>2297.8</ele>
        <time>2021-02-20T11:36:57Z</time>
      </trkpt>
      <trkpt lat="45.1646" lon="5.93086">
        <ele>2297.9</ele>
        <time>2021-02-20T11:36:58Z</time>
      </trkpt>
      <trkpt lat="45.16461" lon="5.93085">
        <ele>2298</ele>
        <time>2021-02-20T11:36:59Z</time>
      </trkpt>
      <trkpt lat="45.16461" lon="5.93085">
        <ele>2298</ele>
        <time>2021-02-20T11:37:00Z</time>
      </trkpt>
      <trkpt lat="45.16461" lon="5.93084">
        <ele>2298.1</ele>
        <time>2021-02-20T11:37:01Z</time>
      </trkpt>
      <trkpt lat="45.16461" lon="5.93083">
        <ele>2298.2</ele>
        <time>2021-02-20T11:37:02Z</time>
      </trkpt>
      <trkpt lat="45.1646" lon="5.93082">
        <ele>2298.3</ele>
        <time>2021-02-20T11:37:03Z</time>
      </trkpt>
      <trkpt lat="45.1646" lon="5.93081">
        <ele>2298.4</ele>
        <time>2021-02-20T11:37:04Z</time>
      </trkpt>
      <trkpt lat="45.16459" lon="5.93081">
        <ele>2298.5</ele>
        <time>2021-02-20T11:37:05Z</time>
      </trkpt>
      <trkpt lat="45.16459" lon="5.9308">
        <ele>2298.6</ele>
        <time>2021-02-20T11:37:06Z</time>
      </trkpt>
      <trkpt lat="45.16458" lon="5.9308">
        <ele>2298.7</ele>
        <time>2021-02-20T11:37:07Z</time>
      </trkpt>
      <trkpt lat="45.16458" lon="5.93079">
        <ele>2298.8</ele>
        <time>2021-02-20T11:37:08Z</time>
      </trkpt>
      <trkpt lat="45.16457" lon="5.93079">
        <ele>2298.9</ele>
        <time>2021-02-20T11:37:09Z</time>
      </trkpt>
      <trkpt lat="45.16457" lon="5.93078">
        <ele>2299</ele>
        <time>2021-02-20T11:37:10Z</time>
      </trkpt>
      <trkpt lat="45.16456" lon="5.93078">
        <ele>2299.1</ele>
        <time>2021-02-20T11:37:11Z</time>
      </trkpt>
      <trkpt lat="45.16456" lon="5.93077">
        <ele>2299.2</ele>
        <time>2021-02-20T11:37:12Z</time>
      </trkpt>
      <trkpt lat="45.16455" lon="5.93076">
        <ele>2299.3</ele>
        <time>2021-02-20T11:37:13Z</time>
      </trkpt>
      <trkpt lat="45.16455" lon="5.93076">
        <ele>2299.4</ele>
        <time>2021-02-20T11:37:14Z</time>
      </trkpt>
      <trkpt lat="45.16454" lon="5.93075">
        <ele>2299.5</ele>
        <time>2021-02-20T11:37:15Z</time>
      </trkpt>
      <trkpt lat="45.16454" lon="5.93075">
        <ele>2299.6</ele>
        <time>2021-02-20T11:37:16Z</time>
      </trkpt>
      <trkpt lat="45.16453" lon="5.93075">
        <ele>2299.6</ele>
        <time>2021-02-20T11:37:17Z</time>
      </trkpt>
      <trkpt lat="45.16453" lon="5.93074">
        <ele>2299.7</ele>
        <time>2021-02-20T11:37:18Z</time>
      </trkpt>
      <trkpt lat="45.16452" lon="5.93074">
        <ele>2299.8</ele>
        <time>2021-02-20T11:37:19Z</time>
      </trkpt>
      <trkpt lat="45.16451" lon="5.93073">
        <ele>2299.9</ele>
        <time>2021-02-20T11:37:20Z</time>
      </trkpt>
      <trkpt lat="45.16451" lon="5.93072">
        <ele>2300</ele>
        <time>2021-02-20T11:37:21Z</time>
      </trkpt>
      <trkpt lat="45.1645" lon="5.93071">
        <ele>2300.1</ele>
        <time>2021-02-20T11:37:22Z</time>
      </trkpt>
      <trkpt lat="45.1645" lon="5.9307">
        <ele>2300.3</ele>
        <time>2021-02-20T11:37:23Z</time>
      </trkpt>
      <trkpt lat="45.16449" lon="5.9307">
        <ele>2300.4</ele>
        <time>2021-02-20T11:37:24Z</time>
      </trkpt>
      <trkpt lat="45.16449" lon="5.93069">
        <ele>2300.5</ele>
        <time>2021-02-20T11:37:25Z</time>
      </trkpt>
      <trkpt lat="45.16448" lon="5.93068">
        <ele>2300.6</ele>
        <time>2021-02-20T11:37:26Z</time>
      </trkpt>
      <trkpt lat="45.16448" lon="5.93067">
        <ele>2300.7</ele>
        <time>2021-02-20T11:37:27Z</time>
      </trkpt>
      <trkpt lat="45.16448" lon="5.93066">
        <ele>2300.8</ele>
        <time>2021-02-20T11:37:28Z</time>
      </trkpt>
      <trkpt lat="45.16448" lon="5.93065">
        <ele>2300.9</ele>
        <time>2021-02-20T11:37:29Z</time>
      </trkpt>
      <trkpt lat="45.16447" lon="5.93064">
        <ele>2301</ele>
        <time>2021-02-20T11:37:30Z</time>
      </trkpt>
      <trkpt lat="45.16447" lon="5.93064">
        <ele>2301.1</ele>
        <time>2021-02-20T11:37:31Z</time>
      </trkpt>
      <trkpt lat="45.16446" lon="5.93063">
        <ele>2301.2</ele>
        <time>2021-02-20T11:37:32Z</time>
      </trkpt>
      <trkpt lat="45.16446" lon="5.93063">
        <ele>2301.3</ele>
        <time>2021-02-20T11:37:33Z</time>
      </trkpt>
      <trkpt lat="45.16446" lon="5.93062">
        <ele>2301.4</ele>
        <time>2021-02-20T11:37:34Z</time>
      </trkpt>
      <trkpt lat="45.16445" lon="5.93061">
        <ele>2301.4</ele>
        <time>2021-02-20T11:37:35Z</time>
      </trkpt>
      <trkpt lat="45.16445" lon="5.93061">
        <ele>2301.5</ele>
        <time>2021-02-20T11:37:36Z</time>
      </trkpt>
      <trkpt lat="45.16444" lon="5.9306">
        <ele>2301.6</ele>
        <time>2021-02-20T11:37:37Z</time>
      </trkpt>
      <trkpt lat="45.16444" lon="5.93059">
        <ele>2301.7</ele>
        <time>2021-02-20T11:37:38Z</time>
      </trkpt>
      <trkpt lat="45.16443" lon="5.93059">
        <ele>2301.8</ele>
        <time>2021-02-20T11:37:39Z</time>
      </trkpt>
      <trkpt lat="45.16442" lon="5.93058">
        <ele>2302</ele>
        <time>2021-02-20T11:37:40Z</time>
      </trkpt>
      <trkpt lat="45.16442" lon="5.93058">
        <ele>2302.1</ele>
        <time>2021-02-20T11:37:41Z</time>
      </trkpt>
      <trkpt lat="45.16442" lon="5.93057">
        <ele>2302.2</ele>
        <time>2021-02-20T11:37:42Z</time>
      </trkpt>
      <trkpt lat="45.16441" lon="5.93055">
        <ele>2302.3</ele>
        <time>2021-02-20T11:37:43Z</time>
      </trkpt>
      <trkpt lat="45.16441" lon="5.93055">
        <ele>2302.4</ele>
        <time>2021-02-20T11:37:44Z</time>
      </trkpt>
      <trkpt lat="45.16441" lon="5.93054">
        <ele>2302.5</ele>
        <time>2021-02-20T11:37:45Z</time>
      </trkpt>
      <trkpt lat="45.1644" lon="5.93053">
        <ele>2302.7</ele>
        <time>2021-02-20T11:37:46Z</time>
      </trkpt>
      <trkpt lat="45.1644" lon="5.93053">
        <ele>2302.8</ele>
        <time>2021-02-20T11:37:47Z</time>
      </trkpt>
      <trkpt lat="45.16439" lon="5.93052">
        <ele>2302.9</ele>
        <time>2021-02-20T11:37:48Z</time>
      </trkpt>
      <trkpt lat="45.16439" lon="5.93052">
        <ele>2302.9</ele>
        <time>2021-02-20T11:37:49Z</time>
      </trkpt>
      <trkpt lat="45.16438" lon="5.93051">
        <ele>2303</ele>
        <time>2021-02-20T11:37:50Z</time>
      </trkpt>
      <trkpt lat="45.16438" lon="5.93051">
        <ele>2303.1</ele>
        <time>2021-02-20T11:37:51Z</time>
      </trkpt>
      <trkpt lat="45.16437" lon="5.9305">
        <ele>2303.2</ele>
        <time>2021-02-20T11:37:52Z</time>
      </trkpt>
      <trkpt lat="45.16437" lon="5.9305">
        <ele>2303.3</ele>
        <time>2021-02-20T11:37:53Z</time>
      </trkpt>
      <trkpt lat="45.16436" lon="5.93049">
        <ele>2303.4</ele>
        <time>2021-02-20T11:37:54Z</time>
      </trkpt>
      <trkpt lat="45.16435" lon="5.93049">
        <ele>2303.5</ele>
        <time>2021-02-20T11:37:55Z</time>
      </trkpt>
      <trkpt lat="45.16435" lon="5.93048">
        <ele>2303.6</ele>
        <time>2021-02-20T11:37:56Z</time>
      </trkpt>
      <trkpt lat="45.16434" lon="5.93048">
        <ele>2303.7</ele>
        <time>2021-02-20T11:37:57Z</time>
      </trkpt>
      <trkpt lat="45.16434" lon="5.93048">
        <ele>2303.8</ele>
        <time>2021-02-20T11:37:58Z</time>
      </trkpt>
      <trkpt lat="45.16433" lon="5.93047">
        <ele>2303.9</ele>
        <time>2021-02-20T11:37:59Z</time>
      </trkpt>
      <trkpt lat="45.16433" lon="5.93047">
        <ele>2304</ele>
        <time>2021-02-20T11:38:00Z</time>
      </trkpt>
      <trkpt lat="45.16432" lon="5.93047">
        <ele>2304</ele>
        <time>2021-02-20T11:38:01Z</time>
      </trkpt>
      <trkpt lat="45.16432" lon="5.93046">
        <ele>2304.1</ele>
        <time>2021-02-20T11:38:02Z</time>
      </trkpt>
      <trkpt lat="45.16431" lon="5.93046">
        <ele>2304.2</ele>
        <time>2021-02-20T11:38:03Z</time>
      </trkpt>
      <trkpt lat="45.16431" lon="5.93046">
        <ele>2304.2</ele>
        <time>2021-02-20T11:38:04Z</time>
      </trkpt>
      <trkpt lat="45.16431" lon="5.93046">
        <ele>2304.3</ele>
        <time>2021-02-20T11:38:05Z</time>
      </trkpt>
      <trkpt lat="45.1643" lon="5.93046">
        <ele>2304.3</ele>
        <time>2021-02-20T11:38:06Z</time>
      </trkpt>
      <trkpt lat="45.1643" lon="5.93046">
        <ele>2304.3</ele>
        <time>2021-02-20T11:38:07Z</time>
      </trkpt>
      <trkpt lat="45.1643" lon="5.93046">
        <ele>2304.4</ele>
        <time>2021-02-20T11:38:08Z</time>
      </trkpt>
      <trkpt lat="45.16429" lon="5.93046">
        <ele>2304.5</ele>
        <time>2021-02-20T11:38:09Z</time>
      </trkpt>
      <trkpt lat="45.16429" lon="5.93046">
        <ele>2304.6</ele>
        <time>2021-02-20T11:38:10Z</time>
      </trkpt>
      <trkpt lat="45.16428" lon="5.93047">
        <ele>2304.6</ele>
        <time>2021-02-20T11:38:11Z</time>
      </trkpt>
      <trkpt lat="45.16428" lon="5.93047">
        <ele>2304.7</ele>
        <time>2021-02-20T11:38:12Z</time>
      </trkpt>
      <trkpt lat="45.16428" lon="5.93047">
        <ele>2304.7</ele>
        <time>2021-02-20T11:38:13Z</time>
      </trkpt>
      <trkpt lat="45.16427" lon="5.93047">
        <ele>2304.8</ele>
        <time>2021-02-20T11:38:14Z</time>
      </trkpt>
      <trkpt lat="45.16427" lon="5.93047">
        <ele>2304.9</ele>
        <time>2021-02-20T11:38:15Z</time>
      </trkpt>
      <trkpt lat="45.16426" lon="5.93047">
        <ele>2305</ele>
        <time>2021-02-20T11:38:16Z</time>
      </trkpt>
      <trkpt lat="45.16425" lon="5.93046">
        <ele>2305.2</ele>
        <time>2021-02-20T11:38:17Z</time>
      </trkpt>
      <trkpt lat="45.16424" lon="5.93046">
        <ele>2305.3</ele>
        <time>2021-02-20T11:38:18Z</time>
      </trkpt>
      <trkpt lat="45.16424" lon="5.93045">
        <ele>2305.4</ele>
        <time>2021-02-20T11:38:19Z</time>
      </trkpt>
      <trkpt lat="45.16423" lon="5.93045">
        <ele>2305.5</ele>
        <time>2021-02-20T11:38:20Z</time>
      </trkpt>
      <trkpt lat="45.16422" lon="5.93044">
        <ele>2305.6</ele>
        <time>2021-02-20T11:38:21Z</time>
      </trkpt>
      <trkpt lat="45.16421" lon="5.93044">
        <ele>2305.8</ele>
        <time>2021-02-20T11:38:39Z</time>
      </trkpt>
      <trkpt lat="45.16421" lon="5.93043">
        <ele>2305.9</ele>
        <time>2021-02-20T11:38:40Z</time>
      </trkpt>
      <trkpt lat="45.1642" lon="5.93043">
        <ele>2306</ele>
        <time>2021-02-20T11:38:41Z</time>
      </trkpt>
      <trkpt lat="45.16419" lon="5.93042">
        <ele>2306.1</ele>
        <time>2021-02-20T11:38:42Z</time>
      </trkpt>
      <trkpt lat="45.16419" lon="5.93041">
        <ele>2306.2</ele>
        <time>2021-02-20T11:38:43Z</time>
      </trkpt>
      <trkpt lat="45.16418" lon="5.93041">
        <ele>2306.4</ele>
        <time>2021-02-20T11:38:44Z</time>
      </trkpt>
      <trkpt lat="45.16417" lon="5.9304">
        <ele>2306.5</ele>
        <time>2021-02-20T11:38:45Z</time>
      </trkpt>
      <trkpt lat="45.16417" lon="5.93041">
        <ele>2306.5</ele>
        <time>2021-02-20T11:38:46Z</time>
      </trkpt>
      <trkpt lat="45.16416" lon="5.93041">
        <ele>2306.6</ele>
        <time>2021-02-20T11:38:47Z</time>
      </trkpt>
      <trkpt lat="45.16416" lon="5.93041">
        <ele>2306.6</ele>
        <time>2021-02-20T11:38:48Z</time>
      </trkpt>
      <trkpt lat="45.16415" lon="5.93042">
        <ele>2306.8</ele>
        <time>2021-02-20T11:38:49Z</time>
      </trkpt>
      <trkpt lat="45.16415" lon="5.93043">
        <ele>2306.9</ele>
        <time>2021-02-20T11:38:50Z</time>
      </trkpt>
      <trkpt lat="45.16414" lon="5.93043">
        <ele>2307</ele>
        <time>2021-02-20T11:38:51Z</time>
      </trkpt>
      <trkpt lat="45.16414" lon="5.93043">
        <ele>2307</ele>
        <time>2021-02-20T11:38:52Z</time>
      </trkpt>
      <trkpt lat="45.16414" lon="5.93042">
        <ele>2307.1</ele>
        <time>2021-02-20T11:38:53Z</time>
      </trkpt>
      <trkpt lat="45.16413" lon="5.93042">
        <ele>2307.2</ele>
        <time>2021-02-20T11:38:54Z</time>
      </trkpt>
      <trkpt lat="45.16413" lon="5.93041">
        <ele>2307.2</ele>
        <time>2021-02-20T11:38:55Z</time>
      </trkpt>
      <trkpt lat="45.16413" lon="5.93041">
        <ele>2307.3</ele>
        <time>2021-02-20T11:38:56Z</time>
      </trkpt>
      <trkpt lat="45.16412" lon="5.93041">
        <ele>2307.4</ele>
        <time>2021-02-20T11:38:57Z</time>
      </trkpt>
      <trkpt lat="45.16412" lon="5.9304">
        <ele>2307.4</ele>
        <time>2021-02-20T11:38:58Z</time>
      </trkpt>
      <trkpt lat="45.16412" lon="5.9304">
        <ele>2307.5</ele>
        <time>2021-02-20T11:38:59Z</time>
      </trkpt>
      <trkpt lat="45.16411" lon="5.9304">
        <ele>2307.6</ele>
        <time>2021-02-20T11:39:05Z</time>
      </trkpt>
      <trkpt lat="45.16411" lon="5.93039">
        <ele>2307.6</ele>
        <time>2021-02-20T11:39:06Z</time>
      </trkpt>
      <trkpt lat="45.1641" lon="5.93039">
        <ele>2307.7</ele>
        <time>2021-02-20T11:39:07Z</time>
      </trkpt>
      <trkpt lat="45.1641" lon="5.93038">
        <ele>2307.8</ele>
        <time>2021-02-20T11:39:08Z</time>
      </trkpt>
      <trkpt lat="45.1641" lon="5.93038">
        <ele>2307.8</ele>
        <time>2021-02-20T11:39:09Z</time>
      </trkpt>
      <trkpt lat="45.16409" lon="5.93038">
        <ele>2307.9</ele>
        <time>2021-02-20T11:39:10Z</time>
      </trkpt>
      <trkpt lat="45.16409" lon="5.93037">
        <ele>2308</ele>
        <time>2021-02-20T11:39:11Z</time>
      </trkpt>
      <trkpt lat="45.16409" lon="5.93037">
        <ele>2308</ele>
        <time>2021-02-20T11:39:12Z</time>
      </trkpt>
      <trkpt lat="45.16408" lon="5.93036">
        <ele>2308.1</ele>
        <time>2021-02-20T11:39:13Z</time>
      </trkpt>
      <trkpt lat="45.16408" lon="5.93036">
        <ele>2308.2</ele>
        <time>2021-02-20T11:39:14Z</time>
      </trkpt>
      <trkpt lat="45.16408" lon="5.93034">
        <ele>2308.4</ele>
        <time>2021-02-20T11:39:15Z</time>
      </trkpt>
      <trkpt lat="45.16408" lon="5.93033">
        <ele>2308.5</ele>
        <time>2021-02-20T11:39:16Z</time>
      </trkpt>
      <trkpt lat="45.16408" lon="5.93033">
        <ele>2308.5</ele>
        <time>2021-02-20T11:39:17Z</time>
      </trkpt>
      <trkpt lat="45.16408" lon="5.93032">
        <ele>2308.6</ele>
        <time>2021-02-20T11:39:18Z</time>
      </trkpt>
      <trkpt lat="45.16408" lon="5.93031">
        <ele>2308.7</ele>
        <time>2021-02-20T11:39:19Z</time>
      </trkpt>
      <trkpt lat="45.16408" lon="5.9303">
        <ele>2308.8</ele>
        <time>2021-02-20T11:39:20Z</time>
      </trkpt>
      <trkpt lat="45.16407" lon="5.9303">
        <ele>2308.9</ele>
        <time>2021-02-20T11:39:21Z</time>
      </trkpt>
      <trkpt lat="45.16406" lon="5.93029">
        <ele>2309</ele>
        <time>2021-02-20T11:39:22Z</time>
      </trkpt>
      <trkpt lat="45.16406" lon="5.93028">
        <ele>2309.2</ele>
        <time>2021-02-20T11:39:23Z</time>
      </trkpt>
      <trkpt lat="45.16405" lon="5.93028">
        <ele>2309.2</ele>
        <time>2021-02-20T11:39:24Z</time>
      </trkpt>
      <trkpt lat="45.16405" lon="5.93028">
        <ele>2309.3</ele>
        <time>2021-02-20T11:39:25Z</time>
      </trkpt>
      <trkpt lat="45.16404" lon="5.93027">
        <ele>2309.4</ele>
        <time>2021-02-20T11:39:26Z</time>
      </trkpt>
      <trkpt lat="45.16404" lon="5.93027">
        <ele>2309.4</ele>
        <time>2021-02-20T11:39:27Z</time>
      </trkpt>
      <trkpt lat="45.16403" lon="5.93027">
        <ele>2309.5</ele>
        <time>2021-02-20T11:39:28Z</time>
      </trkpt>
      <trkpt lat="45.16403" lon="5.93027">
        <ele>2309.6</ele>
        <time>2021-02-20T11:39:29Z</time>
      </trkpt>
      <trkpt lat="45.16402" lon="5.93026">
        <ele>2309.7</ele>
        <time>2021-02-20T11:39:30Z</time>
      </trkpt>
      <trkpt lat="45.16402" lon="5.93026">
        <ele>2309.8</ele>
        <time>2021-02-20T11:39:31Z</time>
      </trkpt>
      <trkpt lat="45.16401" lon="5.93026">
        <ele>2309.9</ele>
        <time>2021-02-20T11:39:32Z</time>
      </trkpt>
      <trkpt lat="45.16401" lon="5.93026">
        <ele>2310</ele>
        <time>2021-02-20T11:39:33Z</time>
      </trkpt>
      <trkpt lat="45.164" lon="5.93025">
        <ele>2310</ele>
        <time>2021-02-20T11:39:34Z</time>
      </trkpt>
      <trkpt lat="45.164" lon="5.93025">
        <ele>2310.1</ele>
        <time>2021-02-20T11:39:35Z</time>
      </trkpt>
      <trkpt lat="45.164" lon="5.93025">
        <ele>2310.2</ele>
        <time>2021-02-20T11:39:36Z</time>
      </trkpt>
      <trkpt lat="45.16399" lon="5.93025">
        <ele>2310.2</ele>
        <time>2021-02-20T11:39:37Z</time>
      </trkpt>
      <trkpt lat="45.16399" lon="5.93025">
        <ele>2310.3</ele>
        <time>2021-02-20T11:39:38Z</time>
      </trkpt>
      <trkpt lat="45.16399" lon="5.93024">
        <ele>2310.4</ele>
        <time>2021-02-20T11:39:39Z</time>
      </trkpt>
      <trkpt lat="45.16399" lon="5.93023">
        <ele>2310.4</ele>
        <time>2021-02-20T11:39:40Z</time>
      </trkpt>
      <trkpt lat="45.16398" lon="5.93023">
        <ele>2310.5</ele>
        <time>2021-02-20T11:39:41Z</time>
      </trkpt>
      <trkpt lat="45.16398" lon="5.93022">
        <ele>2310.6</ele>
        <time>2021-02-20T11:39:42Z</time>
      </trkpt>
      <trkpt lat="45.16397" lon="5.93021">
        <ele>2310.7</ele>
        <time>2021-02-20T11:39:43Z</time>
      </trkpt>
      <trkpt lat="45.16397" lon="5.93021">
        <ele>2310.8</ele>
        <time>2021-02-20T11:39:44Z</time>
      </trkpt>
      <trkpt lat="45.16396" lon="5.9302">
        <ele>2310.9</ele>
        <time>2021-02-20T11:39:45Z</time>
      </trkpt>
      <trkpt lat="45.16396" lon="5.93019">
        <ele>2311</ele>
        <time>2021-02-20T11:39:46Z</time>
      </trkpt>
      <trkpt lat="45.16396" lon="5.93018">
        <ele>2311.1</ele>
        <time>2021-02-20T11:39:47Z</time>
      </trkpt>
      <trkpt lat="45.16396" lon="5.93018">
        <ele>2311.2</ele>
        <time>2021-02-20T11:39:48Z</time>
      </trkpt>
      <trkpt lat="45.16396" lon="5.93017">
        <ele>2311.2</ele>
        <time>2021-02-20T11:39:49Z</time>
      </trkpt>
      <trkpt lat="45.16395" lon="5.93016">
        <ele>2311.3</ele>
        <time>2021-02-20T11:39:50Z</time>
      </trkpt>
      <trkpt lat="45.16395" lon="5.93016">
        <ele>2311.4</ele>
        <time>2021-02-20T11:39:51Z</time>
      </trkpt>
      <trkpt lat="45.16394" lon="5.93015">
        <ele>2311.5</ele>
        <time>2021-02-20T11:39:52Z</time>
      </trkpt>
      <trkpt lat="45.16394" lon="5.93015">
        <ele>2311.6</ele>
        <time>2021-02-20T11:39:53Z</time>
      </trkpt>
      <trkpt lat="45.16394" lon="5.93015">
        <ele>2311.6</ele>
        <time>2021-02-20T11:39:54Z</time>
      </trkpt>
      <trkpt lat="45.16393" lon="5.93015">
        <ele>2311.7</ele>
        <time>2021-02-20T11:39:55Z</time>
      </trkpt>
      <trkpt lat="45.16394" lon="5.93015">
        <ele>2311.8</ele>
        <time>2021-02-20T11:39:56Z</time>
      </trkpt>
      <trkpt lat="45.16394" lon="5.93015">
        <ele>2311.9</ele>
        <time>2021-02-20T11:39:57Z</time>
      </trkpt>
      <trkpt lat="45.16395" lon="5.93015">
        <ele>2312</ele>
        <time>2021-02-20T11:39:58Z</time>
      </trkpt>
      <trkpt lat="45.16396" lon="5.93015">
        <ele>2312.1</ele>
        <time>2021-02-20T11:39:59Z</time>
      </trkpt>
      <trkpt lat="45.16397" lon="5.93015">
        <ele>2312.3</ele>
        <time>2021-02-20T11:40:00Z</time>
      </trkpt>
      <trkpt lat="45.16398" lon="5.93015">
        <ele>2312.4</ele>
        <time>2021-02-20T11:40:01Z</time>
      </trkpt>
      <trkpt lat="45.16399" lon="5.93015">
        <ele>2312.5</ele>
        <time>2021-02-20T11:40:02Z</time>
      </trkpt>
      <trkpt lat="45.16399" lon="5.93015">
        <ele>2312.6</ele>
        <time>2021-02-20T11:40:03Z</time>
      </trkpt>
      <trkpt lat="45.164" lon="5.93015">
        <ele>2312.7</ele>
        <time>2021-02-20T11:40:28Z</time>
      </trkpt>
      <trkpt lat="45.16401" lon="5.93015">
        <ele>2312.9</ele>
        <time>2021-02-20T11:40:29Z</time>
      </trkpt>
      <trkpt lat="45.16402" lon="5.93015">
        <ele>2313</ele>
        <time>2021-02-20T11:40:30Z</time>
      </trkpt>
      <trkpt lat="45.16403" lon="5.93015">
        <ele>2313.1</ele>
        <time>2021-02-20T11:40:31Z</time>
      </trkpt>
      <trkpt lat="45.16403" lon="5.93015">
        <ele>2313.2</ele>
        <time>2021-02-20T11:40:32Z</time>
      </trkpt>
      <trkpt lat="45.16404" lon="5.93015">
        <ele>2313.3</ele>
        <time>2021-02-20T11:40:33Z</time>
      </trkpt>
      <trkpt lat="45.16404" lon="5.93015">
        <ele>2313.3</ele>
        <time>2021-02-20T11:40:34Z</time>
      </trkpt>
      <trkpt lat="45.16405" lon="5.93015">
        <ele>2313.4</ele>
        <time>2021-02-20T11:40:35Z</time>
      </trkpt>
      <trkpt lat="45.16405" lon="5.93015">
        <ele>2313.5</ele>
        <time>2021-02-20T11:40:36Z</time>
      </trkpt>
      <trkpt lat="45.16406" lon="5.93015">
        <ele>2313.6</ele>
        <time>2021-02-20T11:40:37Z</time>
      </trkpt>
      <trkpt lat="45.16406" lon="5.93016">
        <ele>2313.7</ele>
        <time>2021-02-20T11:40:38Z</time>
      </trkpt>
      <trkpt lat="45.16407" lon="5.93016">
        <ele>2313.7</ele>
        <time>2021-02-20T11:40:39Z</time>
      </trkpt>
      <trkpt lat="45.16407" lon="5.93015">
        <ele>2313.8</ele>
        <time>2021-02-20T11:40:40Z</time>
      </trkpt>
      <trkpt lat="45.16408" lon="5.93015">
        <ele>2313.9</ele>
        <time>2021-02-20T11:40:41Z</time>
      </trkpt>
      <trkpt lat="45.16409" lon="5.93015">
        <ele>2314</ele>
        <time>2021-02-20T11:40:42Z</time>
      </trkpt>
      <trkpt lat="45.16409" lon="5.93015">
        <ele>2314.1</ele>
        <time>2021-02-20T11:40:43Z</time>
      </trkpt>
      <trkpt lat="45.1641" lon="5.93014">
        <ele>2314.2</ele>
        <time>2021-02-20T11:40:44Z</time>
      </trkpt>
      <trkpt lat="45.16411" lon="5.93014">
        <ele>2314.3</ele>
        <time>2021-02-20T11:40:45Z</time>
      </trkpt>
      <trkpt lat="45.16411" lon="5.93014">
        <ele>2314.4</ele>
        <time>2021-02-20T11:40:46Z</time>
      </trkpt>
      <trkpt lat="45.16412" lon="5.93014">
        <ele>2314.5</ele>
        <time>2021-02-20T11:40:47Z</time>
      </trkpt>
      <trkpt lat="45.16412" lon="5.93013">
        <ele>2314.6</ele>
        <time>2021-02-20T11:40:48Z</time>
      </trkpt>
      <trkpt lat="45.16413" lon="5.93013">
        <ele>2314.7</ele>
        <time>2021-02-20T11:40:49Z</time>
      </trkpt>
      <trkpt lat="45.16413" lon="5.93013">
        <ele>2314.7</ele>
        <time>2021-02-20T11:40:50Z</time>
      </trkpt>
      <trkpt lat="45.16414" lon="5.93013">
        <ele>2314.8</ele>
        <time>2021-02-20T11:40:51Z</time>
      </trkpt>
      <trkpt lat="45.16414" lon="5.93013">
        <ele>2314.9</ele>
        <time>2021-02-20T11:40:52Z</time>
      </trkpt>
      <trkpt lat="45.16415" lon="5.93013">
        <ele>2315</ele>
        <time>2021-02-20T11:40:53Z</time>
      </trkpt>
      <trkpt lat="45.16416" lon="5.93012">
        <ele>2315.1</ele>
        <time>2021-02-20T11:40:54Z</time>
      </trkpt>
      <trkpt lat="45.16416" lon="5.93012">
        <ele>2315.2</ele>
        <time>2021-02-20T11:40:55Z</time>
      </trkpt>
      <trkpt lat="45.16417" lon="5.93012">
        <ele>2315.2</ele>
        <time>2021-02-20T11:40:56Z</time>
      </trkpt>
      <trkpt lat="45.16417" lon="5.93011">
        <ele>2315.3</ele>
        <time>2021-02-20T11:40:57Z</time>
      </trkpt>
      <trkpt lat="45.16417" lon="5.93011">
        <ele>2315.4</ele>
        <time>2021-02-20T11:40:58Z</time>
      </trkpt>
      <trkpt lat="45.16418" lon="5.9301">
        <ele>2315.5</ele>
        <time>2021-02-20T11:40:59Z</time>
      </trkpt>
      <trkpt lat="45.16418" lon="5.9301">
        <ele>2315.6</ele>
        <time>2021-02-20T11:41:00Z</time>
      </trkpt>
      <trkpt lat="45.16419" lon="5.93008">
        <ele>2315.7</ele>
        <time>2021-02-20T11:41:01Z</time>
      </trkpt>
      <trkpt lat="45.16419" lon="5.93008">
        <ele>2315.8</ele>
        <time>2021-02-20T11:41:02Z</time>
      </trkpt>
      <trkpt lat="45.1642" lon="5.93007">
        <ele>2316</ele>
        <time>2021-02-20T11:41:03Z</time>
      </trkpt>
      <trkpt lat="45.1642" lon="5.93006">
        <ele>2316.1</ele>
        <time>2021-02-20T11:41:04Z</time>
      </trkpt>
      <trkpt lat="45.1642" lon="5.93005">
        <ele>2316.1</ele>
        <time>2021-02-20T11:41:05Z</time>
      </trkpt>
      <trkpt lat="45.16421" lon="5.93005">
        <ele>2316.2</ele>
        <time>2021-02-20T11:41:06Z</time>
      </trkpt>
      <trkpt lat="45.16421" lon="5.93004">
        <ele>2316.3</ele>
        <time>2021-02-20T11:41:07Z</time>
      </trkpt>
      <trkpt lat="45.16421" lon="5.93003">
        <ele>2316.3</ele>
        <time>2021-02-20T11:41:08Z</time>
      </trkpt>
      <trkpt lat="45.16422" lon="5.93003">
        <ele>2316.4</ele>
        <time>2021-02-20T11:41:09Z</time>
      </trkpt>
      <trkpt lat="45.16422" lon="5.93002">
        <ele>2316.5</ele>
        <time>2021-02-20T11:41:10Z</time>
      </trkpt>
      <trkpt lat="45.16423" lon="5.93001">
        <ele>2316.6</ele>
        <time>2021-02-20T11:41:11Z</time>
      </trkpt>
      <trkpt lat="45.16423" lon="5.93001">
        <ele>2316.7</ele>
        <time>2021-02-20T11:41:12Z</time>
      </trkpt>
      <trkpt lat="45.16424" lon="5.93001">
        <ele>2316.8</ele>
        <time>2021-02-20T11:41:13Z</time>
      </trkpt>
      <trkpt lat="45.16424" lon="5.93001">
        <ele>2316.9</ele>
        <time>2021-02-20T11:41:14Z</time>
      </trkpt>
      <trkpt lat="45.16425" lon="5.93">
        <ele>2317</ele>
        <time>2021-02-20T11:41:15Z</time>
      </trkpt>
      <trkpt lat="45.16425" lon="5.93">
        <ele>2317.1</ele>
        <time>2021-02-20T11:41:16Z</time>
      </trkpt>
      <trkpt lat="45.16426" lon="5.93">
        <ele>2317.2</ele>
        <time>2021-02-20T11:41:17Z</time>
      </trkpt>
      <trkpt lat="45.16426" lon="5.92999">
        <ele>2317.2</ele>
        <time>2021-02-20T11:41:18Z</time>
      </trkpt>
      <trkpt lat="45.16427" lon="5.92999">
        <ele>2317.3</ele>
        <time>2021-02-20T11:41:19Z</time>
      </trkpt>
      <trkpt lat="45.16427" lon="5.92998">
        <ele>2317.4</ele>
        <time>2021-02-20T11:41:20Z</time>
      </trkpt>
      <trkpt lat="45.16427" lon="5.92998">
        <ele>2317.4</ele>
        <time>2021-02-20T11:41:21Z</time>
      </trkpt>
      <trkpt lat="45.16428" lon="5.92998">
        <ele>2317.5</ele>
        <time>2021-02-20T11:41:22Z</time>
      </trkpt>
      <trkpt lat="45.16428" lon="5.92998">
        <ele>2317.6</ele>
        <time>2021-02-20T11:41:23Z</time>
      </trkpt>
      <trkpt lat="45.16429" lon="5.92998">
        <ele>2317.6</ele>
        <time>2021-02-20T11:41:24Z</time>
      </trkpt>
      <trkpt lat="45.16429" lon="5.92998">
        <ele>2317.7</ele>
        <time>2021-02-20T11:41:25Z</time>
      </trkpt>
      <trkpt lat="45.1643" lon="5.92998">
        <ele>2317.8</ele>
        <time>2021-02-20T11:41:26Z</time>
      </trkpt>
      <trkpt lat="45.1643" lon="5.92998">
        <ele>2317.8</ele>
        <time>2021-02-20T11:41:27Z</time>
      </trkpt>
      <trkpt lat="45.16431" lon="5.92997">
        <ele>2318</ele>
        <time>2021-02-20T11:41:28Z</time>
      </trkpt>
      <trkpt lat="45.16432" lon="5.92996">
        <ele>2318.1</ele>
        <time>2021-02-20T11:41:29Z</time>
      </trkpt>
      <trkpt lat="45.16432" lon="5.92995">
        <ele>2318.2</ele>
        <time>2021-02-20T11:41:30Z</time>
      </trkpt>
      <trkpt lat="45.16433" lon="5.92995">
        <ele>2318.3</ele>
        <time>2021-02-20T11:41:31Z</time>
      </trkpt>
      <trkpt lat="45.16433" lon="5.92995">
        <ele>2318.4</ele>
        <time>2021-02-20T11:41:32Z</time>
      </trkpt>
      <trkpt lat="45.16433" lon="5.92995">
        <ele>2318.4</ele>
        <time>2021-02-20T11:41:33Z</time>
      </trkpt>
      <trkpt lat="45.16434" lon="5.92995">
        <ele>2318.5</ele>
        <time>2021-02-20T11:41:34Z</time>
      </trkpt>
      <trkpt lat="45.16434" lon="5.92995">
        <ele>2318.6</ele>
        <time>2021-02-20T11:41:35Z</time>
      </trkpt>
      <trkpt lat="45.16435" lon="5.92995">
        <ele>2318.7</ele>
        <time>2021-02-20T11:41:36Z</time>
      </trkpt>
      <trkpt lat="45.16436" lon="5.92995">
        <ele>2318.8</ele>
        <time>2021-02-20T11:41:37Z</time>
      </trkpt>
      <trkpt lat="45.16436" lon="5.92995">
        <ele>2318.9</ele>
        <time>2021-02-20T11:41:38Z</time>
      </trkpt>
      <trkpt lat="45.16437" lon="5.92994">
        <ele>2319</ele>
        <time>2021-02-20T11:41:39Z</time>
      </trkpt>
      <trkpt lat="45.16438" lon="5.92994">
        <ele>2319.1</ele>
        <time>2021-02-20T11:41:40Z</time>
      </trkpt>
      <trkpt lat="45.16439" lon="5.92993">
        <ele>2319.2</ele>
        <time>2021-02-20T11:41:41Z</time>
      </trkpt>
      <trkpt lat="45.16439" lon="5.92993">
        <ele>2319.3</ele>
        <time>2021-02-20T11:41:42Z</time>
      </trkpt>
      <trkpt lat="45.1644" lon="5.92992">
        <ele>2319.4</ele>
        <time>2021-02-20T11:41:43Z</time>
      </trkpt>
      <trkpt lat="45.1644" lon="5.92992">
        <ele>2319.5</ele>
        <time>2021-02-20T11:41:44Z</time>
      </trkpt>
      <trkpt lat="45.16441" lon="5.92992">
        <ele>2319.6</ele>
        <time>2021-02-20T11:41:45Z</time>
      </trkpt>
      <trkpt lat="45.16441" lon="5.92992">
        <ele>2319.6</ele>
        <time>2021-02-20T11:41:46Z</time>
      </trkpt>
      <trkpt lat="45.16442" lon="5.92992">
        <ele>2319.7</ele>
        <time>2021-02-20T11:41:47Z</time>
      </trkpt>
      <trkpt lat="45.16442" lon="5.92992">
        <ele>2319.8</ele>
        <time>2021-02-20T11:41:48Z</time>
      </trkpt>
      <trkpt lat="45.16443" lon="5.92992">
        <ele>2319.9</ele>
        <time>2021-02-20T11:41:49Z</time>
      </trkpt>
      <trkpt lat="45.16443" lon="5.92991">
        <ele>2320</ele>
        <time>2021-02-20T11:41:50Z</time>
      </trkpt>
      <trkpt lat="45.16444" lon="5.92992">
        <ele>2320</ele>
        <time>2021-02-20T11:41:51Z</time>
      </trkpt>
      <trkpt lat="45.16444" lon="5.92991">
        <ele>2320.1</ele>
        <time>2021-02-20T11:41:52Z</time>
      </trkpt>
      <trkpt lat="45.16443" lon="5.9299">
        <ele>2320.2</ele>
        <time>2021-02-20T11:41:53Z</time>
      </trkpt>
      <trkpt lat="45.16443" lon="5.9299">
        <ele>2320.3</ele>
        <time>2021-02-20T11:41:54Z</time>
      </trkpt>
      <trkpt lat="45.16443" lon="5.92989">
        <ele>2320.4</ele>
        <time>2021-02-20T11:41:55Z</time>
      </trkpt>
      <trkpt lat="45.16443" lon="5.92988">
        <ele>2320.4</ele>
        <time>2021-02-20T11:41:56Z</time>
      </trkpt>
      <trkpt lat="45.16442" lon="5.92988">
        <ele>2320.5</ele>
        <time>2021-02-20T11:41:57Z</time>
      </trkpt>
      <trkpt lat="45.16442" lon="5.92987">
        <ele>2320.6</ele>
        <time>2021-02-20T11:41:58Z</time>
      </trkpt>
      <trkpt lat="45.16442" lon="5.92986">
        <ele>2320.7</ele>
        <time>2021-02-20T11:41:59Z</time>
      </trkpt>
      <trkpt lat="45.16441" lon="5.92986">
        <ele>2320.8</ele>
        <time>2021-02-20T11:42:00Z</time>
      </trkpt>
      <trkpt lat="45.16441" lon="5.92985">
        <ele>2320.8</ele>
        <time>2021-02-20T11:42:01Z</time>
      </trkpt>
      <trkpt lat="45.16441" lon="5.92984">
        <ele>2320.9</ele>
        <time>2021-02-20T11:42:38Z</time>
      </trkpt>
      <trkpt lat="45.16441" lon="5.92984">
        <ele>2321</ele>
        <time>2021-02-20T11:42:39Z</time>
      </trkpt>
      <trkpt lat="45.1644" lon="5.92983">
        <ele>2321.1</ele>
        <time>2021-02-20T11:42:40Z</time>
      </trkpt>
      <trkpt lat="45.1644" lon="5.92983">
        <ele>2321.2</ele>
        <time>2021-02-20T11:42:41Z</time>
      </trkpt>
      <trkpt lat="45.16439" lon="5.92982">
        <ele>2321.3</ele>
        <time>2021-02-20T11:42:42Z</time>
      </trkpt>
      <trkpt lat="45.16439" lon="5.92982">
        <ele>2321.3</ele>
        <time>2021-02-20T11:42:43Z</time>
      </trkpt>
      <trkpt lat="45.16439" lon="5.92981">
        <ele>2321.3</ele>
        <time>2021-02-20T11:42:44Z</time>
      </trkpt>
      <trkpt lat="45.16439" lon="5.92981">
        <ele>2321.4</ele>
        <time>2021-02-20T11:42:45Z</time>
      </trkpt>
      <trkpt lat="45.16438" lon="5.9298">
        <ele>2321.5</ele>
        <time>2021-02-20T11:42:46Z</time>
      </trkpt>
      <trkpt lat="45.16438" lon="5.92979">
        <ele>2321.6</ele>
        <time>2021-02-20T11:42:47Z</time>
      </trkpt>
      <trkpt lat="45.16438" lon="5.92978">
        <ele>2321.7</ele>
        <time>2021-02-20T11:42:48Z</time>
      </trkpt>
      <trkpt lat="45.16438" lon="5.92977">
        <ele>2321.8</ele>
        <time>2021-02-20T11:42:49Z</time>
      </trkpt>
      <trkpt lat="45.16438" lon="5.92976">
        <ele>2321.9</ele>
        <time>2021-02-20T11:42:50Z</time>
      </trkpt>
      <trkpt lat="45.16438" lon="5.92975">
        <ele>2322</ele>
        <time>2021-02-20T11:42:51Z</time>
      </trkpt>
      <trkpt lat="45.16439" lon="5.92975">
        <ele>2322.2</ele>
        <time>2021-02-20T11:42:52Z</time>
      </trkpt>
      <trkpt lat="45.1644" lon="5.92974">
        <ele>2322.3</ele>
        <time>2021-02-20T11:42:53Z</time>
      </trkpt>
      <trkpt lat="45.1644" lon="5.92974">
        <ele>2322.4</ele>
        <time>2021-02-20T11:42:54Z</time>
      </trkpt>
      <trkpt lat="45.16441" lon="5.92975">
        <ele>2322.5</ele>
        <time>2021-02-20T11:42:55Z</time>
      </trkpt>
      <trkpt lat="45.16442" lon="5.92975">
        <ele>2322.6</ele>
        <time>2021-02-20T11:42:56Z</time>
      </trkpt>
      <trkpt lat="45.16443" lon="5.92975">
        <ele>2322.7</ele>
        <time>2021-02-20T11:42:57Z</time>
      </trkpt>
      <trkpt lat="45.16443" lon="5.92975">
        <ele>2322.8</ele>
        <time>2021-02-20T11:42:58Z</time>
      </trkpt>
      <trkpt lat="45.16444" lon="5.92976">
        <ele>2323</ele>
        <time>2021-02-20T11:42:59Z</time>
      </trkpt>
      <trkpt lat="45.16445" lon="5.92977">
        <ele>2323.1</ele>
        <time>2021-02-20T11:43:00Z</time>
      </trkpt>
      <trkpt lat="45.16446" lon="5.92977">
        <ele>2323.2</ele>
        <time>2021-02-20T11:43:01Z</time>
      </trkpt>
      <trkpt lat="45.16446" lon="5.92977">
        <ele>2323.3</ele>
        <time>2021-02-20T11:43:02Z</time>
      </trkpt>
      <trkpt lat="45.16447" lon="5.92978">
        <ele>2323.4</ele>
        <time>2021-02-20T11:43:03Z</time>
      </trkpt>
      <trkpt lat="45.16448" lon="5.92978">
        <ele>2323.6</ele>
        <time>2021-02-20T11:43:04Z</time>
      </trkpt>
      <trkpt lat="45.16448" lon="5.92978">
        <ele>2323.6</ele>
        <time>2021-02-20T11:43:05Z</time>
      </trkpt>
      <trkpt lat="45.16448" lon="5.92978">
        <ele>2323.6</ele>
        <time>2021-02-20T11:43:06Z</time>
      </trkpt>
      <trkpt lat="45.16448" lon="5.92978">
        <ele>2323.6</ele>
        <time>2021-02-20T11:43:07Z</time>
      </trkpt>
      <trkpt lat="45.16449" lon="5.92978">
        <ele>2323.7</ele>
        <time>2021-02-20T11:43:08Z</time>
      </trkpt>
      <trkpt lat="45.16449" lon="5.92977">
        <ele>2323.7</ele>
        <time>2021-02-20T11:43:09Z</time>
      </trkpt>
      <trkpt lat="45.16449" lon="5.92977">
        <ele>2323.7</ele>
        <time>2021-02-20T11:43:10Z</time>
      </trkpt>
      <trkpt lat="45.16449" lon="5.92977">
        <ele>2323.7</ele>
        <time>2021-02-20T11:43:11Z</time>
      </trkpt>
      <trkpt lat="45.16449" lon="5.92977">
        <ele>2323.8</ele>
        <time>2021-02-20T11:43:12Z</time>
      </trkpt>
      <trkpt lat="45.1645" lon="5.92977">
        <ele>2323.8</ele>
        <time>2021-02-20T11:43:13Z</time>
      </trkpt>
      <trkpt lat="45.1645" lon="5.92977">
        <ele>2323.8</ele>
        <time>2021-02-20T11:43:14Z</time>
      </trkpt>
      <trkpt lat="45.1645" lon="5.92977">
        <ele>2323.9</ele>
        <time>2021-02-20T11:44:07Z</time>
      </trkpt>
      <trkpt lat="45.1645" lon="5.92977">
        <ele>2323.9</ele>
        <time>2021-02-20T11:44:08Z</time>
      </trkpt>
      <trkpt lat="45.1645" lon="5.92977">
        <ele>2323.9</ele>
        <time>2021-02-20T11:44:09Z</time>
      </trkpt>
      <trkpt lat="45.1645" lon="5.92977">
        <ele>2323.9</ele>
        <time>2021-02-20T11:44:10Z</time>
      </trkpt>
      <trkpt lat="45.16451" lon="5.92977">
        <ele>2324</ele>
        <time>2021-02-20T11:44:11Z</time>
      </trkpt>
      <trkpt lat="45.16451" lon="5.92977">
        <ele>2324</ele>
        <time>2021-02-20T11:44:12Z</time>
      </trkpt>
      <trkpt lat="45.16451" lon="5.92977">
        <ele>2324</ele>
        <time>2021-02-20T11:44:13Z</time>
      </trkpt>
      <trkpt lat="45.16451" lon="5.92977">
        <ele>2324.1</ele>
        <time>2021-02-20T11:44:14Z</time>
      </trkpt>
      <trkpt lat="45.16451" lon="5.92976">
        <ele>2324.1</ele>
        <time>2021-02-20T11:44:15Z</time>
      </trkpt>
      <trkpt lat="45.16451" lon="5.92976">
        <ele>2324.1</ele>
        <time>2021-02-20T11:44:16Z</time>
      </trkpt>
      <trkpt lat="45.16452" lon="5.92976">
        <ele>2324.1</ele>
        <time>2021-02-20T11:44:17Z</time>
      </trkpt>
      <trkpt lat="45.16452" lon="5.92976">
        <ele>2324.2</ele>
        <time>2021-02-20T11:44:18Z</time>
      </trkpt>
      <trkpt lat="45.16451" lon="5.92975">
        <ele>2324.3</ele>
        <time>2021-02-20T11:44:19Z</time>
      </trkpt>
      <trkpt lat="45.16451" lon="5.92974">
        <ele>2324.4</ele>
        <time>2021-02-20T11:44:20Z</time>
      </trkpt>
      <trkpt lat="45.1645" lon="5.92973">
        <ele>2324.5</ele>
        <time>2021-02-20T11:44:21Z</time>
      </trkpt>
      <trkpt lat="45.1645" lon="5.92972">
        <ele>2324.7</ele>
        <time>2021-02-20T11:44:22Z</time>
      </trkpt>
      <trkpt lat="45.1645" lon="5.92971">
        <ele>2324.8</ele>
        <time>2021-02-20T11:44:23Z</time>
      </trkpt>
      <trkpt lat="45.1645" lon="5.9297">
        <ele>2324.9</ele>
        <time>2021-02-20T11:44:24Z</time>
      </trkpt>
      <trkpt lat="45.1645" lon="5.92969">
        <ele>2325</ele>
        <time>2021-02-20T11:44:25Z</time>
      </trkpt>
      <trkpt lat="45.16449" lon="5.92967">
        <ele>2325.2</ele>
        <time>2021-02-20T11:44:26Z</time>
      </trkpt>
      <trkpt lat="45.16449" lon="5.92966">
        <ele>2325.3</ele>
        <time>2021-02-20T11:44:27Z</time>
      </trkpt>
      <trkpt lat="45.16449" lon="5.92965">
        <ele>2325.5</ele>
        <time>2021-02-20T11:44:28Z</time>
      </trkpt>
      <trkpt lat="45.16449" lon="5.92964">
        <ele>2325.6</ele>
        <time>2021-02-20T11:44:29Z</time>
      </trkpt>
      <trkpt lat="45.16449" lon="5.92963">
        <ele>2325.7</ele>
        <time>2021-02-20T11:44:30Z</time>
      </trkpt>
      <trkpt lat="45.16448" lon="5.92961">
        <ele>2325.9</ele>
        <time>2021-02-20T11:44:31Z</time>
      </trkpt>
      <trkpt lat="45.16448" lon="5.92959">
        <ele>2326</ele>
        <time>2021-02-20T11:44:32Z</time>
      </trkpt>
      <trkpt lat="45.16448" lon="5.92958">
        <ele>2326.2</ele>
        <time>2021-02-20T11:44:33Z</time>
      </trkpt>
      <trkpt lat="45.16448" lon="5.92957">
        <ele>2326.3</ele>
        <time>2021-02-20T11:44:34Z</time>
      </trkpt>
      <trkpt lat="45.16447" lon="5.92957">
        <ele>2326.3</ele>
        <time>2021-02-20T11:44:35Z</time>
      </trkpt>
      <trkpt lat="45.16447" lon="5.92956">
        <ele>2326.4</ele>
        <time>2021-02-20T11:44:36Z</time>
      </trkpt>
      <trkpt lat="45.16447" lon="5.92955">
        <ele>2326.5</ele>
        <time>2021-02-20T11:44:37Z</time>
      </trkpt>
      <trkpt lat="45.16447" lon="5.92954">
        <ele>2326.6</ele>
        <time>2021-02-20T11:44:38Z</time>
      </trkpt>
      <trkpt lat="45.16447" lon="5.92953">
        <ele>2326.8</ele>
        <time>2021-02-20T11:44:39Z</time>
      </trkpt>
      <trkpt lat="45.16447" lon="5.92951">
        <ele>2326.9</ele>
        <time>2021-02-20T11:44:40Z</time>
      </trkpt>
      <trkpt lat="45.16447" lon="5.92951">
        <ele>2327</ele>
        <time>2021-02-20T11:44:41Z</time>
      </trkpt>
      <trkpt lat="45.16447" lon="5.9295">
        <ele>2327.1</ele>
        <time>2021-02-20T11:44:42Z</time>
      </trkpt>
      <trkpt lat="45.16446" lon="5.9295">
        <ele>2327.2</ele>
        <time>2021-02-20T11:44:43Z</time>
      </trkpt>
      <trkpt lat="45.16446" lon="5.92949">
        <ele>2327.3</ele>
        <time>2021-02-20T11:44:44Z</time>
      </trkpt>
      <trkpt lat="45.16445" lon="5.92948">
        <ele>2327.4</ele>
        <time>2021-02-20T11:44:45Z</time>
      </trkpt>
      <trkpt lat="45.16445" lon="5.92947">
        <ele>2327.5</ele>
        <time>2021-02-20T11:44:46Z</time>
      </trkpt>
      <trkpt lat="45.16444" lon="5.92947">
        <ele>2327.5</ele>
        <time>2021-02-20T11:44:47Z</time>
      </trkpt>
      <trkpt lat="45.16444" lon="5.92946">
        <ele>2327.7</ele>
        <time>2021-02-20T11:44:48Z</time>
      </trkpt>
      <trkpt lat="45.16444" lon="5.92945">
        <ele>2327.8</ele>
        <time>2021-02-20T11:44:49Z</time>
      </trkpt>
      <trkpt lat="45.16444" lon="5.92944">
        <ele>2327.9</ele>
        <time>2021-02-20T11:44:50Z</time>
      </trkpt>
      <trkpt lat="45.16444" lon="5.92943">
        <ele>2328</ele>
        <time>2021-02-20T11:44:51Z</time>
      </trkpt>
      <trkpt lat="45.16444" lon="5.92942">
        <ele>2328.1</ele>
        <time>2021-02-20T11:44:52Z</time>
      </trkpt>
      <trkpt lat="45.16444" lon="5.92941">
        <ele>2328.2</ele>
        <time>2021-02-20T11:44:53Z</time>
      </trkpt>
      <trkpt lat="45.16445" lon="5.9294">
        <ele>2328.3</ele>
        <time>2021-02-20T11:44:54Z</time>
      </trkpt>
      <trkpt lat="45.16445" lon="5.92939">
        <ele>2328.4</ele>
        <time>2021-02-20T11:44:55Z</time>
      </trkpt>
      <trkpt lat="45.16445" lon="5.92938">
        <ele>2328.5</ele>
        <time>2021-02-20T11:44:56Z</time>
      </trkpt>
      <trkpt lat="45.16445" lon="5.92937">
        <ele>2328.6</ele>
        <time>2021-02-20T11:45:01Z</time>
      </trkpt>
      <trkpt lat="45.16445" lon="5.92936">
        <ele>2328.7</ele>
        <time>2021-02-20T11:45:02Z</time>
      </trkpt>
      <trkpt lat="45.16445" lon="5.92935">
        <ele>2328.8</ele>
        <time>2021-02-20T11:45:03Z</time>
      </trkpt>
      <trkpt lat="45.16445" lon="5.92934">
        <ele>2328.9</ele>
        <time>2021-02-20T11:45:04Z</time>
      </trkpt>
      <trkpt lat="45.16445" lon="5.92933">
        <ele>2329</ele>
        <time>2021-02-20T11:45:05Z</time>
      </trkpt>
      <trkpt lat="45.16446" lon="5.92932">
        <ele>2329.1</ele>
        <time>2021-02-20T11:45:06Z</time>
      </trkpt>
      <trkpt lat="45.16446" lon="5.92931">
        <ele>2329.2</ele>
        <time>2021-02-20T11:45:07Z</time>
      </trkpt>
      <trkpt lat="45.16446" lon="5.9293">
        <ele>2329.3</ele>
        <time>2021-02-20T11:45:08Z</time>
      </trkpt>
      <trkpt lat="45.16446" lon="5.92929">
        <ele>2329.4</ele>
        <time>2021-02-20T11:45:09Z</time>
      </trkpt>
      <trkpt lat="45.16446" lon="5.92928">
        <ele>2329.5</ele>
        <time>2021-02-20T11:45:10Z</time>
      </trkpt>
      <trkpt lat="45.16446" lon="5.92927">
        <ele>2329.6</ele>
        <time>2021-02-20T11:45:11Z</time>
      </trkpt>
      <trkpt lat="45.16446" lon="5.92927">
        <ele>2329.7</ele>
        <time>2021-02-20T11:45:12Z</time>
      </trkpt>
      <trkpt lat="45.16446" lon="5.92925">
        <ele>2329.8</ele>
        <time>2021-02-20T11:45:13Z</time>
      </trkpt>
      <trkpt lat="45.16446" lon="5.92924">
        <ele>2329.9</ele>
        <time>2021-02-20T11:45:14Z</time>
      </trkpt>
      <trkpt lat="45.16446" lon="5.92923">
        <ele>2330.1</ele>
        <time>2021-02-20T11:45:15Z</time>
      </trkpt>
      <trkpt lat="45.16446" lon="5.92922">
        <ele>2330.2</ele>
        <time>2021-02-20T11:45:16Z</time>
      </trkpt>
      <trkpt lat="45.16446" lon="5.9292">
        <ele>2330.3</ele>
        <time>2021-02-20T11:45:17Z</time>
      </trkpt>
      <trkpt lat="45.16445" lon="5.9292">
        <ele>2330.4</ele>
        <time>2021-02-20T11:45:18Z</time>
      </trkpt>
      <trkpt lat="45.16445" lon="5.92919">
        <ele>2330.5</ele>
        <time>2021-02-20T11:45:19Z</time>
      </trkpt>
      <trkpt lat="45.16445" lon="5.92918">
        <ele>2330.6</ele>
        <time>2021-02-20T11:45:20Z</time>
      </trkpt>
      <trkpt lat="45.16445" lon="5.92917">
        <ele>2330.7</ele>
        <time>2021-02-20T11:45:21Z</time>
      </trkpt>
      <trkpt lat="45.16445" lon="5.92915">
        <ele>2330.9</ele>
        <time>2021-02-20T11:45:22Z</time>
      </trkpt>
      <trkpt lat="45.16445" lon="5.92914">
        <ele>2331</ele>
        <time>2021-02-20T11:45:23Z</time>
      </trkpt>
      <trkpt lat="45.16445" lon="5.92913">
        <ele>2331.1</ele>
        <time>2021-02-20T11:45:24Z</time>
      </trkpt>
      <trkpt lat="45.16445" lon="5.92912">
        <ele>2331.2</ele>
        <time>2021-02-20T11:45:25Z</time>
      </trkpt>
      <trkpt lat="45.16445" lon="5.92912">
        <ele>2331.3</ele>
        <time>2021-02-20T11:45:26Z</time>
      </trkpt>
      <trkpt lat="45.16445" lon="5.92911">
        <ele>2331.4</ele>
        <time>2021-02-20T11:45:27Z</time>
      </trkpt>
      <trkpt lat="45.16444" lon="5.9291">
        <ele>2331.5</ele>
        <time>2021-02-20T11:45:28Z</time>
      </trkpt>
      <trkpt lat="45.16444" lon="5.92909">
        <ele>2331.5</ele>
        <time>2021-02-20T11:45:29Z</time>
      </trkpt>
      <trkpt lat="45.16444" lon="5.92909">
        <ele>2331.6</ele>
        <time>2021-02-20T11:45:30Z</time>
      </trkpt>
      <trkpt lat="45.16444" lon="5.92908">
        <ele>2331.7</ele>
        <time>2021-02-20T11:45:31Z</time>
      </trkpt>
      <trkpt lat="45.16443" lon="5.92907">
        <ele>2331.8</ele>
        <time>2021-02-20T11:45:32Z</time>
      </trkpt>
      <trkpt lat="45.16443" lon="5.92906">
        <ele>2331.9</ele>
        <time>2021-02-20T11:45:33Z</time>
      </trkpt>
      <trkpt lat="45.16443" lon="5.92906">
        <ele>2331.9</ele>
        <time>2021-02-20T11:45:34Z</time>
      </trkpt>
      <trkpt lat="45.16443" lon="5.92905">
        <ele>2332</ele>
        <time>2021-02-20T11:45:35Z</time>
      </trkpt>
      <trkpt lat="45.16443" lon="5.92904">
        <ele>2332.1</ele>
        <time>2021-02-20T11:45:36Z</time>
      </trkpt>
      <trkpt lat="45.16442" lon="5.92903">
        <ele>2332.2</ele>
        <time>2021-02-20T11:45:37Z</time>
      </trkpt>
      <trkpt lat="45.16442" lon="5.92903">
        <ele>2332.2</ele>
        <time>2021-02-20T11:45:38Z</time>
      </trkpt>
      <trkpt lat="45.16442" lon="5.92902">
        <ele>2332.3</ele>
        <time>2021-02-20T11:45:39Z</time>
      </trkpt>
      <trkpt lat="45.16442" lon="5.92901">
        <ele>2332.4</ele>
        <time>2021-02-20T11:45:40Z</time>
      </trkpt>
      <trkpt lat="45.16442" lon="5.929">
        <ele>2332.5</ele>
        <time>2021-02-20T11:45:41Z</time>
      </trkpt>
      <trkpt lat="45.16442" lon="5.929">
        <ele>2332.6</ele>
        <time>2021-02-20T11:45:42Z</time>
      </trkpt>
      <trkpt lat="45.16442" lon="5.92899">
        <ele>2332.7</ele>
        <time>2021-02-20T11:45:43Z</time>
      </trkpt>
      <trkpt lat="45.16442" lon="5.92898">
        <ele>2332.8</ele>
        <time>2021-02-20T11:45:44Z</time>
      </trkpt>
      <trkpt lat="45.16442" lon="5.92897">
        <ele>2332.9</ele>
        <time>2021-02-20T11:45:45Z</time>
      </trkpt>
      <trkpt lat="45.16442" lon="5.92896">
        <ele>2332.9</ele>
        <time>2021-02-20T11:45:46Z</time>
      </trkpt>
      <trkpt lat="45.16442" lon="5.92896">
        <ele>2333</ele>
        <time>2021-02-20T11:45:47Z</time>
      </trkpt>
      <trkpt lat="45.16442" lon="5.92895">
        <ele>2333.1</ele>
        <time>2021-02-20T11:45:48Z</time>
      </trkpt>
      <trkpt lat="45.16442" lon="5.92894">
        <ele>2333.2</ele>
        <time>2021-02-20T11:45:49Z</time>
      </trkpt>
      <trkpt lat="45.16442" lon="5.92893">
        <ele>2333.3</ele>
        <time>2021-02-20T11:45:50Z</time>
      </trkpt>
      <trkpt lat="45.16442" lon="5.92892">
        <ele>2333.4</ele>
        <time>2021-02-20T11:45:51Z</time>
      </trkpt>
      <trkpt lat="45.16442" lon="5.92891">
        <ele>2333.5</ele>
        <time>2021-02-20T11:45:52Z</time>
      </trkpt>
      <trkpt lat="45.16442" lon="5.9289">
        <ele>2333.6</ele>
        <time>2021-02-20T11:45:53Z</time>
      </trkpt>
      <trkpt lat="45.16442" lon="5.92889">
        <ele>2333.7</ele>
        <time>2021-02-20T11:45:54Z</time>
      </trkpt>
      <trkpt lat="45.16442" lon="5.92888">
        <ele>2333.8</ele>
        <time>2021-02-20T11:45:55Z</time>
      </trkpt>
      <trkpt lat="45.16442" lon="5.92887">
        <ele>2333.9</ele>
        <time>2021-02-20T11:45:56Z</time>
      </trkpt>
      <trkpt lat="45.16442" lon="5.92886">
        <ele>2334.1</ele>
        <time>2021-02-20T11:45:57Z</time>
      </trkpt>
      <trkpt lat="45.16442" lon="5.92884">
        <ele>2334.2</ele>
        <time>2021-02-20T11:45:58Z</time>
      </trkpt>
      <trkpt lat="45.16442" lon="5.92883">
        <ele>2334.3</ele>
        <time>2021-02-20T11:45:59Z</time>
      </trkpt>
      <trkpt lat="45.16442" lon="5.92882">
        <ele>2334.4</ele>
        <time>2021-02-20T11:46:00Z</time>
      </trkpt>
      <trkpt lat="45.16442" lon="5.92882">
        <ele>2334.5</ele>
        <time>2021-02-20T11:46:01Z</time>
      </trkpt>
      <trkpt lat="45.16442" lon="5.92881">
        <ele>2334.6</ele>
        <time>2021-02-20T11:46:02Z</time>
      </trkpt>
      <trkpt lat="45.16442" lon="5.9288">
        <ele>2334.6</ele>
        <time>2021-02-20T11:46:03Z</time>
      </trkpt>
      <trkpt lat="45.16441" lon="5.92879">
        <ele>2334.7</ele>
        <time>2021-02-20T11:46:04Z</time>
      </trkpt>
      <trkpt lat="45.16441" lon="5.92879">
        <ele>2334.8</ele>
        <time>2021-02-20T11:46:05Z</time>
      </trkpt>
      <trkpt lat="45.16441" lon="5.92878">
        <ele>2334.9</ele>
        <time>2021-02-20T11:46:06Z</time>
      </trkpt>
      <trkpt lat="45.16441" lon="5.92877">
        <ele>2335</ele>
        <time>2021-02-20T11:46:07Z</time>
      </trkpt>
      <trkpt lat="45.1644" lon="5.92877">
        <ele>2335.1</ele>
        <time>2021-02-20T11:46:08Z</time>
      </trkpt>
      <trkpt lat="45.1644" lon="5.92876">
        <ele>2335.2</ele>
        <time>2021-02-20T11:46:09Z</time>
      </trkpt>
      <trkpt lat="45.1644" lon="5.92875">
        <ele>2335.3</ele>
        <time>2021-02-20T11:46:10Z</time>
      </trkpt>
      <trkpt lat="45.1644" lon="5.92874">
        <ele>2335.3</ele>
        <time>2021-02-20T11:46:11Z</time>
      </trkpt>
      <trkpt lat="45.16439" lon="5.92874">
        <ele>2337</ele>
        <time>2021-02-20T11:46:12Z</time>
      </trkpt>
      <trkpt lat="45.16439" lon="5.92873">
        <ele>2337.1</ele>
        <time>2021-02-20T11:46:13Z</time>
      </trkpt>
      <trkpt lat="45.16439" lon="5.92872">
        <ele>2337.2</ele>
        <time>2021-02-20T11:46:14Z</time>
      </trkpt>
      <trkpt lat="45.16438" lon="5.9287">
        <ele>2337.4</ele>
        <time>2021-02-20T11:46:15Z</time>
      </trkpt>
      <trkpt lat="45.16438" lon="5.92868">
        <ele>2337.6</ele>
        <time>2021-02-20T11:46:16Z</time>
      </trkpt>
      <trkpt lat="45.16438" lon="5.92866">
        <ele>2337.8</ele>
        <time>2021-02-20T11:46:17Z</time>
      </trkpt>
      <trkpt lat="45.16438" lon="5.92864">
        <ele>2337.9</ele>
        <time>2021-02-20T11:46:18Z</time>
      </trkpt>
      <trkpt lat="45.16438" lon="5.92862">
        <ele>2338.1</ele>
        <time>2021-02-20T11:46:19Z</time>
      </trkpt>
      <trkpt lat="45.16438" lon="5.9286">
        <ele>2338.2</ele>
        <time>2021-02-20T11:46:20Z</time>
      </trkpt>
      <trkpt lat="45.16438" lon="5.92858">
        <ele>2338.4</ele>
        <time>2021-02-20T11:46:21Z</time>
      </trkpt>
      <trkpt lat="45.16437" lon="5.92856">
        <ele>2338.5</ele>
        <time>2021-02-20T11:46:22Z</time>
      </trkpt>
      <trkpt lat="45.16437" lon="5.92854">
        <ele>2338.7</ele>
        <time>2021-02-20T11:46:23Z</time>
      </trkpt>
      <trkpt lat="45.16437" lon="5.92852">
        <ele>2338.8</ele>
        <time>2021-02-20T11:46:24Z</time>
      </trkpt>
      <trkpt lat="45.16437" lon="5.9285">
        <ele>2338.9</ele>
        <time>2021-02-20T11:46:25Z</time>
      </trkpt>
      <trkpt lat="45.16437" lon="5.92848">
        <ele>2339.1</ele>
        <time>2021-02-20T11:46:26Z</time>
      </trkpt>
      <trkpt lat="45.16437" lon="5.92846">
        <ele>2339.2</ele>
        <time>2021-02-20T11:48:48Z</time>
      </trkpt>
      <trkpt lat="45.16437" lon="5.92844">
        <ele>2339.3</ele>
        <time>2021-02-20T11:48:49Z</time>
      </trkpt>
      <trkpt lat="45.16437" lon="5.92842">
        <ele>2339.4</ele>
        <time>2021-02-20T11:48:50Z</time>
      </trkpt>
      <trkpt lat="45.16436" lon="5.9284">
        <ele>2339.6</ele>
        <time>2021-02-20T11:48:51Z</time>
      </trkpt>
      <trkpt lat="45.16436" lon="5.92838">
        <ele>2339.7</ele>
        <time>2021-02-20T11:48:52Z</time>
      </trkpt>
      <trkpt lat="45.16436" lon="5.92837">
        <ele>2339.8</ele>
        <time>2021-02-20T11:48:53Z</time>
      </trkpt>
      <trkpt lat="45.16436" lon="5.92835">
        <ele>2339.9</ele>
        <time>2021-02-20T11:48:54Z</time>
      </trkpt>
      <trkpt lat="45.16436" lon="5.92834">
        <ele>2339.9</ele>
        <time>2021-02-20T11:48:55Z</time>
      </trkpt>
      <trkpt lat="45.16436" lon="5.92833">
        <ele>2339.9</ele>
        <time>2021-02-20T11:48:56Z</time>
      </trkpt>
      <trkpt lat="45.16436" lon="5.92833">
        <ele>2339.9</ele>
        <time>2021-02-20T11:48:57Z</time>
      </trkpt>
      <trkpt lat="45.16436" lon="5.92832">
        <ele>2340</ele>
        <time>2021-02-20T11:48:58Z</time>
      </trkpt>
      <trkpt lat="45.16436" lon="5.92831">
        <ele>2340</ele>
        <time>2021-02-20T11:48:59Z</time>
      </trkpt>
      <trkpt lat="45.16436" lon="5.9283">
        <ele>2340.1</ele>
        <time>2021-02-20T11:49:00Z</time>
      </trkpt>
      <trkpt lat="45.16435" lon="5.92829">
        <ele>2340.1</ele>
        <time>2021-02-20T11:49:01Z</time>
      </trkpt>
      <trkpt lat="45.16435" lon="5.92828">
        <ele>2340.2</ele>
        <time>2021-02-20T11:49:07Z</time>
      </trkpt>
      <trkpt lat="45.16434" lon="5.92827">
        <ele>2340.2</ele>
        <time>2021-02-20T11:49:08Z</time>
      </trkpt>
      <trkpt lat="45.16434" lon="5.92826">
        <ele>2340.3</ele>
        <time>2021-02-20T11:49:09Z</time>
      </trkpt>
      <trkpt lat="45.16433" lon="5.92825">
        <ele>2340.4</ele>
        <time>2021-02-20T11:49:10Z</time>
      </trkpt>
      <trkpt lat="45.16433" lon="5.92825">
        <ele>2340.4</ele>
        <time>2021-02-20T11:49:11Z</time>
      </trkpt>
      <trkpt lat="45.16432" lon="5.92824">
        <ele>2340.5</ele>
        <time>2021-02-20T11:49:12Z</time>
      </trkpt>
      <trkpt lat="45.16432" lon="5.92823">
        <ele>2340.6</ele>
        <time>2021-02-20T11:49:13Z</time>
      </trkpt>
      <trkpt lat="45.16432" lon="5.92823">
        <ele>2340.6</ele>
        <time>2021-02-20T11:49:14Z</time>
      </trkpt>
      <trkpt lat="45.16432" lon="5.92822">
        <ele>2340.6</ele>
        <time>2021-02-20T11:49:15Z</time>
      </trkpt>
      <trkpt lat="45.16431" lon="5.92822">
        <ele>2340.7</ele>
        <time>2021-02-20T11:49:16Z</time>
      </trkpt>
      <trkpt lat="45.16431" lon="5.92821">
        <ele>2340.8</ele>
        <time>2021-02-20T11:49:17Z</time>
      </trkpt>
      <trkpt lat="45.16431" lon="5.92821">
        <ele>2340.8</ele>
        <time>2021-02-20T11:49:18Z</time>
      </trkpt>
      <trkpt lat="45.16431" lon="5.92821">
        <ele>2340.8</ele>
        <time>2021-02-20T11:49:19Z</time>
      </trkpt>
      <trkpt lat="45.16431" lon="5.9282">
        <ele>2340.8</ele>
        <time>2021-02-20T11:49:20Z</time>
      </trkpt>
      <trkpt lat="45.16431" lon="5.9282">
        <ele>2340.9</ele>
        <time>2021-02-20T11:49:21Z</time>
      </trkpt>
      <trkpt lat="45.16431" lon="5.92819">
        <ele>2340.9</ele>
        <time>2021-02-20T11:49:22Z</time>
      </trkpt>
      <trkpt lat="45.1643" lon="5.92817">
        <ele>2341.2</ele>
        <time>2021-02-20T11:49:23Z</time>
      </trkpt>
      <trkpt lat="45.16429" lon="5.92815">
        <ele>2341.5</ele>
        <time>2021-02-20T11:49:24Z</time>
      </trkpt>
      <trkpt lat="45.16429" lon="5.92813">
        <ele>2341.8</ele>
        <time>2021-02-20T11:49:25Z</time>
      </trkpt>
      <trkpt lat="45.16428" lon="5.92811">
        <ele>2342</ele>
        <time>2021-02-20T11:49:26Z</time>
      </trkpt>
      <trkpt lat="45.16428" lon="5.92809">
        <ele>2342.4</ele>
        <time>2021-02-20T11:49:27Z</time>
      </trkpt>
      <trkpt lat="45.16427" lon="5.92807">
        <ele>2342.7</ele>
        <time>2021-02-20T11:50:13Z</time>
      </trkpt>
      <trkpt lat="45.16427" lon="5.92805">
        <ele>2343.1</ele>
        <time>2021-02-20T11:50:14Z</time>
      </trkpt>
      <trkpt lat="45.16426" lon="5.92803">
        <ele>2343.4</ele>
        <time>2021-02-20T11:50:15Z</time>
      </trkpt>
      <trkpt lat="45.16426" lon="5.92801">
        <ele>2343.7</ele>
        <time>2021-02-20T11:50:16Z</time>
      </trkpt>
      <trkpt lat="45.16426" lon="5.92801">
        <ele>2343.8</ele>
        <time>2021-02-20T11:50:17Z</time>
      </trkpt>
      <trkpt lat="45.16426" lon="5.928">
        <ele>2343.8</ele>
        <time>2021-02-20T11:50:18Z</time>
      </trkpt>
      <trkpt lat="45.16426" lon="5.928">
        <ele>2343.9</ele>
        <time>2021-02-20T11:50:19Z</time>
      </trkpt>
      <trkpt lat="45.16427" lon="5.92799">
        <ele>2344.1</ele>
        <time>2021-02-20T11:50:20Z</time>
      </trkpt>
      <trkpt lat="45.16427" lon="5.92799">
        <ele>2344.2</ele>
        <time>2021-02-20T11:50:21Z</time>
      </trkpt>
      <trkpt lat="45.16427" lon="5.92798">
        <ele>2344.3</ele>
        <time>2021-02-20T11:50:22Z</time>
      </trkpt>
      <trkpt lat="45.16427" lon="5.92798">
        <ele>2344.4</ele>
        <time>2021-02-20T11:50:23Z</time>
      </trkpt>
      <trkpt lat="45.16427" lon="5.92797">
        <ele>2344.5</ele>
        <time>2021-02-20T11:50:24Z</time>
      </trkpt>
      <trkpt lat="45.16426" lon="5.92793">
        <ele>2345.2</ele>
        <time>2021-02-20T11:50:25Z</time>
      </trkpt>
      <trkpt lat="45.16425" lon="5.92789">
        <ele>2345.6</ele>
        <time>2021-02-20T11:54:58Z</time>
      </trkpt>
      <trkpt lat="45.16424" lon="5.92784">
        <ele>2345.9</ele>
        <time>2021-02-20T11:54:59Z</time>
      </trkpt>
      <trkpt lat="45.16422" lon="5.9278">
        <ele>2346.1</ele>
        <time>2021-02-20T11:55:00Z</time>
      </trkpt>
      <trkpt lat="45.16421" lon="5.92776">
        <ele>2346.1</ele>
        <time>2021-02-20T11:55:01Z</time>
      </trkpt>
      <trkpt lat="45.1642" lon="5.92772">
        <ele>2346</ele>
        <time>2021-02-20T11:55:02Z</time>
      </trkpt>
      <trkpt lat="45.16419" lon="5.92768">
        <ele>2345.8</ele>
        <time>2021-02-20T11:55:03Z</time>
      </trkpt>
      <trkpt lat="45.16418" lon="5.92764">
        <ele>2345.7</ele>
        <time>2021-02-20T11:55:04Z</time>
      </trkpt>
      <trkpt lat="45.16417" lon="5.9276">
        <ele>2345.6</ele>
        <time>2021-02-20T11:55:05Z</time>
      </trkpt>
      <trkpt lat="45.16416" lon="5.92756">
        <ele>2345.6</ele>
        <time>2021-02-20T11:55:06Z</time>
      </trkpt>
      <trkpt lat="45.16415" lon="5.92752">
        <ele>2345.6</ele>
        <time>2021-02-20T11:55:07Z</time>
      </trkpt>
      <trkpt lat="45.16414" lon="5.92748">
        <ele>2345.7</ele>
        <time>2021-02-20T11:55:08Z</time>
      </trkpt>
      <trkpt lat="45.16413" lon="5.92743">
        <ele>2345.9</ele>
        <time>2021-02-20T11:55:09Z</time>
      </trkpt>
      <trkpt lat="45.16413" lon="5.92739">
        <ele>2346</ele>
        <time>2021-02-20T11:55:10Z</time>
      </trkpt>
      <trkpt lat="45.16412" lon="5.92735">
        <ele>2346.2</ele>
        <time>2021-02-20T11:55:11Z</time>
      </trkpt>
      <trkpt lat="45.16412" lon="5.92732">
        <ele>2346.3</ele>
        <time>2021-02-20T11:55:12Z</time>
      </trkpt>
      <trkpt lat="45.16412" lon="5.9273">
        <ele>2346.4</ele>
        <time>2021-02-20T11:55:13Z</time>
      </trkpt>
      <trkpt lat="45.16411" lon="5.92729">
        <ele>2346.5</ele>
        <time>2021-02-20T11:55:14Z</time>
      </trkpt>
      <trkpt lat="45.16411" lon="5.92728">
        <ele>2346.5</ele>
        <time>2021-02-20T11:55:15Z</time>
      </trkpt>
      <trkpt lat="45.16411" lon="5.92727">
        <ele>2346.6</ele>
        <time>2021-02-20T11:55:16Z</time>
      </trkpt>
      <trkpt lat="45.16411" lon="5.92726">
        <ele>2346.7</ele>
        <time>2021-02-20T11:55:17Z</time>
      </trkpt>
      <trkpt lat="45.16411" lon="5.92724">
        <ele>2346.7</ele>
        <time>2021-02-20T11:55:18Z</time>
      </trkpt>
      <trkpt lat="45.16411" lon="5.92723">
        <ele>2346.8</ele>
        <time>2021-02-20T11:55:19Z</time>
      </trkpt>
      <trkpt lat="45.16411" lon="5.92721">
        <ele>2346.9</ele>
        <time>2021-02-20T11:55:20Z</time>
      </trkpt>
      <trkpt lat="45.16411" lon="5.92719">
        <ele>2347</ele>
        <time>2021-02-20T11:55:21Z</time>
      </trkpt>
      <trkpt lat="45.16411" lon="5.92718">
        <ele>2347.1</ele>
        <time>2021-02-20T11:55:22Z</time>
      </trkpt>
      <trkpt lat="45.16411" lon="5.92717">
        <ele>2347.2</ele>
        <time>2021-02-20T11:55:23Z</time>
      </trkpt>
      <trkpt lat="45.16412" lon="5.92715">
        <ele>2347.3</ele>
        <time>2021-02-20T11:55:24Z</time>
      </trkpt>
      <trkpt lat="45.16412" lon="5.92714">
        <ele>2347.3</ele>
        <time>2021-02-20T11:55:25Z</time>
      </trkpt>
      <trkpt lat="45.16412" lon="5.92713">
        <ele>2347.3</ele>
        <time>2021-02-20T11:55:26Z</time>
      </trkpt>
      <trkpt lat="45.16412" lon="5.92711">
        <ele>2346.9</ele>
        <time>2021-02-20T11:55:27Z</time>
      </trkpt>
      <trkpt lat="45.16411" lon="5.9271">
        <ele>2346.5</ele>
        <time>2021-02-20T11:55:28Z</time>
      </trkpt>
      <trkpt lat="45.16411" lon="5.92708">
        <ele>2346.1</ele>
        <time>2021-02-20T11:55:29Z</time>
      </trkpt>
      <trkpt lat="45.16411" lon="5.92707">
        <ele>2345.8</ele>
        <time>2021-02-20T11:55:30Z</time>
      </trkpt>
      <trkpt lat="45.16411" lon="5.92706">
        <ele>2345.4</ele>
        <time>2021-02-20T11:55:31Z</time>
      </trkpt>
      <trkpt lat="45.16411" lon="5.92705">
        <ele>2345.1</ele>
        <time>2021-02-20T11:55:32Z</time>
      </trkpt>
      <trkpt lat="45.16411" lon="5.92703">
        <ele>2344.7</ele>
        <time>2021-02-20T11:55:33Z</time>
      </trkpt>
      <trkpt lat="45.1641" lon="5.92703">
        <ele>2344.6</ele>
        <time>2021-02-20T11:55:34Z</time>
      </trkpt>
      <trkpt lat="45.1641" lon="5.92703">
        <ele>2344.4</ele>
        <time>2021-02-20T11:55:35Z</time>
      </trkpt>
      <trkpt lat="45.1641" lon="5.92703">
        <ele>2345.2</ele>
        <time>2021-02-20T11:55:36Z</time>
      </trkpt>
      <trkpt lat="45.16409" lon="5.92703">
        <ele>2345.1</ele>
        <time>2021-02-20T11:55:37Z</time>
      </trkpt>
      <trkpt lat="45.16409" lon="5.92703">
        <ele>2345</ele>
        <time>2021-02-20T11:55:38Z</time>
      </trkpt>
      <trkpt lat="45.16409" lon="5.92702">
        <ele>2344.8</ele>
        <time>2021-02-20T11:55:39Z</time>
      </trkpt>
      <trkpt lat="45.16408" lon="5.92702">
        <ele>2344.7</ele>
        <time>2021-02-20T11:55:40Z</time>
      </trkpt>
      <trkpt lat="45.16408" lon="5.92702">
        <ele>2344.6</ele>
        <time>2021-02-20T11:55:41Z</time>
      </trkpt>
      <trkpt lat="45.16407" lon="5.92702">
        <ele>2344.5</ele>
        <time>2021-02-20T11:55:42Z</time>
      </trkpt>
      <trkpt lat="45.16407" lon="5.92702">
        <ele>2344.4</ele>
        <time>2021-02-20T11:55:43Z</time>
      </trkpt>
      <trkpt lat="45.16407" lon="5.92702">
        <ele>2344.3</ele>
        <time>2021-02-20T11:55:44Z</time>
      </trkpt>
      <trkpt lat="45.16406" lon="5.92701">
        <ele>2344.9</ele>
        <time>2021-02-20T11:55:45Z</time>
      </trkpt>
      <trkpt lat="45.16406" lon="5.92701">
        <ele>2344.7</ele>
        <time>2021-02-20T11:58:38Z</time>
      </trkpt>
      <trkpt lat="45.16406" lon="5.92701">
        <ele>2344.6</ele>
        <time>2021-02-20T11:58:39Z</time>
      </trkpt>
      <trkpt lat="45.16405" lon="5.92701">
        <ele>2344.5</ele>
        <time>2021-02-20T11:58:40Z</time>
      </trkpt>
      <trkpt lat="45.16405" lon="5.92701">
        <ele>2344.4</ele>
        <time>2021-02-20T11:58:41Z</time>
      </trkpt>
      <trkpt lat="45.16405" lon="5.92701">
        <ele>2344.3</ele>
        <time>2021-02-20T11:58:42Z</time>
      </trkpt>
      <trkpt lat="45.16404" lon="5.927">
        <ele>2344.2</ele>
        <time>2021-02-20T11:58:43Z</time>
      </trkpt>
      <trkpt lat="45.16404" lon="5.927">
        <ele>2344</ele>
        <time>2021-02-20T11:58:44Z</time>
      </trkpt>
      <trkpt lat="45.16403" lon="5.927">
        <ele>2344.5</ele>
        <time>2021-02-20T11:58:45Z</time>
      </trkpt>
      <trkpt lat="45.16404" lon="5.92701">
        <ele>2343.8</ele>
        <time>2021-02-20T11:58:46Z</time>
      </trkpt>
      <trkpt lat="45.16405" lon="5.92701">
        <ele>2343.7</ele>
        <time>2021-02-20T11:58:47Z</time>
      </trkpt>
      <trkpt lat="45.16405" lon="5.92702">
        <ele>2343.6</ele>
        <time>2021-02-20T11:58:48Z</time>
      </trkpt>
      <trkpt lat="45.16406" lon="5.92703">
        <ele>2343.5</ele>
        <time>2021-02-20T12:05:48Z</time>
      </trkpt>
      <trkpt lat="45.16406" lon="5.92703">
        <ele>2343.3</ele>
        <time>2021-02-20T12:05:49Z</time>
      </trkpt>
      <trkpt lat="45.16407" lon="5.92704">
        <ele>2342.5</ele>
        <time>2021-02-20T12:05:50Z</time>
      </trkpt>
      <trkpt lat="45.16405" lon="5.92706">
        <ele>2343.3</ele>
        <time>2021-02-20T12:05:51Z</time>
      </trkpt>
      <trkpt lat="45.16402" lon="5.92709">
        <ele>2344</ele>
        <time>2021-02-20T12:05:52Z</time>
      </trkpt>
      <trkpt lat="45.16399" lon="5.92712">
        <ele>2344.4</ele>
        <time>2021-02-20T12:05:53Z</time>
      </trkpt>
      <trkpt lat="45.16397" lon="5.92715">
        <ele>2345</ele>
        <time>2021-02-20T12:05:54Z</time>
      </trkpt>
      <trkpt lat="45.16393" lon="5.92716">
        <ele>2345.3</ele>
        <time>2021-02-20T12:05:55Z</time>
      </trkpt>
      <trkpt lat="45.1639" lon="5.92715">
        <ele>2345.5</ele>
        <time>2021-02-20T12:05:56Z</time>
      </trkpt>
      <trkpt lat="45.16387" lon="5.92712">
        <ele>2345.7</ele>
        <time>2021-02-20T12:05:57Z</time>
      </trkpt>
      <trkpt lat="45.16385" lon="5.92708">
        <ele>2345.8</ele>
        <time>2021-02-20T12:05:58Z</time>
      </trkpt>
      <trkpt lat="45.16383" lon="5.92705">
        <ele>2345.7</ele>
        <time>2021-02-20T12:05:59Z</time>
      </trkpt>
      <trkpt lat="45.1638" lon="5.92704">
        <ele>2345.8</ele>
        <time>2021-02-20T12:06:00Z</time>
      </trkpt>
      <trkpt lat="45.16378" lon="5.92706">
        <ele>2345.9</ele>
        <time>2021-02-20T12:06:01Z</time>
      </trkpt>
      <trkpt lat="45.16377" lon="5.92712">
        <ele>2345.8</ele>
        <time>2021-02-20T12:06:02Z</time>
      </trkpt>
      <trkpt lat="45.16377" lon="5.9272">
        <ele>2345.5</ele>
        <time>2021-02-20T12:06:03Z</time>
      </trkpt>
      <trkpt lat="45.16378" lon="5.92729">
        <ele>2345.3</ele>
        <time>2021-02-20T12:06:04Z</time>
      </trkpt>
      <trkpt lat="45.16381" lon="5.92741">
        <ele>2345</ele>
        <time>2021-02-20T12:06:05Z</time>
      </trkpt>
      <trkpt lat="45.16382" lon="5.92751">
        <ele>2344.7</ele>
        <time>2021-02-20T12:06:06Z</time>
      </trkpt>
      <trkpt lat="45.16381" lon="5.92761">
        <ele>2344.3</ele>
        <time>2021-02-20T12:06:07Z</time>
      </trkpt>
      <trkpt lat="45.1638" lon="5.92768">
        <ele>2344.1</ele>
        <time>2021-02-20T12:06:08Z</time>
      </trkpt>
      <trkpt lat="45.16379" lon="5.92775">
        <ele>2343.2</ele>
        <time>2021-02-20T12:06:09Z</time>
      </trkpt>
      <trkpt lat="45.1638" lon="5.9278">
        <ele>2343.4</ele>
        <time>2021-02-20T12:06:10Z</time>
      </trkpt>
      <trkpt lat="45.1638" lon="5.92786">
        <ele>2342.9</ele>
        <time>2021-02-20T12:06:11Z</time>
      </trkpt>
      <trkpt lat="45.16381" lon="5.92791">
        <ele>2342.5</ele>
        <time>2021-02-20T12:06:12Z</time>
      </trkpt>
      <trkpt lat="45.16381" lon="5.92792">
        <ele>2342.4</ele>
        <time>2021-02-20T12:06:13Z</time>
      </trkpt>
      <trkpt lat="45.16381" lon="5.92798">
        <ele>2342.1</ele>
        <time>2021-02-20T12:06:14Z</time>
      </trkpt>
      <trkpt lat="45.16382" lon="5.928">
        <ele>2341.7</ele>
        <time>2021-02-20T12:06:15Z</time>
      </trkpt>
      <trkpt lat="45.16383" lon="5.92803">
        <ele>2342.1</ele>
        <time>2021-02-20T12:06:16Z</time>
      </trkpt>
      <trkpt lat="45.16384" lon="5.92805">
        <ele>2342</ele>
        <time>2021-02-20T12:06:17Z</time>
      </trkpt>
      <trkpt lat="45.16385" lon="5.92807">
        <ele>2341.7</ele>
        <time>2021-02-20T12:06:18Z</time>
      </trkpt>
      <trkpt lat="45.16385" lon="5.92807">
        <ele>2341.6</ele>
        <time>2021-02-20T12:06:19Z</time>
      </trkpt>
      <trkpt lat="45.16386" lon="5.92807">
        <ele>2342.2</ele>
        <time>2021-02-20T12:06:20Z</time>
      </trkpt>
      <trkpt lat="45.16386" lon="5.92807">
        <ele>2342.1</ele>
        <time>2021-02-20T12:06:21Z</time>
      </trkpt>
      <trkpt lat="45.16386" lon="5.92808">
        <ele>2342</ele>
        <time>2021-02-20T12:06:22Z</time>
      </trkpt>
      <trkpt lat="45.16386" lon="5.92808">
        <ele>2341.8</ele>
        <time>2021-02-20T12:06:23Z</time>
      </trkpt>
      <trkpt lat="45.16386" lon="5.92808">
        <ele>2341.7</ele>
        <time>2021-02-20T12:06:24Z</time>
      </trkpt>
      <trkpt lat="45.16386" lon="5.92808">
        <ele>2341.6</ele>
        <time>2021-02-20T12:06:25Z</time>
      </trkpt>
      <trkpt lat="45.16386" lon="5.92808">
        <ele>2341.5</ele>
        <time>2021-02-20T12:06:26Z</time>
      </trkpt>
      <trkpt lat="45.16386" lon="5.92808">
        <ele>2341.4</ele>
        <time>2021-02-20T12:06:27Z</time>
      </trkpt>
      <trkpt lat="45.16387" lon="5.92815">
        <ele>2341.1</ele>
        <time>2021-02-20T12:06:28Z</time>
      </trkpt>
      <trkpt lat="45.16387" lon="5.92817">
        <ele>2340.9</ele>
        <time>2021-02-20T12:06:29Z</time>
      </trkpt>
      <trkpt lat="45.16388" lon="5.92822">
        <ele>2340.6</ele>
        <time>2021-02-20T12:06:30Z</time>
      </trkpt>
      <trkpt lat="45.1639" lon="5.92826">
        <ele>2341.1</ele>
        <time>2021-02-20T12:06:31Z</time>
      </trkpt>
      <trkpt lat="45.16391" lon="5.9283">
        <ele>2340.9</ele>
        <time>2021-02-20T12:06:32Z</time>
      </trkpt>
      <trkpt lat="45.16392" lon="5.92833">
        <ele>2341.4</ele>
        <time>2021-02-20T12:06:33Z</time>
      </trkpt>
      <trkpt lat="45.16392" lon="5.92834">
        <ele>2341.2</ele>
        <time>2021-02-20T12:06:34Z</time>
      </trkpt>
      <trkpt lat="45.16392" lon="5.92835">
        <ele>2341.1</ele>
        <time>2021-02-20T12:06:35Z</time>
      </trkpt>
      <trkpt lat="45.16392" lon="5.92835">
        <ele>2341</ele>
        <time>2021-02-20T12:06:36Z</time>
      </trkpt>
      <trkpt lat="45.16392" lon="5.92836">
        <ele>2340.9</ele>
        <time>2021-02-20T12:06:37Z</time>
      </trkpt>
      <trkpt lat="45.16392" lon="5.92836">
        <ele>2340.8</ele>
        <time>2021-02-20T12:06:38Z</time>
      </trkpt>
      <trkpt lat="45.16392" lon="5.92837">
        <ele>2340.6</ele>
        <time>2021-02-20T12:06:39Z</time>
      </trkpt>
      <trkpt lat="45.16392" lon="5.92838">
        <ele>2340.5</ele>
        <time>2021-02-20T12:06:40Z</time>
      </trkpt>
      <trkpt lat="45.16392" lon="5.92838">
        <ele>2340.3</ele>
        <time>2021-02-20T12:06:41Z</time>
      </trkpt>
      <trkpt lat="45.16392" lon="5.92839">
        <ele>2340.2</ele>
        <time>2021-02-20T12:06:42Z</time>
      </trkpt>
      <trkpt lat="45.16392" lon="5.9284">
        <ele>2340.1</ele>
        <time>2021-02-20T12:06:43Z</time>
      </trkpt>
      <trkpt lat="45.16393" lon="5.9284">
        <ele>2340</ele>
        <time>2021-02-20T12:06:44Z</time>
      </trkpt>
      <trkpt lat="45.16393" lon="5.92841">
        <ele>2339.9</ele>
        <time>2021-02-20T12:06:59Z</time>
      </trkpt>
      <trkpt lat="45.16393" lon="5.92841">
        <ele>2339.7</ele>
        <time>2021-02-20T12:07:00Z</time>
      </trkpt>
      <trkpt lat="45.16393" lon="5.92842">
        <ele>2339.6</ele>
        <time>2021-02-20T12:07:01Z</time>
      </trkpt>
      <trkpt lat="45.16393" lon="5.92843">
        <ele>2339.4</ele>
        <time>2021-02-20T12:07:02Z</time>
      </trkpt>
      <trkpt lat="45.16393" lon="5.92843">
        <ele>2339.3</ele>
        <time>2021-02-20T12:07:03Z</time>
      </trkpt>
      <trkpt lat="45.16393" lon="5.92844">
        <ele>2339.2</ele>
        <time>2021-02-20T12:07:04Z</time>
      </trkpt>
      <trkpt lat="45.16393" lon="5.92844">
        <ele>2339.1</ele>
        <time>2021-02-20T12:07:05Z</time>
      </trkpt>
      <trkpt lat="45.16393" lon="5.92845">
        <ele>2339</ele>
        <time>2021-02-20T12:07:06Z</time>
      </trkpt>
      <trkpt lat="45.16393" lon="5.92846">
        <ele>2338.8</ele>
        <time>2021-02-20T12:07:07Z</time>
      </trkpt>
      <trkpt lat="45.16393" lon="5.92846">
        <ele>2338.7</ele>
        <time>2021-02-20T12:07:08Z</time>
      </trkpt>
      <trkpt lat="45.16393" lon="5.92847">
        <ele>2338.5</ele>
        <time>2021-02-20T12:07:09Z</time>
      </trkpt>
      <trkpt lat="45.16393" lon="5.92848">
        <ele>2338.4</ele>
        <time>2021-02-20T12:07:10Z</time>
      </trkpt>
      <trkpt lat="45.16393" lon="5.92848">
        <ele>2338.3</ele>
        <time>2021-02-20T12:07:11Z</time>
      </trkpt>
      <trkpt lat="45.16393" lon="5.92849">
        <ele>2338.2</ele>
        <time>2021-02-20T12:07:18Z</time>
      </trkpt>
      <trkpt lat="45.16393" lon="5.92849">
        <ele>2338.1</ele>
        <time>2021-02-20T12:07:19Z</time>
      </trkpt>
      <trkpt lat="45.16393" lon="5.92852">
        <ele>2337.9</ele>
        <time>2021-02-20T12:07:20Z</time>
      </trkpt>
      <trkpt lat="45.16393" lon="5.92854">
        <ele>2337.7</ele>
        <time>2021-02-20T12:07:21Z</time>
      </trkpt>
      <trkpt lat="45.16394" lon="5.92855">
        <ele>2337.5</ele>
        <time>2021-02-20T12:07:22Z</time>
      </trkpt>
      <trkpt lat="45.16394" lon="5.92855">
        <ele>2337.4</ele>
        <time>2021-02-20T12:07:23Z</time>
      </trkpt>
      <trkpt lat="45.16394" lon="5.92855">
        <ele>2337.3</ele>
        <time>2021-02-20T12:07:24Z</time>
      </trkpt>
      <trkpt lat="45.16394" lon="5.92855">
        <ele>2337.1</ele>
        <time>2021-02-20T12:07:25Z</time>
      </trkpt>
      <trkpt lat="45.16394" lon="5.92855">
        <ele>2337</ele>
        <time>2021-02-20T12:07:26Z</time>
      </trkpt>
      <trkpt lat="45.16394" lon="5.92855">
        <ele>2336.9</ele>
        <time>2021-02-20T12:07:27Z</time>
      </trkpt>
      <trkpt lat="45.16394" lon="5.92855">
        <ele>2336.8</ele>
        <time>2021-02-20T12:07:28Z</time>
      </trkpt>
      <trkpt lat="45.16393" lon="5.92858">
        <ele>2336.5</ele>
        <time>2021-02-20T12:07:29Z</time>
      </trkpt>
      <trkpt lat="45.16392" lon="5.92863">
        <ele>2336.2</ele>
        <time>2021-02-20T12:07:30Z</time>
      </trkpt>
      <trkpt lat="45.16389" lon="5.92862">
        <ele>2335.4</ele>
        <time>2021-02-20T12:07:31Z</time>
      </trkpt>
      <trkpt lat="45.16386" lon="5.92861">
        <ele>2334.3</ele>
        <time>2021-02-20T12:07:32Z</time>
      </trkpt>
      <trkpt lat="45.16385" lon="5.9286">
        <ele>2333.1</ele>
        <time>2021-02-20T12:07:33Z</time>
      </trkpt>
      <trkpt lat="45.16384" lon="5.92859">
        <ele>2333</ele>
        <time>2021-02-20T12:07:34Z</time>
      </trkpt>
      <trkpt lat="45.16383" lon="5.92859">
        <ele>2332.9</ele>
        <time>2021-02-20T12:07:35Z</time>
      </trkpt>
      <trkpt lat="45.16383" lon="5.9286">
        <ele>2332.8</ele>
        <time>2021-02-20T12:07:36Z</time>
      </trkpt>
      <trkpt lat="45.16382" lon="5.9286">
        <ele>2331.5</ele>
        <time>2021-02-20T12:07:37Z</time>
      </trkpt>
      <trkpt lat="45.16381" lon="5.9286">
        <ele>2331.4</ele>
        <time>2021-02-20T12:07:38Z</time>
      </trkpt>
      <trkpt lat="45.16381" lon="5.9286">
        <ele>2331.3</ele>
        <time>2021-02-20T12:07:39Z</time>
      </trkpt>
      <trkpt lat="45.1638" lon="5.92861">
        <ele>2331.2</ele>
        <time>2021-02-20T12:07:40Z</time>
      </trkpt>
      <trkpt lat="45.16379" lon="5.92861">
        <ele>2329.8</ele>
        <time>2021-02-20T12:07:41Z</time>
      </trkpt>
      <trkpt lat="45.16379" lon="5.92861">
        <ele>2329.7</ele>
        <time>2021-02-20T12:07:42Z</time>
      </trkpt>
      <trkpt lat="45.16379" lon="5.92863">
        <ele>2329.4</ele>
        <time>2021-02-20T12:07:43Z</time>
      </trkpt>
      <trkpt lat="45.16379" lon="5.92864">
        <ele>2329.2</ele>
        <time>2021-02-20T12:07:44Z</time>
      </trkpt>
      <trkpt lat="45.16379" lon="5.92865">
        <ele>2329.1</ele>
        <time>2021-02-20T12:07:45Z</time>
      </trkpt>
      <trkpt lat="45.16379" lon="5.92865">
        <ele>2329</ele>
        <time>2021-02-20T12:07:46Z</time>
      </trkpt>
      <trkpt lat="45.16378" lon="5.92865">
        <ele>2328.9</ele>
        <time>2021-02-20T12:07:47Z</time>
      </trkpt>
      <trkpt lat="45.16378" lon="5.92866">
        <ele>2328.8</ele>
        <time>2021-02-20T12:07:48Z</time>
      </trkpt>
      <trkpt lat="45.16377" lon="5.92866">
        <ele>2328.7</ele>
        <time>2021-02-20T12:07:49Z</time>
      </trkpt>
      <trkpt lat="45.16375" lon="5.92867">
        <ele>2327.1</ele>
        <time>2021-02-20T12:07:50Z</time>
      </trkpt>
      <trkpt lat="45.16373" lon="5.92867">
        <ele>2326.9</ele>
        <time>2021-02-20T12:07:51Z</time>
      </trkpt>
      <trkpt lat="45.16373" lon="5.92867">
        <ele>2325.6</ele>
        <time>2021-02-20T12:07:52Z</time>
      </trkpt>
      <trkpt lat="45.16372" lon="5.92867">
        <ele>2325.5</ele>
        <time>2021-02-20T12:07:53Z</time>
      </trkpt>
      <trkpt lat="45.16372" lon="5.92867">
        <ele>2325.6</ele>
        <time>2021-02-20T12:07:54Z</time>
      </trkpt>
      <trkpt lat="45.16371" lon="5.92867">
        <ele>2325.2</ele>
        <time>2021-02-20T12:07:55Z</time>
      </trkpt>
      <trkpt lat="45.1637" lon="5.92868">
        <ele>2323.9</ele>
        <time>2021-02-20T12:07:56Z</time>
      </trkpt>
      <trkpt lat="45.1637" lon="5.92869">
        <ele>2323.8</ele>
        <time>2021-02-20T12:07:57Z</time>
      </trkpt>
      <trkpt lat="45.16369" lon="5.9287">
        <ele>2323.7</ele>
        <time>2021-02-20T12:07:58Z</time>
      </trkpt>
      <trkpt lat="45.16369" lon="5.92871">
        <ele>2323.5</ele>
        <time>2021-02-20T12:07:59Z</time>
      </trkpt>
      <trkpt lat="45.16369" lon="5.92872">
        <ele>2323.1</ele>
        <time>2021-02-20T12:08:00Z</time>
      </trkpt>
      <trkpt lat="45.16369" lon="5.92873">
        <ele>2323</ele>
        <time>2021-02-20T12:08:01Z</time>
      </trkpt>
      <trkpt lat="45.16369" lon="5.92874">
        <ele>2322.9</ele>
        <time>2021-02-20T12:08:02Z</time>
      </trkpt>
      <trkpt lat="45.16369" lon="5.92874">
        <ele>2322.8</ele>
        <time>2021-02-20T12:08:03Z</time>
      </trkpt>
      <trkpt lat="45.1637" lon="5.92875">
        <ele>2322.7</ele>
        <time>2021-02-20T12:08:04Z</time>
      </trkpt>
      <trkpt lat="45.1637" lon="5.92876">
        <ele>2322.2</ele>
        <time>2021-02-20T12:08:05Z</time>
      </trkpt>
      <trkpt lat="45.16371" lon="5.92877">
        <ele>2323.4</ele>
        <time>2021-02-20T12:08:06Z</time>
      </trkpt>
      <trkpt lat="45.16371" lon="5.92878">
        <ele>2323.2</ele>
        <time>2021-02-20T12:08:07Z</time>
      </trkpt>
      <trkpt lat="45.16371" lon="5.92879">
        <ele>2323.1</ele>
        <time>2021-02-20T12:08:08Z</time>
      </trkpt>
      <trkpt lat="45.16371" lon="5.92881">
        <ele>2322.7</ele>
        <time>2021-02-20T12:08:09Z</time>
      </trkpt>
      <trkpt lat="45.16371" lon="5.92883">
        <ele>2322.5</ele>
        <time>2021-02-20T12:08:10Z</time>
      </trkpt>
      <trkpt lat="45.16371" lon="5.92884">
        <ele>2322.1</ele>
        <time>2021-02-20T12:08:11Z</time>
      </trkpt>
      <trkpt lat="45.16371" lon="5.92886">
        <ele>2322</ele>
        <time>2021-02-20T12:08:12Z</time>
      </trkpt>
      <trkpt lat="45.16371" lon="5.92887">
        <ele>2321.8</ele>
        <time>2021-02-20T12:08:13Z</time>
      </trkpt>
      <trkpt lat="45.16371" lon="5.9289">
        <ele>2321.3</ele>
        <time>2021-02-20T12:08:14Z</time>
      </trkpt>
      <trkpt lat="45.16371" lon="5.92892">
        <ele>2321.2</ele>
        <time>2021-02-20T12:08:15Z</time>
      </trkpt>
      <trkpt lat="45.16372" lon="5.92896">
        <ele>2320.6</ele>
        <time>2021-02-20T12:08:16Z</time>
      </trkpt>
      <trkpt lat="45.16372" lon="5.92898">
        <ele>2320</ele>
        <time>2021-02-20T12:08:17Z</time>
      </trkpt>
      <trkpt lat="45.16373" lon="5.92901">
        <ele>2320.4</ele>
        <time>2021-02-20T12:08:18Z</time>
      </trkpt>
      <trkpt lat="45.16374" lon="5.92906">
        <ele>2320.3</ele>
        <time>2021-02-20T12:08:19Z</time>
      </trkpt>
      <trkpt lat="45.16376" lon="5.9291">
        <ele>2318.9</ele>
        <time>2021-02-20T12:08:20Z</time>
      </trkpt>
      <trkpt lat="45.16376" lon="5.92912">
        <ele>2318.8</ele>
        <time>2021-02-20T12:08:21Z</time>
      </trkpt>
      <trkpt lat="45.16378" lon="5.92913">
        <ele>2319.7</ele>
        <time>2021-02-20T12:08:22Z</time>
      </trkpt>
      <trkpt lat="45.16378" lon="5.92913">
        <ele>2319.5</ele>
        <time>2021-02-20T12:08:23Z</time>
      </trkpt>
      <trkpt lat="45.16378" lon="5.92913">
        <ele>2319.4</ele>
        <time>2021-02-20T12:08:24Z</time>
      </trkpt>
      <trkpt lat="45.16379" lon="5.92914">
        <ele>2319.3</ele>
        <time>2021-02-20T12:08:25Z</time>
      </trkpt>
      <trkpt lat="45.16379" lon="5.92914">
        <ele>2319.2</ele>
        <time>2021-02-20T12:08:26Z</time>
      </trkpt>
      <trkpt lat="45.1638" lon="5.92914">
        <ele>2320.1</ele>
        <time>2021-02-20T12:08:27Z</time>
      </trkpt>
      <trkpt lat="45.1638" lon="5.92914">
        <ele>2320</ele>
        <time>2021-02-20T12:08:28Z</time>
      </trkpt>
      <trkpt lat="45.16381" lon="5.92914">
        <ele>2319.8</ele>
        <time>2021-02-20T12:08:29Z</time>
      </trkpt>
      <trkpt lat="45.16381" lon="5.92914">
        <ele>2319.7</ele>
        <time>2021-02-20T12:08:30Z</time>
      </trkpt>
      <trkpt lat="45.16381" lon="5.92914">
        <ele>2319.6</ele>
        <time>2021-02-20T12:08:31Z</time>
      </trkpt>
      <trkpt lat="45.16381" lon="5.92916">
        <ele>2318.7</ele>
        <time>2021-02-20T12:08:32Z</time>
      </trkpt>
      <trkpt lat="45.16381" lon="5.92918">
        <ele>2317.8</ele>
        <time>2021-02-20T12:08:33Z</time>
      </trkpt>
      <trkpt lat="45.16379" lon="5.92924">
        <ele>2316.9</ele>
        <time>2021-02-20T12:08:34Z</time>
      </trkpt>
      <trkpt lat="45.16379" lon="5.92926">
        <ele>2315.8</ele>
        <time>2021-02-20T12:08:35Z</time>
      </trkpt>
      <trkpt lat="45.16377" lon="5.9293">
        <ele>2314.9</ele>
        <time>2021-02-20T12:08:36Z</time>
      </trkpt>
      <trkpt lat="45.16376" lon="5.92932">
        <ele>2313.2</ele>
        <time>2021-02-20T12:08:37Z</time>
      </trkpt>
      <trkpt lat="45.16376" lon="5.92933">
        <ele>2313</ele>
        <time>2021-02-20T12:08:38Z</time>
      </trkpt>
      <trkpt lat="45.16376" lon="5.92933">
        <ele>2312.9</ele>
        <time>2021-02-20T12:08:39Z</time>
      </trkpt>
      <trkpt lat="45.16376" lon="5.92933">
        <ele>2312.8</ele>
        <time>2021-02-20T12:08:40Z</time>
      </trkpt>
      <trkpt lat="45.16376" lon="5.92933">
        <ele>2312.7</ele>
        <time>2021-02-20T12:08:41Z</time>
      </trkpt>
      <trkpt lat="45.16377" lon="5.92933">
        <ele>2313.5</ele>
        <time>2021-02-20T12:08:42Z</time>
      </trkpt>
      <trkpt lat="45.16377" lon="5.92932">
        <ele>2313.4</ele>
        <time>2021-02-20T12:08:43Z</time>
      </trkpt>
      <trkpt lat="45.16377" lon="5.92932">
        <ele>2313.3</ele>
        <time>2021-02-20T12:08:44Z</time>
      </trkpt>
      <trkpt lat="45.16377" lon="5.92932">
        <ele>2313.1</ele>
        <time>2021-02-20T12:08:45Z</time>
      </trkpt>
      <trkpt lat="45.16377" lon="5.92931">
        <ele>2313</ele>
        <time>2021-02-20T12:08:46Z</time>
      </trkpt>
      <trkpt lat="45.16376" lon="5.92932">
        <ele>2312</ele>
        <time>2021-02-20T12:08:47Z</time>
      </trkpt>
      <trkpt lat="45.16374" lon="5.92932">
        <ele>2311.9</ele>
        <time>2021-02-20T12:08:48Z</time>
      </trkpt>
      <trkpt lat="45.16371" lon="5.92933">
        <ele>2310.8</ele>
        <time>2021-02-20T12:08:49Z</time>
      </trkpt>
      <trkpt lat="45.16368" lon="5.92934">
        <ele>2309.7</ele>
        <time>2021-02-20T12:08:50Z</time>
      </trkpt>
      <trkpt lat="45.16365" lon="5.92934">
        <ele>2308.5</ele>
        <time>2021-02-20T12:08:51Z</time>
      </trkpt>
      <trkpt lat="45.16362" lon="5.92934">
        <ele>2307.3</ele>
        <time>2021-02-20T12:08:52Z</time>
      </trkpt>
      <trkpt lat="45.16358" lon="5.92935">
        <ele>2305.1</ele>
        <time>2021-02-20T12:08:53Z</time>
      </trkpt>
      <trkpt lat="45.16354" lon="5.92934">
        <ele>2303.9</ele>
        <time>2021-02-20T12:08:54Z</time>
      </trkpt>
      <trkpt lat="45.16351" lon="5.92933">
        <ele>2302.7</ele>
        <time>2021-02-20T12:08:55Z</time>
      </trkpt>
      <trkpt lat="45.16349" lon="5.92929">
        <ele>2303.2</ele>
        <time>2021-02-20T12:08:56Z</time>
      </trkpt>
      <trkpt lat="45.16349" lon="5.92928">
        <ele>2301.9</ele>
        <time>2021-02-20T12:08:57Z</time>
      </trkpt>
      <trkpt lat="45.16348" lon="5.92924">
        <ele>2302.4</ele>
        <time>2021-02-20T12:08:58Z</time>
      </trkpt>
      <trkpt lat="45.16346" lon="5.92921">
        <ele>2301.6</ele>
        <time>2021-02-20T12:08:59Z</time>
      </trkpt>
      <trkpt lat="45.16343" lon="5.92919">
        <ele>2300.1</ele>
        <time>2021-02-20T12:09:00Z</time>
      </trkpt>
      <trkpt lat="45.1634" lon="5.92918">
        <ele>2298.9</ele>
        <time>2021-02-20T12:09:01Z</time>
      </trkpt>
      <trkpt lat="45.16336" lon="5.92915">
        <ele>2297.1</ele>
        <time>2021-02-20T12:09:02Z</time>
      </trkpt>
      <trkpt lat="45.16334" lon="5.92914">
        <ele>2295.3</ele>
        <time>2021-02-20T12:09:03Z</time>
      </trkpt>
      <trkpt lat="45.16329" lon="5.92913">
        <ele>2293.7</ele>
        <time>2021-02-20T12:09:04Z</time>
      </trkpt>
      <trkpt lat="45.16325" lon="5.92913">
        <ele>2289.9</ele>
        <time>2021-02-20T12:09:05Z</time>
      </trkpt>
      <trkpt lat="45.16321" lon="5.92912">
        <ele>2288.1</ele>
        <time>2021-02-20T12:09:06Z</time>
      </trkpt>
      <trkpt lat="45.16316" lon="5.92911">
        <ele>2286.3</ele>
        <time>2021-02-20T12:09:07Z</time>
      </trkpt>
      <trkpt lat="45.16311" lon="5.9291">
        <ele>2282.7</ele>
        <time>2021-02-20T12:09:08Z</time>
      </trkpt>
      <trkpt lat="45.16307" lon="5.9291">
        <ele>2278.8</ele>
        <time>2021-02-20T12:09:09Z</time>
      </trkpt>
      <trkpt lat="45.16303" lon="5.9291">
        <ele>2276.7</ele>
        <time>2021-02-20T12:09:10Z</time>
      </trkpt>
      <trkpt lat="45.16298" lon="5.92909">
        <ele>2275</ele>
        <time>2021-02-20T12:09:11Z</time>
      </trkpt>
      <trkpt lat="45.16293" lon="5.92906">
        <ele>2271.6</ele>
        <time>2021-02-20T12:09:12Z</time>
      </trkpt>
      <trkpt lat="45.16289" lon="5.92903">
        <ele>2270.5</ele>
        <time>2021-02-20T12:09:13Z</time>
      </trkpt>
      <trkpt lat="45.16285" lon="5.92899">
        <ele>2267.8</ele>
        <time>2021-02-20T12:09:14Z</time>
      </trkpt>
      <trkpt lat="45.1628" lon="5.92896">
        <ele>2266.7</ele>
        <time>2021-02-20T12:09:15Z</time>
      </trkpt>
      <trkpt lat="45.16274" lon="5.92894">
        <ele>2265.5</ele>
        <time>2021-02-20T12:09:16Z</time>
      </trkpt>
      <trkpt lat="45.16269" lon="5.92895">
        <ele>2264.4</ele>
        <time>2021-02-20T12:09:17Z</time>
      </trkpt>
      <trkpt lat="45.16265" lon="5.92896">
        <ele>2263.5</ele>
        <time>2021-02-20T12:09:18Z</time>
      </trkpt>
      <trkpt lat="45.16262" lon="5.92898">
        <ele>2262.8</ele>
        <time>2021-02-20T12:09:19Z</time>
      </trkpt>
      <trkpt lat="45.16261" lon="5.929">
        <ele>2262.6</ele>
        <time>2021-02-20T12:09:20Z</time>
      </trkpt>
      <trkpt lat="45.16262" lon="5.92902">
        <ele>2262.2</ele>
        <time>2021-02-20T12:09:21Z</time>
      </trkpt>
      <trkpt lat="45.16264" lon="5.92906">
        <ele>2261.5</ele>
        <time>2021-02-20T12:09:22Z</time>
      </trkpt>
      <trkpt lat="45.16265" lon="5.92908">
        <ele>2261.2</ele>
        <time>2021-02-20T12:09:23Z</time>
      </trkpt>
      <trkpt lat="45.16266" lon="5.9291">
        <ele>2260.8</ele>
        <time>2021-02-20T12:09:24Z</time>
      </trkpt>
      <trkpt lat="45.16266" lon="5.92912">
        <ele>2260.6</ele>
        <time>2021-02-20T12:09:25Z</time>
      </trkpt>
      <trkpt lat="45.16266" lon="5.92913">
        <ele>2260.3</ele>
        <time>2021-02-20T12:09:26Z</time>
      </trkpt>
      <trkpt lat="45.16266" lon="5.92915">
        <ele>2260.1</ele>
        <time>2021-02-20T12:09:27Z</time>
      </trkpt>
      <trkpt lat="45.16266" lon="5.9292">
        <ele>2259.4</ele>
        <time>2021-02-20T12:09:28Z</time>
      </trkpt>
      <trkpt lat="45.16266" lon="5.92921">
        <ele>2259.2</ele>
        <time>2021-02-20T12:09:29Z</time>
      </trkpt>
      <trkpt lat="45.16265" lon="5.92923">
        <ele>2258.8</ele>
        <time>2021-02-20T12:09:30Z</time>
      </trkpt>
      <trkpt lat="45.16263" lon="5.92923">
        <ele>2258.5</ele>
        <time>2021-02-20T12:09:31Z</time>
      </trkpt>
      <trkpt lat="45.16262" lon="5.92924">
        <ele>2258.1</ele>
        <time>2021-02-20T12:09:32Z</time>
      </trkpt>
      <trkpt lat="45.1626" lon="5.92924">
        <ele>2257.8</ele>
        <time>2021-02-20T12:09:33Z</time>
      </trkpt>
      <trkpt lat="45.16259" lon="5.92924">
        <ele>2257.5</ele>
        <time>2021-02-20T12:09:34Z</time>
      </trkpt>
      <trkpt lat="45.16257" lon="5.92925">
        <ele>2257.2</ele>
        <time>2021-02-20T12:09:35Z</time>
      </trkpt>
      <trkpt lat="45.16255" lon="5.92925">
        <ele>2256.8</ele>
        <time>2021-02-20T12:09:36Z</time>
      </trkpt>
      <trkpt lat="45.16254" lon="5.92926">
        <ele>2256.5</ele>
        <time>2021-02-20T12:09:37Z</time>
      </trkpt>
      <trkpt lat="45.16252" lon="5.92926">
        <ele>2256.2</ele>
        <time>2021-02-20T12:09:38Z</time>
      </trkpt>
      <trkpt lat="45.16251" lon="5.92926">
        <ele>2255.8</ele>
        <time>2021-02-20T12:09:39Z</time>
      </trkpt>
      <trkpt lat="45.16249" lon="5.92927">
        <ele>2255.5</ele>
        <time>2021-02-20T12:10:37Z</time>
      </trkpt>
      <trkpt lat="45.16248" lon="5.92927">
        <ele>2255.2</ele>
        <time>2021-02-20T12:10:38Z</time>
      </trkpt>
      <trkpt lat="45.16243" lon="5.92929">
        <ele>2254.2</ele>
        <time>2021-02-20T12:10:39Z</time>
      </trkpt>
      <trkpt lat="45.16238" lon="5.92932">
        <ele>2253.1</ele>
        <time>2021-02-20T12:10:40Z</time>
      </trkpt>
      <trkpt lat="45.16232" lon="5.92935">
        <ele>2251.8</ele>
        <time>2021-02-20T12:10:41Z</time>
      </trkpt>
      <trkpt lat="45.16227" lon="5.9294">
        <ele>2250.6</ele>
        <time>2021-02-20T12:10:42Z</time>
      </trkpt>
      <trkpt lat="45.16224" lon="5.92943">
        <ele>2249.7</ele>
        <time>2021-02-20T12:10:43Z</time>
      </trkpt>
      <trkpt lat="45.16222" lon="5.92946">
        <ele>2249.1</ele>
        <time>2021-02-20T12:10:44Z</time>
      </trkpt>
      <trkpt lat="45.16221" lon="5.92948">
        <ele>2248.8</ele>
        <time>2021-02-20T12:10:45Z</time>
      </trkpt>
      <trkpt lat="45.16221" lon="5.92948">
        <ele>2248.8</ele>
        <time>2021-02-20T12:10:46Z</time>
      </trkpt>
      <trkpt lat="45.16221" lon="5.9295">
        <ele>2248.5</ele>
        <time>2021-02-20T12:10:47Z</time>
      </trkpt>
      <trkpt lat="45.1622" lon="5.9295">
        <ele>2248.4</ele>
        <time>2021-02-20T12:10:48Z</time>
      </trkpt>
      <trkpt lat="45.16218" lon="5.92951">
        <ele>2247.9</ele>
        <time>2021-02-20T12:10:49Z</time>
      </trkpt>
      <trkpt lat="45.16215" lon="5.92952">
        <ele>2247.3</ele>
        <time>2021-02-20T12:10:50Z</time>
      </trkpt>
      <trkpt lat="45.16212" lon="5.92952">
        <ele>2246.6</ele>
        <time>2021-02-20T12:10:51Z</time>
      </trkpt>
      <trkpt lat="45.16206" lon="5.92954">
        <ele>2245.4</ele>
        <time>2021-02-20T12:10:52Z</time>
      </trkpt>
      <trkpt lat="45.16199" lon="5.92955">
        <ele>2244</ele>
        <time>2021-02-20T12:10:53Z</time>
      </trkpt>
      <trkpt lat="45.16192" lon="5.92954">
        <ele>2242.5</ele>
        <time>2021-02-20T12:10:54Z</time>
      </trkpt>
      <trkpt lat="45.16186" lon="5.92953">
        <ele>2241.1</ele>
        <time>2021-02-20T12:10:55Z</time>
      </trkpt>
      <trkpt lat="45.16182" lon="5.9295">
        <ele>2240.3</ele>
        <time>2021-02-20T12:10:56Z</time>
      </trkpt>
      <trkpt lat="45.1618" lon="5.92947">
        <ele>2239.6</ele>
        <time>2021-02-20T12:10:57Z</time>
      </trkpt>
      <trkpt lat="45.16177" lon="5.92944">
        <ele>2239</ele>
        <time>2021-02-20T12:10:58Z</time>
      </trkpt>
      <trkpt lat="45.16177" lon="5.92943">
        <ele>2238.8</ele>
        <time>2021-02-20T12:10:59Z</time>
      </trkpt>
      <trkpt lat="45.16176" lon="5.92941">
        <ele>2238.5</ele>
        <time>2021-02-20T12:11:00Z</time>
      </trkpt>
      <trkpt lat="45.16175" lon="5.92941">
        <ele>2238.3</ele>
        <time>2021-02-20T12:11:01Z</time>
      </trkpt>
      <trkpt lat="45.16175" lon="5.92941">
        <ele>2238.3</ele>
        <time>2021-02-20T12:11:02Z</time>
      </trkpt>
      <trkpt lat="45.16175" lon="5.92941">
        <ele>2238.3</ele>
        <time>2021-02-20T12:11:03Z</time>
      </trkpt>
      <trkpt lat="45.16175" lon="5.92941">
        <ele>2238.3</ele>
        <time>2021-02-20T12:11:04Z</time>
      </trkpt>
      <trkpt lat="45.16175" lon="5.92941">
        <ele>2238.3</ele>
        <time>2021-02-20T12:11:05Z</time>
      </trkpt>
      <trkpt lat="45.16175" lon="5.92941">
        <ele>2238.3</ele>
        <time>2021-02-20T12:11:06Z</time>
      </trkpt>
      <trkpt lat="45.16175" lon="5.92941">
        <ele>2238.3</ele>
        <time>2021-02-20T12:11:07Z</time>
      </trkpt>
      <trkpt lat="45.16177" lon="5.92938">
        <ele>2237.8</ele>
        <time>2021-02-20T12:11:08Z</time>
      </trkpt>
      <trkpt lat="45.16178" lon="5.92939">
        <ele>2237.7</ele>
        <time>2021-02-20T12:11:09Z</time>
      </trkpt>
      <trkpt lat="45.16178" lon="5.92941">
        <ele>2237.4</ele>
        <time>2021-02-20T12:11:10Z</time>
      </trkpt>
      <trkpt lat="45.16178" lon="5.92941">
        <ele>2237.4</ele>
        <time>2021-02-20T12:11:11Z</time>
      </trkpt>
      <trkpt lat="45.1618" lon="5.92955">
        <ele>2235.2</ele>
        <time>2021-02-20T12:11:27Z</time>
      </trkpt>
      <trkpt lat="45.16182" lon="5.9296">
        <ele>2234.4</ele>
        <time>2021-02-20T12:11:28Z</time>
      </trkpt>
      <trkpt lat="45.16185" lon="5.92965">
        <ele>2233.5</ele>
        <time>2021-02-20T12:11:29Z</time>
      </trkpt>
      <trkpt lat="45.16188" lon="5.9297">
        <ele>2232.6</ele>
        <time>2021-02-20T12:11:30Z</time>
      </trkpt>
      <trkpt lat="45.16191" lon="5.92975">
        <ele>2231.7</ele>
        <time>2021-02-20T12:11:31Z</time>
      </trkpt>
      <trkpt lat="45.16196" lon="5.92981">
        <ele>2230.3</ele>
        <time>2021-02-20T12:11:32Z</time>
      </trkpt>
      <trkpt lat="45.16201" lon="5.92989">
        <ele>2228.6</ele>
        <time>2021-02-20T12:11:33Z</time>
      </trkpt>
      <trkpt lat="45.16204" lon="5.92997">
        <ele>2227.4</ele>
        <time>2021-02-20T12:11:34Z</time>
      </trkpt>
      <trkpt lat="45.16205" lon="5.93003">
        <ele>2226.5</ele>
        <time>2021-02-20T12:11:35Z</time>
      </trkpt>
      <trkpt lat="45.16207" lon="5.93009">
        <ele>2225.5</ele>
        <time>2021-02-20T12:11:36Z</time>
      </trkpt>
      <trkpt lat="45.16197" lon="5.92998">
        <ele>2222.8</ele>
        <time>2021-02-20T12:11:37Z</time>
      </trkpt>
      <trkpt lat="45.16194" lon="5.93001">
        <ele>2222.2</ele>
        <time>2021-02-20T12:11:38Z</time>
      </trkpt>
      <trkpt lat="45.16194" lon="5.93004">
        <ele>2221.7</ele>
        <time>2021-02-20T12:11:39Z</time>
      </trkpt>
      <trkpt lat="45.16192" lon="5.93007">
        <ele>2221</ele>
        <time>2021-02-20T12:11:40Z</time>
      </trkpt>
      <trkpt lat="45.16187" lon="5.93004">
        <ele>2219.9</ele>
        <time>2021-02-20T12:11:41Z</time>
      </trkpt>
      <trkpt lat="45.16186" lon="5.93006">
        <ele>2219.5</ele>
        <time>2021-02-20T12:11:42Z</time>
      </trkpt>
      <trkpt lat="45.16185" lon="5.9301">
        <ele>2219</ele>
        <time>2021-02-20T12:11:43Z</time>
      </trkpt>
      <trkpt lat="45.16188" lon="5.93019">
        <ele>2217.6</ele>
        <time>2021-02-20T12:11:44Z</time>
      </trkpt>
      <trkpt lat="45.16186" lon="5.93025">
        <ele>2216.5</ele>
        <time>2021-02-20T12:11:45Z</time>
      </trkpt>
      <trkpt lat="45.16187" lon="5.93031">
        <ele>2215.8</ele>
        <time>2021-02-20T12:11:46Z</time>
      </trkpt>
      <trkpt lat="45.16188" lon="5.93035">
        <ele>2215.1</ele>
        <time>2021-02-20T12:11:47Z</time>
      </trkpt>
      <trkpt lat="45.16187" lon="5.93039">
        <ele>2214.5</ele>
        <time>2021-02-20T12:11:48Z</time>
      </trkpt>
      <trkpt lat="45.16187" lon="5.93043">
        <ele>2213.9</ele>
        <time>2021-02-20T12:11:49Z</time>
      </trkpt>
      <trkpt lat="45.16187" lon="5.93048">
        <ele>2213.2</ele>
        <time>2021-02-20T12:11:50Z</time>
      </trkpt>
      <trkpt lat="45.16187" lon="5.93049">
        <ele>2213</ele>
        <time>2021-02-20T12:11:51Z</time>
      </trkpt>
      <trkpt lat="45.16189" lon="5.93056">
        <ele>2212</ele>
        <time>2021-02-20T12:11:52Z</time>
      </trkpt>
      <trkpt lat="45.1619" lon="5.93059">
        <ele>2211.4</ele>
        <time>2021-02-20T12:11:53Z</time>
      </trkpt>
      <trkpt lat="45.16191" lon="5.93064">
        <ele>2210.7</ele>
        <time>2021-02-20T12:11:54Z</time>
      </trkpt>
      <trkpt lat="45.16192" lon="5.93066">
        <ele>2210.3</ele>
        <time>2021-02-20T12:11:55Z</time>
      </trkpt>
      <trkpt lat="45.16193" lon="5.93071">
        <ele>2209.6</ele>
        <time>2021-02-20T12:11:56Z</time>
      </trkpt>
      <trkpt lat="45.16194" lon="5.93076">
        <ele>2208.8</ele>
        <time>2021-02-20T12:11:57Z</time>
      </trkpt>
      <trkpt lat="45.16195" lon="5.9308">
        <ele>2208.2</ele>
        <time>2021-02-20T12:11:58Z</time>
      </trkpt>
      <trkpt lat="45.16195" lon="5.93081">
        <ele>2208</ele>
        <time>2021-02-20T12:11:59Z</time>
      </trkpt>
      <trkpt lat="45.16195" lon="5.93081">
        <ele>2207.9</ele>
        <time>2021-02-20T12:12:00Z</time>
      </trkpt>
      <trkpt lat="45.16194" lon="5.93081">
        <ele>2207.8</ele>
        <time>2021-02-20T12:12:01Z</time>
      </trkpt>
      <trkpt lat="45.16194" lon="5.93081">
        <ele>2207.7</ele>
        <time>2021-02-20T12:12:02Z</time>
      </trkpt>
      <trkpt lat="45.16193" lon="5.93081">
        <ele>2207.6</ele>
        <time>2021-02-20T12:12:03Z</time>
      </trkpt>
      <trkpt lat="45.16192" lon="5.93081">
        <ele>2207.5</ele>
        <time>2021-02-20T12:12:04Z</time>
      </trkpt>
      <trkpt lat="45.16192" lon="5.93081">
        <ele>2207.4</ele>
        <time>2021-02-20T12:12:05Z</time>
      </trkpt>
      <trkpt lat="45.16191" lon="5.93081">
        <ele>2207.3</ele>
        <time>2021-02-20T12:12:06Z</time>
      </trkpt>
      <trkpt lat="45.16191" lon="5.93081">
        <ele>2207.2</ele>
        <time>2021-02-20T12:12:07Z</time>
      </trkpt>
      <trkpt lat="45.1619" lon="5.93081">
        <ele>2207</ele>
        <time>2021-02-20T12:12:08Z</time>
      </trkpt>
      <trkpt lat="45.1619" lon="5.93081">
        <ele>2206.9</ele>
        <time>2021-02-20T12:12:09Z</time>
      </trkpt>
      <trkpt lat="45.16189" lon="5.93081">
        <ele>2206.8</ele>
        <time>2021-02-20T12:13:00Z</time>
      </trkpt>
      <trkpt lat="45.16189" lon="5.93081">
        <ele>2206.7</ele>
        <time>2021-02-20T12:13:01Z</time>
      </trkpt>
      <trkpt lat="45.16187" lon="5.93078">
        <ele>2206.1</ele>
        <time>2021-02-20T12:13:02Z</time>
      </trkpt>
      <trkpt lat="45.16186" lon="5.93077">
        <ele>2205.9</ele>
        <time>2021-02-20T12:13:03Z</time>
      </trkpt>
      <trkpt lat="45.16185" lon="5.93076">
        <ele>2205.6</ele>
        <time>2021-02-20T12:13:04Z</time>
      </trkpt>
      <trkpt lat="45.16184" lon="5.93075">
        <ele>2205.4</ele>
        <time>2021-02-20T12:13:05Z</time>
      </trkpt>
      <trkpt lat="45.16183" lon="5.93076">
        <ele>2205.1</ele>
        <time>2021-02-20T12:13:06Z</time>
      </trkpt>
      <trkpt lat="45.16183" lon="5.93078">
        <ele>2204.8</ele>
        <time>2021-02-20T12:13:07Z</time>
      </trkpt>
      <trkpt lat="45.16183" lon="5.9308">
        <ele>2204.6</ele>
        <time>2021-02-20T12:13:08Z</time>
      </trkpt>
      <trkpt lat="45.16183" lon="5.93081">
        <ele>2204.5</ele>
        <time>2021-02-20T12:13:09Z</time>
      </trkpt>
      <trkpt lat="45.16183" lon="5.93082">
        <ele>2204.3</ele>
        <time>2021-02-20T12:13:10Z</time>
      </trkpt>
      <trkpt lat="45.16183" lon="5.93084">
        <ele>2203.9</ele>
        <time>2021-02-20T12:13:11Z</time>
      </trkpt>
      <trkpt lat="45.16183" lon="5.93086">
        <ele>2203.6</ele>
        <time>2021-02-20T12:13:12Z</time>
      </trkpt>
      <trkpt lat="45.16184" lon="5.93089">
        <ele>2203.2</ele>
        <time>2021-02-20T12:13:13Z</time>
      </trkpt>
      <trkpt lat="45.16184" lon="5.93091">
        <ele>2202.9</ele>
        <time>2021-02-20T12:13:14Z</time>
      </trkpt>
      <trkpt lat="45.16184" lon="5.93092">
        <ele>2202.7</ele>
        <time>2021-02-20T12:13:15Z</time>
      </trkpt>
      <trkpt lat="45.16185" lon="5.93097">
        <ele>2202.1</ele>
        <time>2021-02-20T12:13:16Z</time>
      </trkpt>
      <trkpt lat="45.16186" lon="5.93102">
        <ele>2201.3</ele>
        <time>2021-02-20T12:13:17Z</time>
      </trkpt>
      <trkpt lat="45.16187" lon="5.93106">
        <ele>2200.6</ele>
        <time>2021-02-20T12:13:18Z</time>
      </trkpt>
      <trkpt lat="45.16188" lon="5.93112">
        <ele>2199.7</ele>
        <time>2021-02-20T12:13:19Z</time>
      </trkpt>
      <trkpt lat="45.1619" lon="5.93118">
        <ele>2198.8</ele>
        <time>2021-02-20T12:13:20Z</time>
      </trkpt>
      <trkpt lat="45.16191" lon="5.93123">
        <ele>2198.1</ele>
        <time>2021-02-20T12:13:21Z</time>
      </trkpt>
      <trkpt lat="45.16192" lon="5.93127">
        <ele>2197.4</ele>
        <time>2021-02-20T12:13:22Z</time>
      </trkpt>
      <trkpt lat="45.16192" lon="5.9313">
        <ele>2197</ele>
        <time>2021-02-20T12:13:23Z</time>
      </trkpt>
      <trkpt lat="45.16192" lon="5.93131">
        <ele>2196.9</ele>
        <time>2021-02-20T12:13:24Z</time>
      </trkpt>
      <trkpt lat="45.16192" lon="5.93131">
        <ele>2196.9</ele>
        <time>2021-02-20T12:13:25Z</time>
      </trkpt>
      <trkpt lat="45.16192" lon="5.93131">
        <ele>2196.9</ele>
        <time>2021-02-20T12:13:26Z</time>
      </trkpt>
      <trkpt lat="45.16192" lon="5.93131">
        <ele>2196.9</ele>
        <time>2021-02-20T12:13:27Z</time>
      </trkpt>
      <trkpt lat="45.16192" lon="5.9313">
        <ele>2196.7</ele>
        <time>2021-02-20T12:13:28Z</time>
      </trkpt>
      <trkpt lat="45.16192" lon="5.9313">
        <ele>2196.7</ele>
        <time>2021-02-20T12:13:29Z</time>
      </trkpt>
      <trkpt lat="45.16192" lon="5.9313">
        <ele>2196.7</ele>
        <time>2021-02-20T12:13:30Z</time>
      </trkpt>
      <trkpt lat="45.16192" lon="5.9313">
        <ele>2196.7</ele>
        <time>2021-02-20T12:13:31Z</time>
      </trkpt>
      <trkpt lat="45.16192" lon="5.9313">
        <ele>2196.7</ele>
        <time>2021-02-20T12:13:32Z</time>
      </trkpt>
      <trkpt lat="45.16192" lon="5.9313">
        <ele>2196.7</ele>
        <time>2021-02-20T12:13:33Z</time>
      </trkpt>
      <trkpt lat="45.16192" lon="5.9313">
        <ele>2196.7</ele>
        <time>2021-02-20T12:13:34Z</time>
      </trkpt>
      <trkpt lat="45.16189" lon="5.93138">
        <ele>2195.4</ele>
        <time>2021-02-20T12:13:56Z</time>
      </trkpt>
      <trkpt lat="45.16189" lon="5.93143">
        <ele>2194.7</ele>
        <time>2021-02-20T12:13:57Z</time>
      </trkpt>
      <trkpt lat="45.16189" lon="5.93148">
        <ele>2194</ele>
        <time>2021-02-20T12:13:58Z</time>
      </trkpt>
      <trkpt lat="45.16189" lon="5.93149">
        <ele>2193.9</ele>
        <time>2021-02-20T12:13:59Z</time>
      </trkpt>
      <trkpt lat="45.16188" lon="5.93151">
        <ele>2193.6</ele>
        <time>2021-02-20T12:14:00Z</time>
      </trkpt>
      <trkpt lat="45.16188" lon="5.93151">
        <ele>2193.4</ele>
        <time>2021-02-20T12:14:01Z</time>
      </trkpt>
      <trkpt lat="45.16187" lon="5.93152">
        <ele>2193.2</ele>
        <time>2021-02-20T12:14:02Z</time>
      </trkpt>
      <trkpt lat="45.16187" lon="5.93153">
        <ele>2193.1</ele>
        <time>2021-02-20T12:14:03Z</time>
      </trkpt>
      <trkpt lat="45.16186" lon="5.93154">
        <ele>2192.9</ele>
        <time>2021-02-20T12:14:04Z</time>
      </trkpt>
      <trkpt lat="45.16186" lon="5.93155">
        <ele>2192.8</ele>
        <time>2021-02-20T12:14:05Z</time>
      </trkpt>
      <trkpt lat="45.16185" lon="5.93156">
        <ele>2192.6</ele>
        <time>2021-02-20T12:14:06Z</time>
      </trkpt>
      <trkpt lat="45.16185" lon="5.93157">
        <ele>2192.4</ele>
        <time>2021-02-20T12:14:07Z</time>
      </trkpt>
      <trkpt lat="45.16184" lon="5.93157">
        <ele>2192.2</ele>
        <time>2021-02-20T12:14:08Z</time>
      </trkpt>
      <trkpt lat="45.16183" lon="5.93158">
        <ele>2192.1</ele>
        <time>2021-02-20T12:14:09Z</time>
      </trkpt>
      <trkpt lat="45.16183" lon="5.93159">
        <ele>2191.9</ele>
        <time>2021-02-20T12:14:19Z</time>
      </trkpt>
      <trkpt lat="45.16182" lon="5.9316">
        <ele>2191.7</ele>
        <time>2021-02-20T12:14:20Z</time>
      </trkpt>
      <trkpt lat="45.1618" lon="5.93157">
        <ele>2191.1</ele>
        <time>2021-02-20T12:14:21Z</time>
      </trkpt>
      <trkpt lat="45.16179" lon="5.93156">
        <ele>2190.8</ele>
        <time>2021-02-20T12:14:22Z</time>
      </trkpt>
      <trkpt lat="45.16177" lon="5.93152">
        <ele>2190.1</ele>
        <time>2021-02-20T12:14:23Z</time>
      </trkpt>
      <trkpt lat="45.16176" lon="5.93151">
        <ele>2189.9</ele>
        <time>2021-02-20T12:14:24Z</time>
      </trkpt>
      <trkpt lat="45.16175" lon="5.9315">
        <ele>2189.5</ele>
        <time>2021-02-20T12:14:25Z</time>
      </trkpt>
      <trkpt lat="45.16173" lon="5.93149">
        <ele>2189.2</ele>
        <time>2021-02-20T12:14:26Z</time>
      </trkpt>
      <trkpt lat="45.16172" lon="5.93149">
        <ele>2188.9</ele>
        <time>2021-02-20T12:14:27Z</time>
      </trkpt>
      <trkpt lat="45.1617" lon="5.93147">
        <ele>2186.7</ele>
        <time>2021-02-20T12:14:28Z</time>
      </trkpt>
      <trkpt lat="45.16169" lon="5.93143">
        <ele>2187.5</ele>
        <time>2021-02-20T12:14:29Z</time>
      </trkpt>
      <trkpt lat="45.16168" lon="5.93142">
        <ele>2187.5</ele>
        <time>2021-02-20T12:14:30Z</time>
      </trkpt>
      <trkpt lat="45.16167" lon="5.9314">
        <ele>2186.1</ele>
        <time>2021-02-20T12:14:31Z</time>
      </trkpt>
      <trkpt lat="45.16166" lon="5.93138">
        <ele>2186.1</ele>
        <time>2021-02-20T12:14:32Z</time>
      </trkpt>
      <trkpt lat="45.16164" lon="5.93136">
        <ele>2184.8</ele>
        <time>2021-02-20T12:14:33Z</time>
      </trkpt>
      <trkpt lat="45.16164" lon="5.93135">
        <ele>2184.8</ele>
        <time>2021-02-20T12:14:34Z</time>
      </trkpt>
      <trkpt lat="45.16163" lon="5.93134">
        <ele>2184.8</ele>
        <time>2021-02-20T12:14:35Z</time>
      </trkpt>
      <trkpt lat="45.16163" lon="5.93132">
        <ele>2185.6</ele>
        <time>2021-02-20T12:14:36Z</time>
      </trkpt>
      <trkpt lat="45.16162" lon="5.9313">
        <ele>2185.6</ele>
        <time>2021-02-20T12:14:37Z</time>
      </trkpt>
      <trkpt lat="45.1616" lon="5.93126">
        <ele>2184.4</ele>
        <time>2021-02-20T12:14:38Z</time>
      </trkpt>
      <trkpt lat="45.16159" lon="5.93125">
        <ele>2184.4</ele>
        <time>2021-02-20T12:14:39Z</time>
      </trkpt>
      <trkpt lat="45.16157" lon="5.93125">
        <ele>2182.4</ele>
        <time>2021-02-20T12:14:40Z</time>
      </trkpt>
      <trkpt lat="45.16157" lon="5.93126">
        <ele>2182.4</ele>
        <time>2021-02-20T12:14:41Z</time>
      </trkpt>
      <trkpt lat="45.16156" lon="5.93127">
        <ele>2182.4</ele>
        <time>2021-02-20T12:14:42Z</time>
      </trkpt>
      <trkpt lat="45.16155" lon="5.93129">
        <ele>2180.6</ele>
        <time>2021-02-20T12:14:43Z</time>
      </trkpt>
      <trkpt lat="45.16152" lon="5.93128">
        <ele>2178.6</ele>
        <time>2021-02-20T12:14:44Z</time>
      </trkpt>
      <trkpt lat="45.16151" lon="5.93128">
        <ele>2178.6</ele>
        <time>2021-02-20T12:14:45Z</time>
      </trkpt>
      <trkpt lat="45.16148" lon="5.93125">
        <ele>2176.7</ele>
        <time>2021-02-20T12:14:46Z</time>
      </trkpt>
      <trkpt lat="45.16147" lon="5.93125">
        <ele>2176.7</ele>
        <time>2021-02-20T12:14:47Z</time>
      </trkpt>
      <trkpt lat="45.16144" lon="5.93125">
        <ele>2174.7</ele>
        <time>2021-02-20T12:14:48Z</time>
      </trkpt>
      <trkpt lat="45.16143" lon="5.93125">
        <ele>2172.6</ele>
        <time>2021-02-20T12:14:49Z</time>
      </trkpt>
      <trkpt lat="45.16142" lon="5.93127">
        <ele>2172.6</ele>
        <time>2021-02-20T12:14:50Z</time>
      </trkpt>
      <trkpt lat="45.16141" lon="5.93129">
        <ele>2171.8</ele>
        <time>2021-02-20T12:14:51Z</time>
      </trkpt>
      <trkpt lat="45.1614" lon="5.93133">
        <ele>2168.7</ele>
        <time>2021-02-20T12:14:52Z</time>
      </trkpt>
      <trkpt lat="45.16139" lon="5.93138">
        <ele>2167.9</ele>
        <time>2021-02-20T12:14:53Z</time>
      </trkpt>
      <trkpt lat="45.16138" lon="5.93141">
        <ele>2167.9</ele>
        <time>2021-02-20T12:14:54Z</time>
      </trkpt>
      <trkpt lat="45.16137" lon="5.93142">
        <ele>2164.7</ele>
        <time>2021-02-20T12:14:55Z</time>
      </trkpt>
      <trkpt lat="45.16134" lon="5.93139">
        <ele>2163.4</ele>
        <time>2021-02-20T12:14:56Z</time>
      </trkpt>
      <trkpt lat="45.16133" lon="5.93138">
        <ele>2163.4</ele>
        <time>2021-02-20T12:14:57Z</time>
      </trkpt>
      <trkpt lat="45.16132" lon="5.93137">
        <ele>2164.2</ele>
        <time>2021-02-20T12:14:58Z</time>
      </trkpt>
      <trkpt lat="45.1613" lon="5.93139">
        <ele>2161.2</ele>
        <time>2021-02-20T12:14:59Z</time>
      </trkpt>
      <trkpt lat="45.16128" lon="5.93144">
        <ele>2160.3</ele>
        <time>2021-02-20T12:15:00Z</time>
      </trkpt>
      <trkpt lat="45.16128" lon="5.93145">
        <ele>2158.2</ele>
        <time>2021-02-20T12:15:01Z</time>
      </trkpt>
      <trkpt lat="45.16125" lon="5.93147">
        <ele>2155.5</ele>
        <time>2021-02-20T12:15:02Z</time>
      </trkpt>
      <trkpt lat="45.16124" lon="5.93146">
        <ele>2155.5</ele>
        <time>2021-02-20T12:15:03Z</time>
      </trkpt>
      <trkpt lat="45.16122" lon="5.93144">
        <ele>2154.4</ele>
        <time>2021-02-20T12:15:04Z</time>
      </trkpt>
      <trkpt lat="45.1612" lon="5.93141">
        <ele>2155.3</ele>
        <time>2021-02-20T12:15:05Z</time>
      </trkpt>
      <trkpt lat="45.16119" lon="5.93137">
        <ele>2156.2</ele>
        <time>2021-02-20T12:15:06Z</time>
      </trkpt>
      <trkpt lat="45.16118" lon="5.93134">
        <ele>2154.4</ele>
        <time>2021-02-20T12:15:07Z</time>
      </trkpt>
      <trkpt lat="45.16118" lon="5.93134">
        <ele>2154.4</ele>
        <time>2021-02-20T12:15:08Z</time>
      </trkpt>
      <trkpt lat="45.16118" lon="5.93134">
        <ele>2154.4</ele>
        <time>2021-02-20T12:15:09Z</time>
      </trkpt>
      <trkpt lat="45.16117" lon="5.93134">
        <ele>2154.4</ele>
        <time>2021-02-20T12:15:10Z</time>
      </trkpt>
      <trkpt lat="45.16117" lon="5.93133">
        <ele>2154.4</ele>
        <time>2021-02-20T12:15:11Z</time>
      </trkpt>
      <trkpt lat="45.16117" lon="5.93133">
        <ele>2154.4</ele>
        <time>2021-02-20T12:15:12Z</time>
      </trkpt>
      <trkpt lat="45.16116" lon="5.93133">
        <ele>2153.3</ele>
        <time>2021-02-20T12:15:13Z</time>
      </trkpt>
      <trkpt lat="45.16116" lon="5.93133">
        <ele>2153.3</ele>
        <time>2021-02-20T12:15:14Z</time>
      </trkpt>
      <trkpt lat="45.16115" lon="5.93133">
        <ele>2153.3</ele>
        <time>2021-02-20T12:15:15Z</time>
      </trkpt>
      <trkpt lat="45.16115" lon="5.93132">
        <ele>2153.3</ele>
        <time>2021-02-20T12:15:16Z</time>
      </trkpt>
      <trkpt lat="45.16115" lon="5.93132">
        <ele>2153.3</ele>
        <time>2021-02-20T12:15:17Z</time>
      </trkpt>
      <trkpt lat="45.16114" lon="5.93132">
        <ele>2153.3</ele>
        <time>2021-02-20T12:15:18Z</time>
      </trkpt>
      <trkpt lat="45.16114" lon="5.93132">
        <ele>2153.3</ele>
        <time>2021-02-20T12:16:36Z</time>
      </trkpt>
      <trkpt lat="45.16114" lon="5.93131">
        <ele>2153.3</ele>
        <time>2021-02-20T12:16:37Z</time>
      </trkpt>
      <trkpt lat="45.16113" lon="5.93131">
        <ele>2153.3</ele>
        <time>2021-02-20T12:16:38Z</time>
      </trkpt>
      <trkpt lat="45.16113" lon="5.93129">
        <ele>2152.1</ele>
        <time>2021-02-20T12:16:39Z</time>
      </trkpt>
      <trkpt lat="45.16112" lon="5.93128">
        <ele>2152.1</ele>
        <time>2021-02-20T12:16:40Z</time>
      </trkpt>
      <trkpt lat="45.16112" lon="5.93127">
        <ele>2152.1</ele>
        <time>2021-02-20T12:16:41Z</time>
      </trkpt>
      <trkpt lat="45.16112" lon="5.93126">
        <ele>2152.1</ele>
        <time>2021-02-20T12:16:42Z</time>
      </trkpt>
      <trkpt lat="45.16112" lon="5.93126">
        <ele>2152.1</ele>
        <time>2021-02-20T12:16:43Z</time>
      </trkpt>
      <trkpt lat="45.16111" lon="5.93122">
        <ele>2153</ele>
        <time>2021-02-20T12:16:44Z</time>
      </trkpt>
      <trkpt lat="45.16111" lon="5.9312">
        <ele>2153</ele>
        <time>2021-02-20T12:16:45Z</time>
      </trkpt>
      <trkpt lat="45.1611" lon="5.93118">
        <ele>2153.9</ele>
        <time>2021-02-20T12:16:46Z</time>
      </trkpt>
      <trkpt lat="45.16109" lon="5.93117">
        <ele>2151.8</ele>
        <time>2021-02-20T12:16:47Z</time>
      </trkpt>
      <trkpt lat="45.16108" lon="5.93117">
        <ele>2151.8</ele>
        <time>2021-02-20T12:16:48Z</time>
      </trkpt>
      <trkpt lat="45.16106" lon="5.93119">
        <ele>2149.8</ele>
        <time>2021-02-20T12:16:49Z</time>
      </trkpt>
      <trkpt lat="45.16103" lon="5.9312">
        <ele>2147.9</ele>
        <time>2021-02-20T12:16:50Z</time>
      </trkpt>
      <trkpt lat="45.16102" lon="5.9312">
        <ele>2147.9</ele>
        <time>2021-02-20T12:16:51Z</time>
      </trkpt>
      <trkpt lat="45.16099" lon="5.93117">
        <ele>2146.3</ele>
        <time>2021-02-20T12:16:52Z</time>
      </trkpt>
      <trkpt lat="45.16097" lon="5.93115">
        <ele>2145.8</ele>
        <time>2021-02-20T12:16:53Z</time>
      </trkpt>
      <trkpt lat="45.16094" lon="5.93113">
        <ele>2144.2</ele>
        <time>2021-02-20T12:16:54Z</time>
      </trkpt>
      <trkpt lat="45.16092" lon="5.9311">
        <ele>2143.7</ele>
        <time>2021-02-20T12:16:55Z</time>
      </trkpt>
      <trkpt lat="45.16089" lon="5.93108">
        <ele>2143.7</ele>
        <time>2021-02-20T12:16:56Z</time>
      </trkpt>
      <trkpt lat="45.16087" lon="5.93106">
        <ele>2143.1</ele>
        <time>2021-02-20T12:16:57Z</time>
      </trkpt>
      <trkpt lat="45.16086" lon="5.93105">
        <ele>2141.4</ele>
        <time>2021-02-20T12:16:58Z</time>
      </trkpt>
      <trkpt lat="45.16082" lon="5.93104">
        <ele>2139.7</ele>
        <time>2021-02-20T12:16:59Z</time>
      </trkpt>
      <trkpt lat="45.1608" lon="5.93103">
        <ele>2139.7</ele>
        <time>2021-02-20T12:17:00Z</time>
      </trkpt>
      <trkpt lat="45.16077" lon="5.93104">
        <ele>2138.1</ele>
        <time>2021-02-20T12:17:01Z</time>
      </trkpt>
      <trkpt lat="45.16076" lon="5.93104">
        <ele>2136.7</ele>
        <time>2021-02-20T12:17:02Z</time>
      </trkpt>
      <trkpt lat="45.16075" lon="5.93104">
        <ele>2136.7</ele>
        <time>2021-02-20T12:17:03Z</time>
      </trkpt>
      <trkpt lat="45.16074" lon="5.93106">
        <ele>2135.3</ele>
        <time>2021-02-20T12:17:04Z</time>
      </trkpt>
      <trkpt lat="45.16071" lon="5.9311">
        <ele>2134.2</ele>
        <time>2021-02-20T12:17:05Z</time>
      </trkpt>
      <trkpt lat="45.16071" lon="5.93112">
        <ele>2131.9</ele>
        <time>2021-02-20T12:17:06Z</time>
      </trkpt>
      <trkpt lat="45.16068" lon="5.93117">
        <ele>2131</ele>
        <time>2021-02-20T12:17:07Z</time>
      </trkpt>
      <trkpt lat="45.16068" lon="5.93118">
        <ele>2129.7</ele>
        <time>2021-02-20T12:17:08Z</time>
      </trkpt>
      <trkpt lat="45.16066" lon="5.93118">
        <ele>2129.7</ele>
        <time>2021-02-20T12:17:09Z</time>
      </trkpt>
      <trkpt lat="45.16065" lon="5.93118">
        <ele>2129.7</ele>
        <time>2021-02-20T12:17:10Z</time>
      </trkpt>
      <trkpt lat="45.16064" lon="5.93119">
        <ele>2128.4</ele>
        <time>2021-02-20T12:17:11Z</time>
      </trkpt>
      <trkpt lat="45.16063" lon="5.9312">
        <ele>2128.4</ele>
        <time>2021-02-20T12:17:12Z</time>
      </trkpt>
      <trkpt lat="45.16063" lon="5.9312">
        <ele>2127.6</ele>
        <time>2021-02-20T12:17:13Z</time>
      </trkpt>
      <trkpt lat="45.16063" lon="5.9312">
        <ele>2127.6</ele>
        <time>2021-02-20T12:17:14Z</time>
      </trkpt>
      <trkpt lat="45.16063" lon="5.9312">
        <ele>2127.6</ele>
        <time>2021-02-20T12:17:15Z</time>
      </trkpt>
      <trkpt lat="45.16063" lon="5.9312">
        <ele>2127.6</ele>
        <time>2021-02-20T12:17:16Z</time>
      </trkpt>
      <trkpt lat="45.16063" lon="5.9312">
        <ele>2127.6</ele>
        <time>2021-02-20T12:17:17Z</time>
      </trkpt>
      <trkpt lat="45.16063" lon="5.9312">
        <ele>2127.6</ele>
        <time>2021-02-20T12:17:18Z</time>
      </trkpt>
      <trkpt lat="45.16063" lon="5.93121">
        <ele>2127.6</ele>
        <time>2021-02-20T12:17:19Z</time>
      </trkpt>
      <trkpt lat="45.16063" lon="5.93121">
        <ele>2127.6</ele>
        <time>2021-02-20T12:17:20Z</time>
      </trkpt>
      <trkpt lat="45.16063" lon="5.93121">
        <ele>2127.6</ele>
        <time>2021-02-20T12:17:21Z</time>
      </trkpt>
      <trkpt lat="45.16063" lon="5.93121">
        <ele>2127.6</ele>
        <time>2021-02-20T12:17:22Z</time>
      </trkpt>
      <trkpt lat="45.16058" lon="5.93128">
        <ele>2124.3</ele>
        <time>2021-02-20T12:17:28Z</time>
      </trkpt>
      <trkpt lat="45.16056" lon="5.93132">
        <ele>2123.7</ele>
        <time>2021-02-20T12:17:29Z</time>
      </trkpt>
      <trkpt lat="45.16053" lon="5.93134">
        <ele>2121.9</ele>
        <time>2021-02-20T12:17:30Z</time>
      </trkpt>
      <trkpt lat="45.16052" lon="5.93134">
        <ele>2120.7</ele>
        <time>2021-02-20T12:17:31Z</time>
      </trkpt>
      <trkpt lat="45.16049" lon="5.93132">
        <ele>2120</ele>
        <time>2021-02-20T12:17:32Z</time>
      </trkpt>
      <trkpt lat="45.16047" lon="5.93131">
        <ele>2120</ele>
        <time>2021-02-20T12:17:33Z</time>
      </trkpt>
      <trkpt lat="45.16045" lon="5.9313">
        <ele>2118.9</ele>
        <time>2021-02-20T12:17:34Z</time>
      </trkpt>
      <trkpt lat="45.16043" lon="5.9313">
        <ele>2117.9</ele>
        <time>2021-02-20T12:17:35Z</time>
      </trkpt>
      <trkpt lat="45.16042" lon="5.9313">
        <ele>2117.9</ele>
        <time>2021-02-20T12:17:36Z</time>
      </trkpt>
      <trkpt lat="45.16041" lon="5.9313">
        <ele>2117.9</ele>
        <time>2021-02-20T12:17:37Z</time>
      </trkpt>
      <trkpt lat="45.16041" lon="5.9313">
        <ele>2117.9</ele>
        <time>2021-02-20T12:17:38Z</time>
      </trkpt>
      <trkpt lat="45.16041" lon="5.9313">
        <ele>2117.9</ele>
        <time>2021-02-20T12:17:39Z</time>
      </trkpt>
      <trkpt lat="45.16043" lon="5.93133">
        <ele>2117.5</ele>
        <time>2021-02-20T12:17:40Z</time>
      </trkpt>
      <trkpt lat="45.16043" lon="5.93133">
        <ele>2117.5</ele>
        <time>2021-02-20T12:17:41Z</time>
      </trkpt>
      <trkpt lat="45.16043" lon="5.93134">
        <ele>2117.5</ele>
        <time>2021-02-20T12:17:42Z</time>
      </trkpt>
      <trkpt lat="45.16043" lon="5.93134">
        <ele>2117.5</ele>
        <time>2021-02-20T12:17:43Z</time>
      </trkpt>
      <trkpt lat="45.16043" lon="5.93134">
        <ele>2117.5</ele>
        <time>2021-02-20T12:17:44Z</time>
      </trkpt>
      <trkpt lat="45.16043" lon="5.93134">
        <ele>2117.5</ele>
        <time>2021-02-20T12:17:45Z</time>
      </trkpt>
      <trkpt lat="45.16043" lon="5.93133">
        <ele>2117.9</ele>
        <time>2021-02-20T12:17:46Z</time>
      </trkpt>
      <trkpt lat="45.16043" lon="5.93133">
        <ele>2117.9</ele>
        <time>2021-02-20T12:17:47Z</time>
      </trkpt>
      <trkpt lat="45.16043" lon="5.93133">
        <ele>2117.9</ele>
        <time>2021-02-20T12:17:48Z</time>
      </trkpt>
      <trkpt lat="45.16043" lon="5.93133">
        <ele>2117.9</ele>
        <time>2021-02-20T12:17:49Z</time>
      </trkpt>
      <trkpt lat="45.16043" lon="5.93133">
        <ele>2117.9</ele>
        <time>2021-02-20T12:17:50Z</time>
      </trkpt>
      <trkpt lat="45.16038" lon="5.93124">
        <ele>2117.7</ele>
        <time>2021-02-20T12:18:16Z</time>
      </trkpt>
      <trkpt lat="45.16037" lon="5.93119">
        <ele>2117.2</ele>
        <time>2021-02-20T12:18:17Z</time>
      </trkpt>
      <trkpt lat="45.16036" lon="5.93114">
        <ele>2117.7</ele>
        <time>2021-02-20T12:18:18Z</time>
      </trkpt>
      <trkpt lat="45.16033" lon="5.93108">
        <ele>2117.2</ele>
        <time>2021-02-20T12:18:19Z</time>
      </trkpt>
      <trkpt lat="45.1603" lon="5.93101">
        <ele>2117.3</ele>
        <time>2021-02-20T12:18:20Z</time>
      </trkpt>
      <trkpt lat="45.16028" lon="5.93091">
        <ele>2117.3</ele>
        <time>2021-02-20T12:18:21Z</time>
      </trkpt>
      <trkpt lat="45.16025" lon="5.93082">
        <ele>2117.3</ele>
        <time>2021-02-20T12:18:22Z</time>
      </trkpt>
      <trkpt lat="45.16021" lon="5.93073">
        <ele>2118</ele>
        <time>2021-02-20T12:18:23Z</time>
      </trkpt>
      <trkpt lat="45.16017" lon="5.93065">
        <ele>2117.5</ele>
        <time>2021-02-20T12:18:24Z</time>
      </trkpt>
      <trkpt lat="45.16014" lon="5.93059">
        <ele>2117.8</ele>
        <time>2021-02-20T12:18:25Z</time>
      </trkpt>
      <trkpt lat="45.16012" lon="5.93054">
        <ele>2117.5</ele>
        <time>2021-02-20T12:18:26Z</time>
      </trkpt>
      <trkpt lat="45.16009" lon="5.93051">
        <ele>2117.2</ele>
        <time>2021-02-20T12:18:27Z</time>
      </trkpt>
      <trkpt lat="45.16007" lon="5.93048">
        <ele>2116</ele>
        <time>2021-02-20T12:18:28Z</time>
      </trkpt>
      <trkpt lat="45.16007" lon="5.93044">
        <ele>2116.6</ele>
        <time>2021-02-20T12:18:29Z</time>
      </trkpt>
      <trkpt lat="45.16006" lon="5.93041">
        <ele>2117.2</ele>
        <time>2021-02-20T12:18:30Z</time>
      </trkpt>
      <trkpt lat="45.16005" lon="5.9304">
        <ele>2117.2</ele>
        <time>2021-02-20T12:18:31Z</time>
      </trkpt>
      <trkpt lat="45.16004" lon="5.93039">
        <ele>2115.9</ele>
        <time>2021-02-20T12:18:32Z</time>
      </trkpt>
      <trkpt lat="45.16003" lon="5.93039">
        <ele>2115.9</ele>
        <time>2021-02-20T12:18:33Z</time>
      </trkpt>
      <trkpt lat="45.16002" lon="5.93039">
        <ele>2115.9</ele>
        <time>2021-02-20T12:18:34Z</time>
      </trkpt>
      <trkpt lat="45.16002" lon="5.93038">
        <ele>2116.4</ele>
        <time>2021-02-20T12:18:35Z</time>
      </trkpt>
      <trkpt lat="45.16002" lon="5.93037">
        <ele>2116.4</ele>
        <time>2021-02-20T12:18:36Z</time>
      </trkpt>
      <trkpt lat="45.16002" lon="5.93036">
        <ele>2116.4</ele>
        <time>2021-02-20T12:18:37Z</time>
      </trkpt>
      <trkpt lat="45.16001" lon="5.93036">
        <ele>2116.4</ele>
        <time>2021-02-20T12:18:38Z</time>
      </trkpt>
      <trkpt lat="45.16001" lon="5.93035">
        <ele>2115.1</ele>
        <time>2021-02-20T12:18:39Z</time>
      </trkpt>
      <trkpt lat="45.16001" lon="5.93035">
        <ele>2115.1</ele>
        <time>2021-02-20T12:18:40Z</time>
      </trkpt>
      <trkpt lat="45.16001" lon="5.93033">
        <ele>2115.6</ele>
        <time>2021-02-20T12:18:41Z</time>
      </trkpt>
      <trkpt lat="45.16001" lon="5.93033">
        <ele>2115.6</ele>
        <time>2021-02-20T12:18:42Z</time>
      </trkpt>
      <trkpt lat="45.16001" lon="5.93032">
        <ele>2115.6</ele>
        <time>2021-02-20T12:18:43Z</time>
      </trkpt>
      <trkpt lat="45.16001" lon="5.93032">
        <ele>2115.6</ele>
        <time>2021-02-20T12:18:44Z</time>
      </trkpt>
      <trkpt lat="45.16001" lon="5.93032">
        <ele>2115.6</ele>
        <time>2021-02-20T12:18:45Z</time>
      </trkpt>
      <trkpt lat="45.16001" lon="5.93031">
        <ele>2115.6</ele>
        <time>2021-02-20T12:18:46Z</time>
      </trkpt>
      <trkpt lat="45.16001" lon="5.93031">
        <ele>2115.6</ele>
        <time>2021-02-20T12:18:47Z</time>
      </trkpt>
      <trkpt lat="45.16001" lon="5.9303">
        <ele>2115.6</ele>
        <time>2021-02-20T12:18:48Z</time>
      </trkpt>
      <trkpt lat="45.16001" lon="5.9303">
        <ele>2117</ele>
        <time>2021-02-20T12:18:49Z</time>
      </trkpt>
      <trkpt lat="45.16001" lon="5.9303">
        <ele>2117.5</ele>
        <time>2021-02-20T12:18:50Z</time>
      </trkpt>
      <trkpt lat="45.16002" lon="5.93029">
        <ele>2117.5</ele>
        <time>2021-02-20T12:18:51Z</time>
      </trkpt>
      <trkpt lat="45.16002" lon="5.93029">
        <ele>2117.5</ele>
        <time>2021-02-20T12:18:52Z</time>
      </trkpt>
      <trkpt lat="45.16002" lon="5.93029">
        <ele>2117.5</ele>
        <time>2021-02-20T12:18:53Z</time>
      </trkpt>
      <trkpt lat="45.16002" lon="5.93029">
        <ele>2117.5</ele>
        <time>2021-02-20T12:29:06Z</time>
      </trkpt>
      <trkpt lat="45.16002" lon="5.93028">
        <ele>2117.5</ele>
        <time>2021-02-20T12:29:07Z</time>
      </trkpt>
      <trkpt lat="45.16002" lon="5.93028">
        <ele>2117.5</ele>
        <time>2021-02-20T12:29:08Z</time>
      </trkpt>
      <trkpt lat="45.16002" lon="5.93028">
        <ele>2117.5</ele>
        <time>2021-02-20T12:29:09Z</time>
      </trkpt>
      <trkpt lat="45.16003" lon="5.93027">
        <ele>2117.5</ele>
        <time>2021-02-20T12:29:10Z</time>
      </trkpt>
      <trkpt lat="45.16003" lon="5.93027">
        <ele>2117.5</ele>
        <time>2021-02-20T12:29:11Z</time>
      </trkpt>
      <trkpt lat="45.16002" lon="5.93027">
        <ele>2117.5</ele>
        <time>2021-02-20T12:29:12Z</time>
      </trkpt>
      <trkpt lat="45.16001" lon="5.93027">
        <ele>2116.1</ele>
        <time>2021-02-20T12:29:13Z</time>
      </trkpt>
      <trkpt lat="45.16" lon="5.93026">
        <ele>2116.1</ele>
        <time>2021-02-20T12:29:14Z</time>
      </trkpt>
      <trkpt lat="45.15999" lon="5.93026">
        <ele>2116.1</ele>
        <time>2021-02-20T12:29:15Z</time>
      </trkpt>
      <trkpt lat="45.15997" lon="5.93025">
        <ele>2115.3</ele>
        <time>2021-02-20T12:29:16Z</time>
      </trkpt>
      <trkpt lat="45.15996" lon="5.93025">
        <ele>2115.3</ele>
        <time>2021-02-20T12:29:17Z</time>
      </trkpt>
      <trkpt lat="45.15995" lon="5.93024">
        <ele>2114.1</ele>
        <time>2021-02-20T12:29:18Z</time>
      </trkpt>
      <trkpt lat="45.15994" lon="5.93023">
        <ele>2114.1</ele>
        <time>2021-02-20T12:29:19Z</time>
      </trkpt>
      <trkpt lat="45.15993" lon="5.93022">
        <ele>2114.1</ele>
        <time>2021-02-20T12:29:20Z</time>
      </trkpt>
      <trkpt lat="45.15993" lon="5.93021">
        <ele>2114.6</ele>
        <time>2021-02-20T12:29:21Z</time>
      </trkpt>
      <trkpt lat="45.15992" lon="5.9302">
        <ele>2114.6</ele>
        <time>2021-02-20T12:29:22Z</time>
      </trkpt>
      <trkpt lat="45.15992" lon="5.93019">
        <ele>2113.5</ele>
        <time>2021-02-20T12:29:23Z</time>
      </trkpt>
      <trkpt lat="45.15991" lon="5.93018">
        <ele>2113.5</ele>
        <time>2021-02-20T12:29:24Z</time>
      </trkpt>
      <trkpt lat="45.1599" lon="5.93017">
        <ele>2113.5</ele>
        <time>2021-02-20T12:29:25Z</time>
      </trkpt>
      <trkpt lat="45.15989" lon="5.93017">
        <ele>2114.1</ele>
        <time>2021-02-20T12:29:26Z</time>
      </trkpt>
      <trkpt lat="45.15989" lon="5.93016">
        <ele>2113</ele>
        <time>2021-02-20T12:29:27Z</time>
      </trkpt>
      <trkpt lat="45.15988" lon="5.93015">
        <ele>2113</ele>
        <time>2021-02-20T12:29:28Z</time>
      </trkpt>
      <trkpt lat="45.15988" lon="5.93014">
        <ele>2113</ele>
        <time>2021-02-20T12:29:29Z</time>
      </trkpt>
      <trkpt lat="45.15987" lon="5.93014">
        <ele>2113</ele>
        <time>2021-02-20T12:29:30Z</time>
      </trkpt>
      <trkpt lat="45.15987" lon="5.93013">
        <ele>2113</ele>
        <time>2021-02-20T12:29:31Z</time>
      </trkpt>
      <trkpt lat="45.15986" lon="5.93013">
        <ele>2113</ele>
        <time>2021-02-20T12:29:32Z</time>
      </trkpt>
      <trkpt lat="45.15986" lon="5.93013">
        <ele>2112.6</ele>
        <time>2021-02-20T12:29:33Z</time>
      </trkpt>
      <trkpt lat="45.15985" lon="5.93012">
        <ele>2112.6</ele>
        <time>2021-02-20T12:29:34Z</time>
      </trkpt>
      <trkpt lat="45.15984" lon="5.93012">
        <ele>2112.6</ele>
        <time>2021-02-20T12:29:35Z</time>
      </trkpt>
      <trkpt lat="45.15984" lon="5.93011">
        <ele>2112.6</ele>
        <time>2021-02-20T12:29:36Z</time>
      </trkpt>
      <trkpt lat="45.15983" lon="5.93011">
        <ele>2111.4</ele>
        <time>2021-02-20T12:29:37Z</time>
      </trkpt>
      <trkpt lat="45.15982" lon="5.9301">
        <ele>2111.4</ele>
        <time>2021-02-20T12:29:38Z</time>
      </trkpt>
      <trkpt lat="45.15982" lon="5.9301">
        <ele>2111.4</ele>
        <time>2021-02-20T12:29:39Z</time>
      </trkpt>
      <trkpt lat="45.15981" lon="5.93009">
        <ele>2111.4</ele>
        <time>2021-02-20T12:29:40Z</time>
      </trkpt>
      <trkpt lat="45.1598" lon="5.93009">
        <ele>2111.4</ele>
        <time>2021-02-20T12:29:41Z</time>
      </trkpt>
      <trkpt lat="45.15979" lon="5.93008">
        <ele>2110.8</ele>
        <time>2021-02-20T12:29:42Z</time>
      </trkpt>
      <trkpt lat="45.15979" lon="5.93007">
        <ele>2110.8</ele>
        <time>2021-02-20T12:29:43Z</time>
      </trkpt>
      <trkpt lat="45.15978" lon="5.93007">
        <ele>2110.8</ele>
        <time>2021-02-20T12:29:44Z</time>
      </trkpt>
      <trkpt lat="45.15978" lon="5.93007">
        <ele>2110.8</ele>
        <time>2021-02-20T12:29:45Z</time>
      </trkpt>
      <trkpt lat="45.15977" lon="5.93006">
        <ele>2110.8</ele>
        <time>2021-02-20T12:29:46Z</time>
      </trkpt>
      <trkpt lat="45.15977" lon="5.93006">
        <ele>2109.6</ele>
        <time>2021-02-20T12:29:47Z</time>
      </trkpt>
      <trkpt lat="45.15976" lon="5.93006">
        <ele>2109.6</ele>
        <time>2021-02-20T12:29:48Z</time>
      </trkpt>
      <trkpt lat="45.15975" lon="5.93005">
        <ele>2109.6</ele>
        <time>2021-02-20T12:29:49Z</time>
      </trkpt>
      <trkpt lat="45.15975" lon="5.93004">
        <ele>2109.6</ele>
        <time>2021-02-20T12:29:50Z</time>
      </trkpt>
      <trkpt lat="45.15974" lon="5.93003">
        <ele>2110.2</ele>
        <time>2021-02-20T12:29:51Z</time>
      </trkpt>
      <trkpt lat="45.15973" lon="5.93002">
        <ele>2108.9</ele>
        <time>2021-02-20T12:29:52Z</time>
      </trkpt>
      <trkpt lat="45.15972" lon="5.93002">
        <ele>2108.9</ele>
        <time>2021-02-20T12:29:53Z</time>
      </trkpt>
      <trkpt lat="45.15972" lon="5.93001">
        <ele>2108.9</ele>
        <time>2021-02-20T12:29:54Z</time>
      </trkpt>
      <trkpt lat="45.15971" lon="5.93001">
        <ele>2108.9</ele>
        <time>2021-02-20T12:29:55Z</time>
      </trkpt>
      <trkpt lat="45.15971" lon="5.93001">
        <ele>2108.9</ele>
        <time>2021-02-20T12:29:56Z</time>
      </trkpt>
      <trkpt lat="45.15972" lon="5.93">
        <ele>2108.9</ele>
        <time>2021-02-20T12:29:57Z</time>
      </trkpt>
      <trkpt lat="45.15972" lon="5.92999">
        <ele>2109.6</ele>
        <time>2021-02-20T12:29:58Z</time>
      </trkpt>
      <trkpt lat="45.15972" lon="5.92999">
        <ele>2109.6</ele>
        <time>2021-02-20T12:29:59Z</time>
      </trkpt>
      <trkpt lat="45.15972" lon="5.92998">
        <ele>2109.6</ele>
        <time>2021-02-20T12:30:00Z</time>
      </trkpt>
      <trkpt lat="45.15972" lon="5.92997">
        <ele>2109.6</ele>
        <time>2021-02-20T12:30:01Z</time>
      </trkpt>
      <trkpt lat="45.15972" lon="5.92995">
        <ele>2110.2</ele>
        <time>2021-02-20T12:30:02Z</time>
      </trkpt>
      <trkpt lat="45.15972" lon="5.92994">
        <ele>2110.2</ele>
        <time>2021-02-20T12:30:03Z</time>
      </trkpt>
      <trkpt lat="45.15971" lon="5.92993">
        <ele>2110.2</ele>
        <time>2021-02-20T12:30:04Z</time>
      </trkpt>
      <trkpt lat="45.15971" lon="5.92992">
        <ele>2110.2</ele>
        <time>2021-02-20T12:30:05Z</time>
      </trkpt>
      <trkpt lat="45.15971" lon="5.92991">
        <ele>2109.6</ele>
        <time>2021-02-20T12:30:06Z</time>
      </trkpt>
      <trkpt lat="45.1597" lon="5.9299">
        <ele>2109.6</ele>
        <time>2021-02-20T12:30:07Z</time>
      </trkpt>
      <trkpt lat="45.15969" lon="5.92989">
        <ele>2109.6</ele>
        <time>2021-02-20T12:30:08Z</time>
      </trkpt>
      <trkpt lat="45.15969" lon="5.92988">
        <ele>2109.6</ele>
        <time>2021-02-20T12:30:09Z</time>
      </trkpt>
      <trkpt lat="45.15969" lon="5.92987">
        <ele>2109.6</ele>
        <time>2021-02-20T12:30:10Z</time>
      </trkpt>
      <trkpt lat="45.15969" lon="5.92986">
        <ele>2110.2</ele>
        <time>2021-02-20T12:30:11Z</time>
      </trkpt>
      <trkpt lat="45.15968" lon="5.92985">
        <ele>2109.1</ele>
        <time>2021-02-20T12:30:12Z</time>
      </trkpt>
      <trkpt lat="45.15967" lon="5.92984">
        <ele>2109.1</ele>
        <time>2021-02-20T12:30:13Z</time>
      </trkpt>
      <trkpt lat="45.15965" lon="5.92984">
        <ele>2109.1</ele>
        <time>2021-02-20T12:30:14Z</time>
      </trkpt>
      <trkpt lat="45.15964" lon="5.92983">
        <ele>2108</ele>
        <time>2021-02-20T12:30:15Z</time>
      </trkpt>
      <trkpt lat="45.15963" lon="5.92983">
        <ele>2108</ele>
        <time>2021-02-20T12:30:16Z</time>
      </trkpt>
      <trkpt lat="45.15962" lon="5.92982">
        <ele>2108.7</ele>
        <time>2021-02-20T12:30:17Z</time>
      </trkpt>
      <trkpt lat="45.15962" lon="5.92982">
        <ele>2108.7</ele>
        <time>2021-02-20T12:30:18Z</time>
      </trkpt>
      <trkpt lat="45.15961" lon="5.92981">
        <ele>2107.7</ele>
        <time>2021-02-20T12:30:19Z</time>
      </trkpt>
      <trkpt lat="45.1596" lon="5.9298">
        <ele>2107.7</ele>
        <time>2021-02-20T12:30:20Z</time>
      </trkpt>
      <trkpt lat="45.15959" lon="5.9298">
        <ele>2107.7</ele>
        <time>2021-02-20T12:30:21Z</time>
      </trkpt>
      <trkpt lat="45.15958" lon="5.92979">
        <ele>2106.7</ele>
        <time>2021-02-20T12:30:22Z</time>
      </trkpt>
      <trkpt lat="45.15958" lon="5.92978">
        <ele>2107.4</ele>
        <time>2021-02-20T12:30:23Z</time>
      </trkpt>
      <trkpt lat="45.15957" lon="5.92977">
        <ele>2107.4</ele>
        <time>2021-02-20T12:30:24Z</time>
      </trkpt>
      <trkpt lat="45.15957" lon="5.92976">
        <ele>2107.4</ele>
        <time>2021-02-20T12:30:25Z</time>
      </trkpt>
      <trkpt lat="45.15957" lon="5.92975">
        <ele>2107.4</ele>
        <time>2021-02-20T12:30:26Z</time>
      </trkpt>
      <trkpt lat="45.15957" lon="5.92974">
        <ele>2107.4</ele>
        <time>2021-02-20T12:30:27Z</time>
      </trkpt>
      <trkpt lat="45.15956" lon="5.92973">
        <ele>2108.2</ele>
        <time>2021-02-20T12:30:28Z</time>
      </trkpt>
      <trkpt lat="45.15956" lon="5.92973">
        <ele>2108.2</ele>
        <time>2021-02-20T12:30:29Z</time>
      </trkpt>
      <trkpt lat="45.15956" lon="5.92972">
        <ele>2108.2</ele>
        <time>2021-02-20T12:30:30Z</time>
      </trkpt>
      <trkpt lat="45.15956" lon="5.92971">
        <ele>2107.3</ele>
        <time>2021-02-20T12:30:31Z</time>
      </trkpt>
      <trkpt lat="45.15955" lon="5.92971">
        <ele>2107.3</ele>
        <time>2021-02-20T12:30:32Z</time>
      </trkpt>
      <trkpt lat="45.15955" lon="5.92971">
        <ele>2107.3</ele>
        <time>2021-02-20T12:30:33Z</time>
      </trkpt>
      <trkpt lat="45.15955" lon="5.92971">
        <ele>2107.3</ele>
        <time>2021-02-20T12:30:34Z</time>
      </trkpt>
      <trkpt lat="45.15955" lon="5.92971">
        <ele>2107.3</ele>
        <time>2021-02-20T12:30:35Z</time>
      </trkpt>
      <trkpt lat="45.15955" lon="5.92971">
        <ele>2107.3</ele>
        <time>2021-02-20T12:30:36Z</time>
      </trkpt>
      <trkpt lat="45.15955" lon="5.92971">
        <ele>2107.3</ele>
        <time>2021-02-20T12:30:37Z</time>
      </trkpt>
      <trkpt lat="45.15954" lon="5.92969">
        <ele>2108.1</ele>
        <time>2021-02-20T12:30:38Z</time>
      </trkpt>
      <trkpt lat="45.15953" lon="5.92968">
        <ele>2108.1</ele>
        <time>2021-02-20T12:30:39Z</time>
      </trkpt>
      <trkpt lat="45.15953" lon="5.92967">
        <ele>2107.2</ele>
        <time>2021-02-20T12:30:40Z</time>
      </trkpt>
      <trkpt lat="45.15952" lon="5.92966">
        <ele>2107.2</ele>
        <time>2021-02-20T12:30:41Z</time>
      </trkpt>
      <trkpt lat="45.15951" lon="5.92965">
        <ele>2108</ele>
        <time>2021-02-20T12:30:42Z</time>
      </trkpt>
      <trkpt lat="45.15951" lon="5.92965">
        <ele>2108</ele>
        <time>2021-02-20T12:51:56Z</time>
      </trkpt>
      <trkpt lat="45.1595" lon="5.92964">
        <ele>2108</ele>
        <time>2021-02-20T12:51:57Z</time>
      </trkpt>
      <trkpt lat="45.1595" lon="5.92963">
        <ele>2107</ele>
        <time>2021-02-20T12:51:58Z</time>
      </trkpt>
      <trkpt lat="45.15948" lon="5.92963">
        <ele>2107</ele>
        <time>2021-02-20T12:51:59Z</time>
      </trkpt>
      <trkpt lat="45.15947" lon="5.92963">
        <ele>2107</ele>
        <time>2021-02-20T12:52:00Z</time>
      </trkpt>
      <trkpt lat="45.15946" lon="5.92962">
        <ele>2106.1</ele>
        <time>2021-02-20T12:52:01Z</time>
      </trkpt>
      <trkpt lat="45.15945" lon="5.92962">
        <ele>2106.1</ele>
        <time>2021-02-20T12:52:02Z</time>
      </trkpt>
      <trkpt lat="45.15944" lon="5.92961">
        <ele>2106.1</ele>
        <time>2021-02-20T12:52:03Z</time>
      </trkpt>
      <trkpt lat="45.15942" lon="5.92961">
        <ele>2105.9</ele>
        <time>2021-02-20T12:52:04Z</time>
      </trkpt>
      <trkpt lat="45.15942" lon="5.92961">
        <ele>2105.9</ele>
        <time>2021-02-20T12:52:05Z</time>
      </trkpt>
      <trkpt lat="45.1594" lon="5.92961">
        <ele>2104.8</ele>
        <time>2021-02-20T12:52:06Z</time>
      </trkpt>
      <trkpt lat="45.15939" lon="5.9296">
        <ele>2104.8</ele>
        <time>2021-02-20T12:52:07Z</time>
      </trkpt>
      <trkpt lat="45.15938" lon="5.9296">
        <ele>2104.8</ele>
        <time>2021-02-20T12:52:08Z</time>
      </trkpt>
      <trkpt lat="45.15938" lon="5.92959">
        <ele>2104.8</ele>
        <time>2021-02-20T12:52:09Z</time>
      </trkpt>
      <trkpt lat="45.15937" lon="5.92959">
        <ele>2103.8</ele>
        <time>2021-02-20T12:52:10Z</time>
      </trkpt>
      <trkpt lat="45.15936" lon="5.92958">
        <ele>2103.8</ele>
        <time>2021-02-20T12:52:11Z</time>
      </trkpt>
      <trkpt lat="45.15935" lon="5.92957">
        <ele>2104.6</ele>
        <time>2021-02-20T12:52:12Z</time>
      </trkpt>
      <trkpt lat="45.15935" lon="5.92956">
        <ele>2104.6</ele>
        <time>2021-02-20T12:52:13Z</time>
      </trkpt>
      <trkpt lat="45.15934" lon="5.92955">
        <ele>2103.7</ele>
        <time>2021-02-20T12:52:14Z</time>
      </trkpt>
      <trkpt lat="45.15934" lon="5.92954">
        <ele>2103.7</ele>
        <time>2021-02-20T12:52:15Z</time>
      </trkpt>
      <trkpt lat="45.15934" lon="5.92953">
        <ele>2104.4</ele>
        <time>2021-02-20T12:52:16Z</time>
      </trkpt>
      <trkpt lat="45.15934" lon="5.92952">
        <ele>2104.4</ele>
        <time>2021-02-20T12:52:17Z</time>
      </trkpt>
      <trkpt lat="45.15933" lon="5.92951">
        <ele>2104.4</ele>
        <time>2021-02-20T12:52:18Z</time>
      </trkpt>
      <trkpt lat="45.15934" lon="5.92949">
        <ele>2104.4</ele>
        <time>2021-02-20T12:52:19Z</time>
      </trkpt>
      <trkpt lat="45.15934" lon="5.92948">
        <ele>2105.1</ele>
        <time>2021-02-20T12:52:20Z</time>
      </trkpt>
      <trkpt lat="45.15934" lon="5.92947">
        <ele>2105.1</ele>
        <time>2021-02-20T12:52:21Z</time>
      </trkpt>
      <trkpt lat="45.15934" lon="5.92946">
        <ele>2105.1</ele>
        <time>2021-02-20T12:52:22Z</time>
      </trkpt>
      <trkpt lat="45.15934" lon="5.92945">
        <ele>2105.1</ele>
        <time>2021-02-20T12:52:23Z</time>
      </trkpt>
      <trkpt lat="45.15933" lon="5.92944">
        <ele>2105.1</ele>
        <time>2021-02-20T12:52:24Z</time>
      </trkpt>
      <trkpt lat="45.15932" lon="5.92944">
        <ele>2105.7</ele>
        <time>2021-02-20T12:52:25Z</time>
      </trkpt>
      <trkpt lat="45.15932" lon="5.92943">
        <ele>2105.7</ele>
        <time>2021-02-20T12:52:26Z</time>
      </trkpt>
      <trkpt lat="45.15931" lon="5.92943">
        <ele>2104.9</ele>
        <time>2021-02-20T12:52:27Z</time>
      </trkpt>
      <trkpt lat="45.15932" lon="5.92942">
        <ele>2104.9</ele>
        <time>2021-02-20T12:52:28Z</time>
      </trkpt>
      <trkpt lat="45.15932" lon="5.92941">
        <ele>2105.7</ele>
        <time>2021-02-20T12:52:29Z</time>
      </trkpt>
      <trkpt lat="45.15933" lon="5.92941">
        <ele>2105.7</ele>
        <time>2021-02-20T12:52:30Z</time>
      </trkpt>
      <trkpt lat="45.15933" lon="5.92941">
        <ele>2105.7</ele>
        <time>2021-02-20T12:52:31Z</time>
      </trkpt>
      <trkpt lat="45.15934" lon="5.9294">
        <ele>2105.7</ele>
        <time>2021-02-20T12:52:32Z</time>
      </trkpt>
      <trkpt lat="45.15934" lon="5.9294">
        <ele>2105.7</ele>
        <time>2021-02-20T12:52:33Z</time>
      </trkpt>
      <trkpt lat="45.15935" lon="5.9294">
        <ele>2106.4</ele>
        <time>2021-02-20T12:52:34Z</time>
      </trkpt>
      <trkpt lat="45.15935" lon="5.92939">
        <ele>2107.3</ele>
        <time>2021-02-20T12:52:35Z</time>
      </trkpt>
      <trkpt lat="45.15936" lon="5.92939">
        <ele>2107.3</ele>
        <time>2021-02-20T12:52:36Z</time>
      </trkpt>
      <trkpt lat="45.15936" lon="5.92939">
        <ele>2107.3</ele>
        <time>2021-02-20T12:52:37Z</time>
      </trkpt>
      <trkpt lat="45.15937" lon="5.92938">
        <ele>2107.3</ele>
        <time>2021-02-20T12:52:38Z</time>
      </trkpt>
      <trkpt lat="45.15937" lon="5.92938">
        <ele>2107.3</ele>
        <time>2021-02-20T12:52:39Z</time>
      </trkpt>
      <trkpt lat="45.15938" lon="5.92938">
        <ele>2108.3</ele>
        <time>2021-02-20T12:52:49Z</time>
      </trkpt>
      <trkpt lat="45.15938" lon="5.92938">
        <ele>2108.3</ele>
        <time>2021-02-20T12:52:50Z</time>
      </trkpt>
      <trkpt lat="45.15939" lon="5.92937">
        <ele>2108.3</ele>
        <time>2021-02-20T12:52:51Z</time>
      </trkpt>
      <trkpt lat="45.15939" lon="5.92937">
        <ele>2108.3</ele>
        <time>2021-02-20T12:52:52Z</time>
      </trkpt>
      <trkpt lat="45.1594" lon="5.92937">
        <ele>2108.3</ele>
        <time>2021-02-20T12:52:53Z</time>
      </trkpt>
      <trkpt lat="45.1594" lon="5.92936">
        <ele>2108.3</ele>
        <time>2021-02-20T12:52:54Z</time>
      </trkpt>
      <trkpt lat="45.15941" lon="5.92935">
        <ele>2110.1</ele>
        <time>2021-02-20T12:52:55Z</time>
      </trkpt>
      <trkpt lat="45.15942" lon="5.92934">
        <ele>2110.1</ele>
        <time>2021-02-20T12:52:56Z</time>
      </trkpt>
      <trkpt lat="45.15944" lon="5.92932">
        <ele>2110.1</ele>
        <time>2021-02-20T12:52:57Z</time>
      </trkpt>
      <trkpt lat="45.15944" lon="5.92932">
        <ele>2111.2</ele>
        <time>2021-02-20T12:52:58Z</time>
      </trkpt>
      <trkpt lat="45.15945" lon="5.92931">
        <ele>2112</ele>
        <time>2021-02-20T12:52:59Z</time>
      </trkpt>
      <trkpt lat="45.15946" lon="5.9293">
        <ele>2112</ele>
        <time>2021-02-20T12:53:00Z</time>
      </trkpt>
      <trkpt lat="45.15946" lon="5.92929">
        <ele>2112</ele>
        <time>2021-02-20T12:53:01Z</time>
      </trkpt>
      <trkpt lat="45.15947" lon="5.92929">
        <ele>2113</ele>
        <time>2021-02-20T12:53:02Z</time>
      </trkpt>
      <trkpt lat="45.15948" lon="5.92928">
        <ele>2113</ele>
        <time>2021-02-20T12:53:03Z</time>
      </trkpt>
      <trkpt lat="45.15948" lon="5.92928">
        <ele>2113</ele>
        <time>2021-02-20T12:53:04Z</time>
      </trkpt>
      <trkpt lat="45.15949" lon="5.92928">
        <ele>2113</ele>
        <time>2021-02-20T12:53:05Z</time>
      </trkpt>
      <trkpt lat="45.15949" lon="5.92927">
        <ele>2113</ele>
        <time>2021-02-20T12:53:06Z</time>
      </trkpt>
      <trkpt lat="45.1595" lon="5.92927">
        <ele>2115</ele>
        <time>2021-02-20T12:53:07Z</time>
      </trkpt>
      <trkpt lat="45.15951" lon="5.92926">
        <ele>2115</ele>
        <time>2021-02-20T12:53:08Z</time>
      </trkpt>
      <trkpt lat="45.15951" lon="5.92926">
        <ele>2115</ele>
        <time>2021-02-20T12:53:09Z</time>
      </trkpt>
      <trkpt lat="45.15952" lon="5.92926">
        <ele>2115</ele>
        <time>2021-02-20T12:53:10Z</time>
      </trkpt>
      <trkpt lat="45.15952" lon="5.92926">
        <ele>2115</ele>
        <time>2021-02-20T12:53:11Z</time>
      </trkpt>
      <trkpt lat="45.15952" lon="5.92926">
        <ele>2115</ele>
        <time>2021-02-20T12:53:12Z</time>
      </trkpt>
      <trkpt lat="45.15953" lon="5.92927">
        <ele>2115</ele>
        <time>2021-02-20T12:53:13Z</time>
      </trkpt>
      <trkpt lat="45.15953" lon="5.92927">
        <ele>2115</ele>
        <time>2021-02-20T12:53:14Z</time>
      </trkpt>
      <trkpt lat="45.15953" lon="5.92928">
        <ele>2115</ele>
        <time>2021-02-20T12:53:15Z</time>
      </trkpt>
      <trkpt lat="45.15954" lon="5.92928">
        <ele>2115</ele>
        <time>2021-02-20T12:53:16Z</time>
      </trkpt>
      <trkpt lat="45.15954" lon="5.92928">
        <ele>2115</ele>
        <time>2021-02-20T12:53:17Z</time>
      </trkpt>
      <trkpt lat="45.15955" lon="5.92928">
        <ele>2115</ele>
        <time>2021-02-20T12:53:18Z</time>
      </trkpt>
      <trkpt lat="45.15956" lon="5.92928">
        <ele>2115</ele>
        <time>2021-02-20T12:53:19Z</time>
      </trkpt>
      <trkpt lat="45.15956" lon="5.92929">
        <ele>2116</ele>
        <time>2021-02-20T12:53:20Z</time>
      </trkpt>
      <trkpt lat="45.15957" lon="5.92928">
        <ele>2116</ele>
        <time>2021-02-20T12:53:21Z</time>
      </trkpt>
      <trkpt lat="45.15958" lon="5.92928">
        <ele>2116</ele>
        <time>2021-02-20T12:53:22Z</time>
      </trkpt>
      <trkpt lat="45.15958" lon="5.92928">
        <ele>2116</ele>
        <time>2021-02-20T12:53:23Z</time>
      </trkpt>
      <trkpt lat="45.15958" lon="5.92928">
        <ele>2116</ele>
        <time>2021-02-20T12:53:24Z</time>
      </trkpt>
      <trkpt lat="45.15959" lon="5.92928">
        <ele>2117</ele>
        <time>2021-02-20T12:53:25Z</time>
      </trkpt>
      <trkpt lat="45.15959" lon="5.92928">
        <ele>2117</ele>
        <time>2021-02-20T12:53:26Z</time>
      </trkpt>
      <trkpt lat="45.1596" lon="5.92928">
        <ele>2117</ele>
        <time>2021-02-20T12:53:27Z</time>
      </trkpt>
      <trkpt lat="45.1596" lon="5.92928">
        <ele>2117</ele>
        <time>2021-02-20T12:53:28Z</time>
      </trkpt>
      <trkpt lat="45.15961" lon="5.92928">
        <ele>2117</ele>
        <time>2021-02-20T12:53:29Z</time>
      </trkpt>
      <trkpt lat="45.15962" lon="5.92928">
        <ele>2117</ele>
        <time>2021-02-20T12:53:30Z</time>
      </trkpt>
      <trkpt lat="45.15962" lon="5.92927">
        <ele>2118.1</ele>
        <time>2021-02-20T12:53:31Z</time>
      </trkpt>
      <trkpt lat="45.15963" lon="5.92927">
        <ele>2118.1</ele>
        <time>2021-02-20T12:53:32Z</time>
      </trkpt>
      <trkpt lat="45.15964" lon="5.92927">
        <ele>2119.1</ele>
        <time>2021-02-20T12:53:33Z</time>
      </trkpt>
      <trkpt lat="45.15965" lon="5.92927">
        <ele>2119.1</ele>
        <time>2021-02-20T12:53:34Z</time>
      </trkpt>
      <trkpt lat="45.15965" lon="5.92927">
        <ele>2120.3</ele>
        <time>2021-02-20T12:53:35Z</time>
      </trkpt>
      <trkpt lat="45.15966" lon="5.92927">
        <ele>2120.3</ele>
        <time>2021-02-20T12:53:36Z</time>
      </trkpt>
      <trkpt lat="45.15967" lon="5.92926">
        <ele>2120.3</ele>
        <time>2021-02-20T12:53:37Z</time>
      </trkpt>
      <trkpt lat="45.15968" lon="5.92926">
        <ele>2120.3</ele>
        <time>2021-02-20T12:53:38Z</time>
      </trkpt>
      <trkpt lat="45.15968" lon="5.92926">
        <ele>2121.4</ele>
        <time>2021-02-20T12:53:39Z</time>
      </trkpt>
      <trkpt lat="45.15969" lon="5.92926">
        <ele>2121.4</ele>
        <time>2021-02-20T12:53:40Z</time>
      </trkpt>
      <trkpt lat="45.1597" lon="5.92926">
        <ele>2121.4</ele>
        <time>2021-02-20T12:53:41Z</time>
      </trkpt>
      <trkpt lat="45.1597" lon="5.92926">
        <ele>2121.4</ele>
        <time>2021-02-20T12:53:42Z</time>
      </trkpt>
      <trkpt lat="45.15971" lon="5.92925">
        <ele>2122.7</ele>
        <time>2021-02-20T12:53:43Z</time>
      </trkpt>
      <trkpt lat="45.15972" lon="5.92925">
        <ele>2122.7</ele>
        <time>2021-02-20T12:53:44Z</time>
      </trkpt>
      <trkpt lat="45.15972" lon="5.92925">
        <ele>2122.7</ele>
        <time>2021-02-20T12:53:45Z</time>
      </trkpt>
      <trkpt lat="45.15973" lon="5.92925">
        <ele>2122.7</ele>
        <time>2021-02-20T12:53:46Z</time>
      </trkpt>
      <trkpt lat="45.15974" lon="5.92925">
        <ele>2122.7</ele>
        <time>2021-02-20T12:53:47Z</time>
      </trkpt>
      <trkpt lat="45.15974" lon="5.92925">
        <ele>2124</ele>
        <time>2021-02-20T12:53:48Z</time>
      </trkpt>
      <trkpt lat="45.15975" lon="5.92925">
        <ele>2124</ele>
        <time>2021-02-20T12:53:49Z</time>
      </trkpt>
      <trkpt lat="45.15976" lon="5.92925">
        <ele>2124</ele>
        <time>2021-02-20T12:53:50Z</time>
      </trkpt>
      <trkpt lat="45.15976" lon="5.92925">
        <ele>2124</ele>
        <time>2021-02-20T12:53:51Z</time>
      </trkpt>
      <trkpt lat="45.15977" lon="5.92925">
        <ele>2124</ele>
        <time>2021-02-20T12:53:52Z</time>
      </trkpt>
      <trkpt lat="45.15978" lon="5.92925">
        <ele>2125.4</ele>
        <time>2021-02-20T12:53:53Z</time>
      </trkpt>
      <trkpt lat="45.15978" lon="5.92925">
        <ele>2125.4</ele>
        <time>2021-02-20T12:53:54Z</time>
      </trkpt>
      <trkpt lat="45.15979" lon="5.92924">
        <ele>2125.4</ele>
        <time>2021-02-20T12:53:55Z</time>
      </trkpt>
      <trkpt lat="45.1598" lon="5.92924">
        <ele>2125.4</ele>
        <time>2021-02-20T12:53:56Z</time>
      </trkpt>
      <trkpt lat="45.15981" lon="5.92923">
        <ele>2126.7</ele>
        <time>2021-02-20T12:53:57Z</time>
      </trkpt>
      <trkpt lat="45.15982" lon="5.92923">
        <ele>2128</ele>
        <time>2021-02-20T12:53:58Z</time>
      </trkpt>
      <trkpt lat="45.15982" lon="5.92922">
        <ele>2128</ele>
        <time>2021-02-20T12:53:59Z</time>
      </trkpt>
      <trkpt lat="45.15983" lon="5.92922">
        <ele>2128</ele>
        <time>2021-02-20T12:54:00Z</time>
      </trkpt>
      <trkpt lat="45.15983" lon="5.92922">
        <ele>2129.3</ele>
        <time>2021-02-20T12:54:01Z</time>
      </trkpt>
      <trkpt lat="45.15983" lon="5.92921">
        <ele>2129.3</ele>
        <time>2021-02-20T12:54:02Z</time>
      </trkpt>
      <trkpt lat="45.15984" lon="5.92921">
        <ele>2129.3</ele>
        <time>2021-02-20T12:54:03Z</time>
      </trkpt>
      <trkpt lat="45.15984" lon="5.9292">
        <ele>2129.3</ele>
        <time>2021-02-20T12:54:04Z</time>
      </trkpt>
      <trkpt lat="45.15984" lon="5.9292">
        <ele>2129.3</ele>
        <time>2021-02-20T12:54:05Z</time>
      </trkpt>
      <trkpt lat="45.15985" lon="5.9292">
        <ele>2129.3</ele>
        <time>2021-02-20T12:54:06Z</time>
      </trkpt>
      <trkpt lat="45.15985" lon="5.92919">
        <ele>2129.3</ele>
        <time>2021-02-20T12:54:07Z</time>
      </trkpt>
      <trkpt lat="45.15985" lon="5.92919">
        <ele>2129.3</ele>
        <time>2021-02-20T12:54:08Z</time>
      </trkpt>
      <trkpt lat="45.15986" lon="5.92919">
        <ele>2129.3</ele>
        <time>2021-02-20T12:54:09Z</time>
      </trkpt>
      <trkpt lat="45.15986" lon="5.92918">
        <ele>2132</ele>
        <time>2021-02-20T12:54:35Z</time>
      </trkpt>
      <trkpt lat="45.15987" lon="5.92918">
        <ele>2132</ele>
        <time>2021-02-20T12:54:36Z</time>
      </trkpt>
      <trkpt lat="45.15987" lon="5.92918">
        <ele>2132</ele>
        <time>2021-02-20T12:54:37Z</time>
      </trkpt>
      <trkpt lat="45.15986" lon="5.92916">
        <ele>2132</ele>
        <time>2021-02-20T12:54:38Z</time>
      </trkpt>
      <trkpt lat="45.15986" lon="5.92915">
        <ele>2132</ele>
        <time>2021-02-20T12:54:39Z</time>
      </trkpt>
      <trkpt lat="45.15986" lon="5.92914">
        <ele>2130.7</ele>
        <time>2021-02-20T12:54:40Z</time>
      </trkpt>
      <trkpt lat="45.15985" lon="5.92913">
        <ele>2132.1</ele>
        <time>2021-02-20T12:54:41Z</time>
      </trkpt>
      <trkpt lat="45.15985" lon="5.92912">
        <ele>2132.1</ele>
        <time>2021-02-20T12:54:42Z</time>
      </trkpt>
      <trkpt lat="45.15985" lon="5.92911">
        <ele>2132.1</ele>
        <time>2021-02-20T12:54:43Z</time>
      </trkpt>
      <trkpt lat="45.15985" lon="5.9291">
        <ele>2132.1</ele>
        <time>2021-02-20T12:54:44Z</time>
      </trkpt>
      <trkpt lat="45.15985" lon="5.92909">
        <ele>2133.5</ele>
        <time>2021-02-20T12:54:45Z</time>
      </trkpt>
      <trkpt lat="45.15984" lon="5.92909">
        <ele>2133.5</ele>
        <time>2021-02-20T12:54:46Z</time>
      </trkpt>
      <trkpt lat="45.15984" lon="5.92908">
        <ele>2133.5</ele>
        <time>2021-02-20T12:54:47Z</time>
      </trkpt>
      <trkpt lat="45.15984" lon="5.92908">
        <ele>2133.5</ele>
        <time>2021-02-20T12:54:48Z</time>
      </trkpt>
      <trkpt lat="45.15983" lon="5.92908">
        <ele>2133.5</ele>
        <time>2021-02-20T12:54:49Z</time>
      </trkpt>
      <trkpt lat="45.15983" lon="5.92907">
        <ele>2132.2</ele>
        <time>2021-02-20T12:54:50Z</time>
      </trkpt>
      <trkpt lat="45.15982" lon="5.92907">
        <ele>2132.2</ele>
        <time>2021-02-20T12:54:51Z</time>
      </trkpt>
      <trkpt lat="45.15982" lon="5.92906">
        <ele>2132.2</ele>
        <time>2021-02-20T12:54:52Z</time>
      </trkpt>
      <trkpt lat="45.15982" lon="5.92906">
        <ele>2132.2</ele>
        <time>2021-02-20T12:54:53Z</time>
      </trkpt>
      <trkpt lat="45.15981" lon="5.92905">
        <ele>2133.6</ele>
        <time>2021-02-20T12:54:54Z</time>
      </trkpt>
      <trkpt lat="45.15981" lon="5.92905">
        <ele>2133.6</ele>
        <time>2021-02-20T12:54:55Z</time>
      </trkpt>
      <trkpt lat="45.1598" lon="5.92904">
        <ele>2133.6</ele>
        <time>2021-02-20T12:54:56Z</time>
      </trkpt>
      <trkpt lat="45.1598" lon="5.92903">
        <ele>2132.1</ele>
        <time>2021-02-20T12:54:57Z</time>
      </trkpt>
      <trkpt lat="45.15979" lon="5.92903">
        <ele>2132.1</ele>
        <time>2021-02-20T12:54:58Z</time>
      </trkpt>
      <trkpt lat="45.15979" lon="5.92902">
        <ele>2132.1</ele>
        <time>2021-02-20T12:54:59Z</time>
      </trkpt>
      <trkpt lat="45.15979" lon="5.92902">
        <ele>2132.1</ele>
        <time>2021-02-20T12:55:00Z</time>
      </trkpt>
      <trkpt lat="45.15978" lon="5.92901">
        <ele>2132.1</ele>
        <time>2021-02-20T12:55:01Z</time>
      </trkpt>
      <trkpt lat="45.15978" lon="5.92901">
        <ele>2133.5</ele>
        <time>2021-02-20T12:55:02Z</time>
      </trkpt>
      <trkpt lat="45.15977" lon="5.92901">
        <ele>2132</ele>
        <time>2021-02-20T12:55:03Z</time>
      </trkpt>
      <trkpt lat="45.15976" lon="5.92901">
        <ele>2132</ele>
        <time>2021-02-20T12:55:04Z</time>
      </trkpt>
      <trkpt lat="45.15975" lon="5.92901">
        <ele>2132</ele>
        <time>2021-02-20T12:55:05Z</time>
      </trkpt>
      <trkpt lat="45.15975" lon="5.929">
        <ele>2132</ele>
        <time>2021-02-20T12:55:06Z</time>
      </trkpt>
      <trkpt lat="45.15974" lon="5.929">
        <ele>2132</ele>
        <time>2021-02-20T12:55:07Z</time>
      </trkpt>
      <trkpt lat="45.15973" lon="5.929">
        <ele>2130.5</ele>
        <time>2021-02-20T12:55:08Z</time>
      </trkpt>
      <trkpt lat="45.15973" lon="5.929">
        <ele>2130.5</ele>
        <time>2021-02-20T12:55:09Z</time>
      </trkpt>
      <trkpt lat="45.15972" lon="5.92899">
        <ele>2130.5</ele>
        <time>2021-02-20T12:55:10Z</time>
      </trkpt>
      <trkpt lat="45.15972" lon="5.92899">
        <ele>2130.5</ele>
        <time>2021-02-20T12:55:11Z</time>
      </trkpt>
      <trkpt lat="45.15971" lon="5.92899">
        <ele>2130.5</ele>
        <time>2021-02-20T12:55:12Z</time>
      </trkpt>
      <trkpt lat="45.15971" lon="5.92899">
        <ele>2129</ele>
        <time>2021-02-20T12:55:13Z</time>
      </trkpt>
      <trkpt lat="45.1597" lon="5.92899">
        <ele>2129</ele>
        <time>2021-02-20T12:55:14Z</time>
      </trkpt>
      <trkpt lat="45.1597" lon="5.92898">
        <ele>2129</ele>
        <time>2021-02-20T12:55:15Z</time>
      </trkpt>
      <trkpt lat="45.15969" lon="5.92898">
        <ele>2129</ele>
        <time>2021-02-20T12:55:16Z</time>
      </trkpt>
      <trkpt lat="45.15969" lon="5.92898">
        <ele>2129</ele>
        <time>2021-02-20T12:55:17Z</time>
      </trkpt>
      <trkpt lat="45.15968" lon="5.92898">
        <ele>2129</ele>
        <time>2021-02-20T12:55:18Z</time>
      </trkpt>
      <trkpt lat="45.15968" lon="5.92897">
        <ele>2127.7</ele>
        <time>2021-02-20T12:55:19Z</time>
      </trkpt>
      <trkpt lat="45.15967" lon="5.92897">
        <ele>2127.7</ele>
        <time>2021-02-20T12:55:20Z</time>
      </trkpt>
      <trkpt lat="45.15967" lon="5.92897">
        <ele>2129</ele>
        <time>2021-02-20T12:55:21Z</time>
      </trkpt>
      <trkpt lat="45.15966" lon="5.92896">
        <ele>2129</ele>
        <time>2021-02-20T12:55:22Z</time>
      </trkpt>
      <trkpt lat="45.15966" lon="5.92896">
        <ele>2129</ele>
        <time>2021-02-20T12:55:23Z</time>
      </trkpt>
      <trkpt lat="45.15965" lon="5.92896">
        <ele>2127.7</ele>
        <time>2021-02-20T12:55:24Z</time>
      </trkpt>
      <trkpt lat="45.15964" lon="5.92895">
        <ele>2127.7</ele>
        <time>2021-02-20T12:55:25Z</time>
      </trkpt>
      <trkpt lat="45.15964" lon="5.92895">
        <ele>2127.7</ele>
        <time>2021-02-20T12:55:26Z</time>
      </trkpt>
      <trkpt lat="45.15963" lon="5.92894">
        <ele>2127.7</ele>
        <time>2021-02-20T12:55:27Z</time>
      </trkpt>
      <trkpt lat="45.15963" lon="5.92894">
        <ele>2127.7</ele>
        <time>2021-02-20T12:55:28Z</time>
      </trkpt>
      <trkpt lat="45.15962" lon="5.92894">
        <ele>2127.7</ele>
        <time>2021-02-20T12:55:29Z</time>
      </trkpt>
      <trkpt lat="45.15962" lon="5.92893">
        <ele>2126.5</ele>
        <time>2021-02-20T12:55:30Z</time>
      </trkpt>
      <trkpt lat="45.15961" lon="5.92893">
        <ele>2126.5</ele>
        <time>2021-02-20T12:55:31Z</time>
      </trkpt>
      <trkpt lat="45.1596" lon="5.92893">
        <ele>2127.9</ele>
        <time>2021-02-20T12:55:32Z</time>
      </trkpt>
      <trkpt lat="45.15959" lon="5.92892">
        <ele>2127.9</ele>
        <time>2021-02-20T12:55:33Z</time>
      </trkpt>
      <trkpt lat="45.15959" lon="5.92892">
        <ele>2126.7</ele>
        <time>2021-02-20T12:55:34Z</time>
      </trkpt>
      <trkpt lat="45.15958" lon="5.92892">
        <ele>2126.7</ele>
        <time>2021-02-20T12:55:35Z</time>
      </trkpt>
      <trkpt lat="45.15958" lon="5.92892">
        <ele>2126.7</ele>
        <time>2021-02-20T12:55:36Z</time>
      </trkpt>
      <trkpt lat="45.15958" lon="5.92891">
        <ele>2126.7</ele>
        <time>2021-02-20T12:55:37Z</time>
      </trkpt>
      <trkpt lat="45.15958" lon="5.92891">
        <ele>2126.7</ele>
        <time>2021-02-20T12:55:38Z</time>
      </trkpt>
      <trkpt lat="45.15958" lon="5.92891">
        <ele>2126.7</ele>
        <time>2021-02-20T12:55:39Z</time>
      </trkpt>
      <trkpt lat="45.15958" lon="5.92891">
        <ele>2126.7</ele>
        <time>2021-02-20T12:55:40Z</time>
      </trkpt>
      <trkpt lat="45.15958" lon="5.9289">
        <ele>2126.7</ele>
        <time>2021-02-20T12:55:41Z</time>
      </trkpt>
      <trkpt lat="45.15958" lon="5.9289">
        <ele>2126.7</ele>
        <time>2021-02-20T12:55:42Z</time>
      </trkpt>
      <trkpt lat="45.15958" lon="5.9289">
        <ele>2126.7</ele>
        <time>2021-02-20T12:55:43Z</time>
      </trkpt>
      <trkpt lat="45.15957" lon="5.92889">
        <ele>2126.7</ele>
        <time>2021-02-20T12:55:44Z</time>
      </trkpt>
      <trkpt lat="45.15957" lon="5.92889">
        <ele>2126.7</ele>
        <time>2021-02-20T12:55:45Z</time>
      </trkpt>
      <trkpt lat="45.15957" lon="5.92889">
        <ele>2126.7</ele>
        <time>2021-02-20T12:55:46Z</time>
      </trkpt>
      <trkpt lat="45.15955" lon="5.92888">
        <ele>2126.9</ele>
        <time>2021-02-20T12:55:49Z</time>
      </trkpt>
      <trkpt lat="45.15955" lon="5.92888">
        <ele>2126.9</ele>
        <time>2021-02-20T12:55:50Z</time>
      </trkpt>
      <trkpt lat="45.15956" lon="5.92888">
        <ele>2126.9</ele>
        <time>2021-02-20T12:55:51Z</time>
      </trkpt>
      <trkpt lat="45.15956" lon="5.92888">
        <ele>2126.9</ele>
        <time>2021-02-20T12:55:52Z</time>
      </trkpt>
      <trkpt lat="45.15955" lon="5.92888">
        <ele>2126.9</ele>
        <time>2021-02-20T12:55:53Z</time>
      </trkpt>
      <trkpt lat="45.15955" lon="5.92888">
        <ele>2126.9</ele>
        <time>2021-02-20T12:55:54Z</time>
      </trkpt>
      <trkpt lat="45.15955" lon="5.92888">
        <ele>2126.9</ele>
        <time>2021-02-20T12:55:55Z</time>
      </trkpt>
      <trkpt lat="45.15956" lon="5.92887">
        <ele>2126.9</ele>
        <time>2021-02-20T12:55:56Z</time>
      </trkpt>
      <trkpt lat="45.15956" lon="5.92887">
        <ele>2128.1</ele>
        <time>2021-02-20T12:55:57Z</time>
      </trkpt>
      <trkpt lat="45.15957" lon="5.92887">
        <ele>2128.1</ele>
        <time>2021-02-20T12:55:58Z</time>
      </trkpt>
      <trkpt lat="45.15957" lon="5.92886">
        <ele>2128.1</ele>
        <time>2021-02-20T12:55:59Z</time>
      </trkpt>
      <trkpt lat="45.15957" lon="5.92886">
        <ele>2128.1</ele>
        <time>2021-02-20T12:56:00Z</time>
      </trkpt>
      <trkpt lat="45.15958" lon="5.92885">
        <ele>2128.1</ele>
        <time>2021-02-20T12:56:01Z</time>
      </trkpt>
      <trkpt lat="45.15958" lon="5.92885">
        <ele>2128.1</ele>
        <time>2021-02-20T12:56:02Z</time>
      </trkpt>
      <trkpt lat="45.15959" lon="5.92885">
        <ele>2128.1</ele>
        <time>2021-02-20T12:56:03Z</time>
      </trkpt>
      <trkpt lat="45.15959" lon="5.92884">
        <ele>2129.4</ele>
        <time>2021-02-20T12:56:04Z</time>
      </trkpt>
      <trkpt lat="45.15959" lon="5.92884">
        <ele>2131</ele>
        <time>2021-02-20T12:56:05Z</time>
      </trkpt>
      <trkpt lat="45.1596" lon="5.92884">
        <ele>2131</ele>
        <time>2021-02-20T12:56:06Z</time>
      </trkpt>
      <trkpt lat="45.15961" lon="5.92883">
        <ele>2131</ele>
        <time>2021-02-20T12:56:07Z</time>
      </trkpt>
      <trkpt lat="45.15961" lon="5.92882">
        <ele>2131</ele>
        <time>2021-02-20T12:56:08Z</time>
      </trkpt>
      <trkpt lat="45.15962" lon="5.92882">
        <ele>2131</ele>
        <time>2021-02-20T12:56:09Z</time>
      </trkpt>
      <trkpt lat="45.15962" lon="5.92881">
        <ele>2132.3</ele>
        <time>2021-02-20T12:56:10Z</time>
      </trkpt>
      <trkpt lat="45.15963" lon="5.9288">
        <ele>2132.3</ele>
        <time>2021-02-20T12:56:11Z</time>
      </trkpt>
      <trkpt lat="45.15964" lon="5.9288">
        <ele>2134</ele>
        <time>2021-02-20T12:56:12Z</time>
      </trkpt>
      <trkpt lat="45.15964" lon="5.92879">
        <ele>2134</ele>
        <time>2021-02-20T12:56:13Z</time>
      </trkpt>
      <trkpt lat="45.15965" lon="5.92878">
        <ele>2135.4</ele>
        <time>2021-02-20T12:56:14Z</time>
      </trkpt>
      <trkpt lat="45.15966" lon="5.92878">
        <ele>2135.4</ele>
        <time>2021-02-20T12:56:15Z</time>
      </trkpt>
      <trkpt lat="45.15967" lon="5.92878">
        <ele>2135.4</ele>
        <time>2021-02-20T12:56:16Z</time>
      </trkpt>
      <trkpt lat="45.15967" lon="5.92877">
        <ele>2135.4</ele>
        <time>2021-02-20T12:56:17Z</time>
      </trkpt>
      <trkpt lat="45.15968" lon="5.92877">
        <ele>2136.9</ele>
        <time>2021-02-20T12:56:18Z</time>
      </trkpt>
      <trkpt lat="45.15969" lon="5.92876">
        <ele>2136.9</ele>
        <time>2021-02-20T12:56:19Z</time>
      </trkpt>
      <trkpt lat="45.15969" lon="5.92876">
        <ele>2136.9</ele>
        <time>2021-02-20T12:56:20Z</time>
      </trkpt>
      <trkpt lat="45.1597" lon="5.92875">
        <ele>2138.7</ele>
        <time>2021-02-20T12:56:21Z</time>
      </trkpt>
      <trkpt lat="45.1597" lon="5.92875">
        <ele>2138.7</ele>
        <time>2021-02-20T12:56:22Z</time>
      </trkpt>
      <trkpt lat="45.15971" lon="5.92874">
        <ele>2140.3</ele>
        <time>2021-02-20T12:56:23Z</time>
      </trkpt>
      <trkpt lat="45.15972" lon="5.92874">
        <ele>2140.3</ele>
        <time>2021-02-20T12:56:24Z</time>
      </trkpt>
      <trkpt lat="45.15972" lon="5.92873">
        <ele>2140.3</ele>
        <time>2021-02-20T12:56:25Z</time>
      </trkpt>
      <trkpt lat="45.15973" lon="5.92872">
        <ele>2140.3</ele>
        <time>2021-02-20T12:56:26Z</time>
      </trkpt>
      <trkpt lat="45.15973" lon="5.92872">
        <ele>2140.3</ele>
        <time>2021-02-20T12:56:27Z</time>
      </trkpt>
      <trkpt lat="45.15974" lon="5.92871">
        <ele>2142.3</ele>
        <time>2021-02-20T12:56:28Z</time>
      </trkpt>
      <trkpt lat="45.15974" lon="5.92871">
        <ele>2144.1</ele>
        <time>2021-02-20T12:56:29Z</time>
      </trkpt>
      <trkpt lat="45.15975" lon="5.9287">
        <ele>2144.1</ele>
        <time>2021-02-20T12:56:30Z</time>
      </trkpt>
      <trkpt lat="45.15975" lon="5.9287">
        <ele>2144.1</ele>
        <time>2021-02-20T12:56:31Z</time>
      </trkpt>
      <trkpt lat="45.15975" lon="5.9287">
        <ele>2144.1</ele>
        <time>2021-02-20T12:56:32Z</time>
      </trkpt>
      <trkpt lat="45.15976" lon="5.9287">
        <ele>2144.1</ele>
        <time>2021-02-20T12:56:33Z</time>
      </trkpt>
      <trkpt lat="45.15976" lon="5.9287">
        <ele>2144.1</ele>
        <time>2021-02-20T12:56:34Z</time>
      </trkpt>
      <trkpt lat="45.15977" lon="5.9287">
        <ele>2144.1</ele>
        <time>2021-02-20T12:56:35Z</time>
      </trkpt>
      <trkpt lat="45.15978" lon="5.9287">
        <ele>2145.9</ele>
        <time>2021-02-20T12:56:36Z</time>
      </trkpt>
      <trkpt lat="45.15978" lon="5.92869">
        <ele>2145.9</ele>
        <time>2021-02-20T12:56:37Z</time>
      </trkpt>
      <trkpt lat="45.15979" lon="5.92869">
        <ele>2145.9</ele>
        <time>2021-02-20T12:56:38Z</time>
      </trkpt>
      <trkpt lat="45.15979" lon="5.92869">
        <ele>2145.9</ele>
        <time>2021-02-20T12:56:39Z</time>
      </trkpt>
      <trkpt lat="45.15979" lon="5.92869">
        <ele>2145.9</ele>
        <time>2021-02-20T12:56:40Z</time>
      </trkpt>
      <trkpt lat="45.15979" lon="5.92869">
        <ele>2145.9</ele>
        <time>2021-02-20T12:56:41Z</time>
      </trkpt>
      <trkpt lat="45.15979" lon="5.92869">
        <ele>2145.9</ele>
        <time>2021-02-20T12:56:42Z</time>
      </trkpt>
      <trkpt lat="45.15979" lon="5.92869">
        <ele>2145.9</ele>
        <time>2021-02-20T12:56:43Z</time>
      </trkpt>
      <trkpt lat="45.15979" lon="5.92869">
        <ele>2145.9</ele>
        <time>2021-02-20T12:56:44Z</time>
      </trkpt>
      <trkpt lat="45.15979" lon="5.92869">
        <ele>2145.9</ele>
        <time>2021-02-20T12:56:45Z</time>
      </trkpt>
      <trkpt lat="45.15979" lon="5.92869">
        <ele>2145.9</ele>
        <time>2021-02-20T12:56:46Z</time>
      </trkpt>
      <trkpt lat="45.15979" lon="5.92869">
        <ele>2145.9</ele>
        <time>2021-02-20T12:56:47Z</time>
      </trkpt>
      <trkpt lat="45.15981" lon="5.9287">
        <ele>2147.7</ele>
        <time>2021-02-20T12:56:48Z</time>
      </trkpt>
      <trkpt lat="45.15978" lon="5.92868">
        <ele>2145.9</ele>
        <time>2021-02-20T12:57:14Z</time>
      </trkpt>
      <trkpt lat="45.15977" lon="5.92867">
        <ele>2145.9</ele>
        <time>2021-02-20T12:57:15Z</time>
      </trkpt>
      <trkpt lat="45.15977" lon="5.92867">
        <ele>2146.1</ele>
        <time>2021-02-20T12:57:16Z</time>
      </trkpt>
      <trkpt lat="45.15976" lon="5.92866">
        <ele>2146.1</ele>
        <time>2021-02-20T12:57:17Z</time>
      </trkpt>
      <trkpt lat="45.15976" lon="5.92866">
        <ele>2146.1</ele>
        <time>2021-02-20T12:57:18Z</time>
      </trkpt>
      <trkpt lat="45.15975" lon="5.92866">
        <ele>2146.1</ele>
        <time>2021-02-20T12:57:19Z</time>
      </trkpt>
      <trkpt lat="45.15974" lon="5.92866">
        <ele>2146.1</ele>
        <time>2021-02-20T12:57:20Z</time>
      </trkpt>
      <trkpt lat="45.15974" lon="5.92866">
        <ele>2144.3</ele>
        <time>2021-02-20T12:57:21Z</time>
      </trkpt>
      <trkpt lat="45.15973" lon="5.92866">
        <ele>2144.3</ele>
        <time>2021-02-20T12:57:22Z</time>
      </trkpt>
      <trkpt lat="45.15972" lon="5.92866">
        <ele>2144.3</ele>
        <time>2021-02-20T12:57:23Z</time>
      </trkpt>
      <trkpt lat="45.15971" lon="5.92865">
        <ele>2142.6</ele>
        <time>2021-02-20T12:57:24Z</time>
      </trkpt>
      <trkpt lat="45.1597" lon="5.92865">
        <ele>2142.6</ele>
        <time>2021-02-20T12:57:25Z</time>
      </trkpt>
      <trkpt lat="45.15969" lon="5.92865">
        <ele>2142.6</ele>
        <time>2021-02-20T12:57:26Z</time>
      </trkpt>
      <trkpt lat="45.15969" lon="5.92864">
        <ele>2142.6</ele>
        <time>2021-02-20T12:57:27Z</time>
      </trkpt>
      <trkpt lat="45.15968" lon="5.92863">
        <ele>2142.6</ele>
        <time>2021-02-20T12:57:28Z</time>
      </trkpt>
      <trkpt lat="45.15968" lon="5.92863">
        <ele>2141</ele>
        <time>2021-02-20T12:57:29Z</time>
      </trkpt>
      <trkpt lat="45.15967" lon="5.92862">
        <ele>2143</ele>
        <time>2021-02-20T12:57:30Z</time>
      </trkpt>
      <trkpt lat="45.15967" lon="5.92861">
        <ele>2143</ele>
        <time>2021-02-20T12:57:31Z</time>
      </trkpt>
      <trkpt lat="45.15967" lon="5.92861">
        <ele>2143</ele>
        <time>2021-02-20T12:57:32Z</time>
      </trkpt>
      <trkpt lat="45.15967" lon="5.9286">
        <ele>2143</ele>
        <time>2021-02-20T12:57:33Z</time>
      </trkpt>
      <trkpt lat="45.15967" lon="5.9286">
        <ele>2143</ele>
        <time>2021-02-20T12:57:34Z</time>
      </trkpt>
      <trkpt lat="45.15967" lon="5.9286">
        <ele>2143</ele>
        <time>2021-02-20T12:57:35Z</time>
      </trkpt>
      <trkpt lat="45.15967" lon="5.9286">
        <ele>2143</ele>
        <time>2021-02-20T12:57:36Z</time>
      </trkpt>
      <trkpt lat="45.15967" lon="5.9286">
        <ele>2143</ele>
        <time>2021-02-20T12:57:37Z</time>
      </trkpt>
      <trkpt lat="45.15967" lon="5.9286">
        <ele>2143</ele>
        <time>2021-02-20T12:57:38Z</time>
      </trkpt>
      <trkpt lat="45.15967" lon="5.9286">
        <ele>2143</ele>
        <time>2021-02-20T12:57:39Z</time>
      </trkpt>
      <trkpt lat="45.15968" lon="5.9286">
        <ele>2144.6</ele>
        <time>2021-02-20T12:57:40Z</time>
      </trkpt>
      <trkpt lat="45.15969" lon="5.92859">
        <ele>2144.6</ele>
        <time>2021-02-20T12:57:41Z</time>
      </trkpt>
      <trkpt lat="45.1597" lon="5.92859">
        <ele>2144.6</ele>
        <time>2021-02-20T12:57:42Z</time>
      </trkpt>
      <trkpt lat="45.1597" lon="5.92859">
        <ele>2144.6</ele>
        <time>2021-02-20T12:57:43Z</time>
      </trkpt>
      <trkpt lat="45.15971" lon="5.92859">
        <ele>2144.6</ele>
        <time>2021-02-20T12:57:44Z</time>
      </trkpt>
      <trkpt lat="45.15971" lon="5.92859">
        <ele>2146.4</ele>
        <time>2021-02-20T12:57:45Z</time>
      </trkpt>
      <trkpt lat="45.15972" lon="5.92859">
        <ele>2146.4</ele>
        <time>2021-02-20T12:57:46Z</time>
      </trkpt>
      <trkpt lat="45.15973" lon="5.92859">
        <ele>2146.4</ele>
        <time>2021-02-20T12:57:47Z</time>
      </trkpt>
      <trkpt lat="45.15973" lon="5.92858">
        <ele>2146.4</ele>
        <time>2021-02-20T12:57:48Z</time>
      </trkpt>
      <trkpt lat="45.15974" lon="5.92858">
        <ele>2150.2</ele>
        <time>2021-02-20T12:57:49Z</time>
      </trkpt>
      <trkpt lat="45.15975" lon="5.92858">
        <ele>2150.2</ele>
        <time>2021-02-20T12:57:50Z</time>
      </trkpt>
      <trkpt lat="45.15975" lon="5.92857">
        <ele>2150.2</ele>
        <time>2021-02-20T12:57:51Z</time>
      </trkpt>
      <trkpt lat="45.15976" lon="5.92857">
        <ele>2150.2</ele>
        <time>2021-02-20T12:57:52Z</time>
      </trkpt>
      <trkpt lat="45.15977" lon="5.92856">
        <ele>2150.2</ele>
        <time>2021-02-20T12:57:53Z</time>
      </trkpt>
      <trkpt lat="45.15977" lon="5.92856">
        <ele>2152.1</ele>
        <time>2021-02-20T12:57:54Z</time>
      </trkpt>
      <trkpt lat="45.15978" lon="5.92855">
        <ele>2152.1</ele>
        <time>2021-02-20T12:57:55Z</time>
      </trkpt>
      <trkpt lat="45.15979" lon="5.92855">
        <ele>2152.1</ele>
        <time>2021-02-20T12:57:56Z</time>
      </trkpt>
      <trkpt lat="45.15979" lon="5.92854">
        <ele>2152.1</ele>
        <time>2021-02-20T12:57:57Z</time>
      </trkpt>
      <trkpt lat="45.1598" lon="5.92854">
        <ele>2156.1</ele>
        <time>2021-02-20T12:57:58Z</time>
      </trkpt>
      <trkpt lat="45.15981" lon="5.92854">
        <ele>2156.1</ele>
        <time>2021-02-20T12:57:59Z</time>
      </trkpt>
      <trkpt lat="45.15982" lon="5.92854">
        <ele>2156.1</ele>
        <time>2021-02-20T12:58:00Z</time>
      </trkpt>
      <trkpt lat="45.15983" lon="5.92853">
        <ele>2156.1</ele>
        <time>2021-02-20T12:58:01Z</time>
      </trkpt>
      <trkpt lat="45.15983" lon="5.92853">
        <ele>2157.9</ele>
        <time>2021-02-20T12:58:02Z</time>
      </trkpt>
      <trkpt lat="45.15984" lon="5.92852">
        <ele>2157.9</ele>
        <time>2021-02-20T12:58:03Z</time>
      </trkpt>
      <trkpt lat="45.15985" lon="5.92852">
        <ele>2157.9</ele>
        <time>2021-02-20T12:58:04Z</time>
      </trkpt>
      <trkpt lat="45.15985" lon="5.92852">
        <ele>2157.9</ele>
        <time>2021-02-20T12:58:05Z</time>
      </trkpt>
      <trkpt lat="45.15986" lon="5.92852">
        <ele>2157.9</ele>
        <time>2021-02-20T12:58:06Z</time>
      </trkpt>
      <trkpt lat="45.15986" lon="5.92852">
        <ele>2159.7</ele>
        <time>2021-02-20T12:58:07Z</time>
      </trkpt>
      <trkpt lat="45.15987" lon="5.92851">
        <ele>2159.7</ele>
        <time>2021-02-20T12:58:08Z</time>
      </trkpt>
      <trkpt lat="45.15987" lon="5.92851">
        <ele>2159.7</ele>
        <time>2021-02-20T12:58:09Z</time>
      </trkpt>
      <trkpt lat="45.15986" lon="5.92851">
        <ele>2159.7</ele>
        <time>2021-02-20T12:58:10Z</time>
      </trkpt>
      <trkpt lat="45.15986" lon="5.92851">
        <ele>2157.9</ele>
        <time>2021-02-20T12:58:11Z</time>
      </trkpt>
      <trkpt lat="45.15985" lon="5.9285">
        <ele>2157.9</ele>
        <time>2021-02-20T12:58:12Z</time>
      </trkpt>
      <trkpt lat="45.15985" lon="5.9285">
        <ele>2157.9</ele>
        <time>2021-02-20T12:58:13Z</time>
      </trkpt>
      <trkpt lat="45.15984" lon="5.9285">
        <ele>2157.9</ele>
        <time>2021-02-20T12:58:14Z</time>
      </trkpt>
      <trkpt lat="45.15984" lon="5.9285">
        <ele>2160.1</ele>
        <time>2021-02-20T12:58:15Z</time>
      </trkpt>
      <trkpt lat="45.15983" lon="5.92849">
        <ele>2160.1</ele>
        <time>2021-02-20T12:58:16Z</time>
      </trkpt>
      <trkpt lat="45.15983" lon="5.92849">
        <ele>2158.3</ele>
        <time>2021-02-20T12:58:17Z</time>
      </trkpt>
      <trkpt lat="45.15982" lon="5.92849">
        <ele>2158.3</ele>
        <time>2021-02-20T12:58:18Z</time>
      </trkpt>
      <trkpt lat="45.15982" lon="5.92849">
        <ele>2158.3</ele>
        <time>2021-02-20T12:58:31Z</time>
      </trkpt>
      <trkpt lat="45.15981" lon="5.92848">
        <ele>2158.3</ele>
        <time>2021-02-20T12:58:32Z</time>
      </trkpt>
      <trkpt lat="45.15981" lon="5.92848">
        <ele>2158.3</ele>
        <time>2021-02-20T12:58:33Z</time>
      </trkpt>
      <trkpt lat="45.1598" lon="5.92848">
        <ele>2158.3</ele>
        <time>2021-02-20T12:58:34Z</time>
      </trkpt>
      <trkpt lat="45.1598" lon="5.92848">
        <ele>2156.4</ele>
        <time>2021-02-20T12:58:35Z</time>
      </trkpt>
      <trkpt lat="45.15979" lon="5.92847">
        <ele>2156.4</ele>
        <time>2021-02-20T12:58:36Z</time>
      </trkpt>
      <trkpt lat="45.15979" lon="5.92846">
        <ele>2156.4</ele>
        <time>2021-02-20T12:58:37Z</time>
      </trkpt>
      <trkpt lat="45.15979" lon="5.92845">
        <ele>2158.6</ele>
        <time>2021-02-20T12:58:38Z</time>
      </trkpt>
      <trkpt lat="45.15978" lon="5.92844">
        <ele>2158.6</ele>
        <time>2021-02-20T12:58:39Z</time>
      </trkpt>
      <trkpt lat="45.15977" lon="5.92844">
        <ele>2158.6</ele>
        <time>2021-02-20T12:58:40Z</time>
      </trkpt>
      <trkpt lat="45.15976" lon="5.92843">
        <ele>2156.7</ele>
        <time>2021-02-20T12:58:41Z</time>
      </trkpt>
      <trkpt lat="45.15976" lon="5.92843">
        <ele>2156.7</ele>
        <time>2021-02-20T12:58:42Z</time>
      </trkpt>
      <trkpt lat="45.15975" lon="5.92843">
        <ele>2156.7</ele>
        <time>2021-02-20T12:58:43Z</time>
      </trkpt>
      <trkpt lat="45.15975" lon="5.92842">
        <ele>2156.7</ele>
        <time>2021-02-20T12:58:44Z</time>
      </trkpt>
      <trkpt lat="45.15974" lon="5.92842">
        <ele>2156.7</ele>
        <time>2021-02-20T12:58:45Z</time>
      </trkpt>
      <trkpt lat="45.15974" lon="5.92841">
        <ele>2156.7</ele>
        <time>2021-02-20T12:58:46Z</time>
      </trkpt>
      <trkpt lat="45.15974" lon="5.92841">
        <ele>2154.8</ele>
        <time>2021-02-20T12:58:47Z</time>
      </trkpt>
      <trkpt lat="45.15974" lon="5.92841">
        <ele>2154.8</ele>
        <time>2021-02-20T12:58:48Z</time>
      </trkpt>
      <trkpt lat="45.15973" lon="5.92841">
        <ele>2157.1</ele>
        <time>2021-02-20T12:58:49Z</time>
      </trkpt>
      <trkpt lat="45.15972" lon="5.92841">
        <ele>2157.1</ele>
        <time>2021-02-20T12:58:50Z</time>
      </trkpt>
      <trkpt lat="45.1597" lon="5.92841">
        <ele>2155.3</ele>
        <time>2021-02-20T12:58:51Z</time>
      </trkpt>
      <trkpt lat="45.15969" lon="5.9284">
        <ele>2155.3</ele>
        <time>2021-02-20T12:58:52Z</time>
      </trkpt>
      <trkpt lat="45.15969" lon="5.9284">
        <ele>2155.3</ele>
        <time>2021-02-20T12:58:53Z</time>
      </trkpt>
      <trkpt lat="45.15968" lon="5.9284">
        <ele>2155.3</ele>
        <time>2021-02-20T12:58:54Z</time>
      </trkpt>
      <trkpt lat="45.15968" lon="5.9284">
        <ele>2155.3</ele>
        <time>2021-02-20T12:58:55Z</time>
      </trkpt>
      <trkpt lat="45.15968" lon="5.9284">
        <ele>2153.5</ele>
        <time>2021-02-20T12:58:56Z</time>
      </trkpt>
      <trkpt lat="45.15967" lon="5.9284">
        <ele>2153.5</ele>
        <time>2021-02-20T12:58:57Z</time>
      </trkpt>
      <trkpt lat="45.15966" lon="5.9284">
        <ele>2153.5</ele>
        <time>2021-02-20T12:58:58Z</time>
      </trkpt>
      <trkpt lat="45.15966" lon="5.92839">
        <ele>2153.5</ele>
        <time>2021-02-20T12:58:59Z</time>
      </trkpt>
      <trkpt lat="45.15965" lon="5.92839">
        <ele>2153.5</ele>
        <time>2021-02-20T12:59:00Z</time>
      </trkpt>
      <trkpt lat="45.15965" lon="5.92839">
        <ele>2153.5</ele>
        <time>2021-02-20T12:59:01Z</time>
      </trkpt>
      <trkpt lat="45.15965" lon="5.92838">
        <ele>2151.9</ele>
        <time>2021-02-20T12:59:02Z</time>
      </trkpt>
      <trkpt lat="45.15964" lon="5.92837">
        <ele>2151.9</ele>
        <time>2021-02-20T12:59:03Z</time>
      </trkpt>
      <trkpt lat="45.15964" lon="5.92837">
        <ele>2154.3</ele>
        <time>2021-02-20T12:59:04Z</time>
      </trkpt>
      <trkpt lat="45.15963" lon="5.92836">
        <ele>2154.3</ele>
        <time>2021-02-20T12:59:05Z</time>
      </trkpt>
      <trkpt lat="45.15963" lon="5.92835">
        <ele>2154.3</ele>
        <time>2021-02-20T12:59:06Z</time>
      </trkpt>
      <trkpt lat="45.15962" lon="5.92834">
        <ele>2154.3</ele>
        <time>2021-02-20T12:59:07Z</time>
      </trkpt>
      <trkpt lat="45.15962" lon="5.92834">
        <ele>2154.3</ele>
        <time>2021-02-20T12:59:08Z</time>
      </trkpt>
      <trkpt lat="45.15961" lon="5.92833">
        <ele>2152.8</ele>
        <time>2021-02-20T12:59:09Z</time>
      </trkpt>
      <trkpt lat="45.15961" lon="5.92832">
        <ele>2155.3</ele>
        <time>2021-02-20T12:59:10Z</time>
      </trkpt>
      <trkpt lat="45.1596" lon="5.92831">
        <ele>2155.3</ele>
        <time>2021-02-20T12:59:11Z</time>
      </trkpt>
      <trkpt lat="45.1596" lon="5.92831">
        <ele>2155.3</ele>
        <time>2021-02-20T12:59:12Z</time>
      </trkpt>
      <trkpt lat="45.15959" lon="5.9283">
        <ele>2155.3</ele>
        <time>2021-02-20T12:59:13Z</time>
      </trkpt>
      <trkpt lat="45.15959" lon="5.92829">
        <ele>2153.8</ele>
        <time>2021-02-20T12:59:14Z</time>
      </trkpt>
      <trkpt lat="45.15958" lon="5.92828">
        <ele>2156.4</ele>
        <time>2021-02-20T12:59:15Z</time>
      </trkpt>
      <trkpt lat="45.15958" lon="5.92826">
        <ele>2156.4</ele>
        <time>2021-02-20T12:59:16Z</time>
      </trkpt>
      <trkpt lat="45.15958" lon="5.92825">
        <ele>2156.4</ele>
        <time>2021-02-20T12:59:17Z</time>
      </trkpt>
      <trkpt lat="45.15957" lon="5.92824">
        <ele>2158.9</ele>
        <time>2021-02-20T12:59:18Z</time>
      </trkpt>
      <trkpt lat="45.15957" lon="5.92823">
        <ele>2158.9</ele>
        <time>2021-02-20T12:59:19Z</time>
      </trkpt>
      <trkpt lat="45.15956" lon="5.92822">
        <ele>2158.9</ele>
        <time>2021-02-20T12:59:20Z</time>
      </trkpt>
      <trkpt lat="45.15955" lon="5.92821">
        <ele>2157.4</ele>
        <time>2021-02-20T12:59:21Z</time>
      </trkpt>
      <trkpt lat="45.15954" lon="5.92821">
        <ele>2157.4</ele>
        <time>2021-02-20T12:59:22Z</time>
      </trkpt>
      <trkpt lat="45.15953" lon="5.92821">
        <ele>2157.4</ele>
        <time>2021-02-20T12:59:23Z</time>
      </trkpt>
      <trkpt lat="45.15952" lon="5.9282">
        <ele>2156</ele>
        <time>2021-02-20T12:59:24Z</time>
      </trkpt>
      <trkpt lat="45.15951" lon="5.9282">
        <ele>2158.4</ele>
        <time>2021-02-20T12:59:25Z</time>
      </trkpt>
      <trkpt lat="45.1595" lon="5.92819">
        <ele>2158.4</ele>
        <time>2021-02-20T12:59:26Z</time>
      </trkpt>
      <trkpt lat="45.15949" lon="5.92819">
        <ele>2157</ele>
        <time>2021-02-20T12:59:27Z</time>
      </trkpt>
      <trkpt lat="45.15948" lon="5.92819">
        <ele>2157</ele>
        <time>2021-02-20T12:59:28Z</time>
      </trkpt>
      <trkpt lat="45.15947" lon="5.92819">
        <ele>2157</ele>
        <time>2021-02-20T12:59:29Z</time>
      </trkpt>
      <trkpt lat="45.15947" lon="5.92818">
        <ele>2157</ele>
        <time>2021-02-20T12:59:30Z</time>
      </trkpt>
      <trkpt lat="45.15946" lon="5.92817">
        <ele>2155.7</ele>
        <time>2021-02-20T12:59:31Z</time>
      </trkpt>
      <trkpt lat="45.15945" lon="5.92816">
        <ele>2155.7</ele>
        <time>2021-02-20T12:59:32Z</time>
      </trkpt>
      <trkpt lat="45.15944" lon="5.92816">
        <ele>2155.7</ele>
        <time>2021-02-20T12:59:33Z</time>
      </trkpt>
      <trkpt lat="45.15943" lon="5.92816">
        <ele>2154.4</ele>
        <time>2021-02-20T12:59:34Z</time>
      </trkpt>
      <trkpt lat="45.15941" lon="5.92815">
        <ele>2156.6</ele>
        <time>2021-02-20T12:59:35Z</time>
      </trkpt>
      <trkpt lat="45.1594" lon="5.92815">
        <ele>2155.3</ele>
        <time>2021-02-20T12:59:36Z</time>
      </trkpt>
      <trkpt lat="45.1594" lon="5.92814">
        <ele>2155.3</ele>
        <time>2021-02-20T12:59:37Z</time>
      </trkpt>
      <trkpt lat="45.1594" lon="5.92813">
        <ele>2155.3</ele>
        <time>2021-02-20T12:59:38Z</time>
      </trkpt>
      <trkpt lat="45.1594" lon="5.92813">
        <ele>2155.3</ele>
        <time>2021-02-20T12:59:39Z</time>
      </trkpt>
      <trkpt lat="45.1594" lon="5.92812">
        <ele>2155.3</ele>
        <time>2021-02-20T12:59:40Z</time>
      </trkpt>
      <trkpt lat="45.15939" lon="5.92811">
        <ele>2155.3</ele>
        <time>2021-02-20T12:59:41Z</time>
      </trkpt>
      <trkpt lat="45.15939" lon="5.92811">
        <ele>2157.5</ele>
        <time>2021-02-20T12:59:42Z</time>
      </trkpt>
      <trkpt lat="45.15939" lon="5.92811">
        <ele>2157.5</ele>
        <time>2021-02-20T12:59:43Z</time>
      </trkpt>
      <trkpt lat="45.15939" lon="5.92811">
        <ele>2157.5</ele>
        <time>2021-02-20T12:59:44Z</time>
      </trkpt>
      <trkpt lat="45.15938" lon="5.9281">
        <ele>2157.5</ele>
        <time>2021-02-20T12:59:45Z</time>
      </trkpt>
      <trkpt lat="45.15938" lon="5.9281">
        <ele>2157.5</ele>
        <time>2021-02-20T12:59:46Z</time>
      </trkpt>
      <trkpt lat="45.15937" lon="5.9281">
        <ele>2156.3</ele>
        <time>2021-02-20T12:59:47Z</time>
      </trkpt>
      <trkpt lat="45.15935" lon="5.9281">
        <ele>2156.3</ele>
        <time>2021-02-20T12:59:48Z</time>
      </trkpt>
      <trkpt lat="45.15935" lon="5.92809">
        <ele>2156.3</ele>
        <time>2021-02-20T12:59:49Z</time>
      </trkpt>
      <trkpt lat="45.15934" lon="5.92808">
        <ele>2155.2</ele>
        <time>2021-02-20T12:59:50Z</time>
      </trkpt>
      <trkpt lat="45.15934" lon="5.92808">
        <ele>2155.2</ele>
        <time>2021-02-20T12:59:51Z</time>
      </trkpt>
      <trkpt lat="45.15934" lon="5.92808">
        <ele>2155.2</ele>
        <time>2021-02-20T12:59:52Z</time>
      </trkpt>
      <trkpt lat="45.15934" lon="5.92808">
        <ele>2155.2</ele>
        <time>2021-02-20T12:59:53Z</time>
      </trkpt>
      <trkpt lat="45.15934" lon="5.92808">
        <ele>2155.2</ele>
        <time>2021-02-20T12:59:54Z</time>
      </trkpt>
      <trkpt lat="45.15934" lon="5.92808">
        <ele>2155.2</ele>
        <time>2021-02-20T12:59:55Z</time>
      </trkpt>
      <trkpt lat="45.15935" lon="5.92805">
        <ele>2158.4</ele>
        <time>2021-02-20T12:59:56Z</time>
      </trkpt>
      <trkpt lat="45.15936" lon="5.92804">
        <ele>2158.4</ele>
        <time>2021-02-20T12:59:57Z</time>
      </trkpt>
      <trkpt lat="45.15937" lon="5.92804">
        <ele>2158.4</ele>
        <time>2021-02-20T12:59:58Z</time>
      </trkpt>
      <trkpt lat="45.15938" lon="5.92803">
        <ele>2159.7</ele>
        <time>2021-02-20T12:59:59Z</time>
      </trkpt>
      <trkpt lat="45.15939" lon="5.92802">
        <ele>2161.9</ele>
        <time>2021-02-20T13:00:00Z</time>
      </trkpt>
      <trkpt lat="45.1594" lon="5.92802">
        <ele>2161.9</ele>
        <time>2021-02-20T13:00:23Z</time>
      </trkpt>
      <trkpt lat="45.15941" lon="5.92801">
        <ele>2163.3</ele>
        <time>2021-02-20T13:00:24Z</time>
      </trkpt>
      <trkpt lat="45.15942" lon="5.928">
        <ele>2163.3</ele>
        <time>2021-02-20T13:00:25Z</time>
      </trkpt>
      <trkpt lat="45.15943" lon="5.928">
        <ele>2163.3</ele>
        <time>2021-02-20T13:00:26Z</time>
      </trkpt>
      <trkpt lat="45.15944" lon="5.928">
        <ele>2164.8</ele>
        <time>2021-02-20T13:00:27Z</time>
      </trkpt>
      <trkpt lat="45.15944" lon="5.928">
        <ele>2164.8</ele>
        <time>2021-02-20T13:00:28Z</time>
      </trkpt>
      <trkpt lat="45.15945" lon="5.928">
        <ele>2164.8</ele>
        <time>2021-02-20T13:00:29Z</time>
      </trkpt>
      <trkpt lat="45.15945" lon="5.928">
        <ele>2164.8</ele>
        <time>2021-02-20T13:00:30Z</time>
      </trkpt>
      <trkpt lat="45.15946" lon="5.928">
        <ele>2164.8</ele>
        <time>2021-02-20T13:00:31Z</time>
      </trkpt>
      <trkpt lat="45.15946" lon="5.928">
        <ele>2164.8</ele>
        <time>2021-02-20T13:00:32Z</time>
      </trkpt>
      <trkpt lat="45.15947" lon="5.928">
        <ele>2166.3</ele>
        <time>2021-02-20T13:00:33Z</time>
      </trkpt>
      <trkpt lat="45.15948" lon="5.928">
        <ele>2166.3</ele>
        <time>2021-02-20T13:00:34Z</time>
      </trkpt>
      <trkpt lat="45.15948" lon="5.928">
        <ele>2166.3</ele>
        <time>2021-02-20T13:00:35Z</time>
      </trkpt>
      <trkpt lat="45.15949" lon="5.928">
        <ele>2166.3</ele>
        <time>2021-02-20T13:00:36Z</time>
      </trkpt>
      <trkpt lat="45.15949" lon="5.928">
        <ele>2166.3</ele>
        <time>2021-02-20T13:00:37Z</time>
      </trkpt>
      <trkpt lat="45.1595" lon="5.928">
        <ele>2167.8</ele>
        <time>2021-02-20T13:00:38Z</time>
      </trkpt>
      <trkpt lat="45.1595" lon="5.928">
        <ele>2167.8</ele>
        <time>2021-02-20T13:00:39Z</time>
      </trkpt>
      <trkpt lat="45.15951" lon="5.92801">
        <ele>2167.8</ele>
        <time>2021-02-20T13:00:40Z</time>
      </trkpt>
      <trkpt lat="45.15952" lon="5.92801">
        <ele>2167.8</ele>
        <time>2021-02-20T13:00:41Z</time>
      </trkpt>
      <trkpt lat="45.15952" lon="5.92801">
        <ele>2167.8</ele>
        <time>2021-02-20T13:00:42Z</time>
      </trkpt>
      <trkpt lat="45.15953" lon="5.92801">
        <ele>2169.3</ele>
        <time>2021-02-20T13:00:43Z</time>
      </trkpt>
      <trkpt lat="45.15954" lon="5.92801">
        <ele>2169.3</ele>
        <time>2021-02-20T13:00:44Z</time>
      </trkpt>
      <trkpt lat="45.15955" lon="5.92801">
        <ele>2169.3</ele>
        <time>2021-02-20T13:00:45Z</time>
      </trkpt>
      <trkpt lat="45.15955" lon="5.92802">
        <ele>2169.3</ele>
        <time>2021-02-20T13:00:46Z</time>
      </trkpt>
      <trkpt lat="45.15956" lon="5.92802">
        <ele>2170.9</ele>
        <time>2021-02-20T13:00:47Z</time>
      </trkpt>
      <trkpt lat="45.15957" lon="5.92802">
        <ele>2170.9</ele>
        <time>2021-02-20T13:00:48Z</time>
      </trkpt>
      <trkpt lat="45.15957" lon="5.92802">
        <ele>2170.9</ele>
        <time>2021-02-20T13:00:49Z</time>
      </trkpt>
      <trkpt lat="45.15958" lon="5.92802">
        <ele>2170.9</ele>
        <time>2021-02-20T13:00:50Z</time>
      </trkpt>
      <trkpt lat="45.15958" lon="5.92802">
        <ele>2170.9</ele>
        <time>2021-02-20T13:00:51Z</time>
      </trkpt>
      <trkpt lat="45.15959" lon="5.92802">
        <ele>2172.5</ele>
        <time>2021-02-20T13:00:52Z</time>
      </trkpt>
      <trkpt lat="45.1596" lon="5.92802">
        <ele>2172.5</ele>
        <time>2021-02-20T13:00:53Z</time>
      </trkpt>
      <trkpt lat="45.1596" lon="5.92802">
        <ele>2172.5</ele>
        <time>2021-02-20T13:00:54Z</time>
      </trkpt>
      <trkpt lat="45.15961" lon="5.92802">
        <ele>2172.5</ele>
        <time>2021-02-20T13:00:55Z</time>
      </trkpt>
      <trkpt lat="45.15962" lon="5.92802">
        <ele>2174.2</ele>
        <time>2021-02-20T13:00:56Z</time>
      </trkpt>
      <trkpt lat="45.15962" lon="5.92802">
        <ele>2174.2</ele>
        <time>2021-02-20T13:00:57Z</time>
      </trkpt>
      <trkpt lat="45.15963" lon="5.92803">
        <ele>2174.2</ele>
        <time>2021-02-20T13:00:58Z</time>
      </trkpt>
      <trkpt lat="45.15963" lon="5.92803">
        <ele>2174.2</ele>
        <time>2021-02-20T13:00:59Z</time>
      </trkpt>
      <trkpt lat="45.15964" lon="5.92803">
        <ele>2171.7</ele>
        <time>2021-02-20T13:01:00Z</time>
      </trkpt>
      <trkpt lat="45.15964" lon="5.92803">
        <ele>2171.7</ele>
        <time>2021-02-20T13:01:01Z</time>
      </trkpt>
      <trkpt lat="45.15965" lon="5.92803">
        <ele>2171.7</ele>
        <time>2021-02-20T13:01:02Z</time>
      </trkpt>
      <trkpt lat="45.15965" lon="5.92803">
        <ele>2173.4</ele>
        <time>2021-02-20T13:01:03Z</time>
      </trkpt>
      <trkpt lat="45.15965" lon="5.92803">
        <ele>2173.4</ele>
        <time>2021-02-20T13:01:04Z</time>
      </trkpt>
      <trkpt lat="45.15966" lon="5.92803">
        <ele>2173.4</ele>
        <time>2021-02-20T13:01:05Z</time>
      </trkpt>
      <trkpt lat="45.15966" lon="5.92803">
        <ele>2173.4</ele>
        <time>2021-02-20T13:02:21Z</time>
      </trkpt>
      <trkpt lat="45.15967" lon="5.92803">
        <ele>2173.4</ele>
        <time>2021-02-20T13:02:22Z</time>
      </trkpt>
      <trkpt lat="45.15967" lon="5.92803">
        <ele>2173.4</ele>
        <time>2021-02-20T13:02:23Z</time>
      </trkpt>
      <trkpt lat="45.15968" lon="5.92803">
        <ele>2175.3</ele>
        <time>2021-02-20T13:02:24Z</time>
      </trkpt>
      <trkpt lat="45.15969" lon="5.92803">
        <ele>2175.3</ele>
        <time>2021-02-20T13:02:25Z</time>
      </trkpt>
      <trkpt lat="45.1597" lon="5.92802">
        <ele>2177.8</ele>
        <time>2021-02-20T13:02:26Z</time>
      </trkpt>
      <trkpt lat="45.15971" lon="5.92803">
        <ele>2177.2</ele>
        <time>2021-02-20T13:02:27Z</time>
      </trkpt>
      <trkpt lat="45.15972" lon="5.92803">
        <ele>2177.2</ele>
        <time>2021-02-20T13:02:28Z</time>
      </trkpt>
      <trkpt lat="45.15973" lon="5.92803">
        <ele>2177.2</ele>
        <time>2021-02-20T13:02:29Z</time>
      </trkpt>
      <trkpt lat="45.15974" lon="5.92803">
        <ele>2177.2</ele>
        <time>2021-02-20T13:02:30Z</time>
      </trkpt>
      <trkpt lat="45.15974" lon="5.92804">
        <ele>2179.1</ele>
        <time>2021-02-20T13:02:31Z</time>
      </trkpt>
      <trkpt lat="45.15974" lon="5.92804">
        <ele>2179.1</ele>
        <time>2021-02-20T13:02:32Z</time>
      </trkpt>
      <trkpt lat="45.15974" lon="5.92804">
        <ele>2179.1</ele>
        <time>2021-02-20T13:02:33Z</time>
      </trkpt>
      <trkpt lat="45.15975" lon="5.92804">
        <ele>2179.1</ele>
        <time>2021-02-20T13:02:34Z</time>
      </trkpt>
      <trkpt lat="45.15975" lon="5.92805">
        <ele>2179.1</ele>
        <time>2021-02-20T13:02:35Z</time>
      </trkpt>
      <trkpt lat="45.15976" lon="5.92806">
        <ele>2179.1</ele>
        <time>2021-02-20T13:02:36Z</time>
      </trkpt>
      <trkpt lat="45.15976" lon="5.92806">
        <ele>2179.1</ele>
        <time>2021-02-20T13:02:37Z</time>
      </trkpt>
      <trkpt lat="45.15977" lon="5.92807">
        <ele>2179.1</ele>
        <time>2021-02-20T13:02:38Z</time>
      </trkpt>
      <trkpt lat="45.15977" lon="5.92807">
        <ele>2181.1</ele>
        <time>2021-02-20T13:02:39Z</time>
      </trkpt>
      <trkpt lat="45.15978" lon="5.92807">
        <ele>2178.7</ele>
        <time>2021-02-20T13:02:40Z</time>
      </trkpt>
      <trkpt lat="45.15979" lon="5.92807">
        <ele>2178.7</ele>
        <time>2021-02-20T13:02:41Z</time>
      </trkpt>
      <trkpt lat="45.15979" lon="5.92807">
        <ele>2178.7</ele>
        <time>2021-02-20T13:02:42Z</time>
      </trkpt>
      <trkpt lat="45.1598" lon="5.92806">
        <ele>2181.1</ele>
        <time>2021-02-20T13:02:43Z</time>
      </trkpt>
      <trkpt lat="45.15979" lon="5.92805">
        <ele>2181.1</ele>
        <time>2021-02-20T13:02:44Z</time>
      </trkpt>
      <trkpt lat="45.15979" lon="5.92805">
        <ele>2181.1</ele>
        <time>2021-02-20T13:02:45Z</time>
      </trkpt>
      <trkpt lat="45.15979" lon="5.92804">
        <ele>2181.1</ele>
        <time>2021-02-20T13:02:46Z</time>
      </trkpt>
      <trkpt lat="45.15978" lon="5.92803">
        <ele>2181.1</ele>
        <time>2021-02-20T13:02:47Z</time>
      </trkpt>
      <trkpt lat="45.15978" lon="5.92802">
        <ele>2183.7</ele>
        <time>2021-02-20T13:02:48Z</time>
      </trkpt>
      <trkpt lat="45.15978" lon="5.92801">
        <ele>2183.7</ele>
        <time>2021-02-20T13:02:49Z</time>
      </trkpt>
      <trkpt lat="45.15978" lon="5.928">
        <ele>2183.7</ele>
        <time>2021-02-20T13:02:50Z</time>
      </trkpt>
      <trkpt lat="45.15977" lon="5.92799">
        <ele>2183.7</ele>
        <time>2021-02-20T13:02:51Z</time>
      </trkpt>
      <trkpt lat="45.15977" lon="5.92798">
        <ele>2186.3</ele>
        <time>2021-02-20T13:02:52Z</time>
      </trkpt>
      <trkpt lat="45.15977" lon="5.92797">
        <ele>2184.3</ele>
        <time>2021-02-20T13:03:03Z</time>
      </trkpt>
      <trkpt lat="45.15977" lon="5.92796">
        <ele>2184.3</ele>
        <time>2021-02-20T13:03:04Z</time>
      </trkpt>
      <trkpt lat="45.15976" lon="5.92796">
        <ele>2184.3</ele>
        <time>2021-02-20T13:03:05Z</time>
      </trkpt>
      <trkpt lat="45.15976" lon="5.92795">
        <ele>2184.3</ele>
        <time>2021-02-20T13:03:06Z</time>
      </trkpt>
      <trkpt lat="45.15975" lon="5.92794">
        <ele>2186.9</ele>
        <time>2021-02-20T13:03:07Z</time>
      </trkpt>
      <trkpt lat="45.15974" lon="5.92793">
        <ele>2186.9</ele>
        <time>2021-02-20T13:03:08Z</time>
      </trkpt>
      <trkpt lat="45.15974" lon="5.92792">
        <ele>2184.9</ele>
        <time>2021-02-20T13:03:09Z</time>
      </trkpt>
      <trkpt lat="45.15973" lon="5.92792">
        <ele>2184.9</ele>
        <time>2021-02-20T13:03:10Z</time>
      </trkpt>
      <trkpt lat="45.15972" lon="5.92791">
        <ele>2184.9</ele>
        <time>2021-02-20T13:03:11Z</time>
      </trkpt>
      <trkpt lat="45.15971" lon="5.92791">
        <ele>2184.9</ele>
        <time>2021-02-20T13:03:12Z</time>
      </trkpt>
      <trkpt lat="45.1597" lon="5.92791">
        <ele>2182.9</ele>
        <time>2021-02-20T13:03:13Z</time>
      </trkpt>
      <trkpt lat="45.15969" lon="5.92791">
        <ele>2182.9</ele>
        <time>2021-02-20T13:03:14Z</time>
      </trkpt>
      <trkpt lat="45.15968" lon="5.9279">
        <ele>2182.9</ele>
        <time>2021-02-20T13:03:15Z</time>
      </trkpt>
      <trkpt lat="45.15967" lon="5.9279">
        <ele>2181</ele>
        <time>2021-02-20T13:03:16Z</time>
      </trkpt>
      <trkpt lat="45.15966" lon="5.9279">
        <ele>2181</ele>
        <time>2021-02-20T13:03:17Z</time>
      </trkpt>
      <trkpt lat="45.15965" lon="5.92789">
        <ele>2183.6</ele>
        <time>2021-02-20T13:03:18Z</time>
      </trkpt>
      <trkpt lat="45.15965" lon="5.92789">
        <ele>2181.8</ele>
        <time>2021-02-20T13:03:19Z</time>
      </trkpt>
      <trkpt lat="45.15965" lon="5.92788">
        <ele>2183.6</ele>
        <time>2021-02-20T13:03:20Z</time>
      </trkpt>
      <trkpt lat="45.15966" lon="5.92787">
        <ele>2183.6</ele>
        <time>2021-02-20T13:03:21Z</time>
      </trkpt>
      <trkpt lat="45.15966" lon="5.92785">
        <ele>2183.6</ele>
        <time>2021-02-20T13:03:22Z</time>
      </trkpt>
      <trkpt lat="45.15966" lon="5.92784">
        <ele>2186.3</ele>
        <time>2021-02-20T13:03:23Z</time>
      </trkpt>
      <trkpt lat="45.15965" lon="5.92784">
        <ele>2186.3</ele>
        <time>2021-02-20T13:03:24Z</time>
      </trkpt>
      <trkpt lat="45.15965" lon="5.92783">
        <ele>2186.3</ele>
        <time>2021-02-20T13:03:25Z</time>
      </trkpt>
      <trkpt lat="45.15965" lon="5.92783">
        <ele>2184.4</ele>
        <time>2021-02-20T13:03:26Z</time>
      </trkpt>
      <trkpt lat="45.15964" lon="5.92782">
        <ele>2184.4</ele>
        <time>2021-02-20T13:03:27Z</time>
      </trkpt>
      <trkpt lat="45.15964" lon="5.92782">
        <ele>2184.4</ele>
        <time>2021-02-20T13:03:28Z</time>
      </trkpt>
      <trkpt lat="45.15963" lon="5.92781">
        <ele>2186.9</ele>
        <time>2021-02-20T13:03:29Z</time>
      </trkpt>
      <trkpt lat="45.15963" lon="5.92781">
        <ele>2186.9</ele>
        <time>2021-02-20T13:03:30Z</time>
      </trkpt>
      <trkpt lat="45.15962" lon="5.9278">
        <ele>2186.9</ele>
        <time>2021-02-20T13:03:31Z</time>
      </trkpt>
      <trkpt lat="45.15962" lon="5.9278">
        <ele>2185.1</ele>
        <time>2021-02-20T13:03:32Z</time>
      </trkpt>
      <trkpt lat="45.15961" lon="5.92779">
        <ele>2185.1</ele>
        <time>2021-02-20T13:03:33Z</time>
      </trkpt>
      <trkpt lat="45.1596" lon="5.92779">
        <ele>2185.1</ele>
        <time>2021-02-20T13:03:34Z</time>
      </trkpt>
      <trkpt lat="45.15959" lon="5.92779">
        <ele>2185.1</ele>
        <time>2021-02-20T13:03:35Z</time>
      </trkpt>
      <trkpt lat="45.15958" lon="5.92779">
        <ele>2183.3</ele>
        <time>2021-02-20T13:03:36Z</time>
      </trkpt>
      <trkpt lat="45.15957" lon="5.92779">
        <ele>2183.3</ele>
        <time>2021-02-20T13:03:37Z</time>
      </trkpt>
      <trkpt lat="45.15957" lon="5.92779">
        <ele>2183.3</ele>
        <time>2021-02-20T13:03:38Z</time>
      </trkpt>
      <trkpt lat="45.15956" lon="5.9278">
        <ele>2183.3</ele>
        <time>2021-02-20T13:03:39Z</time>
      </trkpt>
      <trkpt lat="45.15955" lon="5.9278">
        <ele>2181.5</ele>
        <time>2021-02-20T13:03:40Z</time>
      </trkpt>
      <trkpt lat="45.15954" lon="5.9278">
        <ele>2181.5</ele>
        <time>2021-02-20T13:03:41Z</time>
      </trkpt>
      <trkpt lat="45.15954" lon="5.92781">
        <ele>2181.5</ele>
        <time>2021-02-20T13:03:42Z</time>
      </trkpt>
      <trkpt lat="45.15953" lon="5.92781">
        <ele>2177.5</ele>
        <time>2021-02-20T13:03:43Z</time>
      </trkpt>
      <trkpt lat="45.15952" lon="5.92781">
        <ele>2177.5</ele>
        <time>2021-02-20T13:03:44Z</time>
      </trkpt>
      <trkpt lat="45.15951" lon="5.92782">
        <ele>2177.5</ele>
        <time>2021-02-20T13:03:45Z</time>
      </trkpt>
      <trkpt lat="45.1595" lon="5.92782">
        <ele>2177.5</ele>
        <time>2021-02-20T13:04:09Z</time>
      </trkpt>
      <trkpt lat="45.1595" lon="5.92783">
        <ele>2175.8</ele>
        <time>2021-02-20T13:04:10Z</time>
      </trkpt>
      <trkpt lat="45.15947" lon="5.92785">
        <ele>2175.8</ele>
        <time>2021-02-20T13:04:11Z</time>
      </trkpt>
      <trkpt lat="45.15946" lon="5.92786">
        <ele>2171.9</ele>
        <time>2021-02-20T13:04:12Z</time>
      </trkpt>
      <trkpt lat="45.15943" lon="5.92788">
        <ele>2170.3</ele>
        <time>2021-02-20T13:04:13Z</time>
      </trkpt>
      <trkpt lat="45.15943" lon="5.92787">
        <ele>2170.3</ele>
        <time>2021-02-20T13:04:14Z</time>
      </trkpt>
      <trkpt lat="45.15944" lon="5.92786">
        <ele>2171.9</ele>
        <time>2021-02-20T13:04:15Z</time>
      </trkpt>
      <trkpt lat="45.15945" lon="5.92785">
        <ele>2174.2</ele>
        <time>2021-02-20T13:04:16Z</time>
      </trkpt>
      <trkpt lat="45.15946" lon="5.92784">
        <ele>2174.2</ele>
        <time>2021-02-20T13:04:17Z</time>
      </trkpt>
      <trkpt lat="45.15947" lon="5.92783">
        <ele>2175.8</ele>
        <time>2021-02-20T13:04:18Z</time>
      </trkpt>
      <trkpt lat="45.15948" lon="5.92782">
        <ele>2175.8</ele>
        <time>2021-02-20T13:04:19Z</time>
      </trkpt>
      <trkpt lat="45.15949" lon="5.92781">
        <ele>2175.8</ele>
        <time>2021-02-20T13:04:20Z</time>
      </trkpt>
      <trkpt lat="45.1595" lon="5.9278">
        <ele>2178.2</ele>
        <time>2021-02-20T13:04:21Z</time>
      </trkpt>
      <trkpt lat="45.1595" lon="5.9278">
        <ele>2179.9</ele>
        <time>2021-02-20T13:04:22Z</time>
      </trkpt>
      <trkpt lat="45.15951" lon="5.92779">
        <ele>2179.9</ele>
        <time>2021-02-20T13:04:23Z</time>
      </trkpt>
      <trkpt lat="45.15952" lon="5.92778">
        <ele>2179.9</ele>
        <time>2021-02-20T13:04:24Z</time>
      </trkpt>
      <trkpt lat="45.15953" lon="5.92777">
        <ele>2181.5</ele>
        <time>2021-02-20T13:04:25Z</time>
      </trkpt>
      <trkpt lat="45.15954" lon="5.92776">
        <ele>2183.9</ele>
        <time>2021-02-20T13:04:58Z</time>
      </trkpt>
      <trkpt lat="45.15955" lon="5.92775">
        <ele>2183.9</ele>
        <time>2021-02-20T13:04:59Z</time>
      </trkpt>
      <trkpt lat="45.15956" lon="5.92774">
        <ele>2185.6</ele>
        <time>2021-02-20T13:05:00Z</time>
      </trkpt>
      <trkpt lat="45.15957" lon="5.92773">
        <ele>2185.6</ele>
        <time>2021-02-20T13:05:01Z</time>
      </trkpt>
      <trkpt lat="45.15957" lon="5.92773">
        <ele>2185.6</ele>
        <time>2021-02-20T13:05:02Z</time>
      </trkpt>
      <trkpt lat="45.15958" lon="5.92773">
        <ele>2185.6</ele>
        <time>2021-02-20T13:05:03Z</time>
      </trkpt>
      <trkpt lat="45.15958" lon="5.92772">
        <ele>2187.8</ele>
        <time>2021-02-20T13:05:04Z</time>
      </trkpt>
      <trkpt lat="45.15959" lon="5.92772">
        <ele>2189.7</ele>
        <time>2021-02-20T13:05:05Z</time>
      </trkpt>
      <trkpt lat="45.1596" lon="5.92772">
        <ele>2189.7</ele>
        <time>2021-02-20T13:05:06Z</time>
      </trkpt>
      <trkpt lat="45.1596" lon="5.92772">
        <ele>2189.7</ele>
        <time>2021-02-20T13:05:07Z</time>
      </trkpt>
      <trkpt lat="45.15961" lon="5.92772">
        <ele>2189.7</ele>
        <time>2021-02-20T13:05:08Z</time>
      </trkpt>
      <trkpt lat="45.15962" lon="5.92771">
        <ele>2191.6</ele>
        <time>2021-02-20T13:05:09Z</time>
      </trkpt>
      <trkpt lat="45.15963" lon="5.92771">
        <ele>2191.6</ele>
        <time>2021-02-20T13:05:10Z</time>
      </trkpt>
      <trkpt lat="45.15963" lon="5.92771">
        <ele>2191.6</ele>
        <time>2021-02-20T13:05:11Z</time>
      </trkpt>
      <trkpt lat="45.15963" lon="5.92771">
        <ele>2191.6</ele>
        <time>2021-02-20T13:05:12Z</time>
      </trkpt>
      <trkpt lat="45.15963" lon="5.92771">
        <ele>2191.6</ele>
        <time>2021-02-20T13:05:13Z</time>
      </trkpt>
      <trkpt lat="45.15962" lon="5.9277">
        <ele>2191.6</ele>
        <time>2021-02-20T13:05:14Z</time>
      </trkpt>
      <trkpt lat="45.15962" lon="5.9277">
        <ele>2191.6</ele>
        <time>2021-02-20T13:05:15Z</time>
      </trkpt>
      <trkpt lat="45.15962" lon="5.9277">
        <ele>2191.6</ele>
        <time>2021-02-20T13:05:16Z</time>
      </trkpt>
      <trkpt lat="45.15962" lon="5.92769">
        <ele>2189.7</ele>
        <time>2021-02-20T13:05:17Z</time>
      </trkpt>
      <trkpt lat="45.15962" lon="5.92769">
        <ele>2189.7</ele>
        <time>2021-02-20T13:05:18Z</time>
      </trkpt>
      <trkpt lat="45.15961" lon="5.92769">
        <ele>2189.7</ele>
        <time>2021-02-20T13:05:19Z</time>
      </trkpt>
      <trkpt lat="45.15961" lon="5.92769">
        <ele>2189.7</ele>
        <time>2021-02-20T13:05:20Z</time>
      </trkpt>
      <trkpt lat="45.15961" lon="5.92768">
        <ele>2189.7</ele>
        <time>2021-02-20T13:05:21Z</time>
      </trkpt>
      <trkpt lat="45.15961" lon="5.92768">
        <ele>2191.8</ele>
        <time>2021-02-20T13:05:22Z</time>
      </trkpt>
      <trkpt lat="45.15961" lon="5.92768">
        <ele>2191.8</ele>
        <time>2021-02-20T13:06:11Z</time>
      </trkpt>
      <trkpt lat="45.1596" lon="5.92767">
        <ele>2191.8</ele>
        <time>2021-02-20T13:06:12Z</time>
      </trkpt>
      <trkpt lat="45.1596" lon="5.92767">
        <ele>2191.8</ele>
        <time>2021-02-20T13:06:13Z</time>
      </trkpt>
      <trkpt lat="45.1596" lon="5.92767">
        <ele>2191.8</ele>
        <time>2021-02-20T13:06:14Z</time>
      </trkpt>
      <trkpt lat="45.1596" lon="5.92766">
        <ele>2191.8</ele>
        <time>2021-02-20T13:06:15Z</time>
      </trkpt>
      <trkpt lat="45.1596" lon="5.92766">
        <ele>2191.8</ele>
        <time>2021-02-20T13:06:16Z</time>
      </trkpt>
      <trkpt lat="45.1596" lon="5.92766">
        <ele>2191.8</ele>
        <time>2021-02-20T13:06:17Z</time>
      </trkpt>
      <trkpt lat="45.1596" lon="5.92765">
        <ele>2191.8</ele>
        <time>2021-02-20T13:06:18Z</time>
      </trkpt>
      <trkpt lat="45.1596" lon="5.92765">
        <ele>2191.8</ele>
        <time>2021-02-20T13:06:19Z</time>
      </trkpt>
      <trkpt lat="45.1596" lon="5.92765">
        <ele>2191.8</ele>
        <time>2021-02-20T13:06:20Z</time>
      </trkpt>
      <trkpt lat="45.1596" lon="5.92765">
        <ele>2191.8</ele>
        <time>2021-02-20T13:06:21Z</time>
      </trkpt>
      <trkpt lat="45.1596" lon="5.92765">
        <ele>2191.8</ele>
        <time>2021-02-20T13:06:22Z</time>
      </trkpt>
      <trkpt lat="45.1596" lon="5.92764">
        <ele>2191.8</ele>
        <time>2021-02-20T13:06:23Z</time>
      </trkpt>
      <trkpt lat="45.1596" lon="5.92764">
        <ele>2191.8</ele>
        <time>2021-02-20T13:06:29Z</time>
      </trkpt>
      <trkpt lat="45.1596" lon="5.92764">
        <ele>2193.9</ele>
        <time>2021-02-20T13:06:30Z</time>
      </trkpt>
      <trkpt lat="45.1596" lon="5.92764">
        <ele>2193.9</ele>
        <time>2021-02-20T13:06:31Z</time>
      </trkpt>
      <trkpt lat="45.1596" lon="5.92763">
        <ele>2193.9</ele>
        <time>2021-02-20T13:06:32Z</time>
      </trkpt>
      <trkpt lat="45.1596" lon="5.92763">
        <ele>2193.9</ele>
        <time>2021-02-20T13:06:33Z</time>
      </trkpt>
      <trkpt lat="45.1596" lon="5.92763">
        <ele>2193.9</ele>
        <time>2021-02-20T13:06:34Z</time>
      </trkpt>
      <trkpt lat="45.1596" lon="5.92763">
        <ele>2193.9</ele>
        <time>2021-02-20T13:06:35Z</time>
      </trkpt>
      <trkpt lat="45.1596" lon="5.92762">
        <ele>2193.9</ele>
        <time>2021-02-20T13:06:36Z</time>
      </trkpt>
      <trkpt lat="45.1596" lon="5.92762">
        <ele>2193.9</ele>
        <time>2021-02-20T13:06:37Z</time>
      </trkpt>
      <trkpt lat="45.1596" lon="5.92762">
        <ele>2193.9</ele>
        <time>2021-02-20T13:06:38Z</time>
      </trkpt>
      <trkpt lat="45.1596" lon="5.92762">
        <ele>2193.9</ele>
        <time>2021-02-20T13:06:52Z</time>
      </trkpt>
      <trkpt lat="45.1596" lon="5.92761">
        <ele>2193.9</ele>
        <time>2021-02-20T13:06:53Z</time>
      </trkpt>
      <trkpt lat="45.1596" lon="5.92761">
        <ele>2193.9</ele>
        <time>2021-02-20T13:06:54Z</time>
      </trkpt>
      <trkpt lat="45.1596" lon="5.92761">
        <ele>2193.9</ele>
        <time>2021-02-20T13:06:55Z</time>
      </trkpt>
      <trkpt lat="45.1596" lon="5.92761">
        <ele>2193.9</ele>
        <time>2021-02-20T13:06:56Z</time>
      </trkpt>
      <trkpt lat="45.15961" lon="5.92761">
        <ele>2193.9</ele>
        <time>2021-02-20T13:06:57Z</time>
      </trkpt>
      <trkpt lat="45.15962" lon="5.92761">
        <ele>2193.9</ele>
        <time>2021-02-20T13:06:58Z</time>
      </trkpt>
      <trkpt lat="45.15962" lon="5.92761">
        <ele>2195.8</ele>
        <time>2021-02-20T13:06:59Z</time>
      </trkpt>
      <trkpt lat="45.15963" lon="5.92761">
        <ele>2195.8</ele>
        <time>2021-02-20T13:07:00Z</time>
      </trkpt>
      <trkpt lat="45.15963" lon="5.92761">
        <ele>2195.8</ele>
        <time>2021-02-20T13:07:01Z</time>
      </trkpt>
      <trkpt lat="45.15963" lon="5.92761">
        <ele>2195.8</ele>
        <time>2021-02-20T13:07:02Z</time>
      </trkpt>
      <trkpt lat="45.15963" lon="5.92761">
        <ele>2195.8</ele>
        <time>2021-02-20T13:07:03Z</time>
      </trkpt>
      <trkpt lat="45.15963" lon="5.92761">
        <ele>2195.8</ele>
        <time>2021-02-20T13:07:04Z</time>
      </trkpt>
      <trkpt lat="45.15963" lon="5.92761">
        <ele>2195.8</ele>
        <time>2021-02-20T13:07:05Z</time>
      </trkpt>
      <trkpt lat="45.15963" lon="5.92761">
        <ele>2195.8</ele>
        <time>2021-02-20T13:07:06Z</time>
      </trkpt>
      <trkpt lat="45.15962" lon="5.92761">
        <ele>2195.8</ele>
        <time>2021-02-20T13:07:07Z</time>
      </trkpt>
      <trkpt lat="45.15962" lon="5.9276">
        <ele>2193.9</ele>
        <time>2021-02-20T13:07:08Z</time>
      </trkpt>
      <trkpt lat="45.15961" lon="5.9276">
        <ele>2193.9</ele>
        <time>2021-02-20T13:07:09Z</time>
      </trkpt>
      <trkpt lat="45.15961" lon="5.9276">
        <ele>2195.9</ele>
        <time>2021-02-20T13:07:22Z</time>
      </trkpt>
      <trkpt lat="45.1596" lon="5.92759">
        <ele>2195.9</ele>
        <time>2021-02-20T13:07:23Z</time>
      </trkpt>
      <trkpt lat="45.1596" lon="5.92759">
        <ele>2195.9</ele>
        <time>2021-02-20T13:07:24Z</time>
      </trkpt>
      <trkpt lat="45.15959" lon="5.92759">
        <ele>2195.9</ele>
        <time>2021-02-20T13:07:25Z</time>
      </trkpt>
      <trkpt lat="45.15959" lon="5.92758">
        <ele>2195.9</ele>
        <time>2021-02-20T13:07:26Z</time>
      </trkpt>
      <trkpt lat="45.15958" lon="5.92758">
        <ele>2194</ele>
        <time>2021-02-20T13:07:27Z</time>
      </trkpt>
      <trkpt lat="45.15958" lon="5.92758">
        <ele>2194</ele>
        <time>2021-02-20T13:07:28Z</time>
      </trkpt>
      <trkpt lat="45.15957" lon="5.92757">
        <ele>2194</ele>
        <time>2021-02-20T13:07:29Z</time>
      </trkpt>
      <trkpt lat="45.15957" lon="5.92757">
        <ele>2194</ele>
        <time>2021-02-20T13:07:30Z</time>
      </trkpt>
      <trkpt lat="45.15956" lon="5.92757">
        <ele>2194</ele>
        <time>2021-02-20T13:07:31Z</time>
      </trkpt>
      <trkpt lat="45.15954" lon="5.92758">
        <ele>2192.1</ele>
        <time>2021-02-20T13:07:34Z</time>
      </trkpt>
      <trkpt lat="45.15953" lon="5.92758">
        <ele>2192.1</ele>
        <time>2021-02-20T13:07:35Z</time>
      </trkpt>
      <trkpt lat="45.15953" lon="5.92758">
        <ele>2192.1</ele>
        <time>2021-02-20T13:07:36Z</time>
      </trkpt>
      <trkpt lat="45.15953" lon="5.92758">
        <ele>2190.3</ele>
        <time>2021-02-20T13:07:37Z</time>
      </trkpt>
      <trkpt lat="45.15953" lon="5.92758">
        <ele>2190.3</ele>
        <time>2021-02-20T13:07:38Z</time>
      </trkpt>
      <trkpt lat="45.15952" lon="5.92758">
        <ele>2190.3</ele>
        <time>2021-02-20T13:07:39Z</time>
      </trkpt>
      <trkpt lat="45.15952" lon="5.92758">
        <ele>2190.3</ele>
        <time>2021-02-20T13:07:40Z</time>
      </trkpt>
      <trkpt lat="45.15952" lon="5.92758">
        <ele>2190.3</ele>
        <time>2021-02-20T13:07:41Z</time>
      </trkpt>
      <trkpt lat="45.15952" lon="5.92758">
        <ele>2190.3</ele>
        <time>2021-02-20T13:07:42Z</time>
      </trkpt>
      <trkpt lat="45.15951" lon="5.92759">
        <ele>2190.3</ele>
        <time>2021-02-20T13:07:43Z</time>
      </trkpt>
      <trkpt lat="45.15955" lon="5.92758">
        <ele>2192.1</ele>
        <time>2021-02-20T13:07:49Z</time>
      </trkpt>
      <trkpt lat="45.15956" lon="5.92757">
        <ele>2192.1</ele>
        <time>2021-02-20T13:07:50Z</time>
      </trkpt>
      <trkpt lat="45.15956" lon="5.92757">
        <ele>2194</ele>
        <time>2021-02-20T13:07:51Z</time>
      </trkpt>
      <trkpt lat="45.15957" lon="5.92757">
        <ele>2194</ele>
        <time>2021-02-20T13:07:52Z</time>
      </trkpt>
      <trkpt lat="45.15957" lon="5.92756">
        <ele>2194</ele>
        <time>2021-02-20T13:07:53Z</time>
      </trkpt>
      <trkpt lat="45.15958" lon="5.92756">
        <ele>2194</ele>
        <time>2021-02-20T13:07:54Z</time>
      </trkpt>
      <trkpt lat="45.15958" lon="5.92756">
        <ele>2194</ele>
        <time>2021-02-20T13:07:55Z</time>
      </trkpt>
      <trkpt lat="45.15959" lon="5.92756">
        <ele>2195.9</ele>
        <time>2021-02-20T13:07:56Z</time>
      </trkpt>
      <trkpt lat="45.1596" lon="5.92756">
        <ele>2195.9</ele>
        <time>2021-02-20T13:07:57Z</time>
      </trkpt>
      <trkpt lat="45.15961" lon="5.92756">
        <ele>2195.9</ele>
        <time>2021-02-20T13:07:58Z</time>
      </trkpt>
      <trkpt lat="45.15961" lon="5.92756">
        <ele>2195.9</ele>
        <time>2021-02-20T13:07:59Z</time>
      </trkpt>
      <trkpt lat="45.15962" lon="5.92756">
        <ele>2195.9</ele>
        <time>2021-02-20T13:08:00Z</time>
      </trkpt>
      <trkpt lat="45.15962" lon="5.92756">
        <ele>2197.9</ele>
        <time>2021-02-20T13:08:01Z</time>
      </trkpt>
      <trkpt lat="45.15962" lon="5.92756">
        <ele>2197.9</ele>
        <time>2021-02-20T13:08:02Z</time>
      </trkpt>
      <trkpt lat="45.15963" lon="5.92756">
        <ele>2197.9</ele>
        <time>2021-02-20T13:08:03Z</time>
      </trkpt>
      <trkpt lat="45.15963" lon="5.92755">
        <ele>2200</ele>
        <time>2021-02-20T13:08:04Z</time>
      </trkpt>
      <trkpt lat="45.15963" lon="5.92755">
        <ele>2200</ele>
        <time>2021-02-20T13:08:05Z</time>
      </trkpt>
      <trkpt lat="45.15962" lon="5.92754">
        <ele>2200</ele>
        <time>2021-02-20T13:08:06Z</time>
      </trkpt>
      <trkpt lat="45.15962" lon="5.92754">
        <ele>2200</ele>
        <time>2021-02-20T13:08:07Z</time>
      </trkpt>
      <trkpt lat="45.15962" lon="5.92753">
        <ele>2200</ele>
        <time>2021-02-20T13:08:08Z</time>
      </trkpt>
      <trkpt lat="45.15962" lon="5.92753">
        <ele>2198</ele>
        <time>2021-02-20T13:08:09Z</time>
      </trkpt>
      <trkpt lat="45.15961" lon="5.92752">
        <ele>2198</ele>
        <time>2021-02-20T13:08:27Z</time>
      </trkpt>
      <trkpt lat="45.15961" lon="5.92752">
        <ele>2198</ele>
        <time>2021-02-20T13:08:28Z</time>
      </trkpt>
      <trkpt lat="45.15961" lon="5.92752">
        <ele>2198</ele>
        <time>2021-02-20T13:08:29Z</time>
      </trkpt>
      <trkpt lat="45.1596" lon="5.92751">
        <ele>2198</ele>
        <time>2021-02-20T13:08:30Z</time>
      </trkpt>
      <trkpt lat="45.1596" lon="5.92751">
        <ele>2200.1</ele>
        <time>2021-02-20T13:08:31Z</time>
      </trkpt>
      <trkpt lat="45.1596" lon="5.9275">
        <ele>2200.1</ele>
        <time>2021-02-20T13:08:32Z</time>
      </trkpt>
      <trkpt lat="45.15959" lon="5.92749">
        <ele>2200.1</ele>
        <time>2021-02-20T13:08:33Z</time>
      </trkpt>
      <trkpt lat="45.15959" lon="5.92748">
        <ele>2200.1</ele>
        <time>2021-02-20T13:08:34Z</time>
      </trkpt>
      <trkpt lat="45.15959" lon="5.92747">
        <ele>2198.1</ele>
        <time>2021-02-20T13:08:35Z</time>
      </trkpt>
      <trkpt lat="45.15958" lon="5.92747">
        <ele>2200.2</ele>
        <time>2021-02-20T13:08:36Z</time>
      </trkpt>
      <trkpt lat="45.15958" lon="5.92746">
        <ele>2200.2</ele>
        <time>2021-02-20T13:08:37Z</time>
      </trkpt>
      <trkpt lat="45.15958" lon="5.92745">
        <ele>2200.2</ele>
        <time>2021-02-20T13:08:38Z</time>
      </trkpt>
      <trkpt lat="45.15958" lon="5.92744">
        <ele>2200.2</ele>
        <time>2021-02-20T13:08:39Z</time>
      </trkpt>
      <trkpt lat="45.15958" lon="5.92744">
        <ele>2200.2</ele>
        <time>2021-02-20T13:08:40Z</time>
      </trkpt>
      <trkpt lat="45.15958" lon="5.92743">
        <ele>2200.2</ele>
        <time>2021-02-20T13:08:41Z</time>
      </trkpt>
      <trkpt lat="45.15958" lon="5.92742">
        <ele>2202.2</ele>
        <time>2021-02-20T13:08:42Z</time>
      </trkpt>
      <trkpt lat="45.15958" lon="5.92741">
        <ele>2202.2</ele>
        <time>2021-02-20T13:08:43Z</time>
      </trkpt>
      <trkpt lat="45.15957" lon="5.92741">
        <ele>2202.2</ele>
        <time>2021-02-20T13:08:44Z</time>
      </trkpt>
      <trkpt lat="45.15957" lon="5.92741">
        <ele>2202.2</ele>
        <time>2021-02-20T13:08:45Z</time>
      </trkpt>
      <trkpt lat="45.15957" lon="5.9274">
        <ele>2202.2</ele>
        <time>2021-02-20T13:08:46Z</time>
      </trkpt>
      <trkpt lat="45.15957" lon="5.9274">
        <ele>2202.2</ele>
        <time>2021-02-20T13:08:47Z</time>
      </trkpt>
      <trkpt lat="45.15956" lon="5.92739">
        <ele>2202.2</ele>
        <time>2021-02-20T13:08:48Z</time>
      </trkpt>
      <trkpt lat="45.15956" lon="5.92739">
        <ele>2200.2</ele>
        <time>2021-02-20T13:08:49Z</time>
      </trkpt>
      <trkpt lat="45.15956" lon="5.92738">
        <ele>2204</ele>
        <time>2021-02-20T13:08:50Z</time>
      </trkpt>
      <trkpt lat="45.15956" lon="5.92738">
        <ele>2204</ele>
        <time>2021-02-20T13:08:51Z</time>
      </trkpt>
      <trkpt lat="45.15956" lon="5.92737">
        <ele>2204</ele>
        <time>2021-02-20T13:08:52Z</time>
      </trkpt>
      <trkpt lat="45.15956" lon="5.92737">
        <ele>2204</ele>
        <time>2021-02-20T13:08:53Z</time>
      </trkpt>
      <trkpt lat="45.15957" lon="5.92737">
        <ele>2204</ele>
        <time>2021-02-20T13:08:54Z</time>
      </trkpt>
      <trkpt lat="45.15957" lon="5.92736">
        <ele>2204</ele>
        <time>2021-02-20T13:08:55Z</time>
      </trkpt>
      <trkpt lat="45.15957" lon="5.92736">
        <ele>2204</ele>
        <time>2021-02-20T13:08:56Z</time>
      </trkpt>
      <trkpt lat="45.15957" lon="5.92735">
        <ele>2204</ele>
        <time>2021-02-20T13:08:57Z</time>
      </trkpt>
      <trkpt lat="45.15957" lon="5.92735">
        <ele>2204</ele>
        <time>2021-02-20T13:08:58Z</time>
      </trkpt>
      <trkpt lat="45.15957" lon="5.92735">
        <ele>2204</ele>
        <time>2021-02-20T13:09:43Z</time>
      </trkpt>
      <trkpt lat="45.15958" lon="5.92734">
        <ele>2204</ele>
        <time>2021-02-20T13:09:44Z</time>
      </trkpt>
      <trkpt lat="45.15958" lon="5.92734">
        <ele>2205.7</ele>
        <time>2021-02-20T13:09:45Z</time>
      </trkpt>
      <trkpt lat="45.15958" lon="5.92733">
        <ele>2205.7</ele>
        <time>2021-02-20T13:09:46Z</time>
      </trkpt>
      <trkpt lat="45.15958" lon="5.92733">
        <ele>2205.7</ele>
        <time>2021-02-20T13:09:47Z</time>
      </trkpt>
      <trkpt lat="45.15958" lon="5.92733">
        <ele>2205.7</ele>
        <time>2021-02-20T13:09:48Z</time>
      </trkpt>
      <trkpt lat="45.15958" lon="5.92732">
        <ele>2205.7</ele>
        <time>2021-02-20T13:09:49Z</time>
      </trkpt>
      <trkpt lat="45.15957" lon="5.92732">
        <ele>2205.7</ele>
        <time>2021-02-20T13:09:50Z</time>
      </trkpt>
      <trkpt lat="45.15956" lon="5.92731">
        <ele>2205.7</ele>
        <time>2021-02-20T13:09:51Z</time>
      </trkpt>
      <trkpt lat="45.15956" lon="5.92731">
        <ele>2203.8</ele>
        <time>2021-02-20T13:09:52Z</time>
      </trkpt>
      <trkpt lat="45.15956" lon="5.9273">
        <ele>2205.7</ele>
        <time>2021-02-20T13:09:53Z</time>
      </trkpt>
      <trkpt lat="45.15956" lon="5.92728">
        <ele>2207.3</ele>
        <time>2021-02-20T13:09:54Z</time>
      </trkpt>
      <trkpt lat="45.15957" lon="5.92727">
        <ele>2207.3</ele>
        <time>2021-02-20T13:09:55Z</time>
      </trkpt>
      <trkpt lat="45.15957" lon="5.92725">
        <ele>2208.8</ele>
        <time>2021-02-20T13:09:56Z</time>
      </trkpt>
      <trkpt lat="45.15957" lon="5.92723">
        <ele>2208.8</ele>
        <time>2021-02-20T13:11:45Z</time>
      </trkpt>
      <trkpt lat="45.15958" lon="5.92722">
        <ele>2208.8</ele>
        <time>2021-02-20T13:11:46Z</time>
      </trkpt>
      <trkpt lat="45.15958" lon="5.9272">
        <ele>2210.2</ele>
        <time>2021-02-20T13:11:47Z</time>
      </trkpt>
      <trkpt lat="45.15959" lon="5.92719">
        <ele>2210.2</ele>
        <time>2021-02-20T13:11:48Z</time>
      </trkpt>
      <trkpt lat="45.1596" lon="5.92718">
        <ele>2212.3</ele>
        <time>2021-02-20T13:11:49Z</time>
      </trkpt>
      <trkpt lat="45.15961" lon="5.92716">
        <ele>2213.6</ele>
        <time>2021-02-20T13:11:50Z</time>
      </trkpt>
      <trkpt lat="45.15961" lon="5.92716">
        <ele>2213.6</ele>
        <time>2021-02-20T13:11:51Z</time>
      </trkpt>
      <trkpt lat="45.15962" lon="5.92715">
        <ele>2213.6</ele>
        <time>2021-02-20T13:11:52Z</time>
      </trkpt>
      <trkpt lat="45.15962" lon="5.92715">
        <ele>2215.7</ele>
        <time>2021-02-20T13:11:53Z</time>
      </trkpt>
      <trkpt lat="45.15963" lon="5.92715">
        <ele>2215.7</ele>
        <time>2021-02-20T13:11:54Z</time>
      </trkpt>
      <trkpt lat="45.15964" lon="5.92715">
        <ele>2215.7</ele>
        <time>2021-02-20T13:11:55Z</time>
      </trkpt>
      <trkpt lat="45.15965" lon="5.92715">
        <ele>2215.7</ele>
        <time>2021-02-20T13:11:56Z</time>
      </trkpt>
      <trkpt lat="45.15965" lon="5.92715">
        <ele>2217.9</ele>
        <time>2021-02-20T13:11:57Z</time>
      </trkpt>
      <trkpt lat="45.15966" lon="5.92715">
        <ele>2217.9</ele>
        <time>2021-02-20T13:11:58Z</time>
      </trkpt>
      <trkpt lat="45.15967" lon="5.92715">
        <ele>2217.9</ele>
        <time>2021-02-20T13:11:59Z</time>
      </trkpt>
      <trkpt lat="45.15967" lon="5.92715">
        <ele>2217.9</ele>
        <time>2021-02-20T13:12:00Z</time>
      </trkpt>
      <trkpt lat="45.15966" lon="5.92716">
        <ele>2217.9</ele>
        <time>2021-02-20T13:12:01Z</time>
      </trkpt>
      <trkpt lat="45.15966" lon="5.92716">
        <ele>2217.9</ele>
        <time>2021-02-20T13:12:02Z</time>
      </trkpt>
      <trkpt lat="45.15965" lon="5.92716">
        <ele>2217.9</ele>
        <time>2021-02-20T13:12:03Z</time>
      </trkpt>
      <trkpt lat="45.15965" lon="5.92716">
        <ele>2215.7</ele>
        <time>2021-02-20T13:12:04Z</time>
      </trkpt>
      <trkpt lat="45.15964" lon="5.92716">
        <ele>2215.7</ele>
        <time>2021-02-20T13:12:05Z</time>
      </trkpt>
      <trkpt lat="45.15964" lon="5.92716">
        <ele>2215.7</ele>
        <time>2021-02-20T13:12:06Z</time>
      </trkpt>
      <trkpt lat="45.15963" lon="5.92716">
        <ele>2215.7</ele>
        <time>2021-02-20T13:12:44Z</time>
      </trkpt>
      <trkpt lat="45.15963" lon="5.92716">
        <ele>2215.7</ele>
        <time>2021-02-20T13:12:45Z</time>
      </trkpt>
      <trkpt lat="45.15962" lon="5.92716">
        <ele>2215.7</ele>
        <time>2021-02-20T13:12:46Z</time>
      </trkpt>
      <trkpt lat="45.15962" lon="5.92716">
        <ele>2215.7</ele>
        <time>2021-02-20T13:12:47Z</time>
      </trkpt>
      <trkpt lat="45.15961" lon="5.92716">
        <ele>2213.6</ele>
        <time>2021-02-20T13:12:48Z</time>
      </trkpt>
      <trkpt lat="45.1596" lon="5.92715">
        <ele>2213.6</ele>
        <time>2021-02-20T13:12:49Z</time>
      </trkpt>
      <trkpt lat="45.1596" lon="5.92715">
        <ele>2213.6</ele>
        <time>2021-02-20T13:12:50Z</time>
      </trkpt>
      <trkpt lat="45.1596" lon="5.92715">
        <ele>2213.6</ele>
        <time>2021-02-20T13:12:51Z</time>
      </trkpt>
      <trkpt lat="45.1596" lon="5.92715">
        <ele>2213.6</ele>
        <time>2021-02-20T13:12:52Z</time>
      </trkpt>
      <trkpt lat="45.15961" lon="5.92714">
        <ele>2213.6</ele>
        <time>2021-02-20T13:12:53Z</time>
      </trkpt>
      <trkpt lat="45.15961" lon="5.92713">
        <ele>2213.6</ele>
        <time>2021-02-20T13:12:54Z</time>
      </trkpt>
      <trkpt lat="45.15961" lon="5.92713">
        <ele>2213.6</ele>
        <time>2021-02-20T13:12:55Z</time>
      </trkpt>
      <trkpt lat="45.15961" lon="5.92712">
        <ele>2214.8</ele>
        <time>2021-02-20T13:12:56Z</time>
      </trkpt>
      <trkpt lat="45.15961" lon="5.92712">
        <ele>2214.8</ele>
        <time>2021-02-20T13:12:57Z</time>
      </trkpt>
      <trkpt lat="45.15956" lon="5.92712">
        <ele>2212.6</ele>
        <time>2021-02-20T13:12:58Z</time>
      </trkpt>
      <trkpt lat="45.15951" lon="5.92713">
        <ele>2207.2</ele>
        <time>2021-02-20T13:12:59Z</time>
      </trkpt>
      <trkpt lat="45.15947" lon="5.92714">
        <ele>2205.1</ele>
        <time>2021-02-20T13:23:23Z</time>
      </trkpt>
      <trkpt lat="45.15942" lon="5.92715">
        <ele>2200.5</ele>
        <time>2021-02-20T13:23:24Z</time>
      </trkpt>
      <trkpt lat="45.15938" lon="5.92717">
        <ele>2197.2</ele>
        <time>2021-02-20T13:23:25Z</time>
      </trkpt>
      <trkpt lat="45.15936" lon="5.92719">
        <ele>2195</ele>
        <time>2021-02-20T13:23:26Z</time>
      </trkpt>
      <trkpt lat="45.15932" lon="5.92716">
        <ele>2193.6</ele>
        <time>2021-02-20T13:23:27Z</time>
      </trkpt>
      <trkpt lat="45.15929" lon="5.92711">
        <ele>2192.2</ele>
        <time>2021-02-20T13:23:28Z</time>
      </trkpt>
      <trkpt lat="45.15926" lon="5.92709">
        <ele>2190.1</ele>
        <time>2021-02-20T13:23:29Z</time>
      </trkpt>
      <trkpt lat="45.15923" lon="5.92707">
        <ele>2188.4</ele>
        <time>2021-02-20T13:23:30Z</time>
      </trkpt>
      <trkpt lat="45.1592" lon="5.92706">
        <ele>2186</ele>
        <time>2021-02-20T13:23:31Z</time>
      </trkpt>
      <trkpt lat="45.15917" lon="5.92703">
        <ele>2183.8</ele>
        <time>2021-02-20T13:23:32Z</time>
      </trkpt>
      <trkpt lat="45.15917" lon="5.92702">
        <ele>2183.8</ele>
        <time>2021-02-20T13:23:33Z</time>
      </trkpt>
      <trkpt lat="45.15915" lon="5.92699">
        <ele>2181.3</ele>
        <time>2021-02-20T13:23:34Z</time>
      </trkpt>
      <trkpt lat="45.15914" lon="5.92697">
        <ele>2181.3</ele>
        <time>2021-02-20T13:23:35Z</time>
      </trkpt>
      <trkpt lat="45.15911" lon="5.92698">
        <ele>2178.8</ele>
        <time>2021-02-20T13:23:36Z</time>
      </trkpt>
      <trkpt lat="45.1591" lon="5.92698">
        <ele>2176.4</ele>
        <time>2021-02-20T13:23:37Z</time>
      </trkpt>
      <trkpt lat="45.15908" lon="5.92699">
        <ele>2176.4</ele>
        <time>2021-02-20T13:23:38Z</time>
      </trkpt>
      <trkpt lat="45.15906" lon="5.92699">
        <ele>2174.3</ele>
        <time>2021-02-20T13:23:39Z</time>
      </trkpt>
      <trkpt lat="45.15904" lon="5.92698">
        <ele>2172.3</ele>
        <time>2021-02-20T13:23:40Z</time>
      </trkpt>
      <trkpt lat="45.15903" lon="5.92697">
        <ele>2172.3</ele>
        <time>2021-02-20T13:23:41Z</time>
      </trkpt>
      <trkpt lat="45.159" lon="5.92696">
        <ele>2170.5</ele>
        <time>2021-02-20T13:23:42Z</time>
      </trkpt>
      <trkpt lat="45.15897" lon="5.92697">
        <ele>2168.6</ele>
        <time>2021-02-20T13:23:43Z</time>
      </trkpt>
      <trkpt lat="45.15894" lon="5.92697">
        <ele>2166.6</ele>
        <time>2021-02-20T13:23:44Z</time>
      </trkpt>
      <trkpt lat="45.1589" lon="5.92697">
        <ele>2164.7</ele>
        <time>2021-02-20T13:23:45Z</time>
      </trkpt>
      <trkpt lat="45.15884" lon="5.92697">
        <ele>2161.1</ele>
        <time>2021-02-20T13:23:46Z</time>
      </trkpt>
      <trkpt lat="45.15879" lon="5.92698">
        <ele>2157.4</ele>
        <time>2021-02-20T13:23:47Z</time>
      </trkpt>
      <trkpt lat="45.15874" lon="5.927">
        <ele>2156.6</ele>
        <time>2021-02-20T13:23:48Z</time>
      </trkpt>
      <trkpt lat="45.1587" lon="5.92703">
        <ele>2154.2</ele>
        <time>2021-02-20T13:23:49Z</time>
      </trkpt>
      <trkpt lat="45.15866" lon="5.92705">
        <ele>2153.4</ele>
        <time>2021-02-20T13:23:50Z</time>
      </trkpt>
      <trkpt lat="45.15862" lon="5.92708">
        <ele>2152.4</ele>
        <time>2021-02-20T13:23:51Z</time>
      </trkpt>
      <trkpt lat="45.1586" lon="5.92709">
        <ele>2151.8</ele>
        <time>2021-02-20T13:23:52Z</time>
      </trkpt>
      <trkpt lat="45.1586" lon="5.92709">
        <ele>2151.8</ele>
        <time>2021-02-20T13:23:53Z</time>
      </trkpt>
      <trkpt lat="45.1586" lon="5.92708">
        <ele>2151.8</ele>
        <time>2021-02-20T13:23:54Z</time>
      </trkpt>
      <trkpt lat="45.1586" lon="5.92708">
        <ele>2151.5</ele>
        <time>2021-02-20T13:23:55Z</time>
      </trkpt>
      <trkpt lat="45.15859" lon="5.92708">
        <ele>2151.5</ele>
        <time>2021-02-20T13:23:56Z</time>
      </trkpt>
      <trkpt lat="45.15859" lon="5.92707">
        <ele>2151.5</ele>
        <time>2021-02-20T13:23:57Z</time>
      </trkpt>
      <trkpt lat="45.15859" lon="5.92707">
        <ele>2150.6</ele>
        <time>2021-02-20T13:23:58Z</time>
      </trkpt>
      <trkpt lat="45.15859" lon="5.92706">
        <ele>2150.6</ele>
        <time>2021-02-20T13:23:59Z</time>
      </trkpt>
      <trkpt lat="45.15858" lon="5.92706">
        <ele>2150.6</ele>
        <time>2021-02-20T13:24:00Z</time>
      </trkpt>
      <trkpt lat="45.15858" lon="5.92706">
        <ele>2150.6</ele>
        <time>2021-02-20T13:24:01Z</time>
      </trkpt>
      <trkpt lat="45.15858" lon="5.92705">
        <ele>2150.6</ele>
        <time>2021-02-20T13:24:02Z</time>
      </trkpt>
      <trkpt lat="45.15857" lon="5.92705">
        <ele>2150.6</ele>
        <time>2021-02-20T13:24:03Z</time>
      </trkpt>
      <trkpt lat="45.15857" lon="5.92705">
        <ele>2150.6</ele>
        <time>2021-02-20T13:24:11Z</time>
      </trkpt>
      <trkpt lat="45.15857" lon="5.92704">
        <ele>2150.6</ele>
        <time>2021-02-20T13:24:12Z</time>
      </trkpt>
      <trkpt lat="45.15855" lon="5.92701">
        <ele>2149.4</ele>
        <time>2021-02-20T13:24:13Z</time>
      </trkpt>
      <trkpt lat="45.15854" lon="5.927">
        <ele>2149.4</ele>
        <time>2021-02-20T13:24:14Z</time>
      </trkpt>
      <trkpt lat="45.15853" lon="5.92695">
        <ele>2148.3</ele>
        <time>2021-02-20T13:24:15Z</time>
      </trkpt>
      <trkpt lat="45.15852" lon="5.92691">
        <ele>2147.6</ele>
        <time>2021-02-20T13:24:16Z</time>
      </trkpt>
      <trkpt lat="45.15851" lon="5.92687">
        <ele>2146.9</ele>
        <time>2021-02-20T13:24:17Z</time>
      </trkpt>
      <trkpt lat="45.15851" lon="5.92686">
        <ele>2146.2</ele>
        <time>2021-02-20T13:24:18Z</time>
      </trkpt>
      <trkpt lat="45.1585" lon="5.92682">
        <ele>2144.8</ele>
        <time>2021-02-20T13:24:19Z</time>
      </trkpt>
      <trkpt lat="45.15849" lon="5.92681">
        <ele>2144.8</ele>
        <time>2021-02-20T13:24:20Z</time>
      </trkpt>
      <trkpt lat="45.15847" lon="5.92677">
        <ele>2144.1</ele>
        <time>2021-02-20T13:24:21Z</time>
      </trkpt>
      <trkpt lat="45.15844" lon="5.92672">
        <ele>2142.7</ele>
        <time>2021-02-20T13:24:22Z</time>
      </trkpt>
      <trkpt lat="45.15842" lon="5.92668">
        <ele>2141.3</ele>
        <time>2021-02-20T13:24:23Z</time>
      </trkpt>
      <trkpt lat="45.15838" lon="5.92662">
        <ele>2139.7</ele>
        <time>2021-02-20T13:24:24Z</time>
      </trkpt>
      <trkpt lat="45.15834" lon="5.92657">
        <ele>2136.1</ele>
        <time>2021-02-20T13:24:25Z</time>
      </trkpt>
      <trkpt lat="45.15829" lon="5.92651">
        <ele>2134.1</ele>
        <time>2021-02-20T13:24:26Z</time>
      </trkpt>
      <trkpt lat="45.15825" lon="5.92647">
        <ele>2131.4</ele>
        <time>2021-02-20T13:24:27Z</time>
      </trkpt>
      <trkpt lat="45.15825" lon="5.92645">
        <ele>2131.4</ele>
        <time>2021-02-20T13:24:28Z</time>
      </trkpt>
      <trkpt lat="45.15826" lon="5.92644">
        <ele>2132</ele>
        <time>2021-02-20T13:24:29Z</time>
      </trkpt>
      <trkpt lat="45.15827" lon="5.92644">
        <ele>2130.5</ele>
        <time>2021-02-20T13:24:30Z</time>
      </trkpt>
      <trkpt lat="45.15828" lon="5.92643">
        <ele>2130.5</ele>
        <time>2021-02-20T13:24:31Z</time>
      </trkpt>
      <trkpt lat="45.15829" lon="5.92643">
        <ele>2131.3</ele>
        <time>2021-02-20T13:24:32Z</time>
      </trkpt>
      <trkpt lat="45.1583" lon="5.92642">
        <ele>2131.3</ele>
        <time>2021-02-20T13:24:33Z</time>
      </trkpt>
      <trkpt lat="45.15831" lon="5.92642">
        <ele>2131.3</ele>
        <time>2021-02-20T13:24:34Z</time>
      </trkpt>
      <trkpt lat="45.15832" lon="5.92642">
        <ele>2132</ele>
        <time>2021-02-20T13:24:35Z</time>
      </trkpt>
      <trkpt lat="45.15833" lon="5.92641">
        <ele>2132</ele>
        <time>2021-02-20T13:24:36Z</time>
      </trkpt>
      <trkpt lat="45.15834" lon="5.92641">
        <ele>2132</ele>
        <time>2021-02-20T13:24:37Z</time>
      </trkpt>
      <trkpt lat="45.15835" lon="5.9264">
        <ele>2132.8</ele>
        <time>2021-02-20T13:24:38Z</time>
      </trkpt>
      <trkpt lat="45.15836" lon="5.9264">
        <ele>2132.8</ele>
        <time>2021-02-20T13:24:39Z</time>
      </trkpt>
      <trkpt lat="45.15837" lon="5.92639">
        <ele>2131.5</ele>
        <time>2021-02-20T13:25:31Z</time>
      </trkpt>
      <trkpt lat="45.15838" lon="5.92639">
        <ele>2132.3</ele>
        <time>2021-02-20T13:25:32Z</time>
      </trkpt>
      <trkpt lat="45.15841" lon="5.92631">
        <ele>2131</ele>
        <time>2021-02-20T13:25:33Z</time>
      </trkpt>
      <trkpt lat="45.15843" lon="5.92623">
        <ele>2129.4</ele>
        <time>2021-02-20T13:25:34Z</time>
      </trkpt>
      <trkpt lat="45.15844" lon="5.92618">
        <ele>2128</ele>
        <time>2021-02-20T13:25:35Z</time>
      </trkpt>
      <trkpt lat="45.15842" lon="5.92612">
        <ele>2125.8</ele>
        <time>2021-02-20T13:25:36Z</time>
      </trkpt>
      <trkpt lat="45.1584" lon="5.92606">
        <ele>2123.4</ele>
        <time>2021-02-20T13:25:37Z</time>
      </trkpt>
      <trkpt lat="45.15836" lon="5.92601">
        <ele>2119.6</ele>
        <time>2021-02-20T13:25:38Z</time>
      </trkpt>
      <trkpt lat="45.15832" lon="5.92598">
        <ele>2118.3</ele>
        <time>2021-02-20T13:25:39Z</time>
      </trkpt>
      <trkpt lat="45.15829" lon="5.92593">
        <ele>2115.6</ele>
        <time>2021-02-20T13:25:40Z</time>
      </trkpt>
      <trkpt lat="45.15826" lon="5.92588">
        <ele>2111.8</ele>
        <time>2021-02-20T13:25:41Z</time>
      </trkpt>
      <trkpt lat="45.15824" lon="5.92581">
        <ele>2109.3</ele>
        <time>2021-02-20T13:25:42Z</time>
      </trkpt>
      <trkpt lat="45.15823" lon="5.92574">
        <ele>2106.9</ele>
        <time>2021-02-20T13:25:43Z</time>
      </trkpt>
      <trkpt lat="45.15822" lon="5.92567">
        <ele>2104.5</ele>
        <time>2021-02-20T13:25:44Z</time>
      </trkpt>
      <trkpt lat="45.1582" lon="5.92561">
        <ele>2102</ele>
        <time>2021-02-20T13:25:45Z</time>
      </trkpt>
      <trkpt lat="45.15818" lon="5.92557">
        <ele>2099.4</ele>
        <time>2021-02-20T13:25:46Z</time>
      </trkpt>
      <trkpt lat="45.15811" lon="5.9256">
        <ele>2098.3</ele>
        <time>2021-02-20T13:25:47Z</time>
      </trkpt>
      <trkpt lat="45.15809" lon="5.92556">
        <ele>2095.5</ele>
        <time>2021-02-20T13:25:48Z</time>
      </trkpt>
      <trkpt lat="45.15804" lon="5.92547">
        <ele>2090</ele>
        <time>2021-02-20T13:25:49Z</time>
      </trkpt>
      <trkpt lat="45.15801" lon="5.92542">
        <ele>2087.5</ele>
        <time>2021-02-20T13:25:50Z</time>
      </trkpt>
      <trkpt lat="45.15798" lon="5.92536">
        <ele>2083.8</ele>
        <time>2021-02-20T13:25:51Z</time>
      </trkpt>
      <trkpt lat="45.15795" lon="5.92539">
        <ele>2083.9</ele>
        <time>2021-02-20T13:25:52Z</time>
      </trkpt>
      <trkpt lat="45.15795" lon="5.92539">
        <ele>2083.9</ele>
        <time>2021-02-20T13:25:53Z</time>
      </trkpt>
      <trkpt lat="45.15792" lon="5.92537">
        <ele>2082.8</ele>
        <time>2021-02-20T13:25:54Z</time>
      </trkpt>
      <trkpt lat="45.1579" lon="5.92537">
        <ele>2082.8</ele>
        <time>2021-02-20T13:25:55Z</time>
      </trkpt>
      <trkpt lat="45.15789" lon="5.92537">
        <ele>2081.7</ele>
        <time>2021-02-20T13:25:56Z</time>
      </trkpt>
      <trkpt lat="45.15787" lon="5.92537">
        <ele>2081.7</ele>
        <time>2021-02-20T13:25:57Z</time>
      </trkpt>
      <trkpt lat="45.15786" lon="5.92537">
        <ele>2080.6</ele>
        <time>2021-02-20T13:25:58Z</time>
      </trkpt>
      <trkpt lat="45.15784" lon="5.92537">
        <ele>2080.6</ele>
        <time>2021-02-20T13:25:59Z</time>
      </trkpt>
      <trkpt lat="45.15783" lon="5.92537">
        <ele>2079.6</ele>
        <time>2021-02-20T13:26:00Z</time>
      </trkpt>
      <trkpt lat="45.15781" lon="5.92537">
        <ele>2079.6</ele>
        <time>2021-02-20T13:26:01Z</time>
      </trkpt>
      <trkpt lat="45.1578" lon="5.92537">
        <ele>2078.6</ele>
        <time>2021-02-20T13:27:15Z</time>
      </trkpt>
      <trkpt lat="45.15778" lon="5.92537">
        <ele>2078.6</ele>
        <time>2021-02-20T13:27:16Z</time>
      </trkpt>
      <trkpt lat="45.15775" lon="5.92535">
        <ele>2076.4</ele>
        <time>2021-02-20T13:27:17Z</time>
      </trkpt>
      <trkpt lat="45.15775" lon="5.9253">
        <ele>2075</ele>
        <time>2021-02-20T13:27:18Z</time>
      </trkpt>
      <trkpt lat="45.15775" lon="5.92528">
        <ele>2075</ele>
        <time>2021-02-20T13:27:19Z</time>
      </trkpt>
      <trkpt lat="45.15775" lon="5.92523">
        <ele>2072</ele>
        <time>2021-02-20T13:27:20Z</time>
      </trkpt>
      <trkpt lat="45.15775" lon="5.92521">
        <ele>2072</ele>
        <time>2021-02-20T13:27:21Z</time>
      </trkpt>
      <trkpt lat="45.15775" lon="5.92516">
        <ele>2070.5</ele>
        <time>2021-02-20T13:27:22Z</time>
      </trkpt>
      <trkpt lat="45.15775" lon="5.92514">
        <ele>2069.1</ele>
        <time>2021-02-20T13:27:23Z</time>
      </trkpt>
      <trkpt lat="45.15776" lon="5.9251">
        <ele>2067.7</ele>
        <time>2021-02-20T13:27:24Z</time>
      </trkpt>
      <trkpt lat="45.15777" lon="5.92506">
        <ele>2066.3</ele>
        <time>2021-02-20T13:27:25Z</time>
      </trkpt>
      <trkpt lat="45.15778" lon="5.92501">
        <ele>2066.1</ele>
        <time>2021-02-20T13:27:26Z</time>
      </trkpt>
      <trkpt lat="45.1578" lon="5.92494">
        <ele>2065.9</ele>
        <time>2021-02-20T13:27:27Z</time>
      </trkpt>
      <trkpt lat="45.15783" lon="5.92487">
        <ele>2063.5</ele>
        <time>2021-02-20T13:27:28Z</time>
      </trkpt>
      <trkpt lat="45.15786" lon="5.92479">
        <ele>2062</ele>
        <time>2021-02-20T13:27:29Z</time>
      </trkpt>
      <trkpt lat="45.15788" lon="5.92472">
        <ele>2061.8</ele>
        <time>2021-02-20T13:27:30Z</time>
      </trkpt>
      <trkpt lat="45.15791" lon="5.92467">
        <ele>2060.2</ele>
        <time>2021-02-20T13:27:31Z</time>
      </trkpt>
      <trkpt lat="45.15792" lon="5.92461">
        <ele>2058.7</ele>
        <time>2021-02-20T13:27:32Z</time>
      </trkpt>
      <trkpt lat="45.15794" lon="5.92451">
        <ele>2057.5</ele>
        <time>2021-02-20T13:27:33Z</time>
      </trkpt>
      <trkpt lat="45.15794" lon="5.92445">
        <ele>2055.2</ele>
        <time>2021-02-20T13:27:34Z</time>
      </trkpt>
      <trkpt lat="45.15794" lon="5.92441">
        <ele>2054</ele>
        <time>2021-02-20T13:27:35Z</time>
      </trkpt>
      <trkpt lat="45.15795" lon="5.92434">
        <ele>2052.8</ele>
        <time>2021-02-20T13:27:36Z</time>
      </trkpt>
      <trkpt lat="45.15797" lon="5.92427">
        <ele>2052</ele>
        <time>2021-02-20T13:27:37Z</time>
      </trkpt>
      <trkpt lat="45.15797" lon="5.92419">
        <ele>2049.6</ele>
        <time>2021-02-20T13:27:38Z</time>
      </trkpt>
      <trkpt lat="45.15799" lon="5.92411">
        <ele>2048.9</ele>
        <time>2021-02-20T13:27:39Z</time>
      </trkpt>
      <trkpt lat="45.15798" lon="5.92403">
        <ele>2045.1</ele>
        <time>2021-02-20T13:27:40Z</time>
      </trkpt>
      <trkpt lat="45.15798" lon="5.92397">
        <ele>2045.6</ele>
        <time>2021-02-20T13:27:41Z</time>
      </trkpt>
      <trkpt lat="45.15801" lon="5.92393">
        <ele>2044.4</ele>
        <time>2021-02-20T13:27:42Z</time>
      </trkpt>
      <trkpt lat="45.15802" lon="5.92388">
        <ele>2044.9</ele>
        <time>2021-02-20T13:27:43Z</time>
      </trkpt>
      <trkpt lat="45.15803" lon="5.92383">
        <ele>2043.6</ele>
        <time>2021-02-20T13:27:44Z</time>
      </trkpt>
      <trkpt lat="45.15804" lon="5.92381">
        <ele>2042.2</ele>
        <time>2021-02-20T13:27:45Z</time>
      </trkpt>
      <trkpt lat="45.15806" lon="5.92377">
        <ele>2042.8</ele>
        <time>2021-02-20T13:27:46Z</time>
      </trkpt>
      <trkpt lat="45.15808" lon="5.92373">
        <ele>2044.7</ele>
        <time>2021-02-20T13:27:47Z</time>
      </trkpt>
      <trkpt lat="45.15809" lon="5.92369">
        <ele>2042.2</ele>
        <time>2021-02-20T13:27:48Z</time>
      </trkpt>
      <trkpt lat="45.15811" lon="5.92365">
        <ele>2044.1</ele>
        <time>2021-02-20T13:27:49Z</time>
      </trkpt>
      <trkpt lat="45.15813" lon="5.92361">
        <ele>2042.9</ele>
        <time>2021-02-20T13:27:50Z</time>
      </trkpt>
      <trkpt lat="45.15815" lon="5.92357">
        <ele>2043.4</ele>
        <time>2021-02-20T13:27:51Z</time>
      </trkpt>
      <trkpt lat="45.15817" lon="5.92353">
        <ele>2043.8</ele>
        <time>2021-02-20T13:27:52Z</time>
      </trkpt>
      <trkpt lat="45.15819" lon="5.92348">
        <ele>2042.5</ele>
        <time>2021-02-20T13:27:53Z</time>
      </trkpt>
      <trkpt lat="45.1582" lon="5.92344">
        <ele>2042.7</ele>
        <time>2021-02-20T13:27:54Z</time>
      </trkpt>
      <trkpt lat="45.15822" lon="5.9234">
        <ele>2041.3</ele>
        <time>2021-02-20T13:27:55Z</time>
      </trkpt>
      <trkpt lat="45.15823" lon="5.92336">
        <ele>2041.4</ele>
        <time>2021-02-20T13:27:56Z</time>
      </trkpt>
      <trkpt lat="45.15825" lon="5.92331">
        <ele>2040</ele>
        <time>2021-02-20T13:27:57Z</time>
      </trkpt>
      <trkpt lat="45.15825" lon="5.9233">
        <ele>2038.6</ele>
        <time>2021-02-20T13:27:58Z</time>
      </trkpt>
      <trkpt lat="45.15826" lon="5.92327">
        <ele>2040.2</ele>
        <time>2021-02-20T13:27:59Z</time>
      </trkpt>
      <trkpt lat="45.15827" lon="5.92326">
        <ele>2038.9</ele>
        <time>2021-02-20T13:28:00Z</time>
      </trkpt>
      <trkpt lat="45.15828" lon="5.92323">
        <ele>2038.9</ele>
        <time>2021-02-20T13:28:01Z</time>
      </trkpt>
      <trkpt lat="45.15828" lon="5.92322">
        <ele>2038.9</ele>
        <time>2021-02-20T13:28:02Z</time>
      </trkpt>
      <trkpt lat="45.15829" lon="5.92321">
        <ele>2039.3</ele>
        <time>2021-02-20T13:28:03Z</time>
      </trkpt>
      <trkpt lat="45.15831" lon="5.92316">
        <ele>2038.2</ele>
        <time>2021-02-20T13:28:04Z</time>
      </trkpt>
      <trkpt lat="45.15832" lon="5.92314">
        <ele>2039.9</ele>
        <time>2021-02-20T13:28:05Z</time>
      </trkpt>
      <trkpt lat="45.15834" lon="5.92309">
        <ele>2037.8</ele>
        <time>2021-02-20T13:28:06Z</time>
      </trkpt>
      <trkpt lat="45.15836" lon="5.92304">
        <ele>2038.4</ele>
        <time>2021-02-20T13:28:07Z</time>
      </trkpt>
      <trkpt lat="45.15837" lon="5.92298">
        <ele>2037.5</ele>
        <time>2021-02-20T13:28:08Z</time>
      </trkpt>
      <trkpt lat="45.1584" lon="5.92293">
        <ele>2038.1</ele>
        <time>2021-02-20T13:28:09Z</time>
      </trkpt>
      <trkpt lat="45.15842" lon="5.92289">
        <ele>2038.6</ele>
        <time>2021-02-20T13:28:10Z</time>
      </trkpt>
      <trkpt lat="45.15844" lon="5.92284">
        <ele>2039.2</ele>
        <time>2021-02-20T13:28:11Z</time>
      </trkpt>
      <trkpt lat="45.15846" lon="5.92279">
        <ele>2038.6</ele>
        <time>2021-02-20T13:28:12Z</time>
      </trkpt>
      <trkpt lat="45.15847" lon="5.92276">
        <ele>2039.3</ele>
        <time>2021-02-20T13:28:13Z</time>
      </trkpt>
      <trkpt lat="45.15848" lon="5.92272">
        <ele>2038.9</ele>
        <time>2021-02-20T13:28:14Z</time>
      </trkpt>
      <trkpt lat="45.15849" lon="5.92268">
        <ele>2038.6</ele>
        <time>2021-02-20T13:28:15Z</time>
      </trkpt>
      <trkpt lat="45.15851" lon="5.92262">
        <ele>2039.6</ele>
        <time>2021-02-20T13:28:16Z</time>
      </trkpt>
      <trkpt lat="45.15853" lon="5.92256">
        <ele>2040.4</ele>
        <time>2021-02-20T13:28:17Z</time>
      </trkpt>
      <trkpt lat="45.15856" lon="5.92252">
        <ele>2040.2</ele>
        <time>2021-02-20T13:28:18Z</time>
      </trkpt>
      <trkpt lat="45.15857" lon="5.92248">
        <ele>2041.3</ele>
        <time>2021-02-20T13:28:19Z</time>
      </trkpt>
      <trkpt lat="45.15859" lon="5.92245">
        <ele>2042.5</ele>
        <time>2021-02-20T13:28:20Z</time>
      </trkpt>
      <trkpt lat="45.15861" lon="5.92241">
        <ele>2042.5</ele>
        <time>2021-02-20T13:28:21Z</time>
      </trkpt>
      <trkpt lat="45.15861" lon="5.92239">
        <ele>2042.4</ele>
        <time>2021-02-20T13:28:22Z</time>
      </trkpt>
      <trkpt lat="45.15862" lon="5.92237">
        <ele>2042.4</ele>
        <time>2021-02-20T13:28:23Z</time>
      </trkpt>
      <trkpt lat="45.15862" lon="5.92236">
        <ele>2043.7</ele>
        <time>2021-02-20T13:28:24Z</time>
      </trkpt>
      <trkpt lat="45.15862" lon="5.92234">
        <ele>2043.7</ele>
        <time>2021-02-20T13:28:25Z</time>
      </trkpt>
      <trkpt lat="45.15864" lon="5.92231">
        <ele>2043.8</ele>
        <time>2021-02-20T13:28:26Z</time>
      </trkpt>
      <trkpt lat="45.15864" lon="5.9223">
        <ele>2043.8</ele>
        <time>2021-02-20T13:28:27Z</time>
      </trkpt>
      <trkpt lat="45.15867" lon="5.92227">
        <ele>2045.2</ele>
        <time>2021-02-20T13:28:28Z</time>
      </trkpt>
      <trkpt lat="45.15867" lon="5.92226">
        <ele>2045.2</ele>
        <time>2021-02-20T13:28:29Z</time>
      </trkpt>
      <trkpt lat="45.15868" lon="5.92225">
        <ele>2046.5</ele>
        <time>2021-02-20T13:28:30Z</time>
      </trkpt>
      <trkpt lat="45.15869" lon="5.92224">
        <ele>2046.5</ele>
        <time>2021-02-20T13:28:31Z</time>
      </trkpt>
      <trkpt lat="45.15869" lon="5.92223">
        <ele>2046.7</ele>
        <time>2021-02-20T13:28:32Z</time>
      </trkpt>
      <trkpt lat="45.1587" lon="5.92222">
        <ele>2046.7</ele>
        <time>2021-02-20T13:28:33Z</time>
      </trkpt>
      <trkpt lat="45.1587" lon="5.92222">
        <ele>2046.7</ele>
        <time>2021-02-20T13:28:34Z</time>
      </trkpt>
      <trkpt lat="45.1587" lon="5.92222">
        <ele>2046.7</ele>
        <time>2021-02-20T13:28:35Z</time>
      </trkpt>
      <trkpt lat="45.15871" lon="5.92221">
        <ele>2046.7</ele>
        <time>2021-02-20T13:28:36Z</time>
      </trkpt>
      <trkpt lat="45.15871" lon="5.92221">
        <ele>2046.7</ele>
        <time>2021-02-20T13:28:37Z</time>
      </trkpt>
      <trkpt lat="45.15871" lon="5.92221">
        <ele>2048</ele>
        <time>2021-02-20T13:28:38Z</time>
      </trkpt>
      <trkpt lat="45.15871" lon="5.9222">
        <ele>2048</ele>
        <time>2021-02-20T13:28:39Z</time>
      </trkpt>
      <trkpt lat="45.15871" lon="5.9222">
        <ele>2048</ele>
        <time>2021-02-20T13:28:40Z</time>
      </trkpt>
      <trkpt lat="45.15872" lon="5.9222">
        <ele>2048</ele>
        <time>2021-02-20T13:28:41Z</time>
      </trkpt>
      <trkpt lat="45.15872" lon="5.92219">
        <ele>2048</ele>
        <time>2021-02-20T13:28:42Z</time>
      </trkpt>
      <trkpt lat="45.15872" lon="5.92219">
        <ele>2048</ele>
        <time>2021-02-20T13:32:14Z</time>
      </trkpt>
      <trkpt lat="45.15872" lon="5.92219">
        <ele>2048.2</ele>
        <time>2021-02-20T13:32:15Z</time>
      </trkpt>
      <trkpt lat="45.15873" lon="5.92218">
        <ele>2048.2</ele>
        <time>2021-02-20T13:32:16Z</time>
      </trkpt>
      <trkpt lat="45.15873" lon="5.92218">
        <ele>2048.2</ele>
        <time>2021-02-20T13:32:17Z</time>
      </trkpt>
      <trkpt lat="45.15873" lon="5.92218">
        <ele>2048.2</ele>
        <time>2021-02-20T13:32:18Z</time>
      </trkpt>
      <trkpt lat="45.15873" lon="5.92217">
        <ele>2048.2</ele>
        <time>2021-02-20T13:32:19Z</time>
      </trkpt>
      <trkpt lat="45.15874" lon="5.92217">
        <ele>2048.2</ele>
        <time>2021-02-20T13:32:20Z</time>
      </trkpt>
      <trkpt lat="45.15874" lon="5.92217">
        <ele>2048.2</ele>
        <time>2021-02-20T13:32:21Z</time>
      </trkpt>
      <trkpt lat="45.15874" lon="5.92216">
        <ele>2048.2</ele>
        <time>2021-02-20T13:32:22Z</time>
      </trkpt>
      <trkpt lat="45.15874" lon="5.92216">
        <ele>2049.4</ele>
        <time>2021-02-20T13:32:23Z</time>
      </trkpt>
      <trkpt lat="45.15874" lon="5.92216">
        <ele>2049.4</ele>
        <time>2021-02-20T13:36:01Z</time>
      </trkpt>
      <trkpt lat="45.15875" lon="5.92215">
        <ele>2049.4</ele>
        <time>2021-02-20T13:36:02Z</time>
      </trkpt>
      <trkpt lat="45.15875" lon="5.92215">
        <ele>2049.4</ele>
        <time>2021-02-20T13:36:03Z</time>
      </trkpt>
      <trkpt lat="45.15875" lon="5.92215">
        <ele>2049.4</ele>
        <time>2021-02-20T13:36:04Z</time>
      </trkpt>
      <trkpt lat="45.15875" lon="5.92214">
        <ele>2049.7</ele>
        <time>2021-02-20T13:36:05Z</time>
      </trkpt>
      <trkpt lat="45.15876" lon="5.92214">
        <ele>2049.7</ele>
        <time>2021-02-20T13:36:06Z</time>
      </trkpt>
      <trkpt lat="45.15876" lon="5.92213">
        <ele>2049.7</ele>
        <time>2021-02-20T13:36:07Z</time>
      </trkpt>
      <trkpt lat="45.15877" lon="5.92213">
        <ele>2049.7</ele>
        <time>2021-02-20T13:36:08Z</time>
      </trkpt>
      <trkpt lat="45.15878" lon="5.92212">
        <ele>2050.8</ele>
        <time>2021-02-20T13:36:09Z</time>
      </trkpt>
      <trkpt lat="45.15879" lon="5.92211">
        <ele>2050.8</ele>
        <time>2021-02-20T13:36:10Z</time>
      </trkpt>
      <trkpt lat="45.15879" lon="5.92211">
        <ele>2050.8</ele>
        <time>2021-02-20T13:36:11Z</time>
      </trkpt>
      <trkpt lat="45.1588" lon="5.9221">
        <ele>2051.2</ele>
        <time>2021-02-20T13:36:12Z</time>
      </trkpt>
      <trkpt lat="45.15881" lon="5.92209">
        <ele>2052.9</ele>
        <time>2021-02-20T13:36:13Z</time>
      </trkpt>
      <trkpt lat="45.15881" lon="5.92208">
        <ele>2052.9</ele>
        <time>2021-02-20T13:36:14Z</time>
      </trkpt>
      <trkpt lat="45.15882" lon="5.92207">
        <ele>2052.9</ele>
        <time>2021-02-20T13:36:15Z</time>
      </trkpt>
      <trkpt lat="45.15882" lon="5.92207">
        <ele>2052.9</ele>
        <time>2021-02-20T13:36:16Z</time>
      </trkpt>
      <trkpt lat="45.15883" lon="5.92206">
        <ele>2054.4</ele>
        <time>2021-02-20T13:36:17Z</time>
      </trkpt>
      <trkpt lat="45.15884" lon="5.92205">
        <ele>2054.4</ele>
        <time>2021-02-20T13:36:18Z</time>
      </trkpt>
      <trkpt lat="45.15885" lon="5.92204">
        <ele>2054.4</ele>
        <time>2021-02-20T13:36:19Z</time>
      </trkpt>
      <trkpt lat="45.15886" lon="5.92203">
        <ele>2054.4</ele>
        <time>2021-02-20T13:36:20Z</time>
      </trkpt>
      <trkpt lat="45.15886" lon="5.92202">
        <ele>2054.4</ele>
        <time>2021-02-20T13:36:21Z</time>
      </trkpt>
      <trkpt lat="45.15887" lon="5.92201">
        <ele>2055.9</ele>
        <time>2021-02-20T13:36:22Z</time>
      </trkpt>
      <trkpt lat="45.15887" lon="5.922">
        <ele>2055.9</ele>
        <time>2021-02-20T13:36:23Z</time>
      </trkpt>
      <trkpt lat="45.15887" lon="5.92198">
        <ele>2055.9</ele>
        <time>2021-02-20T13:36:24Z</time>
      </trkpt>
      <trkpt lat="45.15888" lon="5.92197">
        <ele>2056.2</ele>
        <time>2021-02-20T13:36:25Z</time>
      </trkpt>
      <trkpt lat="45.15888" lon="5.92196">
        <ele>2056.2</ele>
        <time>2021-02-20T13:36:26Z</time>
      </trkpt>
      <trkpt lat="45.15889" lon="5.92196">
        <ele>2056.2</ele>
        <time>2021-02-20T13:36:27Z</time>
      </trkpt>
      <trkpt lat="45.15889" lon="5.92195">
        <ele>2056.2</ele>
        <time>2021-02-20T13:36:28Z</time>
      </trkpt>
      <trkpt lat="45.15889" lon="5.92194">
        <ele>2057.5</ele>
        <time>2021-02-20T13:36:29Z</time>
      </trkpt>
      <trkpt lat="45.1589" lon="5.92193">
        <ele>2057.9</ele>
        <time>2021-02-20T13:36:30Z</time>
      </trkpt>
      <trkpt lat="45.15891" lon="5.92192">
        <ele>2058.1</ele>
        <time>2021-02-20T13:36:31Z</time>
      </trkpt>
      <trkpt lat="45.15891" lon="5.92191">
        <ele>2058.2</ele>
        <time>2021-02-20T13:36:32Z</time>
      </trkpt>
      <trkpt lat="45.15891" lon="5.9219">
        <ele>2058.4</ele>
        <time>2021-02-20T13:36:33Z</time>
      </trkpt>
      <trkpt lat="45.15892" lon="5.9219">
        <ele>2058.5</ele>
        <time>2021-02-20T13:36:34Z</time>
      </trkpt>
      <trkpt lat="45.15892" lon="5.92189">
        <ele>2058.7</ele>
        <time>2021-02-20T13:36:35Z</time>
      </trkpt>
      <trkpt lat="45.15892" lon="5.92188">
        <ele>2060.3</ele>
        <time>2021-02-20T13:36:36Z</time>
      </trkpt>
      <trkpt lat="45.15893" lon="5.92188">
        <ele>2060.5</ele>
        <time>2021-02-20T13:36:37Z</time>
      </trkpt>
      <trkpt lat="45.15893" lon="5.92187">
        <ele>2060.6</ele>
        <time>2021-02-20T13:36:38Z</time>
      </trkpt>
      <trkpt lat="45.15893" lon="5.92185">
        <ele>2060.8</ele>
        <time>2021-02-20T13:36:39Z</time>
      </trkpt>
      <trkpt lat="45.15893" lon="5.92184">
        <ele>2061.3</ele>
        <time>2021-02-20T13:36:40Z</time>
      </trkpt>
      <trkpt lat="45.15894" lon="5.92183">
        <ele>2061.5</ele>
        <time>2021-02-20T13:36:41Z</time>
      </trkpt>
      <trkpt lat="45.15894" lon="5.92183">
        <ele>2061.6</ele>
        <time>2021-02-20T13:36:42Z</time>
      </trkpt>
      <trkpt lat="45.15894" lon="5.92182">
        <ele>2061.8</ele>
        <time>2021-02-20T13:36:43Z</time>
      </trkpt>
      <trkpt lat="45.15894" lon="5.92181">
        <ele>2061.9</ele>
        <time>2021-02-20T13:36:44Z</time>
      </trkpt>
      <trkpt lat="45.15895" lon="5.9218">
        <ele>2062.6</ele>
        <time>2021-02-20T13:36:45Z</time>
      </trkpt>
      <trkpt lat="45.15895" lon="5.92179">
        <ele>2062.7</ele>
        <time>2021-02-20T13:36:46Z</time>
      </trkpt>
      <trkpt lat="45.15895" lon="5.92178">
        <ele>2062.9</ele>
        <time>2021-02-20T13:36:47Z</time>
      </trkpt>
      <trkpt lat="45.15895" lon="5.92177">
        <ele>2063</ele>
        <time>2021-02-20T13:36:48Z</time>
      </trkpt>
      <trkpt lat="45.15895" lon="5.92176">
        <ele>2064.7</ele>
        <time>2021-02-20T13:36:49Z</time>
      </trkpt>
      <trkpt lat="45.15896" lon="5.92175">
        <ele>2064.8</ele>
        <time>2021-02-20T13:36:50Z</time>
      </trkpt>
      <trkpt lat="45.15896" lon="5.92175">
        <ele>2065</ele>
        <time>2021-02-20T13:36:51Z</time>
      </trkpt>
      <trkpt lat="45.15896" lon="5.92174">
        <ele>2065.1</ele>
        <time>2021-02-20T13:36:52Z</time>
      </trkpt>
      <trkpt lat="45.15897" lon="5.92174">
        <ele>2065.3</ele>
        <time>2021-02-20T13:36:53Z</time>
      </trkpt>
      <trkpt lat="45.15897" lon="5.92175">
        <ele>2065.4</ele>
        <time>2021-02-20T13:36:54Z</time>
      </trkpt>
      <trkpt lat="45.15898" lon="5.92176">
        <ele>2065.6</ele>
        <time>2021-02-20T13:36:55Z</time>
      </trkpt>
      <trkpt lat="45.15898" lon="5.92177">
        <ele>2065.2</ele>
        <time>2021-02-20T13:36:56Z</time>
      </trkpt>
      <trkpt lat="45.15899" lon="5.92177">
        <ele>2066.3</ele>
        <time>2021-02-20T13:36:57Z</time>
      </trkpt>
      <trkpt lat="45.15899" lon="5.92178">
        <ele>2066.4</ele>
        <time>2021-02-20T13:36:58Z</time>
      </trkpt>
      <trkpt lat="45.15899" lon="5.92179">
        <ele>2066.6</ele>
        <time>2021-02-20T13:36:59Z</time>
      </trkpt>
      <trkpt lat="45.159" lon="5.9218">
        <ele>2066.7</ele>
        <time>2021-02-20T13:37:20Z</time>
      </trkpt>
      <trkpt lat="45.159" lon="5.92181">
        <ele>2066.5</ele>
        <time>2021-02-20T13:37:21Z</time>
      </trkpt>
      <trkpt lat="45.15901" lon="5.92182">
        <ele>2066.6</ele>
        <time>2021-02-20T13:37:22Z</time>
      </trkpt>
      <trkpt lat="45.15901" lon="5.92183">
        <ele>2067.7</ele>
        <time>2021-02-20T13:37:23Z</time>
      </trkpt>
      <trkpt lat="45.15902" lon="5.92184">
        <ele>2067.8</ele>
        <time>2021-02-20T13:37:24Z</time>
      </trkpt>
      <trkpt lat="45.15903" lon="5.92184">
        <ele>2068</ele>
        <time>2021-02-20T13:37:25Z</time>
      </trkpt>
      <trkpt lat="45.15903" lon="5.92184">
        <ele>2068.1</ele>
        <time>2021-02-20T13:37:26Z</time>
      </trkpt>
      <trkpt lat="45.15904" lon="5.92183">
        <ele>2068.3</ele>
        <time>2021-02-20T13:37:27Z</time>
      </trkpt>
      <trkpt lat="45.15905" lon="5.92182">
        <ele>2069.3</ele>
        <time>2021-02-20T13:37:28Z</time>
      </trkpt>
      <trkpt lat="45.15905" lon="5.92181">
        <ele>2069.5</ele>
        <time>2021-02-20T13:37:29Z</time>
      </trkpt>
      <trkpt lat="45.15906" lon="5.9218">
        <ele>2070</ele>
        <time>2021-02-20T13:37:30Z</time>
      </trkpt>
      <trkpt lat="45.15905" lon="5.92178">
        <ele>2070.2</ele>
        <time>2021-02-20T13:37:31Z</time>
      </trkpt>
      <trkpt lat="45.15905" lon="5.92177">
        <ele>2070.3</ele>
        <time>2021-02-20T13:37:32Z</time>
      </trkpt>
      <trkpt lat="45.15905" lon="5.92175">
        <ele>2070.8</ele>
        <time>2021-02-20T13:37:33Z</time>
      </trkpt>
      <trkpt lat="45.15905" lon="5.92174">
        <ele>2071</ele>
        <time>2021-02-20T13:37:34Z</time>
      </trkpt>
      <trkpt lat="45.15905" lon="5.92173">
        <ele>2071.1</ele>
        <time>2021-02-20T13:37:35Z</time>
      </trkpt>
      <trkpt lat="45.15905" lon="5.92172">
        <ele>2071.3</ele>
        <time>2021-02-20T13:37:36Z</time>
      </trkpt>
      <trkpt lat="45.15905" lon="5.92172">
        <ele>2071.9</ele>
        <time>2021-02-20T13:37:37Z</time>
      </trkpt>
      <trkpt lat="45.15905" lon="5.92171">
        <ele>2072</ele>
        <time>2021-02-20T13:37:38Z</time>
      </trkpt>
      <trkpt lat="45.15906" lon="5.9217">
        <ele>2072.1</ele>
        <time>2021-02-20T13:37:39Z</time>
      </trkpt>
      <trkpt lat="45.15906" lon="5.9217">
        <ele>2072.3</ele>
        <time>2021-02-20T13:37:40Z</time>
      </trkpt>
      <trkpt lat="45.15906" lon="5.92169">
        <ele>2072.4</ele>
        <time>2021-02-20T13:37:41Z</time>
      </trkpt>
      <trkpt lat="45.15906" lon="5.92168">
        <ele>2072.6</ele>
        <time>2021-02-20T13:37:42Z</time>
      </trkpt>
      <trkpt lat="45.15906" lon="5.92167">
        <ele>2072.7</ele>
        <time>2021-02-20T13:37:43Z</time>
      </trkpt>
      <trkpt lat="45.15906" lon="5.92167">
        <ele>2073.3</ele>
        <time>2021-02-20T13:37:44Z</time>
      </trkpt>
      <trkpt lat="45.15906" lon="5.92165">
        <ele>2073.4</ele>
        <time>2021-02-20T13:37:45Z</time>
      </trkpt>
      <trkpt lat="45.15905" lon="5.92164">
        <ele>2073.6</ele>
        <time>2021-02-20T13:37:46Z</time>
      </trkpt>
      <trkpt lat="45.15905" lon="5.92163">
        <ele>2074.4</ele>
        <time>2021-02-20T13:37:47Z</time>
      </trkpt>
      <trkpt lat="45.15904" lon="5.92162">
        <ele>2073.9</ele>
        <time>2021-02-20T13:37:48Z</time>
      </trkpt>
      <trkpt lat="45.15904" lon="5.92162">
        <ele>2074</ele>
        <time>2021-02-20T13:37:49Z</time>
      </trkpt>
      <trkpt lat="45.15902" lon="5.9216">
        <ele>2074.2</ele>
        <time>2021-02-20T13:37:50Z</time>
      </trkpt>
      <trkpt lat="45.15901" lon="5.92158">
        <ele>2074.8</ele>
        <time>2021-02-20T13:37:51Z</time>
      </trkpt>
      <trkpt lat="45.15901" lon="5.92157">
        <ele>2074.3</ele>
        <time>2021-02-20T13:37:52Z</time>
      </trkpt>
      <trkpt lat="45.159" lon="5.92155">
        <ele>2074.4</ele>
        <time>2021-02-20T13:37:53Z</time>
      </trkpt>
      <trkpt lat="45.15899" lon="5.92154">
        <ele>2075</ele>
        <time>2021-02-20T13:37:54Z</time>
      </trkpt>
      <trkpt lat="45.15899" lon="5.92153">
        <ele>2075.1</ele>
        <time>2021-02-20T13:37:55Z</time>
      </trkpt>
      <trkpt lat="45.159" lon="5.92152">
        <ele>2075.3</ele>
        <time>2021-02-20T13:37:56Z</time>
      </trkpt>
      <trkpt lat="45.159" lon="5.92152">
        <ele>2075.4</ele>
        <time>2021-02-20T13:37:57Z</time>
      </trkpt>
      <trkpt lat="45.15901" lon="5.92151">
        <ele>2075.6</ele>
        <time>2021-02-20T13:37:58Z</time>
      </trkpt>
      <trkpt lat="45.15901" lon="5.9215">
        <ele>2076.8</ele>
        <time>2021-02-20T13:37:59Z</time>
      </trkpt>
      <trkpt lat="45.15902" lon="5.92149">
        <ele>2077</ele>
        <time>2021-02-20T13:38:00Z</time>
      </trkpt>
      <trkpt lat="45.15902" lon="5.92148">
        <ele>2077.1</ele>
        <time>2021-02-20T13:38:01Z</time>
      </trkpt>
      <trkpt lat="45.15901" lon="5.92148">
        <ele>2077.3</ele>
        <time>2021-02-20T13:38:02Z</time>
      </trkpt>
      <trkpt lat="45.15901" lon="5.92147">
        <ele>2076.8</ele>
        <time>2021-02-20T13:38:03Z</time>
      </trkpt>
      <trkpt lat="45.15901" lon="5.92146">
        <ele>2077</ele>
        <time>2021-02-20T13:38:04Z</time>
      </trkpt>
      <trkpt lat="45.15902" lon="5.92145">
        <ele>2078.1</ele>
        <time>2021-02-20T13:38:05Z</time>
      </trkpt>
      <trkpt lat="45.15902" lon="5.92145">
        <ele>2078.3</ele>
        <time>2021-02-20T13:38:06Z</time>
      </trkpt>
      <trkpt lat="45.15902" lon="5.92144">
        <ele>2078.4</ele>
        <time>2021-02-20T13:38:07Z</time>
      </trkpt>
      <trkpt lat="45.15903" lon="5.92143">
        <ele>2078.6</ele>
        <time>2021-02-20T13:38:08Z</time>
      </trkpt>
      <trkpt lat="45.15903" lon="5.92142">
        <ele>2079.1</ele>
        <time>2021-02-20T13:38:09Z</time>
      </trkpt>
      <trkpt lat="45.15903" lon="5.92141">
        <ele>2079.3</ele>
        <time>2021-02-20T13:38:10Z</time>
      </trkpt>
      <trkpt lat="45.15904" lon="5.9214">
        <ele>2079.4</ele>
        <time>2021-02-20T13:38:11Z</time>
      </trkpt>
      <trkpt lat="45.15904" lon="5.92139">
        <ele>2079.6</ele>
        <time>2021-02-20T13:38:12Z</time>
      </trkpt>
      <trkpt lat="45.15905" lon="5.92139">
        <ele>2080.4</ele>
        <time>2021-02-20T13:38:13Z</time>
      </trkpt>
      <trkpt lat="45.15905" lon="5.92139">
        <ele>2080.6</ele>
        <time>2021-02-20T13:38:14Z</time>
      </trkpt>
      <trkpt lat="45.15905" lon="5.9214">
        <ele>2080.7</ele>
        <time>2021-02-20T13:38:15Z</time>
      </trkpt>
      <trkpt lat="45.15906" lon="5.9214">
        <ele>2080.9</ele>
        <time>2021-02-20T13:38:16Z</time>
      </trkpt>
      <trkpt lat="45.15906" lon="5.9214">
        <ele>2081</ele>
        <time>2021-02-20T13:38:17Z</time>
      </trkpt>
      <trkpt lat="45.15906" lon="5.92141">
        <ele>2081.2</ele>
        <time>2021-02-20T13:38:18Z</time>
      </trkpt>
      <trkpt lat="45.15907" lon="5.92141">
        <ele>2081.3</ele>
        <time>2021-02-20T13:38:19Z</time>
      </trkpt>
      <trkpt lat="45.15907" lon="5.92141">
        <ele>2081.5</ele>
        <time>2021-02-20T13:38:20Z</time>
      </trkpt>
      <trkpt lat="45.15908" lon="5.92142">
        <ele>2082.4</ele>
        <time>2021-02-20T13:38:21Z</time>
      </trkpt>
      <trkpt lat="45.15908" lon="5.92142">
        <ele>2082.2</ele>
        <time>2021-02-20T13:38:22Z</time>
      </trkpt>
      <trkpt lat="45.15908" lon="5.92142">
        <ele>2082.3</ele>
        <time>2021-02-20T13:38:23Z</time>
      </trkpt>
      <trkpt lat="45.15909" lon="5.92143">
        <ele>2082.5</ele>
        <time>2021-02-20T13:38:30Z</time>
      </trkpt>
      <trkpt lat="45.15909" lon="5.92143">
        <ele>2082.6</ele>
        <time>2021-02-20T13:38:31Z</time>
      </trkpt>
      <trkpt lat="45.15909" lon="5.92143">
        <ele>2082.8</ele>
        <time>2021-02-20T13:38:32Z</time>
      </trkpt>
      <trkpt lat="45.1591" lon="5.92144">
        <ele>2082.9</ele>
        <time>2021-02-20T13:38:33Z</time>
      </trkpt>
      <trkpt lat="45.15911" lon="5.92144">
        <ele>2084.1</ele>
        <time>2021-02-20T13:38:34Z</time>
      </trkpt>
      <trkpt lat="45.15912" lon="5.92144">
        <ele>2084.2</ele>
        <time>2021-02-20T13:38:35Z</time>
      </trkpt>
      <trkpt lat="45.15913" lon="5.92144">
        <ele>2084.2</ele>
        <time>2021-02-20T13:38:36Z</time>
      </trkpt>
      <trkpt lat="45.15913" lon="5.92144">
        <ele>2084.2</ele>
        <time>2021-02-20T13:38:37Z</time>
      </trkpt>
      <trkpt lat="45.15914" lon="5.92144">
        <ele>2085.4</ele>
        <time>2021-02-20T13:38:38Z</time>
      </trkpt>
      <trkpt lat="45.15914" lon="5.92144">
        <ele>2085.4</ele>
        <time>2021-02-20T13:38:39Z</time>
      </trkpt>
      <trkpt lat="45.15914" lon="5.92144">
        <ele>2085.4</ele>
        <time>2021-02-20T13:38:40Z</time>
      </trkpt>
      <trkpt lat="45.15915" lon="5.92144">
        <ele>2085.4</ele>
        <time>2021-02-20T13:38:41Z</time>
      </trkpt>
      <trkpt lat="45.15916" lon="5.92145">
        <ele>2085.4</ele>
        <time>2021-02-20T13:38:42Z</time>
      </trkpt>
      <trkpt lat="45.15916" lon="5.92145">
        <ele>2085.4</ele>
        <time>2021-02-20T13:38:43Z</time>
      </trkpt>
      <trkpt lat="45.15917" lon="5.92145">
        <ele>2086.6</ele>
        <time>2021-02-20T13:38:44Z</time>
      </trkpt>
      <trkpt lat="45.15917" lon="5.92145">
        <ele>2086.6</ele>
        <time>2021-02-20T13:38:45Z</time>
      </trkpt>
      <trkpt lat="45.15917" lon="5.92145">
        <ele>2086.6</ele>
        <time>2021-02-20T13:38:46Z</time>
      </trkpt>
      <trkpt lat="45.15918" lon="5.92145">
        <ele>2086.6</ele>
        <time>2021-02-20T13:38:47Z</time>
      </trkpt>
      <trkpt lat="45.15918" lon="5.92144">
        <ele>2086.6</ele>
        <time>2021-02-20T13:38:48Z</time>
      </trkpt>
      <trkpt lat="45.15918" lon="5.92144">
        <ele>2086.6</ele>
        <time>2021-02-20T13:38:49Z</time>
      </trkpt>
      <trkpt lat="45.15919" lon="5.92144">
        <ele>2086.6</ele>
        <time>2021-02-20T13:38:50Z</time>
      </trkpt>
      <trkpt lat="45.1592" lon="5.92144">
        <ele>2087.9</ele>
        <time>2021-02-20T13:38:51Z</time>
      </trkpt>
      <trkpt lat="45.1592" lon="5.92143">
        <ele>2087.9</ele>
        <time>2021-02-20T13:38:52Z</time>
      </trkpt>
      <trkpt lat="45.15921" lon="5.92143">
        <ele>2087.9</ele>
        <time>2021-02-20T13:38:53Z</time>
      </trkpt>
      <trkpt lat="45.15921" lon="5.92143">
        <ele>2087.9</ele>
        <time>2021-02-20T13:38:54Z</time>
      </trkpt>
      <trkpt lat="45.15922" lon="5.92142">
        <ele>2087.9</ele>
        <time>2021-02-20T13:38:55Z</time>
      </trkpt>
      <trkpt lat="45.15923" lon="5.92142">
        <ele>2089</ele>
        <time>2021-02-20T13:38:56Z</time>
      </trkpt>
      <trkpt lat="45.15923" lon="5.92141">
        <ele>2089.4</ele>
        <time>2021-02-20T13:38:57Z</time>
      </trkpt>
      <trkpt lat="45.15924" lon="5.92141">
        <ele>2089.4</ele>
        <time>2021-02-20T13:38:58Z</time>
      </trkpt>
      <trkpt lat="45.15924" lon="5.92141">
        <ele>2089.4</ele>
        <time>2021-02-20T13:38:59Z</time>
      </trkpt>
      <trkpt lat="45.15925" lon="5.9214">
        <ele>2089.4</ele>
        <time>2021-02-20T13:39:00Z</time>
      </trkpt>
      <trkpt lat="45.15925" lon="5.9214">
        <ele>2089.4</ele>
        <time>2021-02-20T13:39:01Z</time>
      </trkpt>
      <trkpt lat="45.15926" lon="5.9214">
        <ele>2090.6</ele>
        <time>2021-02-20T13:39:02Z</time>
      </trkpt>
      <trkpt lat="45.15926" lon="5.9214">
        <ele>2090.6</ele>
        <time>2021-02-20T13:39:03Z</time>
      </trkpt>
      <trkpt lat="45.15927" lon="5.92139">
        <ele>2090.6</ele>
        <time>2021-02-20T13:39:04Z</time>
      </trkpt>
      <trkpt lat="45.15928" lon="5.92139">
        <ele>2090.6</ele>
        <time>2021-02-20T13:39:05Z</time>
      </trkpt>
      <trkpt lat="45.15928" lon="5.9214">
        <ele>2090.6</ele>
        <time>2021-02-20T13:39:06Z</time>
      </trkpt>
      <trkpt lat="45.15928" lon="5.9214">
        <ele>2090.6</ele>
        <time>2021-02-20T13:39:07Z</time>
      </trkpt>
      <trkpt lat="45.15928" lon="5.9214">
        <ele>2090.6</ele>
        <time>2021-02-20T13:39:08Z</time>
      </trkpt>
      <trkpt lat="45.15928" lon="5.9214">
        <ele>2090.6</ele>
        <time>2021-02-20T13:39:09Z</time>
      </trkpt>
      <trkpt lat="45.15928" lon="5.9214">
        <ele>2090.6</ele>
        <time>2021-02-20T13:39:10Z</time>
      </trkpt>
      <trkpt lat="45.15928" lon="5.9214">
        <ele>2090.6</ele>
        <time>2021-02-20T13:39:11Z</time>
      </trkpt>
      <trkpt lat="45.15928" lon="5.92142">
        <ele>2090.2</ele>
        <time>2021-02-20T13:39:12Z</time>
      </trkpt>
      <trkpt lat="45.15928" lon="5.92142">
        <ele>2090.2</ele>
        <time>2021-02-20T13:39:13Z</time>
      </trkpt>
      <trkpt lat="45.15929" lon="5.92141">
        <ele>2091.8</ele>
        <time>2021-02-20T13:39:14Z</time>
      </trkpt>
      <trkpt lat="45.15929" lon="5.92139">
        <ele>2091.8</ele>
        <time>2021-02-20T13:39:15Z</time>
      </trkpt>
      <trkpt lat="45.15929" lon="5.92137">
        <ele>2091.8</ele>
        <time>2021-02-20T13:39:41Z</time>
      </trkpt>
      <trkpt lat="45.15928" lon="5.92136">
        <ele>2091</ele>
        <time>2021-02-20T13:39:42Z</time>
      </trkpt>
      <trkpt lat="45.15928" lon="5.92134">
        <ele>2091</ele>
        <time>2021-02-20T13:39:43Z</time>
      </trkpt>
      <trkpt lat="45.15928" lon="5.92132">
        <ele>2091.4</ele>
        <time>2021-02-20T13:39:44Z</time>
      </trkpt>
      <trkpt lat="45.15928" lon="5.9213">
        <ele>2091.4</ele>
        <time>2021-02-20T13:39:45Z</time>
      </trkpt>
      <trkpt lat="45.15927" lon="5.92129">
        <ele>2091.4</ele>
        <time>2021-02-20T13:39:46Z</time>
      </trkpt>
      <trkpt lat="45.15927" lon="5.92128">
        <ele>2091.8</ele>
        <time>2021-02-20T13:39:47Z</time>
      </trkpt>
      <trkpt lat="45.15927" lon="5.92127">
        <ele>2091.8</ele>
        <time>2021-02-20T13:39:48Z</time>
      </trkpt>
      <trkpt lat="45.15926" lon="5.92126">
        <ele>2091.8</ele>
        <time>2021-02-20T13:39:49Z</time>
      </trkpt>
      <trkpt lat="45.15925" lon="5.92125">
        <ele>2090.6</ele>
        <time>2021-02-20T13:39:50Z</time>
      </trkpt>
      <trkpt lat="45.15925" lon="5.92124">
        <ele>2091</ele>
        <time>2021-02-20T13:39:51Z</time>
      </trkpt>
      <trkpt lat="45.15924" lon="5.92123">
        <ele>2091</ele>
        <time>2021-02-20T13:39:52Z</time>
      </trkpt>
      <trkpt lat="45.15923" lon="5.92122">
        <ele>2091</ele>
        <time>2021-02-20T13:39:53Z</time>
      </trkpt>
      <trkpt lat="45.15922" lon="5.92121">
        <ele>2089.8</ele>
        <time>2021-02-20T13:39:54Z</time>
      </trkpt>
      <trkpt lat="45.15922" lon="5.9212">
        <ele>2090.2</ele>
        <time>2021-02-20T13:39:55Z</time>
      </trkpt>
      <trkpt lat="45.1592" lon="5.92118">
        <ele>2090.2</ele>
        <time>2021-02-20T13:39:56Z</time>
      </trkpt>
      <trkpt lat="45.1592" lon="5.92117">
        <ele>2090.2</ele>
        <time>2021-02-20T13:39:57Z</time>
      </trkpt>
      <trkpt lat="45.15919" lon="5.92117">
        <ele>2088.9</ele>
        <time>2021-02-20T13:39:58Z</time>
      </trkpt>
      <trkpt lat="45.15919" lon="5.92116">
        <ele>2088.9</ele>
        <time>2021-02-20T13:39:59Z</time>
      </trkpt>
      <trkpt lat="45.15917" lon="5.92115">
        <ele>2089.3</ele>
        <time>2021-02-20T13:40:00Z</time>
      </trkpt>
      <trkpt lat="45.15916" lon="5.92114">
        <ele>2088</ele>
        <time>2021-02-20T13:40:01Z</time>
      </trkpt>
      <trkpt lat="45.15915" lon="5.92113">
        <ele>2088</ele>
        <time>2021-02-20T13:40:02Z</time>
      </trkpt>
      <trkpt lat="45.15914" lon="5.92112">
        <ele>2088</ele>
        <time>2021-02-20T13:40:03Z</time>
      </trkpt>
      <trkpt lat="45.15914" lon="5.92112">
        <ele>2088</ele>
        <time>2021-02-20T13:40:04Z</time>
      </trkpt>
      <trkpt lat="45.15912" lon="5.9211">
        <ele>2087.3</ele>
        <time>2021-02-20T13:40:05Z</time>
      </trkpt>
      <trkpt lat="45.15912" lon="5.9211">
        <ele>2087.3</ele>
        <time>2021-02-20T13:40:06Z</time>
      </trkpt>
      <trkpt lat="45.15911" lon="5.92109">
        <ele>2087.3</ele>
        <time>2021-02-20T13:40:07Z</time>
      </trkpt>
      <trkpt lat="45.15911" lon="5.92109">
        <ele>2087.3</ele>
        <time>2021-02-20T13:40:08Z</time>
      </trkpt>
      <trkpt lat="45.1591" lon="5.92108">
        <ele>2086.3</ele>
        <time>2021-02-20T13:40:09Z</time>
      </trkpt>
      <trkpt lat="45.15909" lon="5.92106">
        <ele>2086.6</ele>
        <time>2021-02-20T13:40:10Z</time>
      </trkpt>
      <trkpt lat="45.15908" lon="5.92106">
        <ele>2086.6</ele>
        <time>2021-02-20T13:40:11Z</time>
      </trkpt>
      <trkpt lat="45.15907" lon="5.92105">
        <ele>2085.8</ele>
        <time>2021-02-20T13:40:12Z</time>
      </trkpt>
      <trkpt lat="45.15906" lon="5.92104">
        <ele>2085.8</ele>
        <time>2021-02-20T13:40:13Z</time>
      </trkpt>
      <trkpt lat="45.15906" lon="5.92103">
        <ele>2085.8</ele>
        <time>2021-02-20T13:40:14Z</time>
      </trkpt>
      <trkpt lat="45.15906" lon="5.92102">
        <ele>2086.2</ele>
        <time>2021-02-20T13:40:15Z</time>
      </trkpt>
      <trkpt lat="45.15905" lon="5.92101">
        <ele>2086.2</ele>
        <time>2021-02-20T13:40:16Z</time>
      </trkpt>
      <trkpt lat="45.15905" lon="5.921">
        <ele>2086.2</ele>
        <time>2021-02-20T13:40:17Z</time>
      </trkpt>
      <trkpt lat="45.15904" lon="5.92099">
        <ele>2086.2</ele>
        <time>2021-02-20T13:40:18Z</time>
      </trkpt>
      <trkpt lat="45.15904" lon="5.92098">
        <ele>2086.4</ele>
        <time>2021-02-20T13:40:19Z</time>
      </trkpt>
      <trkpt lat="45.15905" lon="5.92096">
        <ele>2086.4</ele>
        <time>2021-02-20T13:40:20Z</time>
      </trkpt>
      <trkpt lat="45.15905" lon="5.92096">
        <ele>2086.4</ele>
        <time>2021-02-20T13:40:21Z</time>
      </trkpt>
      <trkpt lat="45.15906" lon="5.92095">
        <ele>2086.4</ele>
        <time>2021-02-20T13:40:22Z</time>
      </trkpt>
      <trkpt lat="45.15908" lon="5.92093">
        <ele>2087.4</ele>
        <time>2021-02-20T13:40:23Z</time>
      </trkpt>
      <trkpt lat="45.15909" lon="5.92092">
        <ele>2087.4</ele>
        <time>2021-02-20T13:40:24Z</time>
      </trkpt>
      <trkpt lat="45.15909" lon="5.92091">
        <ele>2087.4</ele>
        <time>2021-02-20T13:40:25Z</time>
      </trkpt>
      <trkpt lat="45.1591" lon="5.9209">
        <ele>2087.4</ele>
        <time>2021-02-20T13:40:26Z</time>
      </trkpt>
      <trkpt lat="45.15911" lon="5.92089">
        <ele>2088.6</ele>
        <time>2021-02-20T13:40:27Z</time>
      </trkpt>
      <trkpt lat="45.15911" lon="5.92088">
        <ele>2088.6</ele>
        <time>2021-02-20T13:40:28Z</time>
      </trkpt>
      <trkpt lat="45.15912" lon="5.92086">
        <ele>2088.6</ele>
        <time>2021-02-20T13:40:29Z</time>
      </trkpt>
      <trkpt lat="45.15912" lon="5.92085">
        <ele>2088.7</ele>
        <time>2021-02-20T13:40:30Z</time>
      </trkpt>
      <trkpt lat="45.15913" lon="5.92084">
        <ele>2088.7</ele>
        <time>2021-02-20T13:40:31Z</time>
      </trkpt>
      <trkpt lat="45.15914" lon="5.92083">
        <ele>2090</ele>
        <time>2021-02-20T13:40:32Z</time>
      </trkpt>
      <trkpt lat="45.15914" lon="5.92082">
        <ele>2090</ele>
        <time>2021-02-20T13:40:33Z</time>
      </trkpt>
      <trkpt lat="45.15915" lon="5.92081">
        <ele>2090</ele>
        <time>2021-02-20T13:40:34Z</time>
      </trkpt>
      <trkpt lat="45.15915" lon="5.9208">
        <ele>2090</ele>
        <time>2021-02-20T13:40:35Z</time>
      </trkpt>
      <trkpt lat="45.15916" lon="5.92079">
        <ele>2090</ele>
        <time>2021-02-20T13:40:36Z</time>
      </trkpt>
      <trkpt lat="45.15917" lon="5.92078">
        <ele>2091.4</ele>
        <time>2021-02-20T13:40:37Z</time>
      </trkpt>
      <trkpt lat="45.15917" lon="5.92076">
        <ele>2091.4</ele>
        <time>2021-02-20T13:40:38Z</time>
      </trkpt>
      <trkpt lat="45.15918" lon="5.92075">
        <ele>2091.4</ele>
        <time>2021-02-20T13:40:39Z</time>
      </trkpt>
      <trkpt lat="45.15918" lon="5.92074">
        <ele>2091.4</ele>
        <time>2021-02-20T13:40:40Z</time>
      </trkpt>
      <trkpt lat="45.15919" lon="5.92074">
        <ele>2091.4</ele>
        <time>2021-02-20T13:40:41Z</time>
      </trkpt>
      <trkpt lat="45.15919" lon="5.92073">
        <ele>2091.4</ele>
        <time>2021-02-20T13:40:42Z</time>
      </trkpt>
      <trkpt lat="45.1592" lon="5.92071">
        <ele>2092.7</ele>
        <time>2021-02-20T13:40:43Z</time>
      </trkpt>
      <trkpt lat="45.1592" lon="5.92071">
        <ele>2092.7</ele>
        <time>2021-02-20T13:40:44Z</time>
      </trkpt>
      <trkpt lat="45.15921" lon="5.92069">
        <ele>2092.7</ele>
        <time>2021-02-20T13:40:45Z</time>
      </trkpt>
      <trkpt lat="45.15922" lon="5.92068">
        <ele>2092.6</ele>
        <time>2021-02-20T13:40:46Z</time>
      </trkpt>
      <trkpt lat="45.15922" lon="5.92067">
        <ele>2092.6</ele>
        <time>2021-02-20T13:40:47Z</time>
      </trkpt>
      <trkpt lat="45.15922" lon="5.92066">
        <ele>2092.6</ele>
        <time>2021-02-20T13:40:48Z</time>
      </trkpt>
      <trkpt lat="45.15923" lon="5.92065">
        <ele>2093.9</ele>
        <time>2021-02-20T13:40:49Z</time>
      </trkpt>
      <trkpt lat="45.15923" lon="5.92064">
        <ele>2093.7</ele>
        <time>2021-02-20T13:40:50Z</time>
      </trkpt>
      <trkpt lat="45.15923" lon="5.92063">
        <ele>2093.7</ele>
        <time>2021-02-20T13:40:51Z</time>
      </trkpt>
      <trkpt lat="45.15924" lon="5.92062">
        <ele>2093.7</ele>
        <time>2021-02-20T13:40:52Z</time>
      </trkpt>
      <trkpt lat="45.15924" lon="5.9206">
        <ele>2093.7</ele>
        <time>2021-02-20T13:40:53Z</time>
      </trkpt>
      <trkpt lat="45.15925" lon="5.9206">
        <ele>2093.5</ele>
        <time>2021-02-20T13:40:54Z</time>
      </trkpt>
      <trkpt lat="45.15925" lon="5.92058">
        <ele>2093.5</ele>
        <time>2021-02-20T13:40:55Z</time>
      </trkpt>
      <trkpt lat="45.15926" lon="5.92057">
        <ele>2094.7</ele>
        <time>2021-02-20T13:40:56Z</time>
      </trkpt>
      <trkpt lat="45.15926" lon="5.92056">
        <ele>2094.7</ele>
        <time>2021-02-20T13:40:57Z</time>
      </trkpt>
      <trkpt lat="45.15927" lon="5.92055">
        <ele>2094.4</ele>
        <time>2021-02-20T13:40:58Z</time>
      </trkpt>
      <trkpt lat="45.15927" lon="5.92055">
        <ele>2094.4</ele>
        <time>2021-02-20T13:40:59Z</time>
      </trkpt>
      <trkpt lat="45.15928" lon="5.92053">
        <ele>2094.4</ele>
        <time>2021-02-20T13:41:00Z</time>
      </trkpt>
      <trkpt lat="45.15928" lon="5.92052">
        <ele>2094.4</ele>
        <time>2021-02-20T13:41:01Z</time>
      </trkpt>
      <trkpt lat="45.15929" lon="5.92051">
        <ele>2095.2</ele>
        <time>2021-02-20T13:41:02Z</time>
      </trkpt>
      <trkpt lat="45.15929" lon="5.9205">
        <ele>2095.2</ele>
        <time>2021-02-20T13:41:03Z</time>
      </trkpt>
      <trkpt lat="45.15929" lon="5.92048">
        <ele>2095.2</ele>
        <time>2021-02-20T13:41:04Z</time>
      </trkpt>
      <trkpt lat="45.15929" lon="5.92047">
        <ele>2094.8</ele>
        <time>2021-02-20T13:41:05Z</time>
      </trkpt>
      <trkpt lat="45.15929" lon="5.92045">
        <ele>2094.8</ele>
        <time>2021-02-20T13:41:06Z</time>
      </trkpt>
      <trkpt lat="45.15928" lon="5.92044">
        <ele>2093.6</ele>
        <time>2021-02-20T13:41:07Z</time>
      </trkpt>
      <trkpt lat="45.15929" lon="5.92043">
        <ele>2094.3</ele>
        <time>2021-02-20T13:41:08Z</time>
      </trkpt>
      <trkpt lat="45.15929" lon="5.92041">
        <ele>2094.3</ele>
        <time>2021-02-20T13:41:09Z</time>
      </trkpt>
      <trkpt lat="45.1593" lon="5.9204">
        <ele>2094.3</ele>
        <time>2021-02-20T13:41:10Z</time>
      </trkpt>
      <trkpt lat="45.15931" lon="5.9204">
        <ele>2094.3</ele>
        <time>2021-02-20T13:41:11Z</time>
      </trkpt>
      <trkpt lat="45.15931" lon="5.92039">
        <ele>2094.3</ele>
        <time>2021-02-20T13:41:12Z</time>
      </trkpt>
      <trkpt lat="45.15932" lon="5.92038">
        <ele>2095</ele>
        <time>2021-02-20T13:41:13Z</time>
      </trkpt>
      <trkpt lat="45.15932" lon="5.92037">
        <ele>2095</ele>
        <time>2021-02-20T13:41:14Z</time>
      </trkpt>
      <trkpt lat="45.15933" lon="5.92036">
        <ele>2095</ele>
        <time>2021-02-20T13:41:15Z</time>
      </trkpt>
      <trkpt lat="45.15933" lon="5.92035">
        <ele>2095</ele>
        <time>2021-02-20T13:41:16Z</time>
      </trkpt>
      <trkpt lat="45.15934" lon="5.92034">
        <ele>2094.5</ele>
        <time>2021-02-20T13:41:17Z</time>
      </trkpt>
      <trkpt lat="45.15934" lon="5.92033">
        <ele>2094.5</ele>
        <time>2021-02-20T13:41:18Z</time>
      </trkpt>
      <trkpt lat="45.15934" lon="5.92032">
        <ele>2094.5</ele>
        <time>2021-02-20T13:41:19Z</time>
      </trkpt>
      <trkpt lat="45.15934" lon="5.9203">
        <ele>2094.5</ele>
        <time>2021-02-20T13:41:20Z</time>
      </trkpt>
      <trkpt lat="45.15934" lon="5.92029">
        <ele>2094</ele>
        <time>2021-02-20T13:41:21Z</time>
      </trkpt>
      <trkpt lat="45.15934" lon="5.92027">
        <ele>2094</ele>
        <time>2021-02-20T13:41:22Z</time>
      </trkpt>
      <trkpt lat="45.15934" lon="5.92026">
        <ele>2094</ele>
        <time>2021-02-20T13:41:23Z</time>
      </trkpt>
      <trkpt lat="45.15935" lon="5.92025">
        <ele>2093.4</ele>
        <time>2021-02-20T13:41:24Z</time>
      </trkpt>
      <trkpt lat="45.15935" lon="5.92024">
        <ele>2094.7</ele>
        <time>2021-02-20T13:41:25Z</time>
      </trkpt>
      <trkpt lat="45.15936" lon="5.92024">
        <ele>2094.7</ele>
        <time>2021-02-20T13:41:26Z</time>
      </trkpt>
      <trkpt lat="45.15936" lon="5.92023">
        <ele>2094.7</ele>
        <time>2021-02-20T13:41:27Z</time>
      </trkpt>
      <trkpt lat="45.15937" lon="5.92022">
        <ele>2094.7</ele>
        <time>2021-02-20T13:41:28Z</time>
      </trkpt>
      <trkpt lat="45.15937" lon="5.92021">
        <ele>2094.1</ele>
        <time>2021-02-20T13:41:29Z</time>
      </trkpt>
      <trkpt lat="45.15938" lon="5.9202">
        <ele>2095.5</ele>
        <time>2021-02-20T13:41:30Z</time>
      </trkpt>
      <trkpt lat="45.15938" lon="5.92018">
        <ele>2095.6</ele>
        <time>2021-02-20T13:41:31Z</time>
      </trkpt>
      <trkpt lat="45.15938" lon="5.92017">
        <ele>2095.8</ele>
        <time>2021-02-20T13:41:32Z</time>
      </trkpt>
      <trkpt lat="45.15939" lon="5.92017">
        <ele>2095.9</ele>
        <time>2021-02-20T13:41:33Z</time>
      </trkpt>
      <trkpt lat="45.15939" lon="5.92016">
        <ele>2096</ele>
        <time>2021-02-20T13:41:34Z</time>
      </trkpt>
      <trkpt lat="45.1594" lon="5.92015">
        <ele>2096.1</ele>
        <time>2021-02-20T13:41:35Z</time>
      </trkpt>
      <trkpt lat="45.15941" lon="5.92015">
        <ele>2096.3</ele>
        <time>2021-02-20T13:41:36Z</time>
      </trkpt>
      <trkpt lat="45.15942" lon="5.92014">
        <ele>2096.5</ele>
        <time>2021-02-20T13:41:37Z</time>
      </trkpt>
      <trkpt lat="45.15942" lon="5.92013">
        <ele>2096.6</ele>
        <time>2021-02-20T13:41:38Z</time>
      </trkpt>
      <trkpt lat="45.15943" lon="5.92012">
        <ele>2096.7</ele>
        <time>2021-02-20T13:41:39Z</time>
      </trkpt>
      <trkpt lat="45.15943" lon="5.92011">
        <ele>2096.9</ele>
        <time>2021-02-20T13:41:40Z</time>
      </trkpt>
      <trkpt lat="45.15943" lon="5.9201">
        <ele>2097</ele>
        <time>2021-02-20T13:41:41Z</time>
      </trkpt>
      <trkpt lat="45.15944" lon="5.92008">
        <ele>2097.3</ele>
        <time>2021-02-20T13:41:42Z</time>
      </trkpt>
      <trkpt lat="45.15945" lon="5.92008">
        <ele>2097.4</ele>
        <time>2021-02-20T13:41:43Z</time>
      </trkpt>
      <trkpt lat="45.15945" lon="5.92007">
        <ele>2097.5</ele>
        <time>2021-02-20T13:41:44Z</time>
      </trkpt>
      <trkpt lat="45.15946" lon="5.92006">
        <ele>2097.6</ele>
        <time>2021-02-20T13:41:45Z</time>
      </trkpt>
      <trkpt lat="45.15946" lon="5.92005">
        <ele>2097.8</ele>
        <time>2021-02-20T13:41:46Z</time>
      </trkpt>
      <trkpt lat="45.15947" lon="5.92004">
        <ele>2097.9</ele>
        <time>2021-02-20T13:41:47Z</time>
      </trkpt>
      <trkpt lat="45.15947" lon="5.92003">
        <ele>2098.1</ele>
        <time>2021-02-20T13:41:48Z</time>
      </trkpt>
      <trkpt lat="45.15948" lon="5.92002">
        <ele>2098.2</ele>
        <time>2021-02-20T13:41:49Z</time>
      </trkpt>
      <trkpt lat="45.15949" lon="5.92001">
        <ele>2098.4</ele>
        <time>2021-02-20T13:41:50Z</time>
      </trkpt>
      <trkpt lat="45.15949" lon="5.92">
        <ele>2098.6</ele>
        <time>2021-02-20T13:41:51Z</time>
      </trkpt>
      <trkpt lat="45.1595" lon="5.91999">
        <ele>2098.7</ele>
        <time>2021-02-20T13:41:52Z</time>
      </trkpt>
      <trkpt lat="45.1595" lon="5.91998">
        <ele>2098.8</ele>
        <time>2021-02-20T13:41:53Z</time>
      </trkpt>
      <trkpt lat="45.15951" lon="5.91997">
        <ele>2099</ele>
        <time>2021-02-20T13:41:54Z</time>
      </trkpt>
      <trkpt lat="45.15951" lon="5.91996">
        <ele>2099.2</ele>
        <time>2021-02-20T13:41:55Z</time>
      </trkpt>
      <trkpt lat="45.15952" lon="5.91994">
        <ele>2099.4</ele>
        <time>2021-02-20T13:41:56Z</time>
      </trkpt>
      <trkpt lat="45.15952" lon="5.91993">
        <ele>2099.5</ele>
        <time>2021-02-20T13:41:57Z</time>
      </trkpt>
      <trkpt lat="45.15952" lon="5.91992">
        <ele>2099.6</ele>
        <time>2021-02-20T13:41:58Z</time>
      </trkpt>
      <trkpt lat="45.15953" lon="5.91991">
        <ele>2099.8</ele>
        <time>2021-02-20T13:41:59Z</time>
      </trkpt>
      <trkpt lat="45.15954" lon="5.91989">
        <ele>2100</ele>
        <time>2021-02-20T13:42:00Z</time>
      </trkpt>
      <trkpt lat="45.15954" lon="5.91989">
        <ele>2100.1</ele>
        <time>2021-02-20T13:42:01Z</time>
      </trkpt>
      <trkpt lat="45.15954" lon="5.91989">
        <ele>2100.2</ele>
        <time>2021-02-20T13:42:02Z</time>
      </trkpt>
      <trkpt lat="45.15954" lon="5.91988">
        <ele>2100.2</ele>
        <time>2021-02-20T13:42:03Z</time>
      </trkpt>
      <trkpt lat="45.15955" lon="5.91988">
        <ele>2100.3</ele>
        <time>2021-02-20T13:42:04Z</time>
      </trkpt>
      <trkpt lat="45.15955" lon="5.91988">
        <ele>2100.3</ele>
        <time>2021-02-20T13:42:05Z</time>
      </trkpt>
      <trkpt lat="45.15955" lon="5.91987">
        <ele>2100.4</ele>
        <time>2021-02-20T13:42:06Z</time>
      </trkpt>
      <trkpt lat="45.15955" lon="5.91987">
        <ele>2100.4</ele>
        <time>2021-02-20T13:42:07Z</time>
      </trkpt>
      <trkpt lat="45.15955" lon="5.91987">
        <ele>2100.5</ele>
        <time>2021-02-20T13:42:08Z</time>
      </trkpt>
      <trkpt lat="45.15955" lon="5.91986">
        <ele>2100.5</ele>
        <time>2021-02-20T13:42:09Z</time>
      </trkpt>
      <trkpt lat="45.15956" lon="5.91986">
        <ele>2100.6</ele>
        <time>2021-02-20T13:42:10Z</time>
      </trkpt>
      <trkpt lat="45.15956" lon="5.91986">
        <ele>2100.6</ele>
        <time>2021-02-20T13:42:11Z</time>
      </trkpt>
      <trkpt lat="45.15956" lon="5.91985">
        <ele>2100.7</ele>
        <time>2021-02-20T13:42:12Z</time>
      </trkpt>
      <trkpt lat="45.15956" lon="5.91985">
        <ele>2100.7</ele>
        <time>2021-02-20T13:42:21Z</time>
      </trkpt>
      <trkpt lat="45.15956" lon="5.91984">
        <ele>2100.8</ele>
        <time>2021-02-20T13:42:22Z</time>
      </trkpt>
      <trkpt lat="45.15957" lon="5.91984">
        <ele>2100.8</ele>
        <time>2021-02-20T13:42:23Z</time>
      </trkpt>
      <trkpt lat="45.15957" lon="5.91984">
        <ele>2100.9</ele>
        <time>2021-02-20T13:42:24Z</time>
      </trkpt>
      <trkpt lat="45.15957" lon="5.91983">
        <ele>2101.1</ele>
        <time>2021-02-20T13:42:25Z</time>
      </trkpt>
      <trkpt lat="45.15958" lon="5.91982">
        <ele>2101.2</ele>
        <time>2021-02-20T13:42:26Z</time>
      </trkpt>
      <trkpt lat="45.15958" lon="5.91981">
        <ele>2101.3</ele>
        <time>2021-02-20T13:42:27Z</time>
      </trkpt>
      <trkpt lat="45.15959" lon="5.9198">
        <ele>2101.4</ele>
        <time>2021-02-20T13:42:28Z</time>
      </trkpt>
      <trkpt lat="45.15959" lon="5.9198">
        <ele>2101.5</ele>
        <time>2021-02-20T13:42:29Z</time>
      </trkpt>
      <trkpt lat="45.1596" lon="5.91979">
        <ele>2101.7</ele>
        <time>2021-02-20T13:42:30Z</time>
      </trkpt>
      <trkpt lat="45.1596" lon="5.91978">
        <ele>2101.8</ele>
        <time>2021-02-20T13:42:31Z</time>
      </trkpt>
      <trkpt lat="45.15961" lon="5.91977">
        <ele>2101.9</ele>
        <time>2021-02-20T13:42:32Z</time>
      </trkpt>
      <trkpt lat="45.15962" lon="5.91976">
        <ele>2102.1</ele>
        <time>2021-02-20T13:42:33Z</time>
      </trkpt>
      <trkpt lat="45.15962" lon="5.91975">
        <ele>2102.2</ele>
        <time>2021-02-20T13:42:34Z</time>
      </trkpt>
      <trkpt lat="45.15963" lon="5.91974">
        <ele>2102.4</ele>
        <time>2021-02-20T13:42:35Z</time>
      </trkpt>
      <trkpt lat="45.15963" lon="5.91973">
        <ele>2102.6</ele>
        <time>2021-02-20T13:42:36Z</time>
      </trkpt>
      <trkpt lat="45.15964" lon="5.91972">
        <ele>2102.7</ele>
        <time>2021-02-20T13:42:37Z</time>
      </trkpt>
      <trkpt lat="45.15964" lon="5.91971">
        <ele>2102.9</ele>
        <time>2021-02-20T13:42:38Z</time>
      </trkpt>
      <trkpt lat="45.15965" lon="5.9197">
        <ele>2103.1</ele>
        <time>2021-02-20T13:42:39Z</time>
      </trkpt>
      <trkpt lat="45.15965" lon="5.91969">
        <ele>2103.2</ele>
        <time>2021-02-20T13:42:40Z</time>
      </trkpt>
      <trkpt lat="45.15966" lon="5.91968">
        <ele>2103.3</ele>
        <time>2021-02-20T13:42:41Z</time>
      </trkpt>
      <trkpt lat="45.15967" lon="5.91967">
        <ele>2103.5</ele>
        <time>2021-02-20T13:42:42Z</time>
      </trkpt>
      <trkpt lat="45.15967" lon="5.91966">
        <ele>2103.7</ele>
        <time>2021-02-20T13:42:43Z</time>
      </trkpt>
      <trkpt lat="45.15968" lon="5.91965">
        <ele>2103.8</ele>
        <time>2021-02-20T13:42:44Z</time>
      </trkpt>
      <trkpt lat="45.15969" lon="5.91964">
        <ele>2104</ele>
        <time>2021-02-20T13:42:45Z</time>
      </trkpt>
      <trkpt lat="45.15969" lon="5.91963">
        <ele>2104.1</ele>
        <time>2021-02-20T13:42:46Z</time>
      </trkpt>
      <trkpt lat="45.1597" lon="5.91962">
        <ele>2104.3</ele>
        <time>2021-02-20T13:42:47Z</time>
      </trkpt>
      <trkpt lat="45.15971" lon="5.91961">
        <ele>2104.4</ele>
        <time>2021-02-20T13:42:48Z</time>
      </trkpt>
      <trkpt lat="45.15971" lon="5.9196">
        <ele>2104.6</ele>
        <time>2021-02-20T13:42:49Z</time>
      </trkpt>
      <trkpt lat="45.15972" lon="5.9196">
        <ele>2104.7</ele>
        <time>2021-02-20T13:42:50Z</time>
      </trkpt>
      <trkpt lat="45.15972" lon="5.91959">
        <ele>2104.9</ele>
        <time>2021-02-20T13:42:51Z</time>
      </trkpt>
      <trkpt lat="45.15973" lon="5.91958">
        <ele>2105</ele>
        <time>2021-02-20T13:42:52Z</time>
      </trkpt>
      <trkpt lat="45.15973" lon="5.91957">
        <ele>2105.2</ele>
        <time>2021-02-20T13:42:53Z</time>
      </trkpt>
      <trkpt lat="45.15974" lon="5.91956">
        <ele>2105.3</ele>
        <time>2021-02-20T13:42:54Z</time>
      </trkpt>
      <trkpt lat="45.15974" lon="5.91955">
        <ele>2105.4</ele>
        <time>2021-02-20T13:42:55Z</time>
      </trkpt>
      <trkpt lat="45.15975" lon="5.91954">
        <ele>2105.6</ele>
        <time>2021-02-20T13:42:56Z</time>
      </trkpt>
      <trkpt lat="45.15975" lon="5.91953">
        <ele>2105.8</ele>
        <time>2021-02-20T13:42:57Z</time>
      </trkpt>
      <trkpt lat="45.15976" lon="5.91952">
        <ele>2105.9</ele>
        <time>2021-02-20T13:42:58Z</time>
      </trkpt>
      <trkpt lat="45.15977" lon="5.91951">
        <ele>2106.1</ele>
        <time>2021-02-20T13:42:59Z</time>
      </trkpt>
      <trkpt lat="45.15977" lon="5.9195">
        <ele>2106.2</ele>
        <time>2021-02-20T13:43:00Z</time>
      </trkpt>
      <trkpt lat="45.15978" lon="5.91949">
        <ele>2106.4</ele>
        <time>2021-02-20T13:43:01Z</time>
      </trkpt>
      <trkpt lat="45.15979" lon="5.91948">
        <ele>2106.5</ele>
        <time>2021-02-20T13:43:02Z</time>
      </trkpt>
      <trkpt lat="45.15979" lon="5.91947">
        <ele>2106.7</ele>
        <time>2021-02-20T13:43:03Z</time>
      </trkpt>
      <trkpt lat="45.1598" lon="5.91947">
        <ele>2106.8</ele>
        <time>2021-02-20T13:43:04Z</time>
      </trkpt>
      <trkpt lat="45.15981" lon="5.91946">
        <ele>2107</ele>
        <time>2021-02-20T13:43:05Z</time>
      </trkpt>
      <trkpt lat="45.15981" lon="5.91946">
        <ele>2107.1</ele>
        <time>2021-02-20T13:43:06Z</time>
      </trkpt>
      <trkpt lat="45.15982" lon="5.91945">
        <ele>2107.2</ele>
        <time>2021-02-20T13:43:07Z</time>
      </trkpt>
      <trkpt lat="45.15983" lon="5.91944">
        <ele>2107.4</ele>
        <time>2021-02-20T13:43:08Z</time>
      </trkpt>
      <trkpt lat="45.15984" lon="5.91943">
        <ele>2107.6</ele>
        <time>2021-02-20T13:43:09Z</time>
      </trkpt>
      <trkpt lat="45.15984" lon="5.91942">
        <ele>2107.7</ele>
        <time>2021-02-20T13:43:10Z</time>
      </trkpt>
      <trkpt lat="45.15985" lon="5.91942">
        <ele>2107.9</ele>
        <time>2021-02-20T13:43:11Z</time>
      </trkpt>
      <trkpt lat="45.15986" lon="5.91941">
        <ele>2108</ele>
        <time>2021-02-20T13:43:12Z</time>
      </trkpt>
      <trkpt lat="45.15986" lon="5.9194">
        <ele>2108.2</ele>
        <time>2021-02-20T13:43:13Z</time>
      </trkpt>
      <trkpt lat="45.15987" lon="5.91939">
        <ele>2108.3</ele>
        <time>2021-02-20T13:43:14Z</time>
      </trkpt>
      <trkpt lat="45.15987" lon="5.91938">
        <ele>2108.4</ele>
        <time>2021-02-20T13:43:15Z</time>
      </trkpt>
      <trkpt lat="45.15988" lon="5.91938">
        <ele>2108.6</ele>
        <time>2021-02-20T13:43:16Z</time>
      </trkpt>
      <trkpt lat="45.15989" lon="5.91937">
        <ele>2108.7</ele>
        <time>2021-02-20T13:43:17Z</time>
      </trkpt>
      <trkpt lat="45.15989" lon="5.91936">
        <ele>2108.8</ele>
        <time>2021-02-20T13:43:18Z</time>
      </trkpt>
      <trkpt lat="45.1599" lon="5.91936">
        <ele>2108.9</ele>
        <time>2021-02-20T13:43:19Z</time>
      </trkpt>
      <trkpt lat="45.1599" lon="5.91935">
        <ele>2109.1</ele>
        <time>2021-02-20T13:43:20Z</time>
      </trkpt>
      <trkpt lat="45.15991" lon="5.91934">
        <ele>2109.2</ele>
        <time>2021-02-20T13:43:21Z</time>
      </trkpt>
      <trkpt lat="45.15991" lon="5.91933">
        <ele>2109.3</ele>
        <time>2021-02-20T13:43:22Z</time>
      </trkpt>
      <trkpt lat="45.15991" lon="5.91932">
        <ele>2109.5</ele>
        <time>2021-02-20T13:43:23Z</time>
      </trkpt>
      <trkpt lat="45.15992" lon="5.91931">
        <ele>2109.6</ele>
        <time>2021-02-20T13:43:24Z</time>
      </trkpt>
      <trkpt lat="45.15992" lon="5.9193">
        <ele>2109.7</ele>
        <time>2021-02-20T13:43:25Z</time>
      </trkpt>
      <trkpt lat="45.15993" lon="5.9193">
        <ele>2109.8</ele>
        <time>2021-02-20T13:43:26Z</time>
      </trkpt>
      <trkpt lat="45.15993" lon="5.91929">
        <ele>2110</ele>
        <time>2021-02-20T13:43:27Z</time>
      </trkpt>
      <trkpt lat="45.15994" lon="5.91928">
        <ele>2110.1</ele>
        <time>2021-02-20T13:43:28Z</time>
      </trkpt>
      <trkpt lat="45.15994" lon="5.91927">
        <ele>2110.2</ele>
        <time>2021-02-20T13:43:29Z</time>
      </trkpt>
      <trkpt lat="45.15995" lon="5.91926">
        <ele>2110.4</ele>
        <time>2021-02-20T13:43:30Z</time>
      </trkpt>
      <trkpt lat="45.15996" lon="5.91925">
        <ele>2110.5</ele>
        <time>2021-02-20T13:43:31Z</time>
      </trkpt>
      <trkpt lat="45.15996" lon="5.91924">
        <ele>2110.7</ele>
        <time>2021-02-20T13:43:32Z</time>
      </trkpt>
      <trkpt lat="45.15997" lon="5.91924">
        <ele>2110.8</ele>
        <time>2021-02-20T13:43:33Z</time>
      </trkpt>
      <trkpt lat="45.15997" lon="5.91923">
        <ele>2110.9</ele>
        <time>2021-02-20T13:43:34Z</time>
      </trkpt>
      <trkpt lat="45.15998" lon="5.91922">
        <ele>2111.1</ele>
        <time>2021-02-20T13:43:35Z</time>
      </trkpt>
      <trkpt lat="45.15998" lon="5.91921">
        <ele>2111.2</ele>
        <time>2021-02-20T13:43:36Z</time>
      </trkpt>
      <trkpt lat="45.15998" lon="5.9192">
        <ele>2111.3</ele>
        <time>2021-02-20T13:43:37Z</time>
      </trkpt>
      <trkpt lat="45.15999" lon="5.91919">
        <ele>2111.5</ele>
        <time>2021-02-20T13:43:38Z</time>
      </trkpt>
      <trkpt lat="45.16" lon="5.91918">
        <ele>2111.6</ele>
        <time>2021-02-20T13:43:39Z</time>
      </trkpt>
      <trkpt lat="45.16" lon="5.91917">
        <ele>2111.8</ele>
        <time>2021-02-20T13:43:40Z</time>
      </trkpt>
      <trkpt lat="45.16001" lon="5.91917">
        <ele>2111.9</ele>
        <time>2021-02-20T13:43:41Z</time>
      </trkpt>
      <trkpt lat="45.16002" lon="5.91916">
        <ele>2112</ele>
        <time>2021-02-20T13:43:42Z</time>
      </trkpt>
      <trkpt lat="45.16002" lon="5.91916">
        <ele>2112.1</ele>
        <time>2021-02-20T13:43:43Z</time>
      </trkpt>
      <trkpt lat="45.16003" lon="5.91915">
        <ele>2112.3</ele>
        <time>2021-02-20T13:43:44Z</time>
      </trkpt>
      <trkpt lat="45.16003" lon="5.91914">
        <ele>2112.4</ele>
        <time>2021-02-20T13:43:45Z</time>
      </trkpt>
      <trkpt lat="45.16004" lon="5.91914">
        <ele>2112.6</ele>
        <time>2021-02-20T13:43:46Z</time>
      </trkpt>
      <trkpt lat="45.16005" lon="5.91913">
        <ele>2112.7</ele>
        <time>2021-02-20T13:43:47Z</time>
      </trkpt>
      <trkpt lat="45.16005" lon="5.91912">
        <ele>2112.8</ele>
        <time>2021-02-20T13:43:48Z</time>
      </trkpt>
      <trkpt lat="45.16006" lon="5.91912">
        <ele>2112.9</ele>
        <time>2021-02-20T13:43:49Z</time>
      </trkpt>
      <trkpt lat="45.16006" lon="5.91911">
        <ele>2113</ele>
        <time>2021-02-20T13:43:50Z</time>
      </trkpt>
      <trkpt lat="45.16007" lon="5.91911">
        <ele>2113.1</ele>
        <time>2021-02-20T13:43:51Z</time>
      </trkpt>
      <trkpt lat="45.16007" lon="5.9191">
        <ele>2113.2</ele>
        <time>2021-02-20T13:43:52Z</time>
      </trkpt>
      <trkpt lat="45.16008" lon="5.91909">
        <ele>2113.4</ele>
        <time>2021-02-20T13:43:53Z</time>
      </trkpt>
      <trkpt lat="45.16009" lon="5.91908">
        <ele>2113.5</ele>
        <time>2021-02-20T13:43:54Z</time>
      </trkpt>
      <trkpt lat="45.16009" lon="5.91908">
        <ele>2113.6</ele>
        <time>2021-02-20T13:43:55Z</time>
      </trkpt>
      <trkpt lat="45.16009" lon="5.91907">
        <ele>2113.7</ele>
        <time>2021-02-20T13:43:56Z</time>
      </trkpt>
      <trkpt lat="45.16009" lon="5.91907">
        <ele>2113.8</ele>
        <time>2021-02-20T13:43:57Z</time>
      </trkpt>
      <trkpt lat="45.1601" lon="5.91906">
        <ele>2113.9</ele>
        <time>2021-02-20T13:43:58Z</time>
      </trkpt>
      <trkpt lat="45.1601" lon="5.91906">
        <ele>2114</ele>
        <time>2021-02-20T13:43:59Z</time>
      </trkpt>
      <trkpt lat="45.1601" lon="5.91907">
        <ele>2114.1</ele>
        <time>2021-02-20T13:44:00Z</time>
      </trkpt>
      <trkpt lat="45.16011" lon="5.91908">
        <ele>2114.2</ele>
        <time>2021-02-20T13:44:01Z</time>
      </trkpt>
      <trkpt lat="45.16011" lon="5.91909">
        <ele>2114.3</ele>
        <time>2021-02-20T13:44:02Z</time>
      </trkpt>
      <trkpt lat="45.16011" lon="5.9191">
        <ele>2114.4</ele>
        <time>2021-02-20T13:44:03Z</time>
      </trkpt>
      <trkpt lat="45.16011" lon="5.91911">
        <ele>2114.5</ele>
        <time>2021-02-20T13:44:04Z</time>
      </trkpt>
      <trkpt lat="45.16011" lon="5.91912">
        <ele>2114.7</ele>
        <time>2021-02-20T13:44:05Z</time>
      </trkpt>
      <trkpt lat="45.16011" lon="5.91913">
        <ele>2114.8</ele>
        <time>2021-02-20T13:44:06Z</time>
      </trkpt>
      <trkpt lat="45.16011" lon="5.91914">
        <ele>2114.9</ele>
        <time>2021-02-20T13:44:07Z</time>
      </trkpt>
      <trkpt lat="45.16011" lon="5.91915">
        <ele>2115</ele>
        <time>2021-02-20T13:44:08Z</time>
      </trkpt>
      <trkpt lat="45.16011" lon="5.91916">
        <ele>2115.1</ele>
        <time>2021-02-20T13:44:09Z</time>
      </trkpt>
      <trkpt lat="45.16011" lon="5.91918">
        <ele>2115.4</ele>
        <time>2021-02-20T13:44:10Z</time>
      </trkpt>
      <trkpt lat="45.16011" lon="5.9192">
        <ele>2115.6</ele>
        <time>2021-02-20T13:44:11Z</time>
      </trkpt>
      <trkpt lat="45.16011" lon="5.91922">
        <ele>2115.8</ele>
        <time>2021-02-20T13:44:12Z</time>
      </trkpt>
      <trkpt lat="45.16011" lon="5.91924">
        <ele>2116.1</ele>
        <time>2021-02-20T13:44:13Z</time>
      </trkpt>
      <trkpt lat="45.16011" lon="5.91925">
        <ele>2116.2</ele>
        <time>2021-02-20T13:44:14Z</time>
      </trkpt>
      <trkpt lat="45.16011" lon="5.91927">
        <ele>2116.4</ele>
        <time>2021-02-20T13:44:15Z</time>
      </trkpt>
      <trkpt lat="45.16011" lon="5.91928">
        <ele>2116.5</ele>
        <time>2021-02-20T13:44:16Z</time>
      </trkpt>
      <trkpt lat="45.16011" lon="5.9193">
        <ele>2116.7</ele>
        <time>2021-02-20T13:44:17Z</time>
      </trkpt>
      <trkpt lat="45.16011" lon="5.91931">
        <ele>2116.9</ele>
        <time>2021-02-20T13:44:18Z</time>
      </trkpt>
      <trkpt lat="45.16012" lon="5.91932">
        <ele>2117</ele>
        <time>2021-02-20T13:44:19Z</time>
      </trkpt>
      <trkpt lat="45.16012" lon="5.91933">
        <ele>2117.2</ele>
        <time>2021-02-20T13:44:20Z</time>
      </trkpt>
      <trkpt lat="45.16012" lon="5.91935">
        <ele>2117.3</ele>
        <time>2021-02-20T13:44:21Z</time>
      </trkpt>
      <trkpt lat="45.16012" lon="5.91936">
        <ele>2117.5</ele>
        <time>2021-02-20T13:44:22Z</time>
      </trkpt>
      <trkpt lat="45.16012" lon="5.91937">
        <ele>2117.7</ele>
        <time>2021-02-20T13:44:23Z</time>
      </trkpt>
      <trkpt lat="45.16012" lon="5.91938">
        <ele>2117.8</ele>
        <time>2021-02-20T13:44:24Z</time>
      </trkpt>
      <trkpt lat="45.16012" lon="5.91939">
        <ele>2117.9</ele>
        <time>2021-02-20T13:44:25Z</time>
      </trkpt>
      <trkpt lat="45.16013" lon="5.9194">
        <ele>2118</ele>
        <time>2021-02-20T13:44:26Z</time>
      </trkpt>
      <trkpt lat="45.16013" lon="5.91941">
        <ele>2118.1</ele>
        <time>2021-02-20T13:44:27Z</time>
      </trkpt>
      <trkpt lat="45.16013" lon="5.91942">
        <ele>2118.2</ele>
        <time>2021-02-20T13:44:28Z</time>
      </trkpt>
      <trkpt lat="45.16013" lon="5.91943">
        <ele>2118.3</ele>
        <time>2021-02-20T13:44:29Z</time>
      </trkpt>
      <trkpt lat="45.16014" lon="5.91943">
        <ele>2118.4</ele>
        <time>2021-02-20T13:44:30Z</time>
      </trkpt>
      <trkpt lat="45.16014" lon="5.91944">
        <ele>2118.5</ele>
        <time>2021-02-20T13:44:31Z</time>
      </trkpt>
      <trkpt lat="45.16014" lon="5.91945">
        <ele>2118.6</ele>
        <time>2021-02-20T13:44:32Z</time>
      </trkpt>
      <trkpt lat="45.16014" lon="5.91945">
        <ele>2118.7</ele>
        <time>2021-02-20T13:44:33Z</time>
      </trkpt>
      <trkpt lat="45.16015" lon="5.91946">
        <ele>2118.8</ele>
        <time>2021-02-20T13:44:34Z</time>
      </trkpt>
      <trkpt lat="45.16015" lon="5.91947">
        <ele>2118.9</ele>
        <time>2021-02-20T13:44:35Z</time>
      </trkpt>
      <trkpt lat="45.16015" lon="5.91948">
        <ele>2119.1</ele>
        <time>2021-02-20T13:44:36Z</time>
      </trkpt>
      <trkpt lat="45.16016" lon="5.91949">
        <ele>2119.2</ele>
        <time>2021-02-20T13:44:37Z</time>
      </trkpt>
      <trkpt lat="45.16016" lon="5.9195">
        <ele>2119.3</ele>
        <time>2021-02-20T13:44:38Z</time>
      </trkpt>
      <trkpt lat="45.16016" lon="5.9195">
        <ele>2119.4</ele>
        <time>2021-02-20T13:44:39Z</time>
      </trkpt>
      <trkpt lat="45.16016" lon="5.91951">
        <ele>2119.5</ele>
        <time>2021-02-20T13:44:40Z</time>
      </trkpt>
      <trkpt lat="45.16016" lon="5.91952">
        <ele>2119.6</ele>
        <time>2021-02-20T13:44:41Z</time>
      </trkpt>
      <trkpt lat="45.16017" lon="5.91953">
        <ele>2119.7</ele>
        <time>2021-02-20T13:44:42Z</time>
      </trkpt>
      <trkpt lat="45.16017" lon="5.91953">
        <ele>2119.8</ele>
        <time>2021-02-20T13:44:43Z</time>
      </trkpt>
      <trkpt lat="45.16018" lon="5.91954">
        <ele>2119.9</ele>
        <time>2021-02-20T13:44:44Z</time>
      </trkpt>
      <trkpt lat="45.16018" lon="5.91955">
        <ele>2120</ele>
        <time>2021-02-20T13:44:45Z</time>
      </trkpt>
      <trkpt lat="45.16018" lon="5.91956">
        <ele>2120.2</ele>
        <time>2021-02-20T13:44:46Z</time>
      </trkpt>
      <trkpt lat="45.16019" lon="5.91957">
        <ele>2120.3</ele>
        <time>2021-02-20T13:44:47Z</time>
      </trkpt>
      <trkpt lat="45.16019" lon="5.91958">
        <ele>2120.4</ele>
        <time>2021-02-20T13:44:48Z</time>
      </trkpt>
      <trkpt lat="45.16019" lon="5.91959">
        <ele>2120.5</ele>
        <time>2021-02-20T13:44:49Z</time>
      </trkpt>
      <trkpt lat="45.16019" lon="5.91959">
        <ele>2120.6</ele>
        <time>2021-02-20T13:44:50Z</time>
      </trkpt>
      <trkpt lat="45.1602" lon="5.91958">
        <ele>2120.7</ele>
        <time>2021-02-20T13:44:51Z</time>
      </trkpt>
      <trkpt lat="45.1602" lon="5.91957">
        <ele>2120.7</ele>
        <time>2021-02-20T13:44:52Z</time>
      </trkpt>
      <trkpt lat="45.1602" lon="5.91957">
        <ele>2120.8</ele>
        <time>2021-02-20T13:44:53Z</time>
      </trkpt>
      <trkpt lat="45.1602" lon="5.91956">
        <ele>2120.9</ele>
        <time>2021-02-20T13:44:54Z</time>
      </trkpt>
      <trkpt lat="45.16021" lon="5.91955">
        <ele>2121</ele>
        <time>2021-02-20T13:44:55Z</time>
      </trkpt>
      <trkpt lat="45.16021" lon="5.91955">
        <ele>2121.1</ele>
        <time>2021-02-20T13:44:56Z</time>
      </trkpt>
      <trkpt lat="45.16021" lon="5.91954">
        <ele>2121.2</ele>
        <time>2021-02-20T13:44:57Z</time>
      </trkpt>
      <trkpt lat="45.16021" lon="5.91954">
        <ele>2121.3</ele>
        <time>2021-02-20T13:44:58Z</time>
      </trkpt>
      <trkpt lat="45.16022" lon="5.91953">
        <ele>2121.4</ele>
        <time>2021-02-20T13:45:03Z</time>
      </trkpt>
      <trkpt lat="45.16022" lon="5.91952">
        <ele>2121.5</ele>
        <time>2021-02-20T13:45:04Z</time>
      </trkpt>
      <trkpt lat="45.16022" lon="5.91952">
        <ele>2121.6</ele>
        <time>2021-02-20T13:45:05Z</time>
      </trkpt>
      <trkpt lat="45.16023" lon="5.91951">
        <ele>2121.6</ele>
        <time>2021-02-20T13:45:06Z</time>
      </trkpt>
      <trkpt lat="45.16023" lon="5.9195">
        <ele>2121.8</ele>
        <time>2021-02-20T13:45:07Z</time>
      </trkpt>
      <trkpt lat="45.16024" lon="5.91949">
        <ele>2122</ele>
        <time>2021-02-20T13:45:08Z</time>
      </trkpt>
      <trkpt lat="45.16024" lon="5.91948">
        <ele>2122.1</ele>
        <time>2021-02-20T13:45:09Z</time>
      </trkpt>
      <trkpt lat="45.16025" lon="5.91947">
        <ele>2122.3</ele>
        <time>2021-02-20T13:45:10Z</time>
      </trkpt>
      <trkpt lat="45.16026" lon="5.91946">
        <ele>2122.4</ele>
        <time>2021-02-20T13:45:11Z</time>
      </trkpt>
      <trkpt lat="45.16026" lon="5.91945">
        <ele>2122.6</ele>
        <time>2021-02-20T13:45:12Z</time>
      </trkpt>
      <trkpt lat="45.16027" lon="5.91944">
        <ele>2122.8</ele>
        <time>2021-02-20T13:45:13Z</time>
      </trkpt>
      <trkpt lat="45.16028" lon="5.91943">
        <ele>2122.9</ele>
        <time>2021-02-20T13:45:14Z</time>
      </trkpt>
      <trkpt lat="45.16028" lon="5.91943">
        <ele>2123.1</ele>
        <time>2021-02-20T13:45:15Z</time>
      </trkpt>
      <trkpt lat="45.16029" lon="5.91942">
        <ele>2123.2</ele>
        <time>2021-02-20T13:45:16Z</time>
      </trkpt>
      <trkpt lat="45.1603" lon="5.91941">
        <ele>2123.3</ele>
        <time>2021-02-20T13:45:17Z</time>
      </trkpt>
      <trkpt lat="45.1603" lon="5.91941">
        <ele>2123.4</ele>
        <time>2021-02-20T13:45:18Z</time>
      </trkpt>
      <trkpt lat="45.16031" lon="5.9194">
        <ele>2123.6</ele>
        <time>2021-02-20T13:45:19Z</time>
      </trkpt>
      <trkpt lat="45.16032" lon="5.9194">
        <ele>2123.8</ele>
        <time>2021-02-20T13:45:20Z</time>
      </trkpt>
      <trkpt lat="45.16033" lon="5.9194">
        <ele>2123.9</ele>
        <time>2021-02-20T13:45:21Z</time>
      </trkpt>
      <trkpt lat="45.16034" lon="5.9194">
        <ele>2124.1</ele>
        <time>2021-02-20T13:45:22Z</time>
      </trkpt>
      <trkpt lat="45.16035" lon="5.91939">
        <ele>2124.2</ele>
        <time>2021-02-20T13:45:23Z</time>
      </trkpt>
      <trkpt lat="45.16035" lon="5.9194">
        <ele>2124.3</ele>
        <time>2021-02-20T13:45:24Z</time>
      </trkpt>
      <trkpt lat="45.16036" lon="5.9194">
        <ele>2124.4</ele>
        <time>2021-02-20T13:45:25Z</time>
      </trkpt>
      <trkpt lat="45.16036" lon="5.9194">
        <ele>2124.5</ele>
        <time>2021-02-20T13:45:26Z</time>
      </trkpt>
      <trkpt lat="45.16037" lon="5.9194">
        <ele>2124.6</ele>
        <time>2021-02-20T13:45:27Z</time>
      </trkpt>
      <trkpt lat="45.16038" lon="5.9194">
        <ele>2124.7</ele>
        <time>2021-02-20T13:45:28Z</time>
      </trkpt>
      <trkpt lat="45.16039" lon="5.9194">
        <ele>2124.9</ele>
        <time>2021-02-20T13:45:29Z</time>
      </trkpt>
      <trkpt lat="45.1604" lon="5.91941">
        <ele>2125</ele>
        <time>2021-02-20T13:45:30Z</time>
      </trkpt>
      <trkpt lat="45.16041" lon="5.91941">
        <ele>2125.2</ele>
        <time>2021-02-20T13:45:31Z</time>
      </trkpt>
      <trkpt lat="45.16042" lon="5.9194">
        <ele>2125.4</ele>
        <time>2021-02-20T13:45:32Z</time>
      </trkpt>
      <trkpt lat="45.16043" lon="5.9194">
        <ele>2125.6</ele>
        <time>2021-02-20T13:45:33Z</time>
      </trkpt>
      <trkpt lat="45.16044" lon="5.9194">
        <ele>2125.7</ele>
        <time>2021-02-20T13:45:34Z</time>
      </trkpt>
      <trkpt lat="45.16044" lon="5.9194">
        <ele>2125.8</ele>
        <time>2021-02-20T13:45:35Z</time>
      </trkpt>
      <trkpt lat="45.16044" lon="5.91941">
        <ele>2125.9</ele>
        <time>2021-02-20T13:45:36Z</time>
      </trkpt>
      <trkpt lat="45.16044" lon="5.91941">
        <ele>2125.9</ele>
        <time>2021-02-20T13:45:37Z</time>
      </trkpt>
      <trkpt lat="45.16043" lon="5.91942">
        <ele>2126</ele>
        <time>2021-02-20T13:45:38Z</time>
      </trkpt>
      <trkpt lat="45.16043" lon="5.91942">
        <ele>2126</ele>
        <time>2021-02-20T13:45:39Z</time>
      </trkpt>
      <trkpt lat="45.16043" lon="5.91943">
        <ele>2126.1</ele>
        <time>2021-02-20T13:45:40Z</time>
      </trkpt>
      <trkpt lat="45.16043" lon="5.91943">
        <ele>2126.2</ele>
        <time>2021-02-20T13:45:41Z</time>
      </trkpt>
      <trkpt lat="45.16043" lon="5.91943">
        <ele>2126.2</ele>
        <time>2021-02-20T13:45:42Z</time>
      </trkpt>
      <trkpt lat="45.16043" lon="5.91944">
        <ele>2126.3</ele>
        <time>2021-02-20T13:45:43Z</time>
      </trkpt>
      <trkpt lat="45.16042" lon="5.91944">
        <ele>2126.4</ele>
        <time>2021-02-20T13:45:44Z</time>
      </trkpt>
      <trkpt lat="45.16042" lon="5.91945">
        <ele>2126.4</ele>
        <time>2021-02-20T13:45:45Z</time>
      </trkpt>
      <trkpt lat="45.16042" lon="5.91945">
        <ele>2126.5</ele>
        <time>2021-02-20T13:45:46Z</time>
      </trkpt>
      <trkpt lat="45.16042" lon="5.91946">
        <ele>2126.6</ele>
        <time>2021-02-20T13:47:07Z</time>
      </trkpt>
      <trkpt lat="45.16042" lon="5.91946">
        <ele>2126.6</ele>
        <time>2021-02-20T13:47:08Z</time>
      </trkpt>
      <trkpt lat="45.16041" lon="5.91947">
        <ele>2126.7</ele>
        <time>2021-02-20T13:47:09Z</time>
      </trkpt>
      <trkpt lat="45.16041" lon="5.91947">
        <ele>2126.8</ele>
        <time>2021-02-20T13:47:10Z</time>
      </trkpt>
      <trkpt lat="45.16041" lon="5.91948">
        <ele>2126.8</ele>
        <time>2021-02-20T13:47:11Z</time>
      </trkpt>
      <trkpt lat="45.16041" lon="5.91948">
        <ele>2126.9</ele>
        <time>2021-02-20T13:47:12Z</time>
      </trkpt>
      <trkpt lat="45.16041" lon="5.91949">
        <ele>2126.9</ele>
        <time>2021-02-20T13:47:13Z</time>
      </trkpt>
      <trkpt lat="45.1604" lon="5.91949">
        <ele>2127</ele>
        <time>2021-02-20T13:47:14Z</time>
      </trkpt>
      <trkpt lat="45.1604" lon="5.91949">
        <ele>2127.1</ele>
        <time>2021-02-20T13:47:15Z</time>
      </trkpt>
      <trkpt lat="45.1604" lon="5.9195">
        <ele>2127.1</ele>
        <time>2021-02-20T13:47:16Z</time>
      </trkpt>
      <trkpt lat="45.1604" lon="5.9195">
        <ele>2127.2</ele>
        <time>2021-02-20T13:47:17Z</time>
      </trkpt>
      <trkpt lat="45.1604" lon="5.91951">
        <ele>2127.3</ele>
        <time>2021-02-20T13:47:18Z</time>
      </trkpt>
      <trkpt lat="45.16039" lon="5.91951">
        <ele>2127.3</ele>
        <time>2021-02-20T13:47:19Z</time>
      </trkpt>
      <trkpt lat="45.16039" lon="5.91952">
        <ele>2127.4</ele>
        <time>2021-02-20T13:47:20Z</time>
      </trkpt>
      <trkpt lat="45.16039" lon="5.91952">
        <ele>2127.4</ele>
        <time>2021-02-20T13:47:21Z</time>
      </trkpt>
      <trkpt lat="45.16039" lon="5.91953">
        <ele>2127.5</ele>
        <time>2021-02-20T13:47:22Z</time>
      </trkpt>
      <trkpt lat="45.16038" lon="5.91954">
        <ele>2127.7</ele>
        <time>2021-02-20T13:47:23Z</time>
      </trkpt>
      <trkpt lat="45.16038" lon="5.91955">
        <ele>2127.8</ele>
        <time>2021-02-20T13:47:24Z</time>
      </trkpt>
      <trkpt lat="45.16037" lon="5.91956">
        <ele>2128</ele>
        <time>2021-02-20T13:47:25Z</time>
      </trkpt>
      <trkpt lat="45.16037" lon="5.91958">
        <ele>2128.2</ele>
        <time>2021-02-20T13:47:26Z</time>
      </trkpt>
      <trkpt lat="45.16036" lon="5.91959">
        <ele>2128.4</ele>
        <time>2021-02-20T13:47:27Z</time>
      </trkpt>
      <trkpt lat="45.16036" lon="5.91961">
        <ele>2128.6</ele>
        <time>2021-02-20T13:47:28Z</time>
      </trkpt>
      <trkpt lat="45.16036" lon="5.91962">
        <ele>2128.8</ele>
        <time>2021-02-20T13:47:29Z</time>
      </trkpt>
      <trkpt lat="45.16036" lon="5.91963">
        <ele>2128.9</ele>
        <time>2021-02-20T13:47:30Z</time>
      </trkpt>
      <trkpt lat="45.16036" lon="5.91964">
        <ele>2129</ele>
        <time>2021-02-20T13:47:31Z</time>
      </trkpt>
      <trkpt lat="45.16036" lon="5.91966">
        <ele>2129.2</ele>
        <time>2021-02-20T13:47:32Z</time>
      </trkpt>
      <trkpt lat="45.16036" lon="5.91967">
        <ele>2129.4</ele>
        <time>2021-02-20T13:47:33Z</time>
      </trkpt>
      <trkpt lat="45.16036" lon="5.91968">
        <ele>2129.5</ele>
        <time>2021-02-20T13:47:34Z</time>
      </trkpt>
      <trkpt lat="45.16036" lon="5.91969">
        <ele>2129.6</ele>
        <time>2021-02-20T13:47:35Z</time>
      </trkpt>
      <trkpt lat="45.16036" lon="5.9197">
        <ele>2129.7</ele>
        <time>2021-02-20T13:47:36Z</time>
      </trkpt>
      <trkpt lat="45.16036" lon="5.91971">
        <ele>2129.8</ele>
        <time>2021-02-20T13:47:37Z</time>
      </trkpt>
      <trkpt lat="45.16036" lon="5.91971">
        <ele>2129.8</ele>
        <time>2021-02-20T13:47:38Z</time>
      </trkpt>
      <trkpt lat="45.16036" lon="5.91972">
        <ele>2129.9</ele>
        <time>2021-02-20T13:47:39Z</time>
      </trkpt>
      <trkpt lat="45.16036" lon="5.91973">
        <ele>2130.1</ele>
        <time>2021-02-20T13:47:40Z</time>
      </trkpt>
      <trkpt lat="45.16036" lon="5.91974">
        <ele>2130.2</ele>
        <time>2021-02-20T13:47:41Z</time>
      </trkpt>
      <trkpt lat="45.16036" lon="5.91975">
        <ele>2130.3</ele>
        <time>2021-02-20T13:47:42Z</time>
      </trkpt>
      <trkpt lat="45.16036" lon="5.91976">
        <ele>2130.4</ele>
        <time>2021-02-20T13:47:43Z</time>
      </trkpt>
      <trkpt lat="45.16036" lon="5.91976">
        <ele>2130.5</ele>
        <time>2021-02-20T13:47:44Z</time>
      </trkpt>
      <trkpt lat="45.16036" lon="5.91977">
        <ele>2130.6</ele>
        <time>2021-02-20T13:47:45Z</time>
      </trkpt>
      <trkpt lat="45.16036" lon="5.91978">
        <ele>2130.7</ele>
        <time>2021-02-20T13:47:46Z</time>
      </trkpt>
      <trkpt lat="45.16036" lon="5.91979">
        <ele>2130.8</ele>
        <time>2021-02-20T13:47:47Z</time>
      </trkpt>
      <trkpt lat="45.16036" lon="5.91979">
        <ele>2130.8</ele>
        <time>2021-02-20T13:47:48Z</time>
      </trkpt>
      <trkpt lat="45.16036" lon="5.9198">
        <ele>2130.9</ele>
        <time>2021-02-20T13:47:49Z</time>
      </trkpt>
      <trkpt lat="45.16036" lon="5.9198">
        <ele>2130.9</ele>
        <time>2021-02-20T13:47:50Z</time>
      </trkpt>
      <trkpt lat="45.16036" lon="5.91981">
        <ele>2131.1</ele>
        <time>2021-02-20T13:47:51Z</time>
      </trkpt>
      <trkpt lat="45.16036" lon="5.91982">
        <ele>2131.1</ele>
        <time>2021-02-20T13:47:52Z</time>
      </trkpt>
      <trkpt lat="45.16036" lon="5.91982">
        <ele>2131.2</ele>
        <time>2021-02-20T13:47:53Z</time>
      </trkpt>
      <trkpt lat="45.16036" lon="5.91983">
        <ele>2131.2</ele>
        <time>2021-02-20T13:47:54Z</time>
      </trkpt>
      <trkpt lat="45.16036" lon="5.91983">
        <ele>2131.3</ele>
        <time>2021-02-20T13:47:55Z</time>
      </trkpt>
      <trkpt lat="45.16036" lon="5.91984">
        <ele>2131.4</ele>
        <time>2021-02-20T13:47:56Z</time>
      </trkpt>
      <trkpt lat="45.16036" lon="5.91984">
        <ele>2131.4</ele>
        <time>2021-02-20T13:47:57Z</time>
      </trkpt>
      <trkpt lat="45.16036" lon="5.91985">
        <ele>2131.5</ele>
        <time>2021-02-20T13:47:58Z</time>
      </trkpt>
      <trkpt lat="45.16036" lon="5.91986">
        <ele>2131.6</ele>
        <time>2021-02-20T13:47:59Z</time>
      </trkpt>
      <trkpt lat="45.16036" lon="5.91986">
        <ele>2131.7</ele>
        <time>2021-02-20T13:48:00Z</time>
      </trkpt>
      <trkpt lat="45.16036" lon="5.91987">
        <ele>2131.8</ele>
        <time>2021-02-20T13:48:01Z</time>
      </trkpt>
      <trkpt lat="45.16036" lon="5.91988">
        <ele>2131.9</ele>
        <time>2021-02-20T13:48:02Z</time>
      </trkpt>
      <trkpt lat="45.16036" lon="5.91989">
        <ele>2132.1</ele>
        <time>2021-02-20T13:48:03Z</time>
      </trkpt>
      <trkpt lat="45.16036" lon="5.91991">
        <ele>2132.2</ele>
        <time>2021-02-20T13:48:04Z</time>
      </trkpt>
      <trkpt lat="45.16036" lon="5.91992">
        <ele>2132.3</ele>
        <time>2021-02-20T13:48:05Z</time>
      </trkpt>
      <trkpt lat="45.16036" lon="5.91993">
        <ele>2132.4</ele>
        <time>2021-02-20T13:48:06Z</time>
      </trkpt>
      <trkpt lat="45.16036" lon="5.91994">
        <ele>2132.5</ele>
        <time>2021-02-20T13:48:07Z</time>
      </trkpt>
      <trkpt lat="45.16036" lon="5.91995">
        <ele>2132.7</ele>
        <time>2021-02-20T13:48:08Z</time>
      </trkpt>
      <trkpt lat="45.16036" lon="5.91996">
        <ele>2132.8</ele>
        <time>2021-02-20T13:48:09Z</time>
      </trkpt>
      <trkpt lat="45.16036" lon="5.91997">
        <ele>2132.9</ele>
        <time>2021-02-20T13:48:10Z</time>
      </trkpt>
      <trkpt lat="45.16036" lon="5.91998">
        <ele>2133</ele>
        <time>2021-02-20T13:48:16Z</time>
      </trkpt>
      <trkpt lat="45.16036" lon="5.91999">
        <ele>2133.1</ele>
        <time>2021-02-20T13:48:17Z</time>
      </trkpt>
      <trkpt lat="45.16036" lon="5.92">
        <ele>2133.3</ele>
        <time>2021-02-20T13:48:18Z</time>
      </trkpt>
      <trkpt lat="45.16036" lon="5.92001">
        <ele>2133.4</ele>
        <time>2021-02-20T13:48:19Z</time>
      </trkpt>
      <trkpt lat="45.16036" lon="5.92002">
        <ele>2133.5</ele>
        <time>2021-02-20T13:48:20Z</time>
      </trkpt>
      <trkpt lat="45.16036" lon="5.92003">
        <ele>2133.7</ele>
        <time>2021-02-20T13:48:21Z</time>
      </trkpt>
      <trkpt lat="45.16036" lon="5.92004">
        <ele>2133.8</ele>
        <time>2021-02-20T13:48:22Z</time>
      </trkpt>
      <trkpt lat="45.16036" lon="5.92005">
        <ele>2133.9</ele>
        <time>2021-02-20T13:48:23Z</time>
      </trkpt>
      <trkpt lat="45.16036" lon="5.92006">
        <ele>2134</ele>
        <time>2021-02-20T13:48:24Z</time>
      </trkpt>
      <trkpt lat="45.16036" lon="5.92007">
        <ele>2134.1</ele>
        <time>2021-02-20T13:48:25Z</time>
      </trkpt>
      <trkpt lat="45.16036" lon="5.92008">
        <ele>2134.3</ele>
        <time>2021-02-20T13:48:26Z</time>
      </trkpt>
      <trkpt lat="45.16037" lon="5.92009">
        <ele>2134.4</ele>
        <time>2021-02-20T13:48:27Z</time>
      </trkpt>
      <trkpt lat="45.16037" lon="5.9201">
        <ele>2134.5</ele>
        <time>2021-02-20T13:48:28Z</time>
      </trkpt>
      <trkpt lat="45.16037" lon="5.9201">
        <ele>2134.5</ele>
        <time>2021-02-20T13:48:29Z</time>
      </trkpt>
      <trkpt lat="45.16036" lon="5.92011">
        <ele>2134.6</ele>
        <time>2021-02-20T13:48:30Z</time>
      </trkpt>
      <trkpt lat="45.16036" lon="5.92011">
        <ele>2134.7</ele>
        <time>2021-02-20T13:48:31Z</time>
      </trkpt>
      <trkpt lat="45.16036" lon="5.92012">
        <ele>2134.7</ele>
        <time>2021-02-20T13:48:32Z</time>
      </trkpt>
      <trkpt lat="45.16036" lon="5.92012">
        <ele>2134.8</ele>
        <time>2021-02-20T13:48:33Z</time>
      </trkpt>
      <trkpt lat="45.16036" lon="5.92013">
        <ele>2134.9</ele>
        <time>2021-02-20T13:48:34Z</time>
      </trkpt>
      <trkpt lat="45.16036" lon="5.92013">
        <ele>2134.9</ele>
        <time>2021-02-20T13:48:35Z</time>
      </trkpt>
      <trkpt lat="45.16036" lon="5.92014">
        <ele>2135</ele>
        <time>2021-02-20T13:48:36Z</time>
      </trkpt>
      <trkpt lat="45.16036" lon="5.92015">
        <ele>2135.1</ele>
        <time>2021-02-20T13:48:37Z</time>
      </trkpt>
      <trkpt lat="45.16036" lon="5.92015">
        <ele>2135.1</ele>
        <time>2021-02-20T13:49:22Z</time>
      </trkpt>
      <trkpt lat="45.16036" lon="5.92016">
        <ele>2135.2</ele>
        <time>2021-02-20T13:49:23Z</time>
      </trkpt>
      <trkpt lat="45.16036" lon="5.92016">
        <ele>2135.3</ele>
        <time>2021-02-20T13:49:24Z</time>
      </trkpt>
      <trkpt lat="45.16036" lon="5.92017">
        <ele>2135.3</ele>
        <time>2021-02-20T13:49:25Z</time>
      </trkpt>
      <trkpt lat="45.16036" lon="5.92017">
        <ele>2135.4</ele>
        <time>2021-02-20T13:49:26Z</time>
      </trkpt>
      <trkpt lat="45.16036" lon="5.92018">
        <ele>2135.5</ele>
        <time>2021-02-20T13:49:27Z</time>
      </trkpt>
      <trkpt lat="45.16036" lon="5.92018">
        <ele>2135.5</ele>
        <time>2021-02-20T13:49:28Z</time>
      </trkpt>
      <trkpt lat="45.16036" lon="5.92018">
        <ele>2135.6</ele>
        <time>2021-02-20T13:49:29Z</time>
      </trkpt>
      <trkpt lat="45.16037" lon="5.92017">
        <ele>2135.7</ele>
        <time>2021-02-20T13:49:30Z</time>
      </trkpt>
      <trkpt lat="45.16038" lon="5.92016">
        <ele>2135.9</ele>
        <time>2021-02-20T13:49:31Z</time>
      </trkpt>
      <trkpt lat="45.16038" lon="5.92015">
        <ele>2136</ele>
        <time>2021-02-20T13:49:32Z</time>
      </trkpt>
      <trkpt lat="45.16039" lon="5.92015">
        <ele>2136.1</ele>
        <time>2021-02-20T13:49:33Z</time>
      </trkpt>
      <trkpt lat="45.16039" lon="5.92014">
        <ele>2136.2</ele>
        <time>2021-02-20T13:49:34Z</time>
      </trkpt>
      <trkpt lat="45.16039" lon="5.92014">
        <ele>2136.2</ele>
        <time>2021-02-20T13:49:35Z</time>
      </trkpt>
      <trkpt lat="45.16039" lon="5.92013">
        <ele>2136.3</ele>
        <time>2021-02-20T13:49:36Z</time>
      </trkpt>
      <trkpt lat="45.1604" lon="5.92012">
        <ele>2136.4</ele>
        <time>2021-02-20T13:49:37Z</time>
      </trkpt>
      <trkpt lat="45.1604" lon="5.92012">
        <ele>2136.5</ele>
        <time>2021-02-20T13:49:38Z</time>
      </trkpt>
      <trkpt lat="45.1604" lon="5.92012">
        <ele>2136.5</ele>
        <time>2021-02-20T13:49:39Z</time>
      </trkpt>
      <trkpt lat="45.16041" lon="5.92011">
        <ele>2136.7</ele>
        <time>2021-02-20T13:49:40Z</time>
      </trkpt>
      <trkpt lat="45.16041" lon="5.9201">
        <ele>2136.8</ele>
        <time>2021-02-20T13:49:41Z</time>
      </trkpt>
      <trkpt lat="45.16041" lon="5.9201">
        <ele>2136.9</ele>
        <time>2021-02-20T13:49:42Z</time>
      </trkpt>
      <trkpt lat="45.16041" lon="5.92009">
        <ele>2136.9</ele>
        <time>2021-02-20T13:49:43Z</time>
      </trkpt>
      <trkpt lat="45.16041" lon="5.92009">
        <ele>2137</ele>
        <time>2021-02-20T13:49:44Z</time>
      </trkpt>
      <trkpt lat="45.16042" lon="5.92008">
        <ele>2137.1</ele>
        <time>2021-02-20T13:49:45Z</time>
      </trkpt>
      <trkpt lat="45.16042" lon="5.92008">
        <ele>2137.2</ele>
        <time>2021-02-20T13:49:46Z</time>
      </trkpt>
      <trkpt lat="45.16043" lon="5.92007">
        <ele>2137.4</ele>
        <time>2021-02-20T13:49:47Z</time>
      </trkpt>
      <trkpt lat="45.16043" lon="5.92006">
        <ele>2137.5</ele>
        <time>2021-02-20T13:49:48Z</time>
      </trkpt>
      <trkpt lat="45.16044" lon="5.92005">
        <ele>2137.6</ele>
        <time>2021-02-20T13:49:49Z</time>
      </trkpt>
      <trkpt lat="45.16045" lon="5.92004">
        <ele>2137.8</ele>
        <time>2021-02-20T13:49:50Z</time>
      </trkpt>
      <trkpt lat="45.16045" lon="5.92004">
        <ele>2137.9</ele>
        <time>2021-02-20T13:49:51Z</time>
      </trkpt>
      <trkpt lat="45.16046" lon="5.92003">
        <ele>2138.1</ele>
        <time>2021-02-20T13:49:52Z</time>
      </trkpt>
      <trkpt lat="45.16047" lon="5.92002">
        <ele>2138.2</ele>
        <time>2021-02-20T13:49:53Z</time>
      </trkpt>
      <trkpt lat="45.16047" lon="5.92002">
        <ele>2138.3</ele>
        <time>2021-02-20T13:49:54Z</time>
      </trkpt>
      <trkpt lat="45.16048" lon="5.92001">
        <ele>2138.4</ele>
        <time>2021-02-20T13:49:55Z</time>
      </trkpt>
      <trkpt lat="45.16049" lon="5.92">
        <ele>2138.6</ele>
        <time>2021-02-20T13:49:56Z</time>
      </trkpt>
      <trkpt lat="45.1605" lon="5.91999">
        <ele>2138.8</ele>
        <time>2021-02-20T13:49:57Z</time>
      </trkpt>
      <trkpt lat="45.16051" lon="5.91999">
        <ele>2138.9</ele>
        <time>2021-02-20T13:49:58Z</time>
      </trkpt>
      <trkpt lat="45.16051" lon="5.91999">
        <ele>2138.9</ele>
        <time>2021-02-20T13:49:59Z</time>
      </trkpt>
      <trkpt lat="45.16051" lon="5.91999">
        <ele>2138.9</ele>
        <time>2021-02-20T13:50:00Z</time>
      </trkpt>
      <trkpt lat="45.16051" lon="5.91998">
        <ele>2139.1</ele>
        <time>2021-02-20T13:50:01Z</time>
      </trkpt>
      <trkpt lat="45.16052" lon="5.91998">
        <ele>2139.2</ele>
        <time>2021-02-20T13:50:02Z</time>
      </trkpt>
      <trkpt lat="45.16052" lon="5.91997">
        <ele>2139.3</ele>
        <time>2021-02-20T13:50:03Z</time>
      </trkpt>
      <trkpt lat="45.16053" lon="5.91997">
        <ele>2139.5</ele>
        <time>2021-02-20T13:50:04Z</time>
      </trkpt>
      <trkpt lat="45.16054" lon="5.91997">
        <ele>2139.6</ele>
        <time>2021-02-20T13:50:05Z</time>
      </trkpt>
      <trkpt lat="45.16055" lon="5.91996">
        <ele>2139.7</ele>
        <time>2021-02-20T13:50:06Z</time>
      </trkpt>
      <trkpt lat="45.16055" lon="5.91996">
        <ele>2139.8</ele>
        <time>2021-02-20T13:50:07Z</time>
      </trkpt>
      <trkpt lat="45.16056" lon="5.91996">
        <ele>2139.9</ele>
        <time>2021-02-20T13:50:08Z</time>
      </trkpt>
      <trkpt lat="45.16057" lon="5.91996">
        <ele>2140</ele>
        <time>2021-02-20T13:50:09Z</time>
      </trkpt>
      <trkpt lat="45.16057" lon="5.91996">
        <ele>2140</ele>
        <time>2021-02-20T13:50:10Z</time>
      </trkpt>
      <trkpt lat="45.16057" lon="5.91996">
        <ele>2140.1</ele>
        <time>2021-02-20T13:50:11Z</time>
      </trkpt>
      <trkpt lat="45.16057" lon="5.91996">
        <ele>2140.1</ele>
        <time>2021-02-20T13:50:12Z</time>
      </trkpt>
      <trkpt lat="45.16057" lon="5.91996">
        <ele>2140.1</ele>
        <time>2021-02-20T13:50:13Z</time>
      </trkpt>
      <trkpt lat="45.16057" lon="5.91997">
        <ele>2140.2</ele>
        <time>2021-02-20T13:50:14Z</time>
      </trkpt>
      <trkpt lat="45.16057" lon="5.91997">
        <ele>2140.2</ele>
        <time>2021-02-20T13:50:15Z</time>
      </trkpt>
      <trkpt lat="45.16057" lon="5.91998">
        <ele>2140.3</ele>
        <time>2021-02-20T13:50:16Z</time>
      </trkpt>
      <trkpt lat="45.16057" lon="5.91998">
        <ele>2140.4</ele>
        <time>2021-02-20T13:50:17Z</time>
      </trkpt>
      <trkpt lat="45.16056" lon="5.91999">
        <ele>2140.5</ele>
        <time>2021-02-20T13:50:18Z</time>
      </trkpt>
      <trkpt lat="45.16056" lon="5.92001">
        <ele>2140.7</ele>
        <time>2021-02-20T13:50:19Z</time>
      </trkpt>
      <trkpt lat="45.16055" lon="5.92002">
        <ele>2140.8</ele>
        <time>2021-02-20T13:50:20Z</time>
      </trkpt>
      <trkpt lat="45.16055" lon="5.92003">
        <ele>2141</ele>
        <time>2021-02-20T13:50:21Z</time>
      </trkpt>
      <trkpt lat="45.16054" lon="5.92004">
        <ele>2141.1</ele>
        <time>2021-02-20T13:50:22Z</time>
      </trkpt>
      <trkpt lat="45.16054" lon="5.92005">
        <ele>2141.2</ele>
        <time>2021-02-20T13:50:23Z</time>
      </trkpt>
      <trkpt lat="45.16054" lon="5.92005">
        <ele>2141.3</ele>
        <time>2021-02-20T13:50:24Z</time>
      </trkpt>
      <trkpt lat="45.16054" lon="5.92006">
        <ele>2141.4</ele>
        <time>2021-02-20T13:50:25Z</time>
      </trkpt>
      <trkpt lat="45.16054" lon="5.92007">
        <ele>2141.5</ele>
        <time>2021-02-20T13:50:26Z</time>
      </trkpt>
      <trkpt lat="45.16053" lon="5.92008">
        <ele>2141.7</ele>
        <time>2021-02-20T13:50:27Z</time>
      </trkpt>
      <trkpt lat="45.16053" lon="5.92009">
        <ele>2141.8</ele>
        <time>2021-02-20T13:50:28Z</time>
      </trkpt>
      <trkpt lat="45.16053" lon="5.9201">
        <ele>2141.9</ele>
        <time>2021-02-20T13:50:29Z</time>
      </trkpt>
      <trkpt lat="45.16053" lon="5.92012">
        <ele>2142.1</ele>
        <time>2021-02-20T13:50:30Z</time>
      </trkpt>
      <trkpt lat="45.16053" lon="5.92013">
        <ele>2142.2</ele>
        <time>2021-02-20T13:50:31Z</time>
      </trkpt>
      <trkpt lat="45.16053" lon="5.92014">
        <ele>2142.4</ele>
        <time>2021-02-20T13:50:32Z</time>
      </trkpt>
      <trkpt lat="45.16053" lon="5.92016">
        <ele>2142.5</ele>
        <time>2021-02-20T13:50:33Z</time>
      </trkpt>
      <trkpt lat="45.16053" lon="5.92017">
        <ele>2142.7</ele>
        <time>2021-02-20T13:50:34Z</time>
      </trkpt>
      <trkpt lat="45.16053" lon="5.92018">
        <ele>2142.8</ele>
        <time>2021-02-20T13:50:35Z</time>
      </trkpt>
      <trkpt lat="45.16053" lon="5.92019">
        <ele>2143</ele>
        <time>2021-02-20T13:50:36Z</time>
      </trkpt>
      <trkpt lat="45.16053" lon="5.9202">
        <ele>2143.1</ele>
        <time>2021-02-20T13:50:37Z</time>
      </trkpt>
      <trkpt lat="45.16053" lon="5.92021">
        <ele>2143.2</ele>
        <time>2021-02-20T13:50:38Z</time>
      </trkpt>
      <trkpt lat="45.16053" lon="5.92022">
        <ele>2143.3</ele>
        <time>2021-02-20T13:50:39Z</time>
      </trkpt>
      <trkpt lat="45.16053" lon="5.92023">
        <ele>2143.4</ele>
        <time>2021-02-20T13:50:40Z</time>
      </trkpt>
      <trkpt lat="45.16053" lon="5.92024">
        <ele>2143.6</ele>
        <time>2021-02-20T13:50:41Z</time>
      </trkpt>
      <trkpt lat="45.16053" lon="5.92025">
        <ele>2143.7</ele>
        <time>2021-02-20T13:50:42Z</time>
      </trkpt>
      <trkpt lat="45.16053" lon="5.92026">
        <ele>2143.8</ele>
        <time>2021-02-20T13:50:43Z</time>
      </trkpt>
      <trkpt lat="45.16053" lon="5.92027">
        <ele>2143.9</ele>
        <time>2021-02-20T13:50:44Z</time>
      </trkpt>
      <trkpt lat="45.16053" lon="5.92028">
        <ele>2144</ele>
        <time>2021-02-20T13:50:45Z</time>
      </trkpt>
      <trkpt lat="45.16053" lon="5.92029">
        <ele>2144.2</ele>
        <time>2021-02-20T13:50:46Z</time>
      </trkpt>
      <trkpt lat="45.16053" lon="5.9203">
        <ele>2144.3</ele>
        <time>2021-02-20T13:50:47Z</time>
      </trkpt>
      <trkpt lat="45.16053" lon="5.92032">
        <ele>2144.5</ele>
        <time>2021-02-20T13:50:48Z</time>
      </trkpt>
      <trkpt lat="45.16053" lon="5.92033">
        <ele>2144.6</ele>
        <time>2021-02-20T13:50:49Z</time>
      </trkpt>
      <trkpt lat="45.16053" lon="5.92034">
        <ele>2144.7</ele>
        <time>2021-02-20T13:50:50Z</time>
      </trkpt>
      <trkpt lat="45.16053" lon="5.92035">
        <ele>2144.9</ele>
        <time>2021-02-20T13:50:51Z</time>
      </trkpt>
      <trkpt lat="45.16052" lon="5.92036">
        <ele>2145</ele>
        <time>2021-02-20T13:50:52Z</time>
      </trkpt>
      <trkpt lat="45.16052" lon="5.92037">
        <ele>2145.1</ele>
        <time>2021-02-20T13:50:53Z</time>
      </trkpt>
      <trkpt lat="45.16052" lon="5.92038">
        <ele>2145.2</ele>
        <time>2021-02-20T13:50:54Z</time>
      </trkpt>
      <trkpt lat="45.16052" lon="5.92039">
        <ele>2145.3</ele>
        <time>2021-02-20T13:50:55Z</time>
      </trkpt>
      <trkpt lat="45.16052" lon="5.9204">
        <ele>2145.4</ele>
        <time>2021-02-20T13:50:56Z</time>
      </trkpt>
      <trkpt lat="45.16052" lon="5.92041">
        <ele>2145.6</ele>
        <time>2021-02-20T13:50:57Z</time>
      </trkpt>
      <trkpt lat="45.16052" lon="5.92042">
        <ele>2145.7</ele>
        <time>2021-02-20T13:50:58Z</time>
      </trkpt>
      <trkpt lat="45.16052" lon="5.92043">
        <ele>2145.8</ele>
        <time>2021-02-20T13:50:59Z</time>
      </trkpt>
      <trkpt lat="45.16052" lon="5.92044">
        <ele>2146</ele>
        <time>2021-02-20T13:51:00Z</time>
      </trkpt>
      <trkpt lat="45.16053" lon="5.92045">
        <ele>2146.1</ele>
        <time>2021-02-20T13:51:01Z</time>
      </trkpt>
      <trkpt lat="45.16053" lon="5.92046">
        <ele>2146.2</ele>
        <time>2021-02-20T13:51:02Z</time>
      </trkpt>
      <trkpt lat="45.16053" lon="5.92047">
        <ele>2146.3</ele>
        <time>2021-02-20T13:51:03Z</time>
      </trkpt>
      <trkpt lat="45.16053" lon="5.92048">
        <ele>2146.5</ele>
        <time>2021-02-20T13:51:04Z</time>
      </trkpt>
      <trkpt lat="45.16054" lon="5.92049">
        <ele>2146.6</ele>
        <time>2021-02-20T13:51:05Z</time>
      </trkpt>
      <trkpt lat="45.16054" lon="5.9205">
        <ele>2146.7</ele>
        <time>2021-02-20T13:51:06Z</time>
      </trkpt>
      <trkpt lat="45.16054" lon="5.92051">
        <ele>2146.8</ele>
        <time>2021-02-20T13:51:07Z</time>
      </trkpt>
      <trkpt lat="45.16054" lon="5.92052">
        <ele>2146.9</ele>
        <time>2021-02-20T13:51:08Z</time>
      </trkpt>
      <trkpt lat="45.16054" lon="5.92053">
        <ele>2147</ele>
        <time>2021-02-20T13:51:09Z</time>
      </trkpt>
      <trkpt lat="45.16054" lon="5.92053">
        <ele>2147.1</ele>
        <time>2021-02-20T13:51:10Z</time>
      </trkpt>
      <trkpt lat="45.16055" lon="5.92054">
        <ele>2147.2</ele>
        <time>2021-02-20T13:51:11Z</time>
      </trkpt>
      <trkpt lat="45.16055" lon="5.92055">
        <ele>2147.3</ele>
        <time>2021-02-20T13:51:12Z</time>
      </trkpt>
      <trkpt lat="45.16055" lon="5.92056">
        <ele>2147.5</ele>
        <time>2021-02-20T13:51:13Z</time>
      </trkpt>
      <trkpt lat="45.16056" lon="5.92057">
        <ele>2147.6</ele>
        <time>2021-02-20T13:51:14Z</time>
      </trkpt>
      <trkpt lat="45.16056" lon="5.92058">
        <ele>2147.7</ele>
        <time>2021-02-20T13:51:15Z</time>
      </trkpt>
      <trkpt lat="45.16056" lon="5.92059">
        <ele>2147.8</ele>
        <time>2021-02-20T13:51:16Z</time>
      </trkpt>
      <trkpt lat="45.16056" lon="5.9206">
        <ele>2147.9</ele>
        <time>2021-02-20T13:51:17Z</time>
      </trkpt>
      <trkpt lat="45.16056" lon="5.92061">
        <ele>2148.1</ele>
        <time>2021-02-20T13:51:18Z</time>
      </trkpt>
      <trkpt lat="45.16056" lon="5.92062">
        <ele>2148.2</ele>
        <time>2021-02-20T13:51:19Z</time>
      </trkpt>
      <trkpt lat="45.16056" lon="5.92063">
        <ele>2148.3</ele>
        <time>2021-02-20T13:51:20Z</time>
      </trkpt>
      <trkpt lat="45.16056" lon="5.92064">
        <ele>2148.4</ele>
        <time>2021-02-20T13:51:21Z</time>
      </trkpt>
      <trkpt lat="45.16056" lon="5.92065">
        <ele>2148.6</ele>
        <time>2021-02-20T13:51:22Z</time>
      </trkpt>
      <trkpt lat="45.16056" lon="5.92066">
        <ele>2148.7</ele>
        <time>2021-02-20T13:51:23Z</time>
      </trkpt>
      <trkpt lat="45.16056" lon="5.92067">
        <ele>2148.8</ele>
        <time>2021-02-20T13:51:24Z</time>
      </trkpt>
      <trkpt lat="45.16056" lon="5.92068">
        <ele>2148.9</ele>
        <time>2021-02-20T13:51:25Z</time>
      </trkpt>
      <trkpt lat="45.16056" lon="5.92069">
        <ele>2149.1</ele>
        <time>2021-02-20T13:51:26Z</time>
      </trkpt>
      <trkpt lat="45.16056" lon="5.9207">
        <ele>2149.2</ele>
        <time>2021-02-20T13:51:27Z</time>
      </trkpt>
      <trkpt lat="45.16056" lon="5.92071">
        <ele>2149.3</ele>
        <time>2021-02-20T13:51:28Z</time>
      </trkpt>
      <trkpt lat="45.16056" lon="5.92072">
        <ele>2149.4</ele>
        <time>2021-02-20T13:51:29Z</time>
      </trkpt>
      <trkpt lat="45.16056" lon="5.92073">
        <ele>2149.5</ele>
        <time>2021-02-20T13:51:30Z</time>
      </trkpt>
      <trkpt lat="45.16056" lon="5.92074">
        <ele>2149.6</ele>
        <time>2021-02-20T13:51:31Z</time>
      </trkpt>
      <trkpt lat="45.16056" lon="5.92075">
        <ele>2149.7</ele>
        <time>2021-02-20T13:51:32Z</time>
      </trkpt>
      <trkpt lat="45.16056" lon="5.92076">
        <ele>2149.8</ele>
        <time>2021-02-20T13:51:33Z</time>
      </trkpt>
      <trkpt lat="45.16056" lon="5.92076">
        <ele>2149.9</ele>
        <time>2021-02-20T13:51:34Z</time>
      </trkpt>
      <trkpt lat="45.16056" lon="5.92077">
        <ele>2150</ele>
        <time>2021-02-20T13:51:35Z</time>
      </trkpt>
      <trkpt lat="45.16056" lon="5.92076">
        <ele>2150.1</ele>
        <time>2021-02-20T13:51:36Z</time>
      </trkpt>
      <trkpt lat="45.16056" lon="5.92075">
        <ele>2150.2</ele>
        <time>2021-02-20T13:51:37Z</time>
      </trkpt>
      <trkpt lat="45.16057" lon="5.92074">
        <ele>2150.3</ele>
        <time>2021-02-20T13:51:38Z</time>
      </trkpt>
      <trkpt lat="45.16057" lon="5.92074">
        <ele>2150.4</ele>
        <time>2021-02-20T13:51:39Z</time>
      </trkpt>
      <trkpt lat="45.16057" lon="5.92073">
        <ele>2150.5</ele>
        <time>2021-02-20T13:51:40Z</time>
      </trkpt>
      <trkpt lat="45.16057" lon="5.92072">
        <ele>2150.6</ele>
        <time>2021-02-20T13:51:41Z</time>
      </trkpt>
      <trkpt lat="45.16058" lon="5.92071">
        <ele>2150.7</ele>
        <time>2021-02-20T13:51:42Z</time>
      </trkpt>
      <trkpt lat="45.16058" lon="5.92071">
        <ele>2150.8</ele>
        <time>2021-02-20T13:51:45Z</time>
      </trkpt>
      <trkpt lat="45.16058" lon="5.9207">
        <ele>2150.9</ele>
        <time>2021-02-20T13:51:46Z</time>
      </trkpt>
      <trkpt lat="45.16059" lon="5.92069">
        <ele>2151</ele>
        <time>2021-02-20T13:51:47Z</time>
      </trkpt>
      <trkpt lat="45.16059" lon="5.92068">
        <ele>2151.1</ele>
        <time>2021-02-20T13:51:48Z</time>
      </trkpt>
      <trkpt lat="45.16059" lon="5.92068">
        <ele>2151.2</ele>
        <time>2021-02-20T13:51:49Z</time>
      </trkpt>
      <trkpt lat="45.1606" lon="5.92067">
        <ele>2151.3</ele>
        <time>2021-02-20T13:51:50Z</time>
      </trkpt>
      <trkpt lat="45.16061" lon="5.92066">
        <ele>2151.5</ele>
        <time>2021-02-20T13:51:51Z</time>
      </trkpt>
      <trkpt lat="45.16061" lon="5.92065">
        <ele>2151.6</ele>
        <time>2021-02-20T13:51:52Z</time>
      </trkpt>
      <trkpt lat="45.16061" lon="5.92065">
        <ele>2151.7</ele>
        <time>2021-02-20T13:51:53Z</time>
      </trkpt>
      <trkpt lat="45.16062" lon="5.92064">
        <ele>2151.8</ele>
        <time>2021-02-20T13:51:54Z</time>
      </trkpt>
      <trkpt lat="45.16062" lon="5.92063">
        <ele>2151.9</ele>
        <time>2021-02-20T13:51:55Z</time>
      </trkpt>
      <trkpt lat="45.16063" lon="5.92062">
        <ele>2152</ele>
        <time>2021-02-20T13:51:56Z</time>
      </trkpt>
      <trkpt lat="45.16063" lon="5.92061">
        <ele>2152.2</ele>
        <time>2021-02-20T13:51:57Z</time>
      </trkpt>
      <trkpt lat="45.16064" lon="5.92061">
        <ele>2152.3</ele>
        <time>2021-02-20T13:51:58Z</time>
      </trkpt>
      <trkpt lat="45.16064" lon="5.9206">
        <ele>2152.4</ele>
        <time>2021-02-20T13:51:59Z</time>
      </trkpt>
      <trkpt lat="45.16065" lon="5.92059">
        <ele>2152.5</ele>
        <time>2021-02-20T13:52:00Z</time>
      </trkpt>
      <trkpt lat="45.16065" lon="5.92058">
        <ele>2152.6</ele>
        <time>2021-02-20T13:52:01Z</time>
      </trkpt>
      <trkpt lat="45.16065" lon="5.92058">
        <ele>2152.7</ele>
        <time>2021-02-20T13:52:02Z</time>
      </trkpt>
      <trkpt lat="45.16066" lon="5.92057">
        <ele>2152.9</ele>
        <time>2021-02-20T13:52:03Z</time>
      </trkpt>
      <trkpt lat="45.16066" lon="5.92056">
        <ele>2153</ele>
        <time>2021-02-20T13:52:04Z</time>
      </trkpt>
      <trkpt lat="45.16067" lon="5.92055">
        <ele>2153.2</ele>
        <time>2021-02-20T13:52:05Z</time>
      </trkpt>
      <trkpt lat="45.16067" lon="5.92054">
        <ele>2153.3</ele>
        <time>2021-02-20T13:52:06Z</time>
      </trkpt>
      <trkpt lat="45.16068" lon="5.92053">
        <ele>2153.5</ele>
        <time>2021-02-20T13:52:07Z</time>
      </trkpt>
      <trkpt lat="45.16068" lon="5.92052">
        <ele>2153.6</ele>
        <time>2021-02-20T13:52:08Z</time>
      </trkpt>
      <trkpt lat="45.16069" lon="5.92051">
        <ele>2153.7</ele>
        <time>2021-02-20T13:52:09Z</time>
      </trkpt>
      <trkpt lat="45.16069" lon="5.9205">
        <ele>2153.8</ele>
        <time>2021-02-20T13:52:10Z</time>
      </trkpt>
      <trkpt lat="45.1607" lon="5.9205">
        <ele>2153.9</ele>
        <time>2021-02-20T13:52:11Z</time>
      </trkpt>
      <trkpt lat="45.1607" lon="5.92049">
        <ele>2154</ele>
        <time>2021-02-20T13:52:12Z</time>
      </trkpt>
      <trkpt lat="45.16071" lon="5.92049">
        <ele>2154.1</ele>
        <time>2021-02-20T13:52:13Z</time>
      </trkpt>
      <trkpt lat="45.16071" lon="5.92048">
        <ele>2154.3</ele>
        <time>2021-02-20T13:52:14Z</time>
      </trkpt>
      <trkpt lat="45.16072" lon="5.92047">
        <ele>2154.4</ele>
        <time>2021-02-20T13:52:15Z</time>
      </trkpt>
      <trkpt lat="45.16072" lon="5.92047">
        <ele>2154.5</ele>
        <time>2021-02-20T13:52:16Z</time>
      </trkpt>
      <trkpt lat="45.16073" lon="5.92046">
        <ele>2154.6</ele>
        <time>2021-02-20T13:52:17Z</time>
      </trkpt>
      <trkpt lat="45.16073" lon="5.92046">
        <ele>2154.7</ele>
        <time>2021-02-20T13:52:18Z</time>
      </trkpt>
      <trkpt lat="45.16074" lon="5.92045">
        <ele>2154.8</ele>
        <time>2021-02-20T13:52:19Z</time>
      </trkpt>
      <trkpt lat="45.16074" lon="5.92044">
        <ele>2154.9</ele>
        <time>2021-02-20T13:52:20Z</time>
      </trkpt>
      <trkpt lat="45.16075" lon="5.92044">
        <ele>2155</ele>
        <time>2021-02-20T13:52:21Z</time>
      </trkpt>
      <trkpt lat="45.16075" lon="5.92043">
        <ele>2155.2</ele>
        <time>2021-02-20T13:52:22Z</time>
      </trkpt>
      <trkpt lat="45.16076" lon="5.92043">
        <ele>2155.3</ele>
        <time>2021-02-20T13:52:23Z</time>
      </trkpt>
      <trkpt lat="45.16076" lon="5.92042">
        <ele>2155.4</ele>
        <time>2021-02-20T13:52:24Z</time>
      </trkpt>
      <trkpt lat="45.16077" lon="5.92041">
        <ele>2155.5</ele>
        <time>2021-02-20T13:52:25Z</time>
      </trkpt>
      <trkpt lat="45.16077" lon="5.92041">
        <ele>2155.6</ele>
        <time>2021-02-20T13:52:26Z</time>
      </trkpt>
      <trkpt lat="45.16078" lon="5.9204">
        <ele>2155.8</ele>
        <time>2021-02-20T13:52:27Z</time>
      </trkpt>
      <trkpt lat="45.16079" lon="5.92039">
        <ele>2155.9</ele>
        <time>2021-02-20T13:52:28Z</time>
      </trkpt>
      <trkpt lat="45.16079" lon="5.92038">
        <ele>2156</ele>
        <time>2021-02-20T13:52:29Z</time>
      </trkpt>
      <trkpt lat="45.1608" lon="5.92038">
        <ele>2156.2</ele>
        <time>2021-02-20T13:52:30Z</time>
      </trkpt>
      <trkpt lat="45.1608" lon="5.92037">
        <ele>2156.3</ele>
        <time>2021-02-20T13:52:31Z</time>
      </trkpt>
      <trkpt lat="45.16081" lon="5.92036">
        <ele>2156.4</ele>
        <time>2021-02-20T13:52:32Z</time>
      </trkpt>
      <trkpt lat="45.16081" lon="5.92035">
        <ele>2156.6</ele>
        <time>2021-02-20T13:52:33Z</time>
      </trkpt>
      <trkpt lat="45.16082" lon="5.92035">
        <ele>2156.7</ele>
        <time>2021-02-20T13:52:34Z</time>
      </trkpt>
      <trkpt lat="45.16083" lon="5.92035">
        <ele>2156.8</ele>
        <time>2021-02-20T13:52:35Z</time>
      </trkpt>
      <trkpt lat="45.16083" lon="5.92035">
        <ele>2156.9</ele>
        <time>2021-02-20T13:52:36Z</time>
      </trkpt>
      <trkpt lat="45.16084" lon="5.92035">
        <ele>2157.1</ele>
        <time>2021-02-20T13:52:37Z</time>
      </trkpt>
      <trkpt lat="45.16086" lon="5.92035">
        <ele>2157.3</ele>
        <time>2021-02-20T13:52:38Z</time>
      </trkpt>
      <trkpt lat="45.16086" lon="5.92035">
        <ele>2157.4</ele>
        <time>2021-02-20T13:52:39Z</time>
      </trkpt>
      <trkpt lat="45.16087" lon="5.92035">
        <ele>2157.6</ele>
        <time>2021-02-20T13:52:40Z</time>
      </trkpt>
      <trkpt lat="45.16088" lon="5.92036">
        <ele>2157.8</ele>
        <time>2021-02-20T13:52:41Z</time>
      </trkpt>
      <trkpt lat="45.16089" lon="5.92036">
        <ele>2157.9</ele>
        <time>2021-02-20T13:52:42Z</time>
      </trkpt>
      <trkpt lat="45.1609" lon="5.92037">
        <ele>2158.1</ele>
        <time>2021-02-20T13:52:43Z</time>
      </trkpt>
      <trkpt lat="45.16091" lon="5.92037">
        <ele>2158.2</ele>
        <time>2021-02-20T13:52:44Z</time>
      </trkpt>
      <trkpt lat="45.16091" lon="5.92038">
        <ele>2158.4</ele>
        <time>2021-02-20T13:52:45Z</time>
      </trkpt>
      <trkpt lat="45.16092" lon="5.92039">
        <ele>2158.5</ele>
        <time>2021-02-20T13:52:46Z</time>
      </trkpt>
      <trkpt lat="45.16093" lon="5.9204">
        <ele>2158.7</ele>
        <time>2021-02-20T13:52:47Z</time>
      </trkpt>
      <trkpt lat="45.16093" lon="5.9204">
        <ele>2158.8</ele>
        <time>2021-02-20T13:52:48Z</time>
      </trkpt>
      <trkpt lat="45.16094" lon="5.92041">
        <ele>2159</ele>
        <time>2021-02-20T13:52:49Z</time>
      </trkpt>
      <trkpt lat="45.16095" lon="5.92042">
        <ele>2159.1</ele>
        <time>2021-02-20T13:52:50Z</time>
      </trkpt>
      <trkpt lat="45.16096" lon="5.92043">
        <ele>2159.3</ele>
        <time>2021-02-20T13:52:51Z</time>
      </trkpt>
      <trkpt lat="45.16097" lon="5.92043">
        <ele>2159.4</ele>
        <time>2021-02-20T13:52:52Z</time>
      </trkpt>
      <trkpt lat="45.16097" lon="5.92044">
        <ele>2159.6</ele>
        <time>2021-02-20T13:52:53Z</time>
      </trkpt>
      <trkpt lat="45.16098" lon="5.92044">
        <ele>2159.7</ele>
        <time>2021-02-20T13:52:54Z</time>
      </trkpt>
      <trkpt lat="45.16098" lon="5.92045">
        <ele>2159.7</ele>
        <time>2021-02-20T13:52:55Z</time>
      </trkpt>
      <trkpt lat="45.16098" lon="5.92045">
        <ele>2159.8</ele>
        <time>2021-02-20T13:52:56Z</time>
      </trkpt>
      <trkpt lat="45.161" lon="5.92047">
        <ele>2160.1</ele>
        <time>2021-02-20T13:52:57Z</time>
      </trkpt>
      <trkpt lat="45.161" lon="5.92047">
        <ele>2160.2</ele>
        <time>2021-02-20T13:52:58Z</time>
      </trkpt>
      <trkpt lat="45.16101" lon="5.92048">
        <ele>2160.4</ele>
        <time>2021-02-20T13:52:59Z</time>
      </trkpt>
      <trkpt lat="45.16102" lon="5.92049">
        <ele>2160.5</ele>
        <time>2021-02-20T13:53:00Z</time>
      </trkpt>
      <trkpt lat="45.16103" lon="5.92049">
        <ele>2160.7</ele>
        <time>2021-02-20T13:53:01Z</time>
      </trkpt>
      <trkpt lat="45.16103" lon="5.9205">
        <ele>2160.7</ele>
        <time>2021-02-20T13:53:02Z</time>
      </trkpt>
      <trkpt lat="45.16104" lon="5.9205">
        <ele>2161</ele>
        <time>2021-02-20T13:53:03Z</time>
      </trkpt>
      <trkpt lat="45.16105" lon="5.92051">
        <ele>2161</ele>
        <time>2021-02-20T13:53:04Z</time>
      </trkpt>
      <trkpt lat="45.16106" lon="5.92052">
        <ele>2163</ele>
        <time>2021-02-20T14:01:43Z</time>
      </trkpt>
      <trkpt lat="45.16107" lon="5.92052">
        <ele>2163</ele>
        <time>2021-02-20T14:01:44Z</time>
      </trkpt>
      <trkpt lat="45.16107" lon="5.92053">
        <ele>2163.3</ele>
        <time>2021-02-20T14:01:45Z</time>
      </trkpt>
      <trkpt lat="45.16108" lon="5.92054">
        <ele>2163.3</ele>
        <time>2021-02-20T14:01:46Z</time>
      </trkpt>
      <trkpt lat="45.16109" lon="5.92053">
        <ele>2163.3</ele>
        <time>2021-02-20T14:01:47Z</time>
      </trkpt>
      <trkpt lat="45.1611" lon="5.92052">
        <ele>2163.3</ele>
        <time>2021-02-20T14:01:48Z</time>
      </trkpt>
      <trkpt lat="45.1611" lon="5.92051">
        <ele>2161.3</ele>
        <time>2021-02-20T14:01:49Z</time>
      </trkpt>
      <trkpt lat="45.16111" lon="5.92051">
        <ele>2161.6</ele>
        <time>2021-02-20T14:01:50Z</time>
      </trkpt>
      <trkpt lat="45.16111" lon="5.9205">
        <ele>2161.5</ele>
        <time>2021-02-20T14:01:51Z</time>
      </trkpt>
      <trkpt lat="45.16111" lon="5.92048">
        <ele>2161.5</ele>
        <time>2021-02-20T14:01:52Z</time>
      </trkpt>
      <trkpt lat="45.16112" lon="5.92047">
        <ele>2161.5</ele>
        <time>2021-02-20T14:01:53Z</time>
      </trkpt>
      <trkpt lat="45.16112" lon="5.92047">
        <ele>2159.5</ele>
        <time>2021-02-20T14:01:54Z</time>
      </trkpt>
      <trkpt lat="45.16112" lon="5.92046">
        <ele>2159.5</ele>
        <time>2021-02-20T14:01:55Z</time>
      </trkpt>
      <trkpt lat="45.16112" lon="5.92046">
        <ele>2159.5</ele>
        <time>2021-02-20T14:01:56Z</time>
      </trkpt>
      <trkpt lat="45.16112" lon="5.92045">
        <ele>2159.5</ele>
        <time>2021-02-20T14:01:57Z</time>
      </trkpt>
      <trkpt lat="45.16112" lon="5.92043">
        <ele>2157.4</ele>
        <time>2021-02-20T14:01:58Z</time>
      </trkpt>
      <trkpt lat="45.16112" lon="5.92042">
        <ele>2157.4</ele>
        <time>2021-02-20T14:01:59Z</time>
      </trkpt>
      <trkpt lat="45.16113" lon="5.92041">
        <ele>2157.4</ele>
        <time>2021-02-20T14:02:00Z</time>
      </trkpt>
      <trkpt lat="45.16113" lon="5.9204">
        <ele>2157.5</ele>
        <time>2021-02-20T14:02:01Z</time>
      </trkpt>
      <trkpt lat="45.16114" lon="5.92039">
        <ele>2157.5</ele>
        <time>2021-02-20T14:02:02Z</time>
      </trkpt>
      <trkpt lat="45.16115" lon="5.92037">
        <ele>2155.3</ele>
        <time>2021-02-20T14:02:03Z</time>
      </trkpt>
      <trkpt lat="45.16115" lon="5.92035">
        <ele>2155.3</ele>
        <time>2021-02-20T14:02:04Z</time>
      </trkpt>
      <trkpt lat="45.16114" lon="5.92033">
        <ele>2152.9</ele>
        <time>2021-02-20T14:02:05Z</time>
      </trkpt>
      <trkpt lat="45.16113" lon="5.92032">
        <ele>2152.8</ele>
        <time>2021-02-20T14:02:06Z</time>
      </trkpt>
      <trkpt lat="45.16112" lon="5.92032">
        <ele>2152.8</ele>
        <time>2021-02-20T14:02:07Z</time>
      </trkpt>
      <trkpt lat="45.16111" lon="5.92032">
        <ele>2152.8</ele>
        <time>2021-02-20T14:02:08Z</time>
      </trkpt>
      <trkpt lat="45.16111" lon="5.9203">
        <ele>2152.8</ele>
        <time>2021-02-20T14:02:09Z</time>
      </trkpt>
      <trkpt lat="45.16111" lon="5.9203">
        <ele>2150.3</ele>
        <time>2021-02-20T14:02:10Z</time>
      </trkpt>
      <trkpt lat="45.16111" lon="5.92029">
        <ele>2150.3</ele>
        <time>2021-02-20T14:02:11Z</time>
      </trkpt>
      <trkpt lat="45.16111" lon="5.92028">
        <ele>2150.3</ele>
        <time>2021-02-20T14:02:12Z</time>
      </trkpt>
      <trkpt lat="45.16112" lon="5.92028">
        <ele>2150.3</ele>
        <time>2021-02-20T14:02:13Z</time>
      </trkpt>
      <trkpt lat="45.16112" lon="5.92027">
        <ele>2150.3</ele>
        <time>2021-02-20T14:02:14Z</time>
      </trkpt>
      <trkpt lat="45.16112" lon="5.92026">
        <ele>2150.3</ele>
        <time>2021-02-20T14:02:15Z</time>
      </trkpt>
      <trkpt lat="45.16113" lon="5.92024">
        <ele>2147.8</ele>
        <time>2021-02-20T14:02:16Z</time>
      </trkpt>
      <trkpt lat="45.16114" lon="5.92022">
        <ele>2147.8</ele>
        <time>2021-02-20T14:02:17Z</time>
      </trkpt>
      <trkpt lat="45.16113" lon="5.92021">
        <ele>2145.2</ele>
        <time>2021-02-20T14:02:18Z</time>
      </trkpt>
      <trkpt lat="45.16113" lon="5.92021">
        <ele>2145.3</ele>
        <time>2021-02-20T14:02:19Z</time>
      </trkpt>
      <trkpt lat="45.16112" lon="5.92021">
        <ele>2145.3</ele>
        <time>2021-02-20T14:02:20Z</time>
      </trkpt>
      <trkpt lat="45.16112" lon="5.92021">
        <ele>2145.2</ele>
        <time>2021-02-20T14:02:21Z</time>
      </trkpt>
      <trkpt lat="45.16111" lon="5.9202">
        <ele>2145.2</ele>
        <time>2021-02-20T14:02:22Z</time>
      </trkpt>
      <trkpt lat="45.16109" lon="5.9202">
        <ele>2145.2</ele>
        <time>2021-02-20T14:02:23Z</time>
      </trkpt>
      <trkpt lat="45.16109" lon="5.92019">
        <ele>2145.2</ele>
        <time>2021-02-20T14:02:24Z</time>
      </trkpt>
      <trkpt lat="45.16108" lon="5.92018">
        <ele>2145.2</ele>
        <time>2021-02-20T14:02:25Z</time>
      </trkpt>
      <trkpt lat="45.16108" lon="5.92017">
        <ele>2142.8</ele>
        <time>2021-02-20T14:02:26Z</time>
      </trkpt>
      <trkpt lat="45.16109" lon="5.92015">
        <ele>2142.8</ele>
        <time>2021-02-20T14:02:27Z</time>
      </trkpt>
      <trkpt lat="45.16111" lon="5.92013">
        <ele>2142.8</ele>
        <time>2021-02-20T14:02:28Z</time>
      </trkpt>
      <trkpt lat="45.16111" lon="5.92013">
        <ele>2142.8</ele>
        <time>2021-02-20T14:02:29Z</time>
      </trkpt>
      <trkpt lat="45.16112" lon="5.92013">
        <ele>2142.8</ele>
        <time>2021-02-20T14:02:30Z</time>
      </trkpt>
      <trkpt lat="45.16112" lon="5.92012">
        <ele>2140.4</ele>
        <time>2021-02-20T14:02:31Z</time>
      </trkpt>
      <trkpt lat="45.16112" lon="5.92011">
        <ele>2140.4</ele>
        <time>2021-02-20T14:02:32Z</time>
      </trkpt>
      <trkpt lat="45.16112" lon="5.92011">
        <ele>2140.4</ele>
        <time>2021-02-20T14:02:33Z</time>
      </trkpt>
      <trkpt lat="45.16112" lon="5.9201">
        <ele>2140.4</ele>
        <time>2021-02-20T14:02:34Z</time>
      </trkpt>
      <trkpt lat="45.16112" lon="5.92009">
        <ele>2140.4</ele>
        <time>2021-02-20T14:02:35Z</time>
      </trkpt>
      <trkpt lat="45.16112" lon="5.92008">
        <ele>2138.1</ele>
        <time>2021-02-20T14:02:36Z</time>
      </trkpt>
      <trkpt lat="45.16112" lon="5.92007">
        <ele>2138.1</ele>
        <time>2021-02-20T14:02:37Z</time>
      </trkpt>
      <trkpt lat="45.16109" lon="5.92003">
        <ele>2135.8</ele>
        <time>2021-02-20T14:02:38Z</time>
      </trkpt>
      <trkpt lat="45.16106" lon="5.92001">
        <ele>2135.9</ele>
        <time>2021-02-20T14:02:39Z</time>
      </trkpt>
      <trkpt lat="45.16104" lon="5.92001">
        <ele>2135.9</ele>
        <time>2021-02-20T14:02:40Z</time>
      </trkpt>
      <trkpt lat="45.16104" lon="5.92001">
        <ele>2135.9</ele>
        <time>2021-02-20T14:02:41Z</time>
      </trkpt>
      <trkpt lat="45.16104" lon="5.92001">
        <ele>2135.9</ele>
        <time>2021-02-20T14:02:42Z</time>
      </trkpt>
      <trkpt lat="45.16104" lon="5.92001">
        <ele>2135.9</ele>
        <time>2021-02-20T14:02:43Z</time>
      </trkpt>
      <trkpt lat="45.16104" lon="5.92001">
        <ele>2135.9</ele>
        <time>2021-02-20T14:02:44Z</time>
      </trkpt>
      <trkpt lat="45.16104" lon="5.92001">
        <ele>2135.9</ele>
        <time>2021-02-20T14:02:45Z</time>
      </trkpt>
      <trkpt lat="45.16104" lon="5.92003">
        <ele>2135.9</ele>
        <time>2021-02-20T14:02:46Z</time>
      </trkpt>
      <trkpt lat="45.16104" lon="5.92003">
        <ele>2135.8</ele>
        <time>2021-02-20T14:02:47Z</time>
      </trkpt>
      <trkpt lat="45.16105" lon="5.92003">
        <ele>2135.8</ele>
        <time>2021-02-20T14:02:48Z</time>
      </trkpt>
      <trkpt lat="45.16105" lon="5.92001">
        <ele>2135.8</ele>
        <time>2021-02-20T14:02:49Z</time>
      </trkpt>
      <trkpt lat="45.16104" lon="5.92">
        <ele>2133.6</ele>
        <time>2021-02-20T14:02:50Z</time>
      </trkpt>
      <trkpt lat="45.16106" lon="5.91997">
        <ele>2133.6</ele>
        <time>2021-02-20T14:02:51Z</time>
      </trkpt>
      <trkpt lat="45.16108" lon="5.91994">
        <ele>2131.3</ele>
        <time>2021-02-20T14:02:52Z</time>
      </trkpt>
      <trkpt lat="45.16112" lon="5.91991">
        <ele>2128.8</ele>
        <time>2021-02-20T14:02:53Z</time>
      </trkpt>
      <trkpt lat="45.16115" lon="5.91989">
        <ele>2128.7</ele>
        <time>2021-02-20T14:02:54Z</time>
      </trkpt>
      <trkpt lat="45.16118" lon="5.91988">
        <ele>2128.5</ele>
        <time>2021-02-20T14:02:55Z</time>
      </trkpt>
      <trkpt lat="45.1612" lon="5.91984">
        <ele>2125.9</ele>
        <time>2021-02-20T14:02:56Z</time>
      </trkpt>
      <trkpt lat="45.16121" lon="5.91983">
        <ele>2125.9</ele>
        <time>2021-02-20T14:02:57Z</time>
      </trkpt>
      <trkpt lat="45.16119" lon="5.91979">
        <ele>2123.6</ele>
        <time>2021-02-20T14:02:58Z</time>
      </trkpt>
      <trkpt lat="45.16118" lon="5.91978">
        <ele>2121</ele>
        <time>2021-02-20T14:02:59Z</time>
      </trkpt>
      <trkpt lat="45.16114" lon="5.91977">
        <ele>2121.2</ele>
        <time>2021-02-20T14:03:00Z</time>
      </trkpt>
      <trkpt lat="45.16113" lon="5.91977">
        <ele>2121.4</ele>
        <time>2021-02-20T14:03:01Z</time>
      </trkpt>
      <trkpt lat="45.16111" lon="5.91976">
        <ele>2121.4</ele>
        <time>2021-02-20T14:03:02Z</time>
      </trkpt>
      <trkpt lat="45.1611" lon="5.91976">
        <ele>2121.5</ele>
        <time>2021-02-20T14:03:03Z</time>
      </trkpt>
      <trkpt lat="45.16108" lon="5.91974">
        <ele>2119</ele>
        <time>2021-02-20T14:03:04Z</time>
      </trkpt>
      <trkpt lat="45.16107" lon="5.91973">
        <ele>2119</ele>
        <time>2021-02-20T14:03:05Z</time>
      </trkpt>
      <trkpt lat="45.16106" lon="5.91971">
        <ele>2119.2</ele>
        <time>2021-02-20T14:03:06Z</time>
      </trkpt>
      <trkpt lat="45.16106" lon="5.91967">
        <ele>2116.7</ele>
        <time>2021-02-20T14:03:07Z</time>
      </trkpt>
      <trkpt lat="45.16107" lon="5.91965">
        <ele>2114.5</ele>
        <time>2021-02-20T14:03:08Z</time>
      </trkpt>
      <trkpt lat="45.16108" lon="5.91961">
        <ele>2112.1</ele>
        <time>2021-02-20T14:03:09Z</time>
      </trkpt>
      <trkpt lat="45.16111" lon="5.91957">
        <ele>2111.8</ele>
        <time>2021-02-20T14:03:10Z</time>
      </trkpt>
      <trkpt lat="45.16112" lon="5.91954">
        <ele>2109.7</ele>
        <time>2021-02-20T14:03:11Z</time>
      </trkpt>
      <trkpt lat="45.16111" lon="5.91949">
        <ele>2107.6</ele>
        <time>2021-02-20T14:03:12Z</time>
      </trkpt>
      <trkpt lat="45.16109" lon="5.91945">
        <ele>2105.6</ele>
        <time>2021-02-20T14:03:13Z</time>
      </trkpt>
      <trkpt lat="45.16106" lon="5.91942">
        <ele>2103.5</ele>
        <time>2021-02-20T14:03:14Z</time>
      </trkpt>
      <trkpt lat="45.16103" lon="5.91939">
        <ele>2101.4</ele>
        <time>2021-02-20T14:03:15Z</time>
      </trkpt>
      <trkpt lat="45.16099" lon="5.91935">
        <ele>2099.2</ele>
        <time>2021-02-20T14:03:16Z</time>
      </trkpt>
      <trkpt lat="45.16093" lon="5.91933">
        <ele>2099.4</ele>
        <time>2021-02-20T14:03:17Z</time>
      </trkpt>
      <trkpt lat="45.16092" lon="5.91933">
        <ele>2099.4</ele>
        <time>2021-02-20T14:03:18Z</time>
      </trkpt>
      <trkpt lat="45.16091" lon="5.91933">
        <ele>2099.4</ele>
        <time>2021-02-20T14:03:19Z</time>
      </trkpt>
      <trkpt lat="45.16091" lon="5.91931">
        <ele>2097.2</ele>
        <time>2021-02-20T14:03:20Z</time>
      </trkpt>
      <trkpt lat="45.16091" lon="5.91929">
        <ele>2097.1</ele>
        <time>2021-02-20T14:03:21Z</time>
      </trkpt>
      <trkpt lat="45.16091" lon="5.91927">
        <ele>2094.9</ele>
        <time>2021-02-20T14:03:22Z</time>
      </trkpt>
      <trkpt lat="45.16093" lon="5.91922">
        <ele>2092.6</ele>
        <time>2021-02-20T14:03:23Z</time>
      </trkpt>
      <trkpt lat="45.16094" lon="5.9192">
        <ele>2092.6</ele>
        <time>2021-02-20T14:03:24Z</time>
      </trkpt>
      <trkpt lat="45.16099" lon="5.91916">
        <ele>2090.1</ele>
        <time>2021-02-20T14:03:25Z</time>
      </trkpt>
      <trkpt lat="45.16104" lon="5.91914">
        <ele>2087.7</ele>
        <time>2021-02-20T14:03:26Z</time>
      </trkpt>
      <trkpt lat="45.16108" lon="5.91914">
        <ele>2087.1</ele>
        <time>2021-02-20T14:03:27Z</time>
      </trkpt>
      <trkpt lat="45.16111" lon="5.91915">
        <ele>2088.9</ele>
        <time>2021-02-20T14:03:28Z</time>
      </trkpt>
      <trkpt lat="45.16115" lon="5.91916">
        <ele>2088.6</ele>
        <time>2021-02-20T14:03:29Z</time>
      </trkpt>
      <trkpt lat="45.16116" lon="5.91916">
        <ele>2088.6</ele>
        <time>2021-02-20T14:03:30Z</time>
      </trkpt>
      <trkpt lat="45.16117" lon="5.91916">
        <ele>2088.2</ele>
        <time>2021-02-20T14:03:31Z</time>
      </trkpt>
      <trkpt lat="45.16118" lon="5.91916">
        <ele>2088.2</ele>
        <time>2021-02-20T14:03:32Z</time>
      </trkpt>
      <trkpt lat="45.1612" lon="5.91916">
        <ele>2087.9</ele>
        <time>2021-02-20T14:03:33Z</time>
      </trkpt>
      <trkpt lat="45.16121" lon="5.91914">
        <ele>2087.9</ele>
        <time>2021-02-20T14:03:34Z</time>
      </trkpt>
      <trkpt lat="45.1612" lon="5.91912">
        <ele>2085.6</ele>
        <time>2021-02-20T14:03:35Z</time>
      </trkpt>
      <trkpt lat="45.16119" lon="5.91911">
        <ele>2085.6</ele>
        <time>2021-02-20T14:03:36Z</time>
      </trkpt>
      <trkpt lat="45.16118" lon="5.91911">
        <ele>2085.9</ele>
        <time>2021-02-20T14:03:37Z</time>
      </trkpt>
      <trkpt lat="45.16117" lon="5.91911">
        <ele>2085.9</ele>
        <time>2021-02-20T14:03:38Z</time>
      </trkpt>
      <trkpt lat="45.16116" lon="5.9191">
        <ele>2085.9</ele>
        <time>2021-02-20T14:03:39Z</time>
      </trkpt>
      <trkpt lat="45.16116" lon="5.9191">
        <ele>2083.6</ele>
        <time>2021-02-20T14:03:40Z</time>
      </trkpt>
      <trkpt lat="45.16116" lon="5.91909">
        <ele>2083.6</ele>
        <time>2021-02-20T14:03:41Z</time>
      </trkpt>
      <trkpt lat="45.16116" lon="5.91909">
        <ele>2083.6</ele>
        <time>2021-02-20T14:03:42Z</time>
      </trkpt>
      <trkpt lat="45.16116" lon="5.91908">
        <ele>2083.6</ele>
        <time>2021-02-20T14:03:43Z</time>
      </trkpt>
      <trkpt lat="45.16117" lon="5.91908">
        <ele>2083.6</ele>
        <time>2021-02-20T14:03:44Z</time>
      </trkpt>
      <trkpt lat="45.16117" lon="5.91907">
        <ele>2083.6</ele>
        <time>2021-02-20T14:03:45Z</time>
      </trkpt>
      <trkpt lat="45.16117" lon="5.91907">
        <ele>2083.6</ele>
        <time>2021-02-20T14:03:46Z</time>
      </trkpt>
      <trkpt lat="45.16117" lon="5.91906">
        <ele>2083.6</ele>
        <time>2021-02-20T14:03:47Z</time>
      </trkpt>
      <trkpt lat="45.16117" lon="5.91906">
        <ele>2083.6</ele>
        <time>2021-02-20T14:03:48Z</time>
      </trkpt>
      <trkpt lat="45.16117" lon="5.91905">
        <ele>2081.2</ele>
        <time>2021-02-20T14:03:49Z</time>
      </trkpt>
      <trkpt lat="45.16119" lon="5.91901">
        <ele>2078.6</ele>
        <time>2021-02-20T14:03:50Z</time>
      </trkpt>
      <trkpt lat="45.1612" lon="5.919">
        <ele>2078.2</ele>
        <time>2021-02-20T14:03:51Z</time>
      </trkpt>
      <trkpt lat="45.16118" lon="5.91897">
        <ele>2075.9</ele>
        <time>2021-02-20T14:03:52Z</time>
      </trkpt>
      <trkpt lat="45.16117" lon="5.91896">
        <ele>2075.9</ele>
        <time>2021-02-20T14:03:53Z</time>
      </trkpt>
      <trkpt lat="45.16114" lon="5.91895">
        <ele>2076.4</ele>
        <time>2021-02-20T14:03:54Z</time>
      </trkpt>
      <trkpt lat="45.16113" lon="5.91894">
        <ele>2076.9</ele>
        <time>2021-02-20T14:03:55Z</time>
      </trkpt>
      <trkpt lat="45.16111" lon="5.91894">
        <ele>2076.9</ele>
        <time>2021-02-20T14:03:56Z</time>
      </trkpt>
      <trkpt lat="45.16111" lon="5.91892">
        <ele>2074.1</ele>
        <time>2021-02-20T14:03:57Z</time>
      </trkpt>
      <trkpt lat="45.16111" lon="5.9189">
        <ele>2074.1</ele>
        <time>2021-02-20T14:03:58Z</time>
      </trkpt>
      <trkpt lat="45.16112" lon="5.91889">
        <ele>2074.1</ele>
        <time>2021-02-20T14:03:59Z</time>
      </trkpt>
      <trkpt lat="45.16112" lon="5.91887">
        <ele>2071.2</ele>
        <time>2021-02-20T14:04:00Z</time>
      </trkpt>
      <trkpt lat="45.16113" lon="5.91886">
        <ele>2071.2</ele>
        <time>2021-02-20T14:04:01Z</time>
      </trkpt>
      <trkpt lat="45.16113" lon="5.91885">
        <ele>2070.7</ele>
        <time>2021-02-20T14:04:02Z</time>
      </trkpt>
      <trkpt lat="45.16114" lon="5.91882">
        <ele>2067.9</ele>
        <time>2021-02-20T14:04:03Z</time>
      </trkpt>
      <trkpt lat="45.16114" lon="5.91878">
        <ele>2065.2</ele>
        <time>2021-02-20T14:04:04Z</time>
      </trkpt>
      <trkpt lat="45.16114" lon="5.91876">
        <ele>2065.2</ele>
        <time>2021-02-20T14:04:05Z</time>
      </trkpt>
      <trkpt lat="45.16111" lon="5.91873">
        <ele>2063.3</ele>
        <time>2021-02-20T14:04:06Z</time>
      </trkpt>
      <trkpt lat="45.1611" lon="5.91872">
        <ele>2063.9</ele>
        <time>2021-02-20T14:04:07Z</time>
      </trkpt>
      <trkpt lat="45.16107" lon="5.91869">
        <ele>2062.1</ele>
        <time>2021-02-20T14:04:08Z</time>
      </trkpt>
      <trkpt lat="45.16103" lon="5.91866">
        <ele>2060.4</ele>
        <time>2021-02-20T14:04:09Z</time>
      </trkpt>
      <trkpt lat="45.161" lon="5.91863">
        <ele>2060.9</ele>
        <time>2021-02-20T14:04:10Z</time>
      </trkpt>
      <trkpt lat="45.16097" lon="5.91859">
        <ele>2059.1</ele>
        <time>2021-02-20T14:04:11Z</time>
      </trkpt>
      <trkpt lat="45.16095" lon="5.91856">
        <ele>2057.4</ele>
        <time>2021-02-20T14:04:12Z</time>
      </trkpt>
      <trkpt lat="45.16093" lon="5.91853">
        <ele>2055.1</ele>
        <time>2021-02-20T14:04:13Z</time>
      </trkpt>
      <trkpt lat="45.1609" lon="5.9185">
        <ele>2055.7</ele>
        <time>2021-02-20T14:04:14Z</time>
      </trkpt>
      <trkpt lat="45.16088" lon="5.91846">
        <ele>2054</ele>
        <time>2021-02-20T14:04:15Z</time>
      </trkpt>
      <trkpt lat="45.16085" lon="5.91842">
        <ele>2052.3</ele>
        <time>2021-02-20T14:04:16Z</time>
      </trkpt>
      <trkpt lat="45.16084" lon="5.91839">
        <ele>2049.9</ele>
        <time>2021-02-20T14:04:17Z</time>
      </trkpt>
      <trkpt lat="45.16082" lon="5.91836">
        <ele>2048.3</ele>
        <time>2021-02-20T14:04:18Z</time>
      </trkpt>
      <trkpt lat="45.16079" lon="5.91832">
        <ele>2046.8</ele>
        <time>2021-02-20T14:04:19Z</time>
      </trkpt>
      <trkpt lat="45.16079" lon="5.91831">
        <ele>2046.8</ele>
        <time>2021-02-20T14:04:20Z</time>
      </trkpt>
      <trkpt lat="45.16078" lon="5.91826">
        <ele>2044.6</ele>
        <time>2021-02-20T14:04:21Z</time>
      </trkpt>
      <trkpt lat="45.16078" lon="5.91825">
        <ele>2044.6</ele>
        <time>2021-02-20T14:04:22Z</time>
      </trkpt>
      <trkpt lat="45.16078" lon="5.91823">
        <ele>2042.6</ele>
        <time>2021-02-20T14:04:23Z</time>
      </trkpt>
      <trkpt lat="45.1608" lon="5.91823">
        <ele>2041.8</ele>
        <time>2021-02-20T14:04:24Z</time>
      </trkpt>
      <trkpt lat="45.16083" lon="5.91824">
        <ele>2041</ele>
        <time>2021-02-20T14:04:25Z</time>
      </trkpt>
      <trkpt lat="45.16084" lon="5.91824">
        <ele>2043.1</ele>
        <time>2021-02-20T14:04:26Z</time>
      </trkpt>
      <trkpt lat="45.16087" lon="5.91823">
        <ele>2040.2</ele>
        <time>2021-02-20T14:04:27Z</time>
      </trkpt>
      <trkpt lat="45.16088" lon="5.91821">
        <ele>2040.2</ele>
        <time>2021-02-20T14:04:28Z</time>
      </trkpt>
      <trkpt lat="45.16088" lon="5.91816">
        <ele>2038.1</ele>
        <time>2021-02-20T14:04:29Z</time>
      </trkpt>
      <trkpt lat="45.16086" lon="5.91812">
        <ele>2036</ele>
        <time>2021-02-20T14:04:30Z</time>
      </trkpt>
      <trkpt lat="45.16086" lon="5.91811">
        <ele>2034.7</ele>
        <time>2021-02-20T14:04:31Z</time>
      </trkpt>
      <trkpt lat="45.16086" lon="5.91809">
        <ele>2033.8</ele>
        <time>2021-02-20T14:04:32Z</time>
      </trkpt>
      <trkpt lat="45.16088" lon="5.91808">
        <ele>2033.8</ele>
        <time>2021-02-20T14:04:33Z</time>
      </trkpt>
      <trkpt lat="45.16092" lon="5.91808">
        <ele>2032.3</ele>
        <time>2021-02-20T14:04:34Z</time>
      </trkpt>
      <trkpt lat="45.16094" lon="5.91808">
        <ele>2032.3</ele>
        <time>2021-02-20T14:04:35Z</time>
      </trkpt>
      <trkpt lat="45.16096" lon="5.91809">
        <ele>2031.6</ele>
        <time>2021-02-20T14:04:36Z</time>
      </trkpt>
      <trkpt lat="45.16099" lon="5.91807">
        <ele>2030.9</ele>
        <time>2021-02-20T14:04:37Z</time>
      </trkpt>
      <trkpt lat="45.16099" lon="5.91803">
        <ele>2028.5</ele>
        <time>2021-02-20T14:04:38Z</time>
      </trkpt>
      <trkpt lat="45.16097" lon="5.91798">
        <ele>2024.4</ele>
        <time>2021-02-20T14:04:39Z</time>
      </trkpt>
      <trkpt lat="45.16094" lon="5.91794">
        <ele>2025.1</ele>
        <time>2021-02-20T14:04:40Z</time>
      </trkpt>
      <trkpt lat="45.16091" lon="5.91791">
        <ele>2023.5</ele>
        <time>2021-02-20T14:04:41Z</time>
      </trkpt>
      <trkpt lat="45.16088" lon="5.91788">
        <ele>2022.2</ele>
        <time>2021-02-20T14:04:42Z</time>
      </trkpt>
      <trkpt lat="45.16088" lon="5.91787">
        <ele>2022.2</ele>
        <time>2021-02-20T14:04:43Z</time>
      </trkpt>
      <trkpt lat="45.16086" lon="5.91782">
        <ele>2021</ele>
        <time>2021-02-20T14:04:44Z</time>
      </trkpt>
      <trkpt lat="45.16085" lon="5.9178">
        <ele>2018.9</ele>
        <time>2021-02-20T14:04:45Z</time>
      </trkpt>
      <trkpt lat="45.16084" lon="5.91776">
        <ele>2016.8</ele>
        <time>2021-02-20T14:04:46Z</time>
      </trkpt>
      <trkpt lat="45.16083" lon="5.91772">
        <ele>2014.7</ele>
        <time>2021-02-20T14:04:47Z</time>
      </trkpt>
      <trkpt lat="45.16082" lon="5.91767">
        <ele>2013.6</ele>
        <time>2021-02-20T14:04:48Z</time>
      </trkpt>
      <trkpt lat="45.16083" lon="5.91766">
        <ele>2012.6</ele>
        <time>2021-02-20T14:04:49Z</time>
      </trkpt>
      <trkpt lat="45.16084" lon="5.91767">
        <ele>2012.6</ele>
        <time>2021-02-20T14:04:50Z</time>
      </trkpt>
      <trkpt lat="45.16085" lon="5.91768">
        <ele>2012.6</ele>
        <time>2021-02-20T14:04:51Z</time>
      </trkpt>
      <trkpt lat="45.16086" lon="5.91769">
        <ele>2014.7</ele>
        <time>2021-02-20T14:04:52Z</time>
      </trkpt>
      <trkpt lat="45.16087" lon="5.91771">
        <ele>2013.7</ele>
        <time>2021-02-20T14:04:53Z</time>
      </trkpt>
      <trkpt lat="45.16087" lon="5.91773">
        <ele>2015.8</ele>
        <time>2021-02-20T14:04:54Z</time>
      </trkpt>
      <trkpt lat="45.16087" lon="5.91774">
        <ele>2015.8</ele>
        <time>2021-02-20T14:04:55Z</time>
      </trkpt>
      <trkpt lat="45.16087" lon="5.91775">
        <ele>2015.8</ele>
        <time>2021-02-20T14:04:56Z</time>
      </trkpt>
      <trkpt lat="45.16087" lon="5.91775">
        <ele>2015.8</ele>
        <time>2021-02-20T14:04:57Z</time>
      </trkpt>
      <trkpt lat="45.16086" lon="5.91774">
        <ele>2016.8</ele>
        <time>2021-02-20T14:04:58Z</time>
      </trkpt>
      <trkpt lat="45.16085" lon="5.91774">
        <ele>2016.8</ele>
        <time>2021-02-20T14:04:59Z</time>
      </trkpt>
      <trkpt lat="45.16086" lon="5.91774">
        <ele>2016.7</ele>
        <time>2021-02-20T14:05:00Z</time>
      </trkpt>
      <trkpt lat="45.16086" lon="5.91773">
        <ele>2015.7</ele>
        <time>2021-02-20T14:05:01Z</time>
      </trkpt>
      <trkpt lat="45.16087" lon="5.91773">
        <ele>2015.7</ele>
        <time>2021-02-20T14:05:02Z</time>
      </trkpt>
      <trkpt lat="45.16088" lon="5.91772">
        <ele>2013.6</ele>
        <time>2021-02-20T14:05:03Z</time>
      </trkpt>
      <trkpt lat="45.16091" lon="5.91769">
        <ele>2012.6</ele>
        <time>2021-02-20T14:05:04Z</time>
      </trkpt>
      <trkpt lat="45.16092" lon="5.91768">
        <ele>2010.5</ele>
        <time>2021-02-20T14:05:05Z</time>
      </trkpt>
      <trkpt lat="45.16091" lon="5.91762">
        <ele>2008.2</ele>
        <time>2021-02-20T14:05:06Z</time>
      </trkpt>
      <trkpt lat="45.16091" lon="5.91761">
        <ele>2008.2</ele>
        <time>2021-02-20T14:05:07Z</time>
      </trkpt>
      <trkpt lat="45.1609" lon="5.91758">
        <ele>2005.8</ele>
        <time>2021-02-20T14:05:08Z</time>
      </trkpt>
      <trkpt lat="45.1609" lon="5.91757">
        <ele>2005.8</ele>
        <time>2021-02-20T14:05:09Z</time>
      </trkpt>
      <trkpt lat="45.1609" lon="5.91757">
        <ele>2005.8</ele>
        <time>2021-02-20T14:05:10Z</time>
      </trkpt>
      <trkpt lat="45.1609" lon="5.91755">
        <ele>2003.3</ele>
        <time>2021-02-20T14:05:11Z</time>
      </trkpt>
      <trkpt lat="45.16092" lon="5.91753">
        <ele>2003.3</ele>
        <time>2021-02-20T14:05:12Z</time>
      </trkpt>
      <trkpt lat="45.16095" lon="5.91751">
        <ele>2001.3</ele>
        <time>2021-02-20T14:05:13Z</time>
      </trkpt>
      <trkpt lat="45.16096" lon="5.91751">
        <ele>1998.7</ele>
        <time>2021-02-20T14:05:14Z</time>
      </trkpt>
      <trkpt lat="45.161" lon="5.91752">
        <ele>2000.3</ele>
        <time>2021-02-20T14:05:15Z</time>
      </trkpt>
      <trkpt lat="45.161" lon="5.91753">
        <ele>2000.3</ele>
        <time>2021-02-20T14:05:16Z</time>
      </trkpt>
      <trkpt lat="45.16103" lon="5.91754">
        <ele>1999.3</ele>
        <time>2021-02-20T14:05:17Z</time>
      </trkpt>
      <trkpt lat="45.16104" lon="5.91755">
        <ele>1999.3</ele>
        <time>2021-02-20T14:05:18Z</time>
      </trkpt>
      <trkpt lat="45.16105" lon="5.91754">
        <ele>1998.3</ele>
        <time>2021-02-20T14:05:19Z</time>
      </trkpt>
      <trkpt lat="45.16106" lon="5.91751">
        <ele>1998.3</ele>
        <time>2021-02-20T14:05:20Z</time>
      </trkpt>
      <trkpt lat="45.16104" lon="5.91746">
        <ele>1993.1</ele>
        <time>2021-02-20T14:05:21Z</time>
      </trkpt>
      <trkpt lat="45.16104" lon="5.91744">
        <ele>1994.2</ele>
        <time>2021-02-20T14:05:22Z</time>
      </trkpt>
      <trkpt lat="45.16103" lon="5.9174">
        <ele>1991.7</ele>
        <time>2021-02-20T14:05:23Z</time>
      </trkpt>
      <trkpt lat="45.16102" lon="5.91736">
        <ele>1989.4</ele>
        <time>2021-02-20T14:05:24Z</time>
      </trkpt>
      <trkpt lat="45.16102" lon="5.91731">
        <ele>1987.1</ele>
        <time>2021-02-20T14:05:25Z</time>
      </trkpt>
      <trkpt lat="45.16102" lon="5.91729">
        <ele>1984.8</ele>
        <time>2021-02-20T14:05:26Z</time>
      </trkpt>
      <trkpt lat="45.16104" lon="5.91724">
        <ele>1982.4</ele>
        <time>2021-02-20T14:05:27Z</time>
      </trkpt>
      <trkpt lat="45.16105" lon="5.91722">
        <ele>1981.3</ele>
        <time>2021-02-20T14:05:28Z</time>
      </trkpt>
      <trkpt lat="45.16106" lon="5.91718">
        <ele>1978.8</ele>
        <time>2021-02-20T14:05:29Z</time>
      </trkpt>
      <trkpt lat="45.16106" lon="5.91717">
        <ele>1978.8</ele>
        <time>2021-02-20T14:05:30Z</time>
      </trkpt>
      <trkpt lat="45.16104" lon="5.91712">
        <ele>1973.6</ele>
        <time>2021-02-20T14:05:31Z</time>
      </trkpt>
      <trkpt lat="45.16103" lon="5.9171">
        <ele>1974.8</ele>
        <time>2021-02-20T14:05:32Z</time>
      </trkpt>
      <trkpt lat="45.16101" lon="5.91707">
        <ele>1973.4</ele>
        <time>2021-02-20T14:05:33Z</time>
      </trkpt>
      <trkpt lat="45.16101" lon="5.91705">
        <ele>1972.2</ele>
        <time>2021-02-20T14:05:34Z</time>
      </trkpt>
      <trkpt lat="45.16103" lon="5.91704">
        <ele>1972.2</ele>
        <time>2021-02-20T14:05:35Z</time>
      </trkpt>
      <trkpt lat="45.16104" lon="5.91703">
        <ele>1968.3</ele>
        <time>2021-02-20T14:05:36Z</time>
      </trkpt>
      <trkpt lat="45.16108" lon="5.91701">
        <ele>1967</ele>
        <time>2021-02-20T14:05:37Z</time>
      </trkpt>
      <trkpt lat="45.16111" lon="5.91699">
        <ele>1962.9</ele>
        <time>2021-02-20T14:05:38Z</time>
      </trkpt>
      <trkpt lat="45.16111" lon="5.91695">
        <ele>1960.4</ele>
        <time>2021-02-20T14:05:39Z</time>
      </trkpt>
      <trkpt lat="45.1611" lon="5.91693">
        <ele>1961.8</ele>
        <time>2021-02-20T14:05:40Z</time>
      </trkpt>
      <trkpt lat="45.16108" lon="5.91693">
        <ele>1961.8</ele>
        <time>2021-02-20T14:05:41Z</time>
      </trkpt>
      <trkpt lat="45.16108" lon="5.91693">
        <ele>1961.8</ele>
        <time>2021-02-20T14:05:42Z</time>
      </trkpt>
      <trkpt lat="45.16108" lon="5.91693">
        <ele>1961.8</ele>
        <time>2021-02-20T14:05:43Z</time>
      </trkpt>
      <trkpt lat="45.16108" lon="5.91693">
        <ele>1961.8</ele>
        <time>2021-02-20T14:05:44Z</time>
      </trkpt>
      <trkpt lat="45.16108" lon="5.91693">
        <ele>1961.8</ele>
        <time>2021-02-20T14:05:45Z</time>
      </trkpt>
      <trkpt lat="45.16108" lon="5.91693">
        <ele>1961.8</ele>
        <time>2021-02-20T14:05:46Z</time>
      </trkpt>
      <trkpt lat="45.16108" lon="5.91693">
        <ele>1961.8</ele>
        <time>2021-02-20T14:05:47Z</time>
      </trkpt>
      <trkpt lat="45.16111" lon="5.91697">
        <ele>1962.9</ele>
        <time>2021-02-20T14:05:48Z</time>
      </trkpt>
      <trkpt lat="45.16111" lon="5.91697">
        <ele>1962.9</ele>
        <time>2021-02-20T14:05:49Z</time>
      </trkpt>
      <trkpt lat="45.16111" lon="5.91698">
        <ele>1962.9</ele>
        <time>2021-02-20T14:05:50Z</time>
      </trkpt>
      <trkpt lat="45.16112" lon="5.91695">
        <ele>1960.4</ele>
        <time>2021-02-20T14:05:51Z</time>
      </trkpt>
      <trkpt lat="45.16113" lon="5.91691">
        <ele>1958.9</ele>
        <time>2021-02-20T14:05:55Z</time>
      </trkpt>
      <trkpt lat="45.16114" lon="5.91688">
        <ele>1956.5</ele>
        <time>2021-02-20T14:05:56Z</time>
      </trkpt>
      <trkpt lat="45.16115" lon="5.91684">
        <ele>1954.1</ele>
        <time>2021-02-20T14:05:57Z</time>
      </trkpt>
      <trkpt lat="45.16115" lon="5.91678">
        <ele>1951.7</ele>
        <time>2021-02-20T14:05:58Z</time>
      </trkpt>
      <trkpt lat="45.16112" lon="5.91673">
        <ele>1948.5</ele>
        <time>2021-02-20T14:05:59Z</time>
      </trkpt>
      <trkpt lat="45.16109" lon="5.91669">
        <ele>1947.8</ele>
        <time>2021-02-20T14:06:00Z</time>
      </trkpt>
      <trkpt lat="45.16107" lon="5.91668">
        <ele>1949.4</ele>
        <time>2021-02-20T14:06:01Z</time>
      </trkpt>
      <trkpt lat="45.16106" lon="5.91668">
        <ele>1949.4</ele>
        <time>2021-02-20T14:06:02Z</time>
      </trkpt>
      <trkpt lat="45.16104" lon="5.91667">
        <ele>1951</ele>
        <time>2021-02-20T14:06:03Z</time>
      </trkpt>
      <trkpt lat="45.16103" lon="5.91667">
        <ele>1951</ele>
        <time>2021-02-20T14:06:04Z</time>
      </trkpt>
      <trkpt lat="45.16101" lon="5.91666">
        <ele>1951</ele>
        <time>2021-02-20T14:06:05Z</time>
      </trkpt>
      <trkpt lat="45.161" lon="5.91666">
        <ele>1952.5</ele>
        <time>2021-02-20T14:06:06Z</time>
      </trkpt>
      <trkpt lat="45.16099" lon="5.91665">
        <ele>1950.3</ele>
        <time>2021-02-20T14:06:07Z</time>
      </trkpt>
      <trkpt lat="45.16098" lon="5.91665">
        <ele>1951.8</ele>
        <time>2021-02-20T14:06:08Z</time>
      </trkpt>
      <trkpt lat="45.16097" lon="5.91664">
        <ele>1951.8</ele>
        <time>2021-02-20T14:06:09Z</time>
      </trkpt>
      <trkpt lat="45.16095" lon="5.91664">
        <ele>1951.8</ele>
        <time>2021-02-20T14:06:10Z</time>
      </trkpt>
      <trkpt lat="45.16094" lon="5.91663">
        <ele>1953.3</ele>
        <time>2021-02-20T14:06:11Z</time>
      </trkpt>
      <trkpt lat="45.16093" lon="5.91663">
        <ele>1953.3</ele>
        <time>2021-02-20T14:06:12Z</time>
      </trkpt>
      <trkpt lat="45.16092" lon="5.91662">
        <ele>1954.9</ele>
        <time>2021-02-20T14:08:02Z</time>
      </trkpt>
      <trkpt lat="45.1609" lon="5.91661">
        <ele>1954.9</ele>
        <time>2021-02-20T14:08:03Z</time>
      </trkpt>
      <trkpt lat="45.16088" lon="5.91657">
        <ele>1952.6</ele>
        <time>2021-02-20T14:08:04Z</time>
      </trkpt>
      <trkpt lat="45.16086" lon="5.91652">
        <ele>1950.8</ele>
        <time>2021-02-20T14:08:05Z</time>
      </trkpt>
      <trkpt lat="45.16084" lon="5.91648">
        <ele>1951</ele>
        <time>2021-02-20T14:08:06Z</time>
      </trkpt>
      <trkpt lat="45.16083" lon="5.91644">
        <ele>1951.2</ele>
        <time>2021-02-20T14:08:07Z</time>
      </trkpt>
      <trkpt lat="45.16082" lon="5.91643">
        <ele>1951.2</ele>
        <time>2021-02-20T14:08:08Z</time>
      </trkpt>
      <trkpt lat="45.16084" lon="5.91641">
        <ele>1949.3</ele>
        <time>2021-02-20T14:08:09Z</time>
      </trkpt>
      <trkpt lat="45.16085" lon="5.9164">
        <ele>1949.3</ele>
        <time>2021-02-20T14:08:10Z</time>
      </trkpt>
      <trkpt lat="45.16086" lon="5.91638">
        <ele>1945.9</ele>
        <time>2021-02-20T14:08:11Z</time>
      </trkpt>
      <trkpt lat="45.16087" lon="5.91633">
        <ele>1944.2</ele>
        <time>2021-02-20T14:08:12Z</time>
      </trkpt>
      <trkpt lat="45.16087" lon="5.91631">
        <ele>1944.2</ele>
        <time>2021-02-20T14:08:13Z</time>
      </trkpt>
      <trkpt lat="45.16086" lon="5.91627">
        <ele>1940.9</ele>
        <time>2021-02-20T14:08:14Z</time>
      </trkpt>
      <trkpt lat="45.16086" lon="5.91625">
        <ele>1940.9</ele>
        <time>2021-02-20T14:08:15Z</time>
      </trkpt>
      <trkpt lat="45.16087" lon="5.91623">
        <ele>1940.9</ele>
        <time>2021-02-20T14:08:16Z</time>
      </trkpt>
      <trkpt lat="45.16088" lon="5.91621">
        <ele>1939.1</ele>
        <time>2021-02-20T14:08:17Z</time>
      </trkpt>
      <trkpt lat="45.16091" lon="5.9162">
        <ele>1937.2</ele>
        <time>2021-02-20T14:08:18Z</time>
      </trkpt>
      <trkpt lat="45.16095" lon="5.91618">
        <ele>1933.6</ele>
        <time>2021-02-20T14:08:19Z</time>
      </trkpt>
      <trkpt lat="45.16096" lon="5.91614">
        <ele>1931.9</ele>
        <time>2021-02-20T14:08:20Z</time>
      </trkpt>
      <trkpt lat="45.16096" lon="5.91613">
        <ele>1930.1</ele>
        <time>2021-02-20T14:08:21Z</time>
      </trkpt>
      <trkpt lat="45.16094" lon="5.91609">
        <ele>1930</ele>
        <time>2021-02-20T14:08:22Z</time>
      </trkpt>
      <trkpt lat="45.16093" lon="5.91608">
        <ele>1930</ele>
        <time>2021-02-20T14:08:23Z</time>
      </trkpt>
      <trkpt lat="45.16092" lon="5.91607">
        <ele>1930</ele>
        <time>2021-02-20T14:08:24Z</time>
      </trkpt>
      <trkpt lat="45.16093" lon="5.91606">
        <ele>1930</ele>
        <time>2021-02-20T14:08:25Z</time>
      </trkpt>
      <trkpt lat="45.16095" lon="5.91605">
        <ele>1928.3</ele>
        <time>2021-02-20T14:08:26Z</time>
      </trkpt>
      <trkpt lat="45.16096" lon="5.91604">
        <ele>1926.6</ele>
        <time>2021-02-20T14:08:27Z</time>
      </trkpt>
      <trkpt lat="45.16097" lon="5.91603">
        <ele>1926.6</ele>
        <time>2021-02-20T14:08:28Z</time>
      </trkpt>
      <trkpt lat="45.16098" lon="5.91602">
        <ele>1924.9</ele>
        <time>2021-02-20T14:08:29Z</time>
      </trkpt>
      <trkpt lat="45.16099" lon="5.91601">
        <ele>1924.9</ele>
        <time>2021-02-20T14:08:30Z</time>
      </trkpt>
      <trkpt lat="45.16099" lon="5.916">
        <ele>1923.3</ele>
        <time>2021-02-20T14:08:31Z</time>
      </trkpt>
      <trkpt lat="45.16099" lon="5.91599">
        <ele>1923.3</ele>
        <time>2021-02-20T14:08:32Z</time>
      </trkpt>
      <trkpt lat="45.16099" lon="5.91599">
        <ele>1923.3</ele>
        <time>2021-02-20T14:08:33Z</time>
      </trkpt>
      <trkpt lat="45.161" lon="5.91598">
        <ele>1923.3</ele>
        <time>2021-02-20T14:08:34Z</time>
      </trkpt>
      <trkpt lat="45.16102" lon="5.91598">
        <ele>1921.6</ele>
        <time>2021-02-20T14:08:35Z</time>
      </trkpt>
      <trkpt lat="45.16105" lon="5.91598">
        <ele>1919.7</ele>
        <time>2021-02-20T14:08:36Z</time>
      </trkpt>
      <trkpt lat="45.16106" lon="5.91599">
        <ele>1919.7</ele>
        <time>2021-02-20T14:08:37Z</time>
      </trkpt>
      <trkpt lat="45.16108" lon="5.91599">
        <ele>1917.8</ele>
        <time>2021-02-20T14:08:38Z</time>
      </trkpt>
      <trkpt lat="45.16109" lon="5.91599">
        <ele>1917.8</ele>
        <time>2021-02-20T14:08:39Z</time>
      </trkpt>
      <trkpt lat="45.1611" lon="5.91599">
        <ele>1915.9</ele>
        <time>2021-02-20T14:08:40Z</time>
      </trkpt>
      <trkpt lat="45.16111" lon="5.91599">
        <ele>1915.9</ele>
        <time>2021-02-20T14:08:41Z</time>
      </trkpt>
      <trkpt lat="45.16111" lon="5.91598">
        <ele>1915.9</ele>
        <time>2021-02-20T14:08:42Z</time>
      </trkpt>
      <trkpt lat="45.16111" lon="5.91598">
        <ele>1915.8</ele>
        <time>2021-02-20T14:08:43Z</time>
      </trkpt>
      <trkpt lat="45.16111" lon="5.91598">
        <ele>1915.8</ele>
        <time>2021-02-20T14:08:44Z</time>
      </trkpt>
      <trkpt lat="45.16111" lon="5.91598">
        <ele>1915.8</ele>
        <time>2021-02-20T14:08:45Z</time>
      </trkpt>
      <trkpt lat="45.16111" lon="5.91599">
        <ele>1915.8</ele>
        <time>2021-02-20T14:08:46Z</time>
      </trkpt>
      <trkpt lat="45.16111" lon="5.916">
        <ele>1915.8</ele>
        <time>2021-02-20T14:08:47Z</time>
      </trkpt>
      <trkpt lat="45.16112" lon="5.916">
        <ele>1915.8</ele>
        <time>2021-02-20T14:08:48Z</time>
      </trkpt>
      <trkpt lat="45.16112" lon="5.91599">
        <ele>1915.8</ele>
        <time>2021-02-20T14:08:49Z</time>
      </trkpt>
      <trkpt lat="45.16112" lon="5.91599">
        <ele>1915.8</ele>
        <time>2021-02-20T14:08:50Z</time>
      </trkpt>
      <trkpt lat="45.16114" lon="5.91598">
        <ele>1913.9</ele>
        <time>2021-02-20T14:08:51Z</time>
      </trkpt>
      <trkpt lat="45.16115" lon="5.91599">
        <ele>1913.9</ele>
        <time>2021-02-20T14:08:52Z</time>
      </trkpt>
      <trkpt lat="45.16115" lon="5.916">
        <ele>1913.9</ele>
        <time>2021-02-20T14:08:53Z</time>
      </trkpt>
      <trkpt lat="45.16114" lon="5.916">
        <ele>1913.9</ele>
        <time>2021-02-20T14:08:54Z</time>
      </trkpt>
      <trkpt lat="45.16114" lon="5.91601">
        <ele>1913.9</ele>
        <time>2021-02-20T14:08:55Z</time>
      </trkpt>
      <trkpt lat="45.16114" lon="5.916">
        <ele>1913.9</ele>
        <time>2021-02-20T14:08:56Z</time>
      </trkpt>
      <trkpt lat="45.16113" lon="5.91599">
        <ele>1913.9</ele>
        <time>2021-02-20T14:08:57Z</time>
      </trkpt>
      <trkpt lat="45.16113" lon="5.91598">
        <ele>1915.8</ele>
        <time>2021-02-20T14:08:58Z</time>
      </trkpt>
      <trkpt lat="45.16113" lon="5.91597">
        <ele>1915.8</ele>
        <time>2021-02-20T14:08:59Z</time>
      </trkpt>
      <trkpt lat="45.16113" lon="5.91596">
        <ele>1914.3</ele>
        <time>2021-02-20T14:09:00Z</time>
      </trkpt>
      <trkpt lat="45.16113" lon="5.91595">
        <ele>1912.4</ele>
        <time>2021-02-20T14:09:01Z</time>
      </trkpt>
      <trkpt lat="45.16113" lon="5.91595">
        <ele>1914.3</ele>
        <time>2021-02-20T14:09:02Z</time>
      </trkpt>
      <trkpt lat="45.16112" lon="5.91594">
        <ele>1914.3</ele>
        <time>2021-02-20T14:09:03Z</time>
      </trkpt>
      <trkpt lat="45.16111" lon="5.91593">
        <ele>1914.2</ele>
        <time>2021-02-20T14:09:04Z</time>
      </trkpt>
      <trkpt lat="45.1611" lon="5.91591">
        <ele>1912.7</ele>
        <time>2021-02-20T14:09:05Z</time>
      </trkpt>
      <trkpt lat="45.16109" lon="5.9159">
        <ele>1914.6</ele>
        <time>2021-02-20T14:09:06Z</time>
      </trkpt>
      <trkpt lat="45.16109" lon="5.91589">
        <ele>1914.6</ele>
        <time>2021-02-20T14:09:07Z</time>
      </trkpt>
      <trkpt lat="45.16108" lon="5.91588">
        <ele>1912.9</ele>
        <time>2021-02-20T14:09:08Z</time>
      </trkpt>
      <trkpt lat="45.16108" lon="5.91585">
        <ele>1912.9</ele>
        <time>2021-02-20T14:09:09Z</time>
      </trkpt>
      <trkpt lat="45.16108" lon="5.91583">
        <ele>1911</ele>
        <time>2021-02-20T14:09:10Z</time>
      </trkpt>
      <trkpt lat="45.16108" lon="5.91582">
        <ele>1911</ele>
        <time>2021-02-20T14:09:11Z</time>
      </trkpt>
      <trkpt lat="45.16107" lon="5.91579">
        <ele>1909.1</ele>
        <time>2021-02-20T14:09:12Z</time>
      </trkpt>
      <trkpt lat="45.16108" lon="5.91577">
        <ele>1909.1</ele>
        <time>2021-02-20T14:09:13Z</time>
      </trkpt>
      <trkpt lat="45.1611" lon="5.91576">
        <ele>1907.2</ele>
        <time>2021-02-20T14:09:14Z</time>
      </trkpt>
      <trkpt lat="45.16111" lon="5.91576">
        <ele>1907.2</ele>
        <time>2021-02-20T14:09:15Z</time>
      </trkpt>
      <trkpt lat="45.16115" lon="5.91579">
        <ele>1905.4</ele>
        <time>2021-02-20T14:09:16Z</time>
      </trkpt>
      <trkpt lat="45.16116" lon="5.9158">
        <ele>1907.3</ele>
        <time>2021-02-20T14:09:17Z</time>
      </trkpt>
      <trkpt lat="45.16117" lon="5.91581">
        <ele>1905.6</ele>
        <time>2021-02-20T14:09:18Z</time>
      </trkpt>
      <trkpt lat="45.16118" lon="5.91581">
        <ele>1905.6</ele>
        <time>2021-02-20T14:09:19Z</time>
      </trkpt>
      <trkpt lat="45.16118" lon="5.91581">
        <ele>1905.6</ele>
        <time>2021-02-20T14:09:20Z</time>
      </trkpt>
      <trkpt lat="45.16119" lon="5.91581">
        <ele>1905.6</ele>
        <time>2021-02-20T14:09:21Z</time>
      </trkpt>
      <trkpt lat="45.16119" lon="5.9158">
        <ele>1904.1</ele>
        <time>2021-02-20T14:09:22Z</time>
      </trkpt>
      <trkpt lat="45.1612" lon="5.9158">
        <ele>1904.1</ele>
        <time>2021-02-20T14:09:23Z</time>
      </trkpt>
      <trkpt lat="45.16121" lon="5.9158">
        <ele>1904.1</ele>
        <time>2021-02-20T14:09:24Z</time>
      </trkpt>
      <trkpt lat="45.16121" lon="5.9158">
        <ele>1904</ele>
        <time>2021-02-20T14:09:25Z</time>
      </trkpt>
      <trkpt lat="45.16122" lon="5.9158">
        <ele>1904</ele>
        <time>2021-02-20T14:09:26Z</time>
      </trkpt>
      <trkpt lat="45.16123" lon="5.9158">
        <ele>1902.6</ele>
        <time>2021-02-20T14:09:27Z</time>
      </trkpt>
      <trkpt lat="45.16123" lon="5.9158">
        <ele>1902.6</ele>
        <time>2021-02-20T14:09:28Z</time>
      </trkpt>
      <trkpt lat="45.16124" lon="5.9158">
        <ele>1902.6</ele>
        <time>2021-02-20T14:09:47Z</time>
      </trkpt>
      <trkpt lat="45.16125" lon="5.9158">
        <ele>1902.5</ele>
        <time>2021-02-20T14:09:48Z</time>
      </trkpt>
      <trkpt lat="45.16125" lon="5.9158">
        <ele>1902.5</ele>
        <time>2021-02-20T14:09:49Z</time>
      </trkpt>
      <trkpt lat="45.16128" lon="5.91578">
        <ele>1899.2</ele>
        <time>2021-02-20T14:09:50Z</time>
      </trkpt>
      <trkpt lat="45.1613" lon="5.91575">
        <ele>1897.6</ele>
        <time>2021-02-20T14:09:51Z</time>
      </trkpt>
      <trkpt lat="45.1613" lon="5.91571">
        <ele>1895.7</ele>
        <time>2021-02-20T14:09:52Z</time>
      </trkpt>
      <trkpt lat="45.1613" lon="5.91569">
        <ele>1893.8</ele>
        <time>2021-02-20T14:09:53Z</time>
      </trkpt>
      <trkpt lat="45.16129" lon="5.91567">
        <ele>1893.8</ele>
        <time>2021-02-20T14:09:54Z</time>
      </trkpt>
      <trkpt lat="45.16128" lon="5.91566">
        <ele>1893.4</ele>
        <time>2021-02-20T14:09:55Z</time>
      </trkpt>
      <trkpt lat="45.16129" lon="5.91566">
        <ele>1891.8</ele>
        <time>2021-02-20T14:09:56Z</time>
      </trkpt>
      <trkpt lat="45.16131" lon="5.91566">
        <ele>1891.8</ele>
        <time>2021-02-20T14:09:57Z</time>
      </trkpt>
      <trkpt lat="45.16134" lon="5.91567">
        <ele>1892.1</ele>
        <time>2021-02-20T14:09:58Z</time>
      </trkpt>
      <trkpt lat="45.16137" lon="5.9157">
        <ele>1890.4</ele>
        <time>2021-02-20T14:09:59Z</time>
      </trkpt>
      <trkpt lat="45.1614" lon="5.91572">
        <ele>1889</ele>
        <time>2021-02-20T14:10:00Z</time>
      </trkpt>
      <trkpt lat="45.16144" lon="5.91574">
        <ele>1887.4</ele>
        <time>2021-02-20T14:10:01Z</time>
      </trkpt>
      <trkpt lat="45.16147" lon="5.91577">
        <ele>1887.8</ele>
        <time>2021-02-20T14:10:02Z</time>
      </trkpt>
      <trkpt lat="45.16148" lon="5.91578">
        <ele>1887.8</ele>
        <time>2021-02-20T14:10:03Z</time>
      </trkpt>
      <trkpt lat="45.1615" lon="5.91579">
        <ele>1886.2</ele>
        <time>2021-02-20T14:10:04Z</time>
      </trkpt>
      <trkpt lat="45.16151" lon="5.91579">
        <ele>1886.2</ele>
        <time>2021-02-20T14:10:05Z</time>
      </trkpt>
      <trkpt lat="45.16152" lon="5.91579">
        <ele>1886.2</ele>
        <time>2021-02-20T14:10:06Z</time>
      </trkpt>
      <trkpt lat="45.16152" lon="5.91578">
        <ele>1886.2</ele>
        <time>2021-02-20T14:10:07Z</time>
      </trkpt>
      <trkpt lat="45.16151" lon="5.91577">
        <ele>1886.2</ele>
        <time>2021-02-20T14:10:08Z</time>
      </trkpt>
      <trkpt lat="45.16151" lon="5.91575">
        <ele>1884.3</ele>
        <time>2021-02-20T14:10:09Z</time>
      </trkpt>
      <trkpt lat="45.16151" lon="5.91573">
        <ele>1884.3</ele>
        <time>2021-02-20T14:10:10Z</time>
      </trkpt>
      <trkpt lat="45.16151" lon="5.91571">
        <ele>1884.3</ele>
        <time>2021-02-20T14:10:11Z</time>
      </trkpt>
      <trkpt lat="45.16152" lon="5.91571">
        <ele>1882.3</ele>
        <time>2021-02-20T14:10:12Z</time>
      </trkpt>
      <trkpt lat="45.16153" lon="5.91569">
        <ele>1880.7</ele>
        <time>2021-02-20T14:10:13Z</time>
      </trkpt>
      <trkpt lat="45.16154" lon="5.91568">
        <ele>1880.7</ele>
        <time>2021-02-20T14:10:14Z</time>
      </trkpt>
      <trkpt lat="45.16157" lon="5.91567">
        <ele>1879.2</ele>
        <time>2021-02-20T14:10:15Z</time>
      </trkpt>
      <trkpt lat="45.16158" lon="5.91566">
        <ele>1877.1</ele>
        <time>2021-02-20T14:10:16Z</time>
      </trkpt>
      <trkpt lat="45.16161" lon="5.91564">
        <ele>1875.5</ele>
        <time>2021-02-20T14:10:17Z</time>
      </trkpt>
      <trkpt lat="45.16162" lon="5.9156">
        <ele>1871.7</ele>
        <time>2021-02-20T14:10:18Z</time>
      </trkpt>
      <trkpt lat="45.16162" lon="5.91559">
        <ele>1871.7</ele>
        <time>2021-02-20T14:10:19Z</time>
      </trkpt>
      <trkpt lat="45.16162" lon="5.91557">
        <ele>1869.6</ele>
        <time>2021-02-20T14:10:20Z</time>
      </trkpt>
      <trkpt lat="45.16163" lon="5.91555">
        <ele>1869.6</ele>
        <time>2021-02-20T14:10:21Z</time>
      </trkpt>
      <trkpt lat="45.16165" lon="5.91553">
        <ele>1865.7</ele>
        <time>2021-02-20T14:10:22Z</time>
      </trkpt>
      <trkpt lat="45.16168" lon="5.91549">
        <ele>1861.8</ele>
        <time>2021-02-20T14:10:23Z</time>
      </trkpt>
      <trkpt lat="45.1617" lon="5.91546">
        <ele>1861.8</ele>
        <time>2021-02-20T14:10:24Z</time>
      </trkpt>
      <trkpt lat="45.16172" lon="5.91542">
        <ele>1857.8</ele>
        <time>2021-02-20T14:10:25Z</time>
      </trkpt>
      <trkpt lat="45.16175" lon="5.9154">
        <ele>1853.9</ele>
        <time>2021-02-20T14:10:26Z</time>
      </trkpt>
      <trkpt lat="45.16177" lon="5.91537">
        <ele>1852.4</ele>
        <time>2021-02-20T14:10:27Z</time>
      </trkpt>
      <trkpt lat="45.16176" lon="5.91532">
        <ele>1849</ele>
        <time>2021-02-20T14:10:28Z</time>
      </trkpt>
      <trkpt lat="45.16175" lon="5.9153">
        <ele>1849</ele>
        <time>2021-02-20T14:10:29Z</time>
      </trkpt>
      <trkpt lat="45.16171" lon="5.91528">
        <ele>1850.6</ele>
        <time>2021-02-20T14:10:30Z</time>
      </trkpt>
      <trkpt lat="45.16167" lon="5.91527">
        <ele>1851.3</ele>
        <time>2021-02-20T14:10:31Z</time>
      </trkpt>
      <trkpt lat="45.16163" lon="5.91528">
        <ele>1852.9</ele>
        <time>2021-02-20T14:10:32Z</time>
      </trkpt>
      <trkpt lat="45.16162" lon="5.91528">
        <ele>1855.5</ele>
        <time>2021-02-20T14:10:33Z</time>
      </trkpt>
      <trkpt lat="45.1616" lon="5.91529">
        <ele>1857.2</ele>
        <time>2021-02-20T14:10:34Z</time>
      </trkpt>
      <trkpt lat="45.16159" lon="5.91529">
        <ele>1857.2</ele>
        <time>2021-02-20T14:10:35Z</time>
      </trkpt>
      <trkpt lat="45.16158" lon="5.91529">
        <ele>1858.8</ele>
        <time>2021-02-20T14:10:36Z</time>
      </trkpt>
      <trkpt lat="45.16156" lon="5.9153">
        <ele>1858.8</ele>
        <time>2021-02-20T14:10:37Z</time>
      </trkpt>
      <trkpt lat="45.16155" lon="5.9153">
        <ele>1860.4</ele>
        <time>2021-02-20T14:10:38Z</time>
      </trkpt>
      <trkpt lat="45.16154" lon="5.9153">
        <ele>1860.4</ele>
        <time>2021-02-20T14:10:39Z</time>
      </trkpt>
      <trkpt lat="45.16154" lon="5.9153">
        <ele>1860.4</ele>
        <time>2021-02-20T14:10:40Z</time>
      </trkpt>
      <trkpt lat="45.16154" lon="5.9153">
        <ele>1860.4</ele>
        <time>2021-02-20T14:10:41Z</time>
      </trkpt>
      <trkpt lat="45.16154" lon="5.9153">
        <ele>1860.4</ele>
        <time>2021-02-20T14:10:42Z</time>
      </trkpt>
      <trkpt lat="45.16152" lon="5.91521">
        <ele>1856.7</ele>
        <time>2021-02-20T14:10:45Z</time>
      </trkpt>
      <trkpt lat="45.16154" lon="5.91517">
        <ele>1852.5</ele>
        <time>2021-02-20T14:10:46Z</time>
      </trkpt>
      <trkpt lat="45.16157" lon="5.91512">
        <ele>1848.6</ele>
        <time>2021-02-20T14:10:47Z</time>
      </trkpt>
      <trkpt lat="45.16159" lon="5.91506">
        <ele>1842.4</ele>
        <time>2021-02-20T14:10:48Z</time>
      </trkpt>
      <trkpt lat="45.16161" lon="5.91499">
        <ele>1840</ele>
        <time>2021-02-20T14:10:49Z</time>
      </trkpt>
      <trkpt lat="45.16161" lon="5.91492">
        <ele>1835.3</ele>
        <time>2021-02-20T14:10:50Z</time>
      </trkpt>
      <trkpt lat="45.16162" lon="5.91485">
        <ele>1831.4</ele>
        <time>2021-02-20T14:10:51Z</time>
      </trkpt>
      <trkpt lat="45.16164" lon="5.9148">
        <ele>1826.6</ele>
        <time>2021-02-20T14:10:52Z</time>
      </trkpt>
      <trkpt lat="45.16167" lon="5.91475">
        <ele>1822.8</ele>
        <time>2021-02-20T14:10:53Z</time>
      </trkpt>
      <trkpt lat="45.16168" lon="5.91471">
        <ele>1819.3</ele>
        <time>2021-02-20T14:10:54Z</time>
      </trkpt>
      <trkpt lat="45.16169" lon="5.91466">
        <ele>1817.2</ele>
        <time>2021-02-20T14:10:55Z</time>
      </trkpt>
      <trkpt lat="45.1617" lon="5.91462">
        <ele>1815.2</ele>
        <time>2021-02-20T14:10:56Z</time>
      </trkpt>
      <trkpt lat="45.1617" lon="5.91464">
        <ele>1815.2</ele>
        <time>2021-02-20T14:10:57Z</time>
      </trkpt>
      <trkpt lat="45.1617" lon="5.91465">
        <ele>1817.2</ele>
        <time>2021-02-20T14:10:58Z</time>
      </trkpt>
      <trkpt lat="45.1617" lon="5.91466">
        <ele>1817.2</ele>
        <time>2021-02-20T14:10:59Z</time>
      </trkpt>
      <trkpt lat="45.1617" lon="5.91468">
        <ele>1817.2</ele>
        <time>2021-02-20T14:11:00Z</time>
      </trkpt>
      <trkpt lat="45.1617" lon="5.91469">
        <ele>1819.2</ele>
        <time>2021-02-20T14:11:01Z</time>
      </trkpt>
      <trkpt lat="45.1617" lon="5.91474">
        <ele>1821.4</ele>
        <time>2021-02-20T14:11:02Z</time>
      </trkpt>
      <trkpt lat="45.1617" lon="5.91479">
        <ele>1823.7</ele>
        <time>2021-02-20T14:11:03Z</time>
      </trkpt>
      <trkpt lat="45.16169" lon="5.91483">
        <ele>1826.1</ele>
        <time>2021-02-20T14:11:04Z</time>
      </trkpt>
      <trkpt lat="45.16169" lon="5.91488">
        <ele>1828.5</ele>
        <time>2021-02-20T14:11:05Z</time>
      </trkpt>
      <trkpt lat="45.16169" lon="5.91493">
        <ele>1830.8</ele>
        <time>2021-02-20T14:11:06Z</time>
      </trkpt>
      <trkpt lat="45.16169" lon="5.91498">
        <ele>1833.1</ele>
        <time>2021-02-20T14:14:19Z</time>
      </trkpt>
      <trkpt lat="45.16169" lon="5.91503">
        <ele>1837.7</ele>
        <time>2021-02-20T14:14:20Z</time>
      </trkpt>
      <trkpt lat="45.16169" lon="5.91507">
        <ele>1839.9</ele>
        <time>2021-02-20T14:14:21Z</time>
      </trkpt>
      <trkpt lat="45.16168" lon="5.91508">
        <ele>1839.9</ele>
        <time>2021-02-20T14:14:22Z</time>
      </trkpt>
      <trkpt lat="45.16168" lon="5.91508">
        <ele>1839.9</ele>
        <time>2021-02-20T14:14:23Z</time>
      </trkpt>
      <trkpt lat="45.16168" lon="5.91508">
        <ele>1839.9</ele>
        <time>2021-02-20T14:14:24Z</time>
      </trkpt>
      <trkpt lat="45.16168" lon="5.91508">
        <ele>1839.9</ele>
        <time>2021-02-20T14:14:25Z</time>
      </trkpt>
      <trkpt lat="45.16168" lon="5.91508">
        <ele>1839.9</ele>
        <time>2021-02-20T14:14:26Z</time>
      </trkpt>
      <trkpt lat="45.16168" lon="5.91508">
        <ele>1839.9</ele>
        <time>2021-02-20T14:14:27Z</time>
      </trkpt>
      <trkpt lat="45.16168" lon="5.91508">
        <ele>1839.9</ele>
        <time>2021-02-20T14:14:28Z</time>
      </trkpt>
      <trkpt lat="45.16168" lon="5.91508">
        <ele>1839.9</ele>
        <time>2021-02-20T14:14:29Z</time>
      </trkpt>
      <trkpt lat="45.16168" lon="5.91508">
        <ele>1839.9</ele>
        <time>2021-02-20T14:14:30Z</time>
      </trkpt>
      <trkpt lat="45.16168" lon="5.91508">
        <ele>1839.8</ele>
        <time>2021-02-20T14:14:31Z</time>
      </trkpt>
      <trkpt lat="45.16168" lon="5.91508">
        <ele>1839.7</ele>
        <time>2021-02-20T14:14:32Z</time>
      </trkpt>
      <trkpt lat="45.16166" lon="5.91501">
        <ele>1836.7</ele>
        <time>2021-02-20T14:14:49Z</time>
      </trkpt>
      <trkpt lat="45.16166" lon="5.91496">
        <ele>1834.3</ele>
        <time>2021-02-20T14:14:50Z</time>
      </trkpt>
      <trkpt lat="45.16167" lon="5.91492">
        <ele>1831.8</ele>
        <time>2021-02-20T14:14:51Z</time>
      </trkpt>
      <trkpt lat="45.16169" lon="5.91488">
        <ele>1827.9</ele>
        <time>2021-02-20T14:14:52Z</time>
      </trkpt>
      <trkpt lat="45.16171" lon="5.91483">
        <ele>1824</ele>
        <time>2021-02-20T14:14:53Z</time>
      </trkpt>
      <trkpt lat="45.16172" lon="5.9148">
        <ele>1821.6</ele>
        <time>2021-02-20T14:14:54Z</time>
      </trkpt>
      <trkpt lat="45.16174" lon="5.91476">
        <ele>1818.1</ele>
        <time>2021-02-20T14:14:55Z</time>
      </trkpt>
      <trkpt lat="45.16175" lon="5.91472">
        <ele>1818</ele>
        <time>2021-02-20T14:14:56Z</time>
      </trkpt>
      <trkpt lat="45.16177" lon="5.91467">
        <ele>1812.7</ele>
        <time>2021-02-20T14:14:57Z</time>
      </trkpt>
      <trkpt lat="45.16177" lon="5.91466">
        <ele>1812.6</ele>
        <time>2021-02-20T14:14:58Z</time>
      </trkpt>
      <trkpt lat="45.16178" lon="5.91461">
        <ele>1810.7</ele>
        <time>2021-02-20T14:14:59Z</time>
      </trkpt>
      <trkpt lat="45.16179" lon="5.91459">
        <ele>1808.8</ele>
        <time>2021-02-20T14:15:00Z</time>
      </trkpt>
      <trkpt lat="45.1618" lon="5.91455">
        <ele>1807.9</ele>
        <time>2021-02-20T14:15:01Z</time>
      </trkpt>
      <trkpt lat="45.16182" lon="5.91452">
        <ele>1806</ele>
        <time>2021-02-20T14:15:02Z</time>
      </trkpt>
      <trkpt lat="45.16183" lon="5.91448">
        <ele>1803.3</ele>
        <time>2021-02-20T14:15:03Z</time>
      </trkpt>
      <trkpt lat="45.16182" lon="5.91444">
        <ele>1802</ele>
        <time>2021-02-20T14:15:04Z</time>
      </trkpt>
      <trkpt lat="45.16181" lon="5.9144">
        <ele>1800</ele>
        <time>2021-02-20T14:15:05Z</time>
      </trkpt>
      <trkpt lat="45.1618" lon="5.91436">
        <ele>1798</ele>
        <time>2021-02-20T14:15:06Z</time>
      </trkpt>
      <trkpt lat="45.16179" lon="5.91432">
        <ele>1796.8</ele>
        <time>2021-02-20T14:15:07Z</time>
      </trkpt>
      <trkpt lat="45.1618" lon="5.91428">
        <ele>1794.1</ele>
        <time>2021-02-20T14:15:08Z</time>
      </trkpt>
      <trkpt lat="45.16181" lon="5.91427">
        <ele>1794</ele>
        <time>2021-02-20T14:15:09Z</time>
      </trkpt>
      <trkpt lat="45.16182" lon="5.91428">
        <ele>1793.9</ele>
        <time>2021-02-20T14:15:10Z</time>
      </trkpt>
      <trkpt lat="45.16182" lon="5.91428">
        <ele>1793.9</ele>
        <time>2021-02-20T14:15:11Z</time>
      </trkpt>
      <trkpt lat="45.16182" lon="5.91428">
        <ele>1793.8</ele>
        <time>2021-02-20T14:15:12Z</time>
      </trkpt>
      <trkpt lat="45.16181" lon="5.91431">
        <ele>1795.5</ele>
        <time>2021-02-20T14:15:13Z</time>
      </trkpt>
      <trkpt lat="45.16181" lon="5.91431">
        <ele>1795.4</ele>
        <time>2021-02-20T14:15:14Z</time>
      </trkpt>
      <trkpt lat="45.16181" lon="5.9143">
        <ele>1795.3</ele>
        <time>2021-02-20T14:15:15Z</time>
      </trkpt>
      <trkpt lat="45.16181" lon="5.91429">
        <ele>1793.4</ele>
        <time>2021-02-20T14:15:16Z</time>
      </trkpt>
      <trkpt lat="45.16182" lon="5.91428">
        <ele>1793.4</ele>
        <time>2021-02-20T14:15:17Z</time>
      </trkpt>
      <trkpt lat="45.16182" lon="5.91427">
        <ele>1793.3</ele>
        <time>2021-02-20T14:15:18Z</time>
      </trkpt>
      <trkpt lat="45.16182" lon="5.91427">
        <ele>1793.2</ele>
        <time>2021-02-20T14:15:19Z</time>
      </trkpt>
      <trkpt lat="45.16182" lon="5.91427">
        <ele>1793.1</ele>
        <time>2021-02-20T14:15:20Z</time>
      </trkpt>
      <trkpt lat="45.16182" lon="5.91427">
        <ele>1793</ele>
        <time>2021-02-20T14:15:21Z</time>
      </trkpt>
      <trkpt lat="45.16182" lon="5.91427">
        <ele>1792.9</ele>
        <time>2021-02-20T14:15:22Z</time>
      </trkpt>
      <trkpt lat="45.16183" lon="5.91428">
        <ele>1792.9</ele>
        <time>2021-02-20T14:15:23Z</time>
      </trkpt>
      <trkpt lat="45.16182" lon="5.91431">
        <ele>1794.6</ele>
        <time>2021-02-20T14:15:24Z</time>
      </trkpt>
      <trkpt lat="45.16182" lon="5.91434">
        <ele>1796.4</ele>
        <time>2021-02-20T14:15:25Z</time>
      </trkpt>
      <trkpt lat="45.16182" lon="5.91436">
        <ele>1796.3</ele>
        <time>2021-02-20T14:15:26Z</time>
      </trkpt>
      <trkpt lat="45.16182" lon="5.91438">
        <ele>1798.1</ele>
        <time>2021-02-20T14:16:37Z</time>
      </trkpt>
      <trkpt lat="45.16183" lon="5.9144">
        <ele>1798.1</ele>
        <time>2021-02-20T14:16:38Z</time>
      </trkpt>
      <trkpt lat="45.16183" lon="5.91443">
        <ele>1800</ele>
        <time>2021-02-20T14:16:39Z</time>
      </trkpt>
      <trkpt lat="45.16183" lon="5.91442">
        <ele>1799.1</ele>
        <time>2021-02-20T14:16:40Z</time>
      </trkpt>
      <trkpt lat="45.16183" lon="5.91442">
        <ele>1797.1</ele>
        <time>2021-02-20T14:16:41Z</time>
      </trkpt>
      <trkpt lat="45.16183" lon="5.91441">
        <ele>1797</ele>
        <time>2021-02-20T14:16:42Z</time>
      </trkpt>
      <trkpt lat="45.16184" lon="5.91441">
        <ele>1796.9</ele>
        <time>2021-02-20T14:16:43Z</time>
      </trkpt>
      <trkpt lat="45.16184" lon="5.9144">
        <ele>1796.8</ele>
        <time>2021-02-20T14:16:44Z</time>
      </trkpt>
      <trkpt lat="45.16184" lon="5.9144">
        <ele>1796.7</ele>
        <time>2021-02-20T14:16:45Z</time>
      </trkpt>
      <trkpt lat="45.16185" lon="5.91439">
        <ele>1796.7</ele>
        <time>2021-02-20T14:16:46Z</time>
      </trkpt>
      <trkpt lat="45.16185" lon="5.91439">
        <ele>1796.6</ele>
        <time>2021-02-20T14:17:32Z</time>
      </trkpt>
      <trkpt lat="45.16185" lon="5.91438">
        <ele>1796.5</ele>
        <time>2021-02-20T14:17:33Z</time>
      </trkpt>
      <trkpt lat="45.16186" lon="5.91438">
        <ele>1794.5</ele>
        <time>2021-02-20T14:17:34Z</time>
      </trkpt>
      <trkpt lat="45.16185" lon="5.91437">
        <ele>1794.4</ele>
        <time>2021-02-20T14:17:35Z</time>
      </trkpt>
      <trkpt lat="45.16185" lon="5.91436">
        <ele>1794.3</ele>
        <time>2021-02-20T14:17:36Z</time>
      </trkpt>
      <trkpt lat="45.16185" lon="5.91435">
        <ele>1794.2</ele>
        <time>2021-02-20T14:17:37Z</time>
      </trkpt>
      <trkpt lat="45.16185" lon="5.91434">
        <ele>1794.1</ele>
        <time>2021-02-20T14:17:38Z</time>
      </trkpt>
      <trkpt lat="45.16185" lon="5.91434">
        <ele>1794</ele>
        <time>2021-02-20T14:17:39Z</time>
      </trkpt>
      <trkpt lat="45.16185" lon="5.91435">
        <ele>1794</ele>
        <time>2021-02-20T14:17:40Z</time>
      </trkpt>
      <trkpt lat="45.16186" lon="5.91436">
        <ele>1793.1</ele>
        <time>2021-02-20T14:17:41Z</time>
      </trkpt>
      <trkpt lat="45.16187" lon="5.91437">
        <ele>1793.1</ele>
        <time>2021-02-20T14:17:42Z</time>
      </trkpt>
      <trkpt lat="45.16187" lon="5.91437">
        <ele>1793</ele>
        <time>2021-02-20T14:17:43Z</time>
      </trkpt>
      <trkpt lat="45.16188" lon="5.91435">
        <ele>1792.9</ele>
        <time>2021-02-20T14:17:44Z</time>
      </trkpt>
      <trkpt lat="45.16189" lon="5.91434">
        <ele>1792</ele>
        <time>2021-02-20T14:17:45Z</time>
      </trkpt>
      <trkpt lat="45.1619" lon="5.91433">
        <ele>1790</ele>
        <time>2021-02-20T14:17:46Z</time>
      </trkpt>
      <trkpt lat="45.1619" lon="5.91431">
        <ele>1790</ele>
        <time>2021-02-20T14:17:47Z</time>
      </trkpt>
      <trkpt lat="45.16191" lon="5.9143">
        <ele>1789.9</ele>
        <time>2021-02-20T14:17:48Z</time>
      </trkpt>
      <trkpt lat="45.16191" lon="5.9143">
        <ele>1789.8</ele>
        <time>2021-02-20T14:17:49Z</time>
      </trkpt>
      <trkpt lat="45.16191" lon="5.91429">
        <ele>1787.9</ele>
        <time>2021-02-20T14:17:50Z</time>
      </trkpt>
      <trkpt lat="45.16191" lon="5.9143">
        <ele>1789.6</ele>
        <time>2021-02-20T14:17:51Z</time>
      </trkpt>
      <trkpt lat="45.16191" lon="5.9143">
        <ele>1789.5</ele>
        <time>2021-02-20T14:17:52Z</time>
      </trkpt>
      <trkpt lat="45.1619" lon="5.9143">
        <ele>1789.5</ele>
        <time>2021-02-20T14:17:53Z</time>
      </trkpt>
      <trkpt lat="45.16189" lon="5.91429">
        <ele>1787.6</ele>
        <time>2021-02-20T14:17:54Z</time>
      </trkpt>
      <trkpt lat="45.16189" lon="5.91429">
        <ele>1787.5</ele>
        <time>2021-02-20T14:17:55Z</time>
      </trkpt>
      <trkpt lat="45.1619" lon="5.91427">
        <ele>1787.4</ele>
        <time>2021-02-20T14:17:56Z</time>
      </trkpt>
      <trkpt lat="45.16191" lon="5.91426">
        <ele>1787.3</ele>
        <time>2021-02-20T14:17:57Z</time>
      </trkpt>
      <trkpt lat="45.16192" lon="5.91425">
        <ele>1784.7</ele>
        <time>2021-02-20T14:17:58Z</time>
      </trkpt>
      <trkpt lat="45.16193" lon="5.91424">
        <ele>1784.7</ele>
        <time>2021-02-20T14:17:59Z</time>
      </trkpt>
      <trkpt lat="45.16194" lon="5.91422">
        <ele>1784.6</ele>
        <time>2021-02-20T14:18:00Z</time>
      </trkpt>
      <trkpt lat="45.16194" lon="5.91421">
        <ele>1784.5</ele>
        <time>2021-02-20T14:18:01Z</time>
      </trkpt>
      <trkpt lat="45.16195" lon="5.9142">
        <ele>1782</ele>
        <time>2021-02-20T14:18:02Z</time>
      </trkpt>
      <trkpt lat="45.16196" lon="5.91419">
        <ele>1781.9</ele>
        <time>2021-02-20T14:18:03Z</time>
      </trkpt>
      <trkpt lat="45.16197" lon="5.91417">
        <ele>1781.9</ele>
        <time>2021-02-20T14:18:04Z</time>
      </trkpt>
      <trkpt lat="45.16199" lon="5.91415">
        <ele>1779.5</ele>
        <time>2021-02-20T14:18:05Z</time>
      </trkpt>
      <trkpt lat="45.162" lon="5.91413">
        <ele>1779.4</ele>
        <time>2021-02-20T14:18:06Z</time>
      </trkpt>
      <trkpt lat="45.16201" lon="5.91412">
        <ele>1778.6</ele>
        <time>2021-02-20T14:18:07Z</time>
      </trkpt>
      <trkpt lat="45.16203" lon="5.91409">
        <ele>1777</ele>
        <time>2021-02-20T14:18:08Z</time>
      </trkpt>
      <trkpt lat="45.16204" lon="5.91407">
        <ele>1775.5</ele>
        <time>2021-02-20T14:18:09Z</time>
      </trkpt>
      <trkpt lat="45.16204" lon="5.91402">
        <ele>1773.9</ele>
        <time>2021-02-20T14:18:10Z</time>
      </trkpt>
      <trkpt lat="45.16203" lon="5.91401">
        <ele>1773.8</ele>
        <time>2021-02-20T14:18:11Z</time>
      </trkpt>
      <trkpt lat="45.16204" lon="5.91399">
        <ele>1772.2</ele>
        <time>2021-02-20T14:18:12Z</time>
      </trkpt>
      <trkpt lat="45.16205" lon="5.91397">
        <ele>1771.6</ele>
        <time>2021-02-20T14:18:13Z</time>
      </trkpt>
      <trkpt lat="45.16208" lon="5.91396">
        <ele>1771.2</ele>
        <time>2021-02-20T14:18:14Z</time>
      </trkpt>
      <trkpt lat="45.16209" lon="5.91396">
        <ele>1771.1</ele>
        <time>2021-02-20T14:18:15Z</time>
      </trkpt>
      <trkpt lat="45.16213" lon="5.91395">
        <ele>1770.1</ele>
        <time>2021-02-20T14:18:16Z</time>
      </trkpt>
      <trkpt lat="45.16218" lon="5.91395">
        <ele>1768</ele>
        <time>2021-02-20T14:18:17Z</time>
      </trkpt>
      <trkpt lat="45.16224" lon="5.91394">
        <ele>1767.1</ele>
        <time>2021-02-20T14:18:18Z</time>
      </trkpt>
      <trkpt lat="45.16229" lon="5.91392">
        <ele>1766.5</ele>
        <time>2021-02-20T14:18:19Z</time>
      </trkpt>
      <trkpt lat="45.16232" lon="5.91392">
        <ele>1766.2</ele>
        <time>2021-02-20T14:18:20Z</time>
      </trkpt>
      <trkpt lat="45.16235" lon="5.91391">
        <ele>1764.5</ele>
        <time>2021-02-20T14:18:21Z</time>
      </trkpt>
      <trkpt lat="45.16238" lon="5.91389">
        <ele>1764.4</ele>
        <time>2021-02-20T14:18:22Z</time>
      </trkpt>
      <trkpt lat="45.16242" lon="5.91387">
        <ele>1764.4</ele>
        <time>2021-02-20T14:18:23Z</time>
      </trkpt>
      <trkpt lat="45.16245" lon="5.91385">
        <ele>1762.9</ele>
        <time>2021-02-20T14:18:24Z</time>
      </trkpt>
      <trkpt lat="45.16249" lon="5.91382">
        <ele>1761.5</ele>
        <time>2021-02-20T14:18:25Z</time>
      </trkpt>
      <trkpt lat="45.16254" lon="5.91378">
        <ele>1761.7</ele>
        <time>2021-02-20T14:18:26Z</time>
      </trkpt>
      <trkpt lat="45.16257" lon="5.91377">
        <ele>1760.5</ele>
        <time>2021-02-20T14:18:27Z</time>
      </trkpt>
      <trkpt lat="45.16261" lon="5.91376">
        <ele>1760.6</ele>
        <time>2021-02-20T14:18:28Z</time>
      </trkpt>
      <trkpt lat="45.16263" lon="5.91375">
        <ele>1760.8</ele>
        <time>2021-02-20T14:18:29Z</time>
      </trkpt>
      <trkpt lat="45.16266" lon="5.91372">
        <ele>1759.6</ele>
        <time>2021-02-20T14:18:30Z</time>
      </trkpt>
      <trkpt lat="45.16268" lon="5.9137">
        <ele>1759.7</ele>
        <time>2021-02-20T14:18:31Z</time>
      </trkpt>
      <trkpt lat="45.16269" lon="5.91369">
        <ele>1758.3</ele>
        <time>2021-02-20T14:18:32Z</time>
      </trkpt>
      <trkpt lat="45.16265" lon="5.91371">
        <ele>1759.6</ele>
        <time>2021-02-20T14:18:33Z</time>
      </trkpt>
      <trkpt lat="45.16265" lon="5.9137">
        <ele>1759.6</ele>
        <time>2021-02-20T14:18:34Z</time>
      </trkpt>
      <trkpt lat="45.16265" lon="5.91369">
        <ele>1758.2</ele>
        <time>2021-02-20T14:18:35Z</time>
      </trkpt>
      <trkpt lat="45.16265" lon="5.91368">
        <ele>1758.2</ele>
        <time>2021-02-20T14:18:36Z</time>
      </trkpt>
      <trkpt lat="45.16264" lon="5.91366">
        <ele>1758.2</ele>
        <time>2021-02-20T14:18:37Z</time>
      </trkpt>
      <trkpt lat="45.16264" lon="5.91365">
        <ele>1758.1</ele>
        <time>2021-02-20T14:18:38Z</time>
      </trkpt>
      <trkpt lat="45.16264" lon="5.91364">
        <ele>1756.7</ele>
        <time>2021-02-20T14:18:39Z</time>
      </trkpt>
      <trkpt lat="45.16264" lon="5.91363">
        <ele>1756.7</ele>
        <time>2021-02-20T14:18:40Z</time>
      </trkpt>
      <trkpt lat="45.16264" lon="5.91361">
        <ele>1756.7</ele>
        <time>2021-02-20T14:18:41Z</time>
      </trkpt>
      <trkpt lat="45.16263" lon="5.9136">
        <ele>1755.1</ele>
        <time>2021-02-20T14:18:42Z</time>
      </trkpt>
      <trkpt lat="45.16263" lon="5.91359">
        <ele>1755.1</ele>
        <time>2021-02-20T14:18:43Z</time>
      </trkpt>
      <trkpt lat="45.16263" lon="5.91358">
        <ele>1755.1</ele>
        <time>2021-02-20T14:18:56Z</time>
      </trkpt>
      <trkpt lat="45.16263" lon="5.91357">
        <ele>1755.1</ele>
        <time>2021-02-20T14:18:57Z</time>
      </trkpt>
      <trkpt lat="45.16266" lon="5.91351">
        <ele>1751.8</ele>
        <time>2021-02-20T14:18:58Z</time>
      </trkpt>
      <trkpt lat="45.1627" lon="5.91348">
        <ele>1750</ele>
        <time>2021-02-20T14:18:59Z</time>
      </trkpt>
      <trkpt lat="45.16276" lon="5.91346">
        <ele>1750</ele>
        <time>2021-02-20T14:19:00Z</time>
      </trkpt>
      <trkpt lat="45.16282" lon="5.91346">
        <ele>1749.9</ele>
        <time>2021-02-20T14:19:01Z</time>
      </trkpt>
      <trkpt lat="45.16288" lon="5.91345">
        <ele>1749.7</ele>
        <time>2021-02-20T14:19:02Z</time>
      </trkpt>
      <trkpt lat="45.16294" lon="5.91345">
        <ele>1749.6</ele>
        <time>2021-02-20T14:19:03Z</time>
      </trkpt>
      <trkpt lat="45.16297" lon="5.91344">
        <ele>1749.5</ele>
        <time>2021-02-20T14:19:04Z</time>
      </trkpt>
      <trkpt lat="45.16301" lon="5.91343">
        <ele>1747.3</ele>
        <time>2021-02-20T14:19:05Z</time>
      </trkpt>
      <trkpt lat="45.16303" lon="5.91343">
        <ele>1747.3</ele>
        <time>2021-02-20T14:19:06Z</time>
      </trkpt>
      <trkpt lat="45.16306" lon="5.91341">
        <ele>1747.1</ele>
        <time>2021-02-20T14:19:07Z</time>
      </trkpt>
      <trkpt lat="45.16311" lon="5.91339">
        <ele>1746.8</ele>
        <time>2021-02-20T14:19:08Z</time>
      </trkpt>
      <trkpt lat="45.16316" lon="5.91337">
        <ele>1744.8</ele>
        <time>2021-02-20T14:19:09Z</time>
      </trkpt>
      <trkpt lat="45.16321" lon="5.91335">
        <ele>1744.5</ele>
        <time>2021-02-20T14:19:10Z</time>
      </trkpt>
      <trkpt lat="45.16327" lon="5.91333">
        <ele>1742.5</ele>
        <time>2021-02-20T14:19:11Z</time>
      </trkpt>
      <trkpt lat="45.1633" lon="5.91332">
        <ele>1742.3</ele>
        <time>2021-02-20T14:19:12Z</time>
      </trkpt>
      <trkpt lat="45.16333" lon="5.91332">
        <ele>1742.2</ele>
        <time>2021-02-20T14:19:13Z</time>
      </trkpt>
      <trkpt lat="45.16334" lon="5.91331">
        <ele>1742</ele>
        <time>2021-02-20T14:19:14Z</time>
      </trkpt>
      <trkpt lat="45.16336" lon="5.9133">
        <ele>1740.4</ele>
        <time>2021-02-20T14:19:15Z</time>
      </trkpt>
      <trkpt lat="45.16337" lon="5.9133">
        <ele>1740.2</ele>
        <time>2021-02-20T14:19:16Z</time>
      </trkpt>
      <trkpt lat="45.16341" lon="5.91329">
        <ele>1740.1</ele>
        <time>2021-02-20T14:19:17Z</time>
      </trkpt>
      <trkpt lat="45.16342" lon="5.91328">
        <ele>1740.1</ele>
        <time>2021-02-20T14:19:18Z</time>
      </trkpt>
      <trkpt lat="45.16345" lon="5.91326">
        <ele>1738.4</ele>
        <time>2021-02-20T14:19:19Z</time>
      </trkpt>
      <trkpt lat="45.1635" lon="5.91324">
        <ele>1738</ele>
        <time>2021-02-20T14:19:20Z</time>
      </trkpt>
      <trkpt lat="45.16354" lon="5.91324">
        <ele>1737.8</ele>
        <time>2021-02-20T14:19:21Z</time>
      </trkpt>
      <trkpt lat="45.16358" lon="5.91322">
        <ele>1737.2</ele>
        <time>2021-02-20T14:19:22Z</time>
      </trkpt>
      <trkpt lat="45.16362" lon="5.91321">
        <ele>1735.4</ele>
        <time>2021-02-20T14:19:23Z</time>
      </trkpt>
      <trkpt lat="45.16364" lon="5.91308">
        <ele>1731.3</ele>
        <time>2021-02-20T14:19:24Z</time>
      </trkpt>
      <trkpt lat="45.16362" lon="5.91301">
        <ele>1729.9</ele>
        <time>2021-02-20T14:19:25Z</time>
      </trkpt>
      <trkpt lat="45.16367" lon="5.91298">
        <ele>1728.3</ele>
        <time>2021-02-20T14:19:26Z</time>
      </trkpt>
      <trkpt lat="45.16373" lon="5.91302">
        <ele>1728.7</ele>
        <time>2021-02-20T14:19:27Z</time>
      </trkpt>
      <trkpt lat="45.16379" lon="5.91307">
        <ele>1729.7</ele>
        <time>2021-02-20T14:19:28Z</time>
      </trkpt>
      <trkpt lat="45.16384" lon="5.91307">
        <ele>1728.8</ele>
        <time>2021-02-20T14:19:29Z</time>
      </trkpt>
      <trkpt lat="45.16392" lon="5.91305">
        <ele>1727.2</ele>
        <time>2021-02-20T14:19:30Z</time>
      </trkpt>
      <trkpt lat="45.16397" lon="5.91307">
        <ele>1726.6</ele>
        <time>2021-02-20T14:19:31Z</time>
      </trkpt>
      <trkpt lat="45.16402" lon="5.91307">
        <ele>1725.7</ele>
        <time>2021-02-20T14:19:32Z</time>
      </trkpt>
      <trkpt lat="45.16408" lon="5.91307">
        <ele>1724.7</ele>
        <time>2021-02-20T14:19:33Z</time>
      </trkpt>
      <trkpt lat="45.16414" lon="5.91305">
        <ele>1722.2</ele>
        <time>2021-02-20T14:19:34Z</time>
      </trkpt>
      <trkpt lat="45.16419" lon="5.91305">
        <ele>1722.3</ele>
        <time>2021-02-20T14:19:35Z</time>
      </trkpt>
      <trkpt lat="45.1642" lon="5.91306">
        <ele>1722.3</ele>
        <time>2021-02-20T14:19:36Z</time>
      </trkpt>
      <trkpt lat="45.1642" lon="5.91308">
        <ele>1722.3</ele>
        <time>2021-02-20T14:19:37Z</time>
      </trkpt>
      <trkpt lat="45.1642" lon="5.91309">
        <ele>1722.3</ele>
        <time>2021-02-20T14:19:38Z</time>
      </trkpt>
      <trkpt lat="45.1642" lon="5.91309">
        <ele>1722.3</ele>
        <time>2021-02-20T14:19:39Z</time>
      </trkpt>
      <trkpt lat="45.16417" lon="5.91312">
        <ele>1724.2</ele>
        <time>2021-02-20T14:19:40Z</time>
      </trkpt>
      <trkpt lat="45.16418" lon="5.91313">
        <ele>1724.2</ele>
        <time>2021-02-20T14:19:41Z</time>
      </trkpt>
      <trkpt lat="45.16419" lon="5.91313">
        <ele>1723.6</ele>
        <time>2021-02-20T14:19:42Z</time>
      </trkpt>
      <trkpt lat="45.16421" lon="5.91313">
        <ele>1723.6</ele>
        <time>2021-02-20T14:19:43Z</time>
      </trkpt>
      <trkpt lat="45.16422" lon="5.91313">
        <ele>1723.6</ele>
        <time>2021-02-20T14:19:44Z</time>
      </trkpt>
      <trkpt lat="45.16423" lon="5.91312">
        <ele>1722.9</ele>
        <time>2021-02-20T14:19:45Z</time>
      </trkpt>
      <trkpt lat="45.16424" lon="5.91312">
        <ele>1722.9</ele>
        <time>2021-02-20T14:19:46Z</time>
      </trkpt>
      <trkpt lat="45.16425" lon="5.91312">
        <ele>1722.1</ele>
        <time>2021-02-20T14:19:47Z</time>
      </trkpt>
      <trkpt lat="45.16426" lon="5.91312">
        <ele>1722.1</ele>
        <time>2021-02-20T14:21:14Z</time>
      </trkpt>
      <trkpt lat="45.16427" lon="5.91312">
        <ele>1722.1</ele>
        <time>2021-02-20T14:21:15Z</time>
      </trkpt>
      <trkpt lat="45.1643" lon="5.91314">
        <ele>1722.6</ele>
        <time>2021-02-20T14:21:16Z</time>
      </trkpt>
      <trkpt lat="45.16433" lon="5.91316">
        <ele>1721.8</ele>
        <time>2021-02-20T14:21:17Z</time>
      </trkpt>
      <trkpt lat="45.16436" lon="5.91318">
        <ele>1722.1</ele>
        <time>2021-02-20T14:21:18Z</time>
      </trkpt>
      <trkpt lat="45.16437" lon="5.91319">
        <ele>1721.1</ele>
        <time>2021-02-20T14:21:19Z</time>
      </trkpt>
      <trkpt lat="45.16438" lon="5.91321">
        <ele>1721.1</ele>
        <time>2021-02-20T14:21:20Z</time>
      </trkpt>
      <trkpt lat="45.16438" lon="5.91322">
        <ele>1721.1</ele>
        <time>2021-02-20T14:21:21Z</time>
      </trkpt>
      <trkpt lat="45.16439" lon="5.91322">
        <ele>1721.1</ele>
        <time>2021-02-20T14:21:22Z</time>
      </trkpt>
      <trkpt lat="45.16439" lon="5.91322">
        <ele>1721.1</ele>
        <time>2021-02-20T14:21:23Z</time>
      </trkpt>
      <trkpt lat="45.16439" lon="5.91322">
        <ele>1721.1</ele>
        <time>2021-02-20T14:21:24Z</time>
      </trkpt>
      <trkpt lat="45.16439" lon="5.91322">
        <ele>1721.1</ele>
        <time>2021-02-20T14:21:25Z</time>
      </trkpt>
      <trkpt lat="45.1644" lon="5.91321">
        <ele>1721.1</ele>
        <time>2021-02-20T14:21:26Z</time>
      </trkpt>
      <trkpt lat="45.1644" lon="5.91322">
        <ele>1721.4</ele>
        <time>2021-02-20T14:21:27Z</time>
      </trkpt>
      <trkpt lat="45.16441" lon="5.91322">
        <ele>1721.4</ele>
        <time>2021-02-20T14:21:28Z</time>
      </trkpt>
      <trkpt lat="45.16441" lon="5.91322">
        <ele>1721.4</ele>
        <time>2021-02-20T14:21:29Z</time>
      </trkpt>
      <trkpt lat="45.16442" lon="5.91322">
        <ele>1721.4</ele>
        <time>2021-02-20T14:21:30Z</time>
      </trkpt>
      <trkpt lat="45.16443" lon="5.91322">
        <ele>1721.4</ele>
        <time>2021-02-20T14:21:31Z</time>
      </trkpt>
      <trkpt lat="45.16443" lon="5.91322">
        <ele>1720.3</ele>
        <time>2021-02-20T14:22:14Z</time>
      </trkpt>
      <trkpt lat="45.16444" lon="5.91322">
        <ele>1720.3</ele>
        <time>2021-02-20T14:22:15Z</time>
      </trkpt>
      <trkpt lat="45.16443" lon="5.91319">
        <ele>1719</ele>
        <time>2021-02-20T14:22:16Z</time>
      </trkpt>
      <trkpt lat="45.16443" lon="5.91317">
        <ele>1718.8</ele>
        <time>2021-02-20T14:22:17Z</time>
      </trkpt>
      <trkpt lat="45.16442" lon="5.91316">
        <ele>1718.8</ele>
        <time>2021-02-20T14:22:18Z</time>
      </trkpt>
      <trkpt lat="45.16442" lon="5.91314">
        <ele>1718.8</ele>
        <time>2021-02-20T14:22:19Z</time>
      </trkpt>
      <trkpt lat="45.16441" lon="5.91312">
        <ele>1717.5</ele>
        <time>2021-02-20T14:22:20Z</time>
      </trkpt>
      <trkpt lat="45.1644" lon="5.9131">
        <ele>1717.5</ele>
        <time>2021-02-20T14:22:21Z</time>
      </trkpt>
      <trkpt lat="45.1644" lon="5.91308">
        <ele>1717.2</ele>
        <time>2021-02-20T14:22:22Z</time>
      </trkpt>
      <trkpt lat="45.16439" lon="5.91307">
        <ele>1717.2</ele>
        <time>2021-02-20T14:22:23Z</time>
      </trkpt>
      <trkpt lat="45.16439" lon="5.91305">
        <ele>1715.9</ele>
        <time>2021-02-20T14:22:24Z</time>
      </trkpt>
      <trkpt lat="45.16438" lon="5.91303">
        <ele>1715.9</ele>
        <time>2021-02-20T14:22:25Z</time>
      </trkpt>
      <trkpt lat="45.16437" lon="5.91301">
        <ele>1715.9</ele>
        <time>2021-02-20T14:22:26Z</time>
      </trkpt>
      <trkpt lat="45.16437" lon="5.91299">
        <ele>1715.5</ele>
        <time>2021-02-20T14:22:44Z</time>
      </trkpt>
      <trkpt lat="45.16436" lon="5.91298">
        <ele>1715.5</ele>
        <time>2021-02-20T14:22:45Z</time>
      </trkpt>
      <trkpt lat="45.16434" lon="5.9129">
        <ele>1713</ele>
        <time>2021-02-20T14:22:46Z</time>
      </trkpt>
      <trkpt lat="45.16432" lon="5.91284">
        <ele>1712.8</ele>
        <time>2021-02-20T14:22:47Z</time>
      </trkpt>
      <trkpt lat="45.16429" lon="5.91278">
        <ele>1711.4</ele>
        <time>2021-02-20T14:22:48Z</time>
      </trkpt>
      <trkpt lat="45.16427" lon="5.91274">
        <ele>1711.1</ele>
        <time>2021-02-20T14:22:49Z</time>
      </trkpt>
      <trkpt lat="45.16424" lon="5.9127">
        <ele>1710.8</ele>
        <time>2021-02-20T14:22:50Z</time>
      </trkpt>
      <trkpt lat="45.16421" lon="5.91266">
        <ele>1710.4</ele>
        <time>2021-02-20T14:22:51Z</time>
      </trkpt>
      <trkpt lat="45.16419" lon="5.91261">
        <ele>1710</ele>
        <time>2021-02-20T14:22:52Z</time>
      </trkpt>
      <trkpt lat="45.16416" lon="5.91256">
        <ele>1708.7</ele>
        <time>2021-02-20T14:22:53Z</time>
      </trkpt>
      <trkpt lat="45.16414" lon="5.91251">
        <ele>1708.2</ele>
        <time>2021-02-20T14:22:54Z</time>
      </trkpt>
      <trkpt lat="45.16411" lon="5.91244">
        <ele>1706.5</ele>
        <time>2021-02-20T14:22:55Z</time>
      </trkpt>
      <trkpt lat="45.16409" lon="5.91238">
        <ele>1705.9</ele>
        <time>2021-02-20T14:22:56Z</time>
      </trkpt>
      <trkpt lat="45.16406" lon="5.91232">
        <ele>1704.3</ele>
        <time>2021-02-20T14:22:57Z</time>
      </trkpt>
      <trkpt lat="45.16404" lon="5.91227">
        <ele>1703.1</ele>
        <time>2021-02-20T14:22:58Z</time>
      </trkpt>
      <trkpt lat="45.16402" lon="5.91222">
        <ele>1702.4</ele>
        <time>2021-02-20T14:22:59Z</time>
      </trkpt>
      <trkpt lat="45.16404" lon="5.9122">
        <ele>1701.9</ele>
        <time>2021-02-20T14:23:00Z</time>
      </trkpt>
      <trkpt lat="45.16406" lon="5.9122">
        <ele>1701.9</ele>
        <time>2021-02-20T14:23:01Z</time>
      </trkpt>
      <trkpt lat="45.16409" lon="5.91219">
        <ele>1701.4</ele>
        <time>2021-02-20T14:23:02Z</time>
      </trkpt>
      <trkpt lat="45.16413" lon="5.91221">
        <ele>1700.8</ele>
        <time>2021-02-20T14:23:03Z</time>
      </trkpt>
      <trkpt lat="45.16416" lon="5.91221">
        <ele>1699.5</ele>
        <time>2021-02-20T14:23:04Z</time>
      </trkpt>
      <trkpt lat="45.16421" lon="5.91221">
        <ele>1698.8</ele>
        <time>2021-02-20T14:23:05Z</time>
      </trkpt>
      <trkpt lat="45.16426" lon="5.91221">
        <ele>1697.4</ele>
        <time>2021-02-20T14:23:06Z</time>
      </trkpt>
      <trkpt lat="45.1643" lon="5.91217">
        <ele>1695.4</ele>
        <time>2021-02-20T14:23:07Z</time>
      </trkpt>
      <trkpt lat="45.16426" lon="5.91205">
        <ele>1692.6</ele>
        <time>2021-02-20T14:23:08Z</time>
      </trkpt>
      <trkpt lat="45.16421" lon="5.91202">
        <ele>1693</ele>
        <time>2021-02-20T14:23:09Z</time>
      </trkpt>
      <trkpt lat="45.16417" lon="5.91201">
        <ele>1693.7</ele>
        <time>2021-02-20T14:23:10Z</time>
      </trkpt>
      <trkpt lat="45.16413" lon="5.91199">
        <ele>1694.4</ele>
        <time>2021-02-20T14:23:11Z</time>
      </trkpt>
      <trkpt lat="45.1641" lon="5.91199">
        <ele>1695.1</ele>
        <time>2021-02-20T14:23:12Z</time>
      </trkpt>
      <trkpt lat="45.16407" lon="5.91197">
        <ele>1694.7</ele>
        <time>2021-02-20T14:23:13Z</time>
      </trkpt>
      <trkpt lat="45.16405" lon="5.91193">
        <ele>1694.3</ele>
        <time>2021-02-20T14:23:14Z</time>
      </trkpt>
      <trkpt lat="45.164" lon="5.91191">
        <ele>1695.3</ele>
        <time>2021-02-20T14:23:15Z</time>
      </trkpt>
      <trkpt lat="45.16397" lon="5.91188">
        <ele>1694.9</ele>
        <time>2021-02-20T14:23:16Z</time>
      </trkpt>
      <trkpt lat="45.16393" lon="5.91183">
        <ele>1694.4</ele>
        <time>2021-02-20T14:23:17Z</time>
      </trkpt>
      <trkpt lat="45.16389" lon="5.9118">
        <ele>1693.8</ele>
        <time>2021-02-20T14:23:18Z</time>
      </trkpt>
      <trkpt lat="45.16388" lon="5.91175">
        <ele>1693.2</ele>
        <time>2021-02-20T14:23:19Z</time>
      </trkpt>
      <trkpt lat="45.16387" lon="5.91171">
        <ele>1692.1</ele>
        <time>2021-02-20T14:23:20Z</time>
      </trkpt>
      <trkpt lat="45.16388" lon="5.91166">
        <ele>1691</ele>
        <time>2021-02-20T14:23:21Z</time>
      </trkpt>
      <trkpt lat="45.16392" lon="5.91162">
        <ele>1689.2</ele>
        <time>2021-02-20T14:23:22Z</time>
      </trkpt>
      <trkpt lat="45.16397" lon="5.91159">
        <ele>1688.7</ele>
        <time>2021-02-20T14:23:23Z</time>
      </trkpt>
      <trkpt lat="45.16402" lon="5.91156">
        <ele>1686.7</ele>
        <time>2021-02-20T14:23:24Z</time>
      </trkpt>
      <trkpt lat="45.16404" lon="5.91151">
        <ele>1685.1</ele>
        <time>2021-02-20T14:23:25Z</time>
      </trkpt>
      <trkpt lat="45.16404" lon="5.91147">
        <ele>1684.1</ele>
        <time>2021-02-20T14:23:26Z</time>
      </trkpt>
      <trkpt lat="45.16403" lon="5.91143">
        <ele>1683.8</ele>
        <time>2021-02-20T14:23:27Z</time>
      </trkpt>
      <trkpt lat="45.164" lon="5.9114">
        <ele>1683.3</ele>
        <time>2021-02-20T14:23:28Z</time>
      </trkpt>
      <trkpt lat="45.164" lon="5.91139">
        <ele>1683.3</ele>
        <time>2021-02-20T14:23:29Z</time>
      </trkpt>
      <trkpt lat="45.164" lon="5.91138">
        <ele>1683.3</ele>
        <time>2021-02-20T14:23:30Z</time>
      </trkpt>
      <trkpt lat="45.164" lon="5.91138">
        <ele>1683.3</ele>
        <time>2021-02-20T14:23:31Z</time>
      </trkpt>
      <trkpt lat="45.164" lon="5.91137">
        <ele>1682.2</ele>
        <time>2021-02-20T14:23:32Z</time>
      </trkpt>
      <trkpt lat="45.16401" lon="5.91136">
        <ele>1681.7</ele>
        <time>2021-02-20T14:23:33Z</time>
      </trkpt>
      <trkpt lat="45.16404" lon="5.91135">
        <ele>1681.1</ele>
        <time>2021-02-20T14:23:34Z</time>
      </trkpt>
      <trkpt lat="45.16405" lon="5.91135">
        <ele>1681.1</ele>
        <time>2021-02-20T14:23:35Z</time>
      </trkpt>
      <trkpt lat="45.16406" lon="5.91134">
        <ele>1681.1</ele>
        <time>2021-02-20T14:23:36Z</time>
      </trkpt>
      <trkpt lat="45.16407" lon="5.91135">
        <ele>1680.4</ele>
        <time>2021-02-20T14:23:37Z</time>
      </trkpt>
      <trkpt lat="45.16407" lon="5.91135">
        <ele>1680.4</ele>
        <time>2021-02-20T14:23:38Z</time>
      </trkpt>
      <trkpt lat="45.16408" lon="5.91134">
        <ele>1680.4</ele>
        <time>2021-02-20T14:23:39Z</time>
      </trkpt>
      <trkpt lat="45.16408" lon="5.91133">
        <ele>1679.2</ele>
        <time>2021-02-20T14:23:40Z</time>
      </trkpt>
      <trkpt lat="45.16408" lon="5.91131">
        <ele>1679.2</ele>
        <time>2021-02-20T14:23:41Z</time>
      </trkpt>
      <trkpt lat="45.16408" lon="5.9113">
        <ele>1679.2</ele>
        <time>2021-02-20T14:23:42Z</time>
      </trkpt>
      <trkpt lat="45.16408" lon="5.91128">
        <ele>1678</ele>
        <time>2021-02-20T14:23:43Z</time>
      </trkpt>
      <trkpt lat="45.16407" lon="5.91127">
        <ele>1678</ele>
        <time>2021-02-20T14:23:44Z</time>
      </trkpt>
      <trkpt lat="45.16407" lon="5.91125">
        <ele>1678</ele>
        <time>2021-02-20T14:23:45Z</time>
      </trkpt>
      <trkpt lat="45.16407" lon="5.91124">
        <ele>1676.8</ele>
        <time>2021-02-20T14:23:46Z</time>
      </trkpt>
      <trkpt lat="45.16407" lon="5.91122">
        <ele>1677.4</ele>
        <time>2021-02-20T14:26:17Z</time>
      </trkpt>
      <trkpt lat="45.16406" lon="5.91121">
        <ele>1677.4</ele>
        <time>2021-02-20T14:26:18Z</time>
      </trkpt>
      <trkpt lat="45.16406" lon="5.9112">
        <ele>1677.4</ele>
        <time>2021-02-20T14:26:19Z</time>
      </trkpt>
      <trkpt lat="45.16406" lon="5.91119">
        <ele>1676.1</ele>
        <time>2021-02-20T14:26:20Z</time>
      </trkpt>
      <trkpt lat="45.16406" lon="5.91118">
        <ele>1676.1</ele>
        <time>2021-02-20T14:26:21Z</time>
      </trkpt>
      <trkpt lat="45.16406" lon="5.91117">
        <ele>1676.1</ele>
        <time>2021-02-20T14:26:22Z</time>
      </trkpt>
      <trkpt lat="45.16406" lon="5.91116">
        <ele>1676.1</ele>
        <time>2021-02-20T14:26:23Z</time>
      </trkpt>
      <trkpt lat="45.16406" lon="5.91115">
        <ele>1674.7</ele>
        <time>2021-02-20T14:26:24Z</time>
      </trkpt>
      <trkpt lat="45.16406" lon="5.91115">
        <ele>1674.7</ele>
        <time>2021-02-20T14:26:25Z</time>
      </trkpt>
      <trkpt lat="45.16407" lon="5.91114">
        <ele>1674.7</ele>
        <time>2021-02-20T14:26:26Z</time>
      </trkpt>
      <trkpt lat="45.16407" lon="5.91114">
        <ele>1674.7</ele>
        <time>2021-02-20T14:26:27Z</time>
      </trkpt>
      <trkpt lat="45.16407" lon="5.91114">
        <ele>1674.7</ele>
        <time>2021-02-20T14:26:28Z</time>
      </trkpt>
      <trkpt lat="45.16406" lon="5.91114">
        <ele>1674.7</ele>
        <time>2021-02-20T14:26:29Z</time>
      </trkpt>
      <trkpt lat="45.16406" lon="5.91114">
        <ele>1674.7</ele>
        <time>2021-02-20T14:26:30Z</time>
      </trkpt>
      <trkpt lat="45.16405" lon="5.91113">
        <ele>1674.7</ele>
        <time>2021-02-20T14:26:31Z</time>
      </trkpt>
      <trkpt lat="45.16405" lon="5.91113">
        <ele>1674.7</ele>
        <time>2021-02-20T14:26:32Z</time>
      </trkpt>
      <trkpt lat="45.16405" lon="5.91113">
        <ele>1674.7</ele>
        <time>2021-02-20T14:26:33Z</time>
      </trkpt>
      <trkpt lat="45.16403" lon="5.91111">
        <ele>1673.9</ele>
        <time>2021-02-20T14:26:34Z</time>
      </trkpt>
      <trkpt lat="45.164" lon="5.9111">
        <ele>1674.3</ele>
        <time>2021-02-20T14:26:35Z</time>
      </trkpt>
      <trkpt lat="45.16398" lon="5.91109">
        <ele>1674.3</ele>
        <time>2021-02-20T14:27:05Z</time>
      </trkpt>
      <trkpt lat="45.16396" lon="5.91107">
        <ele>1673.2</ele>
        <time>2021-02-20T14:27:06Z</time>
      </trkpt>
      <trkpt lat="45.16393" lon="5.91106">
        <ele>1673.6</ele>
        <time>2021-02-20T14:27:07Z</time>
      </trkpt>
      <trkpt lat="45.16391" lon="5.91106">
        <ele>1673.9</ele>
        <time>2021-02-20T14:27:08Z</time>
      </trkpt>
      <trkpt lat="45.16389" lon="5.91105">
        <ele>1673.9</ele>
        <time>2021-02-20T14:27:09Z</time>
      </trkpt>
      <trkpt lat="45.16388" lon="5.91105">
        <ele>1674.2</ele>
        <time>2021-02-20T14:27:10Z</time>
      </trkpt>
      <trkpt lat="45.16388" lon="5.91104">
        <ele>1674.2</ele>
        <time>2021-02-20T14:27:11Z</time>
      </trkpt>
      <trkpt lat="45.16388" lon="5.91104">
        <ele>1674.2</ele>
        <time>2021-02-20T14:27:12Z</time>
      </trkpt>
      <trkpt lat="45.16388" lon="5.91103">
        <ele>1672.7</ele>
        <time>2021-02-20T14:27:13Z</time>
      </trkpt>
      <trkpt lat="45.16388" lon="5.91102">
        <ele>1672.7</ele>
        <time>2021-02-20T14:27:14Z</time>
      </trkpt>
      <trkpt lat="45.16387" lon="5.91101">
        <ele>1672.7</ele>
        <time>2021-02-20T14:27:15Z</time>
      </trkpt>
      <trkpt lat="45.16386" lon="5.911">
        <ele>1672.7</ele>
        <time>2021-02-20T14:27:16Z</time>
      </trkpt>
      <trkpt lat="45.16386" lon="5.91099">
        <ele>1672.7</ele>
        <time>2021-02-20T14:27:17Z</time>
      </trkpt>
      <trkpt lat="45.16386" lon="5.91098">
        <ele>1671.3</ele>
        <time>2021-02-20T14:27:18Z</time>
      </trkpt>
      <trkpt lat="45.16386" lon="5.91097">
        <ele>1671.3</ele>
        <time>2021-02-20T14:27:19Z</time>
      </trkpt>
      <trkpt lat="45.16386" lon="5.91096">
        <ele>1671.3</ele>
        <time>2021-02-20T14:27:20Z</time>
      </trkpt>
      <trkpt lat="45.16386" lon="5.91096">
        <ele>1671.3</ele>
        <time>2021-02-20T14:27:21Z</time>
      </trkpt>
      <trkpt lat="45.16386" lon="5.91095">
        <ele>1671.3</ele>
        <time>2021-02-20T14:27:22Z</time>
      </trkpt>
      <trkpt lat="45.16386" lon="5.91094">
        <ele>1669.7</ele>
        <time>2021-02-20T14:27:23Z</time>
      </trkpt>
      <trkpt lat="45.16386" lon="5.91093">
        <ele>1669.7</ele>
        <time>2021-02-20T14:27:24Z</time>
      </trkpt>
      <trkpt lat="45.16386" lon="5.91092">
        <ele>1669.7</ele>
        <time>2021-02-20T14:27:25Z</time>
      </trkpt>
      <trkpt lat="45.16385" lon="5.91091">
        <ele>1669.9</ele>
        <time>2021-02-20T14:27:26Z</time>
      </trkpt>
      <trkpt lat="45.16385" lon="5.9109">
        <ele>1669.9</ele>
        <time>2021-02-20T14:27:27Z</time>
      </trkpt>
      <trkpt lat="45.16385" lon="5.9109">
        <ele>1668.3</ele>
        <time>2021-02-20T14:29:21Z</time>
      </trkpt>
      <trkpt lat="45.16385" lon="5.91089">
        <ele>1668.3</ele>
        <time>2021-02-20T14:29:22Z</time>
      </trkpt>
      <trkpt lat="45.16385" lon="5.91088">
        <ele>1668.3</ele>
        <time>2021-02-20T14:29:23Z</time>
      </trkpt>
      <trkpt lat="45.16385" lon="5.91087">
        <ele>1668.3</ele>
        <time>2021-02-20T14:29:24Z</time>
      </trkpt>
      <trkpt lat="45.16385" lon="5.91085">
        <ele>1666.6</ele>
        <time>2021-02-20T14:29:25Z</time>
      </trkpt>
      <trkpt lat="45.16385" lon="5.91084">
        <ele>1666.6</ele>
        <time>2021-02-20T14:29:26Z</time>
      </trkpt>
      <trkpt lat="45.16385" lon="5.91083">
        <ele>1666.6</ele>
        <time>2021-02-20T14:29:27Z</time>
      </trkpt>
      <trkpt lat="45.16385" lon="5.91082">
        <ele>1664.9</ele>
        <time>2021-02-20T14:29:28Z</time>
      </trkpt>
      <trkpt lat="45.16385" lon="5.9108">
        <ele>1664.9</ele>
        <time>2021-02-20T14:29:29Z</time>
      </trkpt>
      <trkpt lat="45.16385" lon="5.91079">
        <ele>1664.9</ele>
        <time>2021-02-20T14:29:30Z</time>
      </trkpt>
      <trkpt lat="45.16385" lon="5.91078">
        <ele>1664.9</ele>
        <time>2021-02-20T14:29:31Z</time>
      </trkpt>
      <trkpt lat="45.16385" lon="5.91076">
        <ele>1663.1</ele>
        <time>2021-02-20T14:30:20Z</time>
      </trkpt>
      <trkpt lat="45.16385" lon="5.91075">
        <ele>1663.1</ele>
        <time>2021-02-20T14:30:21Z</time>
      </trkpt>
      <trkpt lat="45.16385" lon="5.91074">
        <ele>1663.1</ele>
        <time>2021-02-20T14:30:22Z</time>
      </trkpt>
      <trkpt lat="45.16385" lon="5.91073">
        <ele>1661.3</ele>
        <time>2021-02-20T14:30:23Z</time>
      </trkpt>
      <trkpt lat="45.16385" lon="5.91071">
        <ele>1661.3</ele>
        <time>2021-02-20T14:30:24Z</time>
      </trkpt>
      <trkpt lat="45.16384" lon="5.9107">
        <ele>1661.3</ele>
        <time>2021-02-20T14:30:25Z</time>
      </trkpt>
      <trkpt lat="45.16384" lon="5.91068">
        <ele>1659.5</ele>
        <time>2021-02-20T14:30:26Z</time>
      </trkpt>
      <trkpt lat="45.16383" lon="5.91067">
        <ele>1659.5</ele>
        <time>2021-02-20T14:30:27Z</time>
      </trkpt>
      <trkpt lat="45.16383" lon="5.91066">
        <ele>1659.5</ele>
        <time>2021-02-20T14:30:28Z</time>
      </trkpt>
      <trkpt lat="45.16383" lon="5.91065">
        <ele>1659.5</ele>
        <time>2021-02-20T14:30:29Z</time>
      </trkpt>
      <trkpt lat="45.16382" lon="5.91065">
        <ele>1659.5</ele>
        <time>2021-02-20T14:30:30Z</time>
      </trkpt>
      <trkpt lat="45.16381" lon="5.91065">
        <ele>1659.5</ele>
        <time>2021-02-20T14:30:31Z</time>
      </trkpt>
      <trkpt lat="45.1638" lon="5.91065">
        <ele>1659.5</ele>
        <time>2021-02-20T14:30:32Z</time>
      </trkpt>
      <trkpt lat="45.16378" lon="5.91067">
        <ele>1659.5</ele>
        <time>2021-02-20T14:30:33Z</time>
      </trkpt>
      <trkpt lat="45.16378" lon="5.91067">
        <ele>1659.5</ele>
        <time>2021-02-20T14:30:34Z</time>
      </trkpt>
      <trkpt lat="45.16378" lon="5.91067">
        <ele>1659.5</ele>
        <time>2021-02-20T14:30:35Z</time>
      </trkpt>
      <trkpt lat="45.16378" lon="5.91068">
        <ele>1659.5</ele>
        <time>2021-02-20T14:30:36Z</time>
      </trkpt>
      <trkpt lat="45.16378" lon="5.91068">
        <ele>1659.5</ele>
        <time>2021-02-20T14:30:37Z</time>
      </trkpt>
      <trkpt lat="45.16378" lon="5.91069">
        <ele>1659.5</ele>
        <time>2021-02-20T14:30:38Z</time>
      </trkpt>
      <trkpt lat="45.16377" lon="5.91069">
        <ele>1661.3</ele>
        <time>2021-02-20T14:30:39Z</time>
      </trkpt>
      <trkpt lat="45.16377" lon="5.91069">
        <ele>1661.3</ele>
        <time>2021-02-20T14:30:40Z</time>
      </trkpt>
      <trkpt lat="45.16377" lon="5.91069">
        <ele>1661.3</ele>
        <time>2021-02-20T14:30:41Z</time>
      </trkpt>
      <trkpt lat="45.16377" lon="5.91069">
        <ele>1661.3</ele>
        <time>2021-02-20T14:30:42Z</time>
      </trkpt>
      <trkpt lat="45.16377" lon="5.91069">
        <ele>1661.3</ele>
        <time>2021-02-20T14:30:43Z</time>
      </trkpt>
      <trkpt lat="45.16381" lon="5.9107">
        <ele>1661.3</ele>
        <time>2021-02-20T14:31:12Z</time>
      </trkpt>
      <trkpt lat="45.1638" lon="5.9107">
        <ele>1661.3</ele>
        <time>2021-02-20T14:31:13Z</time>
      </trkpt>
      <trkpt lat="45.16379" lon="5.91069">
        <ele>1661.3</ele>
        <time>2021-02-20T14:31:14Z</time>
      </trkpt>
      <trkpt lat="45.16379" lon="5.91069">
        <ele>1661.3</ele>
        <time>2021-02-20T14:31:15Z</time>
      </trkpt>
      <trkpt lat="45.16379" lon="5.91069">
        <ele>1661.3</ele>
        <time>2021-02-20T14:31:16Z</time>
      </trkpt>
      <trkpt lat="45.16379" lon="5.91069">
        <ele>1661.3</ele>
        <time>2021-02-20T14:31:17Z</time>
      </trkpt>
      <trkpt lat="45.16379" lon="5.91069">
        <ele>1661.3</ele>
        <time>2021-02-20T14:31:18Z</time>
      </trkpt>
      <trkpt lat="45.16377" lon="5.9107">
        <ele>1661.3</ele>
        <time>2021-02-20T14:31:19Z</time>
      </trkpt>
      <trkpt lat="45.16377" lon="5.9107">
        <ele>1661.3</ele>
        <time>2021-02-20T14:31:20Z</time>
      </trkpt>
      <trkpt lat="45.16377" lon="5.9107">
        <ele>1661.3</ele>
        <time>2021-02-20T14:31:21Z</time>
      </trkpt>
      <trkpt lat="45.16377" lon="5.9107">
        <ele>1661.3</ele>
        <time>2021-02-20T14:31:22Z</time>
      </trkpt>
      <trkpt lat="45.16371" lon="5.91066">
        <ele>1659.3</ele>
        <time>2021-02-20T14:31:48Z</time>
      </trkpt>
      <trkpt lat="45.16371" lon="5.91066">
        <ele>1659.3</ele>
        <time>2021-02-20T14:31:49Z</time>
      </trkpt>
      <trkpt lat="45.16371" lon="5.91068">
        <ele>1659.3</ele>
        <time>2021-02-20T14:31:50Z</time>
      </trkpt>
      <trkpt lat="45.16373" lon="5.91069">
        <ele>1661.1</ele>
        <time>2021-02-20T14:31:51Z</time>
      </trkpt>
      <trkpt lat="45.16374" lon="5.91069">
        <ele>1661.2</ele>
        <time>2021-02-20T14:31:52Z</time>
      </trkpt>
      <trkpt lat="45.16376" lon="5.91068">
        <ele>1659.4</ele>
        <time>2021-02-20T14:31:53Z</time>
      </trkpt>
      <trkpt lat="45.16378" lon="5.91068">
        <ele>1659.5</ele>
        <time>2021-02-20T14:31:54Z</time>
      </trkpt>
      <trkpt lat="45.16379" lon="5.91066">
        <ele>1659.5</ele>
        <time>2021-02-20T14:31:55Z</time>
      </trkpt>
      <trkpt lat="45.16379" lon="5.91065">
        <ele>1659.5</ele>
        <time>2021-02-20T14:31:56Z</time>
      </trkpt>
      <trkpt lat="45.16379" lon="5.91065">
        <ele>1659.5</ele>
        <time>2021-02-20T14:31:57Z</time>
      </trkpt>
      <trkpt lat="45.1638" lon="5.91064">
        <ele>1656.7</ele>
        <time>2021-02-20T14:31:58Z</time>
      </trkpt>
      <trkpt lat="45.1638" lon="5.91063">
        <ele>1656.7</ele>
        <time>2021-02-20T14:31:59Z</time>
      </trkpt>
      <trkpt lat="45.1638" lon="5.91062">
        <ele>1656.7</ele>
        <time>2021-02-20T14:32:00Z</time>
      </trkpt>
      <trkpt lat="45.1638" lon="5.91062">
        <ele>1656.7</ele>
        <time>2021-02-20T14:32:01Z</time>
      </trkpt>
      <trkpt lat="45.1638" lon="5.91062">
        <ele>1656.7</ele>
        <time>2021-02-20T14:32:02Z</time>
      </trkpt>
      <trkpt lat="45.1638" lon="5.91062">
        <ele>1656.7</ele>
        <time>2021-02-20T14:32:03Z</time>
      </trkpt>
      <trkpt lat="45.1638" lon="5.91062">
        <ele>1656.7</ele>
        <time>2021-02-20T14:32:04Z</time>
      </trkpt>
      <trkpt lat="45.1638" lon="5.91062">
        <ele>1656.7</ele>
        <time>2021-02-20T14:32:05Z</time>
      </trkpt>
      <trkpt lat="45.1638" lon="5.91065">
        <ele>1659.5</ele>
        <time>2021-02-20T14:35:29Z</time>
      </trkpt>
      <trkpt lat="45.1638" lon="5.91065">
        <ele>1659.5</ele>
        <time>2021-02-20T14:35:30Z</time>
      </trkpt>
      <trkpt lat="45.1638" lon="5.91065">
        <ele>1659.5</ele>
        <time>2021-02-20T14:35:31Z</time>
      </trkpt>
      <trkpt lat="45.16383" lon="5.91062">
        <ele>1656.8</ele>
        <time>2021-02-20T14:35:32Z</time>
      </trkpt>
      <trkpt lat="45.16385" lon="5.9106">
        <ele>1655.1</ele>
        <time>2021-02-20T14:35:33Z</time>
      </trkpt>
      <trkpt lat="45.16386" lon="5.91059">
        <ele>1655.2</ele>
        <time>2021-02-20T14:35:34Z</time>
      </trkpt>
      <trkpt lat="45.1639" lon="5.91059">
        <ele>1655.3</ele>
        <time>2021-02-20T14:35:35Z</time>
      </trkpt>
      <trkpt lat="45.16394" lon="5.91062">
        <ele>1656.9</ele>
        <time>2021-02-20T14:35:36Z</time>
      </trkpt>
      <trkpt lat="45.16399" lon="5.91064">
        <ele>1656.9</ele>
        <time>2021-02-20T14:35:37Z</time>
      </trkpt>
      <trkpt lat="45.16402" lon="5.91066">
        <ele>1659.2</ele>
        <time>2021-02-20T14:35:38Z</time>
      </trkpt>
      <trkpt lat="45.16404" lon="5.91067">
        <ele>1659.1</ele>
        <time>2021-02-20T14:35:39Z</time>
      </trkpt>
      <trkpt lat="45.16406" lon="5.91067">
        <ele>1659.1</ele>
        <time>2021-02-20T14:35:40Z</time>
      </trkpt>
      <trkpt lat="45.16407" lon="5.91066">
        <ele>1658.9</ele>
        <time>2021-02-20T14:35:41Z</time>
      </trkpt>
      <trkpt lat="45.16406" lon="5.91071">
        <ele>1660.5</ele>
        <time>2021-02-20T14:35:42Z</time>
      </trkpt>
      <trkpt lat="45.16405" lon="5.91073">
        <ele>1660.5</ele>
        <time>2021-02-20T14:35:43Z</time>
      </trkpt>
      <trkpt lat="45.16404" lon="5.91077">
        <ele>1662</ele>
        <time>2021-02-20T14:35:44Z</time>
      </trkpt>
      <trkpt lat="45.16404" lon="5.91079">
        <ele>1663.6</ele>
        <time>2021-02-20T14:35:45Z</time>
      </trkpt>
      <trkpt lat="45.16404" lon="5.91084">
        <ele>1665.1</ele>
        <time>2021-02-20T14:35:46Z</time>
      </trkpt>
      <trkpt lat="45.16403" lon="5.91089">
        <ele>1666.9</ele>
        <time>2021-02-20T14:35:47Z</time>
      </trkpt>
      <trkpt lat="45.16402" lon="5.91094">
        <ele>1668.4</ele>
        <time>2021-02-20T14:35:48Z</time>
      </trkpt>
      <trkpt lat="45.164" lon="5.91097">
        <ele>1670.1</ele>
        <time>2021-02-20T14:35:49Z</time>
      </trkpt>
      <trkpt lat="45.16397" lon="5.91098">
        <ele>1670.4</ele>
        <time>2021-02-20T14:35:50Z</time>
      </trkpt>
      <trkpt lat="45.16393" lon="5.91098">
        <ele>1670.7</ele>
        <time>2021-02-20T14:35:51Z</time>
      </trkpt>
      <trkpt lat="45.16391" lon="5.91096">
        <ele>1671</ele>
        <time>2021-02-20T14:35:52Z</time>
      </trkpt>
      <trkpt lat="45.16389" lon="5.91094">
        <ele>1669.5</ele>
        <time>2021-02-20T14:35:53Z</time>
      </trkpt>
      <trkpt lat="45.16387" lon="5.91092">
        <ele>1669.7</ele>
        <time>2021-02-20T14:35:54Z</time>
      </trkpt>
      <trkpt lat="45.16383" lon="5.91089">
        <ele>1668.3</ele>
        <time>2021-02-20T14:35:55Z</time>
      </trkpt>
      <trkpt lat="45.16382" lon="5.91088">
        <ele>1668.5</ele>
        <time>2021-02-20T14:35:56Z</time>
      </trkpt>
      <trkpt lat="45.16381" lon="5.91087">
        <ele>1668.5</ele>
        <time>2021-02-20T14:35:57Z</time>
      </trkpt>
      <trkpt lat="45.16381" lon="5.91086">
        <ele>1668.5</ele>
        <time>2021-02-20T14:35:58Z</time>
      </trkpt>
      <trkpt lat="45.1638" lon="5.91086">
        <ele>1666.7</ele>
        <time>2021-02-20T14:35:59Z</time>
      </trkpt>
      <trkpt lat="45.16379" lon="5.91085">
        <ele>1666.8</ele>
        <time>2021-02-20T14:36:00Z</time>
      </trkpt>
      <trkpt lat="45.16382" lon="5.91079">
        <ele>1664.9</ele>
        <time>2021-02-20T14:36:01Z</time>
      </trkpt>
      <trkpt lat="45.16384" lon="5.91073">
        <ele>1663.1</ele>
        <time>2021-02-20T14:36:09Z</time>
      </trkpt>
      <trkpt lat="45.16387" lon="5.91068">
        <ele>1659.5</ele>
        <time>2021-02-20T14:36:10Z</time>
      </trkpt>
      <trkpt lat="45.16389" lon="5.91065">
        <ele>1659.5</ele>
        <time>2021-02-20T14:36:11Z</time>
      </trkpt>
      <trkpt lat="45.16389" lon="5.91064">
        <ele>1656.9</ele>
        <time>2021-02-20T14:36:12Z</time>
      </trkpt>
      <trkpt lat="45.16391" lon="5.91061">
        <ele>1656.9</ele>
        <time>2021-02-20T14:36:13Z</time>
      </trkpt>
      <trkpt lat="45.16391" lon="5.9106">
        <ele>1655.3</ele>
        <time>2021-02-20T14:36:14Z</time>
      </trkpt>
      <trkpt lat="45.16392" lon="5.91059">
        <ele>1655.3</ele>
        <time>2021-02-20T14:36:15Z</time>
      </trkpt>
      <trkpt lat="45.16392" lon="5.91059">
        <ele>1655.3</ele>
        <time>2021-02-20T14:36:16Z</time>
      </trkpt>
      <trkpt lat="45.16395" lon="5.91056">
        <ele>1655.4</ele>
        <time>2021-02-20T14:36:17Z</time>
      </trkpt>
      <trkpt lat="45.16396" lon="5.91055">
        <ele>1653.9</ele>
        <time>2021-02-20T14:36:18Z</time>
      </trkpt>
      <trkpt lat="45.16397" lon="5.91054">
        <ele>1653.9</ele>
        <time>2021-02-20T14:36:19Z</time>
      </trkpt>
      <trkpt lat="45.16397" lon="5.91053">
        <ele>1653.9</ele>
        <time>2021-02-20T14:36:20Z</time>
      </trkpt>
      <trkpt lat="45.16397" lon="5.91052">
        <ele>1652.4</ele>
        <time>2021-02-20T14:36:21Z</time>
      </trkpt>
      <trkpt lat="45.16397" lon="5.9105">
        <ele>1652.4</ele>
        <time>2021-02-20T14:36:22Z</time>
      </trkpt>
      <trkpt lat="45.16397" lon="5.9105">
        <ele>1652.4</ele>
        <time>2021-02-20T14:36:23Z</time>
      </trkpt>
      <trkpt lat="45.16397" lon="5.9105">
        <ele>1652.4</ele>
        <time>2021-02-20T14:36:24Z</time>
      </trkpt>
      <trkpt lat="45.16397" lon="5.9105">
        <ele>1652.4</ele>
        <time>2021-02-20T14:36:25Z</time>
      </trkpt>
      <trkpt lat="45.16397" lon="5.9105">
        <ele>1652.4</ele>
        <time>2021-02-20T14:36:26Z</time>
      </trkpt>
      <trkpt lat="45.16397" lon="5.91047">
        <ele>1650.9</ele>
        <time>2021-02-20T14:36:27Z</time>
      </trkpt>
      <trkpt lat="45.16395" lon="5.91046">
        <ele>1650.9</ele>
        <time>2021-02-20T14:36:28Z</time>
      </trkpt>
      <trkpt lat="45.16394" lon="5.91046">
        <ele>1650.7</ele>
        <time>2021-02-20T14:36:29Z</time>
      </trkpt>
      <trkpt lat="45.16392" lon="5.91046">
        <ele>1650.7</ele>
        <time>2021-02-20T14:36:32Z</time>
      </trkpt>
      <trkpt lat="45.16391" lon="5.91046">
        <ele>1650.4</ele>
        <time>2021-02-20T14:36:33Z</time>
      </trkpt>
      <trkpt lat="45.1639" lon="5.91046">
        <ele>1650.4</ele>
        <time>2021-02-20T14:36:34Z</time>
      </trkpt>
      <trkpt lat="45.1639" lon="5.91046">
        <ele>1650.4</ele>
        <time>2021-02-20T14:36:35Z</time>
      </trkpt>
      <trkpt lat="45.1639" lon="5.91046">
        <ele>1650.4</ele>
        <time>2021-02-20T14:36:36Z</time>
      </trkpt>
      <trkpt lat="45.1639" lon="5.91046">
        <ele>1650.4</ele>
        <time>2021-02-20T14:36:37Z</time>
      </trkpt>
      <trkpt lat="45.16389" lon="5.91046">
        <ele>1650.4</ele>
        <time>2021-02-20T14:36:38Z</time>
      </trkpt>
      <trkpt lat="45.16388" lon="5.91046">
        <ele>1650.2</ele>
        <time>2021-02-20T14:36:39Z</time>
      </trkpt>
      <trkpt lat="45.16386" lon="5.91044">
        <ele>1650.2</ele>
        <time>2021-02-20T14:36:40Z</time>
      </trkpt>
      <trkpt lat="45.16385" lon="5.91044">
        <ele>1649.9</ele>
        <time>2021-02-20T14:36:41Z</time>
      </trkpt>
      <trkpt lat="45.16385" lon="5.91043">
        <ele>1649.9</ele>
        <time>2021-02-20T14:36:42Z</time>
      </trkpt>
      <trkpt lat="45.16384" lon="5.91043">
        <ele>1648.1</ele>
        <time>2021-02-20T14:36:43Z</time>
      </trkpt>
      <trkpt lat="45.16383" lon="5.91042">
        <ele>1648.1</ele>
        <time>2021-02-20T14:38:03Z</time>
      </trkpt>
      <trkpt lat="45.16382" lon="5.91042">
        <ele>1647.7</ele>
        <time>2021-02-20T14:38:04Z</time>
      </trkpt>
      <trkpt lat="45.16381" lon="5.91041">
        <ele>1647.7</ele>
        <time>2021-02-20T14:38:05Z</time>
      </trkpt>
      <trkpt lat="45.16381" lon="5.91041">
        <ele>1647.7</ele>
        <time>2021-02-20T14:38:06Z</time>
      </trkpt>
      <trkpt lat="45.1638" lon="5.9104">
        <ele>1647.7</ele>
        <time>2021-02-20T14:38:07Z</time>
      </trkpt>
      <trkpt lat="45.16379" lon="5.9104">
        <ele>1647.4</ele>
        <time>2021-02-20T14:38:08Z</time>
      </trkpt>
      <trkpt lat="45.16378" lon="5.91039">
        <ele>1647.4</ele>
        <time>2021-02-20T14:38:09Z</time>
      </trkpt>
      <trkpt lat="45.16377" lon="5.91039">
        <ele>1647.4</ele>
        <time>2021-02-20T14:38:10Z</time>
      </trkpt>
      <trkpt lat="45.16377" lon="5.91038">
        <ele>1645.4</ele>
        <time>2021-02-20T14:38:11Z</time>
      </trkpt>
      <trkpt lat="45.16376" lon="5.91038">
        <ele>1645</ele>
        <time>2021-02-20T14:38:12Z</time>
      </trkpt>
      <trkpt lat="45.16375" lon="5.91037">
        <ele>1645</ele>
        <time>2021-02-20T14:38:13Z</time>
      </trkpt>
      <trkpt lat="45.16374" lon="5.91037">
        <ele>1645</ele>
        <time>2021-02-20T14:41:19Z</time>
      </trkpt>
      <trkpt lat="45.16374" lon="5.91037">
        <ele>1645</ele>
        <time>2021-02-20T14:41:20Z</time>
      </trkpt>
      <trkpt lat="45.16373" lon="5.91036">
        <ele>1644.6</ele>
        <time>2021-02-20T14:41:21Z</time>
      </trkpt>
      <trkpt lat="45.16372" lon="5.91036">
        <ele>1644.6</ele>
        <time>2021-02-20T14:41:22Z</time>
      </trkpt>
      <trkpt lat="45.16371" lon="5.91035">
        <ele>1644.6</ele>
        <time>2021-02-20T14:41:23Z</time>
      </trkpt>
      <trkpt lat="45.16373" lon="5.91035">
        <ele>1644.6</ele>
        <time>2021-02-20T14:41:24Z</time>
      </trkpt>
      <trkpt lat="45.16374" lon="5.91035">
        <ele>1645</ele>
        <time>2021-02-20T14:41:25Z</time>
      </trkpt>
      <trkpt lat="45.16375" lon="5.91034">
        <ele>1642.9</ele>
        <time>2021-02-20T14:41:26Z</time>
      </trkpt>
      <trkpt lat="45.16377" lon="5.91034">
        <ele>1643.4</ele>
        <time>2021-02-20T14:41:27Z</time>
      </trkpt>
      <trkpt lat="45.16378" lon="5.91034">
        <ele>1643.4</ele>
        <time>2021-02-20T14:41:28Z</time>
      </trkpt>
      <trkpt lat="45.16378" lon="5.91035">
        <ele>1645.4</ele>
        <time>2021-02-20T14:41:29Z</time>
      </trkpt>
      <trkpt lat="45.16379" lon="5.91035">
        <ele>1645.4</ele>
        <time>2021-02-20T14:41:30Z</time>
      </trkpt>
      <trkpt lat="45.16379" lon="5.91035">
        <ele>1645.4</ele>
        <time>2021-02-20T14:41:31Z</time>
      </trkpt>
      <trkpt lat="45.16378" lon="5.91036">
        <ele>1645.4</ele>
        <time>2021-02-20T14:41:32Z</time>
      </trkpt>
      <trkpt lat="45.16378" lon="5.91036">
        <ele>1645.4</ele>
        <time>2021-02-20T14:41:33Z</time>
      </trkpt>
      <trkpt lat="45.16378" lon="5.91036">
        <ele>1645.4</ele>
        <time>2021-02-20T14:41:34Z</time>
      </trkpt>
      <trkpt lat="45.16378" lon="5.91036">
        <ele>1645.4</ele>
        <time>2021-02-20T14:41:35Z</time>
      </trkpt>
      <trkpt lat="45.16376" lon="5.91038">
        <ele>1645</ele>
        <time>2021-02-20T14:41:36Z</time>
      </trkpt>
      <trkpt lat="45.16374" lon="5.91039">
        <ele>1647</ele>
        <time>2021-02-20T14:41:37Z</time>
      </trkpt>
      <trkpt lat="45.16371" lon="5.91041">
        <ele>1646.6</ele>
        <time>2021-02-20T14:41:38Z</time>
      </trkpt>
      <trkpt lat="45.16368" lon="5.91042">
        <ele>1646.3</ele>
        <time>2021-02-20T14:41:39Z</time>
      </trkpt>
      <trkpt lat="45.16365" lon="5.91044">
        <ele>1648.1</ele>
        <time>2021-02-20T14:41:42Z</time>
      </trkpt>
      <trkpt lat="45.16362" lon="5.91045">
        <ele>1647.8</ele>
        <time>2021-02-20T14:41:43Z</time>
      </trkpt>
      <trkpt lat="45.16361" lon="5.91048">
        <ele>1649.9</ele>
        <time>2021-02-20T14:41:44Z</time>
      </trkpt>
      <trkpt lat="45.16362" lon="5.91049">
        <ele>1649.9</ele>
        <time>2021-02-20T14:41:45Z</time>
      </trkpt>
      <trkpt lat="45.16363" lon="5.9105">
        <ele>1649.9</ele>
        <time>2021-02-20T14:41:46Z</time>
      </trkpt>
      <trkpt lat="45.16366" lon="5.91049">
        <ele>1650.1</ele>
        <time>2021-02-20T14:41:47Z</time>
      </trkpt>
      <trkpt lat="45.16368" lon="5.91049">
        <ele>1650.4</ele>
        <time>2021-02-20T14:41:48Z</time>
      </trkpt>
      <trkpt lat="45.16369" lon="5.91048">
        <ele>1650.4</ele>
        <time>2021-02-20T14:41:49Z</time>
      </trkpt>
      <trkpt lat="45.16365" lon="5.91049">
        <ele>1650.1</ele>
        <time>2021-02-20T14:41:50Z</time>
      </trkpt>
      <trkpt lat="45.16364" lon="5.91049">
        <ele>1649.9</ele>
        <time>2021-02-20T14:41:51Z</time>
      </trkpt>
      <trkpt lat="45.16363" lon="5.9105">
        <ele>1649.9</ele>
        <time>2021-02-20T14:41:52Z</time>
      </trkpt>
      <trkpt lat="45.16361" lon="5.9105">
        <ele>1649.9</ele>
        <time>2021-02-20T14:41:53Z</time>
      </trkpt>
      <trkpt lat="45.1636" lon="5.91051">
        <ele>1649.7</ele>
        <time>2021-02-20T14:41:54Z</time>
      </trkpt>
      <trkpt lat="45.16359" lon="5.91051">
        <ele>1649.7</ele>
        <time>2021-02-20T14:41:55Z</time>
      </trkpt>
      <trkpt lat="45.16358" lon="5.91052">
        <ele>1651.7</ele>
        <time>2021-02-20T14:41:56Z</time>
      </trkpt>
      <trkpt lat="45.16359" lon="5.91051">
        <ele>1649.7</ele>
        <time>2021-02-20T14:41:57Z</time>
      </trkpt>
      <trkpt lat="45.1636" lon="5.9105">
        <ele>1649.7</ele>
        <time>2021-02-20T14:41:58Z</time>
      </trkpt>
      <trkpt lat="45.1636" lon="5.91049">
        <ele>1649.7</ele>
        <time>2021-02-20T14:42:54Z</time>
      </trkpt>
      <trkpt lat="45.16361" lon="5.91048">
        <ele>1649.7</ele>
        <time>2021-02-20T14:42:55Z</time>
      </trkpt>
      <trkpt lat="45.16362" lon="5.91047">
        <ele>1647.8</ele>
        <time>2021-02-20T14:42:56Z</time>
      </trkpt>
      <trkpt lat="45.16363" lon="5.91046">
        <ele>1647.8</ele>
        <time>2021-02-20T14:42:57Z</time>
      </trkpt>
      <trkpt lat="45.16363" lon="5.91045">
        <ele>1647.8</ele>
        <time>2021-02-20T14:42:58Z</time>
      </trkpt>
      <trkpt lat="45.16364" lon="5.91044">
        <ele>1647.8</ele>
        <time>2021-02-20T14:42:59Z</time>
      </trkpt>
      <trkpt lat="45.16364" lon="5.91045">
        <ele>1647.8</ele>
        <time>2021-02-20T14:43:00Z</time>
      </trkpt>
      <trkpt lat="45.16363" lon="5.91046">
        <ele>1647.8</ele>
        <time>2021-02-20T14:43:01Z</time>
      </trkpt>
      <trkpt lat="45.16362" lon="5.91046">
        <ele>1647.8</ele>
        <time>2021-02-20T14:43:02Z</time>
      </trkpt>
      <trkpt lat="45.16361" lon="5.91047">
        <ele>1647.5</ele>
        <time>2021-02-20T14:43:03Z</time>
      </trkpt>
      <trkpt lat="45.16361" lon="5.91047">
        <ele>1647.5</ele>
        <time>2021-02-20T14:43:04Z</time>
      </trkpt>
      <trkpt lat="45.1636" lon="5.91047">
        <ele>1647.5</ele>
        <time>2021-02-20T14:43:05Z</time>
      </trkpt>
      <trkpt lat="45.16358" lon="5.91047">
        <ele>1647.5</ele>
        <time>2021-02-20T14:43:06Z</time>
      </trkpt>
      <trkpt lat="45.16358" lon="5.91046">
        <ele>1647.3</ele>
        <time>2021-02-20T14:43:07Z</time>
      </trkpt>
      <trkpt lat="45.16357" lon="5.91046">
        <ele>1647.3</ele>
        <time>2021-02-20T14:43:08Z</time>
      </trkpt>
      <trkpt lat="45.16356" lon="5.91046">
        <ele>1647.3</ele>
        <time>2021-02-20T14:43:09Z</time>
      </trkpt>
      <trkpt lat="45.16355" lon="5.91045">
        <ele>1647.3</ele>
        <time>2021-02-20T14:43:10Z</time>
      </trkpt>
      <trkpt lat="45.16355" lon="5.91045">
        <ele>1647</ele>
        <time>2021-02-20T14:43:11Z</time>
      </trkpt>
      <trkpt lat="45.16354" lon="5.91045">
        <ele>1647</ele>
        <time>2021-02-20T14:43:12Z</time>
      </trkpt>
      <trkpt lat="45.16353" lon="5.91046">
        <ele>1647</ele>
        <time>2021-02-20T14:43:13Z</time>
      </trkpt>
      <trkpt lat="45.16351" lon="5.91045">
        <ele>1646.6</ele>
        <time>2021-02-20T14:43:14Z</time>
      </trkpt>
      <trkpt lat="45.1635" lon="5.91045">
        <ele>1646.6</ele>
        <time>2021-02-20T14:43:15Z</time>
      </trkpt>
      <trkpt lat="45.16349" lon="5.91045">
        <ele>1646.3</ele>
        <time>2021-02-20T14:43:16Z</time>
      </trkpt>
      <trkpt lat="45.16348" lon="5.91045">
        <ele>1646.3</ele>
        <time>2021-02-20T14:43:17Z</time>
      </trkpt>
      <trkpt lat="45.16347" lon="5.91046">
        <ele>1646.3</ele>
        <time>2021-02-20T14:43:18Z</time>
      </trkpt>
      <trkpt lat="45.16347" lon="5.91046">
        <ele>1646.3</ele>
        <time>2021-02-20T14:43:19Z</time>
      </trkpt>
      <trkpt lat="45.16346" lon="5.91047">
        <ele>1646.3</ele>
        <time>2021-02-20T14:43:20Z</time>
      </trkpt>
      <trkpt lat="45.16346" lon="5.91047">
        <ele>1648.2</ele>
        <time>2021-02-20T14:43:21Z</time>
      </trkpt>
      <trkpt lat="45.16345" lon="5.91049">
        <ele>1648.2</ele>
        <time>2021-02-20T14:43:22Z</time>
      </trkpt>
      <trkpt lat="45.16344" lon="5.91049">
        <ele>1648.2</ele>
        <time>2021-02-20T14:43:23Z</time>
      </trkpt>
      <trkpt lat="45.16344" lon="5.91048">
        <ele>1648.2</ele>
        <time>2021-02-20T14:43:24Z</time>
      </trkpt>
      <trkpt lat="45.16344" lon="5.91047">
        <ele>1645.9</ele>
        <time>2021-02-20T14:43:25Z</time>
      </trkpt>
      <trkpt lat="45.16343" lon="5.91045">
        <ele>1645.9</ele>
        <time>2021-02-20T14:43:26Z</time>
      </trkpt>
      <trkpt lat="45.16343" lon="5.91044">
        <ele>1645.5</ele>
        <time>2021-02-20T14:43:27Z</time>
      </trkpt>
      <trkpt lat="45.16342" lon="5.91044">
        <ele>1645.5</ele>
        <time>2021-02-20T14:43:28Z</time>
      </trkpt>
      <trkpt lat="45.16342" lon="5.91045">
        <ele>1645.5</ele>
        <time>2021-02-20T14:43:29Z</time>
      </trkpt>
      <trkpt lat="45.16342" lon="5.91045">
        <ele>1645.5</ele>
        <time>2021-02-20T14:43:30Z</time>
      </trkpt>
      <trkpt lat="45.16342" lon="5.91045">
        <ele>1645.5</ele>
        <time>2021-02-20T14:43:31Z</time>
      </trkpt>
      <trkpt lat="45.16342" lon="5.91047">
        <ele>1645.5</ele>
        <time>2021-02-20T14:43:32Z</time>
      </trkpt>
      <trkpt lat="45.16342" lon="5.91047">
        <ele>1645.5</ele>
        <time>2021-02-20T14:43:33Z</time>
      </trkpt>
      <trkpt lat="45.16342" lon="5.91048">
        <ele>1647.8</ele>
        <time>2021-02-20T14:43:34Z</time>
      </trkpt>
      <trkpt lat="45.16343" lon="5.91048">
        <ele>1647.8</ele>
        <time>2021-02-20T14:43:35Z</time>
      </trkpt>
      <trkpt lat="45.16343" lon="5.91048">
        <ele>1648.2</ele>
        <time>2021-02-20T14:43:36Z</time>
      </trkpt>
      <trkpt lat="45.16344" lon="5.91049">
        <ele>1648.2</ele>
        <time>2021-02-20T14:43:37Z</time>
      </trkpt>
      <trkpt lat="45.16344" lon="5.91049">
        <ele>1648.2</ele>
        <time>2021-02-20T14:43:38Z</time>
      </trkpt>
      <trkpt lat="45.16345" lon="5.91049">
        <ele>1648.2</ele>
        <time>2021-02-20T14:43:39Z</time>
      </trkpt>
      <trkpt lat="45.16345" lon="5.91049">
        <ele>1648.2</ele>
        <time>2021-02-20T14:43:40Z</time>
      </trkpt>
      <trkpt lat="45.16345" lon="5.91048">
        <ele>1648.2</ele>
        <time>2021-02-20T14:43:41Z</time>
      </trkpt>
      <trkpt lat="45.16346" lon="5.91048">
        <ele>1648.2</ele>
        <time>2021-02-20T14:43:42Z</time>
      </trkpt>
      <trkpt lat="45.16346" lon="5.91048">
        <ele>1648.6</ele>
        <time>2021-02-20T14:43:43Z</time>
      </trkpt>
      <trkpt lat="45.16347" lon="5.91047">
        <ele>1646.3</ele>
        <time>2021-02-20T14:43:44Z</time>
      </trkpt>
      <trkpt lat="45.16347" lon="5.91047">
        <ele>1646.3</ele>
        <time>2021-02-20T14:43:45Z</time>
      </trkpt>
      <trkpt lat="45.16347" lon="5.91046">
        <ele>1646.3</ele>
        <time>2021-02-20T14:43:46Z</time>
      </trkpt>
      <trkpt lat="45.16348" lon="5.91046">
        <ele>1646.3</ele>
        <time>2021-02-20T14:43:47Z</time>
      </trkpt>
      <trkpt lat="45.16348" lon="5.91046">
        <ele>1646.3</ele>
        <time>2021-02-20T14:43:48Z</time>
      </trkpt>
      <trkpt lat="45.16348" lon="5.91045">
        <ele>1646.3</ele>
        <time>2021-02-20T14:44:34Z</time>
      </trkpt>
      <trkpt lat="45.16349" lon="5.91045">
        <ele>1646.3</ele>
        <time>2021-02-20T14:44:35Z</time>
      </trkpt>
      <trkpt lat="45.16349" lon="5.91044">
        <ele>1646.6</ele>
        <time>2021-02-20T14:44:36Z</time>
      </trkpt>
      <trkpt lat="45.1635" lon="5.91044">
        <ele>1646.6</ele>
        <time>2021-02-20T14:44:37Z</time>
      </trkpt>
      <trkpt lat="45.16351" lon="5.91043">
        <ele>1646.6</ele>
        <time>2021-02-20T14:44:38Z</time>
      </trkpt>
      <trkpt lat="45.16352" lon="5.91043">
        <ele>1646.6</ele>
        <time>2021-02-20T14:44:39Z</time>
      </trkpt>
      <trkpt lat="45.16353" lon="5.91043">
        <ele>1644.6</ele>
        <time>2021-02-20T14:44:40Z</time>
      </trkpt>
      <trkpt lat="45.16353" lon="5.91042">
        <ele>1644.6</ele>
        <time>2021-02-20T14:44:41Z</time>
      </trkpt>
      <trkpt lat="45.16354" lon="5.91042">
        <ele>1644.6</ele>
        <time>2021-02-20T14:44:42Z</time>
      </trkpt>
      <trkpt lat="45.16355" lon="5.91042">
        <ele>1644.6</ele>
        <time>2021-02-20T14:44:43Z</time>
      </trkpt>
      <trkpt lat="45.16355" lon="5.91041">
        <ele>1645</ele>
        <time>2021-02-20T14:44:44Z</time>
      </trkpt>
      <trkpt lat="45.16356" lon="5.91041">
        <ele>1645</ele>
        <time>2021-02-20T14:44:45Z</time>
      </trkpt>
      <trkpt lat="45.16357" lon="5.9104">
        <ele>1645</ele>
        <time>2021-02-20T14:44:46Z</time>
      </trkpt>
      <trkpt lat="45.16358" lon="5.9104">
        <ele>1645</ele>
        <time>2021-02-20T14:44:47Z</time>
      </trkpt>
      <trkpt lat="45.16359" lon="5.91039">
        <ele>1645.3</ele>
        <time>2021-02-20T14:44:48Z</time>
      </trkpt>
      <trkpt lat="45.1636" lon="5.91039">
        <ele>1643</ele>
        <time>2021-02-20T14:44:49Z</time>
      </trkpt>
      <trkpt lat="45.1636" lon="5.91038">
        <ele>1643</ele>
        <time>2021-02-20T14:44:50Z</time>
      </trkpt>
      <trkpt lat="45.16361" lon="5.91037">
        <ele>1643</ele>
        <time>2021-02-20T14:44:51Z</time>
      </trkpt>
      <trkpt lat="45.16361" lon="5.91036">
        <ele>1643.4</ele>
        <time>2021-02-20T14:44:52Z</time>
      </trkpt>
      <trkpt lat="45.16362" lon="5.91035">
        <ele>1643.4</ele>
        <time>2021-02-20T14:44:53Z</time>
      </trkpt>
      <trkpt lat="45.16362" lon="5.91035">
        <ele>1643.4</ele>
        <time>2021-02-20T14:44:54Z</time>
      </trkpt>
      <trkpt lat="45.16363" lon="5.91034">
        <ele>1641</ele>
        <time>2021-02-20T14:44:55Z</time>
      </trkpt>
      <trkpt lat="45.16363" lon="5.91033">
        <ele>1641</ele>
        <time>2021-02-20T14:44:56Z</time>
      </trkpt>
      <trkpt lat="45.16364" lon="5.91032">
        <ele>1641</ele>
        <time>2021-02-20T14:44:57Z</time>
      </trkpt>
      <trkpt lat="45.16364" lon="5.91032">
        <ele>1641</ele>
        <time>2021-02-20T14:44:58Z</time>
      </trkpt>
      <trkpt lat="45.16364" lon="5.91031">
        <ele>1641.5</ele>
        <time>2021-02-20T14:44:59Z</time>
      </trkpt>
      <trkpt lat="45.16365" lon="5.91031">
        <ele>1641.5</ele>
        <time>2021-02-20T14:45:00Z</time>
      </trkpt>
      <trkpt lat="45.16365" lon="5.91031">
        <ele>1641.5</ele>
        <time>2021-02-20T14:45:01Z</time>
      </trkpt>
      <trkpt lat="45.16365" lon="5.9103">
        <ele>1639.2</ele>
        <time>2021-02-20T14:45:02Z</time>
      </trkpt>
      <trkpt lat="45.16366" lon="5.91029">
        <ele>1639.2</ele>
        <time>2021-02-20T14:45:03Z</time>
      </trkpt>
      <trkpt lat="45.16367" lon="5.91028">
        <ele>1639.2</ele>
        <time>2021-02-20T14:45:04Z</time>
      </trkpt>
      <trkpt lat="45.16368" lon="5.91028">
        <ele>1639.8</ele>
        <time>2021-02-20T14:45:05Z</time>
      </trkpt>
      <trkpt lat="45.16369" lon="5.91027">
        <ele>1639.8</ele>
        <time>2021-02-20T14:45:06Z</time>
      </trkpt>
      <trkpt lat="45.1637" lon="5.91026">
        <ele>1639.8</ele>
        <time>2021-02-20T14:45:07Z</time>
      </trkpt>
      <trkpt lat="45.1637" lon="5.91026">
        <ele>1637.7</ele>
        <time>2021-02-20T14:45:08Z</time>
      </trkpt>
      <trkpt lat="45.16371" lon="5.91025">
        <ele>1638.3</ele>
        <time>2021-02-20T14:45:09Z</time>
      </trkpt>
      <trkpt lat="45.16372" lon="5.91024">
        <ele>1638.3</ele>
        <time>2021-02-20T14:45:10Z</time>
      </trkpt>
      <trkpt lat="45.16372" lon="5.91023">
        <ele>1638.3</ele>
        <time>2021-02-20T14:45:11Z</time>
      </trkpt>
      <trkpt lat="45.16373" lon="5.91022">
        <ele>1638.3</ele>
        <time>2021-02-20T14:45:12Z</time>
      </trkpt>
      <trkpt lat="45.16374" lon="5.91021">
        <ele>1637</ele>
        <time>2021-02-20T14:45:13Z</time>
      </trkpt>
      <trkpt lat="45.16374" lon="5.9102">
        <ele>1637</ele>
        <time>2021-02-20T14:45:14Z</time>
      </trkpt>
      <trkpt lat="45.16375" lon="5.91019">
        <ele>1637</ele>
        <time>2021-02-20T14:45:15Z</time>
      </trkpt>
      <trkpt lat="45.16375" lon="5.91018">
        <ele>1637</ele>
        <time>2021-02-20T14:45:16Z</time>
      </trkpt>
      <trkpt lat="45.16376" lon="5.91017">
        <ele>1635.1</ele>
        <time>2021-02-20T14:45:17Z</time>
      </trkpt>
      <trkpt lat="45.16375" lon="5.91016">
        <ele>1635.1</ele>
        <time>2021-02-20T14:45:18Z</time>
      </trkpt>
      <trkpt lat="45.16375" lon="5.91015">
        <ele>1635.1</ele>
        <time>2021-02-20T14:45:19Z</time>
      </trkpt>
      <trkpt lat="45.16375" lon="5.91015">
        <ele>1635.1</ele>
        <time>2021-02-20T14:45:20Z</time>
      </trkpt>
      <trkpt lat="45.16375" lon="5.91014">
        <ele>1635.1</ele>
        <time>2021-02-20T14:45:21Z</time>
      </trkpt>
      <trkpt lat="45.16374" lon="5.91013">
        <ele>1633.3</ele>
        <time>2021-02-20T14:45:22Z</time>
      </trkpt>
      <trkpt lat="45.16374" lon="5.91012">
        <ele>1633.3</ele>
        <time>2021-02-20T14:45:23Z</time>
      </trkpt>
      <trkpt lat="45.16373" lon="5.91011">
        <ele>1632.5</ele>
        <time>2021-02-20T14:45:24Z</time>
      </trkpt>
      <trkpt lat="45.16373" lon="5.9101">
        <ele>1632.5</ele>
        <time>2021-02-20T14:45:25Z</time>
      </trkpt>
      <trkpt lat="45.16372" lon="5.91009">
        <ele>1632.5</ele>
        <time>2021-02-20T14:45:26Z</time>
      </trkpt>
      <trkpt lat="45.16373" lon="5.91007">
        <ele>1631.4</ele>
        <time>2021-02-20T14:45:27Z</time>
      </trkpt>
      <trkpt lat="45.16374" lon="5.91006">
        <ele>1631.4</ele>
        <time>2021-02-20T14:45:28Z</time>
      </trkpt>
      <trkpt lat="45.16375" lon="5.91004">
        <ele>1629.4</ele>
        <time>2021-02-20T14:45:31Z</time>
      </trkpt>
      <trkpt lat="45.16376" lon="5.91003">
        <ele>1630.2</ele>
        <time>2021-02-20T14:45:32Z</time>
      </trkpt>
      <trkpt lat="45.16377" lon="5.91002">
        <ele>1630.2</ele>
        <time>2021-02-20T14:45:33Z</time>
      </trkpt>
      <trkpt lat="45.16378" lon="5.91">
        <ele>1630.2</ele>
        <time>2021-02-20T14:45:34Z</time>
      </trkpt>
      <trkpt lat="45.16378" lon="5.90999">
        <ele>1628.1</ele>
        <time>2021-02-20T14:45:35Z</time>
      </trkpt>
      <trkpt lat="45.16379" lon="5.90998">
        <ele>1628.1</ele>
        <time>2021-02-20T14:45:36Z</time>
      </trkpt>
      <trkpt lat="45.1638" lon="5.90998">
        <ele>1628.9</ele>
        <time>2021-02-20T14:45:37Z</time>
      </trkpt>
      <trkpt lat="45.16381" lon="5.90997">
        <ele>1628.9</ele>
        <time>2021-02-20T14:45:38Z</time>
      </trkpt>
      <trkpt lat="45.16382" lon="5.90996">
        <ele>1628.9</ele>
        <time>2021-02-20T14:45:39Z</time>
      </trkpt>
      <trkpt lat="45.16382" lon="5.90995">
        <ele>1626.8</ele>
        <time>2021-02-20T14:45:40Z</time>
      </trkpt>
      <trkpt lat="45.16382" lon="5.90995">
        <ele>1626.8</ele>
        <time>2021-02-20T14:45:41Z</time>
      </trkpt>
      <trkpt lat="45.16382" lon="5.90994">
        <ele>1626.8</ele>
        <time>2021-02-20T14:45:42Z</time>
      </trkpt>
      <trkpt lat="45.16382" lon="5.90993">
        <ele>1626.8</ele>
        <time>2021-02-20T14:45:43Z</time>
      </trkpt>
      <trkpt lat="45.16382" lon="5.90992">
        <ele>1626.8</ele>
        <time>2021-02-20T14:45:44Z</time>
      </trkpt>
      <trkpt lat="45.16382" lon="5.9099">
        <ele>1624.6</ele>
        <time>2021-02-20T14:45:45Z</time>
      </trkpt>
      <trkpt lat="45.16383" lon="5.9099">
        <ele>1625.4</ele>
        <time>2021-02-20T14:45:46Z</time>
      </trkpt>
      <trkpt lat="45.16383" lon="5.90989">
        <ele>1625.4</ele>
        <time>2021-02-20T14:45:47Z</time>
      </trkpt>
      <trkpt lat="45.16384" lon="5.90989">
        <ele>1625.4</ele>
        <time>2021-02-20T14:45:48Z</time>
      </trkpt>
      <trkpt lat="45.16384" lon="5.90988">
        <ele>1625.4</ele>
        <time>2021-02-20T14:45:52Z</time>
      </trkpt>
      <trkpt lat="45.16385" lon="5.90988">
        <ele>1625.4</ele>
        <time>2021-02-20T14:45:53Z</time>
      </trkpt>
      <trkpt lat="45.16385" lon="5.90987">
        <ele>1625.4</ele>
        <time>2021-02-20T14:45:54Z</time>
      </trkpt>
      <trkpt lat="45.16386" lon="5.90987">
        <ele>1623.9</ele>
        <time>2021-02-20T14:45:55Z</time>
      </trkpt>
      <trkpt lat="45.16386" lon="5.90986">
        <ele>1623.9</ele>
        <time>2021-02-20T14:45:56Z</time>
      </trkpt>
      <trkpt lat="45.16387" lon="5.90986">
        <ele>1623.9</ele>
        <time>2021-02-20T14:45:57Z</time>
      </trkpt>
      <trkpt lat="45.16387" lon="5.90986">
        <ele>1623.9</ele>
        <time>2021-02-20T14:45:58Z</time>
      </trkpt>
      <trkpt lat="45.16388" lon="5.90985">
        <ele>1623.9</ele>
        <time>2021-02-20T14:45:59Z</time>
      </trkpt>
      <trkpt lat="45.16389" lon="5.90983">
        <ele>1624.6</ele>
        <time>2021-02-20T14:46:00Z</time>
      </trkpt>
      <trkpt lat="45.1639" lon="5.90982">
        <ele>1622.5</ele>
        <time>2021-02-20T14:46:01Z</time>
      </trkpt>
      <trkpt lat="45.1639" lon="5.90981">
        <ele>1622.5</ele>
        <time>2021-02-20T14:46:02Z</time>
      </trkpt>
      <trkpt lat="45.16391" lon="5.9098">
        <ele>1622.5</ele>
        <time>2021-02-20T14:46:03Z</time>
      </trkpt>
      <trkpt lat="45.16393" lon="5.90978">
        <ele>1621.1</ele>
        <time>2021-02-20T14:46:04Z</time>
      </trkpt>
      <trkpt lat="45.16393" lon="5.90977">
        <ele>1621.1</ele>
        <time>2021-02-20T14:46:05Z</time>
      </trkpt>
      <trkpt lat="45.16394" lon="5.90977">
        <ele>1621.1</ele>
        <time>2021-02-20T14:46:06Z</time>
      </trkpt>
      <trkpt lat="45.16395" lon="5.90976">
        <ele>1621.7</ele>
        <time>2021-02-20T14:46:07Z</time>
      </trkpt>
      <trkpt lat="45.16397" lon="5.90975">
        <ele>1621.7</ele>
        <time>2021-02-20T14:46:08Z</time>
      </trkpt>
      <trkpt lat="45.16398" lon="5.90973">
        <ele>1620.1</ele>
        <time>2021-02-20T14:46:09Z</time>
      </trkpt>
      <trkpt lat="45.16399" lon="5.90972">
        <ele>1620.1</ele>
        <time>2021-02-20T14:46:10Z</time>
      </trkpt>
      <trkpt lat="45.164" lon="5.90972">
        <ele>1620.1</ele>
        <time>2021-02-20T14:46:11Z</time>
      </trkpt>
      <trkpt lat="45.16401" lon="5.90971">
        <ele>1620.6</ele>
        <time>2021-02-20T14:46:12Z</time>
      </trkpt>
      <trkpt lat="45.16402" lon="5.9097">
        <ele>1618.7</ele>
        <time>2021-02-20T14:46:13Z</time>
      </trkpt>
      <trkpt lat="45.16403" lon="5.9097">
        <ele>1618.7</ele>
        <time>2021-02-20T14:46:14Z</time>
      </trkpt>
      <trkpt lat="45.16404" lon="5.9097">
        <ele>1618.7</ele>
        <time>2021-02-20T14:46:15Z</time>
      </trkpt>
      <trkpt lat="45.16404" lon="5.90969">
        <ele>1619</ele>
        <time>2021-02-20T14:46:16Z</time>
      </trkpt>
      <trkpt lat="45.16405" lon="5.90969">
        <ele>1619</ele>
        <time>2021-02-20T14:46:17Z</time>
      </trkpt>
      <trkpt lat="45.16406" lon="5.90968">
        <ele>1619</ele>
        <time>2021-02-20T14:46:18Z</time>
      </trkpt>
      <trkpt lat="45.16406" lon="5.90968">
        <ele>1619</ele>
        <time>2021-02-20T14:46:19Z</time>
      </trkpt>
      <trkpt lat="45.16407" lon="5.90967">
        <ele>1619.3</ele>
        <time>2021-02-20T14:46:20Z</time>
      </trkpt>
      <trkpt lat="45.16408" lon="5.90967">
        <ele>1619.3</ele>
        <time>2021-02-20T14:46:21Z</time>
      </trkpt>
      <trkpt lat="45.16409" lon="5.90967">
        <ele>1619.3</ele>
        <time>2021-02-20T14:46:22Z</time>
      </trkpt>
      <trkpt lat="45.1641" lon="5.90966">
        <ele>1619.5</ele>
        <time>2021-02-20T14:46:23Z</time>
      </trkpt>
      <trkpt lat="45.16411" lon="5.90965">
        <ele>1617.7</ele>
        <time>2021-02-20T14:46:24Z</time>
      </trkpt>
      <trkpt lat="45.16412" lon="5.90965">
        <ele>1617.7</ele>
        <time>2021-02-20T14:46:25Z</time>
      </trkpt>
      <trkpt lat="45.16412" lon="5.90964">
        <ele>1617.7</ele>
        <time>2021-02-20T14:46:26Z</time>
      </trkpt>
      <trkpt lat="45.16413" lon="5.90963">
        <ele>1617.9</ele>
        <time>2021-02-20T14:46:27Z</time>
      </trkpt>
      <trkpt lat="45.16414" lon="5.90963">
        <ele>1617.9</ele>
        <time>2021-02-20T14:46:28Z</time>
      </trkpt>
      <trkpt lat="45.16414" lon="5.90962">
        <ele>1617.9</ele>
        <time>2021-02-20T14:46:29Z</time>
      </trkpt>
      <trkpt lat="45.16415" lon="5.90962">
        <ele>1617.9</ele>
        <time>2021-02-20T14:46:30Z</time>
      </trkpt>
      <trkpt lat="45.16415" lon="5.90961">
        <ele>1616.2</ele>
        <time>2021-02-20T14:46:31Z</time>
      </trkpt>
      <trkpt lat="45.16415" lon="5.90961">
        <ele>1616.2</ele>
        <time>2021-02-20T14:46:32Z</time>
      </trkpt>
      <trkpt lat="45.16415" lon="5.9096">
        <ele>1616.2</ele>
        <time>2021-02-20T14:46:33Z</time>
      </trkpt>
      <trkpt lat="45.16415" lon="5.9096">
        <ele>1616.2</ele>
        <time>2021-02-20T14:46:34Z</time>
      </trkpt>
      <trkpt lat="45.16416" lon="5.9096">
        <ele>1616.2</ele>
        <time>2021-02-20T14:46:35Z</time>
      </trkpt>
      <trkpt lat="45.16416" lon="5.90959">
        <ele>1616.2</ele>
        <time>2021-02-20T14:46:36Z</time>
      </trkpt>
      <trkpt lat="45.16416" lon="5.90958">
        <ele>1616.2</ele>
        <time>2021-02-20T14:46:37Z</time>
      </trkpt>
      <trkpt lat="45.16415" lon="5.90958">
        <ele>1616.2</ele>
        <time>2021-02-20T14:46:38Z</time>
      </trkpt>
      <trkpt lat="45.16415" lon="5.90954">
        <ele>1614.5</ele>
        <time>2021-02-20T14:46:39Z</time>
      </trkpt>
      <trkpt lat="45.16415" lon="5.90952">
        <ele>1612.7</ele>
        <time>2021-02-20T14:46:40Z</time>
      </trkpt>
      <trkpt lat="45.16414" lon="5.9095">
        <ele>1612.7</ele>
        <time>2021-02-20T14:46:51Z</time>
      </trkpt>
      <trkpt lat="45.16413" lon="5.90948">
        <ele>1611</ele>
        <time>2021-02-20T14:46:52Z</time>
      </trkpt>
      <trkpt lat="45.16413" lon="5.90946">
        <ele>1611</ele>
        <time>2021-02-20T14:46:53Z</time>
      </trkpt>
      <trkpt lat="45.16412" lon="5.90944">
        <ele>1609.1</ele>
        <time>2021-02-20T14:46:54Z</time>
      </trkpt>
      <trkpt lat="45.16412" lon="5.90943">
        <ele>1609.1</ele>
        <time>2021-02-20T14:46:55Z</time>
      </trkpt>
      <trkpt lat="45.16412" lon="5.90942">
        <ele>1609.1</ele>
        <time>2021-02-20T14:46:56Z</time>
      </trkpt>
      <trkpt lat="45.16411" lon="5.90942">
        <ele>1609.1</ele>
        <time>2021-02-20T14:46:57Z</time>
      </trkpt>
      <trkpt lat="45.16411" lon="5.90941">
        <ele>1609.1</ele>
        <time>2021-02-20T14:46:58Z</time>
      </trkpt>
      <trkpt lat="45.16412" lon="5.9094">
        <ele>1609.1</ele>
        <time>2021-02-20T14:46:59Z</time>
      </trkpt>
      <trkpt lat="45.16413" lon="5.90939">
        <ele>1607.5</ele>
        <time>2021-02-20T14:47:00Z</time>
      </trkpt>
      <trkpt lat="45.16413" lon="5.90938">
        <ele>1607.8</ele>
        <time>2021-02-20T14:47:01Z</time>
      </trkpt>
      <trkpt lat="45.16414" lon="5.90938">
        <ele>1607.8</ele>
        <time>2021-02-20T14:47:02Z</time>
      </trkpt>
      <trkpt lat="45.16414" lon="5.90937">
        <ele>1607.8</ele>
        <time>2021-02-20T14:47:03Z</time>
      </trkpt>
      <trkpt lat="45.16414" lon="5.90936">
        <ele>1607.8</ele>
        <time>2021-02-20T14:47:04Z</time>
      </trkpt>
      <trkpt lat="45.16415" lon="5.90935">
        <ele>1606.3</ele>
        <time>2021-02-20T14:47:05Z</time>
      </trkpt>
      <trkpt lat="45.16415" lon="5.90935">
        <ele>1606.3</ele>
        <time>2021-02-20T14:47:06Z</time>
      </trkpt>
      <trkpt lat="45.16415" lon="5.90934">
        <ele>1606.3</ele>
        <time>2021-02-20T14:47:07Z</time>
      </trkpt>
      <trkpt lat="45.16415" lon="5.90934">
        <ele>1606.3</ele>
        <time>2021-02-20T14:47:08Z</time>
      </trkpt>
      <trkpt lat="45.16415" lon="5.90934">
        <ele>1606.3</ele>
        <time>2021-02-20T14:47:09Z</time>
      </trkpt>
      <trkpt lat="45.16415" lon="5.90933">
        <ele>1606.3</ele>
        <time>2021-02-20T14:47:10Z</time>
      </trkpt>
      <trkpt lat="45.16415" lon="5.90933">
        <ele>1606.3</ele>
        <time>2021-02-20T14:47:11Z</time>
      </trkpt>
      <trkpt lat="45.16416" lon="5.90933">
        <ele>1606.3</ele>
        <time>2021-02-20T14:47:12Z</time>
      </trkpt>
      <trkpt lat="45.16416" lon="5.90932">
        <ele>1606.3</ele>
        <time>2021-02-20T14:47:13Z</time>
      </trkpt>
      <trkpt lat="45.16416" lon="5.90931">
        <ele>1605.3</ele>
        <time>2021-02-20T14:47:14Z</time>
      </trkpt>
      <trkpt lat="45.16417" lon="5.90929">
        <ele>1605.3</ele>
        <time>2021-02-20T14:47:15Z</time>
      </trkpt>
      <trkpt lat="45.16417" lon="5.90927">
        <ele>1605.3</ele>
        <time>2021-02-20T14:47:44Z</time>
      </trkpt>
      <trkpt lat="45.16418" lon="5.90926">
        <ele>1604</ele>
        <time>2021-02-20T14:47:45Z</time>
      </trkpt>
      <trkpt lat="45.16418" lon="5.90924">
        <ele>1604</ele>
        <time>2021-02-20T14:47:46Z</time>
      </trkpt>
      <trkpt lat="45.16419" lon="5.90923">
        <ele>1602.9</ele>
        <time>2021-02-20T14:47:47Z</time>
      </trkpt>
      <trkpt lat="45.16419" lon="5.90921">
        <ele>1602.9</ele>
        <time>2021-02-20T14:47:48Z</time>
      </trkpt>
      <trkpt lat="45.1642" lon="5.9092">
        <ele>1602.9</ele>
        <time>2021-02-20T14:47:49Z</time>
      </trkpt>
      <trkpt lat="45.16421" lon="5.90918">
        <ele>1601.7</ele>
        <time>2021-02-20T14:47:50Z</time>
      </trkpt>
      <trkpt lat="45.16421" lon="5.90917">
        <ele>1601.7</ele>
        <time>2021-02-20T14:47:51Z</time>
      </trkpt>
      <trkpt lat="45.16422" lon="5.90915">
        <ele>1601.7</ele>
        <time>2021-02-20T14:47:52Z</time>
      </trkpt>
      <trkpt lat="45.16422" lon="5.90915">
        <ele>1601.8</ele>
        <time>2021-02-20T14:47:53Z</time>
      </trkpt>
      <trkpt lat="45.16422" lon="5.90914">
        <ele>1600.5</ele>
        <time>2021-02-20T14:47:54Z</time>
      </trkpt>
      <trkpt lat="45.16422" lon="5.90914">
        <ele>1600.5</ele>
        <time>2021-02-20T14:47:55Z</time>
      </trkpt>
      <trkpt lat="45.16423" lon="5.90914">
        <ele>1600.5</ele>
        <time>2021-02-20T14:47:56Z</time>
      </trkpt>
      <trkpt lat="45.16423" lon="5.90914">
        <ele>1600.5</ele>
        <time>2021-02-20T14:47:57Z</time>
      </trkpt>
      <trkpt lat="45.16424" lon="5.90914">
        <ele>1600.5</ele>
        <time>2021-02-20T14:47:58Z</time>
      </trkpt>
      <trkpt lat="45.16425" lon="5.90914">
        <ele>1600.5</ele>
        <time>2021-02-20T14:47:59Z</time>
      </trkpt>
      <trkpt lat="45.16426" lon="5.90914">
        <ele>1600.5</ele>
        <time>2021-02-20T14:48:00Z</time>
      </trkpt>
      <trkpt lat="45.16426" lon="5.90914">
        <ele>1600.5</ele>
        <time>2021-02-20T14:48:01Z</time>
      </trkpt>
      <trkpt lat="45.16427" lon="5.90913">
        <ele>1600.5</ele>
        <time>2021-02-20T14:48:02Z</time>
      </trkpt>
      <trkpt lat="45.16428" lon="5.90913">
        <ele>1600.5</ele>
        <time>2021-02-20T14:48:03Z</time>
      </trkpt>
      <trkpt lat="45.16428" lon="5.90913">
        <ele>1600.5</ele>
        <time>2021-02-20T14:48:04Z</time>
      </trkpt>
      <trkpt lat="45.16429" lon="5.90913">
        <ele>1600.5</ele>
        <time>2021-02-20T14:48:05Z</time>
      </trkpt>
      <trkpt lat="45.1643" lon="5.90913">
        <ele>1600.5</ele>
        <time>2021-02-20T14:48:06Z</time>
      </trkpt>
      <trkpt lat="45.16431" lon="5.90913">
        <ele>1600.4</ele>
        <time>2021-02-20T14:48:07Z</time>
      </trkpt>
      <trkpt lat="45.16432" lon="5.90912">
        <ele>1600.4</ele>
        <time>2021-02-20T14:48:08Z</time>
      </trkpt>
      <trkpt lat="45.16433" lon="5.90912">
        <ele>1600.4</ele>
        <time>2021-02-20T14:48:09Z</time>
      </trkpt>
      <trkpt lat="45.16433" lon="5.90912">
        <ele>1600.4</ele>
        <time>2021-02-20T14:48:10Z</time>
      </trkpt>
      <trkpt lat="45.16434" lon="5.90911">
        <ele>1600.4</ele>
        <time>2021-02-20T14:48:11Z</time>
      </trkpt>
      <trkpt lat="45.16434" lon="5.90911">
        <ele>1600.2</ele>
        <time>2021-02-20T14:48:12Z</time>
      </trkpt>
      <trkpt lat="45.16435" lon="5.90911">
        <ele>1600.2</ele>
        <time>2021-02-20T14:48:13Z</time>
      </trkpt>
      <trkpt lat="45.16436" lon="5.9091">
        <ele>1600.2</ele>
        <time>2021-02-20T14:48:14Z</time>
      </trkpt>
      <trkpt lat="45.16437" lon="5.9091">
        <ele>1600</ele>
        <time>2021-02-20T14:48:15Z</time>
      </trkpt>
      <trkpt lat="45.16438" lon="5.9091">
        <ele>1600</ele>
        <time>2021-02-20T14:48:16Z</time>
      </trkpt>
      <trkpt lat="45.16438" lon="5.9091">
        <ele>1600</ele>
        <time>2021-02-20T14:48:17Z</time>
      </trkpt>
      <trkpt lat="45.16439" lon="5.9091">
        <ele>1600</ele>
        <time>2021-02-20T14:48:18Z</time>
      </trkpt>
      <trkpt lat="45.1644" lon="5.9091">
        <ele>1598.7</ele>
        <time>2021-02-20T14:48:19Z</time>
      </trkpt>
      <trkpt lat="45.16441" lon="5.9091">
        <ele>1598.4</ele>
        <time>2021-02-20T14:48:20Z</time>
      </trkpt>
      <trkpt lat="45.16441" lon="5.9091">
        <ele>1598.4</ele>
        <time>2021-02-20T14:48:21Z</time>
      </trkpt>
      <trkpt lat="45.16442" lon="5.90909">
        <ele>1598.4</ele>
        <time>2021-02-20T14:48:22Z</time>
      </trkpt>
      <trkpt lat="45.16443" lon="5.90909">
        <ele>1598.4</ele>
        <time>2021-02-20T14:48:23Z</time>
      </trkpt>
      <trkpt lat="45.16443" lon="5.90909">
        <ele>1598.1</ele>
        <time>2021-02-20T14:48:24Z</time>
      </trkpt>
      <trkpt lat="45.16444" lon="5.9091">
        <ele>1598.1</ele>
        <time>2021-02-20T14:48:25Z</time>
      </trkpt>
      <trkpt lat="45.16444" lon="5.90911">
        <ele>1599.3</ele>
        <time>2021-02-20T14:48:26Z</time>
      </trkpt>
      <trkpt lat="45.16445" lon="5.90911">
        <ele>1599.3</ele>
        <time>2021-02-20T14:48:27Z</time>
      </trkpt>
      <trkpt lat="45.16446" lon="5.90911">
        <ele>1599.3</ele>
        <time>2021-02-20T14:48:28Z</time>
      </trkpt>
      <trkpt lat="45.16446" lon="5.90911">
        <ele>1598.9</ele>
        <time>2021-02-20T14:48:29Z</time>
      </trkpt>
      <trkpt lat="45.16447" lon="5.90911">
        <ele>1598.9</ele>
        <time>2021-02-20T14:48:30Z</time>
      </trkpt>
      <trkpt lat="45.16448" lon="5.90911">
        <ele>1598.9</ele>
        <time>2021-02-20T14:48:31Z</time>
      </trkpt>
      <trkpt lat="45.16449" lon="5.90911">
        <ele>1598.9</ele>
        <time>2021-02-20T14:48:32Z</time>
      </trkpt>
      <trkpt lat="45.16449" lon="5.90911">
        <ele>1598.4</ele>
        <time>2021-02-20T14:48:33Z</time>
      </trkpt>
      <trkpt lat="45.1645" lon="5.90911">
        <ele>1598.4</ele>
        <time>2021-02-20T14:48:34Z</time>
      </trkpt>
      <trkpt lat="45.1645" lon="5.90911">
        <ele>1598.4</ele>
        <time>2021-02-20T14:48:35Z</time>
      </trkpt>
      <trkpt lat="45.1645" lon="5.9091">
        <ele>1598.4</ele>
        <time>2021-02-20T14:48:36Z</time>
      </trkpt>
      <trkpt lat="45.1645" lon="5.9091">
        <ele>1598.4</ele>
        <time>2021-02-20T14:48:37Z</time>
      </trkpt>
      <trkpt lat="45.1645" lon="5.9091">
        <ele>1598.4</ele>
        <time>2021-02-20T14:48:38Z</time>
      </trkpt>
      <trkpt lat="45.1645" lon="5.9091">
        <ele>1598.4</ele>
        <time>2021-02-20T14:48:39Z</time>
      </trkpt>
      <trkpt lat="45.16451" lon="5.90908">
        <ele>1597.2</ele>
        <time>2021-02-20T14:48:40Z</time>
      </trkpt>
      <trkpt lat="45.16453" lon="5.90906">
        <ele>1596.7</ele>
        <time>2021-02-20T14:48:41Z</time>
      </trkpt>
      <trkpt lat="45.16453" lon="5.90905">
        <ele>1595.5</ele>
        <time>2021-02-20T14:48:42Z</time>
      </trkpt>
      <trkpt lat="45.16454" lon="5.90904">
        <ele>1595.5</ele>
        <time>2021-02-20T14:48:55Z</time>
      </trkpt>
      <trkpt lat="45.16455" lon="5.90902">
        <ele>1595.5</ele>
        <time>2021-02-20T14:48:56Z</time>
      </trkpt>
      <trkpt lat="45.16455" lon="5.90901">
        <ele>1593.7</ele>
        <time>2021-02-20T14:48:57Z</time>
      </trkpt>
      <trkpt lat="45.16456" lon="5.90899">
        <ele>1593.7</ele>
        <time>2021-02-20T14:48:58Z</time>
      </trkpt>
      <trkpt lat="45.16457" lon="5.90898">
        <ele>1593.7</ele>
        <time>2021-02-20T14:48:59Z</time>
      </trkpt>
      <trkpt lat="45.16457" lon="5.90897">
        <ele>1593.7</ele>
        <time>2021-02-20T14:49:00Z</time>
      </trkpt>
      <trkpt lat="45.16458" lon="5.90896">
        <ele>1592.4</ele>
        <time>2021-02-20T14:49:01Z</time>
      </trkpt>
      <trkpt lat="45.16458" lon="5.90895">
        <ele>1592.4</ele>
        <time>2021-02-20T14:49:02Z</time>
      </trkpt>
      <trkpt lat="45.16458" lon="5.90894">
        <ele>1592.4</ele>
        <time>2021-02-20T14:49:03Z</time>
      </trkpt>
      <trkpt lat="45.16458" lon="5.90894">
        <ele>1592.4</ele>
        <time>2021-02-20T14:49:04Z</time>
      </trkpt>
      <trkpt lat="45.16458" lon="5.90891">
        <ele>1591.2</ele>
        <time>2021-02-20T14:49:05Z</time>
      </trkpt>
      <trkpt lat="45.16458" lon="5.90889">
        <ele>1590</ele>
        <time>2021-02-20T14:49:06Z</time>
      </trkpt>
      <trkpt lat="45.16457" lon="5.90886">
        <ele>1590</ele>
        <time>2021-02-20T14:49:07Z</time>
      </trkpt>
      <trkpt lat="45.16457" lon="5.90884">
        <ele>1588.8</ele>
        <time>2021-02-20T14:49:16Z</time>
      </trkpt>
      <trkpt lat="45.16457" lon="5.90882">
        <ele>1588.8</ele>
        <time>2021-02-20T14:49:17Z</time>
      </trkpt>
      <trkpt lat="45.16457" lon="5.9088">
        <ele>1588.8</ele>
        <time>2021-02-20T14:49:18Z</time>
      </trkpt>
      <trkpt lat="45.16457" lon="5.90879">
        <ele>1587.6</ele>
        <time>2021-02-20T14:49:19Z</time>
      </trkpt>
      <trkpt lat="45.16456" lon="5.90878">
        <ele>1587.6</ele>
        <time>2021-02-20T14:49:20Z</time>
      </trkpt>
      <trkpt lat="45.16456" lon="5.90878">
        <ele>1587.6</ele>
        <time>2021-02-20T14:49:21Z</time>
      </trkpt>
      <trkpt lat="45.16454" lon="5.90878">
        <ele>1588.1</ele>
        <time>2021-02-20T14:49:22Z</time>
      </trkpt>
      <trkpt lat="45.16454" lon="5.90877">
        <ele>1588.1</ele>
        <time>2021-02-20T14:49:23Z</time>
      </trkpt>
      <trkpt lat="45.16454" lon="5.90877">
        <ele>1588.1</ele>
        <time>2021-02-20T14:49:24Z</time>
      </trkpt>
      <trkpt lat="45.16454" lon="5.90877">
        <ele>1588.1</ele>
        <time>2021-02-20T14:49:25Z</time>
      </trkpt>
      <trkpt lat="45.16453" lon="5.90876">
        <ele>1588.1</ele>
        <time>2021-02-20T14:49:26Z</time>
      </trkpt>
      <trkpt lat="45.16453" lon="5.90874">
        <ele>1586.9</ele>
        <time>2021-02-20T14:49:27Z</time>
      </trkpt>
      <trkpt lat="45.16452" lon="5.90873">
        <ele>1586.9</ele>
        <time>2021-02-20T14:49:28Z</time>
      </trkpt>
      <trkpt lat="45.16452" lon="5.90872">
        <ele>1586.9</ele>
        <time>2021-02-20T14:49:29Z</time>
      </trkpt>
      <trkpt lat="45.16452" lon="5.9087">
        <ele>1585.6</ele>
        <time>2021-02-20T14:49:48Z</time>
      </trkpt>
      <trkpt lat="45.16452" lon="5.90869">
        <ele>1586.1</ele>
        <time>2021-02-20T14:49:49Z</time>
      </trkpt>
      <trkpt lat="45.16452" lon="5.90868">
        <ele>1586.1</ele>
        <time>2021-02-20T14:49:50Z</time>
      </trkpt>
      <trkpt lat="45.16452" lon="5.90866">
        <ele>1584.7</ele>
        <time>2021-02-20T14:49:51Z</time>
      </trkpt>
      <trkpt lat="45.16452" lon="5.90865">
        <ele>1584.7</ele>
        <time>2021-02-20T14:49:52Z</time>
      </trkpt>
      <trkpt lat="45.16451" lon="5.90864">
        <ele>1584.7</ele>
        <time>2021-02-20T14:49:53Z</time>
      </trkpt>
      <trkpt lat="45.16451" lon="5.90862">
        <ele>1583.2</ele>
        <time>2021-02-20T14:49:54Z</time>
      </trkpt>
      <trkpt lat="45.16451" lon="5.90861">
        <ele>1583.2</ele>
        <time>2021-02-20T14:49:55Z</time>
      </trkpt>
      <trkpt lat="45.16451" lon="5.9086">
        <ele>1583.2</ele>
        <time>2021-02-20T14:49:56Z</time>
      </trkpt>
      <trkpt lat="45.16451" lon="5.90858">
        <ele>1581.8</ele>
        <time>2021-02-20T14:49:57Z</time>
      </trkpt>
      <trkpt lat="45.16451" lon="5.90857">
        <ele>1581.8</ele>
        <time>2021-02-20T14:49:58Z</time>
      </trkpt>
      <trkpt lat="45.16451" lon="5.90856">
        <ele>1581.8</ele>
        <time>2021-02-20T14:49:59Z</time>
      </trkpt>
      <trkpt lat="45.1645" lon="5.90854">
        <ele>1581.8</ele>
        <time>2021-02-20T14:50:00Z</time>
      </trkpt>
      <trkpt lat="45.1645" lon="5.90853">
        <ele>1580.3</ele>
        <time>2021-02-20T14:50:48Z</time>
      </trkpt>
      <trkpt lat="45.1645" lon="5.90852">
        <ele>1580.3</ele>
        <time>2021-02-20T14:50:49Z</time>
      </trkpt>
      <trkpt lat="45.1645" lon="5.90851">
        <ele>1580.3</ele>
        <time>2021-02-20T14:50:50Z</time>
      </trkpt>
      <trkpt lat="45.1645" lon="5.90849">
        <ele>1578.8</ele>
        <time>2021-02-20T14:50:51Z</time>
      </trkpt>
      <trkpt lat="45.1645" lon="5.90848">
        <ele>1578.8</ele>
        <time>2021-02-20T14:50:52Z</time>
      </trkpt>
      <trkpt lat="45.16449" lon="5.90846">
        <ele>1578.8</ele>
        <time>2021-02-20T14:50:53Z</time>
      </trkpt>
      <trkpt lat="45.16449" lon="5.90845">
        <ele>1577.4</ele>
        <time>2021-02-20T14:50:54Z</time>
      </trkpt>
      <trkpt lat="45.16449" lon="5.90844">
        <ele>1577.4</ele>
        <time>2021-02-20T14:50:55Z</time>
      </trkpt>
      <trkpt lat="45.16449" lon="5.90844">
        <ele>1577.4</ele>
        <time>2021-02-20T14:50:56Z</time>
      </trkpt>
      <trkpt lat="45.16449" lon="5.90843">
        <ele>1577.4</ele>
        <time>2021-02-20T14:50:57Z</time>
      </trkpt>
      <trkpt lat="45.16449" lon="5.90842">
        <ele>1577.4</ele>
        <time>2021-02-20T14:50:58Z</time>
      </trkpt>
      <trkpt lat="45.1645" lon="5.9084">
        <ele>1576.1</ele>
        <time>2021-02-20T14:50:59Z</time>
      </trkpt>
      <trkpt lat="45.1645" lon="5.90839">
        <ele>1576.1</ele>
        <time>2021-02-20T14:51:00Z</time>
      </trkpt>
      <trkpt lat="45.1645" lon="5.90838">
        <ele>1576.1</ele>
        <time>2021-02-20T14:51:01Z</time>
      </trkpt>
      <trkpt lat="45.1645" lon="5.90838">
        <ele>1576.1</ele>
        <time>2021-02-20T14:51:02Z</time>
      </trkpt>
      <trkpt lat="45.1645" lon="5.90837">
        <ele>1574.8</ele>
        <time>2021-02-20T14:51:03Z</time>
      </trkpt>
      <trkpt lat="45.1645" lon="5.90836">
        <ele>1574.8</ele>
        <time>2021-02-20T14:51:04Z</time>
      </trkpt>
      <trkpt lat="45.1645" lon="5.90835">
        <ele>1574.8</ele>
        <time>2021-02-20T14:51:05Z</time>
      </trkpt>
      <trkpt lat="45.1645" lon="5.90834">
        <ele>1574.8</ele>
        <time>2021-02-20T14:51:06Z</time>
      </trkpt>
      <trkpt lat="45.1645" lon="5.90833">
        <ele>1574.8</ele>
        <time>2021-02-20T14:51:07Z</time>
      </trkpt>
      <trkpt lat="45.1645" lon="5.90832">
        <ele>1573.6</ele>
        <time>2021-02-20T14:51:12Z</time>
      </trkpt>
      <trkpt lat="45.1645" lon="5.90831">
        <ele>1573.6</ele>
        <time>2021-02-20T14:51:13Z</time>
      </trkpt>
      <trkpt lat="45.16451" lon="5.9083">
        <ele>1573.6</ele>
        <time>2021-02-20T14:51:14Z</time>
      </trkpt>
      <trkpt lat="45.16451" lon="5.9083">
        <ele>1573.6</ele>
        <time>2021-02-20T14:51:15Z</time>
      </trkpt>
      <trkpt lat="45.16452" lon="5.9083">
        <ele>1573.6</ele>
        <time>2021-02-20T14:51:16Z</time>
      </trkpt>
      <trkpt lat="45.16453" lon="5.90829">
        <ele>1573.3</ele>
        <time>2021-02-20T14:51:17Z</time>
      </trkpt>
      <trkpt lat="45.16453" lon="5.90829">
        <ele>1573.3</ele>
        <time>2021-02-20T14:51:18Z</time>
      </trkpt>
      <trkpt lat="45.16454" lon="5.90829">
        <ele>1573.3</ele>
        <time>2021-02-20T14:51:19Z</time>
      </trkpt>
      <trkpt lat="45.16455" lon="5.90829">
        <ele>1573.3</ele>
        <time>2021-02-20T14:51:20Z</time>
      </trkpt>
      <trkpt lat="45.16455" lon="5.90828">
        <ele>1571.8</ele>
        <time>2021-02-20T14:51:21Z</time>
      </trkpt>
      <trkpt lat="45.16456" lon="5.90828">
        <ele>1571.8</ele>
        <time>2021-02-20T14:51:22Z</time>
      </trkpt>
      <trkpt lat="45.16457" lon="5.90828">
        <ele>1571.8</ele>
        <time>2021-02-20T14:51:23Z</time>
      </trkpt>
      <trkpt lat="45.16458" lon="5.90828">
        <ele>1571.8</ele>
        <time>2021-02-20T14:51:24Z</time>
      </trkpt>
      <trkpt lat="45.16458" lon="5.90827">
        <ele>1571.4</ele>
        <time>2021-02-20T14:51:25Z</time>
      </trkpt>
      <trkpt lat="45.16459" lon="5.90827">
        <ele>1571.4</ele>
        <time>2021-02-20T14:51:26Z</time>
      </trkpt>
      <trkpt lat="45.1646" lon="5.90827">
        <ele>1571.4</ele>
        <time>2021-02-20T14:51:27Z</time>
      </trkpt>
      <trkpt lat="45.1646" lon="5.90827">
        <ele>1571.4</ele>
        <time>2021-02-20T14:51:28Z</time>
      </trkpt>
      <trkpt lat="45.16461" lon="5.90826">
        <ele>1571.4</ele>
        <time>2021-02-20T14:51:29Z</time>
      </trkpt>
      <trkpt lat="45.16462" lon="5.90826">
        <ele>1571.1</ele>
        <time>2021-02-20T14:51:30Z</time>
      </trkpt>
      <trkpt lat="45.16462" lon="5.90826">
        <ele>1571.1</ele>
        <time>2021-02-20T14:51:31Z</time>
      </trkpt>
      <trkpt lat="45.16463" lon="5.90826">
        <ele>1571.1</ele>
        <time>2021-02-20T14:51:32Z</time>
      </trkpt>
      <trkpt lat="45.16464" lon="5.90825">
        <ele>1571.1</ele>
        <time>2021-02-20T14:51:51Z</time>
      </trkpt>
      <trkpt lat="45.16464" lon="5.90825">
        <ele>1570.6</ele>
        <time>2021-02-20T14:51:52Z</time>
      </trkpt>
      <trkpt lat="45.16465" lon="5.90825">
        <ele>1570.6</ele>
        <time>2021-02-20T14:51:53Z</time>
      </trkpt>
      <trkpt lat="45.16466" lon="5.90824">
        <ele>1569.4</ele>
        <time>2021-02-20T14:51:54Z</time>
      </trkpt>
      <trkpt lat="45.16466" lon="5.90824">
        <ele>1569.4</ele>
        <time>2021-02-20T14:51:55Z</time>
      </trkpt>
      <trkpt lat="45.16467" lon="5.90824">
        <ele>1569.4</ele>
        <time>2021-02-20T14:51:56Z</time>
      </trkpt>
      <trkpt lat="45.16467" lon="5.90824">
        <ele>1569.4</ele>
        <time>2021-02-20T14:51:57Z</time>
      </trkpt>
      <trkpt lat="45.16468" lon="5.90824">
        <ele>1568.9</ele>
        <time>2021-02-20T14:51:58Z</time>
      </trkpt>
      <trkpt lat="45.16468" lon="5.90823">
        <ele>1568.9</ele>
        <time>2021-02-20T14:51:59Z</time>
      </trkpt>
      <trkpt lat="45.16469" lon="5.90823">
        <ele>1568.9</ele>
        <time>2021-02-20T14:52:00Z</time>
      </trkpt>
      <trkpt lat="45.16469" lon="5.90822">
        <ele>1568.9</ele>
        <time>2021-02-20T14:52:01Z</time>
      </trkpt>
      <trkpt lat="45.16469" lon="5.90822">
        <ele>1568.9</ele>
        <time>2021-02-20T14:52:02Z</time>
      </trkpt>
      <trkpt lat="45.1647" lon="5.90821">
        <ele>1568.9</ele>
        <time>2021-02-20T14:52:03Z</time>
      </trkpt>
      <trkpt lat="45.1647" lon="5.90821">
        <ele>1568.3</ele>
        <time>2021-02-20T14:52:04Z</time>
      </trkpt>
      <trkpt lat="45.16471" lon="5.9082">
        <ele>1568.3</ele>
        <time>2021-02-20T14:52:05Z</time>
      </trkpt>
      <trkpt lat="45.16471" lon="5.9082">
        <ele>1567.1</ele>
        <time>2021-02-20T14:52:06Z</time>
      </trkpt>
      <trkpt lat="45.16471" lon="5.90819">
        <ele>1567.1</ele>
        <time>2021-02-20T14:52:07Z</time>
      </trkpt>
      <trkpt lat="45.16472" lon="5.90818">
        <ele>1567.1</ele>
        <time>2021-02-20T14:52:08Z</time>
      </trkpt>
      <trkpt lat="45.16472" lon="5.90817">
        <ele>1567.1</ele>
        <time>2021-02-20T14:52:09Z</time>
      </trkpt>
      <trkpt lat="45.16473" lon="5.90816">
        <ele>1567.1</ele>
        <time>2021-02-20T14:52:10Z</time>
      </trkpt>
      <trkpt lat="45.16474" lon="5.90815">
        <ele>1565.3</ele>
        <time>2021-02-20T14:52:11Z</time>
      </trkpt>
      <trkpt lat="45.16475" lon="5.90815">
        <ele>1565.3</ele>
        <time>2021-02-20T14:52:12Z</time>
      </trkpt>
      <trkpt lat="45.16476" lon="5.90814">
        <ele>1565.3</ele>
        <time>2021-02-20T14:52:13Z</time>
      </trkpt>
      <trkpt lat="45.16477" lon="5.90814">
        <ele>1564.7</ele>
        <time>2021-02-20T14:52:14Z</time>
      </trkpt>
      <trkpt lat="45.16477" lon="5.90812">
        <ele>1564.7</ele>
        <time>2021-02-20T14:52:15Z</time>
      </trkpt>
      <trkpt lat="45.16478" lon="5.90811">
        <ele>1563.4</ele>
        <time>2021-02-20T14:52:16Z</time>
      </trkpt>
      <trkpt lat="45.16478" lon="5.9081">
        <ele>1563.4</ele>
        <time>2021-02-20T14:52:17Z</time>
      </trkpt>
      <trkpt lat="45.16478" lon="5.90808">
        <ele>1563.4</ele>
        <time>2021-02-20T14:52:18Z</time>
      </trkpt>
      <trkpt lat="45.16479" lon="5.90807">
        <ele>1563.4</ele>
        <time>2021-02-20T14:52:19Z</time>
      </trkpt>
      <trkpt lat="45.16479" lon="5.90806">
        <ele>1562.2</ele>
        <time>2021-02-20T14:52:20Z</time>
      </trkpt>
      <trkpt lat="45.16479" lon="5.90805">
        <ele>1562.2</ele>
        <time>2021-02-20T14:52:21Z</time>
      </trkpt>
      <trkpt lat="45.16479" lon="5.90803">
        <ele>1561.6</ele>
        <time>2021-02-20T14:52:22Z</time>
      </trkpt>
      <trkpt lat="45.1648" lon="5.90802">
        <ele>1560.5</ele>
        <time>2021-02-20T14:52:23Z</time>
      </trkpt>
      <trkpt lat="45.1648" lon="5.90801">
        <ele>1560.5</ele>
        <time>2021-02-20T14:52:24Z</time>
      </trkpt>
      <trkpt lat="45.1648" lon="5.908">
        <ele>1560.5</ele>
        <time>2021-02-20T14:52:25Z</time>
      </trkpt>
      <trkpt lat="45.16481" lon="5.90799">
        <ele>1560.5</ele>
        <time>2021-02-20T14:52:26Z</time>
      </trkpt>
      <trkpt lat="45.16481" lon="5.90798">
        <ele>1559.4</ele>
        <time>2021-02-20T14:52:27Z</time>
      </trkpt>
      <trkpt lat="45.16482" lon="5.90798">
        <ele>1559.4</ele>
        <time>2021-02-20T14:52:28Z</time>
      </trkpt>
      <trkpt lat="45.16482" lon="5.90797">
        <ele>1559.4</ele>
        <time>2021-02-20T14:52:29Z</time>
      </trkpt>
      <trkpt lat="45.16482" lon="5.90797">
        <ele>1559.4</ele>
        <time>2021-02-20T14:52:30Z</time>
      </trkpt>
      <trkpt lat="45.16483" lon="5.90797">
        <ele>1558.8</ele>
        <time>2021-02-20T14:52:31Z</time>
      </trkpt>
      <trkpt lat="45.16484" lon="5.90795">
        <ele>1558.8</ele>
        <time>2021-02-20T14:52:32Z</time>
      </trkpt>
      <trkpt lat="45.16484" lon="5.90794">
        <ele>1557.8</ele>
        <time>2021-02-20T14:54:53Z</time>
      </trkpt>
      <trkpt lat="45.16484" lon="5.90792">
        <ele>1557.8</ele>
        <time>2021-02-20T14:54:54Z</time>
      </trkpt>
      <trkpt lat="45.16484" lon="5.9079">
        <ele>1557.8</ele>
        <time>2021-02-20T14:54:55Z</time>
      </trkpt>
      <trkpt lat="45.16485" lon="5.90789">
        <ele>1557.6</ele>
        <time>2021-02-20T14:54:56Z</time>
      </trkpt>
      <trkpt lat="45.16485" lon="5.90787">
        <ele>1557.4</ele>
        <time>2021-02-20T14:54:57Z</time>
      </trkpt>
      <trkpt lat="45.16486" lon="5.90787">
        <ele>1557.2</ele>
        <time>2021-02-20T14:54:58Z</time>
      </trkpt>
      <trkpt lat="45.16487" lon="5.90788">
        <ele>1557.1</ele>
        <time>2021-02-20T14:54:59Z</time>
      </trkpt>
      <trkpt lat="45.16488" lon="5.90789">
        <ele>1556.9</ele>
        <time>2021-02-20T14:55:00Z</time>
      </trkpt>
      <trkpt lat="45.16489" lon="5.90789">
        <ele>1556.8</ele>
        <time>2021-02-20T14:55:01Z</time>
      </trkpt>
      <trkpt lat="45.16489" lon="5.90789">
        <ele>1556.7</ele>
        <time>2021-02-20T14:55:02Z</time>
      </trkpt>
      <trkpt lat="45.1649" lon="5.90789">
        <ele>1556.6</ele>
        <time>2021-02-20T14:55:03Z</time>
      </trkpt>
      <trkpt lat="45.16491" lon="5.90789">
        <ele>1556.5</ele>
        <time>2021-02-20T14:55:04Z</time>
      </trkpt>
      <trkpt lat="45.16492" lon="5.9079">
        <ele>1556.4</ele>
        <time>2021-02-20T14:55:05Z</time>
      </trkpt>
      <trkpt lat="45.16493" lon="5.9079">
        <ele>1556.2</ele>
        <time>2021-02-20T14:55:06Z</time>
      </trkpt>
      <trkpt lat="45.16494" lon="5.90791">
        <ele>1556.1</ele>
        <time>2021-02-20T14:55:07Z</time>
      </trkpt>
      <trkpt lat="45.16495" lon="5.90791">
        <ele>1555.9</ele>
        <time>2021-02-20T14:55:08Z</time>
      </trkpt>
      <trkpt lat="45.16496" lon="5.90791">
        <ele>1555.8</ele>
        <time>2021-02-20T14:55:09Z</time>
      </trkpt>
      <trkpt lat="45.16497" lon="5.90791">
        <ele>1555.6</ele>
        <time>2021-02-20T14:55:10Z</time>
      </trkpt>
      <trkpt lat="45.16498" lon="5.90791">
        <ele>1555.4</ele>
        <time>2021-02-20T14:55:11Z</time>
      </trkpt>
      <trkpt lat="45.16499" lon="5.90792">
        <ele>1555.3</ele>
        <time>2021-02-20T14:55:12Z</time>
      </trkpt>
      <trkpt lat="45.16499" lon="5.90792">
        <ele>1555.2</ele>
        <time>2021-02-20T14:55:13Z</time>
      </trkpt>
      <trkpt lat="45.165" lon="5.90793">
        <ele>1555.2</ele>
        <time>2021-02-20T14:55:14Z</time>
      </trkpt>
      <trkpt lat="45.165" lon="5.90794">
        <ele>1555.1</ele>
        <time>2021-02-20T14:55:15Z</time>
      </trkpt>
      <trkpt lat="45.165" lon="5.90795">
        <ele>1555</ele>
        <time>2021-02-20T14:55:16Z</time>
      </trkpt>
      <trkpt lat="45.165" lon="5.90795">
        <ele>1554.9</ele>
        <time>2021-02-20T14:55:17Z</time>
      </trkpt>
      <trkpt lat="45.16501" lon="5.90796">
        <ele>1554.7</ele>
        <time>2021-02-20T14:55:18Z</time>
      </trkpt>
      <trkpt lat="45.16502" lon="5.90797">
        <ele>1554.6</ele>
        <time>2021-02-20T14:55:19Z</time>
      </trkpt>
      <trkpt lat="45.16503" lon="5.90797">
        <ele>1554.5</ele>
        <time>2021-02-20T14:55:20Z</time>
      </trkpt>
      <trkpt lat="45.16504" lon="5.90798">
        <ele>1554.4</ele>
        <time>2021-02-20T14:55:21Z</time>
      </trkpt>
      <trkpt lat="45.16505" lon="5.90798">
        <ele>1554.2</ele>
        <time>2021-02-20T14:55:22Z</time>
      </trkpt>
      <trkpt lat="45.16506" lon="5.90798">
        <ele>1554.1</ele>
        <time>2021-02-20T14:55:23Z</time>
      </trkpt>
      <trkpt lat="45.16507" lon="5.90798">
        <ele>1554</ele>
        <time>2021-02-20T14:55:24Z</time>
      </trkpt>
      <trkpt lat="45.16508" lon="5.90799">
        <ele>1553.9</ele>
        <time>2021-02-20T14:55:25Z</time>
      </trkpt>
      <trkpt lat="45.16509" lon="5.908">
        <ele>1553.8</ele>
        <time>2021-02-20T14:55:26Z</time>
      </trkpt>
      <trkpt lat="45.1651" lon="5.90801">
        <ele>1553.7</ele>
        <time>2021-02-20T14:55:27Z</time>
      </trkpt>
      <trkpt lat="45.1651" lon="5.90801">
        <ele>1553.6</ele>
        <time>2021-02-20T14:55:28Z</time>
      </trkpt>
      <trkpt lat="45.16511" lon="5.90801">
        <ele>1553.5</ele>
        <time>2021-02-20T14:55:29Z</time>
      </trkpt>
      <trkpt lat="45.16512" lon="5.90801">
        <ele>1553.4</ele>
        <time>2021-02-20T14:55:30Z</time>
      </trkpt>
      <trkpt lat="45.16513" lon="5.90801">
        <ele>1553.4</ele>
        <time>2021-02-20T14:55:31Z</time>
      </trkpt>
      <trkpt lat="45.16513" lon="5.90801">
        <ele>1553.3</ele>
        <time>2021-02-20T14:55:32Z</time>
      </trkpt>
      <trkpt lat="45.16513" lon="5.90802">
        <ele>1553.3</ele>
        <time>2021-02-20T14:55:33Z</time>
      </trkpt>
      <trkpt lat="45.16514" lon="5.90803">
        <ele>1553.2</ele>
        <time>2021-02-20T14:55:34Z</time>
      </trkpt>
      <trkpt lat="45.16515" lon="5.90803">
        <ele>1553.1</ele>
        <time>2021-02-20T14:55:35Z</time>
      </trkpt>
      <trkpt lat="45.16516" lon="5.90804">
        <ele>1553</ele>
        <time>2021-02-20T14:55:36Z</time>
      </trkpt>
      <trkpt lat="45.16517" lon="5.90805">
        <ele>1552.9</ele>
        <time>2021-02-20T14:55:37Z</time>
      </trkpt>
      <trkpt lat="45.16517" lon="5.90806">
        <ele>1552.8</ele>
        <time>2021-02-20T14:55:38Z</time>
      </trkpt>
      <trkpt lat="45.16518" lon="5.90807">
        <ele>1552.7</ele>
        <time>2021-02-20T14:55:39Z</time>
      </trkpt>
      <trkpt lat="45.16518" lon="5.90809">
        <ele>1552.6</ele>
        <time>2021-02-20T14:55:40Z</time>
      </trkpt>
      <trkpt lat="45.16518" lon="5.9081">
        <ele>1552.5</ele>
        <time>2021-02-20T14:55:41Z</time>
      </trkpt>
      <trkpt lat="45.16519" lon="5.9081">
        <ele>1552.5</ele>
        <time>2021-02-20T14:55:42Z</time>
      </trkpt>
      <trkpt lat="45.16519" lon="5.90811">
        <ele>1552.4</ele>
        <time>2021-02-20T14:55:43Z</time>
      </trkpt>
      <trkpt lat="45.1652" lon="5.90811">
        <ele>1552.3</ele>
        <time>2021-02-20T14:55:44Z</time>
      </trkpt>
      <trkpt lat="45.16521" lon="5.9081">
        <ele>1552.2</ele>
        <time>2021-02-20T14:55:45Z</time>
      </trkpt>
      <trkpt lat="45.16523" lon="5.9081">
        <ele>1552</ele>
        <time>2021-02-20T14:55:46Z</time>
      </trkpt>
      <trkpt lat="45.16524" lon="5.90809">
        <ele>1551.9</ele>
        <time>2021-02-20T14:55:47Z</time>
      </trkpt>
      <trkpt lat="45.16525" lon="5.9081">
        <ele>1551.7</ele>
        <time>2021-02-20T14:55:48Z</time>
      </trkpt>
      <trkpt lat="45.16525" lon="5.9081">
        <ele>1551.6</ele>
        <time>2021-02-20T14:55:49Z</time>
      </trkpt>
      <trkpt lat="45.16526" lon="5.90811">
        <ele>1551.6</ele>
        <time>2021-02-20T14:55:50Z</time>
      </trkpt>
      <trkpt lat="45.16526" lon="5.90812">
        <ele>1551.5</ele>
        <time>2021-02-20T14:55:51Z</time>
      </trkpt>
      <trkpt lat="45.16527" lon="5.90813">
        <ele>1551.3</ele>
        <time>2021-02-20T14:55:52Z</time>
      </trkpt>
      <trkpt lat="45.16528" lon="5.90814">
        <ele>1551.2</ele>
        <time>2021-02-20T14:55:53Z</time>
      </trkpt>
      <trkpt lat="45.16528" lon="5.90814">
        <ele>1551.1</ele>
        <time>2021-02-20T14:55:54Z</time>
      </trkpt>
      <trkpt lat="45.16528" lon="5.90815">
        <ele>1551.1</ele>
        <time>2021-02-20T14:55:55Z</time>
      </trkpt>
      <trkpt lat="45.16528" lon="5.90815">
        <ele>1551</ele>
        <time>2021-02-20T14:55:56Z</time>
      </trkpt>
      <trkpt lat="45.16529" lon="5.90816">
        <ele>1550.8</ele>
        <time>2021-02-20T14:55:57Z</time>
      </trkpt>
      <trkpt lat="45.16531" lon="5.90817">
        <ele>1550.6</ele>
        <time>2021-02-20T14:55:58Z</time>
      </trkpt>
      <trkpt lat="45.16532" lon="5.90817">
        <ele>1550.4</ele>
        <time>2021-02-20T14:55:59Z</time>
      </trkpt>
      <trkpt lat="45.16533" lon="5.90818">
        <ele>1550.2</ele>
        <time>2021-02-20T14:56:00Z</time>
      </trkpt>
      <trkpt lat="45.16533" lon="5.90818">
        <ele>1550.1</ele>
        <time>2021-02-20T14:56:01Z</time>
      </trkpt>
      <trkpt lat="45.16533" lon="5.90818">
        <ele>1550.1</ele>
        <time>2021-02-20T14:56:02Z</time>
      </trkpt>
      <trkpt lat="45.16534" lon="5.90818">
        <ele>1550.1</ele>
        <time>2021-02-20T14:56:03Z</time>
      </trkpt>
      <trkpt lat="45.16534" lon="5.90819">
        <ele>1550</ele>
        <time>2021-02-20T14:56:04Z</time>
      </trkpt>
      <trkpt lat="45.16535" lon="5.90819">
        <ele>1549.9</ele>
        <time>2021-02-20T14:56:05Z</time>
      </trkpt>
      <trkpt lat="45.16535" lon="5.90819">
        <ele>1549.7</ele>
        <time>2021-02-20T14:56:06Z</time>
      </trkpt>
      <trkpt lat="45.16536" lon="5.90819">
        <ele>1549.6</ele>
        <time>2021-02-20T14:56:07Z</time>
      </trkpt>
      <trkpt lat="45.16536" lon="5.9082">
        <ele>1549.5</ele>
        <time>2021-02-20T14:56:08Z</time>
      </trkpt>
      <trkpt lat="45.16537" lon="5.9082">
        <ele>1549.4</ele>
        <time>2021-02-20T14:56:09Z</time>
      </trkpt>
      <trkpt lat="45.16537" lon="5.90821">
        <ele>1549.3</ele>
        <time>2021-02-20T14:56:10Z</time>
      </trkpt>
      <trkpt lat="45.16538" lon="5.90821">
        <ele>1549.1</ele>
        <time>2021-02-20T14:56:11Z</time>
      </trkpt>
      <trkpt lat="45.16539" lon="5.90821">
        <ele>1548.9</ele>
        <time>2021-02-20T14:56:12Z</time>
      </trkpt>
      <trkpt lat="45.1654" lon="5.90821">
        <ele>1548.7</ele>
        <time>2021-02-20T14:56:13Z</time>
      </trkpt>
      <trkpt lat="45.16541" lon="5.9082">
        <ele>1548.5</ele>
        <time>2021-02-20T14:56:14Z</time>
      </trkpt>
      <trkpt lat="45.16543" lon="5.9082">
        <ele>1548.1</ele>
        <time>2021-02-20T14:56:15Z</time>
      </trkpt>
      <trkpt lat="45.16544" lon="5.9082">
        <ele>1547.9</ele>
        <time>2021-02-20T14:56:16Z</time>
      </trkpt>
      <trkpt lat="45.16544" lon="5.9082">
        <ele>1547.7</ele>
        <time>2021-02-20T14:56:17Z</time>
      </trkpt>
      <trkpt lat="45.16545" lon="5.9082">
        <ele>1547.5</ele>
        <time>2021-02-20T14:56:18Z</time>
      </trkpt>
      <trkpt lat="45.16546" lon="5.90821">
        <ele>1547.3</ele>
        <time>2021-02-20T14:56:19Z</time>
      </trkpt>
      <trkpt lat="45.16547" lon="5.90821">
        <ele>1547.2</ele>
        <time>2021-02-20T14:56:20Z</time>
      </trkpt>
      <trkpt lat="45.16547" lon="5.90822">
        <ele>1547</ele>
        <time>2021-02-20T14:56:21Z</time>
      </trkpt>
      <trkpt lat="45.16547" lon="5.90823">
        <ele>1546.9</ele>
        <time>2021-02-20T14:56:22Z</time>
      </trkpt>
      <trkpt lat="45.16547" lon="5.90823">
        <ele>1546.9</ele>
        <time>2021-02-20T14:56:23Z</time>
      </trkpt>
      <trkpt lat="45.16548" lon="5.90824">
        <ele>1546.7</ele>
        <time>2021-02-20T14:56:24Z</time>
      </trkpt>
      <trkpt lat="45.16548" lon="5.90824">
        <ele>1546.6</ele>
        <time>2021-02-20T14:56:25Z</time>
      </trkpt>
      <trkpt lat="45.16549" lon="5.90824">
        <ele>1546.4</ele>
        <time>2021-02-20T14:56:26Z</time>
      </trkpt>
      <trkpt lat="45.1655" lon="5.90825">
        <ele>1546.2</ele>
        <time>2021-02-20T14:56:27Z</time>
      </trkpt>
      <trkpt lat="45.16551" lon="5.90825">
        <ele>1546</ele>
        <time>2021-02-20T14:56:28Z</time>
      </trkpt>
      <trkpt lat="45.16552" lon="5.90825">
        <ele>1545.7</ele>
        <time>2021-02-20T14:56:29Z</time>
      </trkpt>
      <trkpt lat="45.16553" lon="5.90824">
        <ele>1545.4</ele>
        <time>2021-02-20T14:56:30Z</time>
      </trkpt>
      <trkpt lat="45.16554" lon="5.90824">
        <ele>1545.2</ele>
        <time>2021-02-20T14:56:31Z</time>
      </trkpt>
      <trkpt lat="45.16555" lon="5.90824">
        <ele>1544.9</ele>
        <time>2021-02-20T14:56:32Z</time>
      </trkpt>
      <trkpt lat="45.16556" lon="5.90824">
        <ele>1544.7</ele>
        <time>2021-02-20T14:56:33Z</time>
      </trkpt>
      <trkpt lat="45.16556" lon="5.90824">
        <ele>1544.6</ele>
        <time>2021-02-20T14:56:34Z</time>
      </trkpt>
      <trkpt lat="45.16557" lon="5.90824">
        <ele>1544.4</ele>
        <time>2021-02-20T14:56:35Z</time>
      </trkpt>
      <trkpt lat="45.16558" lon="5.90824">
        <ele>1544.2</ele>
        <time>2021-02-20T14:56:36Z</time>
      </trkpt>
      <trkpt lat="45.16559" lon="5.90824">
        <ele>1544</ele>
        <time>2021-02-20T14:56:37Z</time>
      </trkpt>
      <trkpt lat="45.1656" lon="5.90825">
        <ele>1543.8</ele>
        <time>2021-02-20T14:56:38Z</time>
      </trkpt>
      <trkpt lat="45.1656" lon="5.90825">
        <ele>1543.6</ele>
        <time>2021-02-20T14:56:39Z</time>
      </trkpt>
      <trkpt lat="45.16561" lon="5.90825">
        <ele>1543.4</ele>
        <time>2021-02-20T14:56:40Z</time>
      </trkpt>
      <trkpt lat="45.16562" lon="5.90826">
        <ele>1543.2</ele>
        <time>2021-02-20T14:56:41Z</time>
      </trkpt>
      <trkpt lat="45.16562" lon="5.90826">
        <ele>1543.1</ele>
        <time>2021-02-20T14:56:42Z</time>
      </trkpt>
      <trkpt lat="45.16563" lon="5.90826">
        <ele>1542.9</ele>
        <time>2021-02-20T14:56:43Z</time>
      </trkpt>
      <trkpt lat="45.16564" lon="5.90827">
        <ele>1542.7</ele>
        <time>2021-02-20T14:56:44Z</time>
      </trkpt>
      <trkpt lat="45.16564" lon="5.90827">
        <ele>1542.5</ele>
        <time>2021-02-20T14:56:45Z</time>
      </trkpt>
      <trkpt lat="45.16565" lon="5.90827">
        <ele>1542.4</ele>
        <time>2021-02-20T14:56:46Z</time>
      </trkpt>
      <trkpt lat="45.16566" lon="5.90828">
        <ele>1542.2</ele>
        <time>2021-02-20T14:56:47Z</time>
      </trkpt>
      <trkpt lat="45.16567" lon="5.90828">
        <ele>1541.9</ele>
        <time>2021-02-20T14:56:48Z</time>
      </trkpt>
      <trkpt lat="45.16567" lon="5.90828">
        <ele>1541.8</ele>
        <time>2021-02-20T14:56:49Z</time>
      </trkpt>
      <trkpt lat="45.16567" lon="5.90828">
        <ele>1541.8</ele>
        <time>2021-02-20T14:56:50Z</time>
      </trkpt>
      <trkpt lat="45.16568" lon="5.90828">
        <ele>1541.7</ele>
        <time>2021-02-20T14:56:51Z</time>
      </trkpt>
      <trkpt lat="45.16568" lon="5.90828">
        <ele>1541.6</ele>
        <time>2021-02-20T14:56:52Z</time>
      </trkpt>
      <trkpt lat="45.16568" lon="5.90829">
        <ele>1541.5</ele>
        <time>2021-02-20T14:56:53Z</time>
      </trkpt>
      <trkpt lat="45.16569" lon="5.90829">
        <ele>1541.4</ele>
        <time>2021-02-20T14:56:54Z</time>
      </trkpt>
      <trkpt lat="45.16569" lon="5.90829">
        <ele>1541.3</ele>
        <time>2021-02-20T14:56:55Z</time>
      </trkpt>
      <trkpt lat="45.1657" lon="5.90829">
        <ele>1541.2</ele>
        <time>2021-02-20T14:56:56Z</time>
      </trkpt>
      <trkpt lat="45.1657" lon="5.90829">
        <ele>1541</ele>
        <time>2021-02-20T14:56:57Z</time>
      </trkpt>
      <trkpt lat="45.16571" lon="5.90829">
        <ele>1540.9</ele>
        <time>2021-02-20T14:56:58Z</time>
      </trkpt>
      <trkpt lat="45.16571" lon="5.90829">
        <ele>1540.7</ele>
        <time>2021-02-20T14:56:59Z</time>
      </trkpt>
      <trkpt lat="45.16572" lon="5.90829">
        <ele>1540.5</ele>
        <time>2021-02-20T14:57:00Z</time>
      </trkpt>
      <trkpt lat="45.16573" lon="5.90829">
        <ele>1540.4</ele>
        <time>2021-02-20T14:57:01Z</time>
      </trkpt>
      <trkpt lat="45.16574" lon="5.9083">
        <ele>1540.1</ele>
        <time>2021-02-20T14:57:02Z</time>
      </trkpt>
      <trkpt lat="45.16575" lon="5.9083">
        <ele>1539.8</ele>
        <time>2021-02-20T14:57:03Z</time>
      </trkpt>
      <trkpt lat="45.16576" lon="5.90831">
        <ele>1539.6</ele>
        <time>2021-02-20T14:57:04Z</time>
      </trkpt>
      <trkpt lat="45.16576" lon="5.90831">
        <ele>1539.5</ele>
        <time>2021-02-20T14:57:05Z</time>
      </trkpt>
      <trkpt lat="45.16576" lon="5.90832">
        <ele>1539.4</ele>
        <time>2021-02-20T14:57:06Z</time>
      </trkpt>
      <trkpt lat="45.16577" lon="5.90833">
        <ele>1539.2</ele>
        <time>2021-02-20T14:57:07Z</time>
      </trkpt>
      <trkpt lat="45.16577" lon="5.90833">
        <ele>1539</ele>
        <time>2021-02-20T14:57:08Z</time>
      </trkpt>
      <trkpt lat="45.16578" lon="5.90833">
        <ele>1538.8</ele>
        <time>2021-02-20T14:57:09Z</time>
      </trkpt>
      <trkpt lat="45.16579" lon="5.90833">
        <ele>1538.7</ele>
        <time>2021-02-20T14:57:10Z</time>
      </trkpt>
      <trkpt lat="45.16579" lon="5.90833">
        <ele>1538.6</ele>
        <time>2021-02-20T14:57:11Z</time>
      </trkpt>
      <trkpt lat="45.16579" lon="5.90833">
        <ele>1538.5</ele>
        <time>2021-02-20T14:57:12Z</time>
      </trkpt>
      <trkpt lat="45.1658" lon="5.90833">
        <ele>1538.3</ele>
        <time>2021-02-20T14:57:13Z</time>
      </trkpt>
      <trkpt lat="45.16581" lon="5.90833">
        <ele>1538.1</ele>
        <time>2021-02-20T14:57:14Z</time>
      </trkpt>
      <trkpt lat="45.16582" lon="5.90833">
        <ele>1537.9</ele>
        <time>2021-02-20T14:57:15Z</time>
      </trkpt>
      <trkpt lat="45.16582" lon="5.90833">
        <ele>1537.8</ele>
        <time>2021-02-20T14:57:16Z</time>
      </trkpt>
      <trkpt lat="45.16583" lon="5.90833">
        <ele>1537.6</ele>
        <time>2021-02-20T14:57:17Z</time>
      </trkpt>
      <trkpt lat="45.16584" lon="5.90834">
        <ele>1537.4</ele>
        <time>2021-02-20T14:57:18Z</time>
      </trkpt>
      <trkpt lat="45.16585" lon="5.90834">
        <ele>1537.2</ele>
        <time>2021-02-20T14:57:19Z</time>
      </trkpt>
      <trkpt lat="45.16586" lon="5.90834">
        <ele>1537</ele>
        <time>2021-02-20T14:57:20Z</time>
      </trkpt>
      <trkpt lat="45.16587" lon="5.90835">
        <ele>1536.7</ele>
        <time>2021-02-20T14:57:21Z</time>
      </trkpt>
      <trkpt lat="45.16588" lon="5.90835">
        <ele>1536.5</ele>
        <time>2021-02-20T14:57:22Z</time>
      </trkpt>
      <trkpt lat="45.16588" lon="5.90835">
        <ele>1536.4</ele>
        <time>2021-02-20T14:57:23Z</time>
      </trkpt>
      <trkpt lat="45.16589" lon="5.90835">
        <ele>1536.1</ele>
        <time>2021-02-20T14:57:24Z</time>
      </trkpt>
      <trkpt lat="45.1659" lon="5.90835">
        <ele>1535.8</ele>
        <time>2021-02-20T14:57:25Z</time>
      </trkpt>
      <trkpt lat="45.16591" lon="5.90836">
        <ele>1535.6</ele>
        <time>2021-02-20T14:57:26Z</time>
      </trkpt>
      <trkpt lat="45.16592" lon="5.90836">
        <ele>1535.4</ele>
        <time>2021-02-20T14:57:27Z</time>
      </trkpt>
      <trkpt lat="45.16593" lon="5.90836">
        <ele>1535.1</ele>
        <time>2021-02-20T14:57:28Z</time>
      </trkpt>
      <trkpt lat="45.16594" lon="5.90837">
        <ele>1534.8</ele>
        <time>2021-02-20T14:57:29Z</time>
      </trkpt>
      <trkpt lat="45.16595" lon="5.90837">
        <ele>1534.6</ele>
        <time>2021-02-20T14:57:30Z</time>
      </trkpt>
      <trkpt lat="45.16596" lon="5.90837">
        <ele>1534.4</ele>
        <time>2021-02-20T14:57:31Z</time>
      </trkpt>
      <trkpt lat="45.16596" lon="5.90837">
        <ele>1534.2</ele>
        <time>2021-02-20T14:57:32Z</time>
      </trkpt>
      <trkpt lat="45.16597" lon="5.90837">
        <ele>1534</ele>
        <time>2021-02-20T14:57:33Z</time>
      </trkpt>
      <trkpt lat="45.16598" lon="5.90837">
        <ele>1533.7</ele>
        <time>2021-02-20T14:57:34Z</time>
      </trkpt>
      <trkpt lat="45.16599" lon="5.90837">
        <ele>1533.4</ele>
        <time>2021-02-20T14:57:35Z</time>
      </trkpt>
      <trkpt lat="45.166" lon="5.90837">
        <ele>1533.2</ele>
        <time>2021-02-20T14:57:36Z</time>
      </trkpt>
      <trkpt lat="45.16601" lon="5.90838">
        <ele>1533</ele>
        <time>2021-02-20T14:57:37Z</time>
      </trkpt>
      <trkpt lat="45.16601" lon="5.90839">
        <ele>1532.8</ele>
        <time>2021-02-20T14:57:38Z</time>
      </trkpt>
      <trkpt lat="45.16601" lon="5.90839">
        <ele>1532.7</ele>
        <time>2021-02-20T14:57:39Z</time>
      </trkpt>
      <trkpt lat="45.16602" lon="5.9084">
        <ele>1532.4</ele>
        <time>2021-02-20T14:57:40Z</time>
      </trkpt>
      <trkpt lat="45.16603" lon="5.9084">
        <ele>1532.1</ele>
        <time>2021-02-20T14:57:41Z</time>
      </trkpt>
      <trkpt lat="45.16605" lon="5.9084">
        <ele>1531.8</ele>
        <time>2021-02-20T14:57:42Z</time>
      </trkpt>
      <trkpt lat="45.16606" lon="5.90841">
        <ele>1531.5</ele>
        <time>2021-02-20T14:57:43Z</time>
      </trkpt>
      <trkpt lat="45.16606" lon="5.90842">
        <ele>1531.3</ele>
        <time>2021-02-20T14:57:44Z</time>
      </trkpt>
      <trkpt lat="45.16607" lon="5.90843">
        <ele>1531</ele>
        <time>2021-02-20T14:57:45Z</time>
      </trkpt>
      <trkpt lat="45.16608" lon="5.90843">
        <ele>1530.8</ele>
        <time>2021-02-20T14:57:46Z</time>
      </trkpt>
      <trkpt lat="45.16608" lon="5.90843">
        <ele>1530.7</ele>
        <time>2021-02-20T14:57:47Z</time>
      </trkpt>
      <trkpt lat="45.16609" lon="5.90844">
        <ele>1530.6</ele>
        <time>2021-02-20T14:57:48Z</time>
      </trkpt>
      <trkpt lat="45.16609" lon="5.90845">
        <ele>1530.4</ele>
        <time>2021-02-20T14:57:49Z</time>
      </trkpt>
      <trkpt lat="45.16609" lon="5.90845">
        <ele>1530.3</ele>
        <time>2021-02-20T14:57:50Z</time>
      </trkpt>
      <trkpt lat="45.1661" lon="5.90845">
        <ele>1530.1</ele>
        <time>2021-02-20T14:57:51Z</time>
      </trkpt>
      <trkpt lat="45.1661" lon="5.90846">
        <ele>1530</ele>
        <time>2021-02-20T14:57:52Z</time>
      </trkpt>
      <trkpt lat="45.16611" lon="5.90846">
        <ele>1529.8</ele>
        <time>2021-02-20T14:57:53Z</time>
      </trkpt>
      <trkpt lat="45.16611" lon="5.90847">
        <ele>1529.7</ele>
        <time>2021-02-20T14:57:54Z</time>
      </trkpt>
      <trkpt lat="45.16611" lon="5.90847">
        <ele>1529.6</ele>
        <time>2021-02-20T14:57:55Z</time>
      </trkpt>
      <trkpt lat="45.16612" lon="5.90847">
        <ele>1529.5</ele>
        <time>2021-02-20T14:57:56Z</time>
      </trkpt>
      <trkpt lat="45.16612" lon="5.90848">
        <ele>1529.4</ele>
        <time>2021-02-20T14:57:57Z</time>
      </trkpt>
      <trkpt lat="45.16613" lon="5.90848">
        <ele>1529.2</ele>
        <time>2021-02-20T14:57:58Z</time>
      </trkpt>
      <trkpt lat="45.16614" lon="5.90848">
        <ele>1529</ele>
        <time>2021-02-20T14:57:59Z</time>
      </trkpt>
      <trkpt lat="45.16614" lon="5.90848">
        <ele>1528.8</ele>
        <time>2021-02-20T14:58:00Z</time>
      </trkpt>
      <trkpt lat="45.16615" lon="5.90847">
        <ele>1528.6</ele>
        <time>2021-02-20T14:58:01Z</time>
      </trkpt>
      <trkpt lat="45.16616" lon="5.90847">
        <ele>1528.5</ele>
        <time>2021-02-20T14:58:02Z</time>
      </trkpt>
      <trkpt lat="45.16616" lon="5.90848">
        <ele>1528.4</ele>
        <time>2021-02-20T14:58:03Z</time>
      </trkpt>
      <trkpt lat="45.16616" lon="5.90849">
        <ele>1528.2</ele>
        <time>2021-02-20T14:58:04Z</time>
      </trkpt>
      <trkpt lat="45.16617" lon="5.9085">
        <ele>1528</ele>
        <time>2021-02-20T14:58:05Z</time>
      </trkpt>
      <trkpt lat="45.16617" lon="5.9085">
        <ele>1527.8</ele>
        <time>2021-02-20T14:58:06Z</time>
      </trkpt>
      <trkpt lat="45.16618" lon="5.9085">
        <ele>1527.6</ele>
        <time>2021-02-20T14:58:07Z</time>
      </trkpt>
      <trkpt lat="45.16619" lon="5.9085">
        <ele>1527.5</ele>
        <time>2021-02-20T14:58:08Z</time>
      </trkpt>
      <trkpt lat="45.1662" lon="5.9085">
        <ele>1527.3</ele>
        <time>2021-02-20T14:58:09Z</time>
      </trkpt>
      <trkpt lat="45.1662" lon="5.9085">
        <ele>1527.1</ele>
        <time>2021-02-20T14:58:10Z</time>
      </trkpt>
      <trkpt lat="45.16621" lon="5.90851">
        <ele>1526.9</ele>
        <time>2021-02-20T14:58:11Z</time>
      </trkpt>
      <trkpt lat="45.16622" lon="5.90851">
        <ele>1526.7</ele>
        <time>2021-02-20T14:58:12Z</time>
      </trkpt>
      <trkpt lat="45.16623" lon="5.90851">
        <ele>1526.5</ele>
        <time>2021-02-20T14:58:13Z</time>
      </trkpt>
      <trkpt lat="45.16623" lon="5.90851">
        <ele>1526.4</ele>
        <time>2021-02-20T14:58:14Z</time>
      </trkpt>
      <trkpt lat="45.16624" lon="5.90851">
        <ele>1526.2</ele>
        <time>2021-02-20T14:58:15Z</time>
      </trkpt>
      <trkpt lat="45.16625" lon="5.90851">
        <ele>1526</ele>
        <time>2021-02-20T14:58:16Z</time>
      </trkpt>
      <trkpt lat="45.16626" lon="5.90851">
        <ele>1525.8</ele>
        <time>2021-02-20T14:58:17Z</time>
      </trkpt>
      <trkpt lat="45.16627" lon="5.9085">
        <ele>1525.5</ele>
        <time>2021-02-20T14:58:18Z</time>
      </trkpt>
      <trkpt lat="45.16628" lon="5.9085">
        <ele>1525.2</ele>
        <time>2021-02-20T14:58:19Z</time>
      </trkpt>
      <trkpt lat="45.16629" lon="5.9085">
        <ele>1525</ele>
        <time>2021-02-20T14:58:20Z</time>
      </trkpt>
      <trkpt lat="45.1663" lon="5.9085">
        <ele>1524.8</ele>
        <time>2021-02-20T14:58:21Z</time>
      </trkpt>
      <trkpt lat="45.16631" lon="5.9085">
        <ele>1524.5</ele>
        <time>2021-02-20T14:58:22Z</time>
      </trkpt>
      <trkpt lat="45.16632" lon="5.90851">
        <ele>1524.4</ele>
        <time>2021-02-20T14:58:23Z</time>
      </trkpt>
      <trkpt lat="45.16632" lon="5.90851">
        <ele>1524.3</ele>
        <time>2021-02-20T14:58:24Z</time>
      </trkpt>
      <trkpt lat="45.16632" lon="5.90851">
        <ele>1524.2</ele>
        <time>2021-02-20T14:58:25Z</time>
      </trkpt>
      <trkpt lat="45.16633" lon="5.90852">
        <ele>1524.1</ele>
        <time>2021-02-20T14:58:26Z</time>
      </trkpt>
      <trkpt lat="45.16633" lon="5.90852">
        <ele>1524</ele>
        <time>2021-02-20T14:58:27Z</time>
      </trkpt>
      <trkpt lat="45.16633" lon="5.90852">
        <ele>1524</ele>
        <time>2021-02-20T14:58:28Z</time>
      </trkpt>
      <trkpt lat="45.16633" lon="5.90852">
        <ele>1524</ele>
        <time>2021-02-20T14:58:29Z</time>
      </trkpt>
      <trkpt lat="45.16633" lon="5.90852">
        <ele>1524</ele>
        <time>2021-02-20T14:58:30Z</time>
      </trkpt>
      <trkpt lat="45.16634" lon="5.90852">
        <ele>1523.7</ele>
        <time>2021-02-20T14:58:31Z</time>
      </trkpt>
      <trkpt lat="45.16634" lon="5.90853">
        <ele>1523.6</ele>
        <time>2021-02-20T14:58:32Z</time>
      </trkpt>
      <trkpt lat="45.16635" lon="5.90854">
        <ele>1523.4</ele>
        <time>2021-02-20T14:58:33Z</time>
      </trkpt>
      <trkpt lat="45.16635" lon="5.90855">
        <ele>1523.2</ele>
        <time>2021-02-20T14:58:34Z</time>
      </trkpt>
      <trkpt lat="45.16637" lon="5.90855">
        <ele>1522.7</ele>
        <time>2021-02-20T14:58:35Z</time>
      </trkpt>
      <trkpt lat="45.16638" lon="5.90855">
        <ele>1522.5</ele>
        <time>2021-02-20T14:58:36Z</time>
      </trkpt>
      <trkpt lat="45.16639" lon="5.90854">
        <ele>1522.3</ele>
        <time>2021-02-20T14:58:37Z</time>
      </trkpt>
      <trkpt lat="45.16641" lon="5.90854">
        <ele>1521.9</ele>
        <time>2021-02-20T14:58:38Z</time>
      </trkpt>
      <trkpt lat="45.16642" lon="5.90854">
        <ele>1521.6</ele>
        <time>2021-02-20T14:58:39Z</time>
      </trkpt>
      <trkpt lat="45.16643" lon="5.90854">
        <ele>1521.4</ele>
        <time>2021-02-20T14:58:40Z</time>
      </trkpt>
      <trkpt lat="45.16644" lon="5.90854">
        <ele>1521.2</ele>
        <time>2021-02-20T14:58:41Z</time>
      </trkpt>
      <trkpt lat="45.16645" lon="5.90855">
        <ele>1520.9</ele>
        <time>2021-02-20T14:58:42Z</time>
      </trkpt>
      <trkpt lat="45.16645" lon="5.90855">
        <ele>1520.7</ele>
        <time>2021-02-20T14:58:43Z</time>
      </trkpt>
      <trkpt lat="45.16646" lon="5.90856">
        <ele>1520.5</ele>
        <time>2021-02-20T14:58:44Z</time>
      </trkpt>
      <trkpt lat="45.16647" lon="5.90856">
        <ele>1520.2</ele>
        <time>2021-02-20T14:58:45Z</time>
      </trkpt>
      <trkpt lat="45.16648" lon="5.90857">
        <ele>1519.9</ele>
        <time>2021-02-20T14:58:46Z</time>
      </trkpt>
      <trkpt lat="45.16649" lon="5.90859">
        <ele>1519.6</ele>
        <time>2021-02-20T14:58:47Z</time>
      </trkpt>
      <trkpt lat="45.1665" lon="5.9086">
        <ele>1519.2</ele>
        <time>2021-02-20T14:58:48Z</time>
      </trkpt>
      <trkpt lat="45.16652" lon="5.9086">
        <ele>1518.8</ele>
        <time>2021-02-20T14:58:49Z</time>
      </trkpt>
      <trkpt lat="45.16653" lon="5.9086">
        <ele>1518.4</ele>
        <time>2021-02-20T14:58:50Z</time>
      </trkpt>
      <trkpt lat="45.16654" lon="5.9086">
        <ele>1518.1</ele>
        <time>2021-02-20T14:58:51Z</time>
      </trkpt>
      <trkpt lat="45.16655" lon="5.9086">
        <ele>1517.9</ele>
        <time>2021-02-20T14:58:52Z</time>
      </trkpt>
      <trkpt lat="45.16656" lon="5.9086">
        <ele>1517.7</ele>
        <time>2021-02-20T14:58:53Z</time>
      </trkpt>
      <trkpt lat="45.16657" lon="5.9086">
        <ele>1517.5</ele>
        <time>2021-02-20T14:58:54Z</time>
      </trkpt>
      <trkpt lat="45.16658" lon="5.9086">
        <ele>1517.2</ele>
        <time>2021-02-20T14:58:55Z</time>
      </trkpt>
      <trkpt lat="45.16658" lon="5.9086">
        <ele>1517</ele>
        <time>2021-02-20T14:58:56Z</time>
      </trkpt>
      <trkpt lat="45.16659" lon="5.9086">
        <ele>1516.8</ele>
        <time>2021-02-20T14:58:57Z</time>
      </trkpt>
      <trkpt lat="45.16659" lon="5.9086">
        <ele>1516.8</ele>
        <time>2021-02-20T14:58:58Z</time>
      </trkpt>
      <trkpt lat="45.1666" lon="5.9086">
        <ele>1516.4</ele>
        <time>2021-02-20T14:58:59Z</time>
      </trkpt>
      <trkpt lat="45.16661" lon="5.9086">
        <ele>1516.2</ele>
        <time>2021-02-20T14:59:00Z</time>
      </trkpt>
      <trkpt lat="45.16662" lon="5.9086">
        <ele>1516</ele>
        <time>2021-02-20T14:59:01Z</time>
      </trkpt>
      <trkpt lat="45.16662" lon="5.9086">
        <ele>1515.9</ele>
        <time>2021-02-20T14:59:02Z</time>
      </trkpt>
      <trkpt lat="45.16662" lon="5.9086">
        <ele>1515.7</ele>
        <time>2021-02-20T14:59:03Z</time>
      </trkpt>
      <trkpt lat="45.16663" lon="5.9086">
        <ele>1515.5</ele>
        <time>2021-02-20T14:59:04Z</time>
      </trkpt>
      <trkpt lat="45.16664" lon="5.9086">
        <ele>1515.2</ele>
        <time>2021-02-20T14:59:05Z</time>
      </trkpt>
      <trkpt lat="45.16665" lon="5.90861">
        <ele>1515</ele>
        <time>2021-02-20T14:59:06Z</time>
      </trkpt>
      <trkpt lat="45.16666" lon="5.90861">
        <ele>1514.7</ele>
        <time>2021-02-20T14:59:07Z</time>
      </trkpt>
      <trkpt lat="45.16666" lon="5.90861">
        <ele>1514.6</ele>
        <time>2021-02-20T14:59:08Z</time>
      </trkpt>
      <trkpt lat="45.16667" lon="5.90861">
        <ele>1514.4</ele>
        <time>2021-02-20T14:59:09Z</time>
      </trkpt>
      <trkpt lat="45.16667" lon="5.90861">
        <ele>1514.2</ele>
        <time>2021-02-20T14:59:10Z</time>
      </trkpt>
      <trkpt lat="45.16668" lon="5.90861">
        <ele>1514.1</ele>
        <time>2021-02-20T14:59:11Z</time>
      </trkpt>
      <trkpt lat="45.16669" lon="5.90861">
        <ele>1513.8</ele>
        <time>2021-02-20T14:59:12Z</time>
      </trkpt>
      <trkpt lat="45.1667" lon="5.90861">
        <ele>1513.6</ele>
        <time>2021-02-20T14:59:13Z</time>
      </trkpt>
      <trkpt lat="45.1667" lon="5.90861">
        <ele>1513.4</ele>
        <time>2021-02-20T14:59:14Z</time>
      </trkpt>
      <trkpt lat="45.16671" lon="5.90861">
        <ele>1513.2</ele>
        <time>2021-02-20T14:59:15Z</time>
      </trkpt>
      <trkpt lat="45.16672" lon="5.90861">
        <ele>1512.9</ele>
        <time>2021-02-20T14:59:16Z</time>
      </trkpt>
      <trkpt lat="45.16673" lon="5.90862">
        <ele>1512.6</ele>
        <time>2021-02-20T14:59:17Z</time>
      </trkpt>
      <trkpt lat="45.16674" lon="5.90862">
        <ele>1512.4</ele>
        <time>2021-02-20T14:59:18Z</time>
      </trkpt>
      <trkpt lat="45.16674" lon="5.90863">
        <ele>1512.2</ele>
        <time>2021-02-20T14:59:19Z</time>
      </trkpt>
      <trkpt lat="45.16675" lon="5.90863">
        <ele>1511.9</ele>
        <time>2021-02-20T14:59:20Z</time>
      </trkpt>
      <trkpt lat="45.16676" lon="5.90864">
        <ele>1511.7</ele>
        <time>2021-02-20T14:59:21Z</time>
      </trkpt>
      <trkpt lat="45.16677" lon="5.90864">
        <ele>1511.3</ele>
        <time>2021-02-20T14:59:22Z</time>
      </trkpt>
      <trkpt lat="45.16678" lon="5.90864">
        <ele>1511</ele>
        <time>2021-02-20T14:59:23Z</time>
      </trkpt>
      <trkpt lat="45.16678" lon="5.90865">
        <ele>1510.5</ele>
        <time>2021-02-20T14:59:24Z</time>
      </trkpt>
      <trkpt lat="45.16679" lon="5.90865">
        <ele>1510.5</ele>
        <time>2021-02-20T14:59:25Z</time>
      </trkpt>
      <trkpt lat="45.1668" lon="5.90866">
        <ele>1510.4</ele>
        <time>2021-02-20T14:59:26Z</time>
      </trkpt>
      <trkpt lat="45.16681" lon="5.90867">
        <ele>1510.3</ele>
        <time>2021-02-20T14:59:27Z</time>
      </trkpt>
      <trkpt lat="45.16681" lon="5.90867">
        <ele>1510.2</ele>
        <time>2021-02-20T14:59:28Z</time>
      </trkpt>
      <trkpt lat="45.16682" lon="5.90867">
        <ele>1510.2</ele>
        <time>2021-02-20T14:59:29Z</time>
      </trkpt>
      <trkpt lat="45.16683" lon="5.90868">
        <ele>1510.1</ele>
        <time>2021-02-20T14:59:30Z</time>
      </trkpt>
      <trkpt lat="45.16683" lon="5.90868">
        <ele>1510.1</ele>
        <time>2021-02-20T14:59:31Z</time>
      </trkpt>
      <trkpt lat="45.16683" lon="5.90868">
        <ele>1510</ele>
        <time>2021-02-20T14:59:32Z</time>
      </trkpt>
      <trkpt lat="45.16684" lon="5.90869">
        <ele>1510</ele>
        <time>2021-02-20T14:59:33Z</time>
      </trkpt>
      <trkpt lat="45.16684" lon="5.90869">
        <ele>1509.9</ele>
        <time>2021-02-20T14:59:34Z</time>
      </trkpt>
      <trkpt lat="45.16685" lon="5.90869">
        <ele>1509.9</ele>
        <time>2021-02-20T14:59:35Z</time>
      </trkpt>
      <trkpt lat="45.16686" lon="5.90869">
        <ele>1509.8</ele>
        <time>2021-02-20T14:59:36Z</time>
      </trkpt>
      <trkpt lat="45.16686" lon="5.90869">
        <ele>1509.8</ele>
        <time>2021-02-20T14:59:37Z</time>
      </trkpt>
      <trkpt lat="45.16687" lon="5.9087">
        <ele>1509.7</ele>
        <time>2021-02-20T14:59:38Z</time>
      </trkpt>
      <trkpt lat="45.16687" lon="5.9087">
        <ele>1509.7</ele>
        <time>2021-02-20T14:59:39Z</time>
      </trkpt>
      <trkpt lat="45.16687" lon="5.90871">
        <ele>1509.7</ele>
        <time>2021-02-20T14:59:40Z</time>
      </trkpt>
      <trkpt lat="45.16687" lon="5.90872">
        <ele>1509.6</ele>
        <time>2021-02-20T14:59:41Z</time>
      </trkpt>
      <trkpt lat="45.16687" lon="5.90873">
        <ele>1509.6</ele>
        <time>2021-02-20T14:59:42Z</time>
      </trkpt>
      <trkpt lat="45.16687" lon="5.90874">
        <ele>1509.5</ele>
        <time>2021-02-20T14:59:43Z</time>
      </trkpt>
      <trkpt lat="45.16687" lon="5.90875">
        <ele>1509.5</ele>
        <time>2021-02-20T14:59:44Z</time>
      </trkpt>
      <trkpt lat="45.16687" lon="5.90876">
        <ele>1509.4</ele>
        <time>2021-02-20T14:59:45Z</time>
      </trkpt>
      <trkpt lat="45.16687" lon="5.90877">
        <ele>1509.4</ele>
        <time>2021-02-20T14:59:46Z</time>
      </trkpt>
      <trkpt lat="45.16687" lon="5.90878">
        <ele>1509.4</ele>
        <time>2021-02-20T14:59:47Z</time>
      </trkpt>
      <trkpt lat="45.16687" lon="5.90879">
        <ele>1509.3</ele>
        <time>2021-02-20T14:59:48Z</time>
      </trkpt>
      <trkpt lat="45.16687" lon="5.90879">
        <ele>1509.3</ele>
        <time>2021-02-20T14:59:49Z</time>
      </trkpt>
      <trkpt lat="45.16687" lon="5.9088">
        <ele>1509.3</ele>
        <time>2021-02-20T14:59:50Z</time>
      </trkpt>
      <trkpt lat="45.16687" lon="5.9088">
        <ele>1509.3</ele>
        <time>2021-02-20T14:59:51Z</time>
      </trkpt>
      <trkpt lat="45.16687" lon="5.90881">
        <ele>1509.2</ele>
        <time>2021-02-20T14:59:52Z</time>
      </trkpt>
      <trkpt lat="45.16687" lon="5.90882">
        <ele>1509.2</ele>
        <time>2021-02-20T14:59:53Z</time>
      </trkpt>
      <trkpt lat="45.16686" lon="5.90883">
        <ele>1509.2</ele>
        <time>2021-02-20T14:59:54Z</time>
      </trkpt>
      <trkpt lat="45.16686" lon="5.90884">
        <ele>1509.1</ele>
        <time>2021-02-20T14:59:55Z</time>
      </trkpt>
      <trkpt lat="45.16686" lon="5.90885">
        <ele>1509.1</ele>
        <time>2021-02-20T14:59:56Z</time>
      </trkpt>
      <trkpt lat="45.16686" lon="5.90886">
        <ele>1509.1</ele>
        <time>2021-02-20T14:59:57Z</time>
      </trkpt>
      <trkpt lat="45.16686" lon="5.90886">
        <ele>1509.1</ele>
        <time>2021-02-20T14:59:58Z</time>
      </trkpt>
      <trkpt lat="45.16686" lon="5.90887">
        <ele>1509</ele>
        <time>2021-02-20T14:59:59Z</time>
      </trkpt>
      <trkpt lat="45.16686" lon="5.90888">
        <ele>1509</ele>
        <time>2021-02-20T15:00:00Z</time>
      </trkpt>
      <trkpt lat="45.16686" lon="5.90889">
        <ele>1509</ele>
        <time>2021-02-20T15:00:01Z</time>
      </trkpt>
      <trkpt lat="45.16686" lon="5.9089">
        <ele>1508.9</ele>
        <time>2021-02-20T15:00:02Z</time>
      </trkpt>
      <trkpt lat="45.16687" lon="5.90891">
        <ele>1508.9</ele>
        <time>2021-02-20T15:00:03Z</time>
      </trkpt>
      <trkpt lat="45.16687" lon="5.90892">
        <ele>1508.9</ele>
        <time>2021-02-20T15:00:04Z</time>
      </trkpt>
      <trkpt lat="45.16688" lon="5.90892">
        <ele>1508.8</ele>
        <time>2021-02-20T15:00:05Z</time>
      </trkpt>
      <trkpt lat="45.16689" lon="5.90893">
        <ele>1508.8</ele>
        <time>2021-02-20T15:00:06Z</time>
      </trkpt>
      <trkpt lat="45.16689" lon="5.90893">
        <ele>1508.8</ele>
        <time>2021-02-20T15:00:07Z</time>
      </trkpt>
      <trkpt lat="45.1669" lon="5.90894">
        <ele>1508.7</ele>
        <time>2021-02-20T15:00:08Z</time>
      </trkpt>
      <trkpt lat="45.16691" lon="5.90894">
        <ele>1508.7</ele>
        <time>2021-02-20T15:00:09Z</time>
      </trkpt>
      <trkpt lat="45.16692" lon="5.90895">
        <ele>1508.7</ele>
        <time>2021-02-20T15:00:10Z</time>
      </trkpt>
      <trkpt lat="45.16692" lon="5.90895">
        <ele>1508.7</ele>
        <time>2021-02-20T15:00:11Z</time>
      </trkpt>
      <trkpt lat="45.16693" lon="5.90895">
        <ele>1508.6</ele>
        <time>2021-02-20T15:00:12Z</time>
      </trkpt>
      <trkpt lat="45.16693" lon="5.90895">
        <ele>1508.6</ele>
        <time>2021-02-20T15:00:13Z</time>
      </trkpt>
      <trkpt lat="45.16694" lon="5.90895">
        <ele>1508.5</ele>
        <time>2021-02-20T15:00:14Z</time>
      </trkpt>
      <trkpt lat="45.16695" lon="5.90896">
        <ele>1508.5</ele>
        <time>2021-02-20T15:00:15Z</time>
      </trkpt>
      <trkpt lat="45.16695" lon="5.90896">
        <ele>1508.5</ele>
        <time>2021-02-20T15:00:16Z</time>
      </trkpt>
      <trkpt lat="45.16696" lon="5.90896">
        <ele>1508.4</ele>
        <time>2021-02-20T15:00:17Z</time>
      </trkpt>
      <trkpt lat="45.16696" lon="5.90897">
        <ele>1508.4</ele>
        <time>2021-02-20T15:00:18Z</time>
      </trkpt>
      <trkpt lat="45.16697" lon="5.90897">
        <ele>1508.4</ele>
        <time>2021-02-20T15:00:19Z</time>
      </trkpt>
      <trkpt lat="45.16697" lon="5.90898">
        <ele>1508.3</ele>
        <time>2021-02-20T15:00:20Z</time>
      </trkpt>
      <trkpt lat="45.16698" lon="5.90898">
        <ele>1508.3</ele>
        <time>2021-02-20T15:00:21Z</time>
      </trkpt>
      <trkpt lat="45.16698" lon="5.90899">
        <ele>1508.3</ele>
        <time>2021-02-20T15:00:22Z</time>
      </trkpt>
      <trkpt lat="45.16699" lon="5.90899">
        <ele>1508.2</ele>
        <time>2021-02-20T15:00:23Z</time>
      </trkpt>
      <trkpt lat="45.16699" lon="5.90899">
        <ele>1508.2</ele>
        <time>2021-02-20T15:00:24Z</time>
      </trkpt>
      <trkpt lat="45.16699" lon="5.909">
        <ele>1508.2</ele>
        <time>2021-02-20T15:00:25Z</time>
      </trkpt>
      <trkpt lat="45.167" lon="5.909">
        <ele>1508.1</ele>
        <time>2021-02-20T15:00:26Z</time>
      </trkpt>
      <trkpt lat="45.16701" lon="5.90901">
        <ele>1508.1</ele>
        <time>2021-02-20T15:00:27Z</time>
      </trkpt>
      <trkpt lat="45.16702" lon="5.90901">
        <ele>1508</ele>
        <time>2021-02-20T15:00:28Z</time>
      </trkpt>
      <trkpt lat="45.16703" lon="5.90901">
        <ele>1507.9</ele>
        <time>2021-02-20T15:00:29Z</time>
      </trkpt>
      <trkpt lat="45.16704" lon="5.90901">
        <ele>1507.8</ele>
        <time>2021-02-20T15:00:30Z</time>
      </trkpt>
      <trkpt lat="45.16705" lon="5.90901">
        <ele>1507.7</ele>
        <time>2021-02-20T15:00:31Z</time>
      </trkpt>
      <trkpt lat="45.16707" lon="5.90902">
        <ele>1507.5</ele>
        <time>2021-02-20T15:00:32Z</time>
      </trkpt>
      <trkpt lat="45.16708" lon="5.90902">
        <ele>1507.4</ele>
        <time>2021-02-20T15:00:33Z</time>
      </trkpt>
      <trkpt lat="45.16709" lon="5.90903">
        <ele>1507.3</ele>
        <time>2021-02-20T15:00:34Z</time>
      </trkpt>
      <trkpt lat="45.1671" lon="5.90903">
        <ele>1507.2</ele>
        <time>2021-02-20T15:00:35Z</time>
      </trkpt>
      <trkpt lat="45.1671" lon="5.90903">
        <ele>1507.2</ele>
        <time>2021-02-20T15:00:36Z</time>
      </trkpt>
      <trkpt lat="45.16711" lon="5.90903">
        <ele>1507.1</ele>
        <time>2021-02-20T15:00:37Z</time>
      </trkpt>
      <trkpt lat="45.16711" lon="5.90903">
        <ele>1507.1</ele>
        <time>2021-02-20T15:00:38Z</time>
      </trkpt>
      <trkpt lat="45.16712" lon="5.90903">
        <ele>1507</ele>
        <time>2021-02-20T15:00:39Z</time>
      </trkpt>
      <trkpt lat="45.16713" lon="5.90902">
        <ele>1506.9</ele>
        <time>2021-02-20T15:00:40Z</time>
      </trkpt>
      <trkpt lat="45.16714" lon="5.90902">
        <ele>1506.8</ele>
        <time>2021-02-20T15:00:41Z</time>
      </trkpt>
      <trkpt lat="45.16715" lon="5.90902">
        <ele>1506.6</ele>
        <time>2021-02-20T15:00:42Z</time>
      </trkpt>
      <trkpt lat="45.16716" lon="5.90902">
        <ele>1506.5</ele>
        <time>2021-02-20T15:00:43Z</time>
      </trkpt>
      <trkpt lat="45.16716" lon="5.90901">
        <ele>1506.5</ele>
        <time>2021-02-20T15:00:44Z</time>
      </trkpt>
      <trkpt lat="45.16717" lon="5.90901">
        <ele>1506.4</ele>
        <time>2021-02-20T15:00:45Z</time>
      </trkpt>
      <trkpt lat="45.16718" lon="5.909">
        <ele>1506.3</ele>
        <time>2021-02-20T15:00:46Z</time>
      </trkpt>
      <trkpt lat="45.16719" lon="5.909">
        <ele>1506.1</ele>
        <time>2021-02-20T15:00:47Z</time>
      </trkpt>
      <trkpt lat="45.1672" lon="5.909">
        <ele>1506</ele>
        <time>2021-02-20T15:00:48Z</time>
      </trkpt>
      <trkpt lat="45.16721" lon="5.909">
        <ele>1505.8</ele>
        <time>2021-02-20T15:00:49Z</time>
      </trkpt>
      <trkpt lat="45.16722" lon="5.909">
        <ele>1505.7</ele>
        <time>2021-02-20T15:00:50Z</time>
      </trkpt>
      <trkpt lat="45.16723" lon="5.90901">
        <ele>1505.6</ele>
        <time>2021-02-20T15:00:51Z</time>
      </trkpt>
      <trkpt lat="45.16724" lon="5.90901">
        <ele>1505.4</ele>
        <time>2021-02-20T15:00:52Z</time>
      </trkpt>
      <trkpt lat="45.16725" lon="5.90902">
        <ele>1505.3</ele>
        <time>2021-02-20T15:00:53Z</time>
      </trkpt>
      <trkpt lat="45.16726" lon="5.90902">
        <ele>1505.1</ele>
        <time>2021-02-20T15:00:54Z</time>
      </trkpt>
      <trkpt lat="45.16727" lon="5.90903">
        <ele>1505</ele>
        <time>2021-02-20T15:00:55Z</time>
      </trkpt>
      <trkpt lat="45.16728" lon="5.90903">
        <ele>1504.9</ele>
        <time>2021-02-20T15:00:56Z</time>
      </trkpt>
      <trkpt lat="45.16729" lon="5.90904">
        <ele>1504.8</ele>
        <time>2021-02-20T15:00:57Z</time>
      </trkpt>
      <trkpt lat="45.1673" lon="5.90904">
        <ele>1504.7</ele>
        <time>2021-02-20T15:00:58Z</time>
      </trkpt>
      <trkpt lat="45.16731" lon="5.90905">
        <ele>1504.6</ele>
        <time>2021-02-20T15:00:59Z</time>
      </trkpt>
      <trkpt lat="45.16732" lon="5.90906">
        <ele>1504.5</ele>
        <time>2021-02-20T15:01:00Z</time>
      </trkpt>
      <trkpt lat="45.16733" lon="5.90907">
        <ele>1504.4</ele>
        <time>2021-02-20T15:01:01Z</time>
      </trkpt>
      <trkpt lat="45.16733" lon="5.90908">
        <ele>1504.3</ele>
        <time>2021-02-20T15:01:02Z</time>
      </trkpt>
      <trkpt lat="45.16734" lon="5.90908">
        <ele>1504.2</ele>
        <time>2021-02-20T15:01:03Z</time>
      </trkpt>
      <trkpt lat="45.16734" lon="5.90909">
        <ele>1504.2</ele>
        <time>2021-02-20T15:01:04Z</time>
      </trkpt>
      <trkpt lat="45.16735" lon="5.9091">
        <ele>1504.1</ele>
        <time>2021-02-20T15:01:05Z</time>
      </trkpt>
      <trkpt lat="45.16735" lon="5.90911">
        <ele>1504</ele>
        <time>2021-02-20T15:01:06Z</time>
      </trkpt>
      <trkpt lat="45.16735" lon="5.90913">
        <ele>1504</ele>
        <time>2021-02-20T15:01:07Z</time>
      </trkpt>
      <trkpt lat="45.16736" lon="5.90914">
        <ele>1503.9</ele>
        <time>2021-02-20T15:01:08Z</time>
      </trkpt>
      <trkpt lat="45.16736" lon="5.90914">
        <ele>1503.9</ele>
        <time>2021-02-20T15:01:09Z</time>
      </trkpt>
      <trkpt lat="45.16737" lon="5.90915">
        <ele>1503.8</ele>
        <time>2021-02-20T15:01:10Z</time>
      </trkpt>
      <trkpt lat="45.16738" lon="5.90915">
        <ele>1503.7</ele>
        <time>2021-02-20T15:01:11Z</time>
      </trkpt>
      <trkpt lat="45.16739" lon="5.90915">
        <ele>1503.7</ele>
        <time>2021-02-20T15:01:12Z</time>
      </trkpt>
      <trkpt lat="45.1674" lon="5.90915">
        <ele>1503.6</ele>
        <time>2021-02-20T15:01:13Z</time>
      </trkpt>
      <trkpt lat="45.16741" lon="5.90916">
        <ele>1503.6</ele>
        <time>2021-02-20T15:01:14Z</time>
      </trkpt>
      <trkpt lat="45.16742" lon="5.90916">
        <ele>1503.6</ele>
        <time>2021-02-20T15:01:15Z</time>
      </trkpt>
      <trkpt lat="45.16743" lon="5.90916">
        <ele>1503.5</ele>
        <time>2021-02-20T15:01:16Z</time>
      </trkpt>
      <trkpt lat="45.16744" lon="5.90916">
        <ele>1503.5</ele>
        <time>2021-02-20T15:01:17Z</time>
      </trkpt>
      <trkpt lat="45.16746" lon="5.90916">
        <ele>1503.4</ele>
        <time>2021-02-20T15:01:18Z</time>
      </trkpt>
      <trkpt lat="45.16747" lon="5.90916">
        <ele>1503.4</ele>
        <time>2021-02-20T15:01:19Z</time>
      </trkpt>
      <trkpt lat="45.16747" lon="5.90917">
        <ele>1503.4</ele>
        <time>2021-02-20T15:01:20Z</time>
      </trkpt>
      <trkpt lat="45.16747" lon="5.90917">
        <ele>1503.4</ele>
        <time>2021-02-20T15:01:21Z</time>
      </trkpt>
      <trkpt lat="45.16748" lon="5.90918">
        <ele>1503.4</ele>
        <time>2021-02-20T15:01:22Z</time>
      </trkpt>
      <trkpt lat="45.16748" lon="5.90919">
        <ele>1503.4</ele>
        <time>2021-02-20T15:01:23Z</time>
      </trkpt>
      <trkpt lat="45.16749" lon="5.9092">
        <ele>1503.4</ele>
        <time>2021-02-20T15:01:24Z</time>
      </trkpt>
      <trkpt lat="45.16749" lon="5.90921">
        <ele>1503.4</ele>
        <time>2021-02-20T15:01:25Z</time>
      </trkpt>
      <trkpt lat="45.16749" lon="5.90922">
        <ele>1503.4</ele>
        <time>2021-02-20T15:01:26Z</time>
      </trkpt>
      <trkpt lat="45.1675" lon="5.90923">
        <ele>1503.4</ele>
        <time>2021-02-20T15:01:27Z</time>
      </trkpt>
      <trkpt lat="45.1675" lon="5.90924">
        <ele>1503.4</ele>
        <time>2021-02-20T15:01:28Z</time>
      </trkpt>
      <trkpt lat="45.16751" lon="5.90925">
        <ele>1503.4</ele>
        <time>2021-02-20T15:01:29Z</time>
      </trkpt>
      <trkpt lat="45.16751" lon="5.90926">
        <ele>1503.4</ele>
        <time>2021-02-20T15:01:30Z</time>
      </trkpt>
      <trkpt lat="45.16752" lon="5.90927">
        <ele>1503.4</ele>
        <time>2021-02-20T15:01:31Z</time>
      </trkpt>
      <trkpt lat="45.16752" lon="5.90928">
        <ele>1503.4</ele>
        <time>2021-02-20T15:01:32Z</time>
      </trkpt>
      <trkpt lat="45.16752" lon="5.90929">
        <ele>1503.4</ele>
        <time>2021-02-20T15:01:33Z</time>
      </trkpt>
      <trkpt lat="45.16753" lon="5.9093">
        <ele>1503.4</ele>
        <time>2021-02-20T15:01:34Z</time>
      </trkpt>
      <trkpt lat="45.16753" lon="5.90932">
        <ele>1503.5</ele>
        <time>2021-02-20T15:01:35Z</time>
      </trkpt>
      <trkpt lat="45.16753" lon="5.90932">
        <ele>1503.5</ele>
        <time>2021-02-20T15:01:36Z</time>
      </trkpt>
      <trkpt lat="45.16753" lon="5.90933">
        <ele>1503.5</ele>
        <time>2021-02-20T15:01:37Z</time>
      </trkpt>
      <trkpt lat="45.16754" lon="5.90934">
        <ele>1503.5</ele>
        <time>2021-02-20T15:01:38Z</time>
      </trkpt>
      <trkpt lat="45.16754" lon="5.90935">
        <ele>1503.5</ele>
        <time>2021-02-20T15:01:39Z</time>
      </trkpt>
      <trkpt lat="45.16755" lon="5.90936">
        <ele>1503.6</ele>
        <time>2021-02-20T15:01:40Z</time>
      </trkpt>
      <trkpt lat="45.16756" lon="5.90937">
        <ele>1503.6</ele>
        <time>2021-02-20T15:01:41Z</time>
      </trkpt>
      <trkpt lat="45.16756" lon="5.90938">
        <ele>1503.6</ele>
        <time>2021-02-20T15:01:42Z</time>
      </trkpt>
      <trkpt lat="45.16756" lon="5.90938">
        <ele>1503.6</ele>
        <time>2021-02-20T15:01:43Z</time>
      </trkpt>
      <trkpt lat="45.16756" lon="5.90939">
        <ele>1503.7</ele>
        <time>2021-02-20T15:01:44Z</time>
      </trkpt>
      <trkpt lat="45.16757" lon="5.90939">
        <ele>1503.7</ele>
        <time>2021-02-20T15:01:45Z</time>
      </trkpt>
      <trkpt lat="45.16757" lon="5.9094">
        <ele>1503.7</ele>
        <time>2021-02-20T15:01:46Z</time>
      </trkpt>
      <trkpt lat="45.16757" lon="5.90941">
        <ele>1503.7</ele>
        <time>2021-02-20T15:01:47Z</time>
      </trkpt>
      <trkpt lat="45.16757" lon="5.90942">
        <ele>1503.8</ele>
        <time>2021-02-20T15:01:48Z</time>
      </trkpt>
      <trkpt lat="45.16757" lon="5.90943">
        <ele>1503.8</ele>
        <time>2021-02-20T15:01:49Z</time>
      </trkpt>
      <trkpt lat="45.16758" lon="5.90944">
        <ele>1503.8</ele>
        <time>2021-02-20T15:01:50Z</time>
      </trkpt>
      <trkpt lat="45.16758" lon="5.90945">
        <ele>1503.9</ele>
        <time>2021-02-20T15:01:51Z</time>
      </trkpt>
      <trkpt lat="45.16759" lon="5.90947">
        <ele>1503.9</ele>
        <time>2021-02-20T15:01:52Z</time>
      </trkpt>
      <trkpt lat="45.16759" lon="5.90947">
        <ele>1504</ele>
        <time>2021-02-20T15:01:53Z</time>
      </trkpt>
      <trkpt lat="45.1676" lon="5.90948">
        <ele>1504.1</ele>
        <time>2021-02-20T15:01:54Z</time>
      </trkpt>
      <trkpt lat="45.1676" lon="5.90949">
        <ele>1504.1</ele>
        <time>2021-02-20T15:01:55Z</time>
      </trkpt>
      <trkpt lat="45.16761" lon="5.9095">
        <ele>1504.2</ele>
        <time>2021-02-20T15:01:56Z</time>
      </trkpt>
      <trkpt lat="45.16762" lon="5.90952">
        <ele>1504.2</ele>
        <time>2021-02-20T15:01:57Z</time>
      </trkpt>
      <trkpt lat="45.16762" lon="5.90953">
        <ele>1504.3</ele>
        <time>2021-02-20T15:01:58Z</time>
      </trkpt>
      <trkpt lat="45.16762" lon="5.90954">
        <ele>1504.3</ele>
        <time>2021-02-20T15:01:59Z</time>
      </trkpt>
      <trkpt lat="45.16763" lon="5.90955">
        <ele>1504.4</ele>
        <time>2021-02-20T15:02:00Z</time>
      </trkpt>
      <trkpt lat="45.16764" lon="5.90956">
        <ele>1504.4</ele>
        <time>2021-02-20T15:02:01Z</time>
      </trkpt>
      <trkpt lat="45.16764" lon="5.90956">
        <ele>1504.5</ele>
        <time>2021-02-20T15:02:02Z</time>
      </trkpt>
      <trkpt lat="45.16764" lon="5.90957">
        <ele>1504.5</ele>
        <time>2021-02-20T15:02:03Z</time>
      </trkpt>
      <trkpt lat="45.16765" lon="5.90958">
        <ele>1504.6</ele>
        <time>2021-02-20T15:02:04Z</time>
      </trkpt>
      <trkpt lat="45.16766" lon="5.90959">
        <ele>1504.6</ele>
        <time>2021-02-20T15:02:05Z</time>
      </trkpt>
      <trkpt lat="45.16766" lon="5.90959">
        <ele>1504.7</ele>
        <time>2021-02-20T15:02:06Z</time>
      </trkpt>
      <trkpt lat="45.16767" lon="5.9096">
        <ele>1504.7</ele>
        <time>2021-02-20T15:02:07Z</time>
      </trkpt>
      <trkpt lat="45.16768" lon="5.90961">
        <ele>1504.8</ele>
        <time>2021-02-20T15:02:08Z</time>
      </trkpt>
      <trkpt lat="45.16768" lon="5.90962">
        <ele>1504.8</ele>
        <time>2021-02-20T15:02:09Z</time>
      </trkpt>
      <trkpt lat="45.16768" lon="5.90963">
        <ele>1504.9</ele>
        <time>2021-02-20T15:02:10Z</time>
      </trkpt>
      <trkpt lat="45.16769" lon="5.90964">
        <ele>1504.9</ele>
        <time>2021-02-20T15:02:11Z</time>
      </trkpt>
      <trkpt lat="45.16769" lon="5.90966">
        <ele>1505</ele>
        <time>2021-02-20T15:02:12Z</time>
      </trkpt>
      <trkpt lat="45.16769" lon="5.90967">
        <ele>1505</ele>
        <time>2021-02-20T15:02:13Z</time>
      </trkpt>
      <trkpt lat="45.16769" lon="5.90968">
        <ele>1505.1</ele>
        <time>2021-02-20T15:02:14Z</time>
      </trkpt>
      <trkpt lat="45.1677" lon="5.9097">
        <ele>1505.2</ele>
        <time>2021-02-20T15:02:15Z</time>
      </trkpt>
      <trkpt lat="45.1677" lon="5.9097">
        <ele>1505.2</ele>
        <time>2021-02-20T15:02:16Z</time>
      </trkpt>
      <trkpt lat="45.1677" lon="5.90971">
        <ele>1505.3</ele>
        <time>2021-02-20T15:02:17Z</time>
      </trkpt>
      <trkpt lat="45.16771" lon="5.90972">
        <ele>1505.3</ele>
        <time>2021-02-20T15:02:18Z</time>
      </trkpt>
      <trkpt lat="45.16771" lon="5.90973">
        <ele>1505.4</ele>
        <time>2021-02-20T15:02:19Z</time>
      </trkpt>
      <trkpt lat="45.16772" lon="5.90974">
        <ele>1505.5</ele>
        <time>2021-02-20T15:02:20Z</time>
      </trkpt>
      <trkpt lat="45.16773" lon="5.90974">
        <ele>1505.5</ele>
        <time>2021-02-20T15:02:21Z</time>
      </trkpt>
      <trkpt lat="45.16773" lon="5.90975">
        <ele>1505.5</ele>
        <time>2021-02-20T15:02:22Z</time>
      </trkpt>
      <trkpt lat="45.16774" lon="5.90975">
        <ele>1505.6</ele>
        <time>2021-02-20T15:02:23Z</time>
      </trkpt>
      <trkpt lat="45.16774" lon="5.90977">
        <ele>1505.7</ele>
        <time>2021-02-20T15:02:24Z</time>
      </trkpt>
      <trkpt lat="45.16774" lon="5.90978">
        <ele>1505.8</ele>
        <time>2021-02-20T15:02:25Z</time>
      </trkpt>
      <trkpt lat="45.16774" lon="5.90979">
        <ele>1505.8</ele>
        <time>2021-02-20T15:02:26Z</time>
      </trkpt>
      <trkpt lat="45.16774" lon="5.9098">
        <ele>1505.9</ele>
        <time>2021-02-20T15:02:27Z</time>
      </trkpt>
      <trkpt lat="45.16774" lon="5.90981">
        <ele>1505.9</ele>
        <time>2021-02-20T15:02:28Z</time>
      </trkpt>
      <trkpt lat="45.16774" lon="5.90982">
        <ele>1506</ele>
        <time>2021-02-20T15:02:29Z</time>
      </trkpt>
      <trkpt lat="45.16774" lon="5.90982">
        <ele>1506</ele>
        <time>2021-02-20T15:02:30Z</time>
      </trkpt>
      <trkpt lat="45.16774" lon="5.90983">
        <ele>1506.1</ele>
        <time>2021-02-20T15:02:31Z</time>
      </trkpt>
      <trkpt lat="45.16775" lon="5.90983">
        <ele>1506.1</ele>
        <time>2021-02-20T15:02:32Z</time>
      </trkpt>
      <trkpt lat="45.16776" lon="5.90983">
        <ele>1506.2</ele>
        <time>2021-02-20T15:02:33Z</time>
      </trkpt>
      <trkpt lat="45.16777" lon="5.90984">
        <ele>1506.3</ele>
        <time>2021-02-20T15:02:34Z</time>
      </trkpt>
      <trkpt lat="45.16779" lon="5.90985">
        <ele>1506.5</ele>
        <time>2021-02-20T15:02:35Z</time>
      </trkpt>
      <trkpt lat="45.16779" lon="5.90986">
        <ele>1506.6</ele>
        <time>2021-02-20T15:02:36Z</time>
      </trkpt>
      <trkpt lat="45.1678" lon="5.90986">
        <ele>1506.7</ele>
        <time>2021-02-20T15:02:37Z</time>
      </trkpt>
      <trkpt lat="45.16782" lon="5.90987">
        <ele>1506.8</ele>
        <time>2021-02-20T15:02:38Z</time>
      </trkpt>
      <trkpt lat="45.16783" lon="5.90987">
        <ele>1506.9</ele>
        <time>2021-02-20T15:02:39Z</time>
      </trkpt>
      <trkpt lat="45.16784" lon="5.90988">
        <ele>1507</ele>
        <time>2021-02-20T15:02:40Z</time>
      </trkpt>
      <trkpt lat="45.16784" lon="5.90989">
        <ele>1507.1</ele>
        <time>2021-02-20T15:02:41Z</time>
      </trkpt>
      <trkpt lat="45.16784" lon="5.9099">
        <ele>1507.2</ele>
        <time>2021-02-20T15:02:42Z</time>
      </trkpt>
      <trkpt lat="45.16784" lon="5.90992">
        <ele>1507.3</ele>
        <time>2021-02-20T15:02:43Z</time>
      </trkpt>
      <trkpt lat="45.16784" lon="5.90992">
        <ele>1507.3</ele>
        <time>2021-02-20T15:02:44Z</time>
      </trkpt>
      <trkpt lat="45.16784" lon="5.90992">
        <ele>1507.3</ele>
        <time>2021-02-20T15:02:45Z</time>
      </trkpt>
      <trkpt lat="45.16784" lon="5.90992">
        <ele>1507.3</ele>
        <time>2021-02-20T15:02:46Z</time>
      </trkpt>
      <trkpt lat="45.16784" lon="5.90992">
        <ele>1507.4</ele>
        <time>2021-02-20T15:02:47Z</time>
      </trkpt>
      <trkpt lat="45.16785" lon="5.90992">
        <ele>1507.4</ele>
        <time>2021-02-20T15:02:48Z</time>
      </trkpt>
      <trkpt lat="45.16785" lon="5.90993">
        <ele>1507.5</ele>
        <time>2021-02-20T15:02:49Z</time>
      </trkpt>
      <trkpt lat="45.16786" lon="5.90994">
        <ele>1507.6</ele>
        <time>2021-02-20T15:02:50Z</time>
      </trkpt>
      <trkpt lat="45.16786" lon="5.90995">
        <ele>1507.6</ele>
        <time>2021-02-20T15:02:51Z</time>
      </trkpt>
      <trkpt lat="45.16787" lon="5.90996">
        <ele>1507.7</ele>
        <time>2021-02-20T15:02:52Z</time>
      </trkpt>
      <trkpt lat="45.16788" lon="5.90996">
        <ele>1507.8</ele>
        <time>2021-02-20T15:02:53Z</time>
      </trkpt>
      <trkpt lat="45.16788" lon="5.90997">
        <ele>1507.9</ele>
        <time>2021-02-20T15:02:54Z</time>
      </trkpt>
      <trkpt lat="45.16789" lon="5.90998">
        <ele>1508</ele>
        <time>2021-02-20T15:02:55Z</time>
      </trkpt>
      <trkpt lat="45.16789" lon="5.90999">
        <ele>1508</ele>
        <time>2021-02-20T15:02:56Z</time>
      </trkpt>
      <trkpt lat="45.1679" lon="5.91">
        <ele>1508.1</ele>
        <time>2021-02-20T15:02:57Z</time>
      </trkpt>
      <trkpt lat="45.1679" lon="5.91001">
        <ele>1508.2</ele>
        <time>2021-02-20T15:02:58Z</time>
      </trkpt>
      <trkpt lat="45.16791" lon="5.91002">
        <ele>1508.3</ele>
        <time>2021-02-20T15:02:59Z</time>
      </trkpt>
      <trkpt lat="45.16791" lon="5.91004">
        <ele>1508.4</ele>
        <time>2021-02-20T15:03:00Z</time>
      </trkpt>
      <trkpt lat="45.16791" lon="5.91004">
        <ele>1508.4</ele>
        <time>2021-02-20T15:03:01Z</time>
      </trkpt>
      <trkpt lat="45.16791" lon="5.91005">
        <ele>1508.5</ele>
        <time>2021-02-20T15:03:02Z</time>
      </trkpt>
      <trkpt lat="45.16792" lon="5.91006">
        <ele>1508.6</ele>
        <time>2021-02-20T15:03:03Z</time>
      </trkpt>
      <trkpt lat="45.16792" lon="5.91007">
        <ele>1508.7</ele>
        <time>2021-02-20T15:03:04Z</time>
      </trkpt>
      <trkpt lat="45.16793" lon="5.91008">
        <ele>1508.7</ele>
        <time>2021-02-20T15:03:05Z</time>
      </trkpt>
      <trkpt lat="45.16793" lon="5.91009">
        <ele>1508.8</ele>
        <time>2021-02-20T15:03:06Z</time>
      </trkpt>
      <trkpt lat="45.16793" lon="5.9101">
        <ele>1508.8</ele>
        <time>2021-02-20T15:03:07Z</time>
      </trkpt>
      <trkpt lat="45.16794" lon="5.9101">
        <ele>1508.9</ele>
        <time>2021-02-20T15:03:08Z</time>
      </trkpt>
      <trkpt lat="45.16794" lon="5.9101">
        <ele>1508.9</ele>
        <time>2021-02-20T15:03:09Z</time>
      </trkpt>
      <trkpt lat="45.16794" lon="5.9101">
        <ele>1508.9</ele>
        <time>2021-02-20T15:03:10Z</time>
      </trkpt>
      <trkpt lat="45.16795" lon="5.9101">
        <ele>1509</ele>
        <time>2021-02-20T15:03:11Z</time>
      </trkpt>
      <trkpt lat="45.16795" lon="5.9101">
        <ele>1509</ele>
        <time>2021-02-20T15:03:12Z</time>
      </trkpt>
      <trkpt lat="45.16795" lon="5.91011">
        <ele>1509</ele>
        <time>2021-02-20T15:03:13Z</time>
      </trkpt>
      <trkpt lat="45.16796" lon="5.91011">
        <ele>1509.1</ele>
        <time>2021-02-20T15:03:14Z</time>
      </trkpt>
      <trkpt lat="45.16797" lon="5.91012">
        <ele>1509.2</ele>
        <time>2021-02-20T15:03:15Z</time>
      </trkpt>
      <trkpt lat="45.16797" lon="5.91013">
        <ele>1509.2</ele>
        <time>2021-02-20T15:03:16Z</time>
      </trkpt>
      <trkpt lat="45.16798" lon="5.91013">
        <ele>1509.3</ele>
        <time>2021-02-20T15:03:17Z</time>
      </trkpt>
      <trkpt lat="45.16798" lon="5.91014">
        <ele>1509.3</ele>
        <time>2021-02-20T15:03:20Z</time>
      </trkpt>
      <trkpt lat="45.16799" lon="5.91014">
        <ele>1509.4</ele>
        <time>2021-02-20T15:03:21Z</time>
      </trkpt>
      <trkpt lat="45.16799" lon="5.91015">
        <ele>1509.4</ele>
        <time>2021-02-20T15:03:22Z</time>
      </trkpt>
      <trkpt lat="45.168" lon="5.91016">
        <ele>1509.4</ele>
        <time>2021-02-20T15:03:23Z</time>
      </trkpt>
      <trkpt lat="45.168" lon="5.91016">
        <ele>1509.5</ele>
        <time>2021-02-20T15:03:24Z</time>
      </trkpt>
      <trkpt lat="45.16801" lon="5.91017">
        <ele>1509.5</ele>
        <time>2021-02-20T15:03:25Z</time>
      </trkpt>
      <trkpt lat="45.16802" lon="5.91017">
        <ele>1509.6</ele>
        <time>2021-02-20T15:03:26Z</time>
      </trkpt>
      <trkpt lat="45.16803" lon="5.91019">
        <ele>1509.6</ele>
        <time>2021-02-20T15:03:27Z</time>
      </trkpt>
      <trkpt lat="45.16803" lon="5.9102">
        <ele>1509.7</ele>
        <time>2021-02-20T15:03:28Z</time>
      </trkpt>
      <trkpt lat="45.16804" lon="5.91021">
        <ele>1509.7</ele>
        <time>2021-02-20T15:03:29Z</time>
      </trkpt>
      <trkpt lat="45.16805" lon="5.91022">
        <ele>1509.8</ele>
        <time>2021-02-20T15:03:30Z</time>
      </trkpt>
      <trkpt lat="45.16806" lon="5.91023">
        <ele>1509.8</ele>
        <time>2021-02-20T15:03:31Z</time>
      </trkpt>
      <trkpt lat="45.16806" lon="5.91024">
        <ele>1509.9</ele>
        <time>2021-02-20T15:03:32Z</time>
      </trkpt>
      <trkpt lat="45.16807" lon="5.91026">
        <ele>1509.9</ele>
        <time>2021-02-20T15:03:33Z</time>
      </trkpt>
      <trkpt lat="45.16808" lon="5.91027">
        <ele>1510</ele>
        <time>2021-02-20T15:03:34Z</time>
      </trkpt>
      <trkpt lat="45.16808" lon="5.91028">
        <ele>1510</ele>
        <time>2021-02-20T15:03:35Z</time>
      </trkpt>
      <trkpt lat="45.16809" lon="5.91029">
        <ele>1510</ele>
        <time>2021-02-20T15:03:36Z</time>
      </trkpt>
      <trkpt lat="45.16809" lon="5.9103">
        <ele>1510.1</ele>
        <time>2021-02-20T15:03:37Z</time>
      </trkpt>
      <trkpt lat="45.1681" lon="5.91031">
        <ele>1510.1</ele>
        <time>2021-02-20T15:03:38Z</time>
      </trkpt>
      <trkpt lat="45.16811" lon="5.91032">
        <ele>1510.1</ele>
        <time>2021-02-20T15:03:39Z</time>
      </trkpt>
      <trkpt lat="45.16812" lon="5.91033">
        <ele>1510.2</ele>
        <time>2021-02-20T15:03:40Z</time>
      </trkpt>
      <trkpt lat="45.16812" lon="5.91034">
        <ele>1510.2</ele>
        <time>2021-02-20T15:03:41Z</time>
      </trkpt>
      <trkpt lat="45.16813" lon="5.91036">
        <ele>1510.3</ele>
        <time>2021-02-20T15:03:42Z</time>
      </trkpt>
      <trkpt lat="45.16813" lon="5.91037">
        <ele>1510.3</ele>
        <time>2021-02-20T15:03:43Z</time>
      </trkpt>
      <trkpt lat="45.16813" lon="5.91037">
        <ele>1510.3</ele>
        <time>2021-02-20T15:03:44Z</time>
      </trkpt>
      <trkpt lat="45.16814" lon="5.91038">
        <ele>1510.3</ele>
        <time>2021-02-20T15:03:45Z</time>
      </trkpt>
      <trkpt lat="45.16815" lon="5.91039">
        <ele>1510.4</ele>
        <time>2021-02-20T15:03:46Z</time>
      </trkpt>
      <trkpt lat="45.16815" lon="5.91039">
        <ele>1510.4</ele>
        <time>2021-02-20T15:03:47Z</time>
      </trkpt>
      <trkpt lat="45.16816" lon="5.9104">
        <ele>1510.4</ele>
        <time>2021-02-20T15:03:48Z</time>
      </trkpt>
      <trkpt lat="45.16816" lon="5.9104">
        <ele>1510.4</ele>
        <time>2021-02-20T15:03:49Z</time>
      </trkpt>
      <trkpt lat="45.16817" lon="5.91041">
        <ele>1510.5</ele>
        <time>2021-02-20T15:03:50Z</time>
      </trkpt>
      <trkpt lat="45.16818" lon="5.91041">
        <ele>1510.5</ele>
        <time>2021-02-20T15:03:51Z</time>
      </trkpt>
      <trkpt lat="45.16818" lon="5.91041">
        <ele>1510.5</ele>
        <time>2021-02-20T15:03:52Z</time>
      </trkpt>
      <trkpt lat="45.16819" lon="5.91043">
        <ele>1510.6</ele>
        <time>2021-02-20T15:03:53Z</time>
      </trkpt>
      <trkpt lat="45.1682" lon="5.91043">
        <ele>1510.6</ele>
        <time>2021-02-20T15:03:54Z</time>
      </trkpt>
      <trkpt lat="45.16821" lon="5.91044">
        <ele>1510.6</ele>
        <time>2021-02-20T15:03:55Z</time>
      </trkpt>
      <trkpt lat="45.16822" lon="5.91044">
        <ele>1510.6</ele>
        <time>2021-02-20T15:03:56Z</time>
      </trkpt>
      <trkpt lat="45.16822" lon="5.91044">
        <ele>1510.7</ele>
        <time>2021-02-20T15:03:57Z</time>
      </trkpt>
      <trkpt lat="45.16823" lon="5.91044">
        <ele>1510.7</ele>
        <time>2021-02-20T15:03:58Z</time>
      </trkpt>
      <trkpt lat="45.16824" lon="5.91043">
        <ele>1510.7</ele>
        <time>2021-02-20T15:03:59Z</time>
      </trkpt>
      <trkpt lat="45.16824" lon="5.91043">
        <ele>1510.8</ele>
        <time>2021-02-20T15:04:00Z</time>
      </trkpt>
      <trkpt lat="45.16826" lon="5.91043">
        <ele>1510.8</ele>
        <time>2021-02-20T15:04:01Z</time>
      </trkpt>
      <trkpt lat="45.16826" lon="5.91043">
        <ele>1510.8</ele>
        <time>2021-02-20T15:04:02Z</time>
      </trkpt>
      <trkpt lat="45.16827" lon="5.91044">
        <ele>1510.9</ele>
        <time>2021-02-20T15:04:03Z</time>
      </trkpt>
      <trkpt lat="45.16828" lon="5.91044">
        <ele>1510.9</ele>
        <time>2021-02-20T15:04:04Z</time>
      </trkpt>
      <trkpt lat="45.16829" lon="5.91045">
        <ele>1510.9</ele>
        <time>2021-02-20T15:04:05Z</time>
      </trkpt>
      <trkpt lat="45.16829" lon="5.91046">
        <ele>1511</ele>
        <time>2021-02-20T15:04:06Z</time>
      </trkpt>
      <trkpt lat="45.16829" lon="5.91047">
        <ele>1511</ele>
        <time>2021-02-20T15:04:07Z</time>
      </trkpt>
      <trkpt lat="45.1683" lon="5.91048">
        <ele>1511</ele>
        <time>2021-02-20T15:04:08Z</time>
      </trkpt>
      <trkpt lat="45.1683" lon="5.91048">
        <ele>1511.1</ele>
        <time>2021-02-20T15:04:09Z</time>
      </trkpt>
      <trkpt lat="45.1683" lon="5.91049">
        <ele>1511.1</ele>
        <time>2021-02-20T15:04:10Z</time>
      </trkpt>
      <trkpt lat="45.16831" lon="5.9105">
        <ele>1511.1</ele>
        <time>2021-02-20T15:04:11Z</time>
      </trkpt>
      <trkpt lat="45.16831" lon="5.91051">
        <ele>1511.1</ele>
        <time>2021-02-20T15:04:12Z</time>
      </trkpt>
      <trkpt lat="45.16831" lon="5.91051">
        <ele>1511.2</ele>
        <time>2021-02-20T15:04:13Z</time>
      </trkpt>
      <trkpt lat="45.16832" lon="5.91052">
        <ele>1511.2</ele>
        <time>2021-02-20T15:04:14Z</time>
      </trkpt>
      <trkpt lat="45.16832" lon="5.91053">
        <ele>1511.2</ele>
        <time>2021-02-20T15:04:15Z</time>
      </trkpt>
      <trkpt lat="45.16833" lon="5.91055">
        <ele>1511.3</ele>
        <time>2021-02-20T15:04:16Z</time>
      </trkpt>
      <trkpt lat="45.16833" lon="5.91055">
        <ele>1511.3</ele>
        <time>2021-02-20T15:04:17Z</time>
      </trkpt>
      <trkpt lat="45.16834" lon="5.91056">
        <ele>1511.3</ele>
        <time>2021-02-20T15:04:18Z</time>
      </trkpt>
      <trkpt lat="45.16834" lon="5.91058">
        <ele>1511.4</ele>
        <time>2021-02-20T15:04:19Z</time>
      </trkpt>
      <trkpt lat="45.16834" lon="5.91058">
        <ele>1511.4</ele>
        <time>2021-02-20T15:04:20Z</time>
      </trkpt>
      <trkpt lat="45.16835" lon="5.91059">
        <ele>1511.4</ele>
        <time>2021-02-20T15:04:21Z</time>
      </trkpt>
      <trkpt lat="45.16835" lon="5.9106">
        <ele>1511.5</ele>
        <time>2021-02-20T15:04:22Z</time>
      </trkpt>
      <trkpt lat="45.16835" lon="5.91061">
        <ele>1511.5</ele>
        <time>2021-02-20T15:04:23Z</time>
      </trkpt>
      <trkpt lat="45.16836" lon="5.91062">
        <ele>1511.5</ele>
        <time>2021-02-20T15:04:24Z</time>
      </trkpt>
      <trkpt lat="45.16837" lon="5.91063">
        <ele>1511.6</ele>
        <time>2021-02-20T15:04:25Z</time>
      </trkpt>
      <trkpt lat="45.16838" lon="5.91064">
        <ele>1511.6</ele>
        <time>2021-02-20T15:04:26Z</time>
      </trkpt>
      <trkpt lat="45.16839" lon="5.91064">
        <ele>1511.6</ele>
        <time>2021-02-20T15:04:27Z</time>
      </trkpt>
      <trkpt lat="45.16839" lon="5.91065">
        <ele>1511.6</ele>
        <time>2021-02-20T15:04:28Z</time>
      </trkpt>
      <trkpt lat="45.1684" lon="5.91065">
        <ele>1511.6</ele>
        <time>2021-02-20T15:04:29Z</time>
      </trkpt>
      <trkpt lat="45.16841" lon="5.91066">
        <ele>1511.7</ele>
        <time>2021-02-20T15:04:30Z</time>
      </trkpt>
      <trkpt lat="45.16842" lon="5.91067">
        <ele>1511.7</ele>
        <time>2021-02-20T15:04:31Z</time>
      </trkpt>
      <trkpt lat="45.16843" lon="5.91068">
        <ele>1511.7</ele>
        <time>2021-02-20T15:04:32Z</time>
      </trkpt>
      <trkpt lat="45.16843" lon="5.91069">
        <ele>1511.7</ele>
        <time>2021-02-20T15:04:33Z</time>
      </trkpt>
      <trkpt lat="45.16844" lon="5.91069">
        <ele>1511.7</ele>
        <time>2021-02-20T15:04:34Z</time>
      </trkpt>
      <trkpt lat="45.16845" lon="5.9107">
        <ele>1511.7</ele>
        <time>2021-02-20T15:04:35Z</time>
      </trkpt>
      <trkpt lat="45.16845" lon="5.9107">
        <ele>1511.7</ele>
        <time>2021-02-20T15:04:36Z</time>
      </trkpt>
      <trkpt lat="45.16845" lon="5.91071">
        <ele>1511.7</ele>
        <time>2021-02-20T15:04:37Z</time>
      </trkpt>
      <trkpt lat="45.16846" lon="5.91072">
        <ele>1511.7</ele>
        <time>2021-02-20T15:04:38Z</time>
      </trkpt>
      <trkpt lat="45.16847" lon="5.91073">
        <ele>1511.7</ele>
        <time>2021-02-20T15:04:39Z</time>
      </trkpt>
      <trkpt lat="45.16848" lon="5.91073">
        <ele>1511.6</ele>
        <time>2021-02-20T15:04:40Z</time>
      </trkpt>
      <trkpt lat="45.16849" lon="5.91074">
        <ele>1511.6</ele>
        <time>2021-02-20T15:04:41Z</time>
      </trkpt>
      <trkpt lat="45.1685" lon="5.91074">
        <ele>1511.6</ele>
        <time>2021-02-20T15:04:42Z</time>
      </trkpt>
      <trkpt lat="45.16851" lon="5.91074">
        <ele>1511.6</ele>
        <time>2021-02-20T15:04:43Z</time>
      </trkpt>
      <trkpt lat="45.16852" lon="5.91074">
        <ele>1511.5</ele>
        <time>2021-02-20T15:04:44Z</time>
      </trkpt>
      <trkpt lat="45.16853" lon="5.91074">
        <ele>1511.5</ele>
        <time>2021-02-20T15:04:45Z</time>
      </trkpt>
      <trkpt lat="45.16854" lon="5.91074">
        <ele>1511.5</ele>
        <time>2021-02-20T15:04:46Z</time>
      </trkpt>
      <trkpt lat="45.16855" lon="5.91075">
        <ele>1511.4</ele>
        <time>2021-02-20T15:04:47Z</time>
      </trkpt>
      <trkpt lat="45.16856" lon="5.91075">
        <ele>1511.4</ele>
        <time>2021-02-20T15:04:48Z</time>
      </trkpt>
      <trkpt lat="45.16857" lon="5.91075">
        <ele>1511.3</ele>
        <time>2021-02-20T15:04:49Z</time>
      </trkpt>
      <trkpt lat="45.16859" lon="5.91075">
        <ele>1511.2</ele>
        <time>2021-02-20T15:04:50Z</time>
      </trkpt>
      <trkpt lat="45.1686" lon="5.91074">
        <ele>1511.2</ele>
        <time>2021-02-20T15:04:51Z</time>
      </trkpt>
      <trkpt lat="45.16861" lon="5.91074">
        <ele>1511.1</ele>
        <time>2021-02-20T15:04:52Z</time>
      </trkpt>
      <trkpt lat="45.16862" lon="5.91074">
        <ele>1511.1</ele>
        <time>2021-02-20T15:04:53Z</time>
      </trkpt>
      <trkpt lat="45.16863" lon="5.91074">
        <ele>1511.1</ele>
        <time>2021-02-20T15:04:54Z</time>
      </trkpt>
      <trkpt lat="45.16864" lon="5.91075">
        <ele>1511</ele>
        <time>2021-02-20T15:04:55Z</time>
      </trkpt>
      <trkpt lat="45.16865" lon="5.91075">
        <ele>1511</ele>
        <time>2021-02-20T15:04:56Z</time>
      </trkpt>
      <trkpt lat="45.16866" lon="5.91075">
        <ele>1511</ele>
        <time>2021-02-20T15:04:57Z</time>
      </trkpt>
      <trkpt lat="45.16866" lon="5.91075">
        <ele>1511</ele>
        <time>2021-02-20T15:04:58Z</time>
      </trkpt>
      <trkpt lat="45.16867" lon="5.91075">
        <ele>1511</ele>
        <time>2021-02-20T15:04:59Z</time>
      </trkpt>
      <trkpt lat="45.16868" lon="5.91075">
        <ele>1510.9</ele>
        <time>2021-02-20T15:05:00Z</time>
      </trkpt>
      <trkpt lat="45.16869" lon="5.91075">
        <ele>1510.9</ele>
        <time>2021-02-20T15:05:01Z</time>
      </trkpt>
      <trkpt lat="45.1687" lon="5.91075">
        <ele>1510.9</ele>
        <time>2021-02-20T15:05:02Z</time>
      </trkpt>
      <trkpt lat="45.16871" lon="5.91074">
        <ele>1510.9</ele>
        <time>2021-02-20T15:05:03Z</time>
      </trkpt>
      <trkpt lat="45.16872" lon="5.91074">
        <ele>1510.9</ele>
        <time>2021-02-20T15:05:04Z</time>
      </trkpt>
      <trkpt lat="45.16873" lon="5.91073">
        <ele>1510.8</ele>
        <time>2021-02-20T15:05:05Z</time>
      </trkpt>
      <trkpt lat="45.16874" lon="5.91073">
        <ele>1510.8</ele>
        <time>2021-02-20T15:05:06Z</time>
      </trkpt>
      <trkpt lat="45.16875" lon="5.91072">
        <ele>1510.8</ele>
        <time>2021-02-20T15:05:07Z</time>
      </trkpt>
      <trkpt lat="45.16875" lon="5.91072">
        <ele>1510.8</ele>
        <time>2021-02-20T15:05:08Z</time>
      </trkpt>
      <trkpt lat="45.16876" lon="5.91072">
        <ele>1510.8</ele>
        <time>2021-02-20T15:05:09Z</time>
      </trkpt>
      <trkpt lat="45.16876" lon="5.91072">
        <ele>1510.8</ele>
        <time>2021-02-20T15:05:10Z</time>
      </trkpt>
      <trkpt lat="45.16877" lon="5.91072">
        <ele>1510.8</ele>
        <time>2021-02-20T15:05:11Z</time>
      </trkpt>
      <trkpt lat="45.16877" lon="5.91072">
        <ele>1510.8</ele>
        <time>2021-02-20T15:05:12Z</time>
      </trkpt>
      <trkpt lat="45.16878" lon="5.91071">
        <ele>1510.8</ele>
        <time>2021-02-20T15:05:13Z</time>
      </trkpt>
      <trkpt lat="45.16879" lon="5.91071">
        <ele>1510.8</ele>
        <time>2021-02-20T15:05:14Z</time>
      </trkpt>
      <trkpt lat="45.1688" lon="5.91071">
        <ele>1510.8</ele>
        <time>2021-02-20T15:05:15Z</time>
      </trkpt>
      <trkpt lat="45.16881" lon="5.91071">
        <ele>1510.8</ele>
        <time>2021-02-20T15:05:16Z</time>
      </trkpt>
      <trkpt lat="45.16882" lon="5.91072">
        <ele>1510.8</ele>
        <time>2021-02-20T15:05:17Z</time>
      </trkpt>
      <trkpt lat="45.16883" lon="5.91072">
        <ele>1510.9</ele>
        <time>2021-02-20T15:05:18Z</time>
      </trkpt>
      <trkpt lat="45.16885" lon="5.91071">
        <ele>1510.9</ele>
        <time>2021-02-20T15:05:19Z</time>
      </trkpt>
      <trkpt lat="45.16886" lon="5.91071">
        <ele>1510.9</ele>
        <time>2021-02-20T15:05:20Z</time>
      </trkpt>
      <trkpt lat="45.16887" lon="5.91071">
        <ele>1510.9</ele>
        <time>2021-02-20T15:05:21Z</time>
      </trkpt>
      <trkpt lat="45.16888" lon="5.91071">
        <ele>1510.9</ele>
        <time>2021-02-20T15:05:22Z</time>
      </trkpt>
      <trkpt lat="45.16889" lon="5.91071">
        <ele>1510.9</ele>
        <time>2021-02-20T15:05:23Z</time>
      </trkpt>
      <trkpt lat="45.1689" lon="5.91071">
        <ele>1510.9</ele>
        <time>2021-02-20T15:05:24Z</time>
      </trkpt>
      <trkpt lat="45.16891" lon="5.91071">
        <ele>1510.9</ele>
        <time>2021-02-20T15:05:25Z</time>
      </trkpt>
      <trkpt lat="45.16892" lon="5.91071">
        <ele>1510.9</ele>
        <time>2021-02-20T15:05:26Z</time>
      </trkpt>
      <trkpt lat="45.16893" lon="5.9107">
        <ele>1510.9</ele>
        <time>2021-02-20T15:05:27Z</time>
      </trkpt>
      <trkpt lat="45.16893" lon="5.9107">
        <ele>1510.9</ele>
        <time>2021-02-20T15:05:28Z</time>
      </trkpt>
      <trkpt lat="45.16894" lon="5.9107">
        <ele>1510.9</ele>
        <time>2021-02-20T15:05:29Z</time>
      </trkpt>
      <trkpt lat="45.16894" lon="5.9107">
        <ele>1510.9</ele>
        <time>2021-02-20T15:05:30Z</time>
      </trkpt>
      <trkpt lat="45.16895" lon="5.9107">
        <ele>1510.9</ele>
        <time>2021-02-20T15:05:31Z</time>
      </trkpt>
      <trkpt lat="45.16896" lon="5.9107">
        <ele>1510.9</ele>
        <time>2021-02-20T15:05:32Z</time>
      </trkpt>
      <trkpt lat="45.16897" lon="5.9107">
        <ele>1510.9</ele>
        <time>2021-02-20T15:05:33Z</time>
      </trkpt>
      <trkpt lat="45.16898" lon="5.9107">
        <ele>1510.9</ele>
        <time>2021-02-20T15:05:34Z</time>
      </trkpt>
      <trkpt lat="45.16899" lon="5.9107">
        <ele>1510.9</ele>
        <time>2021-02-20T15:05:35Z</time>
      </trkpt>
      <trkpt lat="45.16899" lon="5.91069">
        <ele>1510.9</ele>
        <time>2021-02-20T15:05:36Z</time>
      </trkpt>
      <trkpt lat="45.169" lon="5.91069">
        <ele>1510.9</ele>
        <time>2021-02-20T15:05:37Z</time>
      </trkpt>
      <trkpt lat="45.16901" lon="5.91069">
        <ele>1510.9</ele>
        <time>2021-02-20T15:05:38Z</time>
      </trkpt>
      <trkpt lat="45.16902" lon="5.9107">
        <ele>1510.9</ele>
        <time>2021-02-20T15:05:39Z</time>
      </trkpt>
      <trkpt lat="45.16903" lon="5.9107">
        <ele>1510.9</ele>
        <time>2021-02-20T15:05:40Z</time>
      </trkpt>
      <trkpt lat="45.16905" lon="5.91071">
        <ele>1510.9</ele>
        <time>2021-02-20T15:05:41Z</time>
      </trkpt>
      <trkpt lat="45.16906" lon="5.91071">
        <ele>1510.8</ele>
        <time>2021-02-20T15:05:42Z</time>
      </trkpt>
      <trkpt lat="45.16907" lon="5.91072">
        <ele>1510.8</ele>
        <time>2021-02-20T15:05:43Z</time>
      </trkpt>
      <trkpt lat="45.16908" lon="5.91072">
        <ele>1510.8</ele>
        <time>2021-02-20T15:05:44Z</time>
      </trkpt>
      <trkpt lat="45.16909" lon="5.91072">
        <ele>1510.7</ele>
        <time>2021-02-20T15:05:45Z</time>
      </trkpt>
      <trkpt lat="45.16909" lon="5.91072">
        <ele>1510.7</ele>
        <time>2021-02-20T15:05:46Z</time>
      </trkpt>
      <trkpt lat="45.1691" lon="5.91071">
        <ele>1510.7</ele>
        <time>2021-02-20T15:05:47Z</time>
      </trkpt>
      <trkpt lat="45.16911" lon="5.91071">
        <ele>1510.7</ele>
        <time>2021-02-20T15:05:48Z</time>
      </trkpt>
      <trkpt lat="45.16912" lon="5.91071">
        <ele>1510.6</ele>
        <time>2021-02-20T15:05:49Z</time>
      </trkpt>
      <trkpt lat="45.16913" lon="5.91071">
        <ele>1510.5</ele>
        <time>2021-02-20T15:05:50Z</time>
      </trkpt>
      <trkpt lat="45.16914" lon="5.91071">
        <ele>1510.5</ele>
        <time>2021-02-20T15:05:51Z</time>
      </trkpt>
      <trkpt lat="45.16915" lon="5.91071">
        <ele>1510.4</ele>
        <time>2021-02-20T15:05:52Z</time>
      </trkpt>
      <trkpt lat="45.16916" lon="5.91072">
        <ele>1510.4</ele>
        <time>2021-02-20T15:05:53Z</time>
      </trkpt>
      <trkpt lat="45.16917" lon="5.91072">
        <ele>1510.3</ele>
        <time>2021-02-20T15:05:54Z</time>
      </trkpt>
      <trkpt lat="45.16918" lon="5.91073">
        <ele>1510.3</ele>
        <time>2021-02-20T15:05:55Z</time>
      </trkpt>
      <trkpt lat="45.16919" lon="5.91074">
        <ele>1510.2</ele>
        <time>2021-02-20T15:05:56Z</time>
      </trkpt>
      <trkpt lat="45.1692" lon="5.91074">
        <ele>1510.1</ele>
        <time>2021-02-20T15:05:57Z</time>
      </trkpt>
      <trkpt lat="45.16921" lon="5.91074">
        <ele>1510</ele>
        <time>2021-02-20T15:05:58Z</time>
      </trkpt>
      <trkpt lat="45.16923" lon="5.91074">
        <ele>1509.9</ele>
        <time>2021-02-20T15:05:59Z</time>
      </trkpt>
      <trkpt lat="45.16924" lon="5.91075">
        <ele>1509.8</ele>
        <time>2021-02-20T15:06:00Z</time>
      </trkpt>
      <trkpt lat="45.16925" lon="5.91075">
        <ele>1509.8</ele>
        <time>2021-02-20T15:06:01Z</time>
      </trkpt>
      <trkpt lat="45.16926" lon="5.91075">
        <ele>1509.7</ele>
        <time>2021-02-20T15:06:02Z</time>
      </trkpt>
      <trkpt lat="45.16927" lon="5.91074">
        <ele>1509.6</ele>
        <time>2021-02-20T15:06:03Z</time>
      </trkpt>
      <trkpt lat="45.16928" lon="5.91074">
        <ele>1509.6</ele>
        <time>2021-02-20T15:06:04Z</time>
      </trkpt>
      <trkpt lat="45.16928" lon="5.91074">
        <ele>1509.5</ele>
        <time>2021-02-20T15:06:05Z</time>
      </trkpt>
      <trkpt lat="45.16929" lon="5.91075">
        <ele>1509.5</ele>
        <time>2021-02-20T15:06:06Z</time>
      </trkpt>
      <trkpt lat="45.16929" lon="5.91075">
        <ele>1509.5</ele>
        <time>2021-02-20T15:06:07Z</time>
      </trkpt>
      <trkpt lat="45.1693" lon="5.91075">
        <ele>1509.4</ele>
        <time>2021-02-20T15:06:08Z</time>
      </trkpt>
      <trkpt lat="45.16931" lon="5.91076">
        <ele>1509.4</ele>
        <time>2021-02-20T15:06:09Z</time>
      </trkpt>
      <trkpt lat="45.16931" lon="5.91076">
        <ele>1509.3</ele>
        <time>2021-02-20T15:06:10Z</time>
      </trkpt>
      <trkpt lat="45.16932" lon="5.91076">
        <ele>1509.3</ele>
        <time>2021-02-20T15:06:11Z</time>
      </trkpt>
      <trkpt lat="45.16933" lon="5.91076">
        <ele>1509.3</ele>
        <time>2021-02-20T15:06:12Z</time>
      </trkpt>
      <trkpt lat="45.16934" lon="5.91077">
        <ele>1509.2</ele>
        <time>2021-02-20T15:06:13Z</time>
      </trkpt>
      <trkpt lat="45.16935" lon="5.91077">
        <ele>1509.2</ele>
        <time>2021-02-20T15:06:14Z</time>
      </trkpt>
      <trkpt lat="45.16936" lon="5.91077">
        <ele>1509.1</ele>
        <time>2021-02-20T15:06:15Z</time>
      </trkpt>
      <trkpt lat="45.16937" lon="5.91077">
        <ele>1509.1</ele>
        <time>2021-02-20T15:06:16Z</time>
      </trkpt>
      <trkpt lat="45.16938" lon="5.91077">
        <ele>1509</ele>
        <time>2021-02-20T15:06:17Z</time>
      </trkpt>
      <trkpt lat="45.16938" lon="5.91077">
        <ele>1509</ele>
        <time>2021-02-20T15:06:18Z</time>
      </trkpt>
      <trkpt lat="45.16939" lon="5.91078">
        <ele>1508.9</ele>
        <time>2021-02-20T15:06:19Z</time>
      </trkpt>
      <trkpt lat="45.16939" lon="5.91078">
        <ele>1508.9</ele>
        <time>2021-02-20T15:06:20Z</time>
      </trkpt>
      <trkpt lat="45.1694" lon="5.91078">
        <ele>1508.9</ele>
        <time>2021-02-20T15:06:21Z</time>
      </trkpt>
      <trkpt lat="45.1694" lon="5.91078">
        <ele>1508.9</ele>
        <time>2021-02-20T15:06:22Z</time>
      </trkpt>
      <trkpt lat="45.16941" lon="5.91077">
        <ele>1508.8</ele>
        <time>2021-02-20T15:06:23Z</time>
      </trkpt>
      <trkpt lat="45.16942" lon="5.91076">
        <ele>1508.8</ele>
        <time>2021-02-20T15:06:24Z</time>
      </trkpt>
      <trkpt lat="45.16943" lon="5.91076">
        <ele>1508.7</ele>
        <time>2021-02-20T15:06:25Z</time>
      </trkpt>
      <trkpt lat="45.16944" lon="5.91076">
        <ele>1508.7</ele>
        <time>2021-02-20T15:06:26Z</time>
      </trkpt>
      <trkpt lat="45.16945" lon="5.91076">
        <ele>1508.6</ele>
        <time>2021-02-20T15:06:27Z</time>
      </trkpt>
      <trkpt lat="45.16946" lon="5.91077">
        <ele>1508.5</ele>
        <time>2021-02-20T15:06:28Z</time>
      </trkpt>
      <trkpt lat="45.16947" lon="5.91077">
        <ele>1508.4</ele>
        <time>2021-02-20T15:06:29Z</time>
      </trkpt>
      <trkpt lat="45.16948" lon="5.91077">
        <ele>1508.4</ele>
        <time>2021-02-20T15:06:30Z</time>
      </trkpt>
      <trkpt lat="45.16949" lon="5.91078">
        <ele>1508.3</ele>
        <time>2021-02-20T15:06:31Z</time>
      </trkpt>
      <trkpt lat="45.16949" lon="5.91078">
        <ele>1508.3</ele>
        <time>2021-02-20T15:06:32Z</time>
      </trkpt>
      <trkpt lat="45.1695" lon="5.91078">
        <ele>1508.2</ele>
        <time>2021-02-20T15:06:33Z</time>
      </trkpt>
      <trkpt lat="45.16951" lon="5.91078">
        <ele>1508.2</ele>
        <time>2021-02-20T15:06:34Z</time>
      </trkpt>
      <trkpt lat="45.16951" lon="5.91078">
        <ele>1508.1</ele>
        <time>2021-02-20T15:06:35Z</time>
      </trkpt>
      <trkpt lat="45.16952" lon="5.91078">
        <ele>1508</ele>
        <time>2021-02-20T15:06:36Z</time>
      </trkpt>
      <trkpt lat="45.16953" lon="5.91079">
        <ele>1507.9</ele>
        <time>2021-02-20T15:06:37Z</time>
      </trkpt>
      <trkpt lat="45.16954" lon="5.91079">
        <ele>1507.8</ele>
        <time>2021-02-20T15:06:38Z</time>
      </trkpt>
      <trkpt lat="45.16955" lon="5.91078">
        <ele>1507.7</ele>
        <time>2021-02-20T15:06:39Z</time>
      </trkpt>
      <trkpt lat="45.16957" lon="5.91078">
        <ele>1507.6</ele>
        <time>2021-02-20T15:06:40Z</time>
      </trkpt>
      <trkpt lat="45.16958" lon="5.91078">
        <ele>1507.5</ele>
        <time>2021-02-20T15:06:41Z</time>
      </trkpt>
      <trkpt lat="45.16958" lon="5.91078">
        <ele>1507.4</ele>
        <time>2021-02-20T15:06:42Z</time>
      </trkpt>
      <trkpt lat="45.16959" lon="5.91078">
        <ele>1507.3</ele>
        <time>2021-02-20T15:06:43Z</time>
      </trkpt>
      <trkpt lat="45.16959" lon="5.91077">
        <ele>1507.2</ele>
        <time>2021-02-20T15:06:44Z</time>
      </trkpt>
      <trkpt lat="45.16961" lon="5.91076">
        <ele>1507.1</ele>
        <time>2021-02-20T15:06:45Z</time>
      </trkpt>
      <trkpt lat="45.16962" lon="5.91075">
        <ele>1506.9</ele>
        <time>2021-02-20T15:06:46Z</time>
      </trkpt>
      <trkpt lat="45.16964" lon="5.91075">
        <ele>1506.7</ele>
        <time>2021-02-20T15:06:47Z</time>
      </trkpt>
      <trkpt lat="45.16966" lon="5.91074">
        <ele>1506.4</ele>
        <time>2021-02-20T15:06:48Z</time>
      </trkpt>
      <trkpt lat="45.16966" lon="5.91073">
        <ele>1506.3</ele>
        <time>2021-02-20T15:06:49Z</time>
      </trkpt>
      <trkpt lat="45.16967" lon="5.91073">
        <ele>1506.2</ele>
        <time>2021-02-20T15:06:50Z</time>
      </trkpt>
      <trkpt lat="45.16968" lon="5.91073">
        <ele>1506.1</ele>
        <time>2021-02-20T15:06:51Z</time>
      </trkpt>
      <trkpt lat="45.16969" lon="5.91073">
        <ele>1506</ele>
        <time>2021-02-20T15:06:52Z</time>
      </trkpt>
      <trkpt lat="45.16969" lon="5.91073">
        <ele>1505.9</ele>
        <time>2021-02-20T15:06:53Z</time>
      </trkpt>
      <trkpt lat="45.1697" lon="5.91073">
        <ele>1505.8</ele>
        <time>2021-02-20T15:06:54Z</time>
      </trkpt>
      <trkpt lat="45.16972" lon="5.91073">
        <ele>1505.6</ele>
        <time>2021-02-20T15:06:55Z</time>
      </trkpt>
      <trkpt lat="45.16973" lon="5.91074">
        <ele>1505.4</ele>
        <time>2021-02-20T15:06:56Z</time>
      </trkpt>
      <trkpt lat="45.16974" lon="5.91074">
        <ele>1505.3</ele>
        <time>2021-02-20T15:06:57Z</time>
      </trkpt>
      <trkpt lat="45.16975" lon="5.91074">
        <ele>1505.2</ele>
        <time>2021-02-20T15:06:58Z</time>
      </trkpt>
      <trkpt lat="45.16976" lon="5.91075">
        <ele>1505</ele>
        <time>2021-02-20T15:06:59Z</time>
      </trkpt>
      <trkpt lat="45.16978" lon="5.91075">
        <ele>1504.8</ele>
        <time>2021-02-20T15:07:00Z</time>
      </trkpt>
      <trkpt lat="45.16979" lon="5.91075">
        <ele>1504.6</ele>
        <time>2021-02-20T15:07:01Z</time>
      </trkpt>
      <trkpt lat="45.16979" lon="5.91076">
        <ele>1504.5</ele>
        <time>2021-02-20T15:07:02Z</time>
      </trkpt>
      <trkpt lat="45.1698" lon="5.91076">
        <ele>1504.4</ele>
        <time>2021-02-20T15:07:03Z</time>
      </trkpt>
      <trkpt lat="45.1698" lon="5.91077">
        <ele>1504.4</ele>
        <time>2021-02-20T15:07:04Z</time>
      </trkpt>
      <trkpt lat="45.16981" lon="5.91077">
        <ele>1504.3</ele>
        <time>2021-02-20T15:07:05Z</time>
      </trkpt>
      <trkpt lat="45.16981" lon="5.91077">
        <ele>1504.1</ele>
        <time>2021-02-20T15:07:06Z</time>
      </trkpt>
      <trkpt lat="45.16982" lon="5.91077">
        <ele>1504</ele>
        <time>2021-02-20T15:07:07Z</time>
      </trkpt>
      <trkpt lat="45.16984" lon="5.91076">
        <ele>1503.8</ele>
        <time>2021-02-20T15:07:08Z</time>
      </trkpt>
      <trkpt lat="45.16985" lon="5.91076">
        <ele>1503.6</ele>
        <time>2021-02-20T15:07:09Z</time>
      </trkpt>
      <trkpt lat="45.16986" lon="5.91076">
        <ele>1503.4</ele>
        <time>2021-02-20T15:07:10Z</time>
      </trkpt>
      <trkpt lat="45.16987" lon="5.91075">
        <ele>1503.2</ele>
        <time>2021-02-20T15:07:11Z</time>
      </trkpt>
      <trkpt lat="45.16988" lon="5.91075">
        <ele>1503</ele>
        <time>2021-02-20T15:07:12Z</time>
      </trkpt>
      <trkpt lat="45.1699" lon="5.91074">
        <ele>1502.8</ele>
        <time>2021-02-20T15:07:13Z</time>
      </trkpt>
      <trkpt lat="45.16991" lon="5.91072">
        <ele>1502.6</ele>
        <time>2021-02-20T15:07:14Z</time>
      </trkpt>
      <trkpt lat="45.16992" lon="5.91071">
        <ele>1502.3</ele>
        <time>2021-02-20T15:07:15Z</time>
      </trkpt>
      <trkpt lat="45.16993" lon="5.9107">
        <ele>1502.1</ele>
        <time>2021-02-20T15:07:16Z</time>
      </trkpt>
      <trkpt lat="45.16995" lon="5.9107">
        <ele>1501.9</ele>
        <time>2021-02-20T15:07:17Z</time>
      </trkpt>
      <trkpt lat="45.16996" lon="5.91069">
        <ele>1501.7</ele>
        <time>2021-02-20T15:07:18Z</time>
      </trkpt>
      <trkpt lat="45.16997" lon="5.91069">
        <ele>1501.6</ele>
        <time>2021-02-20T15:07:19Z</time>
      </trkpt>
      <trkpt lat="45.16997" lon="5.91069">
        <ele>1501.5</ele>
        <time>2021-02-20T15:07:20Z</time>
      </trkpt>
      <trkpt lat="45.16998" lon="5.91068">
        <ele>1501.3</ele>
        <time>2021-02-20T15:07:21Z</time>
      </trkpt>
      <trkpt lat="45.16999" lon="5.91068">
        <ele>1501.2</ele>
        <time>2021-02-20T15:07:22Z</time>
      </trkpt>
      <trkpt lat="45.16999" lon="5.91068">
        <ele>1501.1</ele>
        <time>2021-02-20T15:07:23Z</time>
      </trkpt>
      <trkpt lat="45.17" lon="5.91069">
        <ele>1501</ele>
        <time>2021-02-20T15:07:24Z</time>
      </trkpt>
      <trkpt lat="45.17001" lon="5.9107">
        <ele>1500.8</ele>
        <time>2021-02-20T15:07:25Z</time>
      </trkpt>
      <trkpt lat="45.17001" lon="5.91071">
        <ele>1500.7</ele>
        <time>2021-02-20T15:07:26Z</time>
      </trkpt>
      <trkpt lat="45.17002" lon="5.91072">
        <ele>1500.5</ele>
        <time>2021-02-20T15:07:27Z</time>
      </trkpt>
      <trkpt lat="45.17003" lon="5.91072">
        <ele>1500.3</ele>
        <time>2021-02-20T15:07:28Z</time>
      </trkpt>
      <trkpt lat="45.17004" lon="5.91073">
        <ele>1500.1</ele>
        <time>2021-02-20T15:07:29Z</time>
      </trkpt>
      <trkpt lat="45.17006" lon="5.91073">
        <ele>1499.8</ele>
        <time>2021-02-20T15:07:30Z</time>
      </trkpt>
      <trkpt lat="45.17007" lon="5.91073">
        <ele>1499.7</ele>
        <time>2021-02-20T15:07:31Z</time>
      </trkpt>
      <trkpt lat="45.17007" lon="5.91073">
        <ele>1499.6</ele>
        <time>2021-02-20T15:07:32Z</time>
      </trkpt>
      <trkpt lat="45.17008" lon="5.91074">
        <ele>1499.5</ele>
        <time>2021-02-20T15:07:33Z</time>
      </trkpt>
      <trkpt lat="45.17009" lon="5.91074">
        <ele>1499.2</ele>
        <time>2021-02-20T15:07:34Z</time>
      </trkpt>
      <trkpt lat="45.1701" lon="5.91074">
        <ele>1499.1</ele>
        <time>2021-02-20T15:07:35Z</time>
      </trkpt>
      <trkpt lat="45.17011" lon="5.91074">
        <ele>1498.9</ele>
        <time>2021-02-20T15:07:36Z</time>
      </trkpt>
      <trkpt lat="45.17013" lon="5.91074">
        <ele>1498.7</ele>
        <time>2021-02-20T15:07:37Z</time>
      </trkpt>
      <trkpt lat="45.17014" lon="5.91074">
        <ele>1498.5</ele>
        <time>2021-02-20T15:07:38Z</time>
      </trkpt>
      <trkpt lat="45.17014" lon="5.91074">
        <ele>1498.4</ele>
        <time>2021-02-20T15:07:39Z</time>
      </trkpt>
      <trkpt lat="45.17015" lon="5.91074">
        <ele>1498.3</ele>
        <time>2021-02-20T15:07:40Z</time>
      </trkpt>
      <trkpt lat="45.17016" lon="5.91075">
        <ele>1498.1</ele>
        <time>2021-02-20T15:07:41Z</time>
      </trkpt>
      <trkpt lat="45.17017" lon="5.91075">
        <ele>1498</ele>
        <time>2021-02-20T15:07:42Z</time>
      </trkpt>
      <trkpt lat="45.17018" lon="5.91076">
        <ele>1497.8</ele>
        <time>2021-02-20T15:07:43Z</time>
      </trkpt>
      <trkpt lat="45.17019" lon="5.91076">
        <ele>1497.6</ele>
        <time>2021-02-20T15:07:44Z</time>
      </trkpt>
      <trkpt lat="45.1702" lon="5.91076">
        <ele>1497.4</ele>
        <time>2021-02-20T15:07:45Z</time>
      </trkpt>
      <trkpt lat="45.1702" lon="5.91076">
        <ele>1497.3</ele>
        <time>2021-02-20T15:07:46Z</time>
      </trkpt>
      <trkpt lat="45.17021" lon="5.91076">
        <ele>1497.2</ele>
        <time>2021-02-20T15:07:47Z</time>
      </trkpt>
      <trkpt lat="45.17022" lon="5.91077">
        <ele>1497</ele>
        <time>2021-02-20T15:07:48Z</time>
      </trkpt>
      <trkpt lat="45.17023" lon="5.91077">
        <ele>1496.8</ele>
        <time>2021-02-20T15:07:49Z</time>
      </trkpt>
      <trkpt lat="45.17024" lon="5.91077">
        <ele>1496.7</ele>
        <time>2021-02-20T15:07:50Z</time>
      </trkpt>
      <trkpt lat="45.17024" lon="5.91077">
        <ele>1496.6</ele>
        <time>2021-02-20T15:07:51Z</time>
      </trkpt>
      <trkpt lat="45.17026" lon="5.91077">
        <ele>1496.4</ele>
        <time>2021-02-20T15:07:52Z</time>
      </trkpt>
      <trkpt lat="45.17027" lon="5.91077">
        <ele>1496.3</ele>
        <time>2021-02-20T15:07:53Z</time>
      </trkpt>
      <trkpt lat="45.17028" lon="5.91077">
        <ele>1496.1</ele>
        <time>2021-02-20T15:07:54Z</time>
      </trkpt>
      <trkpt lat="45.17029" lon="5.91077">
        <ele>1495.9</ele>
        <time>2021-02-20T15:07:55Z</time>
      </trkpt>
      <trkpt lat="45.1703" lon="5.91078">
        <ele>1495.7</ele>
        <time>2021-02-20T15:07:56Z</time>
      </trkpt>
      <trkpt lat="45.17031" lon="5.91078">
        <ele>1495.6</ele>
        <time>2021-02-20T15:07:57Z</time>
      </trkpt>
      <trkpt lat="45.17032" lon="5.91079">
        <ele>1495.5</ele>
        <time>2021-02-20T15:07:58Z</time>
      </trkpt>
      <trkpt lat="45.17033" lon="5.91079">
        <ele>1495.3</ele>
        <time>2021-02-20T15:07:59Z</time>
      </trkpt>
      <trkpt lat="45.17034" lon="5.91079">
        <ele>1495.1</ele>
        <time>2021-02-20T15:08:00Z</time>
      </trkpt>
      <trkpt lat="45.17035" lon="5.91079">
        <ele>1495.1</ele>
        <time>2021-02-20T15:08:01Z</time>
      </trkpt>
      <trkpt lat="45.17036" lon="5.91079">
        <ele>1495</ele>
        <time>2021-02-20T15:08:02Z</time>
      </trkpt>
      <trkpt lat="45.17038" lon="5.91079">
        <ele>1494.8</ele>
        <time>2021-02-20T15:08:03Z</time>
      </trkpt>
      <trkpt lat="45.17039" lon="5.91079">
        <ele>1494.7</ele>
        <time>2021-02-20T15:08:04Z</time>
      </trkpt>
      <trkpt lat="45.17039" lon="5.91078">
        <ele>1494.6</ele>
        <time>2021-02-20T15:08:05Z</time>
      </trkpt>
      <trkpt lat="45.17041" lon="5.91078">
        <ele>1494.5</ele>
        <time>2021-02-20T15:08:06Z</time>
      </trkpt>
      <trkpt lat="45.17042" lon="5.91076">
        <ele>1494.4</ele>
        <time>2021-02-20T15:08:07Z</time>
      </trkpt>
      <trkpt lat="45.17043" lon="5.91075">
        <ele>1494.3</ele>
        <time>2021-02-20T15:08:08Z</time>
      </trkpt>
      <trkpt lat="45.17044" lon="5.91074">
        <ele>1494.3</ele>
        <time>2021-02-20T15:08:09Z</time>
      </trkpt>
      <trkpt lat="45.17045" lon="5.91074">
        <ele>1494.2</ele>
        <time>2021-02-20T15:08:10Z</time>
      </trkpt>
      <trkpt lat="45.17046" lon="5.91075">
        <ele>1494.2</ele>
        <time>2021-02-20T15:08:11Z</time>
      </trkpt>
      <trkpt lat="45.17046" lon="5.91076">
        <ele>1494.2</ele>
        <time>2021-02-20T15:08:12Z</time>
      </trkpt>
      <trkpt lat="45.17047" lon="5.91076">
        <ele>1494.1</ele>
        <time>2021-02-20T15:08:13Z</time>
      </trkpt>
      <trkpt lat="45.17047" lon="5.91078">
        <ele>1494.1</ele>
        <time>2021-02-20T15:08:14Z</time>
      </trkpt>
      <trkpt lat="45.17048" lon="5.91079">
        <ele>1494.1</ele>
        <time>2021-02-20T15:08:15Z</time>
      </trkpt>
      <trkpt lat="45.17048" lon="5.91079">
        <ele>1494.1</ele>
        <time>2021-02-20T15:08:16Z</time>
      </trkpt>
      <trkpt lat="45.17049" lon="5.9108">
        <ele>1494.1</ele>
        <time>2021-02-20T15:08:17Z</time>
      </trkpt>
      <trkpt lat="45.1705" lon="5.9108">
        <ele>1494.1</ele>
        <time>2021-02-20T15:08:18Z</time>
      </trkpt>
      <trkpt lat="45.17051" lon="5.9108">
        <ele>1494.1</ele>
        <time>2021-02-20T15:08:19Z</time>
      </trkpt>
      <trkpt lat="45.17052" lon="5.91081">
        <ele>1494.1</ele>
        <time>2021-02-20T15:08:20Z</time>
      </trkpt>
      <trkpt lat="45.17053" lon="5.91081">
        <ele>1494.1</ele>
        <time>2021-02-20T15:08:21Z</time>
      </trkpt>
      <trkpt lat="45.17054" lon="5.91081">
        <ele>1494.2</ele>
        <time>2021-02-20T15:08:22Z</time>
      </trkpt>
      <trkpt lat="45.17055" lon="5.91081">
        <ele>1494.2</ele>
        <time>2021-02-20T15:08:23Z</time>
      </trkpt>
      <trkpt lat="45.17056" lon="5.91081">
        <ele>1494.2</ele>
        <time>2021-02-20T15:08:24Z</time>
      </trkpt>
      <trkpt lat="45.17056" lon="5.91081">
        <ele>1494.3</ele>
        <time>2021-02-20T15:08:25Z</time>
      </trkpt>
      <trkpt lat="45.17057" lon="5.91082">
        <ele>1494.3</ele>
        <time>2021-02-20T15:08:26Z</time>
      </trkpt>
      <trkpt lat="45.17058" lon="5.91083">
        <ele>1494.4</ele>
        <time>2021-02-20T15:08:27Z</time>
      </trkpt>
      <trkpt lat="45.17059" lon="5.91083">
        <ele>1494.4</ele>
        <time>2021-02-20T15:08:28Z</time>
      </trkpt>
      <trkpt lat="45.17059" lon="5.91083">
        <ele>1494.4</ele>
        <time>2021-02-20T15:08:29Z</time>
      </trkpt>
      <trkpt lat="45.17059" lon="5.91083">
        <ele>1494.4</ele>
        <time>2021-02-20T15:08:30Z</time>
      </trkpt>
      <trkpt lat="45.17059" lon="5.91082">
        <ele>1494.4</ele>
        <time>2021-02-20T15:08:31Z</time>
      </trkpt>
      <trkpt lat="45.1706" lon="5.91082">
        <ele>1494.5</ele>
        <time>2021-02-20T15:08:32Z</time>
      </trkpt>
      <trkpt lat="45.17061" lon="5.91082">
        <ele>1494.5</ele>
        <time>2021-02-20T15:08:33Z</time>
      </trkpt>
      <trkpt lat="45.17061" lon="5.91082">
        <ele>1494.5</ele>
        <time>2021-02-20T15:08:34Z</time>
      </trkpt>
      <trkpt lat="45.17062" lon="5.91082">
        <ele>1494.6</ele>
        <time>2021-02-20T15:08:35Z</time>
      </trkpt>
      <trkpt lat="45.17063" lon="5.91082">
        <ele>1494.7</ele>
        <time>2021-02-20T15:08:36Z</time>
      </trkpt>
      <trkpt lat="45.17064" lon="5.91082">
        <ele>1494.7</ele>
        <time>2021-02-20T15:08:37Z</time>
      </trkpt>
      <trkpt lat="45.17065" lon="5.91082">
        <ele>1494.8</ele>
        <time>2021-02-20T15:08:38Z</time>
      </trkpt>
      <trkpt lat="45.17066" lon="5.91081">
        <ele>1494.8</ele>
        <time>2021-02-20T15:08:39Z</time>
      </trkpt>
      <trkpt lat="45.17066" lon="5.91081">
        <ele>1494.8</ele>
        <time>2021-02-20T15:08:40Z</time>
      </trkpt>
      <trkpt lat="45.17066" lon="5.91081">
        <ele>1494.8</ele>
        <time>2021-02-20T15:08:41Z</time>
      </trkpt>
      <trkpt lat="45.17066" lon="5.91081">
        <ele>1494.8</ele>
        <time>2021-02-20T15:08:42Z</time>
      </trkpt>
      <trkpt lat="45.17065" lon="5.91082">
        <ele>1494.9</ele>
        <time>2021-02-20T15:08:43Z</time>
      </trkpt>
      <trkpt lat="45.17066" lon="5.91081">
        <ele>1494.9</ele>
        <time>2021-02-20T15:08:44Z</time>
      </trkpt>
      <trkpt lat="45.17067" lon="5.91081">
        <ele>1495</ele>
        <time>2021-02-20T15:08:45Z</time>
      </trkpt>
      <trkpt lat="45.17068" lon="5.91081">
        <ele>1495</ele>
        <time>2021-02-20T15:08:46Z</time>
      </trkpt>
      <trkpt lat="45.17068" lon="5.9108">
        <ele>1495.1</ele>
        <time>2021-02-20T15:08:47Z</time>
      </trkpt>
      <trkpt lat="45.17067" lon="5.91079">
        <ele>1495.1</ele>
        <time>2021-02-20T15:08:48Z</time>
      </trkpt>
      <trkpt lat="45.17067" lon="5.91079">
        <ele>1495.1</ele>
        <time>2021-02-20T15:08:49Z</time>
      </trkpt>
      <trkpt lat="45.17067" lon="5.91078">
        <ele>1495.1</ele>
        <time>2021-02-20T15:08:50Z</time>
      </trkpt>
      <trkpt lat="45.17067" lon="5.91077">
        <ele>1495.2</ele>
        <time>2021-02-20T15:08:51Z</time>
      </trkpt>
      <trkpt lat="45.17067" lon="5.91077">
        <ele>1495.2</ele>
        <time>2021-02-20T15:08:52Z</time>
      </trkpt>
      <trkpt lat="45.17067" lon="5.91076">
        <ele>1495.2</ele>
        <time>2021-02-20T15:08:53Z</time>
      </trkpt>
      <trkpt lat="45.17067" lon="5.91076">
        <ele>1495.2</ele>
        <time>2021-02-20T15:08:54Z</time>
      </trkpt>
      <trkpt lat="45.17067" lon="5.91075">
        <ele>1495.2</ele>
        <time>2021-02-20T15:08:55Z</time>
      </trkpt>
      <trkpt lat="45.17069" lon="5.91074">
        <ele>1495.3</ele>
        <time>2021-02-20T15:08:56Z</time>
      </trkpt>
      <trkpt lat="45.1707" lon="5.91073">
        <ele>1495.4</ele>
        <time>2021-02-20T15:08:57Z</time>
      </trkpt>
      <trkpt lat="45.17072" lon="5.91072">
        <ele>1495.4</ele>
        <time>2021-02-20T15:10:02Z</time>
      </trkpt>
      <trkpt lat="45.17074" lon="5.9107">
        <ele>1495.4</ele>
        <time>2021-02-20T15:10:03Z</time>
      </trkpt>
      <trkpt lat="45.17075" lon="5.91069">
        <ele>1495.4</ele>
        <time>2021-02-20T15:10:04Z</time>
      </trkpt>
      <trkpt lat="45.17076" lon="5.91069">
        <ele>1495.4</ele>
        <time>2021-02-20T15:10:05Z</time>
      </trkpt>
      <trkpt lat="45.17078" lon="5.91068">
        <ele>1495.3</ele>
        <time>2021-02-20T15:10:06Z</time>
      </trkpt>
      <trkpt lat="45.17079" lon="5.91068">
        <ele>1495.2</ele>
        <time>2021-02-20T15:10:07Z</time>
      </trkpt>
      <trkpt lat="45.17081" lon="5.91068">
        <ele>1495.1</ele>
        <time>2021-02-20T15:10:08Z</time>
      </trkpt>
      <trkpt lat="45.17082" lon="5.91068">
        <ele>1495</ele>
        <time>2021-02-20T15:10:09Z</time>
      </trkpt>
      <trkpt lat="45.17084" lon="5.91068">
        <ele>1494.9</ele>
        <time>2021-02-20T15:10:10Z</time>
      </trkpt>
      <trkpt lat="45.17085" lon="5.91068">
        <ele>1494.7</ele>
        <time>2021-02-20T15:10:11Z</time>
      </trkpt>
      <trkpt lat="45.17086" lon="5.91068">
        <ele>1494.6</ele>
        <time>2021-02-20T15:10:12Z</time>
      </trkpt>
      <trkpt lat="45.17087" lon="5.91069">
        <ele>1494.5</ele>
        <time>2021-02-20T15:10:13Z</time>
      </trkpt>
      <trkpt lat="45.17088" lon="5.9107">
        <ele>1494.4</ele>
        <time>2021-02-20T15:10:14Z</time>
      </trkpt>
      <trkpt lat="45.17088" lon="5.91071">
        <ele>1494.3</ele>
        <time>2021-02-20T15:10:15Z</time>
      </trkpt>
      <trkpt lat="45.17089" lon="5.91072">
        <ele>1494.1</ele>
        <time>2021-02-20T15:10:16Z</time>
      </trkpt>
      <trkpt lat="45.1709" lon="5.91072">
        <ele>1494</ele>
        <time>2021-02-20T15:10:17Z</time>
      </trkpt>
      <trkpt lat="45.1709" lon="5.91072">
        <ele>1493.9</ele>
        <time>2021-02-20T15:10:18Z</time>
      </trkpt>
      <trkpt lat="45.17091" lon="5.91072">
        <ele>1493.9</ele>
        <time>2021-02-20T15:10:19Z</time>
      </trkpt>
      <trkpt lat="45.17091" lon="5.91072">
        <ele>1493.8</ele>
        <time>2021-02-20T15:10:20Z</time>
      </trkpt>
      <trkpt lat="45.17092" lon="5.91071">
        <ele>1493.6</ele>
        <time>2021-02-20T15:10:21Z</time>
      </trkpt>
      <trkpt lat="45.17093" lon="5.91071">
        <ele>1493.4</ele>
        <time>2021-02-20T15:10:22Z</time>
      </trkpt>
      <trkpt lat="45.17094" lon="5.91072">
        <ele>1493.2</ele>
        <time>2021-02-20T15:10:23Z</time>
      </trkpt>
      <trkpt lat="45.17096" lon="5.91072">
        <ele>1493</ele>
        <time>2021-02-20T15:10:24Z</time>
      </trkpt>
      <trkpt lat="45.17098" lon="5.91072">
        <ele>1492.7</ele>
        <time>2021-02-20T15:10:25Z</time>
      </trkpt>
      <trkpt lat="45.17098" lon="5.91072">
        <ele>1492.5</ele>
        <time>2021-02-20T15:10:26Z</time>
      </trkpt>
      <trkpt lat="45.17099" lon="5.91072">
        <ele>1492.4</ele>
        <time>2021-02-20T15:10:27Z</time>
      </trkpt>
      <trkpt lat="45.17101" lon="5.91072">
        <ele>1492.2</ele>
        <time>2021-02-20T15:10:28Z</time>
      </trkpt>
      <trkpt lat="45.17102" lon="5.91072">
        <ele>1491.9</ele>
        <time>2021-02-20T15:10:29Z</time>
      </trkpt>
      <trkpt lat="45.17103" lon="5.91072">
        <ele>1491.8</ele>
        <time>2021-02-20T15:10:30Z</time>
      </trkpt>
      <trkpt lat="45.17104" lon="5.91072">
        <ele>1491.7</ele>
        <time>2021-02-20T15:10:31Z</time>
      </trkpt>
      <trkpt lat="45.17104" lon="5.91072">
        <ele>1491.6</ele>
        <time>2021-02-20T15:10:32Z</time>
      </trkpt>
      <trkpt lat="45.17105" lon="5.91072">
        <ele>1491.5</ele>
        <time>2021-02-20T15:10:33Z</time>
      </trkpt>
      <trkpt lat="45.17106" lon="5.91073">
        <ele>1491.4</ele>
        <time>2021-02-20T15:10:34Z</time>
      </trkpt>
      <trkpt lat="45.17107" lon="5.91073">
        <ele>1491.2</ele>
        <time>2021-02-20T15:10:35Z</time>
      </trkpt>
      <trkpt lat="45.17108" lon="5.91074">
        <ele>1491.1</ele>
        <time>2021-02-20T15:10:36Z</time>
      </trkpt>
      <trkpt lat="45.17109" lon="5.91074">
        <ele>1490.9</ele>
        <time>2021-02-20T15:10:37Z</time>
      </trkpt>
      <trkpt lat="45.1711" lon="5.91075">
        <ele>1490.8</ele>
        <time>2021-02-20T15:10:38Z</time>
      </trkpt>
      <trkpt lat="45.17111" lon="5.91075">
        <ele>1490.7</ele>
        <time>2021-02-20T15:10:39Z</time>
      </trkpt>
      <trkpt lat="45.17112" lon="5.91076">
        <ele>1490.6</ele>
        <time>2021-02-20T15:10:40Z</time>
      </trkpt>
      <trkpt lat="45.17112" lon="5.91077">
        <ele>1490.5</ele>
        <time>2021-02-20T15:10:41Z</time>
      </trkpt>
      <trkpt lat="45.17113" lon="5.91077">
        <ele>1490.4</ele>
        <time>2021-02-20T15:10:42Z</time>
      </trkpt>
      <trkpt lat="45.17114" lon="5.91077">
        <ele>1490.3</ele>
        <time>2021-02-20T15:10:43Z</time>
      </trkpt>
      <trkpt lat="45.17115" lon="5.91077">
        <ele>1490.2</ele>
        <time>2021-02-20T15:10:44Z</time>
      </trkpt>
      <trkpt lat="45.17116" lon="5.91077">
        <ele>1490.1</ele>
        <time>2021-02-20T15:10:45Z</time>
      </trkpt>
      <trkpt lat="45.17117" lon="5.91077">
        <ele>1490</ele>
        <time>2021-02-20T15:10:46Z</time>
      </trkpt>
      <trkpt lat="45.17118" lon="5.91078">
        <ele>1489.9</ele>
        <time>2021-02-20T15:10:47Z</time>
      </trkpt>
      <trkpt lat="45.17119" lon="5.91078">
        <ele>1489.8</ele>
        <time>2021-02-20T15:10:48Z</time>
      </trkpt>
      <trkpt lat="45.1712" lon="5.91078">
        <ele>1489.8</ele>
        <time>2021-02-20T15:10:49Z</time>
      </trkpt>
      <trkpt lat="45.17121" lon="5.91078">
        <ele>1489.7</ele>
        <time>2021-02-20T15:10:50Z</time>
      </trkpt>
      <trkpt lat="45.17122" lon="5.91078">
        <ele>1489.6</ele>
        <time>2021-02-20T15:10:51Z</time>
      </trkpt>
      <trkpt lat="45.17122" lon="5.91079">
        <ele>1489.6</ele>
        <time>2021-02-20T15:10:52Z</time>
      </trkpt>
      <trkpt lat="45.17123" lon="5.91079">
        <ele>1489.5</ele>
        <time>2021-02-20T15:10:53Z</time>
      </trkpt>
      <trkpt lat="45.17123" lon="5.91079">
        <ele>1489.5</ele>
        <time>2021-02-20T15:10:54Z</time>
      </trkpt>
      <trkpt lat="45.17124" lon="5.91079">
        <ele>1489.5</ele>
        <time>2021-02-20T15:10:55Z</time>
      </trkpt>
      <trkpt lat="45.17124" lon="5.9108">
        <ele>1489.4</ele>
        <time>2021-02-20T15:10:56Z</time>
      </trkpt>
      <trkpt lat="45.17125" lon="5.9108">
        <ele>1489.4</ele>
        <time>2021-02-20T15:10:57Z</time>
      </trkpt>
      <trkpt lat="45.17125" lon="5.9108">
        <ele>1489.4</ele>
        <time>2021-02-20T15:10:58Z</time>
      </trkpt>
      <trkpt lat="45.17126" lon="5.9108">
        <ele>1489.3</ele>
        <time>2021-02-20T15:10:59Z</time>
      </trkpt>
      <trkpt lat="45.17126" lon="5.91081">
        <ele>1489.3</ele>
        <time>2021-02-20T15:11:00Z</time>
      </trkpt>
      <trkpt lat="45.17127" lon="5.91081">
        <ele>1489.2</ele>
        <time>2021-02-20T15:11:01Z</time>
      </trkpt>
      <trkpt lat="45.17127" lon="5.91081">
        <ele>1489.2</ele>
        <time>2021-02-20T15:11:02Z</time>
      </trkpt>
      <trkpt lat="45.17128" lon="5.91081">
        <ele>1489.2</ele>
        <time>2021-02-20T15:11:10Z</time>
      </trkpt>
      <trkpt lat="45.17128" lon="5.91082">
        <ele>1489</ele>
        <time>2021-02-20T15:11:11Z</time>
      </trkpt>
      <trkpt lat="45.17129" lon="5.91082">
        <ele>1489</ele>
        <time>2021-02-20T15:11:12Z</time>
      </trkpt>
      <trkpt lat="45.17129" lon="5.91083">
        <ele>1488.9</ele>
        <time>2021-02-20T15:11:13Z</time>
      </trkpt>
      <trkpt lat="45.1713" lon="5.91083">
        <ele>1488.8</ele>
        <time>2021-02-20T15:11:14Z</time>
      </trkpt>
      <trkpt lat="45.1713" lon="5.91084">
        <ele>1488.6</ele>
        <time>2021-02-20T15:11:15Z</time>
      </trkpt>
      <trkpt lat="45.17131" lon="5.91085">
        <ele>1488.5</ele>
        <time>2021-02-20T15:11:16Z</time>
      </trkpt>
      <trkpt lat="45.17131" lon="5.91085">
        <ele>1488.4</ele>
        <time>2021-02-20T15:11:17Z</time>
      </trkpt>
      <trkpt lat="45.17132" lon="5.91086">
        <ele>1488.3</ele>
        <time>2021-02-20T15:11:18Z</time>
      </trkpt>
      <trkpt lat="45.17132" lon="5.91088">
        <ele>1488.1</ele>
        <time>2021-02-20T15:11:19Z</time>
      </trkpt>
      <trkpt lat="45.17133" lon="5.91089">
        <ele>1488</ele>
        <time>2021-02-20T15:11:20Z</time>
      </trkpt>
      <trkpt lat="45.17133" lon="5.9109">
        <ele>1487.9</ele>
        <time>2021-02-20T15:11:21Z</time>
      </trkpt>
      <trkpt lat="45.17133" lon="5.9109">
        <ele>1487.8</ele>
        <time>2021-02-20T15:11:22Z</time>
      </trkpt>
      <trkpt lat="45.17133" lon="5.91091">
        <ele>1487.7</ele>
        <time>2021-02-20T15:11:23Z</time>
      </trkpt>
      <trkpt lat="45.17133" lon="5.91092">
        <ele>1487.6</ele>
        <time>2021-02-20T15:11:24Z</time>
      </trkpt>
      <trkpt lat="45.17134" lon="5.91092">
        <ele>1487.5</ele>
        <time>2021-02-20T15:11:25Z</time>
      </trkpt>
      <trkpt lat="45.17135" lon="5.91093">
        <ele>1487.3</ele>
        <time>2021-02-20T15:11:26Z</time>
      </trkpt>
      <trkpt lat="45.17136" lon="5.91093">
        <ele>1487.2</ele>
        <time>2021-02-20T15:11:27Z</time>
      </trkpt>
      <trkpt lat="45.17136" lon="5.91093">
        <ele>1487.1</ele>
        <time>2021-02-20T15:11:28Z</time>
      </trkpt>
      <trkpt lat="45.17137" lon="5.91093">
        <ele>1487</ele>
        <time>2021-02-20T15:11:29Z</time>
      </trkpt>
      <trkpt lat="45.17138" lon="5.91094">
        <ele>1486.8</ele>
        <time>2021-02-20T15:11:30Z</time>
      </trkpt>
      <trkpt lat="45.17139" lon="5.91094">
        <ele>1486.7</ele>
        <time>2021-02-20T15:11:31Z</time>
      </trkpt>
      <trkpt lat="45.1714" lon="5.91094">
        <ele>1486.6</ele>
        <time>2021-02-20T15:11:32Z</time>
      </trkpt>
      <trkpt lat="45.17142" lon="5.91095">
        <ele>1486.3</ele>
        <time>2021-02-20T15:11:33Z</time>
      </trkpt>
      <trkpt lat="45.17143" lon="5.91095">
        <ele>1486.2</ele>
        <time>2021-02-20T15:11:34Z</time>
      </trkpt>
      <trkpt lat="45.17144" lon="5.91095">
        <ele>1486</ele>
        <time>2021-02-20T15:11:35Z</time>
      </trkpt>
      <trkpt lat="45.17146" lon="5.91095">
        <ele>1485.8</ele>
        <time>2021-02-20T15:11:36Z</time>
      </trkpt>
      <trkpt lat="45.17147" lon="5.91095">
        <ele>1485.7</ele>
        <time>2021-02-20T15:11:37Z</time>
      </trkpt>
      <trkpt lat="45.17148" lon="5.91095">
        <ele>1485.5</ele>
        <time>2021-02-20T15:11:38Z</time>
      </trkpt>
      <trkpt lat="45.17149" lon="5.91095">
        <ele>1485.4</ele>
        <time>2021-02-20T15:11:39Z</time>
      </trkpt>
      <trkpt lat="45.1715" lon="5.91095">
        <ele>1485.3</ele>
        <time>2021-02-20T15:11:40Z</time>
      </trkpt>
      <trkpt lat="45.17151" lon="5.91094">
        <ele>1485.2</ele>
        <time>2021-02-20T15:11:41Z</time>
      </trkpt>
      <trkpt lat="45.17152" lon="5.91094">
        <ele>1485</ele>
        <time>2021-02-20T15:11:42Z</time>
      </trkpt>
      <trkpt lat="45.17154" lon="5.91093">
        <ele>1484.8</ele>
        <time>2021-02-20T15:11:43Z</time>
      </trkpt>
      <trkpt lat="45.17155" lon="5.91093">
        <ele>1484.7</ele>
        <time>2021-02-20T15:11:44Z</time>
      </trkpt>
      <trkpt lat="45.17156" lon="5.91093">
        <ele>1484.6</ele>
        <time>2021-02-20T15:11:45Z</time>
      </trkpt>
      <trkpt lat="45.17157" lon="5.91093">
        <ele>1484.5</ele>
        <time>2021-02-20T15:11:46Z</time>
      </trkpt>
      <trkpt lat="45.17159" lon="5.91093">
        <ele>1484.3</ele>
        <time>2021-02-20T15:11:47Z</time>
      </trkpt>
      <trkpt lat="45.17161" lon="5.91094">
        <ele>1484.1</ele>
        <time>2021-02-20T15:11:48Z</time>
      </trkpt>
      <trkpt lat="45.17162" lon="5.91093">
        <ele>1484.1</ele>
        <time>2021-02-20T15:11:49Z</time>
      </trkpt>
      <trkpt lat="45.17163" lon="5.91093">
        <ele>1484</ele>
        <time>2021-02-20T15:11:50Z</time>
      </trkpt>
      <trkpt lat="45.17164" lon="5.91093">
        <ele>1483.9</ele>
        <time>2021-02-20T15:11:51Z</time>
      </trkpt>
      <trkpt lat="45.17165" lon="5.91093">
        <ele>1483.8</ele>
        <time>2021-02-20T15:11:52Z</time>
      </trkpt>
      <trkpt lat="45.17165" lon="5.91093">
        <ele>1483.7</ele>
        <time>2021-02-20T15:11:53Z</time>
      </trkpt>
      <trkpt lat="45.17167" lon="5.91093">
        <ele>1483.6</ele>
        <time>2021-02-20T15:11:54Z</time>
      </trkpt>
      <trkpt lat="45.17168" lon="5.91093">
        <ele>1483.5</ele>
        <time>2021-02-20T15:11:55Z</time>
      </trkpt>
      <trkpt lat="45.17169" lon="5.91093">
        <ele>1483.4</ele>
        <time>2021-02-20T15:11:56Z</time>
      </trkpt>
      <trkpt lat="45.1717" lon="5.91093">
        <ele>1483.3</ele>
        <time>2021-02-20T15:11:57Z</time>
      </trkpt>
      <trkpt lat="45.17171" lon="5.91092">
        <ele>1483.2</ele>
        <time>2021-02-20T15:11:58Z</time>
      </trkpt>
      <trkpt lat="45.17172" lon="5.91091">
        <ele>1483.1</ele>
        <time>2021-02-20T15:11:59Z</time>
      </trkpt>
      <trkpt lat="45.17173" lon="5.91091">
        <ele>1483</ele>
        <time>2021-02-20T15:12:00Z</time>
      </trkpt>
      <trkpt lat="45.17174" lon="5.9109">
        <ele>1482.9</ele>
        <time>2021-02-20T15:12:01Z</time>
      </trkpt>
      <trkpt lat="45.17175" lon="5.9109">
        <ele>1482.8</ele>
        <time>2021-02-20T15:12:02Z</time>
      </trkpt>
      <trkpt lat="45.17176" lon="5.91089">
        <ele>1482.7</ele>
        <time>2021-02-20T15:12:03Z</time>
      </trkpt>
      <trkpt lat="45.17176" lon="5.91088">
        <ele>1482.6</ele>
        <time>2021-02-20T15:12:04Z</time>
      </trkpt>
      <trkpt lat="45.17177" lon="5.91087">
        <ele>1482.4</ele>
        <time>2021-02-20T15:12:05Z</time>
      </trkpt>
      <trkpt lat="45.17178" lon="5.91086">
        <ele>1482.3</ele>
        <time>2021-02-20T15:12:06Z</time>
      </trkpt>
      <trkpt lat="45.17179" lon="5.91085">
        <ele>1482.2</ele>
        <time>2021-02-20T15:12:07Z</time>
      </trkpt>
      <trkpt lat="45.17179" lon="5.91085">
        <ele>1482.2</ele>
        <time>2021-02-20T15:12:08Z</time>
      </trkpt>
      <trkpt lat="45.17179" lon="5.91085">
        <ele>1482.2</ele>
        <time>2021-02-20T15:12:09Z</time>
      </trkpt>
      <trkpt lat="45.17177" lon="5.91085">
        <ele>1482</ele>
        <time>2021-02-20T15:12:10Z</time>
      </trkpt>
      <trkpt lat="45.17177" lon="5.91085">
        <ele>1482</ele>
        <time>2021-02-20T15:12:11Z</time>
      </trkpt>
      <trkpt lat="45.17178" lon="5.91084">
        <ele>1481.9</ele>
        <time>2021-02-20T15:12:12Z</time>
      </trkpt>
      <trkpt lat="45.17178" lon="5.91084">
        <ele>1481.9</ele>
        <time>2021-02-20T15:12:13Z</time>
      </trkpt>
      <trkpt lat="45.17179" lon="5.91084">
        <ele>1481.8</ele>
        <time>2021-02-20T15:12:14Z</time>
      </trkpt>
      <trkpt lat="45.17179" lon="5.91083">
        <ele>1481.7</ele>
        <time>2021-02-20T15:12:15Z</time>
      </trkpt>
      <trkpt lat="45.1718" lon="5.91083">
        <ele>1481.5</ele>
        <time>2021-02-20T15:12:16Z</time>
      </trkpt>
      <trkpt lat="45.17181" lon="5.91083">
        <ele>1481.4</ele>
        <time>2021-02-20T15:12:17Z</time>
      </trkpt>
      <trkpt lat="45.17182" lon="5.91084">
        <ele>1481.2</ele>
        <time>2021-02-20T15:12:18Z</time>
      </trkpt>
      <trkpt lat="45.17184" lon="5.91084">
        <ele>1481</ele>
        <time>2021-02-20T15:12:19Z</time>
      </trkpt>
      <trkpt lat="45.17184" lon="5.91084">
        <ele>1480.8</ele>
        <time>2021-02-20T15:12:20Z</time>
      </trkpt>
      <trkpt lat="45.17185" lon="5.91084">
        <ele>1480.7</ele>
        <time>2021-02-20T15:12:21Z</time>
      </trkpt>
      <trkpt lat="45.17185" lon="5.91084">
        <ele>1480.7</ele>
        <time>2021-02-20T15:12:22Z</time>
      </trkpt>
      <trkpt lat="45.17186" lon="5.91084">
        <ele>1480.6</ele>
        <time>2021-02-20T15:12:23Z</time>
      </trkpt>
      <trkpt lat="45.17186" lon="5.91084">
        <ele>1480.5</ele>
        <time>2021-02-20T15:12:24Z</time>
      </trkpt>
      <trkpt lat="45.17187" lon="5.91084">
        <ele>1480.2</ele>
        <time>2021-02-20T15:12:25Z</time>
      </trkpt>
      <trkpt lat="45.17188" lon="5.91083">
        <ele>1480</ele>
        <time>2021-02-20T15:12:26Z</time>
      </trkpt>
      <trkpt lat="45.17189" lon="5.91082">
        <ele>1479.8</ele>
        <time>2021-02-20T15:12:27Z</time>
      </trkpt>
      <trkpt lat="45.1719" lon="5.91082">
        <ele>1479.6</ele>
        <time>2021-02-20T15:12:28Z</time>
      </trkpt>
      <trkpt lat="45.17191" lon="5.91081">
        <ele>1479.3</ele>
        <time>2021-02-20T15:12:29Z</time>
      </trkpt>
      <trkpt lat="45.17192" lon="5.9108">
        <ele>1478.9</ele>
        <time>2021-02-20T15:12:30Z</time>
      </trkpt>
      <trkpt lat="45.17193" lon="5.91078">
        <ele>1478.5</ele>
        <time>2021-02-20T15:12:31Z</time>
      </trkpt>
      <trkpt lat="45.17194" lon="5.91077">
        <ele>1478.1</ele>
        <time>2021-02-20T15:12:32Z</time>
      </trkpt>
      <trkpt lat="45.17196" lon="5.91075">
        <ele>1477.4</ele>
        <time>2021-02-20T15:12:33Z</time>
      </trkpt>
      <trkpt lat="45.17197" lon="5.91074">
        <ele>1477.2</ele>
        <time>2021-02-20T15:12:34Z</time>
      </trkpt>
      <trkpt lat="45.17197" lon="5.91074">
        <ele>1477</ele>
        <time>2021-02-20T15:12:35Z</time>
      </trkpt>
      <trkpt lat="45.17198" lon="5.91073">
        <ele>1476.7</ele>
        <time>2021-02-20T15:12:36Z</time>
      </trkpt>
      <trkpt lat="45.17199" lon="5.91073">
        <ele>1476.4</ele>
        <time>2021-02-20T15:12:37Z</time>
      </trkpt>
      <trkpt lat="45.172" lon="5.91073">
        <ele>1476.2</ele>
        <time>2021-02-20T15:12:38Z</time>
      </trkpt>
      <trkpt lat="45.17201" lon="5.91073">
        <ele>1475.9</ele>
        <time>2021-02-20T15:12:39Z</time>
      </trkpt>
      <trkpt lat="45.17202" lon="5.91073">
        <ele>1475.4</ele>
        <time>2021-02-20T15:12:40Z</time>
      </trkpt>
      <trkpt lat="45.17203" lon="5.91073">
        <ele>1475</ele>
        <time>2021-02-20T15:12:41Z</time>
      </trkpt>
      <trkpt lat="45.17204" lon="5.91072">
        <ele>1474.8</ele>
        <time>2021-02-20T15:12:42Z</time>
      </trkpt>
      <trkpt lat="45.17204" lon="5.91072">
        <ele>1474.7</ele>
        <time>2021-02-20T15:12:43Z</time>
      </trkpt>
      <trkpt lat="45.17204" lon="5.91071">
        <ele>1474.6</ele>
        <time>2021-02-20T15:12:44Z</time>
      </trkpt>
      <trkpt lat="45.17205" lon="5.91072">
        <ele>1474.4</ele>
        <time>2021-02-20T15:12:45Z</time>
      </trkpt>
      <trkpt lat="45.17206" lon="5.91072">
        <ele>1474</ele>
        <time>2021-02-20T15:12:46Z</time>
      </trkpt>
      <trkpt lat="45.17207" lon="5.91072">
        <ele>1473.7</ele>
        <time>2021-02-20T15:12:47Z</time>
      </trkpt>
      <trkpt lat="45.17208" lon="5.91071">
        <ele>1473.4</ele>
        <time>2021-02-20T15:12:48Z</time>
      </trkpt>
      <trkpt lat="45.17208" lon="5.91071">
        <ele>1473.2</ele>
        <time>2021-02-20T15:12:49Z</time>
      </trkpt>
      <trkpt lat="45.17209" lon="5.91071">
        <ele>1473</ele>
        <time>2021-02-20T15:12:50Z</time>
      </trkpt>
      <trkpt lat="45.1721" lon="5.9107">
        <ele>1472.7</ele>
        <time>2021-02-20T15:12:51Z</time>
      </trkpt>
      <trkpt lat="45.1721" lon="5.9107">
        <ele>1472.4</ele>
        <time>2021-02-20T15:12:52Z</time>
      </trkpt>
      <trkpt lat="45.17211" lon="5.9107">
        <ele>1472.2</ele>
        <time>2021-02-20T15:12:53Z</time>
      </trkpt>
      <trkpt lat="45.17212" lon="5.9107">
        <ele>1471.9</ele>
        <time>2021-02-20T15:12:54Z</time>
      </trkpt>
      <trkpt lat="45.17213" lon="5.9107">
        <ele>1471.5</ele>
        <time>2021-02-20T15:12:55Z</time>
      </trkpt>
      <trkpt lat="45.17214" lon="5.9107">
        <ele>1471.3</ele>
        <time>2021-02-20T15:12:56Z</time>
      </trkpt>
      <trkpt lat="45.17214" lon="5.91071">
        <ele>1471.2</ele>
        <time>2021-02-20T15:12:57Z</time>
      </trkpt>
      <trkpt lat="45.17214" lon="5.91071">
        <ele>1471.1</ele>
        <time>2021-02-20T15:12:58Z</time>
      </trkpt>
      <trkpt lat="45.17214" lon="5.91071">
        <ele>1470.9</ele>
        <time>2021-02-20T15:12:59Z</time>
      </trkpt>
      <trkpt lat="45.17215" lon="5.91072">
        <ele>1470.7</ele>
        <time>2021-02-20T15:13:00Z</time>
      </trkpt>
      <trkpt lat="45.17216" lon="5.91072">
        <ele>1470.5</ele>
        <time>2021-02-20T15:13:01Z</time>
      </trkpt>
      <trkpt lat="45.17216" lon="5.91071">
        <ele>1470.3</ele>
        <time>2021-02-20T15:13:02Z</time>
      </trkpt>
      <trkpt lat="45.17216" lon="5.91071">
        <ele>1470.3</ele>
        <time>2021-02-20T15:13:03Z</time>
      </trkpt>
      <trkpt lat="45.17217" lon="5.91071">
        <ele>1470.1</ele>
        <time>2021-02-20T15:13:04Z</time>
      </trkpt>
      <trkpt lat="45.17217" lon="5.9107">
        <ele>1469.9</ele>
        <time>2021-02-20T15:13:05Z</time>
      </trkpt>
      <trkpt lat="45.17217" lon="5.9107">
        <ele>1469.8</ele>
        <time>2021-02-20T15:13:06Z</time>
      </trkpt>
      <trkpt lat="45.17217" lon="5.91069">
        <ele>1469.7</ele>
        <time>2021-02-20T15:13:07Z</time>
      </trkpt>
      <trkpt lat="45.17217" lon="5.91069">
        <ele>1469.6</ele>
        <time>2021-02-20T15:13:08Z</time>
      </trkpt>
      <trkpt lat="45.17218" lon="5.91069">
        <ele>1469.3</ele>
        <time>2021-02-20T15:13:09Z</time>
      </trkpt>
      <trkpt lat="45.17219" lon="5.9107">
        <ele>1468.9</ele>
        <time>2021-02-20T15:13:10Z</time>
      </trkpt>
      <trkpt lat="45.1722" lon="5.9107">
        <ele>1468.6</ele>
        <time>2021-02-20T15:13:11Z</time>
      </trkpt>
      <trkpt lat="45.17221" lon="5.91071">
        <ele>1468.3</ele>
        <time>2021-02-20T15:13:12Z</time>
      </trkpt>
      <trkpt lat="45.17222" lon="5.91072">
        <ele>1467.7</ele>
        <time>2021-02-20T15:13:13Z</time>
      </trkpt>
      <trkpt lat="45.17224" lon="5.91073">
        <ele>1467.1</ele>
        <time>2021-02-20T15:13:14Z</time>
      </trkpt>
      <trkpt lat="45.17225" lon="5.91073">
        <ele>1466.5</ele>
        <time>2021-02-20T15:13:15Z</time>
      </trkpt>
      <trkpt lat="45.17227" lon="5.91074">
        <ele>1466.1</ele>
        <time>2021-02-20T15:13:16Z</time>
      </trkpt>
      <trkpt lat="45.17227" lon="5.91074">
        <ele>1465.8</ele>
        <time>2021-02-20T15:13:17Z</time>
      </trkpt>
      <trkpt lat="45.17228" lon="5.91074">
        <ele>1465.4</ele>
        <time>2021-02-20T15:13:18Z</time>
      </trkpt>
      <trkpt lat="45.17229" lon="5.91075">
        <ele>1465.1</ele>
        <time>2021-02-20T15:13:19Z</time>
      </trkpt>
      <trkpt lat="45.1723" lon="5.91076">
        <ele>1464.8</ele>
        <time>2021-02-20T15:13:20Z</time>
      </trkpt>
      <trkpt lat="45.17231" lon="5.91077">
        <ele>1464.4</ele>
        <time>2021-02-20T15:13:21Z</time>
      </trkpt>
      <trkpt lat="45.17233" lon="5.91078">
        <ele>1463.8</ele>
        <time>2021-02-20T15:13:22Z</time>
      </trkpt>
      <trkpt lat="45.17233" lon="5.91078">
        <ele>1463.5</ele>
        <time>2021-02-20T15:13:23Z</time>
      </trkpt>
      <trkpt lat="45.17234" lon="5.91078">
        <ele>1463.2</ele>
        <time>2021-02-20T15:13:24Z</time>
      </trkpt>
      <trkpt lat="45.17235" lon="5.91077">
        <ele>1463</ele>
        <time>2021-02-20T15:13:25Z</time>
      </trkpt>
      <trkpt lat="45.17235" lon="5.91077">
        <ele>1462.9</ele>
        <time>2021-02-20T15:13:26Z</time>
      </trkpt>
      <trkpt lat="45.17236" lon="5.91078">
        <ele>1462.7</ele>
        <time>2021-02-20T15:13:27Z</time>
      </trkpt>
      <trkpt lat="45.17237" lon="5.91078">
        <ele>1462.4</ele>
        <time>2021-02-20T15:13:28Z</time>
      </trkpt>
      <trkpt lat="45.17237" lon="5.91078">
        <ele>1462.2</ele>
        <time>2021-02-20T15:13:29Z</time>
      </trkpt>
      <trkpt lat="45.17239" lon="5.91078">
        <ele>1461.8</ele>
        <time>2021-02-20T15:13:30Z</time>
      </trkpt>
      <trkpt lat="45.17239" lon="5.91078">
        <ele>1461.6</ele>
        <time>2021-02-20T15:13:31Z</time>
      </trkpt>
      <trkpt lat="45.1724" lon="5.91078">
        <ele>1461.5</ele>
        <time>2021-02-20T15:13:32Z</time>
      </trkpt>
      <trkpt lat="45.1724" lon="5.91077">
        <ele>1461.3</ele>
        <time>2021-02-20T15:13:33Z</time>
      </trkpt>
      <trkpt lat="45.17241" lon="5.91077">
        <ele>1461.1</ele>
        <time>2021-02-20T15:13:34Z</time>
      </trkpt>
      <trkpt lat="45.17241" lon="5.91077">
        <ele>1461</ele>
        <time>2021-02-20T15:13:35Z</time>
      </trkpt>
      <trkpt lat="45.17242" lon="5.91076">
        <ele>1460.8</ele>
        <time>2021-02-20T15:13:36Z</time>
      </trkpt>
      <trkpt lat="45.17242" lon="5.91076">
        <ele>1460.6</ele>
        <time>2021-02-20T15:13:37Z</time>
      </trkpt>
      <trkpt lat="45.17243" lon="5.91076">
        <ele>1460.5</ele>
        <time>2021-02-20T15:13:38Z</time>
      </trkpt>
      <trkpt lat="45.17243" lon="5.91076">
        <ele>1460.3</ele>
        <time>2021-02-20T15:13:39Z</time>
      </trkpt>
      <trkpt lat="45.17243" lon="5.91075">
        <ele>1460.2</ele>
        <time>2021-02-20T15:13:40Z</time>
      </trkpt>
      <trkpt lat="45.17245" lon="5.91075">
        <ele>1459.8</ele>
        <time>2021-02-20T15:13:41Z</time>
      </trkpt>
      <trkpt lat="45.17246" lon="5.91075">
        <ele>1459.5</ele>
        <time>2021-02-20T15:14:00Z</time>
      </trkpt>
      <trkpt lat="45.17247" lon="5.91075">
        <ele>1459.1</ele>
        <time>2021-02-20T15:14:01Z</time>
      </trkpt>
      <trkpt lat="45.17248" lon="5.91075">
        <ele>1458.8</ele>
        <time>2021-02-20T15:14:02Z</time>
      </trkpt>
      <trkpt lat="45.17249" lon="5.91074">
        <ele>1458.4</ele>
        <time>2021-02-20T15:14:03Z</time>
      </trkpt>
      <trkpt lat="45.17251" lon="5.91074">
        <ele>1458.1</ele>
        <time>2021-02-20T15:14:04Z</time>
      </trkpt>
      <trkpt lat="45.17252" lon="5.91074">
        <ele>1457.7</ele>
        <time>2021-02-20T15:14:05Z</time>
      </trkpt>
      <trkpt lat="45.17253" lon="5.91074">
        <ele>1457.3</ele>
        <time>2021-02-20T15:14:06Z</time>
      </trkpt>
      <trkpt lat="45.17254" lon="5.91074">
        <ele>1457</ele>
        <time>2021-02-20T15:14:07Z</time>
      </trkpt>
      <trkpt lat="45.17255" lon="5.91074">
        <ele>1456.7</ele>
        <time>2021-02-20T15:14:08Z</time>
      </trkpt>
      <trkpt lat="45.17256" lon="5.91073">
        <ele>1456.3</ele>
        <time>2021-02-20T15:14:09Z</time>
      </trkpt>
      <trkpt lat="45.17258" lon="5.91073">
        <ele>1455.9</ele>
        <time>2021-02-20T15:14:10Z</time>
      </trkpt>
      <trkpt lat="45.17259" lon="5.91073">
        <ele>1455.6</ele>
        <time>2021-02-20T15:14:19Z</time>
      </trkpt>
      <trkpt lat="45.1726" lon="5.91073">
        <ele>1455.2</ele>
        <time>2021-02-20T15:14:20Z</time>
      </trkpt>
      <trkpt lat="45.17261" lon="5.91073">
        <ele>1454.9</ele>
        <time>2021-02-20T15:14:21Z</time>
      </trkpt>
      <trkpt lat="45.17262" lon="5.91072">
        <ele>1454.5</ele>
        <time>2021-02-20T15:14:22Z</time>
      </trkpt>
      <trkpt lat="45.17263" lon="5.91072">
        <ele>1454.4</ele>
        <time>2021-02-20T15:14:23Z</time>
      </trkpt>
      <trkpt lat="45.17263" lon="5.91072">
        <ele>1454.3</ele>
        <time>2021-02-20T15:14:24Z</time>
      </trkpt>
      <trkpt lat="45.17263" lon="5.91071">
        <ele>1454.1</ele>
        <time>2021-02-20T15:14:25Z</time>
      </trkpt>
      <trkpt lat="45.17264" lon="5.91071">
        <ele>1454.1</ele>
        <time>2021-02-20T15:14:26Z</time>
      </trkpt>
      <trkpt lat="45.17264" lon="5.91071">
        <ele>1454.1</ele>
        <time>2021-02-20T15:14:27Z</time>
      </trkpt>
      <trkpt lat="45.17264" lon="5.91071">
        <ele>1454</ele>
        <time>2021-02-20T15:14:28Z</time>
      </trkpt>
      <trkpt lat="45.17264" lon="5.91071">
        <ele>1453.9</ele>
        <time>2021-02-20T15:14:29Z</time>
      </trkpt>
      <trkpt lat="45.17265" lon="5.9107">
        <ele>1453.7</ele>
        <time>2021-02-20T15:14:30Z</time>
      </trkpt>
      <trkpt lat="45.17265" lon="5.9107">
        <ele>1453.6</ele>
        <time>2021-02-20T15:14:31Z</time>
      </trkpt>
      <trkpt lat="45.17266" lon="5.9107">
        <ele>1453.2</ele>
        <time>2021-02-20T15:14:32Z</time>
      </trkpt>
      <trkpt lat="45.17267" lon="5.9107">
        <ele>1453</ele>
        <time>2021-02-20T15:14:33Z</time>
      </trkpt>
      <trkpt lat="45.17268" lon="5.91071">
        <ele>1452.8</ele>
        <time>2021-02-20T15:14:41Z</time>
      </trkpt>
      <trkpt lat="45.17269" lon="5.91071">
        <ele>1452.6</ele>
        <time>2021-02-20T15:14:42Z</time>
      </trkpt>
      <trkpt lat="45.17269" lon="5.91071">
        <ele>1452.4</ele>
        <time>2021-02-20T15:14:43Z</time>
      </trkpt>
      <trkpt lat="45.1727" lon="5.91071">
        <ele>1452.2</ele>
        <time>2021-02-20T15:14:44Z</time>
      </trkpt>
      <trkpt lat="45.17271" lon="5.91071">
        <ele>1452</ele>
        <time>2021-02-20T15:14:45Z</time>
      </trkpt>
      <trkpt lat="45.17272" lon="5.91071">
        <ele>1451.8</ele>
        <time>2021-02-20T15:14:46Z</time>
      </trkpt>
      <trkpt lat="45.17272" lon="5.91071">
        <ele>1451.7</ele>
        <time>2021-02-20T15:14:47Z</time>
      </trkpt>
      <trkpt lat="45.17273" lon="5.91071">
        <ele>1451.5</ele>
        <time>2021-02-20T15:14:48Z</time>
      </trkpt>
      <trkpt lat="45.17273" lon="5.91072">
        <ele>1451.3</ele>
        <time>2021-02-20T15:14:49Z</time>
      </trkpt>
      <trkpt lat="45.17274" lon="5.91072">
        <ele>1451.3</ele>
        <time>2021-02-20T15:14:50Z</time>
      </trkpt>
      <trkpt lat="45.17274" lon="5.91072">
        <ele>1451.1</ele>
        <time>2021-02-20T15:14:51Z</time>
      </trkpt>
      <trkpt lat="45.17275" lon="5.91072">
        <ele>1450.9</ele>
        <time>2021-02-20T15:14:52Z</time>
      </trkpt>
      <trkpt lat="45.17275" lon="5.91072">
        <ele>1450.8</ele>
        <time>2021-02-20T15:14:53Z</time>
      </trkpt>
      <trkpt lat="45.17276" lon="5.91073">
        <ele>1450.7</ele>
        <time>2021-02-20T15:14:54Z</time>
      </trkpt>
      <trkpt lat="45.17277" lon="5.91072">
        <ele>1450.5</ele>
        <time>2021-02-20T15:14:55Z</time>
      </trkpt>
      <trkpt lat="45.17277" lon="5.91072">
        <ele>1450.4</ele>
        <time>2021-02-20T15:14:56Z</time>
      </trkpt>
      <trkpt lat="45.17278" lon="5.91072">
        <ele>1450.3</ele>
        <time>2021-02-20T15:14:57Z</time>
      </trkpt>
      <trkpt lat="45.17278" lon="5.91071">
        <ele>1450.1</ele>
        <time>2021-02-20T15:14:58Z</time>
      </trkpt>
      <trkpt lat="45.17279" lon="5.91071">
        <ele>1450</ele>
        <time>2021-02-20T15:14:59Z</time>
      </trkpt>
      <trkpt lat="45.17279" lon="5.9107">
        <ele>1449.9</ele>
        <time>2021-02-20T15:15:00Z</time>
      </trkpt>
      <trkpt lat="45.1728" lon="5.9107">
        <ele>1449.7</ele>
        <time>2021-02-20T15:15:01Z</time>
      </trkpt>
      <trkpt lat="45.1728" lon="5.91069">
        <ele>1449.6</ele>
        <time>2021-02-20T15:15:09Z</time>
      </trkpt>
      <trkpt lat="45.17281" lon="5.91069">
        <ele>1449.5</ele>
        <time>2021-02-20T15:15:10Z</time>
      </trkpt>
      <trkpt lat="45.17281" lon="5.91069">
        <ele>1449.3</ele>
        <time>2021-02-20T15:15:11Z</time>
      </trkpt>
      <trkpt lat="45.17282" lon="5.91068">
        <ele>1449.2</ele>
        <time>2021-02-20T15:15:12Z</time>
      </trkpt>
      <trkpt lat="45.17282" lon="5.91068">
        <ele>1449.1</ele>
        <time>2021-02-20T15:15:13Z</time>
      </trkpt>
      <trkpt lat="45.17283" lon="5.91067">
        <ele>1449</ele>
        <time>2021-02-20T15:15:14Z</time>
      </trkpt>
      <trkpt lat="45.17283" lon="5.91067">
        <ele>1448.9</ele>
        <time>2021-02-20T15:15:15Z</time>
      </trkpt>
      <trkpt lat="45.17284" lon="5.91067">
        <ele>1448.8</ele>
        <time>2021-02-20T15:15:16Z</time>
      </trkpt>
      <trkpt lat="45.17284" lon="5.91067">
        <ele>1448.7</ele>
        <time>2021-02-20T15:15:17Z</time>
      </trkpt>
      <trkpt lat="45.17285" lon="5.91066">
        <ele>1448.6</ele>
        <time>2021-02-20T15:15:18Z</time>
      </trkpt>
      <trkpt lat="45.17285" lon="5.91066">
        <ele>1448.6</ele>
        <time>2021-02-20T15:15:19Z</time>
      </trkpt>
      <trkpt lat="45.17285" lon="5.91066">
        <ele>1448.4</ele>
        <time>2021-02-20T15:15:20Z</time>
      </trkpt>
      <trkpt lat="45.17286" lon="5.91066">
        <ele>1448.2</ele>
        <time>2021-02-20T15:15:21Z</time>
      </trkpt>
      <trkpt lat="45.17287" lon="5.91066">
        <ele>1448</ele>
        <time>2021-02-20T15:15:22Z</time>
      </trkpt>
      <trkpt lat="45.17287" lon="5.91066">
        <ele>1447.9</ele>
        <time>2021-02-20T15:15:23Z</time>
      </trkpt>
      <trkpt lat="45.17287" lon="5.91066">
        <ele>1447.8</ele>
        <time>2021-02-20T15:15:24Z</time>
      </trkpt>
      <trkpt lat="45.17288" lon="5.91065">
        <ele>1447.5</ele>
        <time>2021-02-20T15:15:25Z</time>
      </trkpt>
      <trkpt lat="45.17289" lon="5.91065">
        <ele>1447.2</ele>
        <time>2021-02-20T15:15:26Z</time>
      </trkpt>
      <trkpt lat="45.1729" lon="5.91064">
        <ele>1446.8</ele>
        <time>2021-02-20T15:15:27Z</time>
      </trkpt>
      <trkpt lat="45.17291" lon="5.91063">
        <ele>1446.5</ele>
        <time>2021-02-20T15:15:28Z</time>
      </trkpt>
      <trkpt lat="45.17292" lon="5.91063">
        <ele>1446.3</ele>
        <time>2021-02-20T15:15:29Z</time>
      </trkpt>
      <trkpt lat="45.17293" lon="5.9106">
        <ele>1445.6</ele>
        <time>2021-02-20T15:15:30Z</time>
      </trkpt>
      <trkpt lat="45.17295" lon="5.91058">
        <ele>1444.8</ele>
        <time>2021-02-20T15:15:31Z</time>
      </trkpt>
      <trkpt lat="45.17296" lon="5.91055">
        <ele>1444.1</ele>
        <time>2021-02-20T15:15:32Z</time>
      </trkpt>
      <trkpt lat="45.17297" lon="5.91053">
        <ele>1443.3</ele>
        <time>2021-02-20T15:15:33Z</time>
      </trkpt>
      <trkpt lat="45.17299" lon="5.9105">
        <ele>1442.4</ele>
        <time>2021-02-20T15:15:34Z</time>
      </trkpt>
      <trkpt lat="45.173" lon="5.91048">
        <ele>1441.6</ele>
        <time>2021-02-20T15:15:35Z</time>
      </trkpt>
      <trkpt lat="45.17302" lon="5.91045">
        <ele>1440.8</ele>
        <time>2021-02-20T15:16:06Z</time>
      </trkpt>
      <trkpt lat="45.17303" lon="5.91043">
        <ele>1440</ele>
        <time>2021-02-20T15:16:07Z</time>
      </trkpt>
      <trkpt lat="45.17305" lon="5.91041">
        <ele>1439.2</ele>
        <time>2021-02-20T15:16:08Z</time>
      </trkpt>
      <trkpt lat="45.17306" lon="5.91038">
        <ele>1438.4</ele>
        <time>2021-02-20T15:16:09Z</time>
      </trkpt>
      <trkpt lat="45.17306" lon="5.91037">
        <ele>1438.2</ele>
        <time>2021-02-20T15:16:10Z</time>
      </trkpt>
      <trkpt lat="45.17307" lon="5.91036">
        <ele>1437.9</ele>
        <time>2021-02-20T15:16:11Z</time>
      </trkpt>
      <trkpt lat="45.17307" lon="5.91036">
        <ele>1437.7</ele>
        <time>2021-02-20T15:16:12Z</time>
      </trkpt>
      <trkpt lat="45.17307" lon="5.91035">
        <ele>1437.4</ele>
        <time>2021-02-20T15:16:13Z</time>
      </trkpt>
      <trkpt lat="45.17308" lon="5.91034">
        <ele>1437.2</ele>
        <time>2021-02-20T15:16:14Z</time>
      </trkpt>
      <trkpt lat="45.17308" lon="5.91033">
        <ele>1436.9</ele>
        <time>2021-02-20T15:16:15Z</time>
      </trkpt>
      <trkpt lat="45.17308" lon="5.91032">
        <ele>1436.7</ele>
        <time>2021-02-20T15:16:16Z</time>
      </trkpt>
      <trkpt lat="45.17309" lon="5.91031">
        <ele>1436.5</ele>
        <time>2021-02-20T15:16:17Z</time>
      </trkpt>
      <trkpt lat="45.17309" lon="5.9103">
        <ele>1436.2</ele>
        <time>2021-02-20T15:16:18Z</time>
      </trkpt>
      <trkpt lat="45.1731" lon="5.91029">
        <ele>1435.9</ele>
        <time>2021-02-20T15:16:19Z</time>
      </trkpt>
      <trkpt lat="45.1731" lon="5.91029">
        <ele>1435.7</ele>
        <time>2021-02-20T15:16:20Z</time>
      </trkpt>
      <trkpt lat="45.1731" lon="5.91027">
        <ele>1435.4</ele>
        <time>2021-02-20T15:16:21Z</time>
      </trkpt>
      <trkpt lat="45.1731" lon="5.91026">
        <ele>1435.1</ele>
        <time>2021-02-20T15:16:22Z</time>
      </trkpt>
      <trkpt lat="45.1731" lon="5.91025">
        <ele>1434.8</ele>
        <time>2021-02-20T15:16:23Z</time>
      </trkpt>
      <trkpt lat="45.1731" lon="5.91024">
        <ele>1434.6</ele>
        <time>2021-02-20T15:16:24Z</time>
      </trkpt>
      <trkpt lat="45.1731" lon="5.91023">
        <ele>1434.4</ele>
        <time>2021-02-20T15:16:25Z</time>
      </trkpt>
      <trkpt lat="45.1731" lon="5.91021">
        <ele>1434</ele>
        <time>2021-02-20T15:16:26Z</time>
      </trkpt>
      <trkpt lat="45.1731" lon="5.9102">
        <ele>1433.7</ele>
        <time>2021-02-20T15:16:27Z</time>
      </trkpt>
      <trkpt lat="45.1731" lon="5.91019">
        <ele>1433.4</ele>
        <time>2021-02-20T15:16:28Z</time>
      </trkpt>
      <trkpt lat="45.17311" lon="5.91017">
        <ele>1433</ele>
        <time>2021-02-20T15:16:29Z</time>
      </trkpt>
      <trkpt lat="45.17311" lon="5.91017">
        <ele>1432.9</ele>
        <time>2021-02-20T15:16:30Z</time>
      </trkpt>
      <trkpt lat="45.17311" lon="5.91016">
        <ele>1432.7</ele>
        <time>2021-02-20T15:16:31Z</time>
      </trkpt>
      <trkpt lat="45.17311" lon="5.91015">
        <ele>1432.5</ele>
        <time>2021-02-20T15:16:32Z</time>
      </trkpt>
      <trkpt lat="45.1731" lon="5.91014">
        <ele>1432.2</ele>
        <time>2021-02-20T15:16:33Z</time>
      </trkpt>
      <trkpt lat="45.1731" lon="5.91013">
        <ele>1431.9</ele>
        <time>2021-02-20T15:16:34Z</time>
      </trkpt>
      <trkpt lat="45.1731" lon="5.91012">
        <ele>1431.7</ele>
        <time>2021-02-20T15:16:35Z</time>
      </trkpt>
      <trkpt lat="45.1731" lon="5.91011">
        <ele>1431.6</ele>
        <time>2021-02-20T15:16:36Z</time>
      </trkpt>
      <trkpt lat="45.1731" lon="5.91011">
        <ele>1431.4</ele>
        <time>2021-02-20T15:16:37Z</time>
      </trkpt>
      <trkpt lat="45.1731" lon="5.9101">
        <ele>1431.3</ele>
        <time>2021-02-20T15:16:38Z</time>
      </trkpt>
      <trkpt lat="45.1731" lon="5.9101">
        <ele>1431.2</ele>
        <time>2021-02-20T15:16:39Z</time>
      </trkpt>
      <trkpt lat="45.1731" lon="5.91009">
        <ele>1431.1</ele>
        <time>2021-02-20T15:16:40Z</time>
      </trkpt>
      <trkpt lat="45.1731" lon="5.91009">
        <ele>1430.9</ele>
        <time>2021-02-20T15:16:41Z</time>
      </trkpt>
      <trkpt lat="45.17311" lon="5.91007">
        <ele>1430.6</ele>
        <time>2021-02-20T15:16:42Z</time>
      </trkpt>
      <trkpt lat="45.17311" lon="5.91007">
        <ele>1430.3</ele>
        <time>2021-02-20T15:16:43Z</time>
      </trkpt>
      <trkpt lat="45.17312" lon="5.91006">
        <ele>1430</ele>
        <time>2021-02-20T15:16:46Z</time>
      </trkpt>
      <trkpt lat="45.17313" lon="5.91005">
        <ele>1429.7</ele>
        <time>2021-02-20T15:16:47Z</time>
      </trkpt>
      <trkpt lat="45.17313" lon="5.91004">
        <ele>1429.4</ele>
        <time>2021-02-20T15:16:48Z</time>
      </trkpt>
      <trkpt lat="45.17314" lon="5.91003">
        <ele>1429.1</ele>
        <time>2021-02-20T15:16:49Z</time>
      </trkpt>
      <trkpt lat="45.17314" lon="5.91001">
        <ele>1428.8</ele>
        <time>2021-02-20T15:16:50Z</time>
      </trkpt>
      <trkpt lat="45.17314" lon="5.91">
        <ele>1428.5</ele>
        <time>2021-02-20T15:16:51Z</time>
      </trkpt>
      <trkpt lat="45.17314" lon="5.90999">
        <ele>1428.2</ele>
        <time>2021-02-20T15:16:52Z</time>
      </trkpt>
      <trkpt lat="45.17315" lon="5.90998">
        <ele>1428</ele>
        <time>2021-02-20T15:16:53Z</time>
      </trkpt>
      <trkpt lat="45.17315" lon="5.90997">
        <ele>1427.8</ele>
        <time>2021-02-20T15:16:54Z</time>
      </trkpt>
      <trkpt lat="45.17316" lon="5.90996">
        <ele>1427.5</ele>
        <time>2021-02-20T15:16:55Z</time>
      </trkpt>
      <trkpt lat="45.17316" lon="5.90996">
        <ele>1427.3</ele>
        <time>2021-02-20T15:16:56Z</time>
      </trkpt>
      <trkpt lat="45.17316" lon="5.90995">
        <ele>1427</ele>
        <time>2021-02-20T15:16:57Z</time>
      </trkpt>
      <trkpt lat="45.17317" lon="5.90994">
        <ele>1426.8</ele>
        <time>2021-02-20T15:16:58Z</time>
      </trkpt>
      <trkpt lat="45.17317" lon="5.90993">
        <ele>1426.6</ele>
        <time>2021-02-20T15:16:59Z</time>
      </trkpt>
      <trkpt lat="45.17318" lon="5.90993">
        <ele>1426.5</ele>
        <time>2021-02-20T15:17:00Z</time>
      </trkpt>
      <trkpt lat="45.17318" lon="5.90993">
        <ele>1426.4</ele>
        <time>2021-02-20T15:17:01Z</time>
      </trkpt>
      <trkpt lat="45.17318" lon="5.90993">
        <ele>1426.3</ele>
        <time>2021-02-20T15:17:02Z</time>
      </trkpt>
      <trkpt lat="45.17318" lon="5.90993">
        <ele>1426.3</ele>
        <time>2021-02-20T15:17:03Z</time>
      </trkpt>
      <trkpt lat="45.17319" lon="5.90992">
        <ele>1426.1</ele>
        <time>2021-02-20T15:17:04Z</time>
      </trkpt>
      <trkpt lat="45.17319" lon="5.90992">
        <ele>1425.9</ele>
        <time>2021-02-20T15:17:05Z</time>
      </trkpt>
      <trkpt lat="45.17319" lon="5.90991">
        <ele>1425.7</ele>
        <time>2021-02-20T15:17:06Z</time>
      </trkpt>
      <trkpt lat="45.1732" lon="5.90991">
        <ele>1425.6</ele>
        <time>2021-02-20T15:17:07Z</time>
      </trkpt>
      <trkpt lat="45.1732" lon="5.9099">
        <ele>1425.5</ele>
        <time>2021-02-20T15:17:08Z</time>
      </trkpt>
      <trkpt lat="45.1732" lon="5.90989">
        <ele>1425.2</ele>
        <time>2021-02-20T15:17:09Z</time>
      </trkpt>
      <trkpt lat="45.1732" lon="5.90988">
        <ele>1424.9</ele>
        <time>2021-02-20T15:17:10Z</time>
      </trkpt>
      <trkpt lat="45.1732" lon="5.90987">
        <ele>1424.8</ele>
        <time>2021-02-20T15:17:11Z</time>
      </trkpt>
      <trkpt lat="45.1732" lon="5.90987">
        <ele>1424.5</ele>
        <time>2021-02-20T15:17:12Z</time>
      </trkpt>
      <trkpt lat="45.1732" lon="5.90986">
        <ele>1424.3</ele>
        <time>2021-02-20T15:17:13Z</time>
      </trkpt>
      <trkpt lat="45.1732" lon="5.90985">
        <ele>1424.1</ele>
        <time>2021-02-20T15:17:14Z</time>
      </trkpt>
      <trkpt lat="45.17321" lon="5.90984">
        <ele>1423.8</ele>
        <time>2021-02-20T15:17:15Z</time>
      </trkpt>
      <trkpt lat="45.17321" lon="5.90984">
        <ele>1423.7</ele>
        <time>2021-02-20T15:17:16Z</time>
      </trkpt>
      <trkpt lat="45.17322" lon="5.90984">
        <ele>1423.6</ele>
        <time>2021-02-20T15:17:17Z</time>
      </trkpt>
      <trkpt lat="45.17322" lon="5.90984">
        <ele>1423.6</ele>
        <time>2021-02-20T15:17:18Z</time>
      </trkpt>
      <trkpt lat="45.17322" lon="5.90983">
        <ele>1423.4</ele>
        <time>2021-02-20T15:17:19Z</time>
      </trkpt>
      <trkpt lat="45.17322" lon="5.90982">
        <ele>1423.3</ele>
        <time>2021-02-20T15:17:20Z</time>
      </trkpt>
      <trkpt lat="45.17322" lon="5.90982">
        <ele>1423.1</ele>
        <time>2021-02-20T15:17:21Z</time>
      </trkpt>
      <trkpt lat="45.17323" lon="5.90981">
        <ele>1422.9</ele>
        <time>2021-02-20T15:17:22Z</time>
      </trkpt>
      <trkpt lat="45.17323" lon="5.90981">
        <ele>1422.9</ele>
        <time>2021-02-20T15:17:23Z</time>
      </trkpt>
      <trkpt lat="45.17323" lon="5.90981">
        <ele>1422.7</ele>
        <time>2021-02-20T15:17:24Z</time>
      </trkpt>
      <trkpt lat="45.17324" lon="5.90981">
        <ele>1422.5</ele>
        <time>2021-02-20T15:17:25Z</time>
      </trkpt>
      <trkpt lat="45.17324" lon="5.9098">
        <ele>1422.4</ele>
        <time>2021-02-20T15:17:26Z</time>
      </trkpt>
      <trkpt lat="45.17324" lon="5.9098">
        <ele>1422.4</ele>
        <time>2021-02-20T15:17:27Z</time>
      </trkpt>
      <trkpt lat="45.17324" lon="5.9098">
        <ele>1422.2</ele>
        <time>2021-02-20T15:17:28Z</time>
      </trkpt>
      <trkpt lat="45.17325" lon="5.9098">
        <ele>1422.1</ele>
        <time>2021-02-20T15:17:29Z</time>
      </trkpt>
      <trkpt lat="45.17325" lon="5.90979">
        <ele>1421.9</ele>
        <time>2021-02-20T15:17:30Z</time>
      </trkpt>
      <trkpt lat="45.17326" lon="5.90978">
        <ele>1421.6</ele>
        <time>2021-02-20T15:17:31Z</time>
      </trkpt>
      <trkpt lat="45.17326" lon="5.90977">
        <ele>1421.4</ele>
        <time>2021-02-20T15:17:32Z</time>
      </trkpt>
      <trkpt lat="45.17326" lon="5.90977">
        <ele>1421.2</ele>
        <time>2021-02-20T15:17:33Z</time>
      </trkpt>
      <trkpt lat="45.17326" lon="5.90976">
        <ele>1421</ele>
        <time>2021-02-20T15:17:34Z</time>
      </trkpt>
      <trkpt lat="45.17326" lon="5.90975">
        <ele>1420.8</ele>
        <time>2021-02-20T15:17:35Z</time>
      </trkpt>
      <trkpt lat="45.17326" lon="5.90974">
        <ele>1420.6</ele>
        <time>2021-02-20T15:17:36Z</time>
      </trkpt>
      <trkpt lat="45.17327" lon="5.90972">
        <ele>1419.8</ele>
        <time>2021-02-20T15:17:37Z</time>
      </trkpt>
      <trkpt lat="45.17327" lon="5.9097">
        <ele>1419.3</ele>
        <time>2021-02-20T15:17:38Z</time>
      </trkpt>
      <trkpt lat="45.17328" lon="5.90968">
        <ele>1418.7</ele>
        <time>2021-02-20T15:17:39Z</time>
      </trkpt>
      <trkpt lat="45.17328" lon="5.90966">
        <ele>1418.2</ele>
        <time>2021-02-20T15:17:40Z</time>
      </trkpt>
      <trkpt lat="45.17328" lon="5.90964">
        <ele>1417.7</ele>
        <time>2021-02-20T15:17:41Z</time>
      </trkpt>
      <trkpt lat="45.17329" lon="5.90962">
        <ele>1417.1</ele>
        <time>2021-02-20T15:17:42Z</time>
      </trkpt>
      <trkpt lat="45.17329" lon="5.90959">
        <ele>1416.6</ele>
        <time>2021-02-20T15:18:01Z</time>
      </trkpt>
      <trkpt lat="45.17329" lon="5.90957">
        <ele>1416.1</ele>
        <time>2021-02-20T15:18:02Z</time>
      </trkpt>
      <trkpt lat="45.1733" lon="5.90955">
        <ele>1415.5</ele>
        <time>2021-02-20T15:18:03Z</time>
      </trkpt>
      <trkpt lat="45.1733" lon="5.90954">
        <ele>1415.2</ele>
        <time>2021-02-20T15:18:04Z</time>
      </trkpt>
      <trkpt lat="45.17331" lon="5.90954">
        <ele>1415</ele>
        <time>2021-02-20T15:18:05Z</time>
      </trkpt>
      <trkpt lat="45.17331" lon="5.90953">
        <ele>1414.7</ele>
        <time>2021-02-20T15:18:06Z</time>
      </trkpt>
      <trkpt lat="45.17332" lon="5.90952">
        <ele>1414.5</ele>
        <time>2021-02-20T15:18:07Z</time>
      </trkpt>
      <trkpt lat="45.17332" lon="5.90951">
        <ele>1414.2</ele>
        <time>2021-02-20T15:18:08Z</time>
      </trkpt>
      <trkpt lat="45.17333" lon="5.9095">
        <ele>1413.8</ele>
        <time>2021-02-20T15:18:09Z</time>
      </trkpt>
      <trkpt lat="45.17333" lon="5.90949">
        <ele>1413.6</ele>
        <time>2021-02-20T15:18:10Z</time>
      </trkpt>
      <trkpt lat="45.17334" lon="5.90948">
        <ele>1413.3</ele>
        <time>2021-02-20T15:18:11Z</time>
      </trkpt>
      <trkpt lat="45.17334" lon="5.90947">
        <ele>1413</ele>
        <time>2021-02-20T15:18:12Z</time>
      </trkpt>
      <trkpt lat="45.17335" lon="5.90946">
        <ele>1412.8</ele>
        <time>2021-02-20T15:18:13Z</time>
      </trkpt>
      <trkpt lat="45.17335" lon="5.90945">
        <ele>1412.5</ele>
        <time>2021-02-20T15:18:14Z</time>
      </trkpt>
      <trkpt lat="45.17335" lon="5.90944">
        <ele>1412.3</ele>
        <time>2021-02-20T15:18:15Z</time>
      </trkpt>
      <trkpt lat="45.17336" lon="5.90944">
        <ele>1412.1</ele>
        <time>2021-02-20T15:18:16Z</time>
      </trkpt>
      <trkpt lat="45.17336" lon="5.90943">
        <ele>1411.9</ele>
        <time>2021-02-20T15:18:17Z</time>
      </trkpt>
      <trkpt lat="45.17336" lon="5.90942">
        <ele>1411.7</ele>
        <time>2021-02-20T15:18:18Z</time>
      </trkpt>
      <trkpt lat="45.17336" lon="5.90942">
        <ele>1411.6</ele>
        <time>2021-02-20T15:18:19Z</time>
      </trkpt>
      <trkpt lat="45.17337" lon="5.90939">
        <ele>1411</ele>
        <time>2021-02-20T15:18:20Z</time>
      </trkpt>
      <trkpt lat="45.17338" lon="5.90938">
        <ele>1410.6</ele>
        <time>2021-02-20T15:18:30Z</time>
      </trkpt>
      <trkpt lat="45.17338" lon="5.90936">
        <ele>1410.2</ele>
        <time>2021-02-20T15:18:31Z</time>
      </trkpt>
      <trkpt lat="45.17338" lon="5.90935">
        <ele>1409.9</ele>
        <time>2021-02-20T15:18:32Z</time>
      </trkpt>
      <trkpt lat="45.17339" lon="5.90933">
        <ele>1409.5</ele>
        <time>2021-02-20T15:18:33Z</time>
      </trkpt>
      <trkpt lat="45.17339" lon="5.90932">
        <ele>1409.1</ele>
        <time>2021-02-20T15:18:34Z</time>
      </trkpt>
      <trkpt lat="45.17339" lon="5.9093">
        <ele>1408.7</ele>
        <time>2021-02-20T15:18:35Z</time>
      </trkpt>
      <trkpt lat="45.1734" lon="5.90929">
        <ele>1408.4</ele>
        <time>2021-02-20T15:18:36Z</time>
      </trkpt>
      <trkpt lat="45.1734" lon="5.90928">
        <ele>1408.3</ele>
        <time>2021-02-20T15:18:37Z</time>
      </trkpt>
      <trkpt lat="45.1734" lon="5.90928">
        <ele>1408.1</ele>
        <time>2021-02-20T15:18:38Z</time>
      </trkpt>
      <trkpt lat="45.1734" lon="5.90927">
        <ele>1407.8</ele>
        <time>2021-02-20T15:18:39Z</time>
      </trkpt>
      <trkpt lat="45.17341" lon="5.90926">
        <ele>1407.7</ele>
        <time>2021-02-20T15:18:40Z</time>
      </trkpt>
      <trkpt lat="45.17341" lon="5.90926">
        <ele>1407.6</ele>
        <time>2021-02-20T15:18:41Z</time>
      </trkpt>
      <trkpt lat="45.17341" lon="5.90925">
        <ele>1407.4</ele>
        <time>2021-02-20T15:18:42Z</time>
      </trkpt>
      <trkpt lat="45.17341" lon="5.90924">
        <ele>1407.2</ele>
        <time>2021-02-20T15:18:43Z</time>
      </trkpt>
      <trkpt lat="45.17341" lon="5.90924">
        <ele>1407.1</ele>
        <time>2021-02-20T15:18:44Z</time>
      </trkpt>
      <trkpt lat="45.17341" lon="5.90923">
        <ele>1406.9</ele>
        <time>2021-02-20T15:18:45Z</time>
      </trkpt>
      <trkpt lat="45.17341" lon="5.90922">
        <ele>1406.7</ele>
        <time>2021-02-20T15:18:46Z</time>
      </trkpt>
      <trkpt lat="45.17341" lon="5.90921">
        <ele>1406.6</ele>
        <time>2021-02-20T15:18:47Z</time>
      </trkpt>
      <trkpt lat="45.17341" lon="5.90921">
        <ele>1406.4</ele>
        <time>2021-02-20T15:18:48Z</time>
      </trkpt>
      <trkpt lat="45.17341" lon="5.9092">
        <ele>1406.3</ele>
        <time>2021-02-20T15:18:49Z</time>
      </trkpt>
      <trkpt lat="45.17341" lon="5.90919">
        <ele>1406.1</ele>
        <time>2021-02-20T15:18:50Z</time>
      </trkpt>
      <trkpt lat="45.17341" lon="5.90918">
        <ele>1405.8</ele>
        <time>2021-02-20T15:18:51Z</time>
      </trkpt>
      <trkpt lat="45.17341" lon="5.90916">
        <ele>1405.5</ele>
        <time>2021-02-20T15:18:52Z</time>
      </trkpt>
      <trkpt lat="45.17342" lon="5.90915">
        <ele>1405.2</ele>
        <time>2021-02-20T15:18:53Z</time>
      </trkpt>
      <trkpt lat="45.17342" lon="5.90914">
        <ele>1405</ele>
        <time>2021-02-20T15:18:54Z</time>
      </trkpt>
      <trkpt lat="45.17342" lon="5.90913">
        <ele>1404.8</ele>
        <time>2021-02-20T15:18:55Z</time>
      </trkpt>
      <trkpt lat="45.17342" lon="5.90913">
        <ele>1404.8</ele>
        <time>2021-02-20T15:18:56Z</time>
      </trkpt>
      <trkpt lat="45.17342" lon="5.90913">
        <ele>1404.7</ele>
        <time>2021-02-20T15:18:57Z</time>
      </trkpt>
      <trkpt lat="45.17343" lon="5.90913">
        <ele>1404.6</ele>
        <time>2021-02-20T15:18:58Z</time>
      </trkpt>
      <trkpt lat="45.17343" lon="5.90912">
        <ele>1404.5</ele>
        <time>2021-02-20T15:18:59Z</time>
      </trkpt>
      <trkpt lat="45.17344" lon="5.90911">
        <ele>1404.3</ele>
        <time>2021-02-20T15:19:00Z</time>
      </trkpt>
      <trkpt lat="45.17343" lon="5.90911">
        <ele>1404.2</ele>
        <time>2021-02-20T15:19:01Z</time>
      </trkpt>
      <trkpt lat="45.17344" lon="5.9091">
        <ele>1404.1</ele>
        <time>2021-02-20T15:19:02Z</time>
      </trkpt>
      <trkpt lat="45.17345" lon="5.90909">
        <ele>1403.8</ele>
        <time>2021-02-20T15:19:03Z</time>
      </trkpt>
      <trkpt lat="45.17345" lon="5.90908">
        <ele>1403.6</ele>
        <time>2021-02-20T15:19:04Z</time>
      </trkpt>
      <trkpt lat="45.17346" lon="5.90908">
        <ele>1403.5</ele>
        <time>2021-02-20T15:19:05Z</time>
      </trkpt>
      <trkpt lat="45.17346" lon="5.90907">
        <ele>1403.3</ele>
        <time>2021-02-20T15:19:06Z</time>
      </trkpt>
      <trkpt lat="45.17347" lon="5.90907">
        <ele>1403.2</ele>
        <time>2021-02-20T15:19:07Z</time>
      </trkpt>
      <trkpt lat="45.17347" lon="5.90906">
        <ele>1403</ele>
        <time>2021-02-20T15:19:08Z</time>
      </trkpt>
      <trkpt lat="45.17348" lon="5.90905">
        <ele>1402.8</ele>
        <time>2021-02-20T15:19:09Z</time>
      </trkpt>
      <trkpt lat="45.17349" lon="5.90904">
        <ele>1402.6</ele>
        <time>2021-02-20T15:19:10Z</time>
      </trkpt>
      <trkpt lat="45.17349" lon="5.90903">
        <ele>1402.4</ele>
        <time>2021-02-20T15:19:11Z</time>
      </trkpt>
      <trkpt lat="45.1735" lon="5.90902">
        <ele>1402.2</ele>
        <time>2021-02-20T15:19:12Z</time>
      </trkpt>
      <trkpt lat="45.17351" lon="5.90901">
        <ele>1401.9</ele>
        <time>2021-02-20T15:19:13Z</time>
      </trkpt>
      <trkpt lat="45.17351" lon="5.909">
        <ele>1401.7</ele>
        <time>2021-02-20T15:19:14Z</time>
      </trkpt>
      <trkpt lat="45.17352" lon="5.90899">
        <ele>1401.5</ele>
        <time>2021-02-20T15:19:15Z</time>
      </trkpt>
      <trkpt lat="45.17352" lon="5.90898">
        <ele>1401.4</ele>
        <time>2021-02-20T15:19:16Z</time>
      </trkpt>
      <trkpt lat="45.17352" lon="5.90898">
        <ele>1401.3</ele>
        <time>2021-02-20T15:19:17Z</time>
      </trkpt>
      <trkpt lat="45.17352" lon="5.90897">
        <ele>1401.2</ele>
        <time>2021-02-20T15:19:18Z</time>
      </trkpt>
      <trkpt lat="45.17351" lon="5.90896">
        <ele>1401.1</ele>
        <time>2021-02-20T15:19:19Z</time>
      </trkpt>
      <trkpt lat="45.17352" lon="5.90895">
        <ele>1400.9</ele>
        <time>2021-02-20T15:19:20Z</time>
      </trkpt>
      <trkpt lat="45.17352" lon="5.90894">
        <ele>1400.8</ele>
        <time>2021-02-20T15:19:21Z</time>
      </trkpt>
      <trkpt lat="45.17352" lon="5.90893">
        <ele>1400.6</ele>
        <time>2021-02-20T15:19:22Z</time>
      </trkpt>
      <trkpt lat="45.17353" lon="5.90893">
        <ele>1400.5</ele>
        <time>2021-02-20T15:19:23Z</time>
      </trkpt>
      <trkpt lat="45.17353" lon="5.90892">
        <ele>1400.4</ele>
        <time>2021-02-20T15:19:24Z</time>
      </trkpt>
      <trkpt lat="45.17353" lon="5.90892">
        <ele>1400.3</ele>
        <time>2021-02-20T15:19:25Z</time>
      </trkpt>
      <trkpt lat="45.17354" lon="5.90891">
        <ele>1400.1</ele>
        <time>2021-02-20T15:19:26Z</time>
      </trkpt>
      <trkpt lat="45.17354" lon="5.9089">
        <ele>1400</ele>
        <time>2021-02-20T15:19:27Z</time>
      </trkpt>
      <trkpt lat="45.17355" lon="5.9089">
        <ele>1399.9</ele>
        <time>2021-02-20T15:19:28Z</time>
      </trkpt>
      <trkpt lat="45.17355" lon="5.90889">
        <ele>1399.8</ele>
        <time>2021-02-20T15:19:29Z</time>
      </trkpt>
      <trkpt lat="45.17355" lon="5.90889">
        <ele>1399.7</ele>
        <time>2021-02-20T15:19:30Z</time>
      </trkpt>
      <trkpt lat="45.17356" lon="5.90889">
        <ele>1399.4</ele>
        <time>2021-02-20T15:19:31Z</time>
      </trkpt>
      <trkpt lat="45.17357" lon="5.9089">
        <ele>1399.2</ele>
        <time>2021-02-20T15:19:32Z</time>
      </trkpt>
      <trkpt lat="45.17358" lon="5.9089">
        <ele>1399</ele>
        <time>2021-02-20T15:19:33Z</time>
      </trkpt>
      <trkpt lat="45.17359" lon="5.90891">
        <ele>1398.8</ele>
        <time>2021-02-20T15:19:34Z</time>
      </trkpt>
      <trkpt lat="45.1736" lon="5.90891">
        <ele>1398.6</ele>
        <time>2021-02-20T15:19:35Z</time>
      </trkpt>
      <trkpt lat="45.1736" lon="5.90891">
        <ele>1398.5</ele>
        <time>2021-02-20T15:19:36Z</time>
      </trkpt>
      <trkpt lat="45.1736" lon="5.90891">
        <ele>1398.4</ele>
        <time>2021-02-20T15:19:37Z</time>
      </trkpt>
      <trkpt lat="45.17361" lon="5.90892">
        <ele>1398.1</ele>
        <time>2021-02-20T15:19:38Z</time>
      </trkpt>
      <trkpt lat="45.17362" lon="5.90892">
        <ele>1397.9</ele>
        <time>2021-02-20T15:19:39Z</time>
      </trkpt>
      <trkpt lat="45.17363" lon="5.90891">
        <ele>1397.7</ele>
        <time>2021-02-20T15:19:40Z</time>
      </trkpt>
      <trkpt lat="45.17363" lon="5.9089">
        <ele>1397.5</ele>
        <time>2021-02-20T15:19:41Z</time>
      </trkpt>
      <trkpt lat="45.17364" lon="5.90889">
        <ele>1397.3</ele>
        <time>2021-02-20T15:19:42Z</time>
      </trkpt>
      <trkpt lat="45.17364" lon="5.90889">
        <ele>1397.3</ele>
        <time>2021-02-20T15:19:43Z</time>
      </trkpt>
      <trkpt lat="45.17365" lon="5.90888">
        <ele>1396.9</ele>
        <time>2021-02-20T15:19:44Z</time>
      </trkpt>
      <trkpt lat="45.17365" lon="5.90887">
        <ele>1396.7</ele>
        <time>2021-02-20T15:19:45Z</time>
      </trkpt>
      <trkpt lat="45.17366" lon="5.90887">
        <ele>1396.5</ele>
        <time>2021-02-20T15:19:46Z</time>
      </trkpt>
      <trkpt lat="45.17367" lon="5.90886">
        <ele>1396.2</ele>
        <time>2021-02-20T15:19:47Z</time>
      </trkpt>
      <trkpt lat="45.17368" lon="5.90885">
        <ele>1396</ele>
        <time>2021-02-20T15:19:48Z</time>
      </trkpt>
      <trkpt lat="45.17368" lon="5.90884">
        <ele>1395.8</ele>
        <time>2021-02-20T15:19:49Z</time>
      </trkpt>
      <trkpt lat="45.17369" lon="5.90884">
        <ele>1395.6</ele>
        <time>2021-02-20T15:19:50Z</time>
      </trkpt>
      <trkpt lat="45.1737" lon="5.90883">
        <ele>1395.4</ele>
        <time>2021-02-20T15:19:51Z</time>
      </trkpt>
      <trkpt lat="45.17371" lon="5.90883">
        <ele>1395.2</ele>
        <time>2021-02-20T15:19:52Z</time>
      </trkpt>
      <trkpt lat="45.17371" lon="5.90882">
        <ele>1394.9</ele>
        <time>2021-02-20T15:19:53Z</time>
      </trkpt>
      <trkpt lat="45.17372" lon="5.90882">
        <ele>1394.8</ele>
        <time>2021-02-20T15:19:54Z</time>
      </trkpt>
      <trkpt lat="45.17373" lon="5.90881">
        <ele>1394.5</ele>
        <time>2021-02-20T15:19:55Z</time>
      </trkpt>
      <trkpt lat="45.17374" lon="5.90881">
        <ele>1394.4</ele>
        <time>2021-02-20T15:19:56Z</time>
      </trkpt>
      <trkpt lat="45.17374" lon="5.9088">
        <ele>1394.2</ele>
        <time>2021-02-20T15:19:57Z</time>
      </trkpt>
      <trkpt lat="45.17375" lon="5.90879">
        <ele>1394</ele>
        <time>2021-02-20T15:19:58Z</time>
      </trkpt>
      <trkpt lat="45.17376" lon="5.90879">
        <ele>1393.8</ele>
        <time>2021-02-20T15:19:59Z</time>
      </trkpt>
      <trkpt lat="45.17377" lon="5.90878">
        <ele>1393.6</ele>
        <time>2021-02-20T15:20:21Z</time>
      </trkpt>
      <trkpt lat="45.17377" lon="5.90878">
        <ele>1393.4</ele>
        <time>2021-02-20T15:20:22Z</time>
      </trkpt>
      <trkpt lat="45.17378" lon="5.90877">
        <ele>1393.3</ele>
        <time>2021-02-20T15:20:23Z</time>
      </trkpt>
      <trkpt lat="45.17379" lon="5.90877">
        <ele>1393.1</ele>
        <time>2021-02-20T15:20:24Z</time>
      </trkpt>
      <trkpt lat="45.1738" lon="5.90878">
        <ele>1392.8</ele>
        <time>2021-02-20T15:20:25Z</time>
      </trkpt>
      <trkpt lat="45.17381" lon="5.90878">
        <ele>1392.7</ele>
        <time>2021-02-20T15:20:26Z</time>
      </trkpt>
      <trkpt lat="45.17382" lon="5.90879">
        <ele>1392.5</ele>
        <time>2021-02-20T15:20:27Z</time>
      </trkpt>
      <trkpt lat="45.17382" lon="5.90879">
        <ele>1392.5</ele>
        <time>2021-02-20T15:20:28Z</time>
      </trkpt>
      <trkpt lat="45.17382" lon="5.90879">
        <ele>1392.4</ele>
        <time>2021-02-20T15:20:29Z</time>
      </trkpt>
      <trkpt lat="45.17383" lon="5.9088">
        <ele>1392.3</ele>
        <time>2021-02-20T15:20:30Z</time>
      </trkpt>
      <trkpt lat="45.17384" lon="5.9088">
        <ele>1392.1</ele>
        <time>2021-02-20T15:20:31Z</time>
      </trkpt>
      <trkpt lat="45.17384" lon="5.9088">
        <ele>1392</ele>
        <time>2021-02-20T15:20:32Z</time>
      </trkpt>
      <trkpt lat="45.17385" lon="5.90881">
        <ele>1391.8</ele>
        <time>2021-02-20T15:20:33Z</time>
      </trkpt>
      <trkpt lat="45.17385" lon="5.90882">
        <ele>1391.8</ele>
        <time>2021-02-20T15:20:34Z</time>
      </trkpt>
      <trkpt lat="45.17386" lon="5.90882">
        <ele>1391.7</ele>
        <time>2021-02-20T15:20:35Z</time>
      </trkpt>
      <trkpt lat="45.17386" lon="5.90882">
        <ele>1391.6</ele>
        <time>2021-02-20T15:20:36Z</time>
      </trkpt>
      <trkpt lat="45.17387" lon="5.90882">
        <ele>1391.5</ele>
        <time>2021-02-20T15:20:37Z</time>
      </trkpt>
      <trkpt lat="45.17387" lon="5.90881">
        <ele>1391.5</ele>
        <time>2021-02-20T15:20:38Z</time>
      </trkpt>
      <trkpt lat="45.17388" lon="5.90881">
        <ele>1391.4</ele>
        <time>2021-02-20T15:20:39Z</time>
      </trkpt>
      <trkpt lat="45.17388" lon="5.90882">
        <ele>1391.3</ele>
        <time>2021-02-20T15:20:40Z</time>
      </trkpt>
      <trkpt lat="45.17389" lon="5.90882">
        <ele>1391.1</ele>
        <time>2021-02-20T15:20:41Z</time>
      </trkpt>
      <trkpt lat="45.1739" lon="5.90883">
        <ele>1391</ele>
        <time>2021-02-20T15:20:42Z</time>
      </trkpt>
      <trkpt lat="45.17391" lon="5.90883">
        <ele>1390.9</ele>
        <time>2021-02-20T15:20:43Z</time>
      </trkpt>
      <trkpt lat="45.17391" lon="5.90884">
        <ele>1390.8</ele>
        <time>2021-02-20T15:20:44Z</time>
      </trkpt>
      <trkpt lat="45.17392" lon="5.90883">
        <ele>1390.7</ele>
        <time>2021-02-20T15:20:45Z</time>
      </trkpt>
      <trkpt lat="45.17393" lon="5.90883">
        <ele>1390.6</ele>
        <time>2021-02-20T15:20:46Z</time>
      </trkpt>
      <trkpt lat="45.17393" lon="5.90883">
        <ele>1390.5</ele>
        <time>2021-02-20T15:20:47Z</time>
      </trkpt>
      <trkpt lat="45.17394" lon="5.90883">
        <ele>1390.4</ele>
        <time>2021-02-20T15:20:48Z</time>
      </trkpt>
      <trkpt lat="45.17395" lon="5.90883">
        <ele>1390.3</ele>
        <time>2021-02-20T15:20:49Z</time>
      </trkpt>
      <trkpt lat="45.17396" lon="5.90883">
        <ele>1390.2</ele>
        <time>2021-02-20T15:20:50Z</time>
      </trkpt>
      <trkpt lat="45.17397" lon="5.90883">
        <ele>1390.1</ele>
        <time>2021-02-20T15:20:51Z</time>
      </trkpt>
      <trkpt lat="45.17398" lon="5.90882">
        <ele>1390</ele>
        <time>2021-02-20T15:20:52Z</time>
      </trkpt>
      <trkpt lat="45.17399" lon="5.90882">
        <ele>1389.8</ele>
        <time>2021-02-20T15:20:53Z</time>
      </trkpt>
      <trkpt lat="45.174" lon="5.90882">
        <ele>1389.8</ele>
        <time>2021-02-20T15:20:54Z</time>
      </trkpt>
      <trkpt lat="45.174" lon="5.90882">
        <ele>1389.7</ele>
        <time>2021-02-20T15:20:55Z</time>
      </trkpt>
      <trkpt lat="45.174" lon="5.90882">
        <ele>1389.7</ele>
        <time>2021-02-20T15:20:56Z</time>
      </trkpt>
      <trkpt lat="45.17401" lon="5.90883">
        <ele>1389.6</ele>
        <time>2021-02-20T15:20:57Z</time>
      </trkpt>
      <trkpt lat="45.17402" lon="5.90883">
        <ele>1389.5</ele>
        <time>2021-02-20T15:20:58Z</time>
      </trkpt>
      <trkpt lat="45.17402" lon="5.90883">
        <ele>1389.5</ele>
        <time>2021-02-20T15:20:59Z</time>
      </trkpt>
      <trkpt lat="45.17403" lon="5.90883">
        <ele>1389.4</ele>
        <time>2021-02-20T15:21:00Z</time>
      </trkpt>
      <trkpt lat="45.17404" lon="5.90883">
        <ele>1389.3</ele>
        <time>2021-02-20T15:21:01Z</time>
      </trkpt>
      <trkpt lat="45.17404" lon="5.90882">
        <ele>1389.2</ele>
        <time>2021-02-20T15:21:02Z</time>
      </trkpt>
      <trkpt lat="45.17405" lon="5.90882">
        <ele>1389.1</ele>
        <time>2021-02-20T15:21:03Z</time>
      </trkpt>
      <trkpt lat="45.17406" lon="5.90882">
        <ele>1389</ele>
        <time>2021-02-20T15:21:04Z</time>
      </trkpt>
      <trkpt lat="45.17406" lon="5.90882">
        <ele>1389</ele>
        <time>2021-02-20T15:21:05Z</time>
      </trkpt>
      <trkpt lat="45.17407" lon="5.90882">
        <ele>1388.9</ele>
        <time>2021-02-20T15:21:06Z</time>
      </trkpt>
      <trkpt lat="45.17407" lon="5.90882">
        <ele>1388.9</ele>
        <time>2021-02-20T15:21:07Z</time>
      </trkpt>
      <trkpt lat="45.17408" lon="5.90882">
        <ele>1388.8</ele>
        <time>2021-02-20T15:21:08Z</time>
      </trkpt>
      <trkpt lat="45.17409" lon="5.90882">
        <ele>1388.7</ele>
        <time>2021-02-20T15:21:09Z</time>
      </trkpt>
      <trkpt lat="45.1741" lon="5.90882">
        <ele>1388.6</ele>
        <time>2021-02-20T15:21:10Z</time>
      </trkpt>
      <trkpt lat="45.1741" lon="5.90882">
        <ele>1388.6</ele>
        <time>2021-02-20T15:21:11Z</time>
      </trkpt>
      <trkpt lat="45.17411" lon="5.90881">
        <ele>1388.5</ele>
        <time>2021-02-20T15:21:12Z</time>
      </trkpt>
      <trkpt lat="45.17412" lon="5.90881">
        <ele>1388.4</ele>
        <time>2021-02-20T15:21:13Z</time>
      </trkpt>
      <trkpt lat="45.17413" lon="5.90881">
        <ele>1388.3</ele>
        <time>2021-02-20T15:21:14Z</time>
      </trkpt>
      <trkpt lat="45.17413" lon="5.9088">
        <ele>1388.3</ele>
        <time>2021-02-20T15:21:15Z</time>
      </trkpt>
      <trkpt lat="45.17415" lon="5.9088">
        <ele>1388.1</ele>
        <time>2021-02-20T15:21:16Z</time>
      </trkpt>
      <trkpt lat="45.17416" lon="5.9088">
        <ele>1388</ele>
        <time>2021-02-20T15:21:17Z</time>
      </trkpt>
      <trkpt lat="45.17417" lon="5.9088">
        <ele>1387.9</ele>
        <time>2021-02-20T15:21:18Z</time>
      </trkpt>
      <trkpt lat="45.17418" lon="5.90881">
        <ele>1387.8</ele>
        <time>2021-02-20T15:21:19Z</time>
      </trkpt>
      <trkpt lat="45.17418" lon="5.90881">
        <ele>1387.7</ele>
        <time>2021-02-20T15:21:20Z</time>
      </trkpt>
      <trkpt lat="45.17419" lon="5.90882">
        <ele>1387.6</ele>
        <time>2021-02-20T15:21:21Z</time>
      </trkpt>
      <trkpt lat="45.1742" lon="5.90882">
        <ele>1387.6</ele>
        <time>2021-02-20T15:21:22Z</time>
      </trkpt>
      <trkpt lat="45.17421" lon="5.90882">
        <ele>1387.5</ele>
        <time>2021-02-20T15:21:23Z</time>
      </trkpt>
      <trkpt lat="45.17421" lon="5.90883">
        <ele>1387.4</ele>
        <time>2021-02-20T15:21:24Z</time>
      </trkpt>
      <trkpt lat="45.17422" lon="5.90883">
        <ele>1387.3</ele>
        <time>2021-02-20T15:21:25Z</time>
      </trkpt>
      <trkpt lat="45.17423" lon="5.90883">
        <ele>1387.2</ele>
        <time>2021-02-20T15:21:26Z</time>
      </trkpt>
      <trkpt lat="45.17424" lon="5.90883">
        <ele>1387.1</ele>
        <time>2021-02-20T15:21:27Z</time>
      </trkpt>
      <trkpt lat="45.17424" lon="5.90883">
        <ele>1387.1</ele>
        <time>2021-02-20T15:21:28Z</time>
      </trkpt>
      <trkpt lat="45.17425" lon="5.90883">
        <ele>1387</ele>
        <time>2021-02-20T15:21:29Z</time>
      </trkpt>
      <trkpt lat="45.17426" lon="5.90883">
        <ele>1386.9</ele>
        <time>2021-02-20T15:21:30Z</time>
      </trkpt>
      <trkpt lat="45.17428" lon="5.90882">
        <ele>1386.7</ele>
        <time>2021-02-20T15:21:31Z</time>
      </trkpt>
      <trkpt lat="45.17429" lon="5.90882">
        <ele>1386.6</ele>
        <time>2021-02-20T15:21:32Z</time>
      </trkpt>
      <trkpt lat="45.17429" lon="5.90882">
        <ele>1386.5</ele>
        <time>2021-02-20T15:21:33Z</time>
      </trkpt>
      <trkpt lat="45.1743" lon="5.90881">
        <ele>1386.4</ele>
        <time>2021-02-20T15:21:34Z</time>
      </trkpt>
      <trkpt lat="45.17431" lon="5.90881">
        <ele>1386.3</ele>
        <time>2021-02-20T15:21:35Z</time>
      </trkpt>
      <trkpt lat="45.17432" lon="5.9088">
        <ele>1386.2</ele>
        <time>2021-02-20T15:21:36Z</time>
      </trkpt>
      <trkpt lat="45.17432" lon="5.9088">
        <ele>1386.1</ele>
        <time>2021-02-20T15:21:37Z</time>
      </trkpt>
      <trkpt lat="45.17432" lon="5.90879">
        <ele>1386</ele>
        <time>2021-02-20T15:21:38Z</time>
      </trkpt>
      <trkpt lat="45.17433" lon="5.90879">
        <ele>1386</ele>
        <time>2021-02-20T15:21:39Z</time>
      </trkpt>
      <trkpt lat="45.17433" lon="5.90879">
        <ele>1385.9</ele>
        <time>2021-02-20T15:21:40Z</time>
      </trkpt>
      <trkpt lat="45.17434" lon="5.90879">
        <ele>1385.8</ele>
        <time>2021-02-20T15:21:41Z</time>
      </trkpt>
      <trkpt lat="45.17434" lon="5.90878">
        <ele>1385.7</ele>
        <time>2021-02-20T15:21:42Z</time>
      </trkpt>
      <trkpt lat="45.17434" lon="5.90878">
        <ele>1385.7</ele>
        <time>2021-02-20T15:21:43Z</time>
      </trkpt>
      <trkpt lat="45.17434" lon="5.90878">
        <ele>1385.7</ele>
        <time>2021-02-20T15:21:44Z</time>
      </trkpt>
      <trkpt lat="45.17436" lon="5.90875">
        <ele>1385.3</ele>
        <time>2021-02-20T15:21:45Z</time>
      </trkpt>
      <trkpt lat="45.17436" lon="5.90874">
        <ele>1385.1</ele>
        <time>2021-02-20T15:21:46Z</time>
      </trkpt>
      <trkpt lat="45.17437" lon="5.90873">
        <ele>1385</ele>
        <time>2021-02-20T15:21:47Z</time>
      </trkpt>
      <trkpt lat="45.17437" lon="5.90872">
        <ele>1384.9</ele>
        <time>2021-02-20T15:21:48Z</time>
      </trkpt>
      <trkpt lat="45.17438" lon="5.90872">
        <ele>1384.7</ele>
        <time>2021-02-20T15:21:49Z</time>
      </trkpt>
      <trkpt lat="45.17439" lon="5.90871">
        <ele>1384.5</ele>
        <time>2021-02-20T15:21:50Z</time>
      </trkpt>
      <trkpt lat="45.17439" lon="5.90871">
        <ele>1384.4</ele>
        <time>2021-02-20T15:21:51Z</time>
      </trkpt>
      <trkpt lat="45.1744" lon="5.90871">
        <ele>1384.4</ele>
        <time>2021-02-20T15:21:52Z</time>
      </trkpt>
      <trkpt lat="45.1744" lon="5.90871">
        <ele>1384.3</ele>
        <time>2021-02-20T15:21:53Z</time>
      </trkpt>
      <trkpt lat="45.1744" lon="5.9087">
        <ele>1384.3</ele>
        <time>2021-02-20T15:21:54Z</time>
      </trkpt>
      <trkpt lat="45.17441" lon="5.9087">
        <ele>1384.2</ele>
        <time>2021-02-20T15:21:55Z</time>
      </trkpt>
      <trkpt lat="45.17441" lon="5.90869">
        <ele>1384</ele>
        <time>2021-02-20T15:21:56Z</time>
      </trkpt>
      <trkpt lat="45.17442" lon="5.90869">
        <ele>1383.8</ele>
        <time>2021-02-20T15:21:57Z</time>
      </trkpt>
      <trkpt lat="45.17443" lon="5.90869">
        <ele>1383.7</ele>
        <time>2021-02-20T15:21:58Z</time>
      </trkpt>
      <trkpt lat="45.17443" lon="5.90869">
        <ele>1383.6</ele>
        <time>2021-02-20T15:21:59Z</time>
      </trkpt>
      <trkpt lat="45.17443" lon="5.90869">
        <ele>1383.6</ele>
        <time>2021-02-20T15:22:00Z</time>
      </trkpt>
      <trkpt lat="45.17444" lon="5.90869">
        <ele>1383.4</ele>
        <time>2021-02-20T15:22:01Z</time>
      </trkpt>
      <trkpt lat="45.17445" lon="5.90868">
        <ele>1383.3</ele>
        <time>2021-02-20T15:22:02Z</time>
      </trkpt>
      <trkpt lat="45.17446" lon="5.90868">
        <ele>1383.1</ele>
        <time>2021-02-20T15:22:03Z</time>
      </trkpt>
      <trkpt lat="45.17447" lon="5.90868">
        <ele>1382.8</ele>
        <time>2021-02-20T15:22:04Z</time>
      </trkpt>
      <trkpt lat="45.17447" lon="5.90867">
        <ele>1382.7</ele>
        <time>2021-02-20T15:22:05Z</time>
      </trkpt>
      <trkpt lat="45.17449" lon="5.90866">
        <ele>1382.2</ele>
        <time>2021-02-20T15:22:06Z</time>
      </trkpt>
      <trkpt lat="45.1745" lon="5.90865">
        <ele>1381.9</ele>
        <time>2021-02-20T15:22:07Z</time>
      </trkpt>
      <trkpt lat="45.17451" lon="5.90864">
        <ele>1381.7</ele>
        <time>2021-02-20T15:22:09Z</time>
      </trkpt>
      <trkpt lat="45.17452" lon="5.90862">
        <ele>1381.4</ele>
        <time>2021-02-20T15:22:10Z</time>
      </trkpt>
      <trkpt lat="45.17453" lon="5.90861">
        <ele>1381.1</ele>
        <time>2021-02-20T15:22:11Z</time>
      </trkpt>
      <trkpt lat="45.17453" lon="5.90861">
        <ele>1381.1</ele>
        <time>2021-02-20T15:22:12Z</time>
      </trkpt>
      <trkpt lat="45.17454" lon="5.9086">
        <ele>1380.8</ele>
        <time>2021-02-20T15:22:13Z</time>
      </trkpt>
      <trkpt lat="45.17455" lon="5.9086">
        <ele>1380.5</ele>
        <time>2021-02-20T15:22:14Z</time>
      </trkpt>
      <trkpt lat="45.17456" lon="5.90859">
        <ele>1380.2</ele>
        <time>2021-02-20T15:22:15Z</time>
      </trkpt>
      <trkpt lat="45.17456" lon="5.90858">
        <ele>1380</ele>
        <time>2021-02-20T15:22:16Z</time>
      </trkpt>
      <trkpt lat="45.17457" lon="5.90857">
        <ele>1379.8</ele>
        <time>2021-02-20T15:22:17Z</time>
      </trkpt>
      <trkpt lat="45.17458" lon="5.90857">
        <ele>1379.6</ele>
        <time>2021-02-20T15:22:18Z</time>
      </trkpt>
      <trkpt lat="45.17459" lon="5.90856">
        <ele>1379.3</ele>
        <time>2021-02-20T15:22:19Z</time>
      </trkpt>
      <trkpt lat="45.1746" lon="5.90856">
        <ele>1379.1</ele>
        <time>2021-02-20T15:22:20Z</time>
      </trkpt>
      <trkpt lat="45.17461" lon="5.90855">
        <ele>1378.8</ele>
        <time>2021-02-20T15:22:21Z</time>
      </trkpt>
      <trkpt lat="45.17462" lon="5.90855">
        <ele>1378.5</ele>
        <time>2021-02-20T15:22:22Z</time>
      </trkpt>
      <trkpt lat="45.17463" lon="5.90855">
        <ele>1378.2</ele>
        <time>2021-02-20T15:22:23Z</time>
      </trkpt>
      <trkpt lat="45.17464" lon="5.90854">
        <ele>1378.1</ele>
        <time>2021-02-20T15:22:24Z</time>
      </trkpt>
      <trkpt lat="45.17464" lon="5.90854">
        <ele>1378.1</ele>
        <time>2021-02-20T15:22:25Z</time>
      </trkpt>
      <trkpt lat="45.17464" lon="5.90854">
        <ele>1377.9</ele>
        <time>2021-02-20T15:22:26Z</time>
      </trkpt>
      <trkpt lat="45.17465" lon="5.90853">
        <ele>1377.7</ele>
        <time>2021-02-20T15:22:27Z</time>
      </trkpt>
      <trkpt lat="45.17466" lon="5.90852">
        <ele>1377.4</ele>
        <time>2021-02-20T15:22:28Z</time>
      </trkpt>
      <trkpt lat="45.17466" lon="5.90852">
        <ele>1377.3</ele>
        <time>2021-02-20T15:22:29Z</time>
      </trkpt>
      <trkpt lat="45.17467" lon="5.90852">
        <ele>1377.1</ele>
        <time>2021-02-20T15:22:30Z</time>
      </trkpt>
      <trkpt lat="45.17468" lon="5.90852">
        <ele>1376.9</ele>
        <time>2021-02-20T15:22:31Z</time>
      </trkpt>
      <trkpt lat="45.17469" lon="5.90852">
        <ele>1376.6</ele>
        <time>2021-02-20T15:22:32Z</time>
      </trkpt>
      <trkpt lat="45.1747" lon="5.90852">
        <ele>1376.4</ele>
        <time>2021-02-20T15:22:33Z</time>
      </trkpt>
      <trkpt lat="45.1747" lon="5.90852">
        <ele>1376.3</ele>
        <time>2021-02-20T15:22:34Z</time>
      </trkpt>
      <trkpt lat="45.17471" lon="5.90852">
        <ele>1376.1</ele>
        <time>2021-02-20T15:22:35Z</time>
      </trkpt>
      <trkpt lat="45.17471" lon="5.90852">
        <ele>1376</ele>
        <time>2021-02-20T15:22:36Z</time>
      </trkpt>
      <trkpt lat="45.17473" lon="5.90852">
        <ele>1375.7</ele>
        <time>2021-02-20T15:22:37Z</time>
      </trkpt>
      <trkpt lat="45.17474" lon="5.90853">
        <ele>1375.4</ele>
        <time>2021-02-20T15:22:38Z</time>
      </trkpt>
      <trkpt lat="45.17474" lon="5.90853">
        <ele>1375.3</ele>
        <time>2021-02-20T15:22:39Z</time>
      </trkpt>
      <trkpt lat="45.17475" lon="5.90853">
        <ele>1375.2</ele>
        <time>2021-02-20T15:22:40Z</time>
      </trkpt>
      <trkpt lat="45.17475" lon="5.90853">
        <ele>1375.1</ele>
        <time>2021-02-20T15:22:41Z</time>
      </trkpt>
      <trkpt lat="45.17476" lon="5.90853">
        <ele>1374.9</ele>
        <time>2021-02-20T15:22:42Z</time>
      </trkpt>
      <trkpt lat="45.17477" lon="5.90853">
        <ele>1374.6</ele>
        <time>2021-02-20T15:22:43Z</time>
      </trkpt>
      <trkpt lat="45.17478" lon="5.90853">
        <ele>1374.5</ele>
        <time>2021-02-20T15:22:44Z</time>
      </trkpt>
      <trkpt lat="45.17478" lon="5.90853">
        <ele>1374.3</ele>
        <time>2021-02-20T15:22:45Z</time>
      </trkpt>
      <trkpt lat="45.17479" lon="5.90853">
        <ele>1374.1</ele>
        <time>2021-02-20T15:22:46Z</time>
      </trkpt>
      <trkpt lat="45.1748" lon="5.90853">
        <ele>1373.8</ele>
        <time>2021-02-20T15:22:47Z</time>
      </trkpt>
      <trkpt lat="45.17482" lon="5.90852">
        <ele>1373.5</ele>
        <time>2021-02-20T15:22:48Z</time>
      </trkpt>
      <trkpt lat="45.17482" lon="5.90851">
        <ele>1373.3</ele>
        <time>2021-02-20T15:22:49Z</time>
      </trkpt>
      <trkpt lat="45.17483" lon="5.9085">
        <ele>1373.1</ele>
        <time>2021-02-20T15:22:50Z</time>
      </trkpt>
      <trkpt lat="45.17484" lon="5.90849">
        <ele>1372.8</ele>
        <time>2021-02-20T15:22:51Z</time>
      </trkpt>
      <trkpt lat="45.17485" lon="5.90847">
        <ele>1372.6</ele>
        <time>2021-02-20T15:22:52Z</time>
      </trkpt>
      <trkpt lat="45.17485" lon="5.90846">
        <ele>1372.3</ele>
        <time>2021-02-20T15:22:53Z</time>
      </trkpt>
      <trkpt lat="45.17486" lon="5.90845">
        <ele>1372.1</ele>
        <time>2021-02-20T15:22:54Z</time>
      </trkpt>
      <trkpt lat="45.17487" lon="5.90844">
        <ele>1371.9</ele>
        <time>2021-02-20T15:22:55Z</time>
      </trkpt>
      <trkpt lat="45.17488" lon="5.90844">
        <ele>1371.7</ele>
        <time>2021-02-20T15:22:56Z</time>
      </trkpt>
      <trkpt lat="45.17488" lon="5.90843">
        <ele>1371.5</ele>
        <time>2021-02-20T15:22:57Z</time>
      </trkpt>
      <trkpt lat="45.17488" lon="5.90842">
        <ele>1371.4</ele>
        <time>2021-02-20T15:22:58Z</time>
      </trkpt>
      <trkpt lat="45.17488" lon="5.90841">
        <ele>1371.3</ele>
        <time>2021-02-20T15:22:59Z</time>
      </trkpt>
      <trkpt lat="45.17488" lon="5.90841">
        <ele>1371.3</ele>
        <time>2021-02-20T15:23:00Z</time>
      </trkpt>
      <trkpt lat="45.17489" lon="5.9084">
        <ele>1371.1</ele>
        <time>2021-02-20T15:23:01Z</time>
      </trkpt>
      <trkpt lat="45.17489" lon="5.90839">
        <ele>1370.9</ele>
        <time>2021-02-20T15:23:02Z</time>
      </trkpt>
      <trkpt lat="45.1749" lon="5.90838">
        <ele>1370.7</ele>
        <time>2021-02-20T15:23:03Z</time>
      </trkpt>
      <trkpt lat="45.17491" lon="5.90837">
        <ele>1370.4</ele>
        <time>2021-02-20T15:23:04Z</time>
      </trkpt>
      <trkpt lat="45.17491" lon="5.90835">
        <ele>1370.1</ele>
        <time>2021-02-20T15:23:05Z</time>
      </trkpt>
      <trkpt lat="45.17492" lon="5.90834">
        <ele>1369.9</ele>
        <time>2021-02-20T15:23:06Z</time>
      </trkpt>
      <trkpt lat="45.17492" lon="5.90834">
        <ele>1369.8</ele>
        <time>2021-02-20T15:23:07Z</time>
      </trkpt>
      <trkpt lat="45.17491" lon="5.90833">
        <ele>1369.6</ele>
        <time>2021-02-20T15:23:08Z</time>
      </trkpt>
      <trkpt lat="45.17491" lon="5.90831">
        <ele>1369.4</ele>
        <time>2021-02-20T15:23:09Z</time>
      </trkpt>
      <trkpt lat="45.17491" lon="5.9083">
        <ele>1369.1</ele>
        <time>2021-02-20T15:23:10Z</time>
      </trkpt>
      <trkpt lat="45.17491" lon="5.90829">
        <ele>1368.9</ele>
        <time>2021-02-20T15:23:11Z</time>
      </trkpt>
      <trkpt lat="45.17492" lon="5.90827">
        <ele>1368.6</ele>
        <time>2021-02-20T15:23:12Z</time>
      </trkpt>
      <trkpt lat="45.17491" lon="5.90826">
        <ele>1368.3</ele>
        <time>2021-02-20T15:23:13Z</time>
      </trkpt>
      <trkpt lat="45.17491" lon="5.90824">
        <ele>1368</ele>
        <time>2021-02-20T15:23:14Z</time>
      </trkpt>
      <trkpt lat="45.17491" lon="5.90823">
        <ele>1367.7</ele>
        <time>2021-02-20T15:23:15Z</time>
      </trkpt>
      <trkpt lat="45.1749" lon="5.90823">
        <ele>1367.6</ele>
        <time>2021-02-20T15:23:16Z</time>
      </trkpt>
      <trkpt lat="45.1749" lon="5.90822">
        <ele>1367.4</ele>
        <time>2021-02-20T15:23:17Z</time>
      </trkpt>
      <trkpt lat="45.1749" lon="5.9082">
        <ele>1367.1</ele>
        <time>2021-02-20T15:23:18Z</time>
      </trkpt>
      <trkpt lat="45.17489" lon="5.90819">
        <ele>1366.7</ele>
        <time>2021-02-20T15:23:19Z</time>
      </trkpt>
      <trkpt lat="45.17489" lon="5.90818">
        <ele>1366.5</ele>
        <time>2021-02-20T15:23:20Z</time>
      </trkpt>
      <trkpt lat="45.17489" lon="5.90817">
        <ele>1366.3</ele>
        <time>2021-02-20T15:23:21Z</time>
      </trkpt>
      <trkpt lat="45.17489" lon="5.90816">
        <ele>1366.1</ele>
        <time>2021-02-20T15:23:22Z</time>
      </trkpt>
      <trkpt lat="45.17489" lon="5.90815">
        <ele>1365.8</ele>
        <time>2021-02-20T15:23:23Z</time>
      </trkpt>
      <trkpt lat="45.1749" lon="5.90813">
        <ele>1365.5</ele>
        <time>2021-02-20T15:23:24Z</time>
      </trkpt>
      <trkpt lat="45.1749" lon="5.90812">
        <ele>1365.2</ele>
        <time>2021-02-20T15:23:25Z</time>
      </trkpt>
      <trkpt lat="45.1749" lon="5.9081">
        <ele>1364.9</ele>
        <time>2021-02-20T15:23:26Z</time>
      </trkpt>
      <trkpt lat="45.17489" lon="5.90809">
        <ele>1364.6</ele>
        <time>2021-02-20T15:23:27Z</time>
      </trkpt>
      <trkpt lat="45.17489" lon="5.90807">
        <ele>1364.3</ele>
        <time>2021-02-20T15:23:28Z</time>
      </trkpt>
      <trkpt lat="45.17489" lon="5.90806">
        <ele>1363.9</ele>
        <time>2021-02-20T15:23:29Z</time>
      </trkpt>
      <trkpt lat="45.17489" lon="5.90804">
        <ele>1363.7</ele>
        <time>2021-02-20T15:23:30Z</time>
      </trkpt>
      <trkpt lat="45.17489" lon="5.90803">
        <ele>1363.5</ele>
        <time>2021-02-20T15:23:31Z</time>
      </trkpt>
      <trkpt lat="45.17489" lon="5.90802">
        <ele>1363.3</ele>
        <time>2021-02-20T15:23:32Z</time>
      </trkpt>
      <trkpt lat="45.17489" lon="5.90801">
        <ele>1363.1</ele>
        <time>2021-02-20T15:23:33Z</time>
      </trkpt>
      <trkpt lat="45.17488" lon="5.908">
        <ele>1362.8</ele>
        <time>2021-02-20T15:23:34Z</time>
      </trkpt>
      <trkpt lat="45.17488" lon="5.90799">
        <ele>1362.6</ele>
        <time>2021-02-20T15:23:35Z</time>
      </trkpt>
      <trkpt lat="45.17487" lon="5.90798">
        <ele>1362.3</ele>
        <time>2021-02-20T15:23:36Z</time>
      </trkpt>
      <trkpt lat="45.17486" lon="5.90797">
        <ele>1362</ele>
        <time>2021-02-20T15:23:37Z</time>
      </trkpt>
      <trkpt lat="45.17485" lon="5.90796">
        <ele>1361.8</ele>
        <time>2021-02-20T15:23:38Z</time>
      </trkpt>
      <trkpt lat="45.17485" lon="5.90794">
        <ele>1361.7</ele>
        <time>2021-02-20T15:23:39Z</time>
      </trkpt>
      <trkpt lat="45.17485" lon="5.90793">
        <ele>1361.4</ele>
        <time>2021-02-20T15:23:40Z</time>
      </trkpt>
      <trkpt lat="45.17485" lon="5.90792">
        <ele>1361.3</ele>
        <time>2021-02-20T15:23:41Z</time>
      </trkpt>
      <trkpt lat="45.17486" lon="5.9079">
        <ele>1361</ele>
        <time>2021-02-20T15:23:42Z</time>
      </trkpt>
      <trkpt lat="45.17485" lon="5.90789">
        <ele>1360.8</ele>
        <time>2021-02-20T15:23:43Z</time>
      </trkpt>
      <trkpt lat="45.17486" lon="5.90787">
        <ele>1360.5</ele>
        <time>2021-02-20T15:23:44Z</time>
      </trkpt>
      <trkpt lat="45.17486" lon="5.90786">
        <ele>1360.3</ele>
        <time>2021-02-20T15:23:45Z</time>
      </trkpt>
      <trkpt lat="45.17486" lon="5.90784">
        <ele>1360.1</ele>
        <time>2021-02-20T15:23:46Z</time>
      </trkpt>
      <trkpt lat="45.17486" lon="5.90782">
        <ele>1359.9</ele>
        <time>2021-02-20T15:23:47Z</time>
      </trkpt>
      <trkpt lat="45.17486" lon="5.90781">
        <ele>1359.7</ele>
        <time>2021-02-20T15:23:48Z</time>
      </trkpt>
      <trkpt lat="45.17486" lon="5.9078">
        <ele>1359.5</ele>
        <time>2021-02-20T15:23:49Z</time>
      </trkpt>
      <trkpt lat="45.17485" lon="5.90779">
        <ele>1359.3</ele>
        <time>2021-02-20T15:23:50Z</time>
      </trkpt>
      <trkpt lat="45.17485" lon="5.90778">
        <ele>1359.2</ele>
        <time>2021-02-20T15:23:51Z</time>
      </trkpt>
      <trkpt lat="45.17485" lon="5.90777">
        <ele>1359.1</ele>
        <time>2021-02-20T15:23:52Z</time>
      </trkpt>
      <trkpt lat="45.17485" lon="5.90776">
        <ele>1358.9</ele>
        <time>2021-02-20T15:23:53Z</time>
      </trkpt>
      <trkpt lat="45.17484" lon="5.90775">
        <ele>1358.8</ele>
        <time>2021-02-20T15:23:54Z</time>
      </trkpt>
      <trkpt lat="45.17483" lon="5.90775">
        <ele>1358.5</ele>
        <time>2021-02-20T15:23:55Z</time>
      </trkpt>
      <trkpt lat="45.17483" lon="5.90774">
        <ele>1358.4</ele>
        <time>2021-02-20T15:23:56Z</time>
      </trkpt>
      <trkpt lat="45.17482" lon="5.90774">
        <ele>1358.2</ele>
        <time>2021-02-20T15:23:57Z</time>
      </trkpt>
      <trkpt lat="45.17482" lon="5.90773">
        <ele>1358.1</ele>
        <time>2021-02-20T15:23:58Z</time>
      </trkpt>
      <trkpt lat="45.17481" lon="5.90772">
        <ele>1358</ele>
        <time>2021-02-20T15:23:59Z</time>
      </trkpt>
      <trkpt lat="45.1748" lon="5.90772">
        <ele>1357.8</ele>
        <time>2021-02-20T15:24:00Z</time>
      </trkpt>
      <trkpt lat="45.1748" lon="5.90771">
        <ele>1357.6</ele>
        <time>2021-02-20T15:24:01Z</time>
      </trkpt>
      <trkpt lat="45.17479" lon="5.90771">
        <ele>1357.4</ele>
        <time>2021-02-20T15:24:02Z</time>
      </trkpt>
      <trkpt lat="45.17478" lon="5.9077">
        <ele>1357.1</ele>
        <time>2021-02-20T15:24:03Z</time>
      </trkpt>
      <trkpt lat="45.17477" lon="5.90769">
        <ele>1356.9</ele>
        <time>2021-02-20T15:24:04Z</time>
      </trkpt>
      <trkpt lat="45.17476" lon="5.90769">
        <ele>1356.6</ele>
        <time>2021-02-20T15:24:05Z</time>
      </trkpt>
      <trkpt lat="45.17475" lon="5.90768">
        <ele>1356.3</ele>
        <time>2021-02-20T15:24:06Z</time>
      </trkpt>
      <trkpt lat="45.17474" lon="5.90768">
        <ele>1356.1</ele>
        <time>2021-02-20T15:24:07Z</time>
      </trkpt>
      <trkpt lat="45.17473" lon="5.90767">
        <ele>1355.9</ele>
        <time>2021-02-20T15:24:08Z</time>
      </trkpt>
      <trkpt lat="45.17472" lon="5.90767">
        <ele>1355.7</ele>
        <time>2021-02-20T15:24:09Z</time>
      </trkpt>
      <trkpt lat="45.17472" lon="5.90766">
        <ele>1355.5</ele>
        <time>2021-02-20T15:24:10Z</time>
      </trkpt>
      <trkpt lat="45.17472" lon="5.90765">
        <ele>1355.3</ele>
        <time>2021-02-20T15:24:11Z</time>
      </trkpt>
      <trkpt lat="45.17472" lon="5.90764">
        <ele>1355.1</ele>
        <time>2021-02-20T15:24:12Z</time>
      </trkpt>
      <trkpt lat="45.17472" lon="5.90763">
        <ele>1355</ele>
        <time>2021-02-20T15:24:13Z</time>
      </trkpt>
      <trkpt lat="45.17473" lon="5.90763">
        <ele>1354.8</ele>
        <time>2021-02-20T15:24:14Z</time>
      </trkpt>
      <trkpt lat="45.17473" lon="5.90762">
        <ele>1354.6</ele>
        <time>2021-02-20T15:24:15Z</time>
      </trkpt>
      <trkpt lat="45.17474" lon="5.90762">
        <ele>1354.5</ele>
        <time>2021-02-20T15:24:16Z</time>
      </trkpt>
      <trkpt lat="45.17474" lon="5.90761">
        <ele>1354.3</ele>
        <time>2021-02-20T15:24:17Z</time>
      </trkpt>
      <trkpt lat="45.17474" lon="5.9076">
        <ele>1354.1</ele>
        <time>2021-02-20T15:24:18Z</time>
      </trkpt>
      <trkpt lat="45.17474" lon="5.90759">
        <ele>1354</ele>
        <time>2021-02-20T15:24:19Z</time>
      </trkpt>
      <trkpt lat="45.17474" lon="5.90759">
        <ele>1353.8</ele>
        <time>2021-02-20T15:24:20Z</time>
      </trkpt>
      <trkpt lat="45.17474" lon="5.90758">
        <ele>1353.7</ele>
        <time>2021-02-20T15:24:21Z</time>
      </trkpt>
      <trkpt lat="45.17474" lon="5.90758">
        <ele>1353.6</ele>
        <time>2021-02-20T15:24:22Z</time>
      </trkpt>
      <trkpt lat="45.17474" lon="5.90757">
        <ele>1353.6</ele>
        <time>2021-02-20T15:24:23Z</time>
      </trkpt>
      <trkpt lat="45.17475" lon="5.90757">
        <ele>1353.5</ele>
        <time>2021-02-20T15:24:24Z</time>
      </trkpt>
      <trkpt lat="45.17475" lon="5.90757">
        <ele>1353.4</ele>
        <time>2021-02-20T15:24:25Z</time>
      </trkpt>
      <trkpt lat="45.17475" lon="5.90756">
        <ele>1353.3</ele>
        <time>2021-02-20T15:24:26Z</time>
      </trkpt>
      <trkpt lat="45.17475" lon="5.90755">
        <ele>1353.1</ele>
        <time>2021-02-20T15:24:27Z</time>
      </trkpt>
      <trkpt lat="45.17475" lon="5.90754">
        <ele>1352.9</ele>
        <time>2021-02-20T15:24:28Z</time>
      </trkpt>
      <trkpt lat="45.17475" lon="5.90753">
        <ele>1352.7</ele>
        <time>2021-02-20T15:24:29Z</time>
      </trkpt>
      <trkpt lat="45.17475" lon="5.90752">
        <ele>1352.5</ele>
        <time>2021-02-20T15:24:30Z</time>
      </trkpt>
      <trkpt lat="45.17475" lon="5.90752">
        <ele>1352.4</ele>
        <time>2021-02-20T15:24:31Z</time>
      </trkpt>
      <trkpt lat="45.17476" lon="5.90752">
        <ele>1352.3</ele>
        <time>2021-02-20T15:24:32Z</time>
      </trkpt>
      <trkpt lat="45.17476" lon="5.90751">
        <ele>1352.2</ele>
        <time>2021-02-20T15:24:33Z</time>
      </trkpt>
      <trkpt lat="45.17477" lon="5.90751">
        <ele>1352</ele>
        <time>2021-02-20T15:24:34Z</time>
      </trkpt>
      <trkpt lat="45.17477" lon="5.90751">
        <ele>1351.8</ele>
        <time>2021-02-20T15:24:35Z</time>
      </trkpt>
      <trkpt lat="45.17478" lon="5.9075">
        <ele>1351.7</ele>
        <time>2021-02-20T15:24:36Z</time>
      </trkpt>
      <trkpt lat="45.17478" lon="5.90749">
        <ele>1351.5</ele>
        <time>2021-02-20T15:24:37Z</time>
      </trkpt>
      <trkpt lat="45.17478" lon="5.90749">
        <ele>1351.4</ele>
        <time>2021-02-20T15:24:38Z</time>
      </trkpt>
      <trkpt lat="45.17478" lon="5.90748">
        <ele>1351.3</ele>
        <time>2021-02-20T15:24:39Z</time>
      </trkpt>
      <trkpt lat="45.17478" lon="5.90747">
        <ele>1351.1</ele>
        <time>2021-02-20T15:24:40Z</time>
      </trkpt>
      <trkpt lat="45.17478" lon="5.90747">
        <ele>1351</ele>
        <time>2021-02-20T15:24:41Z</time>
      </trkpt>
      <trkpt lat="45.17478" lon="5.90746">
        <ele>1350.9</ele>
        <time>2021-02-20T15:24:42Z</time>
      </trkpt>
      <trkpt lat="45.17479" lon="5.90746">
        <ele>1350.7</ele>
        <time>2021-02-20T15:24:43Z</time>
      </trkpt>
      <trkpt lat="45.1748" lon="5.90743">
        <ele>1350.1</ele>
        <time>2021-02-20T15:24:44Z</time>
      </trkpt>
      <trkpt lat="45.17481" lon="5.90742">
        <ele>1349.8</ele>
        <time>2021-02-20T15:24:45Z</time>
      </trkpt>
      <trkpt lat="45.17482" lon="5.90741">
        <ele>1349.6</ele>
        <time>2021-02-20T15:24:46Z</time>
      </trkpt>
      <trkpt lat="45.17482" lon="5.9074">
        <ele>1349.3</ele>
        <time>2021-02-20T15:24:47Z</time>
      </trkpt>
      <trkpt lat="45.17483" lon="5.90739">
        <ele>1349</ele>
        <time>2021-02-20T15:24:48Z</time>
      </trkpt>
      <trkpt lat="45.17483" lon="5.90738">
        <ele>1348.8</ele>
        <time>2021-02-20T15:24:49Z</time>
      </trkpt>
      <trkpt lat="45.17484" lon="5.90737">
        <ele>1348.5</ele>
        <time>2021-02-20T15:24:50Z</time>
      </trkpt>
      <trkpt lat="45.17485" lon="5.90736">
        <ele>1348.2</ele>
        <time>2021-02-20T15:24:51Z</time>
      </trkpt>
      <trkpt lat="45.17485" lon="5.90736">
        <ele>1348.1</ele>
        <time>2021-02-20T15:24:52Z</time>
      </trkpt>
      <trkpt lat="45.17486" lon="5.90735">
        <ele>1347.8</ele>
        <time>2021-02-20T15:24:53Z</time>
      </trkpt>
      <trkpt lat="45.17487" lon="5.90735">
        <ele>1347.6</ele>
        <time>2021-02-20T15:24:54Z</time>
      </trkpt>
      <trkpt lat="45.17488" lon="5.90734">
        <ele>1345.6</ele>
        <time>2021-02-20T15:24:55Z</time>
      </trkpt>
      <trkpt lat="45.17489" lon="5.90734">
        <ele>1345.5</ele>
        <time>2021-02-20T15:24:56Z</time>
      </trkpt>
      <trkpt lat="45.1749" lon="5.90733">
        <ele>1345.4</ele>
        <time>2021-02-20T15:24:57Z</time>
      </trkpt>
      <trkpt lat="45.17491" lon="5.90733">
        <ele>1345.3</ele>
        <time>2021-02-20T15:24:58Z</time>
      </trkpt>
      <trkpt lat="45.17492" lon="5.90733">
        <ele>1345.2</ele>
        <time>2021-02-20T15:24:59Z</time>
      </trkpt>
      <trkpt lat="45.17493" lon="5.90733">
        <ele>1345.1</ele>
        <time>2021-02-20T15:25:00Z</time>
      </trkpt>
      <trkpt lat="45.17494" lon="5.90733">
        <ele>1345.1</ele>
        <time>2021-02-20T15:25:01Z</time>
      </trkpt>
      <trkpt lat="45.17494" lon="5.90732">
        <ele>1345</ele>
        <time>2021-02-20T15:25:02Z</time>
      </trkpt>
      <trkpt lat="45.17495" lon="5.90731">
        <ele>1344.9</ele>
        <time>2021-02-20T15:25:03Z</time>
      </trkpt>
      <trkpt lat="45.17496" lon="5.9073">
        <ele>1344.8</ele>
        <time>2021-02-20T15:25:04Z</time>
      </trkpt>
      <trkpt lat="45.17496" lon="5.90729">
        <ele>1344.7</ele>
        <time>2021-02-20T15:25:05Z</time>
      </trkpt>
      <trkpt lat="45.17496" lon="5.90727">
        <ele>1344.6</ele>
        <time>2021-02-20T15:25:06Z</time>
      </trkpt>
      <trkpt lat="45.17496" lon="5.90726">
        <ele>1344.6</ele>
        <time>2021-02-20T15:25:07Z</time>
      </trkpt>
      <trkpt lat="45.17497" lon="5.90725">
        <ele>1344.5</ele>
        <time>2021-02-20T15:25:08Z</time>
      </trkpt>
      <trkpt lat="45.17497" lon="5.90724">
        <ele>1344.4</ele>
        <time>2021-02-20T15:25:09Z</time>
      </trkpt>
      <trkpt lat="45.17497" lon="5.90724">
        <ele>1344.4</ele>
        <time>2021-02-20T15:25:10Z</time>
      </trkpt>
      <trkpt lat="45.17497" lon="5.90723">
        <ele>1344.3</ele>
        <time>2021-02-20T15:25:11Z</time>
      </trkpt>
      <trkpt lat="45.17497" lon="5.90723">
        <ele>1344.3</ele>
        <time>2021-02-20T15:25:12Z</time>
      </trkpt>
      <trkpt lat="45.17497" lon="5.90722">
        <ele>1344.3</ele>
        <time>2021-02-20T15:25:13Z</time>
      </trkpt>
      <trkpt lat="45.17497" lon="5.90722">
        <ele>1344.2</ele>
        <time>2021-02-20T15:25:14Z</time>
      </trkpt>
      <trkpt lat="45.17496" lon="5.90721">
        <ele>1344.2</ele>
        <time>2021-02-20T15:25:15Z</time>
      </trkpt>
      <trkpt lat="45.17496" lon="5.90721">
        <ele>1344.2</ele>
        <time>2021-02-20T15:25:16Z</time>
      </trkpt>
      <trkpt lat="45.17496" lon="5.90721">
        <ele>1344.1</ele>
        <time>2021-02-20T15:25:17Z</time>
      </trkpt>
      <trkpt lat="45.17495" lon="5.9072">
        <ele>1344.1</ele>
        <time>2021-02-20T15:25:18Z</time>
      </trkpt>
      <trkpt lat="45.17495" lon="5.9072">
        <ele>1344.1</ele>
        <time>2021-02-20T15:25:19Z</time>
      </trkpt>
      <trkpt lat="45.17495" lon="5.9072">
        <ele>1344</ele>
        <time>2021-02-20T15:25:20Z</time>
      </trkpt>
      <trkpt lat="45.17495" lon="5.90719">
        <ele>1344</ele>
        <time>2021-02-20T15:25:21Z</time>
      </trkpt>
      <trkpt lat="45.17493" lon="5.9072">
        <ele>1343.9</ele>
        <time>2021-02-20T15:25:22Z</time>
      </trkpt>
      <trkpt lat="45.17492" lon="5.9072">
        <ele>1343.7</ele>
        <time>2021-02-20T15:26:43Z</time>
      </trkpt>
      <trkpt lat="45.17491" lon="5.9072">
        <ele>1343.6</ele>
        <time>2021-02-20T15:26:44Z</time>
      </trkpt>
      <trkpt lat="45.17492" lon="5.90719">
        <ele>1343.5</ele>
        <time>2021-02-20T15:26:45Z</time>
      </trkpt>
      <trkpt lat="45.17493" lon="5.90719">
        <ele>1343.4</ele>
        <time>2021-02-20T15:26:46Z</time>
      </trkpt>
      <trkpt lat="45.17495" lon="5.90718">
        <ele>1343.3</ele>
        <time>2021-02-20T15:26:47Z</time>
      </trkpt>
      <trkpt lat="45.17496" lon="5.90718">
        <ele>1343.1</ele>
        <time>2021-02-20T15:26:48Z</time>
      </trkpt>
      <trkpt lat="45.17498" lon="5.90718">
        <ele>1343</ele>
        <time>2021-02-20T15:26:49Z</time>
      </trkpt>
      <trkpt lat="45.17499" lon="5.90718">
        <ele>1342.9</ele>
        <time>2021-02-20T15:26:50Z</time>
      </trkpt>
      <trkpt lat="45.17501" lon="5.90718">
        <ele>1342.7</ele>
        <time>2021-02-20T15:26:51Z</time>
      </trkpt>
      <trkpt lat="45.17502" lon="5.90717">
        <ele>1342.6</ele>
        <time>2021-02-20T15:26:52Z</time>
      </trkpt>
      <trkpt lat="45.17504" lon="5.90717">
        <ele>1342.4</ele>
        <time>2021-02-20T15:26:53Z</time>
      </trkpt>
      <trkpt lat="45.17505" lon="5.90718">
        <ele>1342.3</ele>
        <time>2021-02-20T15:26:54Z</time>
      </trkpt>
      <trkpt lat="45.17507" lon="5.90718">
        <ele>1342.2</ele>
        <time>2021-02-20T15:26:55Z</time>
      </trkpt>
      <trkpt lat="45.17508" lon="5.90718">
        <ele>1342.1</ele>
        <time>2021-02-20T15:26:56Z</time>
      </trkpt>
      <trkpt lat="45.17509" lon="5.90718">
        <ele>1342</ele>
        <time>2021-02-20T15:26:57Z</time>
      </trkpt>
      <trkpt lat="45.17511" lon="5.90718">
        <ele>1341.8</ele>
        <time>2021-02-20T15:26:58Z</time>
      </trkpt>
      <trkpt lat="45.17513" lon="5.90717">
        <ele>1341.7</ele>
        <time>2021-02-20T15:26:59Z</time>
      </trkpt>
      <trkpt lat="45.17514" lon="5.90717">
        <ele>1341.6</ele>
        <time>2021-02-20T15:27:00Z</time>
      </trkpt>
      <trkpt lat="45.17515" lon="5.90717">
        <ele>1341.5</ele>
        <time>2021-02-20T15:27:01Z</time>
      </trkpt>
      <trkpt lat="45.17516" lon="5.90718">
        <ele>1341.4</ele>
        <time>2021-02-20T15:27:02Z</time>
      </trkpt>
      <trkpt lat="45.17518" lon="5.90718">
        <ele>1341.2</ele>
        <time>2021-02-20T15:27:03Z</time>
      </trkpt>
      <trkpt lat="45.17519" lon="5.90718">
        <ele>1341.1</ele>
        <time>2021-02-20T15:27:04Z</time>
      </trkpt>
      <trkpt lat="45.1752" lon="5.90719">
        <ele>1341</ele>
        <time>2021-02-20T15:27:05Z</time>
      </trkpt>
      <trkpt lat="45.17521" lon="5.90719">
        <ele>1340.9</ele>
        <time>2021-02-20T15:27:06Z</time>
      </trkpt>
      <trkpt lat="45.17522" lon="5.9072">
        <ele>1340.8</ele>
        <time>2021-02-20T15:27:07Z</time>
      </trkpt>
      <trkpt lat="45.17523" lon="5.90721">
        <ele>1340.7</ele>
        <time>2021-02-20T15:27:08Z</time>
      </trkpt>
      <trkpt lat="45.17524" lon="5.90721">
        <ele>1340.6</ele>
        <time>2021-02-20T15:27:09Z</time>
      </trkpt>
      <trkpt lat="45.17524" lon="5.90722">
        <ele>1340.6</ele>
        <time>2021-02-20T15:27:10Z</time>
      </trkpt>
      <trkpt lat="45.17525" lon="5.90722">
        <ele>1340.5</ele>
        <time>2021-02-20T15:27:11Z</time>
      </trkpt>
      <trkpt lat="45.17526" lon="5.90722">
        <ele>1340.4</ele>
        <time>2021-02-20T15:27:12Z</time>
      </trkpt>
      <trkpt lat="45.17528" lon="5.90723">
        <ele>1340.2</ele>
        <time>2021-02-20T15:27:13Z</time>
      </trkpt>
      <trkpt lat="45.17529" lon="5.90723">
        <ele>1340.2</ele>
        <time>2021-02-20T15:27:14Z</time>
      </trkpt>
      <trkpt lat="45.1753" lon="5.90723">
        <ele>1340.1</ele>
        <time>2021-02-20T15:27:15Z</time>
      </trkpt>
      <trkpt lat="45.17531" lon="5.90723">
        <ele>1340</ele>
        <time>2021-02-20T15:27:16Z</time>
      </trkpt>
      <trkpt lat="45.17532" lon="5.90723">
        <ele>1339.9</ele>
        <time>2021-02-20T15:27:17Z</time>
      </trkpt>
      <trkpt lat="45.17533" lon="5.90724">
        <ele>1339.7</ele>
        <time>2021-02-20T15:27:18Z</time>
      </trkpt>
      <trkpt lat="45.17534" lon="5.90725">
        <ele>1339.6</ele>
        <time>2021-02-20T15:27:19Z</time>
      </trkpt>
      <trkpt lat="45.17535" lon="5.90725">
        <ele>1339.6</ele>
        <time>2021-02-20T15:27:20Z</time>
      </trkpt>
      <trkpt lat="45.17535" lon="5.90726">
        <ele>1339.5</ele>
        <time>2021-02-20T15:27:21Z</time>
      </trkpt>
      <trkpt lat="45.17535" lon="5.90727">
        <ele>1339.4</ele>
        <time>2021-02-20T15:27:22Z</time>
      </trkpt>
      <trkpt lat="45.17536" lon="5.90728">
        <ele>1339.4</ele>
        <time>2021-02-20T15:27:23Z</time>
      </trkpt>
      <trkpt lat="45.17536" lon="5.90729">
        <ele>1339.3</ele>
        <time>2021-02-20T15:27:24Z</time>
      </trkpt>
      <trkpt lat="45.17537" lon="5.90729">
        <ele>1339.2</ele>
        <time>2021-02-20T15:27:25Z</time>
      </trkpt>
      <trkpt lat="45.17538" lon="5.90729">
        <ele>1339.1</ele>
        <time>2021-02-20T15:27:26Z</time>
      </trkpt>
      <trkpt lat="45.1754" lon="5.9073">
        <ele>1339</ele>
        <time>2021-02-20T15:27:27Z</time>
      </trkpt>
      <trkpt lat="45.17541" lon="5.9073">
        <ele>1338.9</ele>
        <time>2021-02-20T15:27:28Z</time>
      </trkpt>
      <trkpt lat="45.17542" lon="5.9073">
        <ele>1338.8</ele>
        <time>2021-02-20T15:27:29Z</time>
      </trkpt>
      <trkpt lat="45.17544" lon="5.9073">
        <ele>1338.6</ele>
        <time>2021-02-20T15:27:30Z</time>
      </trkpt>
      <trkpt lat="45.17545" lon="5.90731">
        <ele>1338.5</ele>
        <time>2021-02-20T15:27:31Z</time>
      </trkpt>
      <trkpt lat="45.17546" lon="5.90731">
        <ele>1338.4</ele>
        <time>2021-02-20T15:27:32Z</time>
      </trkpt>
      <trkpt lat="45.17547" lon="5.90732">
        <ele>1338.3</ele>
        <time>2021-02-20T15:27:33Z</time>
      </trkpt>
      <trkpt lat="45.17548" lon="5.90732">
        <ele>1338.2</ele>
        <time>2021-02-20T15:27:34Z</time>
      </trkpt>
      <trkpt lat="45.17549" lon="5.90732">
        <ele>1338.1</ele>
        <time>2021-02-20T15:27:35Z</time>
      </trkpt>
      <trkpt lat="45.17551" lon="5.90732">
        <ele>1338</ele>
        <time>2021-02-20T15:27:36Z</time>
      </trkpt>
      <trkpt lat="45.17552" lon="5.90732">
        <ele>1337.9</ele>
        <time>2021-02-20T15:27:37Z</time>
      </trkpt>
      <trkpt lat="45.17552" lon="5.90732">
        <ele>1337.9</ele>
        <time>2021-02-20T15:27:38Z</time>
      </trkpt>
      <trkpt lat="45.17553" lon="5.90732">
        <ele>1337.8</ele>
        <time>2021-02-20T15:27:39Z</time>
      </trkpt>
      <trkpt lat="45.17554" lon="5.90732">
        <ele>1337.7</ele>
        <time>2021-02-20T15:27:40Z</time>
      </trkpt>
      <trkpt lat="45.17555" lon="5.90732">
        <ele>1337.6</ele>
        <time>2021-02-20T15:27:41Z</time>
      </trkpt>
      <trkpt lat="45.17556" lon="5.90732">
        <ele>1337.5</ele>
        <time>2021-02-20T15:27:42Z</time>
      </trkpt>
      <trkpt lat="45.17558" lon="5.90732">
        <ele>1337.4</ele>
        <time>2021-02-20T15:27:43Z</time>
      </trkpt>
      <trkpt lat="45.17559" lon="5.90733">
        <ele>1337.3</ele>
        <time>2021-02-20T15:27:44Z</time>
      </trkpt>
      <trkpt lat="45.1756" lon="5.90733">
        <ele>1337.2</ele>
        <time>2021-02-20T15:27:45Z</time>
      </trkpt>
      <trkpt lat="45.17561" lon="5.90734">
        <ele>1337.1</ele>
        <time>2021-02-20T15:27:46Z</time>
      </trkpt>
      <trkpt lat="45.17562" lon="5.90734">
        <ele>1337</ele>
        <time>2021-02-20T15:27:47Z</time>
      </trkpt>
      <trkpt lat="45.17563" lon="5.90735">
        <ele>1336.9</ele>
        <time>2021-02-20T15:27:48Z</time>
      </trkpt>
      <trkpt lat="45.17565" lon="5.90736">
        <ele>1336.8</ele>
        <time>2021-02-20T15:27:49Z</time>
      </trkpt>
      <trkpt lat="45.17566" lon="5.90736">
        <ele>1336.7</ele>
        <time>2021-02-20T15:27:50Z</time>
      </trkpt>
      <trkpt lat="45.17567" lon="5.90737">
        <ele>1336.6</ele>
        <time>2021-02-20T15:27:51Z</time>
      </trkpt>
      <trkpt lat="45.17568" lon="5.90737">
        <ele>1336.5</ele>
        <time>2021-02-20T15:27:52Z</time>
      </trkpt>
      <trkpt lat="45.17569" lon="5.90738">
        <ele>1336.4</ele>
        <time>2021-02-20T15:27:53Z</time>
      </trkpt>
      <trkpt lat="45.17571" lon="5.90738">
        <ele>1336.3</ele>
        <time>2021-02-20T15:27:54Z</time>
      </trkpt>
      <trkpt lat="45.17571" lon="5.90738">
        <ele>1336.3</ele>
        <time>2021-02-20T15:27:55Z</time>
      </trkpt>
      <trkpt lat="45.17572" lon="5.90739">
        <ele>1336.2</ele>
        <time>2021-02-20T15:27:56Z</time>
      </trkpt>
      <trkpt lat="45.17574" lon="5.9074">
        <ele>1336.1</ele>
        <time>2021-02-20T15:27:57Z</time>
      </trkpt>
      <trkpt lat="45.17575" lon="5.90741">
        <ele>1336</ele>
        <time>2021-02-20T15:27:58Z</time>
      </trkpt>
      <trkpt lat="45.17576" lon="5.90741">
        <ele>1335.9</ele>
        <time>2021-02-20T15:27:59Z</time>
      </trkpt>
      <trkpt lat="45.17578" lon="5.90742">
        <ele>1335.8</ele>
        <time>2021-02-20T15:28:00Z</time>
      </trkpt>
      <trkpt lat="45.17579" lon="5.90742">
        <ele>1335.7</ele>
        <time>2021-02-20T15:28:01Z</time>
      </trkpt>
      <trkpt lat="45.1758" lon="5.90743">
        <ele>1335.6</ele>
        <time>2021-02-20T15:28:02Z</time>
      </trkpt>
      <trkpt lat="45.17581" lon="5.90744">
        <ele>1335.5</ele>
        <time>2021-02-20T15:28:03Z</time>
      </trkpt>
      <trkpt lat="45.17583" lon="5.90746">
        <ele>1335.3</ele>
        <time>2021-02-20T15:28:04Z</time>
      </trkpt>
      <trkpt lat="45.17583" lon="5.90747">
        <ele>1335.3</ele>
        <time>2021-02-20T15:28:05Z</time>
      </trkpt>
      <trkpt lat="45.17584" lon="5.90747">
        <ele>1335.2</ele>
        <time>2021-02-20T15:28:06Z</time>
      </trkpt>
      <trkpt lat="45.17585" lon="5.90748">
        <ele>1335.1</ele>
        <time>2021-02-20T15:28:07Z</time>
      </trkpt>
      <trkpt lat="45.17586" lon="5.90749">
        <ele>1335</ele>
        <time>2021-02-20T15:28:08Z</time>
      </trkpt>
      <trkpt lat="45.17587" lon="5.9075">
        <ele>1334.9</ele>
        <time>2021-02-20T15:28:09Z</time>
      </trkpt>
      <trkpt lat="45.17587" lon="5.90752">
        <ele>1334.9</ele>
        <time>2021-02-20T15:28:10Z</time>
      </trkpt>
      <trkpt lat="45.17588" lon="5.90753">
        <ele>1334.8</ele>
        <time>2021-02-20T15:28:11Z</time>
      </trkpt>
      <trkpt lat="45.17588" lon="5.90754">
        <ele>1334.7</ele>
        <time>2021-02-20T15:28:12Z</time>
      </trkpt>
      <trkpt lat="45.17588" lon="5.90756">
        <ele>1334.6</ele>
        <time>2021-02-20T15:28:13Z</time>
      </trkpt>
      <trkpt lat="45.17589" lon="5.90758">
        <ele>1334.5</ele>
        <time>2021-02-20T15:28:14Z</time>
      </trkpt>
      <trkpt lat="45.17589" lon="5.90759">
        <ele>1334.4</ele>
        <time>2021-02-20T15:28:15Z</time>
      </trkpt>
      <trkpt lat="45.1759" lon="5.90761">
        <ele>1334.3</ele>
        <time>2021-02-20T15:28:16Z</time>
      </trkpt>
      <trkpt lat="45.1759" lon="5.90762">
        <ele>1334.2</ele>
        <time>2021-02-20T15:28:17Z</time>
      </trkpt>
      <trkpt lat="45.17591" lon="5.90763">
        <ele>1334.2</ele>
        <time>2021-02-20T15:28:18Z</time>
      </trkpt>
      <trkpt lat="45.17592" lon="5.90764">
        <ele>1334</ele>
        <time>2021-02-20T15:28:19Z</time>
      </trkpt>
      <trkpt lat="45.17593" lon="5.90765">
        <ele>1334</ele>
        <time>2021-02-20T15:28:20Z</time>
      </trkpt>
      <trkpt lat="45.17593" lon="5.90766">
        <ele>1333.9</ele>
        <time>2021-02-20T15:28:21Z</time>
      </trkpt>
      <trkpt lat="45.17593" lon="5.90767">
        <ele>1333.8</ele>
        <time>2021-02-20T15:28:22Z</time>
      </trkpt>
      <trkpt lat="45.17593" lon="5.90769">
        <ele>1333.8</ele>
        <time>2021-02-20T15:28:23Z</time>
      </trkpt>
      <trkpt lat="45.17594" lon="5.90771">
        <ele>1333.6</ele>
        <time>2021-02-20T15:28:24Z</time>
      </trkpt>
      <trkpt lat="45.17594" lon="5.90774">
        <ele>1333.4</ele>
        <time>2021-02-20T15:28:25Z</time>
      </trkpt>
      <trkpt lat="45.17594" lon="5.90776">
        <ele>1333.3</ele>
        <time>2021-02-20T15:28:26Z</time>
      </trkpt>
      <trkpt lat="45.17594" lon="5.90778">
        <ele>1333.2</ele>
        <time>2021-02-20T15:28:27Z</time>
      </trkpt>
      <trkpt lat="45.17594" lon="5.9078">
        <ele>1333</ele>
        <time>2021-02-20T15:28:28Z</time>
      </trkpt>
      <trkpt lat="45.17594" lon="5.90782">
        <ele>1332.9</ele>
        <time>2021-02-20T15:28:29Z</time>
      </trkpt>
      <trkpt lat="45.17594" lon="5.90784">
        <ele>1332.8</ele>
        <time>2021-02-20T15:28:30Z</time>
      </trkpt>
      <trkpt lat="45.17594" lon="5.90785">
        <ele>1332.7</ele>
        <time>2021-02-20T15:28:31Z</time>
      </trkpt>
      <trkpt lat="45.17595" lon="5.90786">
        <ele>1332.7</ele>
        <time>2021-02-20T15:28:32Z</time>
      </trkpt>
      <trkpt lat="45.17595" lon="5.90785">
        <ele>1332.6</ele>
        <time>2021-02-20T15:28:33Z</time>
      </trkpt>
      <trkpt lat="45.17595" lon="5.90785">
        <ele>1332.6</ele>
        <time>2021-02-20T15:28:34Z</time>
      </trkpt>
      <trkpt lat="45.17596" lon="5.90785">
        <ele>1332.5</ele>
        <time>2021-02-20T15:28:35Z</time>
      </trkpt>
      <trkpt lat="45.17596" lon="5.90785">
        <ele>1332.5</ele>
        <time>2021-02-20T15:28:36Z</time>
      </trkpt>
      <trkpt lat="45.17596" lon="5.90784">
        <ele>1332.5</ele>
        <time>2021-02-20T15:28:37Z</time>
      </trkpt>
      <trkpt lat="45.17597" lon="5.90784">
        <ele>1332.4</ele>
        <time>2021-02-20T15:28:38Z</time>
      </trkpt>
      <trkpt lat="45.17597" lon="5.90786">
        <ele>1332.3</ele>
        <time>2021-02-20T15:28:39Z</time>
      </trkpt>
      <trkpt lat="45.17597" lon="5.90788">
        <ele>1332.1</ele>
        <time>2021-02-20T15:28:40Z</time>
      </trkpt>
      <trkpt lat="45.17597" lon="5.9079">
        <ele>1332</ele>
        <time>2021-02-20T15:28:41Z</time>
      </trkpt>
      <trkpt lat="45.17596" lon="5.90792">
        <ele>1331.8</ele>
        <time>2021-02-20T15:28:42Z</time>
      </trkpt>
      <trkpt lat="45.17596" lon="5.90794">
        <ele>1331.7</ele>
        <time>2021-02-20T15:29:47Z</time>
      </trkpt>
      <trkpt lat="45.17596" lon="5.90796">
        <ele>1331.6</ele>
        <time>2021-02-20T15:29:48Z</time>
      </trkpt>
      <trkpt lat="45.17598" lon="5.90803">
        <ele>1331.1</ele>
        <time>2021-02-20T15:29:49Z</time>
      </trkpt>
      <trkpt lat="45.17599" lon="5.9081">
        <ele>1330.6</ele>
        <time>2021-02-20T15:29:50Z</time>
      </trkpt>
      <trkpt lat="45.17601" lon="5.90817">
        <ele>1330.1</ele>
        <time>2021-02-20T15:29:51Z</time>
      </trkpt>
      <trkpt lat="45.17604" lon="5.90824">
        <ele>1329.5</ele>
        <time>2021-02-20T15:29:52Z</time>
      </trkpt>
      <trkpt lat="45.17608" lon="5.90831">
        <ele>1329</ele>
        <time>2021-02-20T15:29:53Z</time>
      </trkpt>
      <trkpt lat="45.17611" lon="5.90838">
        <ele>1328.4</ele>
        <time>2021-02-20T15:29:54Z</time>
      </trkpt>
      <trkpt lat="45.17616" lon="5.90844">
        <ele>1327.8</ele>
        <time>2021-02-20T15:29:55Z</time>
      </trkpt>
      <trkpt lat="45.1762" lon="5.90849">
        <ele>1327.2</ele>
        <time>2021-02-20T15:29:56Z</time>
      </trkpt>
      <trkpt lat="45.17625" lon="5.90853">
        <ele>1326.7</ele>
        <time>2021-02-20T15:29:57Z</time>
      </trkpt>
      <trkpt lat="45.17629" lon="5.90856">
        <ele>1326.2</ele>
        <time>2021-02-20T15:29:58Z</time>
      </trkpt>
      <trkpt lat="45.17639" lon="5.90852">
        <ele>1325.2</ele>
        <time>2021-02-20T15:29:59Z</time>
      </trkpt>
      <trkpt lat="45.17643" lon="5.90853">
        <ele>1324.9</ele>
        <time>2021-02-20T15:30:00Z</time>
      </trkpt>
      <trkpt lat="45.17647" lon="5.90857">
        <ele>1324.4</ele>
        <time>2021-02-20T15:30:01Z</time>
      </trkpt>
      <trkpt lat="45.17651" lon="5.9086">
        <ele>1324</ele>
        <time>2021-02-20T15:30:02Z</time>
      </trkpt>
      <trkpt lat="45.17653" lon="5.90863">
        <ele>1323.7</ele>
        <time>2021-02-20T15:30:03Z</time>
      </trkpt>
      <trkpt lat="45.17656" lon="5.90866">
        <ele>1323.4</ele>
        <time>2021-02-20T15:30:04Z</time>
      </trkpt>
      <trkpt lat="45.17661" lon="5.90866">
        <ele>1323</ele>
        <time>2021-02-20T15:30:05Z</time>
      </trkpt>
      <trkpt lat="45.17664" lon="5.90868">
        <ele>1322.7</ele>
        <time>2021-02-20T15:30:06Z</time>
      </trkpt>
      <trkpt lat="45.17669" lon="5.9087">
        <ele>1322.3</ele>
        <time>2021-02-20T15:30:07Z</time>
      </trkpt>
      <trkpt lat="45.17672" lon="5.90872">
        <ele>1322</ele>
        <time>2021-02-20T15:30:08Z</time>
      </trkpt>
      <trkpt lat="45.17676" lon="5.90873">
        <ele>1321.6</ele>
        <time>2021-02-20T15:30:09Z</time>
      </trkpt>
      <trkpt lat="45.17676" lon="5.9088">
        <ele>1321.2</ele>
        <time>2021-02-20T15:30:10Z</time>
      </trkpt>
      <trkpt lat="45.17679" lon="5.90883">
        <ele>1321</ele>
        <time>2021-02-20T15:30:11Z</time>
      </trkpt>
      <trkpt lat="45.17682" lon="5.90886">
        <ele>1320.7</ele>
        <time>2021-02-20T15:30:12Z</time>
      </trkpt>
      <trkpt lat="45.17684" lon="5.9089">
        <ele>1320.3</ele>
        <time>2021-02-20T15:30:13Z</time>
      </trkpt>
      <trkpt lat="45.17691" lon="5.90889">
        <ele>1319.7</ele>
        <time>2021-02-20T15:30:14Z</time>
      </trkpt>
      <trkpt lat="45.1769" lon="5.90897">
        <ele>1319.2</ele>
        <time>2021-02-20T15:30:15Z</time>
      </trkpt>
      <trkpt lat="45.17693" lon="5.90902">
        <ele>1318.8</ele>
        <time>2021-02-20T15:30:16Z</time>
      </trkpt>
      <trkpt lat="45.17699" lon="5.90905">
        <ele>1318.3</ele>
        <time>2021-02-20T15:30:17Z</time>
      </trkpt>
      <trkpt lat="45.17701" lon="5.90911">
        <ele>1317.7</ele>
        <time>2021-02-20T15:30:18Z</time>
      </trkpt>
      <trkpt lat="45.17707" lon="5.90915">
        <ele>1317</ele>
        <time>2021-02-20T15:30:19Z</time>
      </trkpt>
      <trkpt lat="45.17711" lon="5.90919">
        <ele>1316.4</ele>
        <time>2021-02-20T15:30:20Z</time>
      </trkpt>
      <trkpt lat="45.17717" lon="5.90923">
        <ele>1315.8</ele>
        <time>2021-02-20T15:30:21Z</time>
      </trkpt>
      <trkpt lat="45.17723" lon="5.90925">
        <ele>1315.1</ele>
        <time>2021-02-20T15:30:22Z</time>
      </trkpt>
      <trkpt lat="45.17726" lon="5.9093">
        <ele>1314.6</ele>
        <time>2021-02-20T15:30:23Z</time>
      </trkpt>
      <trkpt lat="45.17733" lon="5.90933">
        <ele>1313.7</ele>
        <time>2021-02-20T15:30:24Z</time>
      </trkpt>
      <trkpt lat="45.17737" lon="5.90938">
        <ele>1313.1</ele>
        <time>2021-02-20T15:30:25Z</time>
      </trkpt>
      <trkpt lat="45.17745" lon="5.90939">
        <ele>1312.1</ele>
        <time>2021-02-20T15:30:26Z</time>
      </trkpt>
      <trkpt lat="45.17751" lon="5.90943">
        <ele>1311.3</ele>
        <time>2021-02-20T15:30:27Z</time>
      </trkpt>
      <trkpt lat="45.17756" lon="5.90949">
        <ele>1310.6</ele>
        <time>2021-02-20T15:30:28Z</time>
      </trkpt>
      <trkpt lat="45.17761" lon="5.90955">
        <ele>1309.8</ele>
        <time>2021-02-20T15:30:29Z</time>
      </trkpt>
      <trkpt lat="45.17767" lon="5.9096">
        <ele>1309</ele>
        <time>2021-02-20T15:30:30Z</time>
      </trkpt>
      <trkpt lat="45.17773" lon="5.90964">
        <ele>1308.3</ele>
        <time>2021-02-20T15:30:31Z</time>
      </trkpt>
      <trkpt lat="45.1778" lon="5.90966">
        <ele>1307.5</ele>
        <time>2021-02-20T15:30:32Z</time>
      </trkpt>
      <trkpt lat="45.17781" lon="5.90975">
        <ele>1306.7</ele>
        <time>2021-02-20T15:30:33Z</time>
      </trkpt>
      <trkpt lat="45.17787" lon="5.90981">
        <ele>1305.9</ele>
        <time>2021-02-20T15:30:34Z</time>
      </trkpt>
      <trkpt lat="45.17791" lon="5.90984">
        <ele>1305.3</ele>
        <time>2021-02-20T15:30:35Z</time>
      </trkpt>
      <trkpt lat="45.17797" lon="5.90988">
        <ele>1304.6</ele>
        <time>2021-02-20T15:30:36Z</time>
      </trkpt>
      <trkpt lat="45.17804" lon="5.90994">
        <ele>1303.6</ele>
        <time>2021-02-20T15:30:37Z</time>
      </trkpt>
      <trkpt lat="45.1781" lon="5.90997">
        <ele>1302.8</ele>
        <time>2021-02-20T15:30:38Z</time>
      </trkpt>
      <trkpt lat="45.17816" lon="5.91001">
        <ele>1302</ele>
        <time>2021-02-20T15:30:39Z</time>
      </trkpt>
      <trkpt lat="45.17824" lon="5.91">
        <ele>1301.2</ele>
        <time>2021-02-20T15:30:40Z</time>
      </trkpt>
      <trkpt lat="45.1783" lon="5.91">
        <ele>1300.4</ele>
        <time>2021-02-20T15:30:41Z</time>
      </trkpt>
      <trkpt lat="45.17837" lon="5.91001">
        <ele>1299.6</ele>
        <time>2021-02-20T15:30:42Z</time>
      </trkpt>
      <trkpt lat="45.1784" lon="5.91001">
        <ele>1299.3</ele>
        <time>2021-02-20T15:30:43Z</time>
      </trkpt>
      <trkpt lat="45.17844" lon="5.90998">
        <ele>1298.8</ele>
        <time>2021-02-20T15:30:44Z</time>
      </trkpt>
      <trkpt lat="45.1784" lon="5.91003">
        <ele>1298.3</ele>
        <time>2021-02-20T15:30:45Z</time>
      </trkpt>
      <trkpt lat="45.1784" lon="5.91001">
        <ele>1298.1</ele>
        <time>2021-02-20T15:30:46Z</time>
      </trkpt>
      <trkpt lat="45.17841" lon="5.91001">
        <ele>1298.1</ele>
        <time>2021-02-20T15:30:47Z</time>
      </trkpt>
      <trkpt lat="45.17841" lon="5.91001">
        <ele>1298</ele>
        <time>2021-02-20T15:30:48Z</time>
      </trkpt>
      <trkpt lat="45.17842" lon="5.91001">
        <ele>1298</ele>
        <time>2021-02-20T15:30:49Z</time>
      </trkpt>
      <trkpt lat="45.17842" lon="5.91001">
        <ele>1297.9</ele>
        <time>2021-02-20T15:30:50Z</time>
      </trkpt>
      <trkpt lat="45.17843" lon="5.91001">
        <ele>1297.9</ele>
        <time>2021-02-20T15:30:51Z</time>
      </trkpt>
      <trkpt lat="45.17844" lon="5.91001">
        <ele>1297.8</ele>
        <time>2021-02-20T15:30:52Z</time>
      </trkpt>
      <trkpt lat="45.17844" lon="5.91001">
        <ele>1297.7</ele>
        <time>2021-02-20T15:30:53Z</time>
      </trkpt>
      <trkpt lat="45.17845" lon="5.91001">
        <ele>1297.7</ele>
        <time>2021-02-20T15:30:54Z</time>
      </trkpt>
      <trkpt lat="45.17846" lon="5.91001">
        <ele>1297.6</ele>
        <time>2021-02-20T15:30:55Z</time>
      </trkpt>
      <trkpt lat="45.17846" lon="5.91002">
        <ele>1297.6</ele>
        <time>2021-02-20T15:30:56Z</time>
      </trkpt>
      <trkpt lat="45.17847" lon="5.91002">
        <ele>1297.5</ele>
        <time>2021-02-20T15:30:57Z</time>
      </trkpt>
      <trkpt lat="45.17847" lon="5.91002">
        <ele>1297.5</ele>
        <time>2021-02-20T15:31:33Z</time>
      </trkpt>
      <trkpt lat="45.17848" lon="5.91002">
        <ele>1297.4</ele>
        <time>2021-02-20T15:31:34Z</time>
      </trkpt>
      <trkpt lat="45.17851" lon="5.90999">
        <ele>1297.1</ele>
        <time>2021-02-20T15:31:35Z</time>
      </trkpt>
      <trkpt lat="45.17852" lon="5.90999">
        <ele>1297</ele>
        <time>2021-02-20T15:31:36Z</time>
      </trkpt>
      <trkpt lat="45.17855" lon="5.90996">
        <ele>1296.8</ele>
        <time>2021-02-20T15:31:37Z</time>
      </trkpt>
      <trkpt lat="45.17857" lon="5.90994">
        <ele>1296.5</ele>
        <time>2021-02-20T15:31:38Z</time>
      </trkpt>
      <trkpt lat="45.17859" lon="5.90991">
        <ele>1296.3</ele>
        <time>2021-02-20T15:31:39Z</time>
      </trkpt>
      <trkpt lat="45.17862" lon="5.9099">
        <ele>1296.1</ele>
        <time>2021-02-20T15:31:40Z</time>
      </trkpt>
      <trkpt lat="45.17863" lon="5.90989">
        <ele>1296.1</ele>
        <time>2021-02-20T15:31:41Z</time>
      </trkpt>
      <trkpt lat="45.17865" lon="5.90989">
        <ele>1295.9</ele>
        <time>2021-02-20T15:31:42Z</time>
      </trkpt>
      <trkpt lat="45.17865" lon="5.90988">
        <ele>1295.9</ele>
        <time>2021-02-20T15:31:43Z</time>
      </trkpt>
      <trkpt lat="45.17866" lon="5.90987">
        <ele>1295.8</ele>
        <time>2021-02-20T15:31:44Z</time>
      </trkpt>
      <trkpt lat="45.17867" lon="5.90987">
        <ele>1295.8</ele>
        <time>2021-02-20T15:31:45Z</time>
      </trkpt>
      <trkpt lat="45.17867" lon="5.90986">
        <ele>1295.7</ele>
        <time>2021-02-20T15:31:46Z</time>
      </trkpt>
      <trkpt lat="45.17868" lon="5.90985">
        <ele>1295.7</ele>
        <time>2021-02-20T15:31:47Z</time>
      </trkpt>
      <trkpt lat="45.17868" lon="5.90985">
        <ele>1295.6</ele>
        <time>2021-02-20T15:31:48Z</time>
      </trkpt>
      <trkpt lat="45.17869" lon="5.90984">
        <ele>1295.6</ele>
        <time>2021-02-20T15:31:49Z</time>
      </trkpt>
      <trkpt lat="45.1787" lon="5.90983">
        <ele>1295.5</ele>
        <time>2021-02-20T15:31:50Z</time>
      </trkpt>
      <trkpt lat="45.1787" lon="5.90982">
        <ele>1295.5</ele>
        <time>2021-02-20T15:31:51Z</time>
      </trkpt>
      <trkpt lat="45.17871" lon="5.90982">
        <ele>1295.4</ele>
        <time>2021-02-20T15:31:52Z</time>
      </trkpt>
      <trkpt lat="45.17872" lon="5.90981">
        <ele>1295.4</ele>
        <time>2021-02-20T15:33:54Z</time>
      </trkpt>
      <trkpt lat="45.17872" lon="5.9098">
        <ele>1295.3</ele>
        <time>2021-02-20T15:33:55Z</time>
      </trkpt>
      <trkpt lat="45.17873" lon="5.9098">
        <ele>1295.3</ele>
        <time>2021-02-20T15:33:56Z</time>
      </trkpt>
      <trkpt lat="45.17873" lon="5.90978">
        <ele>1295.2</ele>
        <time>2021-02-20T15:33:57Z</time>
      </trkpt>
      <trkpt lat="45.17873" lon="5.90976">
        <ele>1295.1</ele>
        <time>2021-02-20T15:33:58Z</time>
      </trkpt>
      <trkpt lat="45.17873" lon="5.90975">
        <ele>1295.1</ele>
        <time>2021-02-20T15:33:59Z</time>
      </trkpt>
      <trkpt lat="45.17872" lon="5.90974">
        <ele>1295</ele>
        <time>2021-02-20T15:34:00Z</time>
      </trkpt>
      <trkpt lat="45.17872" lon="5.90972">
        <ele>1295</ele>
        <time>2021-02-20T15:34:01Z</time>
      </trkpt>
      <trkpt lat="45.17872" lon="5.90971">
        <ele>1294.9</ele>
        <time>2021-02-20T15:34:02Z</time>
      </trkpt>
      <trkpt lat="45.17872" lon="5.9097">
        <ele>1294.9</ele>
        <time>2021-02-20T15:34:03Z</time>
      </trkpt>
      <trkpt lat="45.17872" lon="5.90968">
        <ele>1294.8</ele>
        <time>2021-02-20T15:34:04Z</time>
      </trkpt>
      <trkpt lat="45.17872" lon="5.90967">
        <ele>1294.7</ele>
        <time>2021-02-20T15:34:05Z</time>
      </trkpt>
      <trkpt lat="45.17872" lon="5.90966">
        <ele>1294.7</ele>
        <time>2021-02-20T15:34:06Z</time>
      </trkpt>
      <trkpt lat="45.17872" lon="5.90964">
        <ele>1294.6</ele>
        <time>2021-02-20T15:37:45Z</time>
      </trkpt>
      <trkpt lat="45.17872" lon="5.90963">
        <ele>1294.6</ele>
        <time>2021-02-20T15:37:46Z</time>
      </trkpt>
      <trkpt lat="45.17872" lon="5.90958">
        <ele>1294.4</ele>
        <time>2021-02-20T15:37:47Z</time>
      </trkpt>
      <trkpt lat="45.17872" lon="5.90956">
        <ele>1294.2</ele>
        <time>2021-02-20T15:37:48Z</time>
      </trkpt>
      <trkpt lat="45.17873" lon="5.90952">
        <ele>1294</ele>
        <time>2021-02-20T15:37:49Z</time>
      </trkpt>
      <trkpt lat="45.17873" lon="5.9095">
        <ele>1294</ele>
        <time>2021-02-20T15:37:50Z</time>
      </trkpt>
      <trkpt lat="45.17875" lon="5.90948">
        <ele>1293.8</ele>
        <time>2021-02-20T15:37:51Z</time>
      </trkpt>
      <trkpt lat="45.17878" lon="5.90945">
        <ele>1293.5</ele>
        <time>2021-02-20T15:37:52Z</time>
      </trkpt>
      <trkpt lat="45.17882" lon="5.90942">
        <ele>1293.2</ele>
        <time>2021-02-20T15:37:53Z</time>
      </trkpt>
      <trkpt lat="45.17883" lon="5.90941">
        <ele>1293.1</ele>
        <time>2021-02-20T15:37:54Z</time>
      </trkpt>
      <trkpt lat="45.17886" lon="5.90937">
        <ele>1292.7</ele>
        <time>2021-02-20T15:37:55Z</time>
      </trkpt>
      <trkpt lat="45.17889" lon="5.90932">
        <ele>1292.4</ele>
        <time>2021-02-20T15:37:56Z</time>
      </trkpt>
      <trkpt lat="45.17891" lon="5.90928">
        <ele>1292</ele>
        <time>2021-02-20T15:37:57Z</time>
      </trkpt>
      <trkpt lat="45.17894" lon="5.90924">
        <ele>1291.7</ele>
        <time>2021-02-20T15:37:58Z</time>
      </trkpt>
      <trkpt lat="45.17897" lon="5.9092">
        <ele>1291.4</ele>
        <time>2021-02-20T15:37:59Z</time>
      </trkpt>
      <trkpt lat="45.17899" lon="5.90916">
        <ele>1291.1</ele>
        <time>2021-02-20T15:38:00Z</time>
      </trkpt>
      <trkpt lat="45.17901" lon="5.90914">
        <ele>1290.8</ele>
        <time>2021-02-20T15:38:01Z</time>
      </trkpt>
      <trkpt lat="45.17902" lon="5.90912">
        <ele>1290.7</ele>
        <time>2021-02-20T15:38:02Z</time>
      </trkpt>
      <trkpt lat="45.17902" lon="5.9091">
        <ele>1290.6</ele>
        <time>2021-02-20T15:38:03Z</time>
      </trkpt>
      <trkpt lat="45.17902" lon="5.9091">
        <ele>1290.5</ele>
        <time>2021-02-20T15:38:04Z</time>
      </trkpt>
      <trkpt lat="45.17904" lon="5.90909">
        <ele>1290.4</ele>
        <time>2021-02-20T15:38:05Z</time>
      </trkpt>
      <trkpt lat="45.17905" lon="5.90908">
        <ele>1290.2</ele>
        <time>2021-02-20T15:38:06Z</time>
      </trkpt>
      <trkpt lat="45.17907" lon="5.90908">
        <ele>1290.1</ele>
        <time>2021-02-20T15:38:07Z</time>
      </trkpt>
      <trkpt lat="45.17908" lon="5.90907">
        <ele>1289.9</ele>
        <time>2021-02-20T15:38:08Z</time>
      </trkpt>
      <trkpt lat="45.1791" lon="5.90907">
        <ele>1289.8</ele>
        <time>2021-02-20T15:38:09Z</time>
      </trkpt>
      <trkpt lat="45.17912" lon="5.90906">
        <ele>1289.6</ele>
        <time>2021-02-20T15:38:10Z</time>
      </trkpt>
      <trkpt lat="45.17913" lon="5.90906">
        <ele>1289.5</ele>
        <time>2021-02-20T15:38:11Z</time>
      </trkpt>
      <trkpt lat="45.17915" lon="5.90905">
        <ele>1289.3</ele>
        <time>2021-02-20T15:38:12Z</time>
      </trkpt>
      <trkpt lat="45.17916" lon="5.90905">
        <ele>1289.2</ele>
        <time>2021-02-20T15:38:13Z</time>
      </trkpt>
      <trkpt lat="45.17918" lon="5.90904">
        <ele>1289</ele>
        <time>2021-02-20T15:38:56Z</time>
      </trkpt>
      <trkpt lat="45.17919" lon="5.90904">
        <ele>1288.9</ele>
        <time>2021-02-20T15:38:57Z</time>
      </trkpt>
      <trkpt lat="45.1792" lon="5.90903">
        <ele>1288.7</ele>
        <time>2021-02-20T15:38:58Z</time>
      </trkpt>
      <trkpt lat="45.17922" lon="5.90902">
        <ele>1288.6</ele>
        <time>2021-02-20T15:38:59Z</time>
      </trkpt>
      <trkpt lat="45.17923" lon="5.90901">
        <ele>1288.5</ele>
        <time>2021-02-20T15:39:00Z</time>
      </trkpt>
      <trkpt lat="45.17923" lon="5.909">
        <ele>1288.4</ele>
        <time>2021-02-20T15:39:01Z</time>
      </trkpt>
      <trkpt lat="45.17924" lon="5.90899">
        <ele>1288.3</ele>
        <time>2021-02-20T15:39:02Z</time>
      </trkpt>
      <trkpt lat="45.17926" lon="5.90898">
        <ele>1288.1</ele>
        <time>2021-02-20T15:39:03Z</time>
      </trkpt>
      <trkpt lat="45.17927" lon="5.90897">
        <ele>1288</ele>
        <time>2021-02-20T15:39:04Z</time>
      </trkpt>
      <trkpt lat="45.17927" lon="5.90897">
        <ele>1287.9</ele>
        <time>2021-02-20T15:39:05Z</time>
      </trkpt>
      <trkpt lat="45.17928" lon="5.90896">
        <ele>1287.8</ele>
        <time>2021-02-20T15:39:06Z</time>
      </trkpt>
      <trkpt lat="45.17929" lon="5.90896">
        <ele>1287.7</ele>
        <time>2021-02-20T15:39:07Z</time>
      </trkpt>
      <trkpt lat="45.17929" lon="5.90895">
        <ele>1287.7</ele>
        <time>2021-02-20T15:39:08Z</time>
      </trkpt>
      <trkpt lat="45.1793" lon="5.90894">
        <ele>1287.6</ele>
        <time>2021-02-20T15:39:09Z</time>
      </trkpt>
      <trkpt lat="45.17931" lon="5.90894">
        <ele>1287.5</ele>
        <time>2021-02-20T15:39:10Z</time>
      </trkpt>
      <trkpt lat="45.17931" lon="5.90893">
        <ele>1287.4</ele>
        <time>2021-02-20T15:39:11Z</time>
      </trkpt>
      <trkpt lat="45.17932" lon="5.90892">
        <ele>1287.3</ele>
        <time>2021-02-20T15:39:12Z</time>
      </trkpt>
      <trkpt lat="45.17933" lon="5.90891">
        <ele>1287.1</ele>
        <time>2021-02-20T15:39:13Z</time>
      </trkpt>
      <trkpt lat="45.17933" lon="5.90891">
        <ele>1287.1</ele>
        <time>2021-02-20T15:39:14Z</time>
      </trkpt>
      <trkpt lat="45.17935" lon="5.9089">
        <ele>1286.9</ele>
        <time>2021-02-20T15:39:15Z</time>
      </trkpt>
      <trkpt lat="45.17935" lon="5.90889">
        <ele>1286.9</ele>
        <time>2021-02-20T15:39:16Z</time>
      </trkpt>
      <trkpt lat="45.17936" lon="5.90889">
        <ele>1286.8</ele>
        <time>2021-02-20T15:39:17Z</time>
      </trkpt>
      <trkpt lat="45.17937" lon="5.90888">
        <ele>1286.7</ele>
        <time>2021-02-20T15:39:18Z</time>
      </trkpt>
      <trkpt lat="45.17937" lon="5.90887">
        <ele>1286.6</ele>
        <time>2021-02-20T15:39:19Z</time>
      </trkpt>
      <trkpt lat="45.17938" lon="5.90885">
        <ele>1286.4</ele>
        <time>2021-02-20T15:39:20Z</time>
      </trkpt>
      <trkpt lat="45.17939" lon="5.90884">
        <ele>1286.2</ele>
        <time>2021-02-20T15:39:21Z</time>
      </trkpt>
      <trkpt lat="45.17941" lon="5.90881">
        <ele>1286</ele>
        <time>2021-02-20T15:39:22Z</time>
      </trkpt>
      <trkpt lat="45.17941" lon="5.9088">
        <ele>1285.9</ele>
        <time>2021-02-20T15:39:23Z</time>
      </trkpt>
      <trkpt lat="45.17942" lon="5.90879">
        <ele>1285.8</ele>
        <time>2021-02-20T15:39:24Z</time>
      </trkpt>
      <trkpt lat="45.17943" lon="5.90877">
        <ele>1285.6</ele>
        <time>2021-02-20T15:39:25Z</time>
      </trkpt>
      <trkpt lat="45.17944" lon="5.90876">
        <ele>1285.4</ele>
        <time>2021-02-20T15:39:26Z</time>
      </trkpt>
      <trkpt lat="45.17946" lon="5.90873">
        <ele>1285.2</ele>
        <time>2021-02-20T15:39:27Z</time>
      </trkpt>
      <trkpt lat="45.17946" lon="5.90873">
        <ele>1285.1</ele>
        <time>2021-02-20T15:39:28Z</time>
      </trkpt>
      <trkpt lat="45.17947" lon="5.90872">
        <ele>1285</ele>
        <time>2021-02-20T15:39:29Z</time>
      </trkpt>
      <trkpt lat="45.17948" lon="5.9087">
        <ele>1284.8</ele>
        <time>2021-02-20T15:39:30Z</time>
      </trkpt>
      <trkpt lat="45.17949" lon="5.90869">
        <ele>1284.7</ele>
        <time>2021-02-20T15:39:31Z</time>
      </trkpt>
      <trkpt lat="45.17949" lon="5.90868">
        <ele>1284.6</ele>
        <time>2021-02-20T15:39:32Z</time>
      </trkpt>
      <trkpt lat="45.1795" lon="5.90867">
        <ele>1284.4</ele>
        <time>2021-02-20T15:39:33Z</time>
      </trkpt>
      <trkpt lat="45.17951" lon="5.90866">
        <ele>1284.3</ele>
        <time>2021-02-20T15:39:34Z</time>
      </trkpt>
      <trkpt lat="45.17952" lon="5.90865">
        <ele>1284.2</ele>
        <time>2021-02-20T15:39:35Z</time>
      </trkpt>
      <trkpt lat="45.17953" lon="5.90864">
        <ele>1284.1</ele>
        <time>2021-02-20T15:39:36Z</time>
      </trkpt>
      <trkpt lat="45.17954" lon="5.90863">
        <ele>1284</ele>
        <time>2021-02-20T15:39:37Z</time>
      </trkpt>
      <trkpt lat="45.17955" lon="5.90862">
        <ele>1283.8</ele>
        <time>2021-02-20T15:39:38Z</time>
      </trkpt>
      <trkpt lat="45.17955" lon="5.90862">
        <ele>1283.8</ele>
        <time>2021-02-20T15:39:39Z</time>
      </trkpt>
      <trkpt lat="45.17956" lon="5.90862">
        <ele>1283.7</ele>
        <time>2021-02-20T15:39:40Z</time>
      </trkpt>
      <trkpt lat="45.17956" lon="5.90861">
        <ele>1283.7</ele>
        <time>2021-02-20T15:39:41Z</time>
      </trkpt>
      <trkpt lat="45.17956" lon="5.90861">
        <ele>1283.6</ele>
        <time>2021-02-20T15:39:42Z</time>
      </trkpt>
      <trkpt lat="45.17956" lon="5.9086">
        <ele>1283.5</ele>
        <time>2021-02-20T15:39:43Z</time>
      </trkpt>
      <trkpt lat="45.17957" lon="5.9086">
        <ele>1283.5</ele>
        <time>2021-02-20T15:39:44Z</time>
      </trkpt>
      <trkpt lat="45.17957" lon="5.90859">
        <ele>1283.4</ele>
        <time>2021-02-20T15:39:45Z</time>
      </trkpt>
      <trkpt lat="45.17958" lon="5.90859">
        <ele>1283.4</ele>
        <time>2021-02-20T15:39:46Z</time>
      </trkpt>
      <trkpt lat="45.17958" lon="5.90859">
        <ele>1283.4</ele>
        <time>2021-02-20T15:39:47Z</time>
      </trkpt>
      <trkpt lat="45.17959" lon="5.90859">
        <ele>1283.3</ele>
        <time>2021-02-20T15:39:48Z</time>
      </trkpt>
      <trkpt lat="45.17962" lon="5.90857">
        <ele>1282.9</ele>
        <time>2021-02-20T15:39:49Z</time>
      </trkpt>
      <trkpt lat="45.17965" lon="5.90855">
        <ele>1282.5</ele>
        <time>2021-02-20T15:39:55Z</time>
      </trkpt>
      <trkpt lat="45.17968" lon="5.90854">
        <ele>1282.2</ele>
        <time>2021-02-20T15:39:56Z</time>
      </trkpt>
      <trkpt lat="45.1797" lon="5.90852">
        <ele>1282</ele>
        <time>2021-02-20T15:39:57Z</time>
      </trkpt>
      <trkpt lat="45.17971" lon="5.90851">
        <ele>1281.9</ele>
        <time>2021-02-20T15:39:58Z</time>
      </trkpt>
      <trkpt lat="45.17972" lon="5.9085">
        <ele>1281.8</ele>
        <time>2021-02-20T15:39:59Z</time>
      </trkpt>
      <trkpt lat="45.17975" lon="5.90848">
        <ele>1281.5</ele>
        <time>2021-02-20T15:40:00Z</time>
      </trkpt>
      <trkpt lat="45.17975" lon="5.90847">
        <ele>1281.4</ele>
        <time>2021-02-20T15:40:01Z</time>
      </trkpt>
      <trkpt lat="45.17977" lon="5.90845">
        <ele>1281.2</ele>
        <time>2021-02-20T15:40:02Z</time>
      </trkpt>
      <trkpt lat="45.17978" lon="5.90844">
        <ele>1281</ele>
        <time>2021-02-20T15:40:03Z</time>
      </trkpt>
      <trkpt lat="45.1798" lon="5.90843">
        <ele>1280.9</ele>
        <time>2021-02-20T15:40:04Z</time>
      </trkpt>
      <trkpt lat="45.17981" lon="5.90843">
        <ele>1280.7</ele>
        <time>2021-02-20T15:40:05Z</time>
      </trkpt>
      <trkpt lat="45.17983" lon="5.90843">
        <ele>1280.5</ele>
        <time>2021-02-20T15:40:06Z</time>
      </trkpt>
      <trkpt lat="45.17984" lon="5.90842">
        <ele>1280.4</ele>
        <time>2021-02-20T15:40:07Z</time>
      </trkpt>
      <trkpt lat="45.17985" lon="5.90842">
        <ele>1280.3</ele>
        <time>2021-02-20T15:40:08Z</time>
      </trkpt>
      <trkpt lat="45.17987" lon="5.90842">
        <ele>1280.1</ele>
        <time>2021-02-20T15:40:09Z</time>
      </trkpt>
      <trkpt lat="45.17988" lon="5.90841">
        <ele>1280</ele>
        <time>2021-02-20T15:40:10Z</time>
      </trkpt>
      <trkpt lat="45.17989" lon="5.90841">
        <ele>1279.9</ele>
        <time>2021-02-20T15:40:11Z</time>
      </trkpt>
      <trkpt lat="45.1799" lon="5.90841">
        <ele>1279.8</ele>
        <time>2021-02-20T15:40:12Z</time>
      </trkpt>
      <trkpt lat="45.1799" lon="5.90842">
        <ele>1279.7</ele>
        <time>2021-02-20T15:40:13Z</time>
      </trkpt>
      <trkpt lat="45.17991" lon="5.90842">
        <ele>1279.6</ele>
        <time>2021-02-20T15:40:14Z</time>
      </trkpt>
      <trkpt lat="45.17992" lon="5.90841">
        <ele>1279.5</ele>
        <time>2021-02-20T15:40:15Z</time>
      </trkpt>
      <trkpt lat="45.17993" lon="5.90841">
        <ele>1279.4</ele>
        <time>2021-02-20T15:40:16Z</time>
      </trkpt>
      <trkpt lat="45.17994" lon="5.90841">
        <ele>1279.4</ele>
        <time>2021-02-20T15:40:17Z</time>
      </trkpt>
      <trkpt lat="45.17995" lon="5.90841">
        <ele>1279.3</ele>
        <time>2021-02-20T15:40:18Z</time>
      </trkpt>
      <trkpt lat="45.17996" lon="5.90841">
        <ele>1279.1</ele>
        <time>2021-02-20T15:40:19Z</time>
      </trkpt>
      <trkpt lat="45.17998" lon="5.9084">
        <ele>1278.9</ele>
        <time>2021-02-20T15:40:20Z</time>
      </trkpt>
      <trkpt lat="45.18" lon="5.9084">
        <ele>1278.7</ele>
        <time>2021-02-20T15:40:21Z</time>
      </trkpt>
      <trkpt lat="45.18001" lon="5.90839">
        <ele>1278.6</ele>
        <time>2021-02-20T15:40:22Z</time>
      </trkpt>
      <trkpt lat="45.18003" lon="5.90839">
        <ele>1278.4</ele>
        <time>2021-02-20T15:40:23Z</time>
      </trkpt>
      <trkpt lat="45.18004" lon="5.90839">
        <ele>1278.3</ele>
        <time>2021-02-20T15:40:24Z</time>
      </trkpt>
      <trkpt lat="45.18005" lon="5.90839">
        <ele>1278.2</ele>
        <time>2021-02-20T15:40:25Z</time>
      </trkpt>
      <trkpt lat="45.18006" lon="5.90839">
        <ele>1278.1</ele>
        <time>2021-02-20T15:40:26Z</time>
      </trkpt>
      <trkpt lat="45.18007" lon="5.90839">
        <ele>1278</ele>
        <time>2021-02-20T15:40:27Z</time>
      </trkpt>
      <trkpt lat="45.18009" lon="5.90839">
        <ele>1277.8</ele>
        <time>2021-02-20T15:40:28Z</time>
      </trkpt>
      <trkpt lat="45.1801" lon="5.90839">
        <ele>1277.7</ele>
        <time>2021-02-20T15:40:29Z</time>
      </trkpt>
      <trkpt lat="45.18011" lon="5.90838">
        <ele>1277.6</ele>
        <time>2021-02-20T15:40:30Z</time>
      </trkpt>
      <trkpt lat="45.18012" lon="5.90837">
        <ele>1277.4</ele>
        <time>2021-02-20T15:40:31Z</time>
      </trkpt>
      <trkpt lat="45.18013" lon="5.90837">
        <ele>1277.3</ele>
        <time>2021-02-20T15:40:32Z</time>
      </trkpt>
      <trkpt lat="45.18015" lon="5.90836">
        <ele>1277.1</ele>
        <time>2021-02-20T15:40:33Z</time>
      </trkpt>
      <trkpt lat="45.18016" lon="5.90835">
        <ele>1276.9</ele>
        <time>2021-02-20T15:40:34Z</time>
      </trkpt>
      <trkpt lat="45.18017" lon="5.90834">
        <ele>1276.8</ele>
        <time>2021-02-20T15:40:35Z</time>
      </trkpt>
      <trkpt lat="45.18019" lon="5.90832">
        <ele>1276.6</ele>
        <time>2021-02-20T15:40:36Z</time>
      </trkpt>
      <trkpt lat="45.1802" lon="5.9083">
        <ele>1276.4</ele>
        <time>2021-02-20T15:40:37Z</time>
      </trkpt>
      <trkpt lat="45.1802" lon="5.90829">
        <ele>1276.3</ele>
        <time>2021-02-20T15:40:38Z</time>
      </trkpt>
      <trkpt lat="45.18021" lon="5.90828">
        <ele>1276.2</ele>
        <time>2021-02-20T15:40:39Z</time>
      </trkpt>
      <trkpt lat="45.18023" lon="5.90828">
        <ele>1275.9</ele>
        <time>2021-02-20T15:40:40Z</time>
      </trkpt>
      <trkpt lat="45.18026" lon="5.90827">
        <ele>1275.6</ele>
        <time>2021-02-20T15:40:41Z</time>
      </trkpt>
      <trkpt lat="45.18027" lon="5.90827">
        <ele>1275.5</ele>
        <time>2021-02-20T15:40:42Z</time>
      </trkpt>
      <trkpt lat="45.18029" lon="5.90826">
        <ele>1275.3</ele>
        <time>2021-02-20T15:40:43Z</time>
      </trkpt>
      <trkpt lat="45.18031" lon="5.90826">
        <ele>1275.1</ele>
        <time>2021-02-20T15:40:44Z</time>
      </trkpt>
      <trkpt lat="45.18033" lon="5.90824">
        <ele>1274.8</ele>
        <time>2021-02-20T15:40:45Z</time>
      </trkpt>
      <trkpt lat="45.18034" lon="5.90823">
        <ele>1274.7</ele>
        <time>2021-02-20T15:40:46Z</time>
      </trkpt>
      <trkpt lat="45.18035" lon="5.90823">
        <ele>1274.6</ele>
        <time>2021-02-20T15:40:47Z</time>
      </trkpt>
      <trkpt lat="45.18036" lon="5.90822">
        <ele>1274.5</ele>
        <time>2021-02-20T15:40:48Z</time>
      </trkpt>
      <trkpt lat="45.18037" lon="5.90821">
        <ele>1274.4</ele>
        <time>2021-02-20T15:40:49Z</time>
      </trkpt>
      <trkpt lat="45.18038" lon="5.90821">
        <ele>1274.3</ele>
        <time>2021-02-20T15:40:50Z</time>
      </trkpt>
      <trkpt lat="45.18038" lon="5.90821">
        <ele>1274.2</ele>
        <time>2021-02-20T15:40:51Z</time>
      </trkpt>
      <trkpt lat="45.18039" lon="5.90821">
        <ele>1274.2</ele>
        <time>2021-02-20T15:40:52Z</time>
      </trkpt>
      <trkpt lat="45.1804" lon="5.90821">
        <ele>1274.1</ele>
        <time>2021-02-20T15:40:53Z</time>
      </trkpt>
      <trkpt lat="45.18041" lon="5.90821">
        <ele>1274</ele>
        <time>2021-02-20T15:40:54Z</time>
      </trkpt>
      <trkpt lat="45.18042" lon="5.9082">
        <ele>1273.9</ele>
        <time>2021-02-20T15:40:55Z</time>
      </trkpt>
      <trkpt lat="45.18042" lon="5.90819">
        <ele>1273.8</ele>
        <time>2021-02-20T15:40:56Z</time>
      </trkpt>
      <trkpt lat="45.18044" lon="5.90817">
        <ele>1273.6</ele>
        <time>2021-02-20T15:40:57Z</time>
      </trkpt>
      <trkpt lat="45.18044" lon="5.90817">
        <ele>1273.5</ele>
        <time>2021-02-20T15:40:58Z</time>
      </trkpt>
      <trkpt lat="45.18045" lon="5.90816">
        <ele>1273.5</ele>
        <time>2021-02-20T15:40:59Z</time>
      </trkpt>
      <trkpt lat="45.18046" lon="5.90815">
        <ele>1273.3</ele>
        <time>2021-02-20T15:41:00Z</time>
      </trkpt>
      <trkpt lat="45.18047" lon="5.90815">
        <ele>1273.3</ele>
        <time>2021-02-20T15:41:01Z</time>
      </trkpt>
      <trkpt lat="45.18048" lon="5.90814">
        <ele>1273.2</ele>
        <time>2021-02-20T15:41:02Z</time>
      </trkpt>
      <trkpt lat="45.18049" lon="5.90814">
        <ele>1273.1</ele>
        <time>2021-02-20T15:41:03Z</time>
      </trkpt>
      <trkpt lat="45.1805" lon="5.90813">
        <ele>1273</ele>
        <time>2021-02-20T15:41:04Z</time>
      </trkpt>
      <trkpt lat="45.18051" lon="5.90812">
        <ele>1272.8</ele>
        <time>2021-02-20T15:41:05Z</time>
      </trkpt>
      <trkpt lat="45.18052" lon="5.90812">
        <ele>1272.7</ele>
        <time>2021-02-20T15:41:06Z</time>
      </trkpt>
      <trkpt lat="45.18053" lon="5.90812">
        <ele>1272.7</ele>
        <time>2021-02-20T15:41:07Z</time>
      </trkpt>
      <trkpt lat="45.18054" lon="5.90812">
        <ele>1272.6</ele>
        <time>2021-02-20T15:41:08Z</time>
      </trkpt>
      <trkpt lat="45.18054" lon="5.90812">
        <ele>1272.5</ele>
        <time>2021-02-20T15:41:09Z</time>
      </trkpt>
      <trkpt lat="45.18056" lon="5.90812">
        <ele>1272.3</ele>
        <time>2021-02-20T15:41:10Z</time>
      </trkpt>
      <trkpt lat="45.18057" lon="5.90811">
        <ele>1272.2</ele>
        <time>2021-02-20T15:41:11Z</time>
      </trkpt>
      <trkpt lat="45.18058" lon="5.90811">
        <ele>1272.1</ele>
        <time>2021-02-20T15:41:12Z</time>
      </trkpt>
      <trkpt lat="45.18062" lon="5.9081">
        <ele>1271.8</ele>
        <time>2021-02-20T15:41:13Z</time>
      </trkpt>
      <trkpt lat="45.18063" lon="5.9081">
        <ele>1271.7</ele>
        <time>2021-02-20T15:41:14Z</time>
      </trkpt>
      <trkpt lat="45.18065" lon="5.90809">
        <ele>1271.4</ele>
        <time>2021-02-20T15:41:15Z</time>
      </trkpt>
      <trkpt lat="45.18066" lon="5.90808">
        <ele>1271.2</ele>
        <time>2021-02-20T15:41:16Z</time>
      </trkpt>
      <trkpt lat="45.18068" lon="5.90807">
        <ele>1271</ele>
        <time>2021-02-20T15:41:17Z</time>
      </trkpt>
      <trkpt lat="45.18069" lon="5.90806">
        <ele>1270.9</ele>
        <time>2021-02-20T15:41:18Z</time>
      </trkpt>
      <trkpt lat="45.18071" lon="5.90805">
        <ele>1270.7</ele>
        <time>2021-02-20T15:41:19Z</time>
      </trkpt>
      <trkpt lat="45.18073" lon="5.90805">
        <ele>1270.5</ele>
        <time>2021-02-20T15:41:20Z</time>
      </trkpt>
      <trkpt lat="45.18074" lon="5.90805">
        <ele>1270.4</ele>
        <time>2021-02-20T15:41:21Z</time>
      </trkpt>
      <trkpt lat="45.18075" lon="5.90804">
        <ele>1270.3</ele>
        <time>2021-02-20T15:41:22Z</time>
      </trkpt>
      <trkpt lat="45.18076" lon="5.90804">
        <ele>1270.1</ele>
        <time>2021-02-20T15:41:23Z</time>
      </trkpt>
      <trkpt lat="45.18077" lon="5.90803">
        <ele>1269.9</ele>
        <time>2021-02-20T15:41:24Z</time>
      </trkpt>
      <trkpt lat="45.18079" lon="5.90802">
        <ele>1269.8</ele>
        <time>2021-02-20T15:41:25Z</time>
      </trkpt>
      <trkpt lat="45.1808" lon="5.90801">
        <ele>1269.7</ele>
        <time>2021-02-20T15:41:26Z</time>
      </trkpt>
      <trkpt lat="45.18082" lon="5.90801">
        <ele>1269.5</ele>
        <time>2021-02-20T15:41:27Z</time>
      </trkpt>
      <trkpt lat="45.18083" lon="5.908">
        <ele>1269.4</ele>
        <time>2021-02-20T15:41:28Z</time>
      </trkpt>
      <trkpt lat="45.18085" lon="5.90799">
        <ele>1269.2</ele>
        <time>2021-02-20T15:41:29Z</time>
      </trkpt>
      <trkpt lat="45.18086" lon="5.90799">
        <ele>1269.1</ele>
        <time>2021-02-20T15:41:30Z</time>
      </trkpt>
      <trkpt lat="45.18087" lon="5.90797">
        <ele>1269</ele>
        <time>2021-02-20T15:41:31Z</time>
      </trkpt>
      <trkpt lat="45.18088" lon="5.90797">
        <ele>1268.8</ele>
        <time>2021-02-20T15:41:32Z</time>
      </trkpt>
      <trkpt lat="45.18089" lon="5.90795">
        <ele>1268.7</ele>
        <time>2021-02-20T15:41:33Z</time>
      </trkpt>
      <trkpt lat="45.18089" lon="5.90793">
        <ele>1268.6</ele>
        <time>2021-02-20T15:41:34Z</time>
      </trkpt>
      <trkpt lat="45.18088" lon="5.90791">
        <ele>1268.5</ele>
        <time>2021-02-20T15:41:35Z</time>
      </trkpt>
      <trkpt lat="45.18089" lon="5.90789">
        <ele>1268.4</ele>
        <time>2021-02-20T15:41:36Z</time>
      </trkpt>
      <trkpt lat="45.1809" lon="5.90788">
        <ele>1268.2</ele>
        <time>2021-02-20T15:41:37Z</time>
      </trkpt>
      <trkpt lat="45.18091" lon="5.90786">
        <ele>1268.1</ele>
        <time>2021-02-20T15:41:38Z</time>
      </trkpt>
      <trkpt lat="45.18092" lon="5.90784">
        <ele>1267.9</ele>
        <time>2021-02-20T15:41:39Z</time>
      </trkpt>
      <trkpt lat="45.18094" lon="5.90783">
        <ele>1267.8</ele>
        <time>2021-02-20T15:41:40Z</time>
      </trkpt>
      <trkpt lat="45.18095" lon="5.90781">
        <ele>1267.6</ele>
        <time>2021-02-20T15:41:41Z</time>
      </trkpt>
      <trkpt lat="45.18096" lon="5.9078">
        <ele>1267.5</ele>
        <time>2021-02-20T15:41:42Z</time>
      </trkpt>
      <trkpt lat="45.18099" lon="5.9078">
        <ele>1267.2</ele>
        <time>2021-02-20T15:41:43Z</time>
      </trkpt>
      <trkpt lat="45.181" lon="5.9078">
        <ele>1267.1</ele>
        <time>2021-02-20T15:41:44Z</time>
      </trkpt>
      <trkpt lat="45.18102" lon="5.9078">
        <ele>1266.9</ele>
        <time>2021-02-20T15:41:45Z</time>
      </trkpt>
      <trkpt lat="45.18104" lon="5.9078">
        <ele>1266.8</ele>
        <time>2021-02-20T15:41:46Z</time>
      </trkpt>
      <trkpt lat="45.18105" lon="5.90779">
        <ele>1266.6</ele>
        <time>2021-02-20T15:41:47Z</time>
      </trkpt>
      <trkpt lat="45.18107" lon="5.90779">
        <ele>1266.5</ele>
        <time>2021-02-20T15:41:48Z</time>
      </trkpt>
      <trkpt lat="45.18108" lon="5.90778">
        <ele>1266.3</ele>
        <time>2021-02-20T15:41:49Z</time>
      </trkpt>
      <trkpt lat="45.1811" lon="5.90777">
        <ele>1266.2</ele>
        <time>2021-02-20T15:41:50Z</time>
      </trkpt>
      <trkpt lat="45.18112" lon="5.90776">
        <ele>1266</ele>
        <time>2021-02-20T15:41:51Z</time>
      </trkpt>
      <trkpt lat="45.18113" lon="5.90775">
        <ele>1265.8</ele>
        <time>2021-02-20T15:41:52Z</time>
      </trkpt>
      <trkpt lat="45.18114" lon="5.90774">
        <ele>1265.7</ele>
        <time>2021-02-20T15:41:53Z</time>
      </trkpt>
      <trkpt lat="45.18115" lon="5.90772">
        <ele>1265.6</ele>
        <time>2021-02-20T15:41:54Z</time>
      </trkpt>
      <trkpt lat="45.18117" lon="5.90771">
        <ele>1265.4</ele>
        <time>2021-02-20T15:41:55Z</time>
      </trkpt>
      <trkpt lat="45.18117" lon="5.9077">
        <ele>1265.3</ele>
        <time>2021-02-20T15:41:56Z</time>
      </trkpt>
      <trkpt lat="45.18118" lon="5.90769">
        <ele>1265.2</ele>
        <time>2021-02-20T15:41:57Z</time>
      </trkpt>
      <trkpt lat="45.18121" lon="5.90767">
        <ele>1264.9</ele>
        <time>2021-02-20T15:41:58Z</time>
      </trkpt>
      <trkpt lat="45.18121" lon="5.90766">
        <ele>1264.9</ele>
        <time>2021-02-20T15:41:59Z</time>
      </trkpt>
      <trkpt lat="45.18123" lon="5.90765">
        <ele>1264.7</ele>
        <time>2021-02-20T15:42:00Z</time>
      </trkpt>
      <trkpt lat="45.18124" lon="5.90764">
        <ele>1264.6</ele>
        <time>2021-02-20T15:42:01Z</time>
      </trkpt>
      <trkpt lat="45.18125" lon="5.90763">
        <ele>1264.5</ele>
        <time>2021-02-20T15:42:02Z</time>
      </trkpt>
      <trkpt lat="45.18125" lon="5.90762">
        <ele>1264.4</ele>
        <time>2021-02-20T15:42:03Z</time>
      </trkpt>
      <trkpt lat="45.18126" lon="5.90761">
        <ele>1264.4</ele>
        <time>2021-02-20T15:42:04Z</time>
      </trkpt>
      <trkpt lat="45.18127" lon="5.9076">
        <ele>1264.2</ele>
        <time>2021-02-20T15:42:05Z</time>
      </trkpt>
      <trkpt lat="45.18129" lon="5.90759">
        <ele>1264.1</ele>
        <time>2021-02-20T15:42:06Z</time>
      </trkpt>
      <trkpt lat="45.18131" lon="5.90758">
        <ele>1263.8</ele>
        <time>2021-02-20T15:42:07Z</time>
      </trkpt>
      <trkpt lat="45.18132" lon="5.90758">
        <ele>1263.7</ele>
        <time>2021-02-20T15:42:08Z</time>
      </trkpt>
      <trkpt lat="45.18134" lon="5.90757">
        <ele>1263.6</ele>
        <time>2021-02-20T15:42:09Z</time>
      </trkpt>
      <trkpt lat="45.18136" lon="5.90756">
        <ele>1263.4</ele>
        <time>2021-02-20T15:42:10Z</time>
      </trkpt>
      <trkpt lat="45.18138" lon="5.90755">
        <ele>1263.2</ele>
        <time>2021-02-20T15:42:11Z</time>
      </trkpt>
      <trkpt lat="45.18138" lon="5.90754">
        <ele>1263.1</ele>
        <time>2021-02-20T15:42:12Z</time>
      </trkpt>
      <trkpt lat="45.18139" lon="5.90753">
        <ele>1263</ele>
        <time>2021-02-20T15:42:13Z</time>
      </trkpt>
      <trkpt lat="45.1814" lon="5.90752">
        <ele>1262.9</ele>
        <time>2021-02-20T15:42:14Z</time>
      </trkpt>
      <trkpt lat="45.18141" lon="5.90751">
        <ele>1262.8</ele>
        <time>2021-02-20T15:42:15Z</time>
      </trkpt>
      <trkpt lat="45.18142" lon="5.9075">
        <ele>1262.6</ele>
        <time>2021-02-20T15:42:16Z</time>
      </trkpt>
      <trkpt lat="45.18143" lon="5.90749">
        <ele>1262.6</ele>
        <time>2021-02-20T15:42:17Z</time>
      </trkpt>
      <trkpt lat="45.18144" lon="5.90748">
        <ele>1262.4</ele>
        <time>2021-02-20T15:42:18Z</time>
      </trkpt>
      <trkpt lat="45.18145" lon="5.90747">
        <ele>1262.3</ele>
        <time>2021-02-20T15:42:19Z</time>
      </trkpt>
      <trkpt lat="45.18146" lon="5.90746">
        <ele>1262.1</ele>
        <time>2021-02-20T15:42:20Z</time>
      </trkpt>
      <trkpt lat="45.18148" lon="5.90744">
        <ele>1262</ele>
        <time>2021-02-20T15:42:21Z</time>
      </trkpt>
      <trkpt lat="45.18149" lon="5.90743">
        <ele>1261.8</ele>
        <time>2021-02-20T15:42:22Z</time>
      </trkpt>
      <trkpt lat="45.18151" lon="5.90742">
        <ele>1261.6</ele>
        <time>2021-02-20T15:42:23Z</time>
      </trkpt>
      <trkpt lat="45.18152" lon="5.90742">
        <ele>1261.5</ele>
        <time>2021-02-20T15:42:24Z</time>
      </trkpt>
      <trkpt lat="45.18152" lon="5.90742">
        <ele>1261.4</ele>
        <time>2021-02-20T15:42:25Z</time>
      </trkpt>
      <trkpt lat="45.18153" lon="5.9074">
        <ele>1261.3</ele>
        <time>2021-02-20T15:42:26Z</time>
      </trkpt>
      <trkpt lat="45.18154" lon="5.90739">
        <ele>1261.2</ele>
        <time>2021-02-20T15:42:27Z</time>
      </trkpt>
      <trkpt lat="45.18156" lon="5.90738">
        <ele>1261</ele>
        <time>2021-02-20T15:42:28Z</time>
      </trkpt>
      <trkpt lat="45.18157" lon="5.90737">
        <ele>1260.9</ele>
        <time>2021-02-20T15:42:29Z</time>
      </trkpt>
      <trkpt lat="45.18158" lon="5.90736">
        <ele>1260.8</ele>
        <time>2021-02-20T15:42:30Z</time>
      </trkpt>
      <trkpt lat="45.18159" lon="5.90736">
        <ele>1260.7</ele>
        <time>2021-02-20T15:42:31Z</time>
      </trkpt>
      <trkpt lat="45.18159" lon="5.90735">
        <ele>1260.6</ele>
        <time>2021-02-20T15:42:32Z</time>
      </trkpt>
      <trkpt lat="45.18159" lon="5.90735">
        <ele>1260.6</ele>
        <time>2021-02-20T15:42:33Z</time>
      </trkpt>
      <trkpt lat="45.1816" lon="5.90734">
        <ele>1260.5</ele>
        <time>2021-02-20T15:42:34Z</time>
      </trkpt>
      <trkpt lat="45.1816" lon="5.90733">
        <ele>1260.4</ele>
        <time>2021-02-20T15:42:35Z</time>
      </trkpt>
      <trkpt lat="45.1816" lon="5.90732">
        <ele>1260.4</ele>
        <time>2021-02-20T15:42:36Z</time>
      </trkpt>
      <trkpt lat="45.18161" lon="5.90732">
        <ele>1260.3</ele>
        <time>2021-02-20T15:42:37Z</time>
      </trkpt>
      <trkpt lat="45.18162" lon="5.90731">
        <ele>1260.2</ele>
        <time>2021-02-20T15:42:38Z</time>
      </trkpt>
      <trkpt lat="45.18163" lon="5.90731">
        <ele>1260.1</ele>
        <time>2021-02-20T15:42:39Z</time>
      </trkpt>
      <trkpt lat="45.18165" lon="5.9073">
        <ele>1259.9</ele>
        <time>2021-02-20T15:42:40Z</time>
      </trkpt>
      <trkpt lat="45.18165" lon="5.90729">
        <ele>1259.8</ele>
        <time>2021-02-20T15:42:41Z</time>
      </trkpt>
      <trkpt lat="45.18166" lon="5.90728">
        <ele>1259.7</ele>
        <time>2021-02-20T15:42:42Z</time>
      </trkpt>
      <trkpt lat="45.18167" lon="5.90727">
        <ele>1259.6</ele>
        <time>2021-02-20T15:42:43Z</time>
      </trkpt>
      <trkpt lat="45.18168" lon="5.90727">
        <ele>1259.5</ele>
        <time>2021-02-20T15:42:44Z</time>
      </trkpt>
      <trkpt lat="45.18168" lon="5.90726">
        <ele>1259.4</ele>
        <time>2021-02-20T15:42:45Z</time>
      </trkpt>
      <trkpt lat="45.18168" lon="5.90725">
        <ele>1259.3</ele>
        <time>2021-02-20T15:42:46Z</time>
      </trkpt>
      <trkpt lat="45.18169" lon="5.90724">
        <ele>1259.3</ele>
        <time>2021-02-20T15:42:47Z</time>
      </trkpt>
      <trkpt lat="45.18169" lon="5.90723">
        <ele>1259.2</ele>
        <time>2021-02-20T15:42:48Z</time>
      </trkpt>
      <trkpt lat="45.1817" lon="5.90722">
        <ele>1259.1</ele>
        <time>2021-02-20T15:42:49Z</time>
      </trkpt>
      <trkpt lat="45.18171" lon="5.90722">
        <ele>1259</ele>
        <time>2021-02-20T15:42:50Z</time>
      </trkpt>
      <trkpt lat="45.18172" lon="5.90722">
        <ele>1258.9</ele>
        <time>2021-02-20T15:42:51Z</time>
      </trkpt>
      <trkpt lat="45.18173" lon="5.90721">
        <ele>1258.8</ele>
        <time>2021-02-20T15:42:52Z</time>
      </trkpt>
      <trkpt lat="45.18174" lon="5.90721">
        <ele>1258.6</ele>
        <time>2021-02-20T15:42:53Z</time>
      </trkpt>
      <trkpt lat="45.18175" lon="5.9072">
        <ele>1258.5</ele>
        <time>2021-02-20T15:42:54Z</time>
      </trkpt>
      <trkpt lat="45.18176" lon="5.90719">
        <ele>1258.4</ele>
        <time>2021-02-20T15:42:55Z</time>
      </trkpt>
      <trkpt lat="45.18177" lon="5.90717">
        <ele>1258.2</ele>
        <time>2021-02-20T15:42:56Z</time>
      </trkpt>
      <trkpt lat="45.18178" lon="5.90715">
        <ele>1258.1</ele>
        <time>2021-02-20T15:42:57Z</time>
      </trkpt>
      <trkpt lat="45.18179" lon="5.90714">
        <ele>1257.9</ele>
        <time>2021-02-20T15:42:58Z</time>
      </trkpt>
      <trkpt lat="45.1818" lon="5.90712">
        <ele>1257.7</ele>
        <time>2021-02-20T15:42:59Z</time>
      </trkpt>
      <trkpt lat="45.18183" lon="5.90709">
        <ele>1257.3</ele>
        <time>2021-02-20T15:43:00Z</time>
      </trkpt>
      <trkpt lat="45.18184" lon="5.90709">
        <ele>1257.2</ele>
        <time>2021-02-20T15:43:01Z</time>
      </trkpt>
      <trkpt lat="45.18186" lon="5.90708">
        <ele>1257.1</ele>
        <time>2021-02-20T15:43:02Z</time>
      </trkpt>
      <trkpt lat="45.18186" lon="5.90708">
        <ele>1257</ele>
        <time>2021-02-20T15:43:03Z</time>
      </trkpt>
      <trkpt lat="45.18187" lon="5.90709">
        <ele>1257</ele>
        <time>2021-02-20T15:43:04Z</time>
      </trkpt>
      <trkpt lat="45.18188" lon="5.90709">
        <ele>1256.9</ele>
        <time>2021-02-20T15:43:05Z</time>
      </trkpt>
      <trkpt lat="45.18189" lon="5.90709">
        <ele>1256.7</ele>
        <time>2021-02-20T15:43:06Z</time>
      </trkpt>
      <trkpt lat="45.1819" lon="5.90708">
        <ele>1256.6</ele>
        <time>2021-02-20T15:43:07Z</time>
      </trkpt>
      <trkpt lat="45.18192" lon="5.90708">
        <ele>1256.4</ele>
        <time>2021-02-20T15:43:08Z</time>
      </trkpt>
      <trkpt lat="45.18193" lon="5.90707">
        <ele>1256.3</ele>
        <time>2021-02-20T15:43:09Z</time>
      </trkpt>
      <trkpt lat="45.18194" lon="5.90707">
        <ele>1256.2</ele>
        <time>2021-02-20T15:43:10Z</time>
      </trkpt>
      <trkpt lat="45.18195" lon="5.90706">
        <ele>1256.1</ele>
        <time>2021-02-20T15:43:11Z</time>
      </trkpt>
      <trkpt lat="45.18196" lon="5.90706">
        <ele>1256</ele>
        <time>2021-02-20T15:43:12Z</time>
      </trkpt>
      <trkpt lat="45.18196" lon="5.90705">
        <ele>1255.9</ele>
        <time>2021-02-20T15:43:13Z</time>
      </trkpt>
      <trkpt lat="45.18197" lon="5.90704">
        <ele>1255.8</ele>
        <time>2021-02-20T15:43:14Z</time>
      </trkpt>
      <trkpt lat="45.18198" lon="5.90703">
        <ele>1255.7</ele>
        <time>2021-02-20T15:43:15Z</time>
      </trkpt>
      <trkpt lat="45.18199" lon="5.90703">
        <ele>1255.6</ele>
        <time>2021-02-20T15:43:16Z</time>
      </trkpt>
      <trkpt lat="45.18199" lon="5.90703">
        <ele>1255.6</ele>
        <time>2021-02-20T15:43:17Z</time>
      </trkpt>
      <trkpt lat="45.182" lon="5.90703">
        <ele>1255.5</ele>
        <time>2021-02-20T15:43:18Z</time>
      </trkpt>
      <trkpt lat="45.18201" lon="5.90704">
        <ele>1255.4</ele>
        <time>2021-02-20T15:43:19Z</time>
      </trkpt>
      <trkpt lat="45.18204" lon="5.90704">
        <ele>1255.1</ele>
        <time>2021-02-20T15:43:20Z</time>
      </trkpt>
      <trkpt lat="45.18205" lon="5.90704">
        <ele>1255</ele>
        <time>2021-02-20T15:43:21Z</time>
      </trkpt>
      <trkpt lat="45.18207" lon="5.90704">
        <ele>1254.8</ele>
        <time>2021-02-20T15:43:22Z</time>
      </trkpt>
      <trkpt lat="45.18207" lon="5.90704">
        <ele>1254.8</ele>
        <time>2021-02-20T15:43:23Z</time>
      </trkpt>
      <trkpt lat="45.18208" lon="5.90704">
        <ele>1254.7</ele>
        <time>2021-02-20T15:43:24Z</time>
      </trkpt>
      <trkpt lat="45.18208" lon="5.90705">
        <ele>1254.7</ele>
        <time>2021-02-20T15:43:25Z</time>
      </trkpt>
      <trkpt lat="45.18209" lon="5.90704">
        <ele>1254.6</ele>
        <time>2021-02-20T15:43:26Z</time>
      </trkpt>
      <trkpt lat="45.18209" lon="5.90703">
        <ele>1254.5</ele>
        <time>2021-02-20T15:43:27Z</time>
      </trkpt>
      <trkpt lat="45.18211" lon="5.90701">
        <ele>1254.4</ele>
        <time>2021-02-20T15:43:28Z</time>
      </trkpt>
      <trkpt lat="45.18212" lon="5.90701">
        <ele>1254.2</ele>
        <time>2021-02-20T15:43:29Z</time>
      </trkpt>
      <trkpt lat="45.18214" lon="5.907">
        <ele>1254.1</ele>
        <time>2021-02-20T15:43:30Z</time>
      </trkpt>
      <trkpt lat="45.18217" lon="5.90699">
        <ele>1253.8</ele>
        <time>2021-02-20T15:43:31Z</time>
      </trkpt>
      <trkpt lat="45.18218" lon="5.90698">
        <ele>1253.7</ele>
        <time>2021-02-20T15:43:32Z</time>
      </trkpt>
      <trkpt lat="45.18219" lon="5.90697">
        <ele>1253.5</ele>
        <time>2021-02-20T15:43:33Z</time>
      </trkpt>
      <trkpt lat="45.18221" lon="5.90697">
        <ele>1253.4</ele>
        <time>2021-02-20T15:43:34Z</time>
      </trkpt>
      <trkpt lat="45.18222" lon="5.90696">
        <ele>1253.3</ele>
        <time>2021-02-20T15:43:35Z</time>
      </trkpt>
      <trkpt lat="45.18223" lon="5.90696">
        <ele>1253.2</ele>
        <time>2021-02-20T15:43:36Z</time>
      </trkpt>
      <trkpt lat="45.18223" lon="5.90696">
        <ele>1253.1</ele>
        <time>2021-02-20T15:43:37Z</time>
      </trkpt>
      <trkpt lat="45.18224" lon="5.90695">
        <ele>1253</ele>
        <time>2021-02-20T15:43:38Z</time>
      </trkpt>
      <trkpt lat="45.18225" lon="5.90694">
        <ele>1252.9</ele>
        <time>2021-02-20T15:43:39Z</time>
      </trkpt>
      <trkpt lat="45.18226" lon="5.90694">
        <ele>1252.8</ele>
        <time>2021-02-20T15:43:40Z</time>
      </trkpt>
      <trkpt lat="45.18228" lon="5.90693">
        <ele>1252.6</ele>
        <time>2021-02-20T15:43:41Z</time>
      </trkpt>
      <trkpt lat="45.18229" lon="5.90693">
        <ele>1252.5</ele>
        <time>2021-02-20T15:43:42Z</time>
      </trkpt>
      <trkpt lat="45.18231" lon="5.90692">
        <ele>1252.3</ele>
        <time>2021-02-20T15:43:43Z</time>
      </trkpt>
      <trkpt lat="45.18232" lon="5.90692">
        <ele>1252.2</ele>
        <time>2021-02-20T15:43:44Z</time>
      </trkpt>
      <trkpt lat="45.18233" lon="5.90692">
        <ele>1252.1</ele>
        <time>2021-02-20T15:43:45Z</time>
      </trkpt>
      <trkpt lat="45.18234" lon="5.90692">
        <ele>1252</ele>
        <time>2021-02-20T15:43:46Z</time>
      </trkpt>
      <trkpt lat="45.18236" lon="5.90692">
        <ele>1251.8</ele>
        <time>2021-02-20T15:43:47Z</time>
      </trkpt>
      <trkpt lat="45.18238" lon="5.90691">
        <ele>1251.6</ele>
        <time>2021-02-20T15:43:48Z</time>
      </trkpt>
      <trkpt lat="45.18239" lon="5.90691">
        <ele>1251.5</ele>
        <time>2021-02-20T15:43:49Z</time>
      </trkpt>
      <trkpt lat="45.18242" lon="5.90691">
        <ele>1251.2</ele>
        <time>2021-02-20T15:43:50Z</time>
      </trkpt>
      <trkpt lat="45.18243" lon="5.9069">
        <ele>1251.1</ele>
        <time>2021-02-20T15:43:51Z</time>
      </trkpt>
      <trkpt lat="45.18245" lon="5.9069">
        <ele>1250.9</ele>
        <time>2021-02-20T15:43:52Z</time>
      </trkpt>
      <trkpt lat="45.18246" lon="5.9069">
        <ele>1250.7</ele>
        <time>2021-02-20T15:43:53Z</time>
      </trkpt>
      <trkpt lat="45.18247" lon="5.90689">
        <ele>1250.6</ele>
        <time>2021-02-20T15:43:54Z</time>
      </trkpt>
      <trkpt lat="45.18248" lon="5.90689">
        <ele>1250.5</ele>
        <time>2021-02-20T15:43:55Z</time>
      </trkpt>
      <trkpt lat="45.18249" lon="5.90689">
        <ele>1250.4</ele>
        <time>2021-02-20T15:43:56Z</time>
      </trkpt>
      <trkpt lat="45.1825" lon="5.90689">
        <ele>1250.3</ele>
        <time>2021-02-20T15:43:57Z</time>
      </trkpt>
      <trkpt lat="45.18252" lon="5.90688">
        <ele>1250.2</ele>
        <time>2021-02-20T15:43:58Z</time>
      </trkpt>
      <trkpt lat="45.18253" lon="5.90687">
        <ele>1250</ele>
        <time>2021-02-20T15:43:59Z</time>
      </trkpt>
      <trkpt lat="45.18253" lon="5.90686">
        <ele>1249.9</ele>
        <time>2021-02-20T15:44:00Z</time>
      </trkpt>
      <trkpt lat="45.18255" lon="5.90685">
        <ele>1249.7</ele>
        <time>2021-02-20T15:44:01Z</time>
      </trkpt>
      <trkpt lat="45.18257" lon="5.90684">
        <ele>1249.5</ele>
        <time>2021-02-20T15:44:02Z</time>
      </trkpt>
      <trkpt lat="45.18258" lon="5.90683">
        <ele>1249.4</ele>
        <time>2021-02-20T15:44:03Z</time>
      </trkpt>
      <trkpt lat="45.1826" lon="5.90681">
        <ele>1249.2</ele>
        <time>2021-02-20T15:44:04Z</time>
      </trkpt>
      <trkpt lat="45.18261" lon="5.9068">
        <ele>1249.1</ele>
        <time>2021-02-20T15:44:05Z</time>
      </trkpt>
      <trkpt lat="45.18262" lon="5.90679">
        <ele>1248.9</ele>
        <time>2021-02-20T15:44:06Z</time>
      </trkpt>
      <trkpt lat="45.18263" lon="5.90679">
        <ele>1248.8</ele>
        <time>2021-02-20T15:44:07Z</time>
      </trkpt>
      <trkpt lat="45.18265" lon="5.90679">
        <ele>1248.6</ele>
        <time>2021-02-20T15:44:08Z</time>
      </trkpt>
      <trkpt lat="45.18266" lon="5.90679">
        <ele>1248.5</ele>
        <time>2021-02-20T15:44:09Z</time>
      </trkpt>
      <trkpt lat="45.18267" lon="5.90679">
        <ele>1248.4</ele>
        <time>2021-02-20T15:44:10Z</time>
      </trkpt>
      <trkpt lat="45.18268" lon="5.9068">
        <ele>1248.3</ele>
        <time>2021-02-20T15:44:11Z</time>
      </trkpt>
      <trkpt lat="45.18269" lon="5.9068">
        <ele>1248.2</ele>
        <time>2021-02-20T15:44:12Z</time>
      </trkpt>
      <trkpt lat="45.18269" lon="5.9068">
        <ele>1248.2</ele>
        <time>2021-02-20T15:44:13Z</time>
      </trkpt>
      <trkpt lat="45.1827" lon="5.9068">
        <ele>1248.1</ele>
        <time>2021-02-20T15:44:14Z</time>
      </trkpt>
      <trkpt lat="45.18271" lon="5.9068">
        <ele>1248.1</ele>
        <time>2021-02-20T15:44:15Z</time>
      </trkpt>
      <trkpt lat="45.18271" lon="5.9068">
        <ele>1248</ele>
        <time>2021-02-20T15:44:16Z</time>
      </trkpt>
      <trkpt lat="45.18273" lon="5.9068">
        <ele>1247.8</ele>
        <time>2021-02-20T15:44:17Z</time>
      </trkpt>
      <trkpt lat="45.18274" lon="5.90681">
        <ele>1247.7</ele>
        <time>2021-02-20T15:44:18Z</time>
      </trkpt>
      <trkpt lat="45.18275" lon="5.90682">
        <ele>1247.6</ele>
        <time>2021-02-20T15:44:19Z</time>
      </trkpt>
      <trkpt lat="45.18276" lon="5.90682">
        <ele>1247.5</ele>
        <time>2021-02-20T15:44:20Z</time>
      </trkpt>
      <trkpt lat="45.18277" lon="5.90683">
        <ele>1247.4</ele>
        <time>2021-02-20T15:44:21Z</time>
      </trkpt>
      <trkpt lat="45.18278" lon="5.90684">
        <ele>1247.3</ele>
        <time>2021-02-20T15:44:22Z</time>
      </trkpt>
      <trkpt lat="45.18279" lon="5.90684">
        <ele>1247.2</ele>
        <time>2021-02-20T15:44:23Z</time>
      </trkpt>
      <trkpt lat="45.18282" lon="5.90685">
        <ele>1246.9</ele>
        <time>2021-02-20T15:44:24Z</time>
      </trkpt>
      <trkpt lat="45.18283" lon="5.90685">
        <ele>1246.8</ele>
        <time>2021-02-20T15:44:25Z</time>
      </trkpt>
      <trkpt lat="45.18284" lon="5.90685">
        <ele>1246.6</ele>
        <time>2021-02-20T15:44:26Z</time>
      </trkpt>
      <trkpt lat="45.18285" lon="5.90685">
        <ele>1246.5</ele>
        <time>2021-02-20T15:44:27Z</time>
      </trkpt>
      <trkpt lat="45.18286" lon="5.90685">
        <ele>1246.5</ele>
        <time>2021-02-20T15:44:28Z</time>
      </trkpt>
      <trkpt lat="45.18287" lon="5.90685">
        <ele>1246.4</ele>
        <time>2021-02-20T15:44:29Z</time>
      </trkpt>
      <trkpt lat="45.18288" lon="5.90686">
        <ele>1246.3</ele>
        <time>2021-02-20T15:44:30Z</time>
      </trkpt>
      <trkpt lat="45.18289" lon="5.90686">
        <ele>1246.1</ele>
        <time>2021-02-20T15:44:31Z</time>
      </trkpt>
      <trkpt lat="45.18292" lon="5.90687">
        <ele>1245.8</ele>
        <time>2021-02-20T15:44:32Z</time>
      </trkpt>
      <trkpt lat="45.18293" lon="5.90687">
        <ele>1245.7</ele>
        <time>2021-02-20T15:44:33Z</time>
      </trkpt>
      <trkpt lat="45.18294" lon="5.90687">
        <ele>1245.6</ele>
        <time>2021-02-20T15:44:34Z</time>
      </trkpt>
      <trkpt lat="45.18295" lon="5.90686">
        <ele>1245.5</ele>
        <time>2021-02-20T15:44:35Z</time>
      </trkpt>
      <trkpt lat="45.18296" lon="5.90686">
        <ele>1245.4</ele>
        <time>2021-02-20T15:44:36Z</time>
      </trkpt>
      <trkpt lat="45.18298" lon="5.90685">
        <ele>1245.2</ele>
        <time>2021-02-20T15:44:37Z</time>
      </trkpt>
      <trkpt lat="45.183" lon="5.90684">
        <ele>1245</ele>
        <time>2021-02-20T15:44:38Z</time>
      </trkpt>
      <trkpt lat="45.18301" lon="5.90684">
        <ele>1244.9</ele>
        <time>2021-02-20T15:44:39Z</time>
      </trkpt>
      <trkpt lat="45.18303" lon="5.90684">
        <ele>1244.7</ele>
        <time>2021-02-20T15:44:40Z</time>
      </trkpt>
      <trkpt lat="45.18304" lon="5.90685">
        <ele>1244.5</ele>
        <time>2021-02-20T15:44:41Z</time>
      </trkpt>
      <trkpt lat="45.18305" lon="5.90685">
        <ele>1244.4</ele>
        <time>2021-02-20T15:44:42Z</time>
      </trkpt>
      <trkpt lat="45.18306" lon="5.90686">
        <ele>1244.3</ele>
        <time>2021-02-20T15:44:43Z</time>
      </trkpt>
      <trkpt lat="45.18307" lon="5.90685">
        <ele>1244.2</ele>
        <time>2021-02-20T15:44:44Z</time>
      </trkpt>
      <trkpt lat="45.18308" lon="5.90686">
        <ele>1244.1</ele>
        <time>2021-02-20T15:44:45Z</time>
      </trkpt>
      <trkpt lat="45.18309" lon="5.90685">
        <ele>1243.9</ele>
        <time>2021-02-20T15:44:46Z</time>
      </trkpt>
      <trkpt lat="45.1831" lon="5.90685">
        <ele>1243.9</ele>
        <time>2021-02-20T15:44:47Z</time>
      </trkpt>
      <trkpt lat="45.18311" lon="5.90685">
        <ele>1243.8</ele>
        <time>2021-02-20T15:44:48Z</time>
      </trkpt>
      <trkpt lat="45.18312" lon="5.90685">
        <ele>1243.7</ele>
        <time>2021-02-20T15:44:49Z</time>
      </trkpt>
      <trkpt lat="45.18313" lon="5.90685">
        <ele>1243.6</ele>
        <time>2021-02-20T15:44:50Z</time>
      </trkpt>
      <trkpt lat="45.18314" lon="5.90685">
        <ele>1243.5</ele>
        <time>2021-02-20T15:44:51Z</time>
      </trkpt>
      <trkpt lat="45.18315" lon="5.90685">
        <ele>1243.3</ele>
        <time>2021-02-20T15:44:52Z</time>
      </trkpt>
      <trkpt lat="45.18317" lon="5.90686">
        <ele>1243.2</ele>
        <time>2021-02-20T15:44:53Z</time>
      </trkpt>
      <trkpt lat="45.18318" lon="5.90686">
        <ele>1243</ele>
        <time>2021-02-20T15:44:54Z</time>
      </trkpt>
      <trkpt lat="45.18321" lon="5.90687">
        <ele>1242.7</ele>
        <time>2021-02-20T15:44:55Z</time>
      </trkpt>
      <trkpt lat="45.18322" lon="5.90687">
        <ele>1242.6</ele>
        <time>2021-02-20T15:44:56Z</time>
      </trkpt>
      <trkpt lat="45.18324" lon="5.90689">
        <ele>1242.4</ele>
        <time>2021-02-20T15:44:57Z</time>
      </trkpt>
      <trkpt lat="45.18325" lon="5.9069">
        <ele>1242.2</ele>
        <time>2021-02-20T15:44:58Z</time>
      </trkpt>
      <trkpt lat="45.18327" lon="5.90691">
        <ele>1242</ele>
        <time>2021-02-20T15:44:59Z</time>
      </trkpt>
      <trkpt lat="45.18329" lon="5.90691">
        <ele>1241.9</ele>
        <time>2021-02-20T15:45:00Z</time>
      </trkpt>
      <trkpt lat="45.1833" lon="5.90691">
        <ele>1241.7</ele>
        <time>2021-02-20T15:45:01Z</time>
      </trkpt>
      <trkpt lat="45.18331" lon="5.90691">
        <ele>1241.6</ele>
        <time>2021-02-20T15:45:02Z</time>
      </trkpt>
      <trkpt lat="45.18332" lon="5.90691">
        <ele>1241.5</ele>
        <time>2021-02-20T15:45:03Z</time>
      </trkpt>
      <trkpt lat="45.18334" lon="5.90691">
        <ele>1241.3</ele>
        <time>2021-02-20T15:45:04Z</time>
      </trkpt>
      <trkpt lat="45.18335" lon="5.90691">
        <ele>1241.2</ele>
        <time>2021-02-20T15:45:05Z</time>
      </trkpt>
      <trkpt lat="45.18337" lon="5.90691">
        <ele>1241</ele>
        <time>2021-02-20T15:45:06Z</time>
      </trkpt>
      <trkpt lat="45.18339" lon="5.90691">
        <ele>1240.8</ele>
        <time>2021-02-20T15:45:07Z</time>
      </trkpt>
      <trkpt lat="45.1834" lon="5.90692">
        <ele>1240.6</ele>
        <time>2021-02-20T15:45:08Z</time>
      </trkpt>
      <trkpt lat="45.18342" lon="5.90692">
        <ele>1240.5</ele>
        <time>2021-02-20T15:45:09Z</time>
      </trkpt>
      <trkpt lat="45.18342" lon="5.90692">
        <ele>1240.4</ele>
        <time>2021-02-20T15:45:10Z</time>
      </trkpt>
      <trkpt lat="45.18344" lon="5.90691">
        <ele>1240.2</ele>
        <time>2021-02-20T15:45:11Z</time>
      </trkpt>
      <trkpt lat="45.18345" lon="5.9069">
        <ele>1240.1</ele>
        <time>2021-02-20T15:45:12Z</time>
      </trkpt>
      <trkpt lat="45.18346" lon="5.90689">
        <ele>1240</ele>
        <time>2021-02-20T15:45:13Z</time>
      </trkpt>
      <trkpt lat="45.18349" lon="5.90688">
        <ele>1239.7</ele>
        <time>2021-02-20T15:45:14Z</time>
      </trkpt>
      <trkpt lat="45.1835" lon="5.90687">
        <ele>1239.6</ele>
        <time>2021-02-20T15:45:15Z</time>
      </trkpt>
      <trkpt lat="45.18353" lon="5.90686">
        <ele>1239.3</ele>
        <time>2021-02-20T15:45:16Z</time>
      </trkpt>
      <trkpt lat="45.18354" lon="5.90686">
        <ele>1239.2</ele>
        <time>2021-02-20T15:45:17Z</time>
      </trkpt>
      <trkpt lat="45.18357" lon="5.90685">
        <ele>1238.9</ele>
        <time>2021-02-20T15:45:18Z</time>
      </trkpt>
      <trkpt lat="45.18358" lon="5.90684">
        <ele>1238.8</ele>
        <time>2021-02-20T15:45:19Z</time>
      </trkpt>
      <trkpt lat="45.18361" lon="5.90682">
        <ele>1238.4</ele>
        <time>2021-02-20T15:45:20Z</time>
      </trkpt>
      <trkpt lat="45.18362" lon="5.90682">
        <ele>1238.3</ele>
        <time>2021-02-20T15:45:21Z</time>
      </trkpt>
      <trkpt lat="45.18365" lon="5.9068">
        <ele>1238</ele>
        <time>2021-02-20T15:45:22Z</time>
      </trkpt>
      <trkpt lat="45.18366" lon="5.90679">
        <ele>1237.9</ele>
        <time>2021-02-20T15:45:23Z</time>
      </trkpt>
      <trkpt lat="45.18369" lon="5.90676">
        <ele>1237.5</ele>
        <time>2021-02-20T15:45:24Z</time>
      </trkpt>
      <trkpt lat="45.1837" lon="5.90675">
        <ele>1237.4</ele>
        <time>2021-02-20T15:45:25Z</time>
      </trkpt>
      <trkpt lat="45.18371" lon="5.90673">
        <ele>1237.2</ele>
        <time>2021-02-20T15:45:26Z</time>
      </trkpt>
      <trkpt lat="45.18372" lon="5.90672">
        <ele>1237</ele>
        <time>2021-02-20T15:45:27Z</time>
      </trkpt>
      <trkpt lat="45.18374" lon="5.90671">
        <ele>1236.8</ele>
        <time>2021-02-20T15:45:28Z</time>
      </trkpt>
      <trkpt lat="45.18376" lon="5.9067">
        <ele>1236.7</ele>
        <time>2021-02-20T15:45:29Z</time>
      </trkpt>
      <trkpt lat="45.18377" lon="5.90668">
        <ele>1236.5</ele>
        <time>2021-02-20T15:45:30Z</time>
      </trkpt>
      <trkpt lat="45.18378" lon="5.90667">
        <ele>1236.4</ele>
        <time>2021-02-20T15:45:31Z</time>
      </trkpt>
      <trkpt lat="45.18379" lon="5.90666">
        <ele>1236.2</ele>
        <time>2021-02-20T15:45:32Z</time>
      </trkpt>
      <trkpt lat="45.1838" lon="5.90665">
        <ele>1236.1</ele>
        <time>2021-02-20T15:45:33Z</time>
      </trkpt>
      <trkpt lat="45.18381" lon="5.90664">
        <ele>1236</ele>
        <time>2021-02-20T15:45:34Z</time>
      </trkpt>
      <trkpt lat="45.18382" lon="5.90663">
        <ele>1235.9</ele>
        <time>2021-02-20T15:45:35Z</time>
      </trkpt>
      <trkpt lat="45.18382" lon="5.90663">
        <ele>1235.8</ele>
        <time>2021-02-20T15:45:36Z</time>
      </trkpt>
      <trkpt lat="45.18383" lon="5.90661">
        <ele>1235.7</ele>
        <time>2021-02-20T15:45:37Z</time>
      </trkpt>
      <trkpt lat="45.18384" lon="5.9066">
        <ele>1235.5</ele>
        <time>2021-02-20T15:45:38Z</time>
      </trkpt>
      <trkpt lat="45.18385" lon="5.90658">
        <ele>1235.3</ele>
        <time>2021-02-20T15:45:39Z</time>
      </trkpt>
      <trkpt lat="45.18386" lon="5.90655">
        <ele>1235.2</ele>
        <time>2021-02-20T15:45:40Z</time>
      </trkpt>
      <trkpt lat="45.18387" lon="5.90654">
        <ele>1235.2</ele>
        <time>2021-02-20T15:45:41Z</time>
      </trkpt>
      <trkpt lat="45.18387" lon="5.90652">
        <ele>1235.2</ele>
        <time>2021-02-20T15:45:42Z</time>
      </trkpt>
      <trkpt lat="45.18386" lon="5.9065">
        <ele>1235</ele>
        <time>2021-02-20T15:45:43Z</time>
      </trkpt>
      <trkpt lat="45.18386" lon="5.90647">
        <ele>1234.9</ele>
        <time>2021-02-20T15:45:44Z</time>
      </trkpt>
      <trkpt lat="45.18385" lon="5.90646">
        <ele>1234.8</ele>
        <time>2021-02-20T15:45:45Z</time>
      </trkpt>
      <trkpt lat="45.18385" lon="5.90644">
        <ele>1234.7</ele>
        <time>2021-02-20T15:45:46Z</time>
      </trkpt>
      <trkpt lat="45.18384" lon="5.90642">
        <ele>1234.6</ele>
        <time>2021-02-20T15:45:47Z</time>
      </trkpt>
      <trkpt lat="45.18383" lon="5.9064">
        <ele>1234.4</ele>
        <time>2021-02-20T15:45:48Z</time>
      </trkpt>
      <trkpt lat="45.18382" lon="5.90639">
        <ele>1234.3</ele>
        <time>2021-02-20T15:45:49Z</time>
      </trkpt>
      <trkpt lat="45.18381" lon="5.90638">
        <ele>1234.2</ele>
        <time>2021-02-20T15:45:50Z</time>
      </trkpt>
      <trkpt lat="45.18381" lon="5.90638">
        <ele>1234.2</ele>
        <time>2021-02-20T15:45:51Z</time>
      </trkpt>
      <trkpt lat="45.18381" lon="5.90638">
        <ele>1234.2</ele>
        <time>2021-02-20T15:45:52Z</time>
      </trkpt>
      <trkpt lat="45.1838" lon="5.90637">
        <ele>1234.1</ele>
        <time>2021-02-20T15:45:53Z</time>
      </trkpt>
      <trkpt lat="45.1838" lon="5.90636">
        <ele>1234.1</ele>
        <time>2021-02-20T15:45:54Z</time>
      </trkpt>
      <trkpt lat="45.1838" lon="5.90635">
        <ele>1234</ele>
        <time>2021-02-20T15:45:55Z</time>
      </trkpt>
      <trkpt lat="45.18379" lon="5.90633">
        <ele>1233.9</ele>
        <time>2021-02-20T15:45:56Z</time>
      </trkpt>
      <trkpt lat="45.18379" lon="5.90631">
        <ele>1233.8</ele>
        <time>2021-02-20T15:45:57Z</time>
      </trkpt>
      <trkpt lat="45.18379" lon="5.90629">
        <ele>1233.7</ele>
        <time>2021-02-20T15:45:58Z</time>
      </trkpt>
      <trkpt lat="45.1838" lon="5.90627">
        <ele>1233.5</ele>
        <time>2021-02-20T15:45:59Z</time>
      </trkpt>
      <trkpt lat="45.1838" lon="5.90625">
        <ele>1233.4</ele>
        <time>2021-02-20T15:46:00Z</time>
      </trkpt>
      <trkpt lat="45.18381" lon="5.90623">
        <ele>1233.3</ele>
        <time>2021-02-20T15:46:01Z</time>
      </trkpt>
      <trkpt lat="45.18381" lon="5.90622">
        <ele>1233.2</ele>
        <time>2021-02-20T15:46:02Z</time>
      </trkpt>
      <trkpt lat="45.18382" lon="5.9062">
        <ele>1233.1</ele>
        <time>2021-02-20T15:46:03Z</time>
      </trkpt>
      <trkpt lat="45.18382" lon="5.90618">
        <ele>1232.9</ele>
        <time>2021-02-20T15:46:04Z</time>
      </trkpt>
      <trkpt lat="45.18382" lon="5.90616">
        <ele>1232.8</ele>
        <time>2021-02-20T15:46:05Z</time>
      </trkpt>
      <trkpt lat="45.18382" lon="5.90615">
        <ele>1232.7</ele>
        <time>2021-02-20T15:46:06Z</time>
      </trkpt>
      <trkpt lat="45.18382" lon="5.90613">
        <ele>1232.6</ele>
        <time>2021-02-20T15:46:07Z</time>
      </trkpt>
      <trkpt lat="45.18382" lon="5.90612">
        <ele>1232.5</ele>
        <time>2021-02-20T15:46:08Z</time>
      </trkpt>
      <trkpt lat="45.18382" lon="5.90611">
        <ele>1232.4</ele>
        <time>2021-02-20T15:46:09Z</time>
      </trkpt>
      <trkpt lat="45.18382" lon="5.90609">
        <ele>1232.3</ele>
        <time>2021-02-20T15:46:10Z</time>
      </trkpt>
      <trkpt lat="45.18382" lon="5.90607">
        <ele>1232.2</ele>
        <time>2021-02-20T15:46:11Z</time>
      </trkpt>
      <trkpt lat="45.18382" lon="5.90606">
        <ele>1232.1</ele>
        <time>2021-02-20T15:46:12Z</time>
      </trkpt>
      <trkpt lat="45.18382" lon="5.90605">
        <ele>1232</ele>
        <time>2021-02-20T15:46:13Z</time>
      </trkpt>
      <trkpt lat="45.18382" lon="5.90604">
        <ele>1231.9</ele>
        <time>2021-02-20T15:46:14Z</time>
      </trkpt>
      <trkpt lat="45.18382" lon="5.90603">
        <ele>1231.9</ele>
        <time>2021-02-20T15:46:15Z</time>
      </trkpt>
      <trkpt lat="45.18383" lon="5.90602">
        <ele>1231.8</ele>
        <time>2021-02-20T15:46:16Z</time>
      </trkpt>
      <trkpt lat="45.18383" lon="5.90601">
        <ele>1231.7</ele>
        <time>2021-02-20T15:46:17Z</time>
      </trkpt>
      <trkpt lat="45.18384" lon="5.90601">
        <ele>1231.7</ele>
        <time>2021-02-20T15:46:18Z</time>
      </trkpt>
      <trkpt lat="45.18384" lon="5.906">
        <ele>1231.6</ele>
        <time>2021-02-20T15:46:19Z</time>
      </trkpt>
      <trkpt lat="45.18385" lon="5.90599">
        <ele>1231.5</ele>
        <time>2021-02-20T15:46:20Z</time>
      </trkpt>
      <trkpt lat="45.18386" lon="5.90599">
        <ele>1231.4</ele>
        <time>2021-02-20T15:46:21Z</time>
      </trkpt>
      <trkpt lat="45.18387" lon="5.90598">
        <ele>1231.2</ele>
        <time>2021-02-20T15:46:22Z</time>
      </trkpt>
      <trkpt lat="45.18388" lon="5.90598">
        <ele>1231.2</ele>
        <time>2021-02-20T15:46:23Z</time>
      </trkpt>
      <trkpt lat="45.18388" lon="5.90597">
        <ele>1231.1</ele>
        <time>2021-02-20T15:46:24Z</time>
      </trkpt>
      <trkpt lat="45.18389" lon="5.90597">
        <ele>1231</ele>
        <time>2021-02-20T15:46:25Z</time>
      </trkpt>
      <trkpt lat="45.18389" lon="5.90596">
        <ele>1230.9</ele>
        <time>2021-02-20T15:46:26Z</time>
      </trkpt>
      <trkpt lat="45.18391" lon="5.90597">
        <ele>1230.8</ele>
        <time>2021-02-20T15:46:27Z</time>
      </trkpt>
      <trkpt lat="45.18392" lon="5.90597">
        <ele>1230.7</ele>
        <time>2021-02-20T15:46:28Z</time>
      </trkpt>
      <trkpt lat="45.18393" lon="5.90597">
        <ele>1230.6</ele>
        <time>2021-02-20T15:46:29Z</time>
      </trkpt>
      <trkpt lat="45.18393" lon="5.90597">
        <ele>1230.5</ele>
        <time>2021-02-20T15:46:30Z</time>
      </trkpt>
      <trkpt lat="45.18394" lon="5.90597">
        <ele>1230.4</ele>
        <time>2021-02-20T15:46:31Z</time>
      </trkpt>
      <trkpt lat="45.18395" lon="5.90597">
        <ele>1230.3</ele>
        <time>2021-02-20T15:46:32Z</time>
      </trkpt>
      <trkpt lat="45.18396" lon="5.90597">
        <ele>1230.2</ele>
        <time>2021-02-20T15:46:33Z</time>
      </trkpt>
      <trkpt lat="45.18396" lon="5.90597">
        <ele>1230.2</ele>
        <time>2021-02-20T15:46:34Z</time>
      </trkpt>
      <trkpt lat="45.18397" lon="5.90598">
        <ele>1230.1</ele>
        <time>2021-02-20T15:46:35Z</time>
      </trkpt>
      <trkpt lat="45.18399" lon="5.90598">
        <ele>1229.9</ele>
        <time>2021-02-20T15:46:36Z</time>
      </trkpt>
      <trkpt lat="45.18401" lon="5.90598">
        <ele>1229.7</ele>
        <time>2021-02-20T15:46:37Z</time>
      </trkpt>
      <trkpt lat="45.18402" lon="5.90598">
        <ele>1229.6</ele>
        <time>2021-02-20T15:46:38Z</time>
      </trkpt>
      <trkpt lat="45.18402" lon="5.90599">
        <ele>1229.5</ele>
        <time>2021-02-20T15:46:39Z</time>
      </trkpt>
      <trkpt lat="45.18403" lon="5.90599">
        <ele>1229.4</ele>
        <time>2021-02-20T15:46:40Z</time>
      </trkpt>
      <trkpt lat="45.18404" lon="5.90599">
        <ele>1229.3</ele>
        <time>2021-02-20T15:46:41Z</time>
      </trkpt>
      <trkpt lat="45.18405" lon="5.90599">
        <ele>1229.3</ele>
        <time>2021-02-20T15:46:42Z</time>
      </trkpt>
      <trkpt lat="45.18405" lon="5.90599">
        <ele>1229.2</ele>
        <time>2021-02-20T15:46:43Z</time>
      </trkpt>
      <trkpt lat="45.18407" lon="5.90599">
        <ele>1229</ele>
        <time>2021-02-20T15:46:44Z</time>
      </trkpt>
      <trkpt lat="45.18407" lon="5.90599">
        <ele>1229</ele>
        <time>2021-02-20T15:46:45Z</time>
      </trkpt>
      <trkpt lat="45.18408" lon="5.90599">
        <ele>1228.9</ele>
        <time>2021-02-20T15:46:46Z</time>
      </trkpt>
      <trkpt lat="45.18409" lon="5.90599">
        <ele>1228.8</ele>
        <time>2021-02-20T15:46:47Z</time>
      </trkpt>
      <trkpt lat="45.18409" lon="5.90599">
        <ele>1228.7</ele>
        <time>2021-02-20T15:46:48Z</time>
      </trkpt>
      <trkpt lat="45.1841" lon="5.90598">
        <ele>1228.7</ele>
        <time>2021-02-20T15:46:49Z</time>
      </trkpt>
      <trkpt lat="45.1841" lon="5.90598">
        <ele>1228.7</ele>
        <time>2021-02-20T15:46:50Z</time>
      </trkpt>
      <trkpt lat="45.1841" lon="5.90598">
        <ele>1228.7</ele>
        <time>2021-02-20T15:46:51Z</time>
      </trkpt>
      <trkpt lat="45.1841" lon="5.90598">
        <ele>1228.6</ele>
        <time>2021-02-20T15:46:52Z</time>
      </trkpt>
      <trkpt lat="45.18411" lon="5.90599">
        <ele>1228.5</ele>
        <time>2021-02-20T15:46:53Z</time>
      </trkpt>
      <trkpt lat="45.18412" lon="5.90599">
        <ele>1228.4</ele>
        <time>2021-02-20T15:46:54Z</time>
      </trkpt>
      <trkpt lat="45.18413" lon="5.90599">
        <ele>1228.3</ele>
        <time>2021-02-20T15:46:55Z</time>
      </trkpt>
      <trkpt lat="45.18414" lon="5.90599">
        <ele>1228.2</ele>
        <time>2021-02-20T15:46:56Z</time>
      </trkpt>
      <trkpt lat="45.18415" lon="5.90599">
        <ele>1228.1</ele>
        <time>2021-02-20T15:46:57Z</time>
      </trkpt>
      <trkpt lat="45.18417" lon="5.906">
        <ele>1227.9</ele>
        <time>2021-02-20T15:46:58Z</time>
      </trkpt>
      <trkpt lat="45.18418" lon="5.906">
        <ele>1227.8</ele>
        <time>2021-02-20T15:46:59Z</time>
      </trkpt>
      <trkpt lat="45.18419" lon="5.906">
        <ele>1227.6</ele>
        <time>2021-02-20T15:47:00Z</time>
      </trkpt>
      <trkpt lat="45.18421" lon="5.906">
        <ele>1227.5</ele>
        <time>2021-02-20T15:47:01Z</time>
      </trkpt>
      <trkpt lat="45.18423" lon="5.90599">
        <ele>1227.3</ele>
        <time>2021-02-20T15:47:02Z</time>
      </trkpt>
      <trkpt lat="45.18424" lon="5.90599">
        <ele>1227.1</ele>
        <time>2021-02-20T15:47:03Z</time>
      </trkpt>
      <trkpt lat="45.18425" lon="5.90598">
        <ele>1227</ele>
        <time>2021-02-20T15:47:04Z</time>
      </trkpt>
      <trkpt lat="45.18426" lon="5.90598">
        <ele>1226.9</ele>
        <time>2021-02-20T15:47:05Z</time>
      </trkpt>
      <trkpt lat="45.18427" lon="5.90597">
        <ele>1226.8</ele>
        <time>2021-02-20T15:47:06Z</time>
      </trkpt>
      <trkpt lat="45.18428" lon="5.90597">
        <ele>1226.7</ele>
        <time>2021-02-20T15:47:07Z</time>
      </trkpt>
      <trkpt lat="45.1843" lon="5.90596">
        <ele>1226.5</ele>
        <time>2021-02-20T15:47:08Z</time>
      </trkpt>
      <trkpt lat="45.18433" lon="5.90595">
        <ele>1226.1</ele>
        <time>2021-02-20T15:47:09Z</time>
      </trkpt>
      <trkpt lat="45.18434" lon="5.90594">
        <ele>1226</ele>
        <time>2021-02-20T15:47:10Z</time>
      </trkpt>
      <trkpt lat="45.18438" lon="5.90594">
        <ele>1225.7</ele>
        <time>2021-02-20T15:47:11Z</time>
      </trkpt>
      <trkpt lat="45.18438" lon="5.90594">
        <ele>1225.6</ele>
        <time>2021-02-20T15:47:12Z</time>
      </trkpt>
      <trkpt lat="45.1844" lon="5.90595">
        <ele>1225.4</ele>
        <time>2021-02-20T15:47:13Z</time>
      </trkpt>
      <trkpt lat="45.18441" lon="5.90595">
        <ele>1225.3</ele>
        <time>2021-02-20T15:47:14Z</time>
      </trkpt>
      <trkpt lat="45.18443" lon="5.90596">
        <ele>1225.1</ele>
        <time>2021-02-20T15:47:15Z</time>
      </trkpt>
      <trkpt lat="45.18444" lon="5.90596">
        <ele>1225</ele>
        <time>2021-02-20T15:47:16Z</time>
      </trkpt>
      <trkpt lat="45.18445" lon="5.90596">
        <ele>1224.9</ele>
        <time>2021-02-20T15:47:17Z</time>
      </trkpt>
      <trkpt lat="45.18446" lon="5.90595">
        <ele>1224.8</ele>
        <time>2021-02-20T15:47:18Z</time>
      </trkpt>
      <trkpt lat="45.18448" lon="5.90595">
        <ele>1224.6</ele>
        <time>2021-02-20T15:47:19Z</time>
      </trkpt>
      <trkpt lat="45.1845" lon="5.90594">
        <ele>1224.4</ele>
        <time>2021-02-20T15:47:20Z</time>
      </trkpt>
      <trkpt lat="45.18451" lon="5.90595">
        <ele>1224.3</ele>
        <time>2021-02-20T15:47:21Z</time>
      </trkpt>
      <trkpt lat="45.18453" lon="5.90595">
        <ele>1224.1</ele>
        <time>2021-02-20T15:47:22Z</time>
      </trkpt>
      <trkpt lat="45.18454" lon="5.90595">
        <ele>1224</ele>
        <time>2021-02-20T15:47:23Z</time>
      </trkpt>
      <trkpt lat="45.18456" lon="5.90595">
        <ele>1223.9</ele>
        <time>2021-02-20T15:47:24Z</time>
      </trkpt>
      <trkpt lat="45.18457" lon="5.90595">
        <ele>1223.7</ele>
        <time>2021-02-20T15:47:25Z</time>
      </trkpt>
      <trkpt lat="45.18459" lon="5.90594">
        <ele>1223.5</ele>
        <time>2021-02-20T15:47:26Z</time>
      </trkpt>
      <trkpt lat="45.18461" lon="5.90594">
        <ele>1223.3</ele>
        <time>2021-02-20T15:47:27Z</time>
      </trkpt>
      <trkpt lat="45.18462" lon="5.90593">
        <ele>1223.2</ele>
        <time>2021-02-20T15:47:28Z</time>
      </trkpt>
      <trkpt lat="45.18465" lon="5.90592">
        <ele>1222.9</ele>
        <time>2021-02-20T15:47:29Z</time>
      </trkpt>
      <trkpt lat="45.18466" lon="5.90592">
        <ele>1222.8</ele>
        <time>2021-02-20T15:47:30Z</time>
      </trkpt>
      <trkpt lat="45.18468" lon="5.90591">
        <ele>1222.6</ele>
        <time>2021-02-20T15:47:31Z</time>
      </trkpt>
      <trkpt lat="45.18469" lon="5.90591">
        <ele>1222.5</ele>
        <time>2021-02-20T15:47:32Z</time>
      </trkpt>
      <trkpt lat="45.18471" lon="5.90591">
        <ele>1222.3</ele>
        <time>2021-02-20T15:47:33Z</time>
      </trkpt>
      <trkpt lat="45.18472" lon="5.90592">
        <ele>1222.2</ele>
        <time>2021-02-20T15:47:34Z</time>
      </trkpt>
      <trkpt lat="45.18474" lon="5.90592">
        <ele>1222</ele>
        <time>2021-02-20T15:47:35Z</time>
      </trkpt>
      <trkpt lat="45.18476" lon="5.90592">
        <ele>1221.8</ele>
        <time>2021-02-20T15:47:36Z</time>
      </trkpt>
      <trkpt lat="45.18478" lon="5.90592">
        <ele>1221.6</ele>
        <time>2021-02-20T15:47:37Z</time>
      </trkpt>
      <trkpt lat="45.18479" lon="5.90592">
        <ele>1221.4</ele>
        <time>2021-02-20T15:47:38Z</time>
      </trkpt>
      <trkpt lat="45.1848" lon="5.90591">
        <ele>1221.4</ele>
        <time>2021-02-20T15:47:39Z</time>
      </trkpt>
      <trkpt lat="45.1848" lon="5.90591">
        <ele>1221.3</ele>
        <time>2021-02-20T15:47:40Z</time>
      </trkpt>
      <trkpt lat="45.18482" lon="5.9059">
        <ele>1221.2</ele>
        <time>2021-02-20T15:47:41Z</time>
      </trkpt>
      <trkpt lat="45.18483" lon="5.9059">
        <ele>1221</ele>
        <time>2021-02-20T15:47:42Z</time>
      </trkpt>
      <trkpt lat="45.18485" lon="5.90589">
        <ele>1220.9</ele>
        <time>2021-02-20T15:47:43Z</time>
      </trkpt>
      <trkpt lat="45.18487" lon="5.90588">
        <ele>1220.7</ele>
        <time>2021-02-20T15:47:44Z</time>
      </trkpt>
      <trkpt lat="45.18487" lon="5.90588">
        <ele>1220.6</ele>
        <time>2021-02-20T15:47:45Z</time>
      </trkpt>
      <trkpt lat="45.18488" lon="5.90587">
        <ele>1220.5</ele>
        <time>2021-02-20T15:47:46Z</time>
      </trkpt>
      <trkpt lat="45.1849" lon="5.90587">
        <ele>1220.3</ele>
        <time>2021-02-20T15:47:47Z</time>
      </trkpt>
      <trkpt lat="45.18491" lon="5.90587">
        <ele>1220.1</ele>
        <time>2021-02-20T15:47:48Z</time>
      </trkpt>
      <trkpt lat="45.18493" lon="5.90587">
        <ele>1220</ele>
        <time>2021-02-20T15:47:49Z</time>
      </trkpt>
      <trkpt lat="45.18494" lon="5.90586">
        <ele>1219.8</ele>
        <time>2021-02-20T15:47:50Z</time>
      </trkpt>
      <trkpt lat="45.18496" lon="5.90585">
        <ele>1219.7</ele>
        <time>2021-02-20T15:47:51Z</time>
      </trkpt>
      <trkpt lat="45.18496" lon="5.90584">
        <ele>1219.6</ele>
        <time>2021-02-20T15:47:52Z</time>
      </trkpt>
      <trkpt lat="45.18497" lon="5.90583">
        <ele>1219.5</ele>
        <time>2021-02-20T15:47:53Z</time>
      </trkpt>
      <trkpt lat="45.18497" lon="5.90583">
        <ele>1219.5</ele>
        <time>2021-02-20T15:47:54Z</time>
      </trkpt>
      <trkpt lat="45.18498" lon="5.90582">
        <ele>1219.4</ele>
        <time>2021-02-20T15:47:55Z</time>
      </trkpt>
      <trkpt lat="45.18498" lon="5.90582">
        <ele>1219.3</ele>
        <time>2021-02-20T15:47:56Z</time>
      </trkpt>
      <trkpt lat="45.185" lon="5.90581">
        <ele>1219.2</ele>
        <time>2021-02-20T15:47:57Z</time>
      </trkpt>
      <trkpt lat="45.18503" lon="5.9058">
        <ele>1218.8</ele>
        <time>2021-02-20T15:47:58Z</time>
      </trkpt>
      <trkpt lat="45.18504" lon="5.9058">
        <ele>1218.7</ele>
        <time>2021-02-20T15:47:59Z</time>
      </trkpt>
      <trkpt lat="45.18507" lon="5.90581">
        <ele>1218.3</ele>
        <time>2021-02-20T15:48:00Z</time>
      </trkpt>
      <trkpt lat="45.18508" lon="5.90582">
        <ele>1218.3</ele>
        <time>2021-02-20T15:48:01Z</time>
      </trkpt>
      <trkpt lat="45.18509" lon="5.90582">
        <ele>1218.2</ele>
        <time>2021-02-20T15:48:02Z</time>
      </trkpt>
      <trkpt lat="45.1851" lon="5.90582">
        <ele>1218</ele>
        <time>2021-02-20T15:48:03Z</time>
      </trkpt>
      <trkpt lat="45.18511" lon="5.90581">
        <ele>1217.9</ele>
        <time>2021-02-20T15:48:04Z</time>
      </trkpt>
      <trkpt lat="45.18512" lon="5.90581">
        <ele>1217.8</ele>
        <time>2021-02-20T15:48:05Z</time>
      </trkpt>
      <trkpt lat="45.18513" lon="5.9058">
        <ele>1217.7</ele>
        <time>2021-02-20T15:48:06Z</time>
      </trkpt>
      <trkpt lat="45.18514" lon="5.90579">
        <ele>1217.6</ele>
        <time>2021-02-20T15:48:07Z</time>
      </trkpt>
      <trkpt lat="45.18514" lon="5.90579">
        <ele>1217.5</ele>
        <time>2021-02-20T15:48:08Z</time>
      </trkpt>
      <trkpt lat="45.18515" lon="5.90578">
        <ele>1217.4</ele>
        <time>2021-02-20T15:48:09Z</time>
      </trkpt>
      <trkpt lat="45.18515" lon="5.90578">
        <ele>1217.4</ele>
        <time>2021-02-20T15:48:10Z</time>
      </trkpt>
      <trkpt lat="45.18514" lon="5.90577">
        <ele>1217.3</ele>
        <time>2021-02-20T15:48:11Z</time>
      </trkpt>
      <trkpt lat="45.18514" lon="5.90576">
        <ele>1217.2</ele>
        <time>2021-02-20T15:48:12Z</time>
      </trkpt>
      <trkpt lat="45.18514" lon="5.90576">
        <ele>1217.2</ele>
        <time>2021-02-20T15:48:13Z</time>
      </trkpt>
      <trkpt lat="45.18514" lon="5.90575">
        <ele>1217.1</ele>
        <time>2021-02-20T15:48:14Z</time>
      </trkpt>
      <trkpt lat="45.18515" lon="5.90574">
        <ele>1216.9</ele>
        <time>2021-02-20T15:48:15Z</time>
      </trkpt>
      <trkpt lat="45.18516" lon="5.90573">
        <ele>1216.8</ele>
        <time>2021-02-20T15:48:16Z</time>
      </trkpt>
      <trkpt lat="45.18517" lon="5.90573">
        <ele>1216.7</ele>
        <time>2021-02-20T15:48:17Z</time>
      </trkpt>
      <trkpt lat="45.18518" lon="5.90573">
        <ele>1216.6</ele>
        <time>2021-02-20T15:48:18Z</time>
      </trkpt>
      <trkpt lat="45.18519" lon="5.90572">
        <ele>1216.5</ele>
        <time>2021-02-20T15:48:19Z</time>
      </trkpt>
      <trkpt lat="45.1852" lon="5.90572">
        <ele>1216.3</ele>
        <time>2021-02-20T15:48:20Z</time>
      </trkpt>
      <trkpt lat="45.18523" lon="5.90571">
        <ele>1215.9</ele>
        <time>2021-02-20T15:48:21Z</time>
      </trkpt>
      <trkpt lat="45.18524" lon="5.90571">
        <ele>1215.8</ele>
        <time>2021-02-20T15:48:22Z</time>
      </trkpt>
      <trkpt lat="45.18526" lon="5.90571">
        <ele>1215.6</ele>
        <time>2021-02-20T15:48:23Z</time>
      </trkpt>
      <trkpt lat="45.18527" lon="5.90571">
        <ele>1215.4</ele>
        <time>2021-02-20T15:48:24Z</time>
      </trkpt>
      <trkpt lat="45.18529" lon="5.9057">
        <ele>1215.2</ele>
        <time>2021-02-20T15:48:25Z</time>
      </trkpt>
      <trkpt lat="45.1853" lon="5.90569">
        <ele>1215</ele>
        <time>2021-02-20T15:48:26Z</time>
      </trkpt>
      <trkpt lat="45.18532" lon="5.90567">
        <ele>1214.8</ele>
        <time>2021-02-20T15:48:27Z</time>
      </trkpt>
      <trkpt lat="45.18533" lon="5.90566">
        <ele>1214.6</ele>
        <time>2021-02-20T15:48:28Z</time>
      </trkpt>
      <trkpt lat="45.18534" lon="5.90564">
        <ele>1214.4</ele>
        <time>2021-02-20T15:48:29Z</time>
      </trkpt>
      <trkpt lat="45.18536" lon="5.90563">
        <ele>1214.2</ele>
        <time>2021-02-20T15:48:30Z</time>
      </trkpt>
      <trkpt lat="45.18537" lon="5.90562">
        <ele>1214</ele>
        <time>2021-02-20T15:48:31Z</time>
      </trkpt>
      <trkpt lat="45.18539" lon="5.90561">
        <ele>1213.8</ele>
        <time>2021-02-20T15:48:32Z</time>
      </trkpt>
      <trkpt lat="45.1854" lon="5.90561">
        <ele>1213.7</ele>
        <time>2021-02-20T15:48:33Z</time>
      </trkpt>
      <trkpt lat="45.1854" lon="5.9056">
        <ele>1213.6</ele>
        <time>2021-02-20T15:48:34Z</time>
      </trkpt>
      <trkpt lat="45.18541" lon="5.9056">
        <ele>1213.5</ele>
        <time>2021-02-20T15:48:35Z</time>
      </trkpt>
      <trkpt lat="45.18542" lon="5.90559">
        <ele>1213.4</ele>
        <time>2021-02-20T15:48:36Z</time>
      </trkpt>
      <trkpt lat="45.18543" lon="5.9056">
        <ele>1213.3</ele>
        <time>2021-02-20T15:48:37Z</time>
      </trkpt>
      <trkpt lat="45.18544" lon="5.9056">
        <ele>1213.1</ele>
        <time>2021-02-20T15:48:38Z</time>
      </trkpt>
      <trkpt lat="45.18545" lon="5.90559">
        <ele>1213</ele>
        <time>2021-02-20T15:48:39Z</time>
      </trkpt>
      <trkpt lat="45.18546" lon="5.90559">
        <ele>1212.9</ele>
        <time>2021-02-20T15:48:40Z</time>
      </trkpt>
      <trkpt lat="45.18548" lon="5.90558">
        <ele>1212.7</ele>
        <time>2021-02-20T15:48:41Z</time>
      </trkpt>
      <trkpt lat="45.18549" lon="5.90557">
        <ele>1212.4</ele>
        <time>2021-02-20T15:48:42Z</time>
      </trkpt>
      <trkpt lat="45.1855" lon="5.90556">
        <ele>1212.3</ele>
        <time>2021-02-20T15:48:43Z</time>
      </trkpt>
      <trkpt lat="45.18551" lon="5.90556">
        <ele>1212.2</ele>
        <time>2021-02-20T15:48:44Z</time>
      </trkpt>
      <trkpt lat="45.18553" lon="5.90555">
        <ele>1212</ele>
        <time>2021-02-20T15:48:45Z</time>
      </trkpt>
      <trkpt lat="45.18554" lon="5.90555">
        <ele>1211.9</ele>
        <time>2021-02-20T15:48:46Z</time>
      </trkpt>
      <trkpt lat="45.18555" lon="5.90555">
        <ele>1211.8</ele>
        <time>2021-02-20T15:48:47Z</time>
      </trkpt>
      <trkpt lat="45.18557" lon="5.90555">
        <ele>1211.6</ele>
        <time>2021-02-20T15:48:48Z</time>
      </trkpt>
      <trkpt lat="45.18557" lon="5.90554">
        <ele>1211.5</ele>
        <time>2021-02-20T15:48:49Z</time>
      </trkpt>
      <trkpt lat="45.18558" lon="5.90554">
        <ele>1211.4</ele>
        <time>2021-02-20T15:48:50Z</time>
      </trkpt>
      <trkpt lat="45.18559" lon="5.90554">
        <ele>1211.3</ele>
        <time>2021-02-20T15:48:51Z</time>
      </trkpt>
      <trkpt lat="45.1856" lon="5.90553">
        <ele>1211.2</ele>
        <time>2021-02-20T15:48:52Z</time>
      </trkpt>
      <trkpt lat="45.18562" lon="5.90552">
        <ele>1210.9</ele>
        <time>2021-02-20T15:48:53Z</time>
      </trkpt>
      <trkpt lat="45.18563" lon="5.90552">
        <ele>1210.8</ele>
        <time>2021-02-20T15:48:54Z</time>
      </trkpt>
      <trkpt lat="45.18565" lon="5.90552">
        <ele>1210.6</ele>
        <time>2021-02-20T15:48:55Z</time>
      </trkpt>
      <trkpt lat="45.18566" lon="5.90552">
        <ele>1210.4</ele>
        <time>2021-02-20T15:48:56Z</time>
      </trkpt>
      <trkpt lat="45.18568" lon="5.90551">
        <ele>1210.2</ele>
        <time>2021-02-20T15:48:57Z</time>
      </trkpt>
      <trkpt lat="45.1857" lon="5.9055">
        <ele>1210</ele>
        <time>2021-02-20T15:48:58Z</time>
      </trkpt>
      <trkpt lat="45.18571" lon="5.90549">
        <ele>1209.8</ele>
        <time>2021-02-20T15:48:59Z</time>
      </trkpt>
      <trkpt lat="45.18571" lon="5.90548">
        <ele>1209.7</ele>
        <time>2021-02-20T15:49:00Z</time>
      </trkpt>
      <trkpt lat="45.18571" lon="5.90547">
        <ele>1209.6</ele>
        <time>2021-02-20T15:49:01Z</time>
      </trkpt>
      <trkpt lat="45.18572" lon="5.90546">
        <ele>1209.6</ele>
        <time>2021-02-20T15:49:02Z</time>
      </trkpt>
      <trkpt lat="45.18572" lon="5.90545">
        <ele>1209.5</ele>
        <time>2021-02-20T15:49:03Z</time>
      </trkpt>
      <trkpt lat="45.18572" lon="5.90544">
        <ele>1209.4</ele>
        <time>2021-02-20T15:49:04Z</time>
      </trkpt>
      <trkpt lat="45.18572" lon="5.90544">
        <ele>1209.4</ele>
        <time>2021-02-20T15:49:05Z</time>
      </trkpt>
      <trkpt lat="45.18572" lon="5.90543">
        <ele>1209.3</ele>
        <time>2021-02-20T15:49:06Z</time>
      </trkpt>
      <trkpt lat="45.18572" lon="5.90542">
        <ele>1209.2</ele>
        <time>2021-02-20T15:49:07Z</time>
      </trkpt>
      <trkpt lat="45.18572" lon="5.90541">
        <ele>1209.2</ele>
        <time>2021-02-20T15:49:08Z</time>
      </trkpt>
      <trkpt lat="45.18573" lon="5.9054">
        <ele>1209.1</ele>
        <time>2021-02-20T15:49:56Z</time>
      </trkpt>
      <trkpt lat="45.18573" lon="5.90539">
        <ele>1209</ele>
        <time>2021-02-20T15:49:57Z</time>
      </trkpt>
      <trkpt lat="45.18573" lon="5.90539">
        <ele>1209</ele>
        <time>2021-02-20T15:49:58Z</time>
      </trkpt>
      <trkpt lat="45.18573" lon="5.90538">
        <ele>1208.9</ele>
        <time>2021-02-20T15:49:59Z</time>
      </trkpt>
      <trkpt lat="45.18573" lon="5.90537">
        <ele>1208.8</ele>
        <time>2021-02-20T15:50:00Z</time>
      </trkpt>
      <trkpt lat="45.18574" lon="5.90536">
        <ele>1208.7</ele>
        <time>2021-02-20T15:50:01Z</time>
      </trkpt>
      <trkpt lat="45.18575" lon="5.90536">
        <ele>1208.6</ele>
        <time>2021-02-20T15:50:02Z</time>
      </trkpt>
      <trkpt lat="45.18576" lon="5.90535">
        <ele>1208.5</ele>
        <time>2021-02-20T15:50:03Z</time>
      </trkpt>
      <trkpt lat="45.18578" lon="5.90534">
        <ele>1208.3</ele>
        <time>2021-02-20T15:50:04Z</time>
      </trkpt>
      <trkpt lat="45.18579" lon="5.90534">
        <ele>1208.2</ele>
        <time>2021-02-20T15:50:05Z</time>
      </trkpt>
      <trkpt lat="45.1858" lon="5.90533">
        <ele>1208.1</ele>
        <time>2021-02-20T15:50:06Z</time>
      </trkpt>
      <trkpt lat="45.18581" lon="5.90532">
        <ele>1208</ele>
        <time>2021-02-20T15:50:07Z</time>
      </trkpt>
      <trkpt lat="45.18582" lon="5.90531">
        <ele>1207.8</ele>
        <time>2021-02-20T15:50:08Z</time>
      </trkpt>
      <trkpt lat="45.18583" lon="5.9053">
        <ele>1207.7</ele>
        <time>2021-02-20T15:50:09Z</time>
      </trkpt>
      <trkpt lat="45.18584" lon="5.9053">
        <ele>1207.6</ele>
        <time>2021-02-20T15:50:10Z</time>
      </trkpt>
      <trkpt lat="45.18585" lon="5.90529">
        <ele>1207.5</ele>
        <time>2021-02-20T15:50:11Z</time>
      </trkpt>
      <trkpt lat="45.18586" lon="5.90529">
        <ele>1207.3</ele>
        <time>2021-02-20T15:50:12Z</time>
      </trkpt>
      <trkpt lat="45.18588" lon="5.90528">
        <ele>1207.2</ele>
        <time>2021-02-20T15:50:13Z</time>
      </trkpt>
      <trkpt lat="45.18589" lon="5.90527">
        <ele>1207</ele>
        <time>2021-02-20T15:50:14Z</time>
      </trkpt>
      <trkpt lat="45.1859" lon="5.90526">
        <ele>1206.9</ele>
        <time>2021-02-20T15:50:15Z</time>
      </trkpt>
      <trkpt lat="45.18591" lon="5.90525">
        <ele>1206.8</ele>
        <time>2021-02-20T15:50:16Z</time>
      </trkpt>
      <trkpt lat="45.18592" lon="5.90523">
        <ele>1206.6</ele>
        <time>2021-02-20T15:50:17Z</time>
      </trkpt>
      <trkpt lat="45.18593" lon="5.90522">
        <ele>1206.5</ele>
        <time>2021-02-20T15:50:18Z</time>
      </trkpt>
      <trkpt lat="45.18594" lon="5.90521">
        <ele>1206.3</ele>
        <time>2021-02-20T15:50:19Z</time>
      </trkpt>
      <trkpt lat="45.18595" lon="5.9052">
        <ele>1206.2</ele>
        <time>2021-02-20T15:50:20Z</time>
      </trkpt>
      <trkpt lat="45.18597" lon="5.90518">
        <ele>1206</ele>
        <time>2021-02-20T15:50:21Z</time>
      </trkpt>
      <trkpt lat="45.18598" lon="5.90517">
        <ele>1205.9</ele>
        <time>2021-02-20T15:50:22Z</time>
      </trkpt>
      <trkpt lat="45.18598" lon="5.90516">
        <ele>1205.8</ele>
        <time>2021-02-20T15:50:23Z</time>
      </trkpt>
      <trkpt lat="45.18599" lon="5.90515">
        <ele>1205.7</ele>
        <time>2021-02-20T15:50:24Z</time>
      </trkpt>
      <trkpt lat="45.186" lon="5.90513">
        <ele>1205.5</ele>
        <time>2021-02-20T15:50:25Z</time>
      </trkpt>
      <trkpt lat="45.186" lon="5.90512">
        <ele>1205.4</ele>
        <time>2021-02-20T15:50:26Z</time>
      </trkpt>
      <trkpt lat="45.18601" lon="5.9051">
        <ele>1205.3</ele>
        <time>2021-02-20T15:50:27Z</time>
      </trkpt>
      <trkpt lat="45.18601" lon="5.90508">
        <ele>1205.1</ele>
        <time>2021-02-20T15:50:28Z</time>
      </trkpt>
      <trkpt lat="45.18602" lon="5.90504">
        <ele>1204.7</ele>
        <time>2021-02-20T15:50:29Z</time>
      </trkpt>
      <trkpt lat="45.18602" lon="5.90502">
        <ele>1204.6</ele>
        <time>2021-02-20T15:50:30Z</time>
      </trkpt>
      <trkpt lat="45.18603" lon="5.905">
        <ele>1204.5</ele>
        <time>2021-02-20T15:50:31Z</time>
      </trkpt>
      <trkpt lat="45.18602" lon="5.90497">
        <ele>1204.2</ele>
        <time>2021-02-20T15:50:32Z</time>
      </trkpt>
      <trkpt lat="45.18602" lon="5.90493">
        <ele>1203.9</ele>
        <time>2021-02-20T15:50:33Z</time>
      </trkpt>
      <trkpt lat="45.18602" lon="5.90492">
        <ele>1203.8</ele>
        <time>2021-02-20T15:50:34Z</time>
      </trkpt>
      <trkpt lat="45.18601" lon="5.9049">
        <ele>1203.7</ele>
        <time>2021-02-20T15:50:35Z</time>
      </trkpt>
      <trkpt lat="45.18601" lon="5.90488">
        <ele>1203.5</ele>
        <time>2021-02-20T15:50:36Z</time>
      </trkpt>
      <trkpt lat="45.18601" lon="5.90486">
        <ele>1203.3</ele>
        <time>2021-02-20T15:50:37Z</time>
      </trkpt>
      <trkpt lat="45.18601" lon="5.90484">
        <ele>1203.1</ele>
        <time>2021-02-20T15:50:38Z</time>
      </trkpt>
      <trkpt lat="45.18601" lon="5.90481">
        <ele>1202.8</ele>
        <time>2021-02-20T15:50:39Z</time>
      </trkpt>
      <trkpt lat="45.18601" lon="5.9048">
        <ele>1202.7</ele>
        <time>2021-02-20T15:50:40Z</time>
      </trkpt>
      <trkpt lat="45.18601" lon="5.90478">
        <ele>1202.6</ele>
        <time>2021-02-20T15:50:41Z</time>
      </trkpt>
      <trkpt lat="45.18601" lon="5.90477">
        <ele>1202.4</ele>
        <time>2021-02-20T15:50:42Z</time>
      </trkpt>
      <trkpt lat="45.18601" lon="5.90474">
        <ele>1202.2</ele>
        <time>2021-02-20T15:50:43Z</time>
      </trkpt>
      <trkpt lat="45.18602" lon="5.90472">
        <ele>1202</ele>
        <time>2021-02-20T15:50:44Z</time>
      </trkpt>
      <trkpt lat="45.18602" lon="5.9047">
        <ele>1201.8</ele>
        <time>2021-02-20T15:50:45Z</time>
      </trkpt>
      <trkpt lat="45.18601" lon="5.90468">
        <ele>1201.6</ele>
        <time>2021-02-20T15:50:46Z</time>
      </trkpt>
      <trkpt lat="45.18601" lon="5.90465">
        <ele>1201.3</ele>
        <time>2021-02-20T15:50:47Z</time>
      </trkpt>
      <trkpt lat="45.186" lon="5.90463">
        <ele>1201.1</ele>
        <time>2021-02-20T15:50:48Z</time>
      </trkpt>
      <trkpt lat="45.186" lon="5.90461">
        <ele>1200.9</ele>
        <time>2021-02-20T15:50:49Z</time>
      </trkpt>
      <trkpt lat="45.186" lon="5.9046">
        <ele>1200.7</ele>
        <time>2021-02-20T15:50:50Z</time>
      </trkpt>
      <trkpt lat="45.18601" lon="5.90459">
        <ele>1200.6</ele>
        <time>2021-02-20T15:50:51Z</time>
      </trkpt>
      <trkpt lat="45.18602" lon="5.90457">
        <ele>1200.4</ele>
        <time>2021-02-20T15:50:52Z</time>
      </trkpt>
      <trkpt lat="45.18603" lon="5.90456">
        <ele>1200.2</ele>
        <time>2021-02-20T15:50:53Z</time>
      </trkpt>
      <trkpt lat="45.18604" lon="5.90455">
        <ele>1199.9</ele>
        <time>2021-02-20T15:50:54Z</time>
      </trkpt>
      <trkpt lat="45.18606" lon="5.90454">
        <ele>1199.7</ele>
        <time>2021-02-20T15:50:55Z</time>
      </trkpt>
      <trkpt lat="45.18607" lon="5.90453">
        <ele>1199.5</ele>
        <time>2021-02-20T15:50:56Z</time>
      </trkpt>
      <trkpt lat="45.18608" lon="5.90453">
        <ele>1199.2</ele>
        <time>2021-02-20T15:50:57Z</time>
      </trkpt>
      <trkpt lat="45.18609" lon="5.90453">
        <ele>1199.1</ele>
        <time>2021-02-20T15:50:58Z</time>
      </trkpt>
      <trkpt lat="45.1861" lon="5.90453">
        <ele>1198.9</ele>
        <time>2021-02-20T15:50:59Z</time>
      </trkpt>
      <trkpt lat="45.18611" lon="5.90453">
        <ele>1198.8</ele>
        <time>2021-02-20T15:51:00Z</time>
      </trkpt>
      <trkpt lat="45.18612" lon="5.90453">
        <ele>1198.6</ele>
        <time>2021-02-20T15:51:01Z</time>
      </trkpt>
      <trkpt lat="45.18613" lon="5.90453">
        <ele>1198.4</ele>
        <time>2021-02-20T15:51:02Z</time>
      </trkpt>
      <trkpt lat="45.18614" lon="5.90453">
        <ele>1198.2</ele>
        <time>2021-02-20T15:51:03Z</time>
      </trkpt>
      <trkpt lat="45.18615" lon="5.90453">
        <ele>1198.1</ele>
        <time>2021-02-20T15:51:04Z</time>
      </trkpt>
      <trkpt lat="45.18615" lon="5.90454">
        <ele>1198</ele>
        <time>2021-02-20T15:51:05Z</time>
      </trkpt>
      <trkpt lat="45.18616" lon="5.90454">
        <ele>1197.9</ele>
        <time>2021-02-20T15:51:06Z</time>
      </trkpt>
      <trkpt lat="45.18617" lon="5.90455">
        <ele>1197.7</ele>
        <time>2021-02-20T15:51:07Z</time>
      </trkpt>
      <trkpt lat="45.18618" lon="5.90455">
        <ele>1197.5</ele>
        <time>2021-02-20T15:51:08Z</time>
      </trkpt>
      <trkpt lat="45.18619" lon="5.90455">
        <ele>1197.4</ele>
        <time>2021-02-20T15:51:09Z</time>
      </trkpt>
      <trkpt lat="45.18621" lon="5.90454">
        <ele>1197</ele>
        <time>2021-02-20T15:51:10Z</time>
      </trkpt>
      <trkpt lat="45.18622" lon="5.90454">
        <ele>1196.8</ele>
        <time>2021-02-20T15:51:11Z</time>
      </trkpt>
      <trkpt lat="45.18623" lon="5.90454">
        <ele>1196.7</ele>
        <time>2021-02-20T15:51:12Z</time>
      </trkpt>
      <trkpt lat="45.18624" lon="5.90454">
        <ele>1196.7</ele>
        <time>2021-02-20T15:51:13Z</time>
      </trkpt>
      <trkpt lat="45.18624" lon="5.90454">
        <ele>1196.6</ele>
        <time>2021-02-20T15:51:14Z</time>
      </trkpt>
      <trkpt lat="45.18626" lon="5.90454">
        <ele>1196.4</ele>
        <time>2021-02-20T15:51:15Z</time>
      </trkpt>
      <trkpt lat="45.18628" lon="5.90453">
        <ele>1196.2</ele>
        <time>2021-02-20T15:51:16Z</time>
      </trkpt>
      <trkpt lat="45.18628" lon="5.90452">
        <ele>1196</ele>
        <time>2021-02-20T15:51:17Z</time>
      </trkpt>
      <trkpt lat="45.18629" lon="5.90451">
        <ele>1195.9</ele>
        <time>2021-02-20T15:51:18Z</time>
      </trkpt>
      <trkpt lat="45.1863" lon="5.90451">
        <ele>1195.8</ele>
        <time>2021-02-20T15:51:19Z</time>
      </trkpt>
      <trkpt lat="45.18632" lon="5.90449">
        <ele>1195.5</ele>
        <time>2021-02-20T15:51:20Z</time>
      </trkpt>
      <trkpt lat="45.18634" lon="5.90448">
        <ele>1195.2</ele>
        <time>2021-02-20T15:51:21Z</time>
      </trkpt>
      <trkpt lat="45.18635" lon="5.90447">
        <ele>1195.1</ele>
        <time>2021-02-20T15:51:22Z</time>
      </trkpt>
      <trkpt lat="45.18638" lon="5.90446">
        <ele>1194.7</ele>
        <time>2021-02-20T15:51:23Z</time>
      </trkpt>
      <trkpt lat="45.18639" lon="5.90445">
        <ele>1194.6</ele>
        <time>2021-02-20T15:51:24Z</time>
      </trkpt>
      <trkpt lat="45.1864" lon="5.90444">
        <ele>1194.4</ele>
        <time>2021-02-20T15:51:25Z</time>
      </trkpt>
      <trkpt lat="45.18641" lon="5.90443">
        <ele>1194.2</ele>
        <time>2021-02-20T15:51:26Z</time>
      </trkpt>
      <trkpt lat="45.18643" lon="5.90442">
        <ele>1194</ele>
        <time>2021-02-20T15:51:27Z</time>
      </trkpt>
      <trkpt lat="45.18644" lon="5.90441">
        <ele>1193.8</ele>
        <time>2021-02-20T15:51:28Z</time>
      </trkpt>
      <trkpt lat="45.18645" lon="5.9044">
        <ele>1193.6</ele>
        <time>2021-02-20T15:51:29Z</time>
      </trkpt>
      <trkpt lat="45.18647" lon="5.90439">
        <ele>1193.4</ele>
        <time>2021-02-20T15:51:30Z</time>
      </trkpt>
      <trkpt lat="45.18648" lon="5.90437">
        <ele>1193.2</ele>
        <time>2021-02-20T15:51:31Z</time>
      </trkpt>
      <trkpt lat="45.18649" lon="5.90436">
        <ele>1193.1</ele>
        <time>2021-02-20T15:51:32Z</time>
      </trkpt>
      <trkpt lat="45.18651" lon="5.90434">
        <ele>1192.8</ele>
        <time>2021-02-20T15:51:33Z</time>
      </trkpt>
      <trkpt lat="45.18651" lon="5.90433">
        <ele>1192.7</ele>
        <time>2021-02-20T15:51:34Z</time>
      </trkpt>
      <trkpt lat="45.18652" lon="5.90432">
        <ele>1192.6</ele>
        <time>2021-02-20T15:51:35Z</time>
      </trkpt>
      <trkpt lat="45.18653" lon="5.9043">
        <ele>1192.5</ele>
        <time>2021-02-20T15:51:36Z</time>
      </trkpt>
      <trkpt lat="45.18653" lon="5.90429">
        <ele>1192.3</ele>
        <time>2021-02-20T15:51:37Z</time>
      </trkpt>
      <trkpt lat="45.18654" lon="5.90427">
        <ele>1192.2</ele>
        <time>2021-02-20T15:51:38Z</time>
      </trkpt>
      <trkpt lat="45.18654" lon="5.90427">
        <ele>1192.1</ele>
        <time>2021-02-20T15:51:39Z</time>
      </trkpt>
      <trkpt lat="45.18654" lon="5.90427">
        <ele>1192.1</ele>
        <time>2021-02-20T15:51:40Z</time>
      </trkpt>
      <trkpt lat="45.18654" lon="5.90427">
        <ele>1192.1</ele>
        <time>2021-02-20T15:51:41Z</time>
      </trkpt>
      <trkpt lat="45.18654" lon="5.90425">
        <ele>1192</ele>
        <time>2021-02-20T15:51:42Z</time>
      </trkpt>
      <trkpt lat="45.18654" lon="5.90423">
        <ele>1191.8</ele>
        <time>2021-02-20T15:51:43Z</time>
      </trkpt>
      <trkpt lat="45.18654" lon="5.90421">
        <ele>1191.6</ele>
        <time>2021-02-20T15:51:44Z</time>
      </trkpt>
      <trkpt lat="45.18654" lon="5.90419">
        <ele>1191.5</ele>
        <time>2021-02-20T15:51:45Z</time>
      </trkpt>
      <trkpt lat="45.18654" lon="5.90417">
        <ele>1191.3</ele>
        <time>2021-02-20T15:51:46Z</time>
      </trkpt>
      <trkpt lat="45.18654" lon="5.90415">
        <ele>1191.2</ele>
        <time>2021-02-20T15:51:47Z</time>
      </trkpt>
      <trkpt lat="45.18654" lon="5.90413">
        <ele>1191</ele>
        <time>2021-02-20T15:51:48Z</time>
      </trkpt>
      <trkpt lat="45.18654" lon="5.90412">
        <ele>1190.9</ele>
        <time>2021-02-20T15:52:16Z</time>
      </trkpt>
      <trkpt lat="45.18655" lon="5.9041">
        <ele>1190.7</ele>
        <time>2021-02-20T15:52:17Z</time>
      </trkpt>
      <trkpt lat="45.18655" lon="5.90408">
        <ele>1190.5</ele>
        <time>2021-02-20T15:52:18Z</time>
      </trkpt>
      <trkpt lat="45.18656" lon="5.90405">
        <ele>1190.3</ele>
        <time>2021-02-20T15:52:19Z</time>
      </trkpt>
      <trkpt lat="45.18656" lon="5.90404">
        <ele>1190.2</ele>
        <time>2021-02-20T15:52:20Z</time>
      </trkpt>
      <trkpt lat="45.18656" lon="5.90403">
        <ele>1190.1</ele>
        <time>2021-02-20T15:52:21Z</time>
      </trkpt>
      <trkpt lat="45.18657" lon="5.90402">
        <ele>1189.9</ele>
        <time>2021-02-20T15:52:22Z</time>
      </trkpt>
      <trkpt lat="45.18658" lon="5.904">
        <ele>1189.8</ele>
        <time>2021-02-20T15:52:23Z</time>
      </trkpt>
      <trkpt lat="45.18659" lon="5.904">
        <ele>1189.7</ele>
        <time>2021-02-20T15:52:24Z</time>
      </trkpt>
      <trkpt lat="45.1866" lon="5.90398">
        <ele>1189.4</ele>
        <time>2021-02-20T15:52:25Z</time>
      </trkpt>
      <trkpt lat="45.18661" lon="5.90397">
        <ele>1189.3</ele>
        <time>2021-02-20T15:52:26Z</time>
      </trkpt>
      <trkpt lat="45.18661" lon="5.90396">
        <ele>1189.2</ele>
        <time>2021-02-20T15:52:27Z</time>
      </trkpt>
      <trkpt lat="45.18662" lon="5.90395">
        <ele>1189</ele>
        <time>2021-02-20T15:52:28Z</time>
      </trkpt>
      <trkpt lat="45.18664" lon="5.90393">
        <ele>1188.7</ele>
        <time>2021-02-20T15:52:29Z</time>
      </trkpt>
      <trkpt lat="45.18665" lon="5.90391">
        <ele>1188.4</ele>
        <time>2021-02-20T15:52:30Z</time>
      </trkpt>
      <trkpt lat="45.18666" lon="5.9039">
        <ele>1188.3</ele>
        <time>2021-02-20T15:52:31Z</time>
      </trkpt>
      <trkpt lat="45.18667" lon="5.9039">
        <ele>1188.2</ele>
        <time>2021-02-20T15:52:32Z</time>
      </trkpt>
      <trkpt lat="45.18668" lon="5.90388">
        <ele>1188</ele>
        <time>2021-02-20T15:52:33Z</time>
      </trkpt>
      <trkpt lat="45.18668" lon="5.90387">
        <ele>1187.8</ele>
        <time>2021-02-20T15:52:34Z</time>
      </trkpt>
      <trkpt lat="45.18669" lon="5.90385">
        <ele>1187.6</ele>
        <time>2021-02-20T15:52:35Z</time>
      </trkpt>
      <trkpt lat="45.1867" lon="5.90384">
        <ele>1187.5</ele>
        <time>2021-02-20T15:52:36Z</time>
      </trkpt>
      <trkpt lat="45.1867" lon="5.90382">
        <ele>1187.3</ele>
        <time>2021-02-20T15:52:37Z</time>
      </trkpt>
      <trkpt lat="45.1867" lon="5.90381">
        <ele>1187.2</ele>
        <time>2021-02-20T15:52:38Z</time>
      </trkpt>
      <trkpt lat="45.18671" lon="5.9038">
        <ele>1187</ele>
        <time>2021-02-20T15:52:39Z</time>
      </trkpt>
      <trkpt lat="45.18672" lon="5.90379">
        <ele>1186.8</ele>
        <time>2021-02-20T15:52:40Z</time>
      </trkpt>
      <trkpt lat="45.18673" lon="5.90378">
        <ele>1186.6</ele>
        <time>2021-02-20T15:52:41Z</time>
      </trkpt>
      <trkpt lat="45.18675" lon="5.90377">
        <ele>1186.4</ele>
        <time>2021-02-20T15:52:42Z</time>
      </trkpt>
      <trkpt lat="45.18676" lon="5.90376">
        <ele>1186.2</ele>
        <time>2021-02-20T15:52:43Z</time>
      </trkpt>
      <trkpt lat="45.18678" lon="5.90376">
        <ele>1185.9</ele>
        <time>2021-02-20T15:52:44Z</time>
      </trkpt>
      <trkpt lat="45.18679" lon="5.90376">
        <ele>1185.8</ele>
        <time>2021-02-20T15:52:45Z</time>
      </trkpt>
      <trkpt lat="45.18679" lon="5.90376">
        <ele>1185.7</ele>
        <time>2021-02-20T15:52:46Z</time>
      </trkpt>
      <trkpt lat="45.1868" lon="5.90376">
        <ele>1185.6</ele>
        <time>2021-02-20T15:52:47Z</time>
      </trkpt>
      <trkpt lat="45.18681" lon="5.90376">
        <ele>1185.5</ele>
        <time>2021-02-20T15:52:48Z</time>
      </trkpt>
      <trkpt lat="45.18682" lon="5.90376">
        <ele>1185.3</ele>
        <time>2021-02-20T15:52:49Z</time>
      </trkpt>
      <trkpt lat="45.18684" lon="5.90377">
        <ele>1185</ele>
        <time>2021-02-20T15:52:50Z</time>
      </trkpt>
      <trkpt lat="45.18687" lon="5.90377">
        <ele>1184.6</ele>
        <time>2021-02-20T15:52:51Z</time>
      </trkpt>
      <trkpt lat="45.18688" lon="5.90377">
        <ele>1184.5</ele>
        <time>2021-02-20T15:52:52Z</time>
      </trkpt>
      <trkpt lat="45.18689" lon="5.90376">
        <ele>1184.2</ele>
        <time>2021-02-20T15:52:53Z</time>
      </trkpt>
      <trkpt lat="45.18691" lon="5.90376">
        <ele>1184.1</ele>
        <time>2021-02-20T15:52:54Z</time>
      </trkpt>
      <trkpt lat="45.18692" lon="5.90374">
        <ele>1183.8</ele>
        <time>2021-02-20T15:52:55Z</time>
      </trkpt>
      <trkpt lat="45.18693" lon="5.90373">
        <ele>1183.7</ele>
        <time>2021-02-20T15:52:56Z</time>
      </trkpt>
      <trkpt lat="45.18694" lon="5.90373">
        <ele>1183.5</ele>
        <time>2021-02-20T15:52:57Z</time>
      </trkpt>
      <trkpt lat="45.18696" lon="5.9037">
        <ele>1183.2</ele>
        <time>2021-02-20T15:52:58Z</time>
      </trkpt>
      <trkpt lat="45.18696" lon="5.90369">
        <ele>1183</ele>
        <time>2021-02-20T15:52:59Z</time>
      </trkpt>
      <trkpt lat="45.18697" lon="5.90367">
        <ele>1182.8</ele>
        <time>2021-02-20T15:53:00Z</time>
      </trkpt>
      <trkpt lat="45.18698" lon="5.90365">
        <ele>1182.5</ele>
        <time>2021-02-20T15:53:01Z</time>
      </trkpt>
      <trkpt lat="45.18699" lon="5.90361">
        <ele>1182.1</ele>
        <time>2021-02-20T15:53:02Z</time>
      </trkpt>
      <trkpt lat="45.187" lon="5.9036">
        <ele>1182</ele>
        <time>2021-02-20T15:53:03Z</time>
      </trkpt>
      <trkpt lat="45.187" lon="5.90358">
        <ele>1181.7</ele>
        <time>2021-02-20T15:53:04Z</time>
      </trkpt>
      <trkpt lat="45.187" lon="5.90355">
        <ele>1181.5</ele>
        <time>2021-02-20T15:53:05Z</time>
      </trkpt>
      <trkpt lat="45.18701" lon="5.90354">
        <ele>1181.3</ele>
        <time>2021-02-20T15:53:06Z</time>
      </trkpt>
      <trkpt lat="45.18701" lon="5.90352">
        <ele>1181.1</ele>
        <time>2021-02-20T15:53:07Z</time>
      </trkpt>
      <trkpt lat="45.18702" lon="5.9035">
        <ele>1180.9</ele>
        <time>2021-02-20T15:53:08Z</time>
      </trkpt>
      <trkpt lat="45.18702" lon="5.90348">
        <ele>1180.6</ele>
        <time>2021-02-20T15:53:09Z</time>
      </trkpt>
      <trkpt lat="45.18702" lon="5.90346">
        <ele>1180.4</ele>
        <time>2021-02-20T15:53:10Z</time>
      </trkpt>
      <trkpt lat="45.18702" lon="5.90343">
        <ele>1180.1</ele>
        <time>2021-02-20T15:53:11Z</time>
      </trkpt>
      <trkpt lat="45.18701" lon="5.90341">
        <ele>1179.8</ele>
        <time>2021-02-20T15:53:12Z</time>
      </trkpt>
      <trkpt lat="45.187" lon="5.90339">
        <ele>1179.6</ele>
        <time>2021-02-20T15:53:13Z</time>
      </trkpt>
      <trkpt lat="45.18699" lon="5.90337">
        <ele>1179.3</ele>
        <time>2021-02-20T15:53:14Z</time>
      </trkpt>
      <trkpt lat="45.18698" lon="5.90335">
        <ele>1179.1</ele>
        <time>2021-02-20T15:53:15Z</time>
      </trkpt>
      <trkpt lat="45.18698" lon="5.90333">
        <ele>1178.8</ele>
        <time>2021-02-20T15:53:16Z</time>
      </trkpt>
      <trkpt lat="45.18697" lon="5.90331">
        <ele>1178.6</ele>
        <time>2021-02-20T15:53:17Z</time>
      </trkpt>
      <trkpt lat="45.18697" lon="5.90329">
        <ele>1178.3</ele>
        <time>2021-02-20T15:53:18Z</time>
      </trkpt>
      <trkpt lat="45.18696" lon="5.90327">
        <ele>1178.1</ele>
        <time>2021-02-20T15:53:19Z</time>
      </trkpt>
      <trkpt lat="45.18696" lon="5.90325">
        <ele>1177.8</ele>
        <time>2021-02-20T15:53:20Z</time>
      </trkpt>
      <trkpt lat="45.18695" lon="5.90323">
        <ele>1177.5</ele>
        <time>2021-02-20T15:53:21Z</time>
      </trkpt>
      <trkpt lat="45.18694" lon="5.90321">
        <ele>1177.3</ele>
        <time>2021-02-20T15:53:22Z</time>
      </trkpt>
      <trkpt lat="45.18694" lon="5.9032">
        <ele>1177.1</ele>
        <time>2021-02-20T15:53:23Z</time>
      </trkpt>
      <trkpt lat="45.18693" lon="5.90319">
        <ele>1177</ele>
        <time>2021-02-20T15:53:24Z</time>
      </trkpt>
      <trkpt lat="45.18692" lon="5.90318">
        <ele>1176.8</ele>
        <time>2021-02-20T15:53:25Z</time>
      </trkpt>
      <trkpt lat="45.18692" lon="5.90317">
        <ele>1176.6</ele>
        <time>2021-02-20T15:53:26Z</time>
      </trkpt>
      <trkpt lat="45.18691" lon="5.90315">
        <ele>1176.4</ele>
        <time>2021-02-20T15:53:27Z</time>
      </trkpt>
      <trkpt lat="45.1869" lon="5.90313">
        <ele>1176.1</ele>
        <time>2021-02-20T15:53:28Z</time>
      </trkpt>
      <trkpt lat="45.18689" lon="5.90312">
        <ele>1176</ele>
        <time>2021-02-20T15:53:29Z</time>
      </trkpt>
      <trkpt lat="45.18689" lon="5.9031">
        <ele>1175.8</ele>
        <time>2021-02-20T15:53:30Z</time>
      </trkpt>
      <trkpt lat="45.18689" lon="5.90308">
        <ele>1175.6</ele>
        <time>2021-02-20T15:53:31Z</time>
      </trkpt>
      <trkpt lat="45.18688" lon="5.90306">
        <ele>1175.3</ele>
        <time>2021-02-20T15:53:32Z</time>
      </trkpt>
      <trkpt lat="45.18688" lon="5.90304">
        <ele>1175.1</ele>
        <time>2021-02-20T15:53:33Z</time>
      </trkpt>
      <trkpt lat="45.18688" lon="5.90302">
        <ele>1174.8</ele>
        <time>2021-02-20T15:53:34Z</time>
      </trkpt>
      <trkpt lat="45.18687" lon="5.903">
        <ele>1174.6</ele>
        <time>2021-02-20T15:53:35Z</time>
      </trkpt>
      <trkpt lat="45.18686" lon="5.90299">
        <ele>1174.4</ele>
        <time>2021-02-20T15:53:36Z</time>
      </trkpt>
      <trkpt lat="45.18684" lon="5.90297">
        <ele>1174</ele>
        <time>2021-02-20T15:53:37Z</time>
      </trkpt>
      <trkpt lat="45.18683" lon="5.90296">
        <ele>1173.9</ele>
        <time>2021-02-20T15:53:38Z</time>
      </trkpt>
      <trkpt lat="45.18683" lon="5.90295">
        <ele>1173.8</ele>
        <time>2021-02-20T15:53:39Z</time>
      </trkpt>
      <trkpt lat="45.18681" lon="5.90294">
        <ele>1173.5</ele>
        <time>2021-02-20T15:53:40Z</time>
      </trkpt>
      <trkpt lat="45.1868" lon="5.90293">
        <ele>1173.3</ele>
        <time>2021-02-20T15:53:41Z</time>
      </trkpt>
      <trkpt lat="45.1868" lon="5.90291">
        <ele>1173.1</ele>
        <time>2021-02-20T15:53:42Z</time>
      </trkpt>
      <trkpt lat="45.1868" lon="5.90289">
        <ele>1172.9</ele>
        <time>2021-02-20T15:53:43Z</time>
      </trkpt>
      <trkpt lat="45.18679" lon="5.90287">
        <ele>1172.6</ele>
        <time>2021-02-20T15:53:44Z</time>
      </trkpt>
      <trkpt lat="45.18679" lon="5.90285">
        <ele>1172.4</ele>
        <time>2021-02-20T15:53:45Z</time>
      </trkpt>
      <trkpt lat="45.18678" lon="5.90282">
        <ele>1172.1</ele>
        <time>2021-02-20T15:53:46Z</time>
      </trkpt>
      <trkpt lat="45.18678" lon="5.90281">
        <ele>1171.9</ele>
        <time>2021-02-20T15:53:47Z</time>
      </trkpt>
      <trkpt lat="45.18678" lon="5.9028">
        <ele>1171.8</ele>
        <time>2021-02-20T15:53:48Z</time>
      </trkpt>
      <trkpt lat="45.18678" lon="5.90278">
        <ele>1171.6</ele>
        <time>2021-02-20T15:53:49Z</time>
      </trkpt>
      <trkpt lat="45.18678" lon="5.90276">
        <ele>1171.3</ele>
        <time>2021-02-20T15:53:50Z</time>
      </trkpt>
      <trkpt lat="45.18678" lon="5.90273">
        <ele>1171</ele>
        <time>2021-02-20T15:53:51Z</time>
      </trkpt>
      <trkpt lat="45.18678" lon="5.90271">
        <ele>1170.8</ele>
        <time>2021-02-20T15:53:52Z</time>
      </trkpt>
      <trkpt lat="45.18678" lon="5.9027">
        <ele>1170.6</ele>
        <time>2021-02-20T15:53:53Z</time>
      </trkpt>
      <trkpt lat="45.18678" lon="5.90268">
        <ele>1170.4</ele>
        <time>2021-02-20T15:53:54Z</time>
      </trkpt>
      <trkpt lat="45.18678" lon="5.90266">
        <ele>1170.2</ele>
        <time>2021-02-20T15:53:55Z</time>
      </trkpt>
      <trkpt lat="45.18678" lon="5.90265">
        <ele>1170.1</ele>
        <time>2021-02-20T15:53:56Z</time>
      </trkpt>
      <trkpt lat="45.18677" lon="5.90263">
        <ele>1169.8</ele>
        <time>2021-02-20T15:53:57Z</time>
      </trkpt>
      <trkpt lat="45.18676" lon="5.90262">
        <ele>1169.6</ele>
        <time>2021-02-20T15:53:58Z</time>
      </trkpt>
      <trkpt lat="45.18676" lon="5.90261">
        <ele>1169.5</ele>
        <time>2021-02-20T15:53:59Z</time>
      </trkpt>
      <trkpt lat="45.18675" lon="5.90258">
        <ele>1168.1</ele>
        <time>2021-02-20T15:54:00Z</time>
      </trkpt>
      <trkpt lat="45.18675" lon="5.90256">
        <ele>1168</ele>
        <time>2021-02-20T15:54:01Z</time>
      </trkpt>
      <trkpt lat="45.18675" lon="5.90255">
        <ele>1167.8</ele>
        <time>2021-02-20T15:54:02Z</time>
      </trkpt>
      <trkpt lat="45.18675" lon="5.90253">
        <ele>1167.6</ele>
        <time>2021-02-20T15:54:03Z</time>
      </trkpt>
      <trkpt lat="45.18675" lon="5.90252">
        <ele>1167.5</ele>
        <time>2021-02-20T15:54:04Z</time>
      </trkpt>
      <trkpt lat="45.18674" lon="5.90251">
        <ele>1167.4</ele>
        <time>2021-02-20T15:54:05Z</time>
      </trkpt>
      <trkpt lat="45.18673" lon="5.9025">
        <ele>1167.1</ele>
        <time>2021-02-20T15:54:06Z</time>
      </trkpt>
      <trkpt lat="45.18671" lon="5.90248">
        <ele>1166.8</ele>
        <time>2021-02-20T15:54:07Z</time>
      </trkpt>
      <trkpt lat="45.1867" lon="5.90246">
        <ele>1166.6</ele>
        <time>2021-02-20T15:54:08Z</time>
      </trkpt>
      <trkpt lat="45.18669" lon="5.90245">
        <ele>1166.3</ele>
        <time>2021-02-20T15:54:09Z</time>
      </trkpt>
      <trkpt lat="45.18668" lon="5.90243">
        <ele>1166.1</ele>
        <time>2021-02-20T15:54:10Z</time>
      </trkpt>
      <trkpt lat="45.18667" lon="5.90242">
        <ele>1165.9</ele>
        <time>2021-02-20T15:54:11Z</time>
      </trkpt>
      <trkpt lat="45.18666" lon="5.90239">
        <ele>1165.6</ele>
        <time>2021-02-20T15:54:12Z</time>
      </trkpt>
      <trkpt lat="45.18666" lon="5.90238">
        <ele>1165.5</ele>
        <time>2021-02-20T15:54:13Z</time>
      </trkpt>
      <trkpt lat="45.18666" lon="5.90237">
        <ele>1165.4</ele>
        <time>2021-02-20T15:54:14Z</time>
      </trkpt>
      <trkpt lat="45.18666" lon="5.90236">
        <ele>1165.3</ele>
        <time>2021-02-20T15:54:15Z</time>
      </trkpt>
      <trkpt lat="45.18666" lon="5.90234">
        <ele>1165.1</ele>
        <time>2021-02-20T15:54:16Z</time>
      </trkpt>
      <trkpt lat="45.18666" lon="5.90232">
        <ele>1165</ele>
        <time>2021-02-20T15:54:17Z</time>
      </trkpt>
      <trkpt lat="45.18667" lon="5.90229">
        <ele>1164.7</ele>
        <time>2021-02-20T15:54:18Z</time>
      </trkpt>
      <trkpt lat="45.18667" lon="5.90228">
        <ele>1164.5</ele>
        <time>2021-02-20T15:54:19Z</time>
      </trkpt>
      <trkpt lat="45.18667" lon="5.90227">
        <ele>1164.4</ele>
        <time>2021-02-20T15:54:20Z</time>
      </trkpt>
      <trkpt lat="45.18666" lon="5.90225">
        <ele>1164.2</ele>
        <time>2021-02-20T15:54:21Z</time>
      </trkpt>
      <trkpt lat="45.18666" lon="5.90223">
        <ele>1164</ele>
        <time>2021-02-20T15:54:22Z</time>
      </trkpt>
      <trkpt lat="45.18665" lon="5.90221">
        <ele>1163.9</ele>
        <time>2021-02-20T15:54:23Z</time>
      </trkpt>
      <trkpt lat="45.18665" lon="5.9022">
        <ele>1163.8</ele>
        <time>2021-02-20T15:54:24Z</time>
      </trkpt>
      <trkpt lat="45.18665" lon="5.90219">
        <ele>1163.7</ele>
        <time>2021-02-20T15:54:25Z</time>
      </trkpt>
      <trkpt lat="45.18664" lon="5.90216">
        <ele>1163.4</ele>
        <time>2021-02-20T15:54:26Z</time>
      </trkpt>
      <trkpt lat="45.18664" lon="5.90214">
        <ele>1163.3</ele>
        <time>2021-02-20T15:54:27Z</time>
      </trkpt>
      <trkpt lat="45.18664" lon="5.90213">
        <ele>1163.1</ele>
        <time>2021-02-20T15:54:28Z</time>
      </trkpt>
      <trkpt lat="45.18663" lon="5.90211">
        <ele>1162.9</ele>
        <time>2021-02-20T15:54:29Z</time>
      </trkpt>
      <trkpt lat="45.18663" lon="5.90209">
        <ele>1162.7</ele>
        <time>2021-02-20T15:54:30Z</time>
      </trkpt>
      <trkpt lat="45.18662" lon="5.90207">
        <ele>1162.5</ele>
        <time>2021-02-20T15:54:31Z</time>
      </trkpt>
      <trkpt lat="45.18662" lon="5.90205">
        <ele>1162.4</ele>
        <time>2021-02-20T15:54:32Z</time>
      </trkpt>
      <trkpt lat="45.18661" lon="5.90202">
        <ele>1162.2</ele>
        <time>2021-02-20T15:54:33Z</time>
      </trkpt>
      <trkpt lat="45.18661" lon="5.90201">
        <ele>1162</ele>
        <time>2021-02-20T15:54:34Z</time>
      </trkpt>
      <trkpt lat="45.18661" lon="5.90199">
        <ele>1161.9</ele>
        <time>2021-02-20T15:54:35Z</time>
      </trkpt>
      <trkpt lat="45.1866" lon="5.90197">
        <ele>1161.7</ele>
        <time>2021-02-20T15:54:36Z</time>
      </trkpt>
      <trkpt lat="45.1866" lon="5.90195">
        <ele>1161.6</ele>
        <time>2021-02-20T15:54:37Z</time>
      </trkpt>
      <trkpt lat="45.18659" lon="5.90192">
        <ele>1161.3</ele>
        <time>2021-02-20T15:54:38Z</time>
      </trkpt>
      <trkpt lat="45.1866" lon="5.90191">
        <ele>1161.2</ele>
        <time>2021-02-20T15:54:39Z</time>
      </trkpt>
      <trkpt lat="45.1866" lon="5.9019">
        <ele>1161.2</ele>
        <time>2021-02-20T15:54:40Z</time>
      </trkpt>
      <trkpt lat="45.1866" lon="5.90187">
        <ele>1161</ele>
        <time>2021-02-20T15:54:41Z</time>
      </trkpt>
      <trkpt lat="45.1866" lon="5.90185">
        <ele>1160.8</ele>
        <time>2021-02-20T15:54:42Z</time>
      </trkpt>
      <trkpt lat="45.1866" lon="5.90182">
        <ele>1160.6</ele>
        <time>2021-02-20T15:54:43Z</time>
      </trkpt>
      <trkpt lat="45.18659" lon="5.90181">
        <ele>1160.5</ele>
        <time>2021-02-20T15:54:44Z</time>
      </trkpt>
      <trkpt lat="45.18659" lon="5.9018">
        <ele>1160.4</ele>
        <time>2021-02-20T15:54:45Z</time>
      </trkpt>
      <trkpt lat="45.18658" lon="5.90178">
        <ele>1160.3</ele>
        <time>2021-02-20T15:54:46Z</time>
      </trkpt>
      <trkpt lat="45.18657" lon="5.90176">
        <ele>1160.1</ele>
        <time>2021-02-20T15:54:47Z</time>
      </trkpt>
      <trkpt lat="45.18656" lon="5.90175">
        <ele>1160</ele>
        <time>2021-02-20T15:54:48Z</time>
      </trkpt>
      <trkpt lat="45.18656" lon="5.90173">
        <ele>1159.8</ele>
        <time>2021-02-20T15:54:49Z</time>
      </trkpt>
      <trkpt lat="45.18655" lon="5.90171">
        <ele>1159.7</ele>
        <time>2021-02-20T15:54:50Z</time>
      </trkpt>
      <trkpt lat="45.18654" lon="5.90169">
        <ele>1159.5</ele>
        <time>2021-02-20T15:54:51Z</time>
      </trkpt>
      <trkpt lat="45.18654" lon="5.90167">
        <ele>1159.4</ele>
        <time>2021-02-20T15:54:52Z</time>
      </trkpt>
      <trkpt lat="45.18654" lon="5.90167">
        <ele>1159.4</ele>
        <time>2021-02-20T15:54:53Z</time>
      </trkpt>
      <trkpt lat="45.18654" lon="5.90166">
        <ele>1159.3</ele>
        <time>2021-02-20T15:54:54Z</time>
      </trkpt>
      <trkpt lat="45.18654" lon="5.90165">
        <ele>1159.2</ele>
        <time>2021-02-20T15:54:55Z</time>
      </trkpt>
      <trkpt lat="45.18654" lon="5.90164">
        <ele>1159.1</ele>
        <time>2021-02-20T15:54:56Z</time>
      </trkpt>
      <trkpt lat="45.18654" lon="5.90162">
        <ele>1159.1</ele>
        <time>2021-02-20T15:54:57Z</time>
      </trkpt>
      <trkpt lat="45.18654" lon="5.90161">
        <ele>1158.9</ele>
        <time>2021-02-20T15:54:58Z</time>
      </trkpt>
      <trkpt lat="45.18654" lon="5.90158">
        <ele>1158.8</ele>
        <time>2021-02-20T15:54:59Z</time>
      </trkpt>
      <trkpt lat="45.18654" lon="5.90156">
        <ele>1158.6</ele>
        <time>2021-02-20T15:55:00Z</time>
      </trkpt>
      <trkpt lat="45.18653" lon="5.90155">
        <ele>1158.5</ele>
        <time>2021-02-20T15:55:01Z</time>
      </trkpt>
      <trkpt lat="45.18652" lon="5.90154">
        <ele>1158.4</ele>
        <time>2021-02-20T15:55:02Z</time>
      </trkpt>
      <trkpt lat="45.18651" lon="5.90152">
        <ele>1158.2</ele>
        <time>2021-02-20T15:55:03Z</time>
      </trkpt>
      <trkpt lat="45.1865" lon="5.90151">
        <ele>1158.1</ele>
        <time>2021-02-20T15:55:04Z</time>
      </trkpt>
      <trkpt lat="45.1865" lon="5.90149">
        <ele>1158</ele>
        <time>2021-02-20T15:55:05Z</time>
      </trkpt>
      <trkpt lat="45.1865" lon="5.90146">
        <ele>1157.8</ele>
        <time>2021-02-20T15:55:06Z</time>
      </trkpt>
      <trkpt lat="45.1865" lon="5.90145">
        <ele>1157.7</ele>
        <time>2021-02-20T15:55:07Z</time>
      </trkpt>
      <trkpt lat="45.1865" lon="5.90144">
        <ele>1157.6</ele>
        <time>2021-02-20T15:55:08Z</time>
      </trkpt>
      <trkpt lat="45.1865" lon="5.90142">
        <ele>1157.5</ele>
        <time>2021-02-20T15:55:09Z</time>
      </trkpt>
      <trkpt lat="45.1865" lon="5.9014">
        <ele>1157.4</ele>
        <time>2021-02-20T15:55:10Z</time>
      </trkpt>
      <trkpt lat="45.1865" lon="5.90138">
        <ele>1157.2</ele>
        <time>2021-02-20T15:55:11Z</time>
      </trkpt>
      <trkpt lat="45.18651" lon="5.90136">
        <ele>1157.1</ele>
        <time>2021-02-20T15:55:12Z</time>
      </trkpt>
      <trkpt lat="45.18651" lon="5.90134">
        <ele>1156.9</ele>
        <time>2021-02-20T15:55:13Z</time>
      </trkpt>
      <trkpt lat="45.18651" lon="5.90131">
        <ele>1156.7</ele>
        <time>2021-02-20T15:55:14Z</time>
      </trkpt>
      <trkpt lat="45.18651" lon="5.90129">
        <ele>1156.5</ele>
        <time>2021-02-20T15:55:15Z</time>
      </trkpt>
      <trkpt lat="45.18651" lon="5.90127">
        <ele>1156.4</ele>
        <time>2021-02-20T15:55:16Z</time>
      </trkpt>
      <trkpt lat="45.18651" lon="5.90126">
        <ele>1156.3</ele>
        <time>2021-02-20T15:55:17Z</time>
      </trkpt>
      <trkpt lat="45.1865" lon="5.90125">
        <ele>1156.2</ele>
        <time>2021-02-20T15:55:18Z</time>
      </trkpt>
      <trkpt lat="45.1865" lon="5.90123">
        <ele>1156.1</ele>
        <time>2021-02-20T15:55:19Z</time>
      </trkpt>
      <trkpt lat="45.1865" lon="5.90121">
        <ele>1156</ele>
        <time>2021-02-20T15:55:20Z</time>
      </trkpt>
      <trkpt lat="45.1865" lon="5.9012">
        <ele>1156</ele>
        <time>2021-02-20T15:55:21Z</time>
      </trkpt>
      <trkpt lat="45.18649" lon="5.90118">
        <ele>1155.9</ele>
        <time>2021-02-20T15:55:22Z</time>
      </trkpt>
      <trkpt lat="45.18649" lon="5.90116">
        <ele>1155.9</ele>
        <time>2021-02-20T15:55:23Z</time>
      </trkpt>
      <trkpt lat="45.18649" lon="5.90114">
        <ele>1155.8</ele>
        <time>2021-02-20T15:55:24Z</time>
      </trkpt>
      <trkpt lat="45.18649" lon="5.90112">
        <ele>1155.8</ele>
        <time>2021-02-20T15:55:25Z</time>
      </trkpt>
      <trkpt lat="45.18649" lon="5.90111">
        <ele>1155.7</ele>
        <time>2021-02-20T15:55:26Z</time>
      </trkpt>
      <trkpt lat="45.18649" lon="5.90109">
        <ele>1155.7</ele>
        <time>2021-02-20T15:55:27Z</time>
      </trkpt>
      <trkpt lat="45.18649" lon="5.90108">
        <ele>1155.7</ele>
        <time>2021-02-20T15:55:28Z</time>
      </trkpt>
      <trkpt lat="45.18649" lon="5.90107">
        <ele>1155.7</ele>
        <time>2021-02-20T15:55:29Z</time>
      </trkpt>
      <trkpt lat="45.18649" lon="5.90105">
        <ele>1155.6</ele>
        <time>2021-02-20T15:55:30Z</time>
      </trkpt>
      <trkpt lat="45.1865" lon="5.90104">
        <ele>1155.6</ele>
        <time>2021-02-20T15:55:31Z</time>
      </trkpt>
      <trkpt lat="45.1865" lon="5.90103">
        <ele>1155.6</ele>
        <time>2021-02-20T15:55:32Z</time>
      </trkpt>
      <trkpt lat="45.1865" lon="5.90102">
        <ele>1155.6</ele>
        <time>2021-02-20T15:55:33Z</time>
      </trkpt>
      <trkpt lat="45.1865" lon="5.901">
        <ele>1155.5</ele>
        <time>2021-02-20T15:55:34Z</time>
      </trkpt>
      <trkpt lat="45.18649" lon="5.90099">
        <ele>1155.5</ele>
        <time>2021-02-20T15:55:35Z</time>
      </trkpt>
      <trkpt lat="45.18649" lon="5.90098">
        <ele>1155.5</ele>
        <time>2021-02-20T15:55:36Z</time>
      </trkpt>
      <trkpt lat="45.18649" lon="5.90096">
        <ele>1155.5</ele>
        <time>2021-02-20T15:55:37Z</time>
      </trkpt>
      <trkpt lat="45.18649" lon="5.90095">
        <ele>1155.5</ele>
        <time>2021-02-20T15:55:38Z</time>
      </trkpt>
      <trkpt lat="45.18649" lon="5.90093">
        <ele>1155.5</ele>
        <time>2021-02-20T15:55:39Z</time>
      </trkpt>
      <trkpt lat="45.18649" lon="5.90092">
        <ele>1155.5</ele>
        <time>2021-02-20T15:55:40Z</time>
      </trkpt>
      <trkpt lat="45.18649" lon="5.90091">
        <ele>1155.5</ele>
        <time>2021-02-20T15:55:41Z</time>
      </trkpt>
      <trkpt lat="45.1865" lon="5.90089">
        <ele>1155.4</ele>
        <time>2021-02-20T15:55:42Z</time>
      </trkpt>
      <trkpt lat="45.1865" lon="5.90088">
        <ele>1155.4</ele>
        <time>2021-02-20T15:55:43Z</time>
      </trkpt>
      <trkpt lat="45.18651" lon="5.90086">
        <ele>1155.4</ele>
        <time>2021-02-20T15:55:44Z</time>
      </trkpt>
      <trkpt lat="45.18651" lon="5.90085">
        <ele>1155.4</ele>
        <time>2021-02-20T15:55:45Z</time>
      </trkpt>
      <trkpt lat="45.18651" lon="5.90084">
        <ele>1155.4</ele>
        <time>2021-02-20T15:55:46Z</time>
      </trkpt>
      <trkpt lat="45.18651" lon="5.90082">
        <ele>1155.4</ele>
        <time>2021-02-20T15:55:47Z</time>
      </trkpt>
      <trkpt lat="45.18652" lon="5.90081">
        <ele>1155.4</ele>
        <time>2021-02-20T15:55:48Z</time>
      </trkpt>
      <trkpt lat="45.18652" lon="5.9008">
        <ele>1155.4</ele>
        <time>2021-02-20T15:55:49Z</time>
      </trkpt>
      <trkpt lat="45.18653" lon="5.90078">
        <ele>1155.4</ele>
        <time>2021-02-20T15:55:50Z</time>
      </trkpt>
      <trkpt lat="45.18653" lon="5.90077">
        <ele>1155.4</ele>
        <time>2021-02-20T15:55:51Z</time>
      </trkpt>
      <trkpt lat="45.18653" lon="5.90076">
        <ele>1155.4</ele>
        <time>2021-02-20T15:55:52Z</time>
      </trkpt>
      <trkpt lat="45.18654" lon="5.90075">
        <ele>1155.4</ele>
        <time>2021-02-20T15:55:53Z</time>
      </trkpt>
      <trkpt lat="45.18654" lon="5.90075">
        <ele>1155.4</ele>
        <time>2021-02-20T15:55:54Z</time>
      </trkpt>
      <trkpt lat="45.18654" lon="5.90074">
        <ele>1155.3</ele>
        <time>2021-02-20T15:55:55Z</time>
      </trkpt>
      <trkpt lat="45.18655" lon="5.90073">
        <ele>1155.3</ele>
        <time>2021-02-20T15:55:56Z</time>
      </trkpt>
      <trkpt lat="45.18655" lon="5.90071">
        <ele>1155.3</ele>
        <time>2021-02-20T15:55:57Z</time>
      </trkpt>
      <trkpt lat="45.18656" lon="5.9007">
        <ele>1155.3</ele>
        <time>2021-02-20T15:55:58Z</time>
      </trkpt>
      <trkpt lat="45.18657" lon="5.90067">
        <ele>1155.3</ele>
        <time>2021-02-20T15:55:59Z</time>
      </trkpt>
      <trkpt lat="45.18657" lon="5.90065">
        <ele>1155.2</ele>
        <time>2021-02-20T15:56:00Z</time>
      </trkpt>
      <trkpt lat="45.18658" lon="5.90063">
        <ele>1155.1</ele>
        <time>2021-02-20T15:56:01Z</time>
      </trkpt>
      <trkpt lat="45.18659" lon="5.90062">
        <ele>1155.1</ele>
        <time>2021-02-20T15:56:02Z</time>
      </trkpt>
      <trkpt lat="45.18659" lon="5.9006">
        <ele>1155.1</ele>
        <time>2021-02-20T15:56:03Z</time>
      </trkpt>
      <trkpt lat="45.1866" lon="5.90058">
        <ele>1155</ele>
        <time>2021-02-20T15:56:04Z</time>
      </trkpt>
      <trkpt lat="45.1866" lon="5.90056">
        <ele>1154.9</ele>
        <time>2021-02-20T15:56:05Z</time>
      </trkpt>
      <trkpt lat="45.18661" lon="5.90054">
        <ele>1154.8</ele>
        <time>2021-02-20T15:56:06Z</time>
      </trkpt>
      <trkpt lat="45.18661" lon="5.90052">
        <ele>1154.7</ele>
        <time>2021-02-20T15:56:07Z</time>
      </trkpt>
      <trkpt lat="45.18662" lon="5.9005">
        <ele>1154.6</ele>
        <time>2021-02-20T15:56:08Z</time>
      </trkpt>
      <trkpt lat="45.18663" lon="5.90049">
        <ele>1154.4</ele>
        <time>2021-02-20T15:56:09Z</time>
      </trkpt>
      <trkpt lat="45.18663" lon="5.90046">
        <ele>1154.3</ele>
        <time>2021-02-20T15:56:10Z</time>
      </trkpt>
      <trkpt lat="45.18664" lon="5.90045">
        <ele>1154.2</ele>
        <time>2021-02-20T15:56:11Z</time>
      </trkpt>
      <trkpt lat="45.18665" lon="5.90042">
        <ele>1154</ele>
        <time>2021-02-20T15:56:12Z</time>
      </trkpt>
      <trkpt lat="45.18666" lon="5.90041">
        <ele>1153.9</ele>
        <time>2021-02-20T15:56:13Z</time>
      </trkpt>
      <trkpt lat="45.18666" lon="5.9004">
        <ele>1153.8</ele>
        <time>2021-02-20T15:56:14Z</time>
      </trkpt>
      <trkpt lat="45.18667" lon="5.90038">
        <ele>1153.6</ele>
        <time>2021-02-20T15:56:15Z</time>
      </trkpt>
      <trkpt lat="45.18668" lon="5.90037">
        <ele>1153.4</ele>
        <time>2021-02-20T15:56:16Z</time>
      </trkpt>
      <trkpt lat="45.18668" lon="5.90035">
        <ele>1153.3</ele>
        <time>2021-02-20T15:56:17Z</time>
      </trkpt>
      <trkpt lat="45.18669" lon="5.90034">
        <ele>1153.1</ele>
        <time>2021-02-20T15:56:18Z</time>
      </trkpt>
      <trkpt lat="45.18669" lon="5.90032">
        <ele>1153</ele>
        <time>2021-02-20T15:56:19Z</time>
      </trkpt>
      <trkpt lat="45.1867" lon="5.90031">
        <ele>1152.9</ele>
        <time>2021-02-20T15:56:20Z</time>
      </trkpt>
      <trkpt lat="45.1867" lon="5.9003">
        <ele>1152.8</ele>
        <time>2021-02-20T15:56:21Z</time>
      </trkpt>
      <trkpt lat="45.1867" lon="5.9003">
        <ele>1152.8</ele>
        <time>2021-02-20T15:56:22Z</time>
      </trkpt>
      <trkpt lat="45.1867" lon="5.9003">
        <ele>1152.7</ele>
        <time>2021-02-20T15:56:23Z</time>
      </trkpt>
      <trkpt lat="45.18671" lon="5.90029">
        <ele>1152.7</ele>
        <time>2021-02-20T15:56:24Z</time>
      </trkpt>
      <trkpt lat="45.18671" lon="5.90029">
        <ele>1152.7</ele>
        <time>2021-02-20T15:56:25Z</time>
      </trkpt>
      <trkpt lat="45.1867" lon="5.90028">
        <ele>1152.6</ele>
        <time>2021-02-20T15:56:26Z</time>
      </trkpt>
      <trkpt lat="45.1867" lon="5.90027">
        <ele>1152.5</ele>
        <time>2021-02-20T15:56:27Z</time>
      </trkpt>
      <trkpt lat="45.1867" lon="5.90027">
        <ele>1152.5</ele>
        <time>2021-02-20T15:56:28Z</time>
      </trkpt>
      <trkpt lat="45.1867" lon="5.90027">
        <ele>1152.5</ele>
        <time>2021-02-20T15:56:29Z</time>
      </trkpt>
      <trkpt lat="45.1867" lon="5.90027">
        <ele>1152.5</ele>
        <time>2021-02-20T15:56:30Z</time>
      </trkpt>
      <trkpt lat="45.1867" lon="5.90027">
        <ele>1152.5</ele>
        <time>2021-02-20T15:56:31Z</time>
      </trkpt>
    </trkseg>
  </trk>
</gpx>